<?xml version="1.0" encoding="UTF-8" standalone="no" ?>
<gpx xmlns="http://www.topografix.com/GPX/1/1" xmlns:xsi="http://www.w3.org/2001/XMLSchema-instance" xsi:schemaLocation="http://www.topografix.com/GPX/1/1 http://www.topografix.com/GPX/1/1/gpx.xsd" version="1.1" creator="VisuGPX - https://www.visugpx.com">
  <metadata>
    <name>2014-05-04 Buiscyclette 2014-37kms</name>
    <desc><![CDATA[La rando 2014 sur le 37kms et 1.600m de D .
Beau parcours, magnifiques panoramas]]></desc>
  </metadata>
  <trk>
    <name><![CDATA[2014-05-04 Buiscyclette]]></name>
    <trkseg>
      <trkpt lat="44.28434" lon="5.28191">
        <ele>382.2</ele>
        <time>2014-05-04T06:14:11Z</time>
      </trkpt>
      <trkpt lat="44.28434" lon="5.28191">
        <ele>382.2</ele>
        <time>2014-05-04T06:14:12Z</time>
      </trkpt>
      <trkpt lat="44.28429" lon="5.28188">
        <ele>382</ele>
        <time>2014-05-04T06:15:45Z</time>
      </trkpt>
      <trkpt lat="44.28424" lon="5.28187">
        <ele>381.8</ele>
        <time>2014-05-04T06:15:48Z</time>
      </trkpt>
      <trkpt lat="44.28418" lon="5.28187">
        <ele>381.7</ele>
        <time>2014-05-04T06:15:51Z</time>
      </trkpt>
      <trkpt lat="44.28411" lon="5.28188">
        <ele>381.8</ele>
        <time>2014-05-04T06:15:54Z</time>
      </trkpt>
      <trkpt lat="44.28407" lon="5.28189">
        <ele>381.9</ele>
        <time>2014-05-04T06:15:56Z</time>
      </trkpt>
      <trkpt lat="44.28401" lon="5.28191">
        <ele>382</ele>
        <time>2014-05-04T06:15:58Z</time>
      </trkpt>
      <trkpt lat="44.28395" lon="5.28192">
        <ele>382.1</ele>
        <time>2014-05-04T06:16:00Z</time>
      </trkpt>
      <trkpt lat="44.2839" lon="5.28194">
        <ele>382.3</ele>
        <time>2014-05-04T06:16:02Z</time>
      </trkpt>
      <trkpt lat="44.28383" lon="5.28194">
        <ele>382.4</ele>
        <time>2014-05-04T06:16:04Z</time>
      </trkpt>
      <trkpt lat="44.28377" lon="5.28193">
        <ele>382.4</ele>
        <time>2014-05-04T06:16:06Z</time>
      </trkpt>
      <trkpt lat="44.2837" lon="5.28191">
        <ele>382.4</ele>
        <time>2014-05-04T06:16:08Z</time>
      </trkpt>
      <trkpt lat="44.28362" lon="5.28187">
        <ele>382.4</ele>
        <time>2014-05-04T06:16:10Z</time>
      </trkpt>
      <trkpt lat="44.28353" lon="5.28183">
        <ele>382.3</ele>
        <time>2014-05-04T06:16:12Z</time>
      </trkpt>
      <trkpt lat="44.28346" lon="5.28178">
        <ele>382.2</ele>
        <time>2014-05-04T06:16:14Z</time>
      </trkpt>
      <trkpt lat="44.28339" lon="5.28174">
        <ele>382.2</ele>
        <time>2014-05-04T06:16:16Z</time>
      </trkpt>
      <trkpt lat="44.28332" lon="5.2817">
        <ele>382.1</ele>
        <time>2014-05-04T06:16:18Z</time>
      </trkpt>
      <trkpt lat="44.28326" lon="5.28166">
        <ele>381.9</ele>
        <time>2014-05-04T06:16:20Z</time>
      </trkpt>
      <trkpt lat="44.28319" lon="5.28161">
        <ele>381.8</ele>
        <time>2014-05-04T06:16:22Z</time>
      </trkpt>
      <trkpt lat="44.28311" lon="5.28155">
        <ele>381.7</ele>
        <time>2014-05-04T06:16:24Z</time>
      </trkpt>
      <trkpt lat="44.28303" lon="5.2815">
        <ele>381.6</ele>
        <time>2014-05-04T06:16:26Z</time>
      </trkpt>
      <trkpt lat="44.28298" lon="5.28147">
        <ele>381.6</ele>
        <time>2014-05-04T06:16:27Z</time>
      </trkpt>
      <trkpt lat="44.28294" lon="5.28144">
        <ele>381.5</ele>
        <time>2014-05-04T06:16:28Z</time>
      </trkpt>
      <trkpt lat="44.28287" lon="5.28139">
        <ele>381.4</ele>
        <time>2014-05-04T06:16:30Z</time>
      </trkpt>
      <trkpt lat="44.28279" lon="5.28134">
        <ele>381.3</ele>
        <time>2014-05-04T06:16:32Z</time>
      </trkpt>
      <trkpt lat="44.28272" lon="5.28128">
        <ele>381.3</ele>
        <time>2014-05-04T06:16:34Z</time>
      </trkpt>
      <trkpt lat="44.28265" lon="5.28123">
        <ele>381.2</ele>
        <time>2014-05-04T06:16:36Z</time>
      </trkpt>
      <trkpt lat="44.28257" lon="5.28118">
        <ele>381.1</ele>
        <time>2014-05-04T06:16:38Z</time>
      </trkpt>
      <trkpt lat="44.2825" lon="5.28114">
        <ele>381</ele>
        <time>2014-05-04T06:16:40Z</time>
      </trkpt>
      <trkpt lat="44.28243" lon="5.28109">
        <ele>381</ele>
        <time>2014-05-04T06:16:42Z</time>
      </trkpt>
      <trkpt lat="44.28235" lon="5.28105">
        <ele>381</ele>
        <time>2014-05-04T06:16:44Z</time>
      </trkpt>
      <trkpt lat="44.28228" lon="5.28101">
        <ele>380.9</ele>
        <time>2014-05-04T06:16:46Z</time>
      </trkpt>
      <trkpt lat="44.28213" lon="5.28091">
        <ele>381</ele>
        <time>2014-05-04T06:16:50Z</time>
      </trkpt>
      <trkpt lat="44.28209" lon="5.28088">
        <ele>381</ele>
        <time>2014-05-04T06:16:51Z</time>
      </trkpt>
      <trkpt lat="44.28202" lon="5.28081">
        <ele>381.2</ele>
        <time>2014-05-04T06:16:53Z</time>
      </trkpt>
      <trkpt lat="44.28195" lon="5.28075">
        <ele>381.7</ele>
        <time>2014-05-04T06:16:55Z</time>
      </trkpt>
      <trkpt lat="44.28187" lon="5.28071">
        <ele>382</ele>
        <time>2014-05-04T06:16:57Z</time>
      </trkpt>
      <trkpt lat="44.2818" lon="5.28065">
        <ele>382.4</ele>
        <time>2014-05-04T06:16:59Z</time>
      </trkpt>
      <trkpt lat="44.28173" lon="5.28059">
        <ele>382.8</ele>
        <time>2014-05-04T06:17:01Z</time>
      </trkpt>
      <trkpt lat="44.28165" lon="5.28054">
        <ele>383.1</ele>
        <time>2014-05-04T06:17:03Z</time>
      </trkpt>
      <trkpt lat="44.28158" lon="5.28049">
        <ele>383.2</ele>
        <time>2014-05-04T06:17:05Z</time>
      </trkpt>
      <trkpt lat="44.2815" lon="5.28044">
        <ele>383.1</ele>
        <time>2014-05-04T06:17:07Z</time>
      </trkpt>
      <trkpt lat="44.28142" lon="5.28038">
        <ele>383.2</ele>
        <time>2014-05-04T06:17:09Z</time>
      </trkpt>
      <trkpt lat="44.28138" lon="5.28035">
        <ele>383.2</ele>
        <time>2014-05-04T06:17:10Z</time>
      </trkpt>
      <trkpt lat="44.28134" lon="5.28032">
        <ele>383.2</ele>
        <time>2014-05-04T06:17:11Z</time>
      </trkpt>
      <trkpt lat="44.28129" lon="5.28029">
        <ele>383.2</ele>
        <time>2014-05-04T06:17:12Z</time>
      </trkpt>
      <trkpt lat="44.28125" lon="5.28027">
        <ele>383.1</ele>
        <time>2014-05-04T06:17:13Z</time>
      </trkpt>
      <trkpt lat="44.28121" lon="5.28024">
        <ele>383</ele>
        <time>2014-05-04T06:17:14Z</time>
      </trkpt>
      <trkpt lat="44.28117" lon="5.28021">
        <ele>383</ele>
        <time>2014-05-04T06:17:15Z</time>
      </trkpt>
      <trkpt lat="44.28112" lon="5.28018">
        <ele>382.9</ele>
        <time>2014-05-04T06:17:16Z</time>
      </trkpt>
      <trkpt lat="44.28108" lon="5.28016">
        <ele>382.8</ele>
        <time>2014-05-04T06:17:17Z</time>
      </trkpt>
      <trkpt lat="44.28104" lon="5.28013">
        <ele>382.6</ele>
        <time>2014-05-04T06:17:18Z</time>
      </trkpt>
      <trkpt lat="44.28099" lon="5.28011">
        <ele>382.5</ele>
        <time>2014-05-04T06:17:19Z</time>
      </trkpt>
      <trkpt lat="44.28091" lon="5.28006">
        <ele>382.2</ele>
        <time>2014-05-04T06:17:21Z</time>
      </trkpt>
      <trkpt lat="44.28087" lon="5.28006">
        <ele>382</ele>
        <time>2014-05-04T06:17:22Z</time>
      </trkpt>
      <trkpt lat="44.28079" lon="5.28008">
        <ele>381.6</ele>
        <time>2014-05-04T06:17:24Z</time>
      </trkpt>
      <trkpt lat="44.28075" lon="5.28015">
        <ele>381.2</ele>
        <time>2014-05-04T06:17:26Z</time>
      </trkpt>
      <trkpt lat="44.28073" lon="5.28026">
        <ele>380.7</ele>
        <time>2014-05-04T06:17:28Z</time>
      </trkpt>
      <trkpt lat="44.28073" lon="5.28038">
        <ele>380.4</ele>
        <time>2014-05-04T06:17:30Z</time>
      </trkpt>
      <trkpt lat="44.28073" lon="5.28049">
        <ele>379.9</ele>
        <time>2014-05-04T06:17:32Z</time>
      </trkpt>
      <trkpt lat="44.28073" lon="5.28062">
        <ele>379.5</ele>
        <time>2014-05-04T06:17:34Z</time>
      </trkpt>
      <trkpt lat="44.28073" lon="5.28068">
        <ele>379.3</ele>
        <time>2014-05-04T06:17:35Z</time>
      </trkpt>
      <trkpt lat="44.28073" lon="5.28074">
        <ele>379.1</ele>
        <time>2014-05-04T06:17:36Z</time>
      </trkpt>
      <trkpt lat="44.28072" lon="5.28086">
        <ele>378.7</ele>
        <time>2014-05-04T06:17:38Z</time>
      </trkpt>
      <trkpt lat="44.28067" lon="5.28094">
        <ele>378.6</ele>
        <time>2014-05-04T06:17:40Z</time>
      </trkpt>
      <trkpt lat="44.28061" lon="5.28089">
        <ele>378.5</ele>
        <time>2014-05-04T06:17:42Z</time>
      </trkpt>
      <trkpt lat="44.28058" lon="5.28078">
        <ele>378.6</ele>
        <time>2014-05-04T06:17:44Z</time>
      </trkpt>
      <trkpt lat="44.28055" lon="5.28066">
        <ele>378.9</ele>
        <time>2014-05-04T06:17:46Z</time>
      </trkpt>
      <trkpt lat="44.28053" lon="5.2806">
        <ele>379</ele>
        <time>2014-05-04T06:17:47Z</time>
      </trkpt>
      <trkpt lat="44.28051" lon="5.28053">
        <ele>379.2</ele>
        <time>2014-05-04T06:17:48Z</time>
      </trkpt>
      <trkpt lat="44.28047" lon="5.2804">
        <ele>379.4</ele>
        <time>2014-05-04T06:17:50Z</time>
      </trkpt>
      <trkpt lat="44.28045" lon="5.28034">
        <ele>379.6</ele>
        <time>2014-05-04T06:17:51Z</time>
      </trkpt>
      <trkpt lat="44.28042" lon="5.28028">
        <ele>379.7</ele>
        <time>2014-05-04T06:17:52Z</time>
      </trkpt>
      <trkpt lat="44.2804" lon="5.28022">
        <ele>379.8</ele>
        <time>2014-05-04T06:17:53Z</time>
      </trkpt>
      <trkpt lat="44.28037" lon="5.28016">
        <ele>379.9</ele>
        <time>2014-05-04T06:17:54Z</time>
      </trkpt>
      <trkpt lat="44.28035" lon="5.2801">
        <ele>380</ele>
        <time>2014-05-04T06:17:55Z</time>
      </trkpt>
      <trkpt lat="44.28032" lon="5.28005">
        <ele>380</ele>
        <time>2014-05-04T06:17:56Z</time>
      </trkpt>
      <trkpt lat="44.28029" lon="5.27999">
        <ele>380.2</ele>
        <time>2014-05-04T06:17:57Z</time>
      </trkpt>
      <trkpt lat="44.28026" lon="5.27994">
        <ele>380.7</ele>
        <time>2014-05-04T06:17:58Z</time>
      </trkpt>
      <trkpt lat="44.28021" lon="5.27984">
        <ele>381.5</ele>
        <time>2014-05-04T06:18:00Z</time>
      </trkpt>
      <trkpt lat="44.28016" lon="5.27975">
        <ele>382.5</ele>
        <time>2014-05-04T06:18:02Z</time>
      </trkpt>
      <trkpt lat="44.28012" lon="5.27965">
        <ele>383.3</ele>
        <time>2014-05-04T06:18:04Z</time>
      </trkpt>
      <trkpt lat="44.28007" lon="5.27956">
        <ele>384.1</ele>
        <time>2014-05-04T06:18:06Z</time>
      </trkpt>
      <trkpt lat="44.28002" lon="5.27948">
        <ele>384.9</ele>
        <time>2014-05-04T06:18:08Z</time>
      </trkpt>
      <trkpt lat="44.27998" lon="5.27938">
        <ele>385.6</ele>
        <time>2014-05-04T06:18:10Z</time>
      </trkpt>
      <trkpt lat="44.27992" lon="5.27928">
        <ele>386</ele>
        <time>2014-05-04T06:18:12Z</time>
      </trkpt>
      <trkpt lat="44.27989" lon="5.27924">
        <ele>386.2</ele>
        <time>2014-05-04T06:18:13Z</time>
      </trkpt>
      <trkpt lat="44.27985" lon="5.2792">
        <ele>386.1</ele>
        <time>2014-05-04T06:18:14Z</time>
      </trkpt>
      <trkpt lat="44.2798" lon="5.27916">
        <ele>386</ele>
        <time>2014-05-04T06:18:15Z</time>
      </trkpt>
      <trkpt lat="44.27975" lon="5.27914">
        <ele>385.9</ele>
        <time>2014-05-04T06:18:16Z</time>
      </trkpt>
      <trkpt lat="44.27969" lon="5.27912">
        <ele>385.5</ele>
        <time>2014-05-04T06:18:17Z</time>
      </trkpt>
      <trkpt lat="44.27964" lon="5.2791">
        <ele>385.3</ele>
        <time>2014-05-04T06:18:18Z</time>
      </trkpt>
      <trkpt lat="44.27958" lon="5.27908">
        <ele>384.8</ele>
        <time>2014-05-04T06:18:19Z</time>
      </trkpt>
      <trkpt lat="44.27952" lon="5.27907">
        <ele>384.3</ele>
        <time>2014-05-04T06:18:20Z</time>
      </trkpt>
      <trkpt lat="44.27947" lon="5.27904">
        <ele>383.9</ele>
        <time>2014-05-04T06:18:21Z</time>
      </trkpt>
      <trkpt lat="44.27941" lon="5.27901">
        <ele>383.5</ele>
        <time>2014-05-04T06:18:22Z</time>
      </trkpt>
      <trkpt lat="44.27935" lon="5.27898">
        <ele>383.3</ele>
        <time>2014-05-04T06:18:23Z</time>
      </trkpt>
      <trkpt lat="44.27929" lon="5.27894">
        <ele>383</ele>
        <time>2014-05-04T06:18:24Z</time>
      </trkpt>
      <trkpt lat="44.27924" lon="5.2789">
        <ele>382.7</ele>
        <time>2014-05-04T06:18:25Z</time>
      </trkpt>
      <trkpt lat="44.27919" lon="5.27885">
        <ele>382.5</ele>
        <time>2014-05-04T06:18:26Z</time>
      </trkpt>
      <trkpt lat="44.27914" lon="5.2788">
        <ele>382.3</ele>
        <time>2014-05-04T06:18:27Z</time>
      </trkpt>
      <trkpt lat="44.27909" lon="5.27876">
        <ele>382.3</ele>
        <time>2014-05-04T06:18:28Z</time>
      </trkpt>
      <trkpt lat="44.27904" lon="5.27871">
        <ele>382.3</ele>
        <time>2014-05-04T06:18:29Z</time>
      </trkpt>
      <trkpt lat="44.27899" lon="5.27866">
        <ele>382.1</ele>
        <time>2014-05-04T06:18:30Z</time>
      </trkpt>
      <trkpt lat="44.27894" lon="5.27861">
        <ele>382</ele>
        <time>2014-05-04T06:18:31Z</time>
      </trkpt>
      <trkpt lat="44.27889" lon="5.27856">
        <ele>381.9</ele>
        <time>2014-05-04T06:18:32Z</time>
      </trkpt>
      <trkpt lat="44.27885" lon="5.27851">
        <ele>381.7</ele>
        <time>2014-05-04T06:18:33Z</time>
      </trkpt>
      <trkpt lat="44.2788" lon="5.27846">
        <ele>381.5</ele>
        <time>2014-05-04T06:18:34Z</time>
      </trkpt>
      <trkpt lat="44.27875" lon="5.27841">
        <ele>381.1</ele>
        <time>2014-05-04T06:18:35Z</time>
      </trkpt>
      <trkpt lat="44.2787" lon="5.27837">
        <ele>380.7</ele>
        <time>2014-05-04T06:18:36Z</time>
      </trkpt>
      <trkpt lat="44.27866" lon="5.27832">
        <ele>380.4</ele>
        <time>2014-05-04T06:18:37Z</time>
      </trkpt>
      <trkpt lat="44.27861" lon="5.27827">
        <ele>380.3</ele>
        <time>2014-05-04T06:18:38Z</time>
      </trkpt>
      <trkpt lat="44.27857" lon="5.27822">
        <ele>380.1</ele>
        <time>2014-05-04T06:18:39Z</time>
      </trkpt>
      <trkpt lat="44.27852" lon="5.27817">
        <ele>379.9</ele>
        <time>2014-05-04T06:18:40Z</time>
      </trkpt>
      <trkpt lat="44.27848" lon="5.27813">
        <ele>379.6</ele>
        <time>2014-05-04T06:18:41Z</time>
      </trkpt>
      <trkpt lat="44.27844" lon="5.27808">
        <ele>379.2</ele>
        <time>2014-05-04T06:18:42Z</time>
      </trkpt>
      <trkpt lat="44.27839" lon="5.27804">
        <ele>378.8</ele>
        <time>2014-05-04T06:18:43Z</time>
      </trkpt>
      <trkpt lat="44.27835" lon="5.278">
        <ele>378.3</ele>
        <time>2014-05-04T06:18:44Z</time>
      </trkpt>
      <trkpt lat="44.27831" lon="5.27795">
        <ele>378.2</ele>
        <time>2014-05-04T06:18:45Z</time>
      </trkpt>
      <trkpt lat="44.27826" lon="5.27791">
        <ele>378.2</ele>
        <time>2014-05-04T06:18:46Z</time>
      </trkpt>
      <trkpt lat="44.27822" lon="5.27787">
        <ele>378.1</ele>
        <time>2014-05-04T06:18:47Z</time>
      </trkpt>
      <trkpt lat="44.27818" lon="5.27783">
        <ele>378</ele>
        <time>2014-05-04T06:18:48Z</time>
      </trkpt>
      <trkpt lat="44.27814" lon="5.27779">
        <ele>377.9</ele>
        <time>2014-05-04T06:18:49Z</time>
      </trkpt>
      <trkpt lat="44.27806" lon="5.27771">
        <ele>377.6</ele>
        <time>2014-05-04T06:18:51Z</time>
      </trkpt>
      <trkpt lat="44.27802" lon="5.27768">
        <ele>377.4</ele>
        <time>2014-05-04T06:18:52Z</time>
      </trkpt>
      <trkpt lat="44.27798" lon="5.27764">
        <ele>377.2</ele>
        <time>2014-05-04T06:18:53Z</time>
      </trkpt>
      <trkpt lat="44.27794" lon="5.2776">
        <ele>377</ele>
        <time>2014-05-04T06:18:54Z</time>
      </trkpt>
      <trkpt lat="44.27791" lon="5.27756">
        <ele>376.8</ele>
        <time>2014-05-04T06:18:55Z</time>
      </trkpt>
      <trkpt lat="44.27787" lon="5.27752">
        <ele>376.5</ele>
        <time>2014-05-04T06:18:56Z</time>
      </trkpt>
      <trkpt lat="44.27783" lon="5.27748">
        <ele>376.4</ele>
        <time>2014-05-04T06:18:57Z</time>
      </trkpt>
      <trkpt lat="44.27779" lon="5.27744">
        <ele>376.4</ele>
        <time>2014-05-04T06:18:58Z</time>
      </trkpt>
      <trkpt lat="44.27772" lon="5.27738">
        <ele>376.2</ele>
        <time>2014-05-04T06:19:00Z</time>
      </trkpt>
      <trkpt lat="44.27765" lon="5.27731">
        <ele>375.8</ele>
        <time>2014-05-04T06:19:02Z</time>
      </trkpt>
      <trkpt lat="44.27761" lon="5.27727">
        <ele>375.6</ele>
        <time>2014-05-04T06:19:03Z</time>
      </trkpt>
      <trkpt lat="44.27757" lon="5.27724">
        <ele>375.3</ele>
        <time>2014-05-04T06:19:04Z</time>
      </trkpt>
      <trkpt lat="44.27753" lon="5.27719">
        <ele>375</ele>
        <time>2014-05-04T06:19:05Z</time>
      </trkpt>
      <trkpt lat="44.27749" lon="5.27715">
        <ele>374.7</ele>
        <time>2014-05-04T06:19:06Z</time>
      </trkpt>
      <trkpt lat="44.27745" lon="5.27711">
        <ele>374.8</ele>
        <time>2014-05-04T06:19:07Z</time>
      </trkpt>
      <trkpt lat="44.2774" lon="5.27706">
        <ele>374.8</ele>
        <time>2014-05-04T06:19:08Z</time>
      </trkpt>
      <trkpt lat="44.27736" lon="5.27701">
        <ele>374.9</ele>
        <time>2014-05-04T06:19:09Z</time>
      </trkpt>
      <trkpt lat="44.27731" lon="5.27696">
        <ele>375</ele>
        <time>2014-05-04T06:19:10Z</time>
      </trkpt>
      <trkpt lat="44.27727" lon="5.27692">
        <ele>375</ele>
        <time>2014-05-04T06:19:11Z</time>
      </trkpt>
      <trkpt lat="44.27723" lon="5.27687">
        <ele>375</ele>
        <time>2014-05-04T06:19:12Z</time>
      </trkpt>
      <trkpt lat="44.2772" lon="5.27683">
        <ele>375</ele>
        <time>2014-05-04T06:19:13Z</time>
      </trkpt>
      <trkpt lat="44.27716" lon="5.27679">
        <ele>375</ele>
        <time>2014-05-04T06:19:14Z</time>
      </trkpt>
      <trkpt lat="44.27712" lon="5.27675">
        <ele>375</ele>
        <time>2014-05-04T06:19:15Z</time>
      </trkpt>
      <trkpt lat="44.27705" lon="5.27669">
        <ele>374.8</ele>
        <time>2014-05-04T06:19:17Z</time>
      </trkpt>
      <trkpt lat="44.27698" lon="5.27663">
        <ele>374.8</ele>
        <time>2014-05-04T06:19:19Z</time>
      </trkpt>
      <trkpt lat="44.27692" lon="5.27656">
        <ele>374.8</ele>
        <time>2014-05-04T06:19:21Z</time>
      </trkpt>
      <trkpt lat="44.27685" lon="5.27649">
        <ele>374.7</ele>
        <time>2014-05-04T06:19:23Z</time>
      </trkpt>
      <trkpt lat="44.27678" lon="5.27642">
        <ele>374.4</ele>
        <time>2014-05-04T06:19:25Z</time>
      </trkpt>
      <trkpt lat="44.27674" lon="5.27638">
        <ele>374.3</ele>
        <time>2014-05-04T06:19:26Z</time>
      </trkpt>
      <trkpt lat="44.27666" lon="5.27632">
        <ele>373.8</ele>
        <time>2014-05-04T06:19:28Z</time>
      </trkpt>
      <trkpt lat="44.27659" lon="5.27625">
        <ele>373.9</ele>
        <time>2014-05-04T06:19:30Z</time>
      </trkpt>
      <trkpt lat="44.27653" lon="5.27619">
        <ele>373.9</ele>
        <time>2014-05-04T06:19:32Z</time>
      </trkpt>
      <trkpt lat="44.27647" lon="5.27615">
        <ele>373.9</ele>
        <time>2014-05-04T06:19:34Z</time>
      </trkpt>
      <trkpt lat="44.27642" lon="5.2761">
        <ele>373.9</ele>
        <time>2014-05-04T06:19:36Z</time>
      </trkpt>
      <trkpt lat="44.27637" lon="5.27605">
        <ele>373.9</ele>
        <time>2014-05-04T06:19:38Z</time>
      </trkpt>
      <trkpt lat="44.27633" lon="5.276">
        <ele>373.9</ele>
        <time>2014-05-04T06:19:40Z</time>
      </trkpt>
      <trkpt lat="44.27628" lon="5.27599">
        <ele>373.8</ele>
        <time>2014-05-04T06:19:42Z</time>
      </trkpt>
      <trkpt lat="44.27623" lon="5.27601">
        <ele>373.6</ele>
        <time>2014-05-04T06:19:45Z</time>
      </trkpt>
      <trkpt lat="44.27621" lon="5.27607">
        <ele>373.5</ele>
        <time>2014-05-04T06:19:48Z</time>
      </trkpt>
      <trkpt lat="44.27616" lon="5.27605">
        <ele>373.4</ele>
        <time>2014-05-04T06:23:05Z</time>
      </trkpt>
      <trkpt lat="44.27609" lon="5.27608">
        <ele>373.2</ele>
        <time>2014-05-04T06:23:13Z</time>
      </trkpt>
      <trkpt lat="44.27607" lon="5.27614">
        <ele>373.1</ele>
        <time>2014-05-04T06:23:25Z</time>
      </trkpt>
      <trkpt lat="44.27604" lon="5.2762">
        <ele>373</ele>
        <time>2014-05-04T06:23:28Z</time>
      </trkpt>
      <trkpt lat="44.27602" lon="5.27626">
        <ele>372.8</ele>
        <time>2014-05-04T06:23:30Z</time>
      </trkpt>
      <trkpt lat="44.27599" lon="5.27634">
        <ele>372.7</ele>
        <time>2014-05-04T06:23:33Z</time>
      </trkpt>
      <trkpt lat="44.27598" lon="5.27641">
        <ele>372.5</ele>
        <time>2014-05-04T06:23:37Z</time>
      </trkpt>
      <trkpt lat="44.27598" lon="5.27635">
        <ele>372.6</ele>
        <time>2014-05-04T06:23:43Z</time>
      </trkpt>
      <trkpt lat="44.27601" lon="5.27628">
        <ele>372.8</ele>
        <time>2014-05-04T06:23:46Z</time>
      </trkpt>
      <trkpt lat="44.27603" lon="5.2762">
        <ele>372.9</ele>
        <time>2014-05-04T06:24:23Z</time>
      </trkpt>
      <trkpt lat="44.27615" lon="5.27617">
        <ele>373.2</ele>
        <time>2014-05-04T06:24:28Z</time>
      </trkpt>
      <trkpt lat="44.27615" lon="5.27609">
        <ele>373.4</ele>
        <time>2014-05-04T06:24:30Z</time>
      </trkpt>
      <trkpt lat="44.27612" lon="5.27601">
        <ele>373.4</ele>
        <time>2014-05-04T06:24:32Z</time>
      </trkpt>
      <trkpt lat="44.27608" lon="5.27596">
        <ele>373.4</ele>
        <time>2014-05-04T06:24:34Z</time>
      </trkpt>
      <trkpt lat="44.27606" lon="5.27591">
        <ele>373.4</ele>
        <time>2014-05-04T06:24:37Z</time>
      </trkpt>
      <trkpt lat="44.27604" lon="5.27582">
        <ele>373.5</ele>
        <time>2014-05-04T06:24:40Z</time>
      </trkpt>
      <trkpt lat="44.27601" lon="5.27576">
        <ele>373.7</ele>
        <time>2014-05-04T06:24:42Z</time>
      </trkpt>
      <trkpt lat="44.276" lon="5.27567">
        <ele>373.9</ele>
        <time>2014-05-04T06:24:44Z</time>
      </trkpt>
      <trkpt lat="44.27596" lon="5.27564">
        <ele>373.9</ele>
        <time>2014-05-04T06:24:47Z</time>
      </trkpt>
      <trkpt lat="44.2759" lon="5.27561">
        <ele>373.8</ele>
        <time>2014-05-04T06:24:50Z</time>
      </trkpt>
      <trkpt lat="44.27584" lon="5.27558">
        <ele>373.6</ele>
        <time>2014-05-04T06:24:53Z</time>
      </trkpt>
      <trkpt lat="44.27578" lon="5.27556">
        <ele>373.6</ele>
        <time>2014-05-04T06:24:55Z</time>
      </trkpt>
      <trkpt lat="44.27574" lon="5.27553">
        <ele>373.6</ele>
        <time>2014-05-04T06:24:57Z</time>
      </trkpt>
      <trkpt lat="44.27569" lon="5.2755">
        <ele>373.6</ele>
        <time>2014-05-04T06:24:59Z</time>
      </trkpt>
      <trkpt lat="44.27564" lon="5.27548">
        <ele>373.5</ele>
        <time>2014-05-04T06:25:01Z</time>
      </trkpt>
      <trkpt lat="44.2756" lon="5.27544">
        <ele>373.6</ele>
        <time>2014-05-04T06:25:03Z</time>
      </trkpt>
      <trkpt lat="44.27556" lon="5.27541">
        <ele>373.5</ele>
        <time>2014-05-04T06:25:05Z</time>
      </trkpt>
      <trkpt lat="44.27551" lon="5.27538">
        <ele>373.5</ele>
        <time>2014-05-04T06:25:07Z</time>
      </trkpt>
      <trkpt lat="44.27547" lon="5.27534">
        <ele>373.5</ele>
        <time>2014-05-04T06:25:09Z</time>
      </trkpt>
      <trkpt lat="44.27543" lon="5.2753">
        <ele>373.5</ele>
        <time>2014-05-04T06:25:11Z</time>
      </trkpt>
      <trkpt lat="44.27538" lon="5.27526">
        <ele>373.5</ele>
        <time>2014-05-04T06:25:13Z</time>
      </trkpt>
      <trkpt lat="44.27534" lon="5.27522">
        <ele>373.4</ele>
        <time>2014-05-04T06:25:15Z</time>
      </trkpt>
      <trkpt lat="44.27529" lon="5.27519">
        <ele>373.4</ele>
        <time>2014-05-04T06:25:17Z</time>
      </trkpt>
      <trkpt lat="44.27525" lon="5.27515">
        <ele>373.4</ele>
        <time>2014-05-04T06:25:19Z</time>
      </trkpt>
      <trkpt lat="44.27522" lon="5.2751">
        <ele>373.4</ele>
        <time>2014-05-04T06:25:21Z</time>
      </trkpt>
      <trkpt lat="44.2752" lon="5.27503">
        <ele>373.4</ele>
        <time>2014-05-04T06:25:23Z</time>
      </trkpt>
      <trkpt lat="44.27517" lon="5.27496">
        <ele>373.5</ele>
        <time>2014-05-04T06:25:26Z</time>
      </trkpt>
      <trkpt lat="44.27516" lon="5.27482">
        <ele>373.8</ele>
        <time>2014-05-04T06:25:30Z</time>
      </trkpt>
      <trkpt lat="44.27516" lon="5.27474">
        <ele>374</ele>
        <time>2014-05-04T06:25:32Z</time>
      </trkpt>
      <trkpt lat="44.27517" lon="5.27466">
        <ele>374.2</ele>
        <time>2014-05-04T06:25:34Z</time>
      </trkpt>
      <trkpt lat="44.27517" lon="5.27458">
        <ele>374.4</ele>
        <time>2014-05-04T06:25:36Z</time>
      </trkpt>
      <trkpt lat="44.27517" lon="5.2745">
        <ele>374.6</ele>
        <time>2014-05-04T06:25:38Z</time>
      </trkpt>
      <trkpt lat="44.27518" lon="5.27443">
        <ele>374.8</ele>
        <time>2014-05-04T06:25:40Z</time>
      </trkpt>
      <trkpt lat="44.27518" lon="5.27435">
        <ele>375</ele>
        <time>2014-05-04T06:25:42Z</time>
      </trkpt>
      <trkpt lat="44.27518" lon="5.27428">
        <ele>375.2</ele>
        <time>2014-05-04T06:25:44Z</time>
      </trkpt>
      <trkpt lat="44.27519" lon="5.27421">
        <ele>375.4</ele>
        <time>2014-05-04T06:25:46Z</time>
      </trkpt>
      <trkpt lat="44.27519" lon="5.27411">
        <ele>375.5</ele>
        <time>2014-05-04T06:25:49Z</time>
      </trkpt>
      <trkpt lat="44.27518" lon="5.27405">
        <ele>375.5</ele>
        <time>2014-05-04T06:25:51Z</time>
      </trkpt>
      <trkpt lat="44.27517" lon="5.27397">
        <ele>375.5</ele>
        <time>2014-05-04T06:25:53Z</time>
      </trkpt>
      <trkpt lat="44.27518" lon="5.27389">
        <ele>375.5</ele>
        <time>2014-05-04T06:25:55Z</time>
      </trkpt>
      <trkpt lat="44.27519" lon="5.2738">
        <ele>375.6</ele>
        <time>2014-05-04T06:25:57Z</time>
      </trkpt>
      <trkpt lat="44.27517" lon="5.27372">
        <ele>375.5</ele>
        <time>2014-05-04T06:25:59Z</time>
      </trkpt>
      <trkpt lat="44.27515" lon="5.27365">
        <ele>375.5</ele>
        <time>2014-05-04T06:26:01Z</time>
      </trkpt>
      <trkpt lat="44.27513" lon="5.27357">
        <ele>375.4</ele>
        <time>2014-05-04T06:26:03Z</time>
      </trkpt>
      <trkpt lat="44.27509" lon="5.27351">
        <ele>375.3</ele>
        <time>2014-05-04T06:26:05Z</time>
      </trkpt>
      <trkpt lat="44.27508" lon="5.27343">
        <ele>375.3</ele>
        <time>2014-05-04T06:26:07Z</time>
      </trkpt>
      <trkpt lat="44.2751" lon="5.27332">
        <ele>375.4</ele>
        <time>2014-05-04T06:26:09Z</time>
      </trkpt>
      <trkpt lat="44.27509" lon="5.27324">
        <ele>375.3</ele>
        <time>2014-05-04T06:26:11Z</time>
      </trkpt>
      <trkpt lat="44.27508" lon="5.27316">
        <ele>375.3</ele>
        <time>2014-05-04T06:26:13Z</time>
      </trkpt>
      <trkpt lat="44.27506" lon="5.27309">
        <ele>375.2</ele>
        <time>2014-05-04T06:26:15Z</time>
      </trkpt>
      <trkpt lat="44.27504" lon="5.27303">
        <ele>375.2</ele>
        <time>2014-05-04T06:26:17Z</time>
      </trkpt>
      <trkpt lat="44.27503" lon="5.27296">
        <ele>375.1</ele>
        <time>2014-05-04T06:26:19Z</time>
      </trkpt>
      <trkpt lat="44.27501" lon="5.27289">
        <ele>375</ele>
        <time>2014-05-04T06:26:21Z</time>
      </trkpt>
      <trkpt lat="44.27499" lon="5.27281">
        <ele>375</ele>
        <time>2014-05-04T06:26:23Z</time>
      </trkpt>
      <trkpt lat="44.27497" lon="5.27274">
        <ele>374.9</ele>
        <time>2014-05-04T06:26:25Z</time>
      </trkpt>
      <trkpt lat="44.27504" lon="5.27261">
        <ele>375.2</ele>
        <time>2014-05-04T06:26:27Z</time>
      </trkpt>
      <trkpt lat="44.27507" lon="5.27243">
        <ele>375.2</ele>
        <time>2014-05-04T06:26:31Z</time>
      </trkpt>
      <trkpt lat="44.27505" lon="5.27236">
        <ele>375.2</ele>
        <time>2014-05-04T06:26:35Z</time>
      </trkpt>
      <trkpt lat="44.27503" lon="5.27228">
        <ele>375.1</ele>
        <time>2014-05-04T06:26:39Z</time>
      </trkpt>
      <trkpt lat="44.27502" lon="5.27221">
        <ele>375.1</ele>
        <time>2014-05-04T06:26:41Z</time>
      </trkpt>
      <trkpt lat="44.275" lon="5.27213">
        <ele>375</ele>
        <time>2014-05-04T06:26:43Z</time>
      </trkpt>
      <trkpt lat="44.27499" lon="5.27206">
        <ele>374.9</ele>
        <time>2014-05-04T06:26:45Z</time>
      </trkpt>
      <trkpt lat="44.27497" lon="5.27197">
        <ele>374.9</ele>
        <time>2014-05-04T06:26:47Z</time>
      </trkpt>
      <trkpt lat="44.27495" lon="5.27188">
        <ele>374.8</ele>
        <time>2014-05-04T06:26:49Z</time>
      </trkpt>
      <trkpt lat="44.27493" lon="5.2718">
        <ele>374.7</ele>
        <time>2014-05-04T06:26:51Z</time>
      </trkpt>
      <trkpt lat="44.2749" lon="5.27171">
        <ele>374.5</ele>
        <time>2014-05-04T06:26:53Z</time>
      </trkpt>
      <trkpt lat="44.27487" lon="5.27162">
        <ele>374.4</ele>
        <time>2014-05-04T06:26:55Z</time>
      </trkpt>
      <trkpt lat="44.27483" lon="5.27153">
        <ele>374.3</ele>
        <time>2014-05-04T06:26:57Z</time>
      </trkpt>
      <trkpt lat="44.27478" lon="5.27145">
        <ele>374.2</ele>
        <time>2014-05-04T06:26:59Z</time>
      </trkpt>
      <trkpt lat="44.27477" lon="5.27135">
        <ele>374.2</ele>
        <time>2014-05-04T06:27:01Z</time>
      </trkpt>
      <trkpt lat="44.2748" lon="5.27127">
        <ele>374.4</ele>
        <time>2014-05-04T06:27:03Z</time>
      </trkpt>
      <trkpt lat="44.27483" lon="5.27119">
        <ele>374.6</ele>
        <time>2014-05-04T06:27:05Z</time>
      </trkpt>
      <trkpt lat="44.27484" lon="5.27112">
        <ele>374.8</ele>
        <time>2014-05-04T06:27:07Z</time>
      </trkpt>
      <trkpt lat="44.27484" lon="5.27103">
        <ele>374.9</ele>
        <time>2014-05-04T06:27:10Z</time>
      </trkpt>
      <trkpt lat="44.27485" lon="5.27096">
        <ele>375</ele>
        <time>2014-05-04T06:27:12Z</time>
      </trkpt>
      <trkpt lat="44.27485" lon="5.27088">
        <ele>375.1</ele>
        <time>2014-05-04T06:27:14Z</time>
      </trkpt>
      <trkpt lat="44.27486" lon="5.2708">
        <ele>375.4</ele>
        <time>2014-05-04T06:27:16Z</time>
      </trkpt>
      <trkpt lat="44.27488" lon="5.27073">
        <ele>376</ele>
        <time>2014-05-04T06:27:18Z</time>
      </trkpt>
      <trkpt lat="44.27492" lon="5.27068">
        <ele>376.6</ele>
        <time>2014-05-04T06:27:21Z</time>
      </trkpt>
      <trkpt lat="44.27496" lon="5.27064">
        <ele>377.1</ele>
        <time>2014-05-04T06:27:23Z</time>
      </trkpt>
      <trkpt lat="44.27499" lon="5.27059">
        <ele>377.7</ele>
        <time>2014-05-04T06:27:25Z</time>
      </trkpt>
      <trkpt lat="44.27503" lon="5.27053">
        <ele>378.2</ele>
        <time>2014-05-04T06:27:27Z</time>
      </trkpt>
      <trkpt lat="44.27506" lon="5.27048">
        <ele>378.7</ele>
        <time>2014-05-04T06:27:29Z</time>
      </trkpt>
      <trkpt lat="44.27516" lon="5.27035">
        <ele>379.7</ele>
        <time>2014-05-04T06:27:35Z</time>
      </trkpt>
      <trkpt lat="44.2752" lon="5.2703">
        <ele>380.1</ele>
        <time>2014-05-04T06:27:37Z</time>
      </trkpt>
      <trkpt lat="44.27523" lon="5.27025">
        <ele>380.4</ele>
        <time>2014-05-04T06:27:39Z</time>
      </trkpt>
      <trkpt lat="44.27527" lon="5.27017">
        <ele>380.9</ele>
        <time>2014-05-04T06:27:42Z</time>
      </trkpt>
      <trkpt lat="44.27527" lon="5.27011">
        <ele>381.3</ele>
        <time>2014-05-04T06:27:44Z</time>
      </trkpt>
      <trkpt lat="44.27526" lon="5.27004">
        <ele>381.7</ele>
        <time>2014-05-04T06:27:46Z</time>
      </trkpt>
      <trkpt lat="44.27525" lon="5.26998">
        <ele>382.4</ele>
        <time>2014-05-04T06:27:48Z</time>
      </trkpt>
      <trkpt lat="44.27523" lon="5.26992">
        <ele>383.4</ele>
        <time>2014-05-04T06:27:50Z</time>
      </trkpt>
      <trkpt lat="44.27521" lon="5.26986">
        <ele>384.2</ele>
        <time>2014-05-04T06:27:52Z</time>
      </trkpt>
      <trkpt lat="44.27519" lon="5.2698">
        <ele>385.2</ele>
        <time>2014-05-04T06:27:54Z</time>
      </trkpt>
      <trkpt lat="44.27515" lon="5.26973">
        <ele>386.3</ele>
        <time>2014-05-04T06:27:57Z</time>
      </trkpt>
      <trkpt lat="44.2751" lon="5.26968">
        <ele>387.2</ele>
        <time>2014-05-04T06:28:00Z</time>
      </trkpt>
      <trkpt lat="44.27506" lon="5.26965">
        <ele>387.8</ele>
        <time>2014-05-04T06:28:02Z</time>
      </trkpt>
      <trkpt lat="44.275" lon="5.26962">
        <ele>388.3</ele>
        <time>2014-05-04T06:28:05Z</time>
      </trkpt>
      <trkpt lat="44.27494" lon="5.26959">
        <ele>388.5</ele>
        <time>2014-05-04T06:28:08Z</time>
      </trkpt>
      <trkpt lat="44.27488" lon="5.26955">
        <ele>388.6</ele>
        <time>2014-05-04T06:28:11Z</time>
      </trkpt>
      <trkpt lat="44.27483" lon="5.2695">
        <ele>388.8</ele>
        <time>2014-05-04T06:28:14Z</time>
      </trkpt>
      <trkpt lat="44.27477" lon="5.26945">
        <ele>389.5</ele>
        <time>2014-05-04T06:28:17Z</time>
      </trkpt>
      <trkpt lat="44.27473" lon="5.2694">
        <ele>390</ele>
        <time>2014-05-04T06:28:20Z</time>
      </trkpt>
      <trkpt lat="44.27469" lon="5.26934">
        <ele>390.6</ele>
        <time>2014-05-04T06:28:23Z</time>
      </trkpt>
      <trkpt lat="44.27465" lon="5.26928">
        <ele>391.1</ele>
        <time>2014-05-04T06:28:26Z</time>
      </trkpt>
      <trkpt lat="44.27461" lon="5.26923">
        <ele>391.9</ele>
        <time>2014-05-04T06:28:29Z</time>
      </trkpt>
      <trkpt lat="44.27459" lon="5.26915">
        <ele>392.9</ele>
        <time>2014-05-04T06:28:32Z</time>
      </trkpt>
      <trkpt lat="44.27454" lon="5.26901">
        <ele>397.1</ele>
        <time>2014-05-04T06:28:38Z</time>
      </trkpt>
      <trkpt lat="44.27452" lon="5.26894">
        <ele>398.9</ele>
        <time>2014-05-04T06:28:41Z</time>
      </trkpt>
      <trkpt lat="44.2745" lon="5.26888">
        <ele>400.7</ele>
        <time>2014-05-04T06:28:44Z</time>
      </trkpt>
      <trkpt lat="44.27448" lon="5.26881">
        <ele>402.5</ele>
        <time>2014-05-04T06:28:47Z</time>
      </trkpt>
      <trkpt lat="44.27444" lon="5.26876">
        <ele>403.4</ele>
        <time>2014-05-04T06:28:50Z</time>
      </trkpt>
      <trkpt lat="44.27442" lon="5.26871">
        <ele>404.8</ele>
        <time>2014-05-04T06:28:53Z</time>
      </trkpt>
      <trkpt lat="44.27439" lon="5.26865">
        <ele>406.6</ele>
        <time>2014-05-04T06:28:56Z</time>
      </trkpt>
      <trkpt lat="44.27436" lon="5.2686">
        <ele>408</ele>
        <time>2014-05-04T06:28:59Z</time>
      </trkpt>
      <trkpt lat="44.27433" lon="5.26854">
        <ele>409.8</ele>
        <time>2014-05-04T06:29:02Z</time>
      </trkpt>
      <trkpt lat="44.27431" lon="5.26848">
        <ele>411.3</ele>
        <time>2014-05-04T06:29:05Z</time>
      </trkpt>
      <trkpt lat="44.2743" lon="5.26841">
        <ele>413.6</ele>
        <time>2014-05-04T06:29:08Z</time>
      </trkpt>
      <trkpt lat="44.27429" lon="5.26833">
        <ele>415.8</ele>
        <time>2014-05-04T06:29:11Z</time>
      </trkpt>
      <trkpt lat="44.27428" lon="5.26826">
        <ele>417</ele>
        <time>2014-05-04T06:29:14Z</time>
      </trkpt>
      <trkpt lat="44.27427" lon="5.26818">
        <ele>418.5</ele>
        <time>2014-05-04T06:29:17Z</time>
      </trkpt>
      <trkpt lat="44.27427" lon="5.26811">
        <ele>419.8</ele>
        <time>2014-05-04T06:29:20Z</time>
      </trkpt>
      <trkpt lat="44.27428" lon="5.26804">
        <ele>421.3</ele>
        <time>2014-05-04T06:29:23Z</time>
      </trkpt>
      <trkpt lat="44.27429" lon="5.26797">
        <ele>422.6</ele>
        <time>2014-05-04T06:29:26Z</time>
      </trkpt>
      <trkpt lat="44.2743" lon="5.26791">
        <ele>424</ele>
        <time>2014-05-04T06:29:29Z</time>
      </trkpt>
      <trkpt lat="44.27431" lon="5.26784">
        <ele>425.4</ele>
        <time>2014-05-04T06:29:32Z</time>
      </trkpt>
      <trkpt lat="44.27433" lon="5.26776">
        <ele>427.1</ele>
        <time>2014-05-04T06:29:36Z</time>
      </trkpt>
      <trkpt lat="44.27435" lon="5.26763">
        <ele>430.2</ele>
        <time>2014-05-04T06:29:42Z</time>
      </trkpt>
      <trkpt lat="44.27436" lon="5.26756">
        <ele>431.7</ele>
        <time>2014-05-04T06:29:45Z</time>
      </trkpt>
      <trkpt lat="44.27437" lon="5.26749">
        <ele>433</ele>
        <time>2014-05-04T06:29:48Z</time>
      </trkpt>
      <trkpt lat="44.27437" lon="5.26741">
        <ele>433.6</ele>
        <time>2014-05-04T06:29:51Z</time>
      </trkpt>
      <trkpt lat="44.27437" lon="5.26734">
        <ele>434.2</ele>
        <time>2014-05-04T06:29:54Z</time>
      </trkpt>
      <trkpt lat="44.27436" lon="5.26726">
        <ele>434.7</ele>
        <time>2014-05-04T06:29:57Z</time>
      </trkpt>
      <trkpt lat="44.27436" lon="5.26719">
        <ele>435.3</ele>
        <time>2014-05-04T06:30:00Z</time>
      </trkpt>
      <trkpt lat="44.27435" lon="5.26712">
        <ele>435.6</ele>
        <time>2014-05-04T06:30:03Z</time>
      </trkpt>
      <trkpt lat="44.27434" lon="5.26705">
        <ele>435.9</ele>
        <time>2014-05-04T06:30:06Z</time>
      </trkpt>
      <trkpt lat="44.27431" lon="5.26698">
        <ele>436.1</ele>
        <time>2014-05-04T06:30:09Z</time>
      </trkpt>
      <trkpt lat="44.27429" lon="5.26692">
        <ele>436.2</ele>
        <time>2014-05-04T06:30:12Z</time>
      </trkpt>
      <trkpt lat="44.27426" lon="5.26685">
        <ele>436.2</ele>
        <time>2014-05-04T06:30:15Z</time>
      </trkpt>
      <trkpt lat="44.27423" lon="5.26679">
        <ele>436.3</ele>
        <time>2014-05-04T06:30:18Z</time>
      </trkpt>
      <trkpt lat="44.27421" lon="5.26672">
        <ele>436.3</ele>
        <time>2014-05-04T06:30:21Z</time>
      </trkpt>
      <trkpt lat="44.27419" lon="5.26665">
        <ele>436.3</ele>
        <time>2014-05-04T06:30:24Z</time>
      </trkpt>
      <trkpt lat="44.27417" lon="5.26659">
        <ele>436.1</ele>
        <time>2014-05-04T06:30:27Z</time>
      </trkpt>
      <trkpt lat="44.27416" lon="5.26652">
        <ele>435.8</ele>
        <time>2014-05-04T06:30:30Z</time>
      </trkpt>
      <trkpt lat="44.27415" lon="5.26645">
        <ele>435.7</ele>
        <time>2014-05-04T06:30:33Z</time>
      </trkpt>
      <trkpt lat="44.27416" lon="5.26636">
        <ele>436.1</ele>
        <time>2014-05-04T06:30:36Z</time>
      </trkpt>
      <trkpt lat="44.27416" lon="5.26629">
        <ele>436.3</ele>
        <time>2014-05-04T06:30:39Z</time>
      </trkpt>
      <trkpt lat="44.27417" lon="5.26614">
        <ele>436.8</ele>
        <time>2014-05-04T06:30:45Z</time>
      </trkpt>
      <trkpt lat="44.27418" lon="5.26607">
        <ele>437</ele>
        <time>2014-05-04T06:30:48Z</time>
      </trkpt>
      <trkpt lat="44.27419" lon="5.266">
        <ele>437.3</ele>
        <time>2014-05-04T06:30:51Z</time>
      </trkpt>
      <trkpt lat="44.27421" lon="5.26593">
        <ele>437.6</ele>
        <time>2014-05-04T06:30:54Z</time>
      </trkpt>
      <trkpt lat="44.27422" lon="5.26586">
        <ele>438</ele>
        <time>2014-05-04T06:30:57Z</time>
      </trkpt>
      <trkpt lat="44.27423" lon="5.26579">
        <ele>437.8</ele>
        <time>2014-05-04T06:31:00Z</time>
      </trkpt>
      <trkpt lat="44.27424" lon="5.26572">
        <ele>437.5</ele>
        <time>2014-05-04T06:31:03Z</time>
      </trkpt>
      <trkpt lat="44.27425" lon="5.26565">
        <ele>437</ele>
        <time>2014-05-04T06:31:06Z</time>
      </trkpt>
      <trkpt lat="44.27426" lon="5.26559">
        <ele>436.7</ele>
        <time>2014-05-04T06:31:09Z</time>
      </trkpt>
      <trkpt lat="44.27427" lon="5.26551">
        <ele>436.2</ele>
        <time>2014-05-04T06:31:12Z</time>
      </trkpt>
      <trkpt lat="44.27427" lon="5.26544">
        <ele>435.6</ele>
        <time>2014-05-04T06:31:15Z</time>
      </trkpt>
      <trkpt lat="44.27427" lon="5.26537">
        <ele>435</ele>
        <time>2014-05-04T06:31:18Z</time>
      </trkpt>
      <trkpt lat="44.27426" lon="5.2653">
        <ele>434.4</ele>
        <time>2014-05-04T06:31:21Z</time>
      </trkpt>
      <trkpt lat="44.27424" lon="5.26523">
        <ele>433.6</ele>
        <time>2014-05-04T06:31:24Z</time>
      </trkpt>
      <trkpt lat="44.27423" lon="5.26516">
        <ele>432.9</ele>
        <time>2014-05-04T06:31:27Z</time>
      </trkpt>
      <trkpt lat="44.27421" lon="5.26509">
        <ele>432.1</ele>
        <time>2014-05-04T06:31:30Z</time>
      </trkpt>
      <trkpt lat="44.2742" lon="5.26502">
        <ele>431.4</ele>
        <time>2014-05-04T06:31:33Z</time>
      </trkpt>
      <trkpt lat="44.27418" lon="5.26495">
        <ele>430.2</ele>
        <time>2014-05-04T06:31:36Z</time>
      </trkpt>
      <trkpt lat="44.27418" lon="5.26488">
        <ele>428.7</ele>
        <time>2014-05-04T06:31:39Z</time>
      </trkpt>
      <trkpt lat="44.27419" lon="5.26481">
        <ele>427.6</ele>
        <time>2014-05-04T06:31:42Z</time>
      </trkpt>
      <trkpt lat="44.27425" lon="5.26471">
        <ele>426.2</ele>
        <time>2014-05-04T06:31:48Z</time>
      </trkpt>
      <trkpt lat="44.27429" lon="5.26465">
        <ele>425.8</ele>
        <time>2014-05-04T06:31:52Z</time>
      </trkpt>
      <trkpt lat="44.27434" lon="5.26462">
        <ele>425.6</ele>
        <time>2014-05-04T06:31:55Z</time>
      </trkpt>
      <trkpt lat="44.27438" lon="5.2646">
        <ele>426</ele>
        <time>2014-05-04T06:31:58Z</time>
      </trkpt>
      <trkpt lat="44.27443" lon="5.26458">
        <ele>426.4</ele>
        <time>2014-05-04T06:32:01Z</time>
      </trkpt>
      <trkpt lat="44.27448" lon="5.26457">
        <ele>426.6</ele>
        <time>2014-05-04T06:32:04Z</time>
      </trkpt>
      <trkpt lat="44.27454" lon="5.26456">
        <ele>427.2</ele>
        <time>2014-05-04T06:32:07Z</time>
      </trkpt>
      <trkpt lat="44.2746" lon="5.26455">
        <ele>427.7</ele>
        <time>2014-05-04T06:32:10Z</time>
      </trkpt>
      <trkpt lat="44.27465" lon="5.26454">
        <ele>428.4</ele>
        <time>2014-05-04T06:32:13Z</time>
      </trkpt>
      <trkpt lat="44.2747" lon="5.26455">
        <ele>429.1</ele>
        <time>2014-05-04T06:32:16Z</time>
      </trkpt>
      <trkpt lat="44.27475" lon="5.26456">
        <ele>429.9</ele>
        <time>2014-05-04T06:32:19Z</time>
      </trkpt>
      <trkpt lat="44.27481" lon="5.26457">
        <ele>430.8</ele>
        <time>2014-05-04T06:32:22Z</time>
      </trkpt>
      <trkpt lat="44.27486" lon="5.26458">
        <ele>431.5</ele>
        <time>2014-05-04T06:32:25Z</time>
      </trkpt>
      <trkpt lat="44.27491" lon="5.26458">
        <ele>432.2</ele>
        <time>2014-05-04T06:32:28Z</time>
      </trkpt>
      <trkpt lat="44.27497" lon="5.26459">
        <ele>433</ele>
        <time>2014-05-04T06:32:31Z</time>
      </trkpt>
      <trkpt lat="44.27502" lon="5.26459">
        <ele>433.6</ele>
        <time>2014-05-04T06:32:34Z</time>
      </trkpt>
      <trkpt lat="44.27507" lon="5.26459">
        <ele>434</ele>
        <time>2014-05-04T06:32:37Z</time>
      </trkpt>
      <trkpt lat="44.27512" lon="5.26459">
        <ele>434.5</ele>
        <time>2014-05-04T06:32:40Z</time>
      </trkpt>
      <trkpt lat="44.27518" lon="5.26459">
        <ele>434.9</ele>
        <time>2014-05-04T06:32:43Z</time>
      </trkpt>
      <trkpt lat="44.27528" lon="5.26461">
        <ele>435.8</ele>
        <time>2014-05-04T06:32:49Z</time>
      </trkpt>
      <trkpt lat="44.27533" lon="5.26461">
        <ele>436.3</ele>
        <time>2014-05-04T06:32:52Z</time>
      </trkpt>
      <trkpt lat="44.27537" lon="5.26463">
        <ele>436.8</ele>
        <time>2014-05-04T06:32:55Z</time>
      </trkpt>
      <trkpt lat="44.27542" lon="5.26464">
        <ele>437.2</ele>
        <time>2014-05-04T06:32:58Z</time>
      </trkpt>
      <trkpt lat="44.27547" lon="5.26466">
        <ele>437.7</ele>
        <time>2014-05-04T06:33:01Z</time>
      </trkpt>
      <trkpt lat="44.27552" lon="5.26467">
        <ele>438.1</ele>
        <time>2014-05-04T06:33:04Z</time>
      </trkpt>
      <trkpt lat="44.27557" lon="5.26469">
        <ele>438.6</ele>
        <time>2014-05-04T06:33:07Z</time>
      </trkpt>
      <trkpt lat="44.27561" lon="5.2647">
        <ele>438.9</ele>
        <time>2014-05-04T06:33:10Z</time>
      </trkpt>
      <trkpt lat="44.27566" lon="5.26472">
        <ele>439.3</ele>
        <time>2014-05-04T06:33:13Z</time>
      </trkpt>
      <trkpt lat="44.27571" lon="5.26474">
        <ele>439.7</ele>
        <time>2014-05-04T06:33:16Z</time>
      </trkpt>
      <trkpt lat="44.27575" lon="5.26477">
        <ele>440</ele>
        <time>2014-05-04T06:33:19Z</time>
      </trkpt>
      <trkpt lat="44.27579" lon="5.2648">
        <ele>440.3</ele>
        <time>2014-05-04T06:33:22Z</time>
      </trkpt>
      <trkpt lat="44.27584" lon="5.26482">
        <ele>440.5</ele>
        <time>2014-05-04T06:33:25Z</time>
      </trkpt>
      <trkpt lat="44.27589" lon="5.26484">
        <ele>440.3</ele>
        <time>2014-05-04T06:33:28Z</time>
      </trkpt>
      <trkpt lat="44.27594" lon="5.26485">
        <ele>440</ele>
        <time>2014-05-04T06:33:31Z</time>
      </trkpt>
      <trkpt lat="44.27598" lon="5.26486">
        <ele>439.8</ele>
        <time>2014-05-04T06:33:34Z</time>
      </trkpt>
      <trkpt lat="44.27604" lon="5.26489">
        <ele>439.4</ele>
        <time>2014-05-04T06:33:38Z</time>
      </trkpt>
      <trkpt lat="44.27608" lon="5.26491">
        <ele>439</ele>
        <time>2014-05-04T06:33:41Z</time>
      </trkpt>
      <trkpt lat="44.27613" lon="5.26493">
        <ele>438.6</ele>
        <time>2014-05-04T06:33:44Z</time>
      </trkpt>
      <trkpt lat="44.27622" lon="5.26499">
        <ele>437.4</ele>
        <time>2014-05-04T06:33:51Z</time>
      </trkpt>
      <trkpt lat="44.27627" lon="5.26501">
        <ele>436.8</ele>
        <time>2014-05-04T06:33:54Z</time>
      </trkpt>
      <trkpt lat="44.27631" lon="5.26503">
        <ele>436.2</ele>
        <time>2014-05-04T06:33:57Z</time>
      </trkpt>
      <trkpt lat="44.27636" lon="5.26505">
        <ele>435.6</ele>
        <time>2014-05-04T06:34:00Z</time>
      </trkpt>
      <trkpt lat="44.27641" lon="5.26507">
        <ele>435</ele>
        <time>2014-05-04T06:34:03Z</time>
      </trkpt>
      <trkpt lat="44.27645" lon="5.26508">
        <ele>434.3</ele>
        <time>2014-05-04T06:34:06Z</time>
      </trkpt>
      <trkpt lat="44.2765" lon="5.26508">
        <ele>433.8</ele>
        <time>2014-05-04T06:34:09Z</time>
      </trkpt>
      <trkpt lat="44.27656" lon="5.26509">
        <ele>433.2</ele>
        <time>2014-05-04T06:34:12Z</time>
      </trkpt>
      <trkpt lat="44.27661" lon="5.26508">
        <ele>432.5</ele>
        <time>2014-05-04T06:34:15Z</time>
      </trkpt>
      <trkpt lat="44.27666" lon="5.26506">
        <ele>432.1</ele>
        <time>2014-05-04T06:34:18Z</time>
      </trkpt>
      <trkpt lat="44.27671" lon="5.26504">
        <ele>432.5</ele>
        <time>2014-05-04T06:34:21Z</time>
      </trkpt>
      <trkpt lat="44.27677" lon="5.26502">
        <ele>433.1</ele>
        <time>2014-05-04T06:34:24Z</time>
      </trkpt>
      <trkpt lat="44.27682" lon="5.26499">
        <ele>433.6</ele>
        <time>2014-05-04T06:34:27Z</time>
      </trkpt>
      <trkpt lat="44.27687" lon="5.26496">
        <ele>434.5</ele>
        <time>2014-05-04T06:34:30Z</time>
      </trkpt>
      <trkpt lat="44.27692" lon="5.26492">
        <ele>435.4</ele>
        <time>2014-05-04T06:34:33Z</time>
      </trkpt>
      <trkpt lat="44.27697" lon="5.26487">
        <ele>436.3</ele>
        <time>2014-05-04T06:34:36Z</time>
      </trkpt>
      <trkpt lat="44.27702" lon="5.26482">
        <ele>437.5</ele>
        <time>2014-05-04T06:34:39Z</time>
      </trkpt>
      <trkpt lat="44.27706" lon="5.26477">
        <ele>438.7</ele>
        <time>2014-05-04T06:34:42Z</time>
      </trkpt>
      <trkpt lat="44.27711" lon="5.26473">
        <ele>439.7</ele>
        <time>2014-05-04T06:34:45Z</time>
      </trkpt>
      <trkpt lat="44.27721" lon="5.26466">
        <ele>441.3</ele>
        <time>2014-05-04T06:34:51Z</time>
      </trkpt>
      <trkpt lat="44.27726" lon="5.26463">
        <ele>442</ele>
        <time>2014-05-04T06:34:54Z</time>
      </trkpt>
      <trkpt lat="44.27731" lon="5.26461">
        <ele>443</ele>
        <time>2014-05-04T06:34:57Z</time>
      </trkpt>
      <trkpt lat="44.27737" lon="5.26459">
        <ele>443.5</ele>
        <time>2014-05-04T06:35:00Z</time>
      </trkpt>
      <trkpt lat="44.27742" lon="5.26457">
        <ele>444.3</ele>
        <time>2014-05-04T06:35:03Z</time>
      </trkpt>
      <trkpt lat="44.27747" lon="5.26455">
        <ele>444.7</ele>
        <time>2014-05-04T06:35:06Z</time>
      </trkpt>
      <trkpt lat="44.27752" lon="5.26452">
        <ele>445.7</ele>
        <time>2014-05-04T06:35:09Z</time>
      </trkpt>
      <trkpt lat="44.27756" lon="5.26448">
        <ele>447.3</ele>
        <time>2014-05-04T06:35:12Z</time>
      </trkpt>
      <trkpt lat="44.27761" lon="5.26445">
        <ele>448.8</ele>
        <time>2014-05-04T06:35:15Z</time>
      </trkpt>
      <trkpt lat="44.27764" lon="5.2644">
        <ele>450.2</ele>
        <time>2014-05-04T06:35:18Z</time>
      </trkpt>
      <trkpt lat="44.27767" lon="5.26435">
        <ele>452</ele>
        <time>2014-05-04T06:35:21Z</time>
      </trkpt>
      <trkpt lat="44.2777" lon="5.26428">
        <ele>453.8</ele>
        <time>2014-05-04T06:35:24Z</time>
      </trkpt>
      <trkpt lat="44.27772" lon="5.26421">
        <ele>455.5</ele>
        <time>2014-05-04T06:35:27Z</time>
      </trkpt>
      <trkpt lat="44.27775" lon="5.26415">
        <ele>456.9</ele>
        <time>2014-05-04T06:35:30Z</time>
      </trkpt>
      <trkpt lat="44.27778" lon="5.26409">
        <ele>457.8</ele>
        <time>2014-05-04T06:35:33Z</time>
      </trkpt>
      <trkpt lat="44.2778" lon="5.26404">
        <ele>458.7</ele>
        <time>2014-05-04T06:35:36Z</time>
      </trkpt>
      <trkpt lat="44.27784" lon="5.26399">
        <ele>459.6</ele>
        <time>2014-05-04T06:35:39Z</time>
      </trkpt>
      <trkpt lat="44.27788" lon="5.26397">
        <ele>460.5</ele>
        <time>2014-05-04T06:35:42Z</time>
      </trkpt>
      <trkpt lat="44.27793" lon="5.26395">
        <ele>461.2</ele>
        <time>2014-05-04T06:35:45Z</time>
      </trkpt>
      <trkpt lat="44.27799" lon="5.26394">
        <ele>462</ele>
        <time>2014-05-04T06:35:48Z</time>
      </trkpt>
      <trkpt lat="44.27809" lon="5.26389">
        <ele>463.7</ele>
        <time>2014-05-04T06:35:54Z</time>
      </trkpt>
      <trkpt lat="44.27814" lon="5.26386">
        <ele>464.5</ele>
        <time>2014-05-04T06:35:57Z</time>
      </trkpt>
      <trkpt lat="44.2782" lon="5.26382">
        <ele>465.5</ele>
        <time>2014-05-04T06:36:00Z</time>
      </trkpt>
      <trkpt lat="44.27825" lon="5.26379">
        <ele>466.3</ele>
        <time>2014-05-04T06:36:03Z</time>
      </trkpt>
      <trkpt lat="44.27829" lon="5.26376">
        <ele>467.1</ele>
        <time>2014-05-04T06:36:06Z</time>
      </trkpt>
      <trkpt lat="44.27834" lon="5.26373">
        <ele>467.7</ele>
        <time>2014-05-04T06:36:09Z</time>
      </trkpt>
      <trkpt lat="44.2784" lon="5.26371">
        <ele>468.2</ele>
        <time>2014-05-04T06:36:12Z</time>
      </trkpt>
      <trkpt lat="44.27845" lon="5.2637">
        <ele>468.7</ele>
        <time>2014-05-04T06:36:15Z</time>
      </trkpt>
      <trkpt lat="44.27851" lon="5.26369">
        <ele>469.2</ele>
        <time>2014-05-04T06:36:18Z</time>
      </trkpt>
      <trkpt lat="44.27856" lon="5.26369">
        <ele>469.5</ele>
        <time>2014-05-04T06:36:21Z</time>
      </trkpt>
      <trkpt lat="44.27861" lon="5.26369">
        <ele>469.9</ele>
        <time>2014-05-04T06:36:24Z</time>
      </trkpt>
      <trkpt lat="44.27865" lon="5.2637">
        <ele>470.2</ele>
        <time>2014-05-04T06:36:27Z</time>
      </trkpt>
      <trkpt lat="44.2787" lon="5.26372">
        <ele>470.4</ele>
        <time>2014-05-04T06:36:30Z</time>
      </trkpt>
      <trkpt lat="44.27874" lon="5.26375">
        <ele>470.5</ele>
        <time>2014-05-04T06:36:33Z</time>
      </trkpt>
      <trkpt lat="44.27879" lon="5.26377">
        <ele>470.7</ele>
        <time>2014-05-04T06:36:36Z</time>
      </trkpt>
      <trkpt lat="44.27884" lon="5.2638">
        <ele>470.8</ele>
        <time>2014-05-04T06:36:39Z</time>
      </trkpt>
      <trkpt lat="44.27888" lon="5.26383">
        <ele>470.9</ele>
        <time>2014-05-04T06:36:42Z</time>
      </trkpt>
      <trkpt lat="44.27893" lon="5.26387">
        <ele>470.9</ele>
        <time>2014-05-04T06:36:45Z</time>
      </trkpt>
      <trkpt lat="44.27896" lon="5.26391">
        <ele>470.8</ele>
        <time>2014-05-04T06:36:48Z</time>
      </trkpt>
      <trkpt lat="44.27899" lon="5.26396">
        <ele>470.6</ele>
        <time>2014-05-04T06:36:51Z</time>
      </trkpt>
      <trkpt lat="44.27906" lon="5.26408">
        <ele>470.1</ele>
        <time>2014-05-04T06:36:58Z</time>
      </trkpt>
      <trkpt lat="44.27909" lon="5.26414">
        <ele>469.8</ele>
        <time>2014-05-04T06:37:01Z</time>
      </trkpt>
      <trkpt lat="44.27913" lon="5.2642">
        <ele>469.2</ele>
        <time>2014-05-04T06:37:04Z</time>
      </trkpt>
      <trkpt lat="44.27917" lon="5.26425">
        <ele>468.1</ele>
        <time>2014-05-04T06:37:07Z</time>
      </trkpt>
      <trkpt lat="44.2792" lon="5.2643">
        <ele>466.7</ele>
        <time>2014-05-04T06:37:10Z</time>
      </trkpt>
      <trkpt lat="44.27924" lon="5.26434">
        <ele>465.7</ele>
        <time>2014-05-04T06:37:13Z</time>
      </trkpt>
      <trkpt lat="44.27929" lon="5.26437">
        <ele>465.1</ele>
        <time>2014-05-04T06:37:16Z</time>
      </trkpt>
      <trkpt lat="44.27933" lon="5.2644">
        <ele>464.4</ele>
        <time>2014-05-04T06:37:19Z</time>
      </trkpt>
      <trkpt lat="44.27938" lon="5.26442">
        <ele>463.8</ele>
        <time>2014-05-04T06:37:22Z</time>
      </trkpt>
      <trkpt lat="44.27943" lon="5.26445">
        <ele>463.3</ele>
        <time>2014-05-04T06:37:25Z</time>
      </trkpt>
      <trkpt lat="44.27947" lon="5.26447">
        <ele>462.8</ele>
        <time>2014-05-04T06:37:28Z</time>
      </trkpt>
      <trkpt lat="44.27952" lon="5.2645">
        <ele>462.4</ele>
        <time>2014-05-04T06:37:31Z</time>
      </trkpt>
      <trkpt lat="44.27957" lon="5.26453">
        <ele>461.8</ele>
        <time>2014-05-04T06:37:34Z</time>
      </trkpt>
      <trkpt lat="44.27961" lon="5.26456">
        <ele>461.5</ele>
        <time>2014-05-04T06:37:37Z</time>
      </trkpt>
      <trkpt lat="44.27966" lon="5.26459">
        <ele>461.2</ele>
        <time>2014-05-04T06:37:40Z</time>
      </trkpt>
      <trkpt lat="44.27972" lon="5.26463">
        <ele>460.8</ele>
        <time>2014-05-04T06:37:43Z</time>
      </trkpt>
      <trkpt lat="44.27977" lon="5.26464">
        <ele>460.8</ele>
        <time>2014-05-04T06:37:46Z</time>
      </trkpt>
      <trkpt lat="44.27982" lon="5.26463">
        <ele>461</ele>
        <time>2014-05-04T06:37:49Z</time>
      </trkpt>
      <trkpt lat="44.27988" lon="5.2646">
        <ele>461.6</ele>
        <time>2014-05-04T06:37:52Z</time>
      </trkpt>
      <trkpt lat="44.27992" lon="5.26455">
        <ele>462.2</ele>
        <time>2014-05-04T06:37:55Z</time>
      </trkpt>
      <trkpt lat="44.27998" lon="5.26444">
        <ele>463</ele>
        <time>2014-05-04T06:38:01Z</time>
      </trkpt>
      <trkpt lat="44.28001" lon="5.26438">
        <ele>463.7</ele>
        <time>2014-05-04T06:38:04Z</time>
      </trkpt>
      <trkpt lat="44.28004" lon="5.26432">
        <ele>465.1</ele>
        <time>2014-05-04T06:38:07Z</time>
      </trkpt>
      <trkpt lat="44.28007" lon="5.26426">
        <ele>466.3</ele>
        <time>2014-05-04T06:38:10Z</time>
      </trkpt>
      <trkpt lat="44.28009" lon="5.26419">
        <ele>467.7</ele>
        <time>2014-05-04T06:38:13Z</time>
      </trkpt>
      <trkpt lat="44.28012" lon="5.26413">
        <ele>468.9</ele>
        <time>2014-05-04T06:38:16Z</time>
      </trkpt>
      <trkpt lat="44.28014" lon="5.26407">
        <ele>469.8</ele>
        <time>2014-05-04T06:38:19Z</time>
      </trkpt>
      <trkpt lat="44.28015" lon="5.26401">
        <ele>470.5</ele>
        <time>2014-05-04T06:38:22Z</time>
      </trkpt>
      <trkpt lat="44.28017" lon="5.26394">
        <ele>471.3</ele>
        <time>2014-05-04T06:38:25Z</time>
      </trkpt>
      <trkpt lat="44.28018" lon="5.26387">
        <ele>472.3</ele>
        <time>2014-05-04T06:38:28Z</time>
      </trkpt>
      <trkpt lat="44.2802" lon="5.26381">
        <ele>473.1</ele>
        <time>2014-05-04T06:38:31Z</time>
      </trkpt>
      <trkpt lat="44.28023" lon="5.26374">
        <ele>474</ele>
        <time>2014-05-04T06:38:34Z</time>
      </trkpt>
      <trkpt lat="44.28025" lon="5.26368">
        <ele>474.8</ele>
        <time>2014-05-04T06:38:37Z</time>
      </trkpt>
      <trkpt lat="44.28027" lon="5.26361">
        <ele>475.6</ele>
        <time>2014-05-04T06:38:40Z</time>
      </trkpt>
      <trkpt lat="44.28029" lon="5.26355">
        <ele>476.3</ele>
        <time>2014-05-04T06:38:43Z</time>
      </trkpt>
      <trkpt lat="44.28031" lon="5.26349">
        <ele>477</ele>
        <time>2014-05-04T06:38:46Z</time>
      </trkpt>
      <trkpt lat="44.28033" lon="5.26343">
        <ele>477.6</ele>
        <time>2014-05-04T06:38:49Z</time>
      </trkpt>
      <trkpt lat="44.28035" lon="5.26336">
        <ele>478.1</ele>
        <time>2014-05-04T06:38:52Z</time>
      </trkpt>
      <trkpt lat="44.28036" lon="5.2633">
        <ele>478.9</ele>
        <time>2014-05-04T06:38:55Z</time>
      </trkpt>
      <trkpt lat="44.28037" lon="5.26323">
        <ele>479.7</ele>
        <time>2014-05-04T06:38:58Z</time>
      </trkpt>
      <trkpt lat="44.28042" lon="5.26309">
        <ele>481.7</ele>
        <time>2014-05-04T06:39:05Z</time>
      </trkpt>
      <trkpt lat="44.28043" lon="5.26302">
        <ele>482.6</ele>
        <time>2014-05-04T06:39:08Z</time>
      </trkpt>
      <trkpt lat="44.28045" lon="5.26295">
        <ele>483.5</ele>
        <time>2014-05-04T06:39:11Z</time>
      </trkpt>
      <trkpt lat="44.28046" lon="5.26288">
        <ele>484.2</ele>
        <time>2014-05-04T06:39:14Z</time>
      </trkpt>
      <trkpt lat="44.28046" lon="5.2628">
        <ele>484.9</ele>
        <time>2014-05-04T06:39:17Z</time>
      </trkpt>
      <trkpt lat="44.28046" lon="5.26273">
        <ele>485.5</ele>
        <time>2014-05-04T06:39:20Z</time>
      </trkpt>
      <trkpt lat="44.28045" lon="5.26266">
        <ele>486</ele>
        <time>2014-05-04T06:39:23Z</time>
      </trkpt>
      <trkpt lat="44.28042" lon="5.26259">
        <ele>486.2</ele>
        <time>2014-05-04T06:39:27Z</time>
      </trkpt>
      <trkpt lat="44.28038" lon="5.26253">
        <ele>486.4</ele>
        <time>2014-05-04T06:39:31Z</time>
      </trkpt>
      <trkpt lat="44.28035" lon="5.26247">
        <ele>487.1</ele>
        <time>2014-05-04T06:39:35Z</time>
      </trkpt>
      <trkpt lat="44.28032" lon="5.26242">
        <ele>487.7</ele>
        <time>2014-05-04T06:39:38Z</time>
      </trkpt>
      <trkpt lat="44.28029" lon="5.26237">
        <ele>488.5</ele>
        <time>2014-05-04T06:39:41Z</time>
      </trkpt>
      <trkpt lat="44.28025" lon="5.26231">
        <ele>489.5</ele>
        <time>2014-05-04T06:39:45Z</time>
      </trkpt>
      <trkpt lat="44.28023" lon="5.26226">
        <ele>490.5</ele>
        <time>2014-05-04T06:39:48Z</time>
      </trkpt>
      <trkpt lat="44.28025" lon="5.2622">
        <ele>492.1</ele>
        <time>2014-05-04T06:42:22Z</time>
      </trkpt>
      <trkpt lat="44.28031" lon="5.26207">
        <ele>495.1</ele>
        <time>2014-05-04T06:42:34Z</time>
      </trkpt>
      <trkpt lat="44.28035" lon="5.26201">
        <ele>496.8</ele>
        <time>2014-05-04T06:42:37Z</time>
      </trkpt>
      <trkpt lat="44.28038" lon="5.26195">
        <ele>498.4</ele>
        <time>2014-05-04T06:42:40Z</time>
      </trkpt>
      <trkpt lat="44.2804" lon="5.26189">
        <ele>499.7</ele>
        <time>2014-05-04T06:42:43Z</time>
      </trkpt>
      <trkpt lat="44.28043" lon="5.26184">
        <ele>501.1</ele>
        <time>2014-05-04T06:42:46Z</time>
      </trkpt>
      <trkpt lat="44.28045" lon="5.26178">
        <ele>502.6</ele>
        <time>2014-05-04T06:42:49Z</time>
      </trkpt>
      <trkpt lat="44.28048" lon="5.26172">
        <ele>503.9</ele>
        <time>2014-05-04T06:42:52Z</time>
      </trkpt>
      <trkpt lat="44.2805" lon="5.26167">
        <ele>505.2</ele>
        <time>2014-05-04T06:42:55Z</time>
      </trkpt>
      <trkpt lat="44.28052" lon="5.26161">
        <ele>506.6</ele>
        <time>2014-05-04T06:42:58Z</time>
      </trkpt>
      <trkpt lat="44.28055" lon="5.26155">
        <ele>507.9</ele>
        <time>2014-05-04T06:43:01Z</time>
      </trkpt>
      <trkpt lat="44.28057" lon="5.26149">
        <ele>509.3</ele>
        <time>2014-05-04T06:43:04Z</time>
      </trkpt>
      <trkpt lat="44.28058" lon="5.26142">
        <ele>510.9</ele>
        <time>2014-05-04T06:43:07Z</time>
      </trkpt>
      <trkpt lat="44.28058" lon="5.26135">
        <ele>512.1</ele>
        <time>2014-05-04T06:43:10Z</time>
      </trkpt>
      <trkpt lat="44.28057" lon="5.26127">
        <ele>513.6</ele>
        <time>2014-05-04T06:43:13Z</time>
      </trkpt>
      <trkpt lat="44.28056" lon="5.26119">
        <ele>515</ele>
        <time>2014-05-04T06:43:16Z</time>
      </trkpt>
      <trkpt lat="44.28054" lon="5.26112">
        <ele>516</ele>
        <time>2014-05-04T06:43:19Z</time>
      </trkpt>
      <trkpt lat="44.28052" lon="5.26106">
        <ele>517</ele>
        <time>2014-05-04T06:43:22Z</time>
      </trkpt>
      <trkpt lat="44.28049" lon="5.26099">
        <ele>518</ele>
        <time>2014-05-04T06:43:25Z</time>
      </trkpt>
      <trkpt lat="44.28045" lon="5.26085">
        <ele>520.2</ele>
        <time>2014-05-04T06:43:31Z</time>
      </trkpt>
      <trkpt lat="44.28043" lon="5.26078">
        <ele>521.7</ele>
        <time>2014-05-04T06:43:34Z</time>
      </trkpt>
      <trkpt lat="44.28041" lon="5.26071">
        <ele>523</ele>
        <time>2014-05-04T06:43:37Z</time>
      </trkpt>
      <trkpt lat="44.28038" lon="5.26064">
        <ele>524.2</ele>
        <time>2014-05-04T06:43:40Z</time>
      </trkpt>
      <trkpt lat="44.28034" lon="5.26057">
        <ele>525.2</ele>
        <time>2014-05-04T06:43:43Z</time>
      </trkpt>
      <trkpt lat="44.28029" lon="5.26054">
        <ele>525.4</ele>
        <time>2014-05-04T06:43:46Z</time>
      </trkpt>
      <trkpt lat="44.28023" lon="5.26053">
        <ele>524.9</ele>
        <time>2014-05-04T06:43:49Z</time>
      </trkpt>
      <trkpt lat="44.28017" lon="5.26053">
        <ele>524.1</ele>
        <time>2014-05-04T06:43:52Z</time>
      </trkpt>
      <trkpt lat="44.28011" lon="5.26053">
        <ele>523.3</ele>
        <time>2014-05-04T06:43:55Z</time>
      </trkpt>
      <trkpt lat="44.28005" lon="5.2605">
        <ele>523.1</ele>
        <time>2014-05-04T06:43:58Z</time>
      </trkpt>
      <trkpt lat="44.28" lon="5.26046">
        <ele>523.1</ele>
        <time>2014-05-04T06:44:01Z</time>
      </trkpt>
      <trkpt lat="44.27994" lon="5.26043">
        <ele>523.1</ele>
        <time>2014-05-04T06:44:04Z</time>
      </trkpt>
      <trkpt lat="44.27988" lon="5.26039">
        <ele>522.7</ele>
        <time>2014-05-04T06:44:07Z</time>
      </trkpt>
      <trkpt lat="44.27983" lon="5.26037">
        <ele>522.5</ele>
        <time>2014-05-04T06:44:10Z</time>
      </trkpt>
      <trkpt lat="44.27978" lon="5.26033">
        <ele>522.6</ele>
        <time>2014-05-04T06:44:13Z</time>
      </trkpt>
      <trkpt lat="44.27974" lon="5.26028">
        <ele>523</ele>
        <time>2014-05-04T06:44:16Z</time>
      </trkpt>
      <trkpt lat="44.27971" lon="5.26022">
        <ele>524</ele>
        <time>2014-05-04T06:44:19Z</time>
      </trkpt>
      <trkpt lat="44.27967" lon="5.26015">
        <ele>524.8</ele>
        <time>2014-05-04T06:44:22Z</time>
      </trkpt>
      <trkpt lat="44.27965" lon="5.26008">
        <ele>525.9</ele>
        <time>2014-05-04T06:44:25Z</time>
      </trkpt>
      <trkpt lat="44.27964" lon="5.26001">
        <ele>527.4</ele>
        <time>2014-05-04T06:44:28Z</time>
      </trkpt>
      <trkpt lat="44.27959" lon="5.25988">
        <ele>527</ele>
        <time>2014-05-04T06:44:34Z</time>
      </trkpt>
      <trkpt lat="44.27956" lon="5.25982">
        <ele>526.7</ele>
        <time>2014-05-04T06:44:37Z</time>
      </trkpt>
      <trkpt lat="44.27952" lon="5.25976">
        <ele>526.2</ele>
        <time>2014-05-04T06:44:40Z</time>
      </trkpt>
      <trkpt lat="44.27949" lon="5.25971">
        <ele>525.7</ele>
        <time>2014-05-04T06:44:43Z</time>
      </trkpt>
      <trkpt lat="44.27945" lon="5.25966">
        <ele>525.1</ele>
        <time>2014-05-04T06:44:46Z</time>
      </trkpt>
      <trkpt lat="44.2794" lon="5.2596">
        <ele>524.3</ele>
        <time>2014-05-04T06:44:49Z</time>
      </trkpt>
      <trkpt lat="44.27936" lon="5.25955">
        <ele>523.6</ele>
        <time>2014-05-04T06:44:52Z</time>
      </trkpt>
      <trkpt lat="44.27932" lon="5.2595">
        <ele>522.9</ele>
        <time>2014-05-04T06:44:55Z</time>
      </trkpt>
      <trkpt lat="44.27928" lon="5.25945">
        <ele>522.3</ele>
        <time>2014-05-04T06:44:58Z</time>
      </trkpt>
      <trkpt lat="44.27925" lon="5.2594">
        <ele>521.7</ele>
        <time>2014-05-04T06:45:01Z</time>
      </trkpt>
      <trkpt lat="44.27923" lon="5.25934">
        <ele>521.3</ele>
        <time>2014-05-04T06:45:04Z</time>
      </trkpt>
      <trkpt lat="44.27923" lon="5.25927">
        <ele>521.2</ele>
        <time>2014-05-04T06:45:08Z</time>
      </trkpt>
      <trkpt lat="44.27927" lon="5.25926">
        <ele>522.3</ele>
        <time>2014-05-04T06:51:18Z</time>
      </trkpt>
      <trkpt lat="44.27938" lon="5.25923">
        <ele>524.6</ele>
        <time>2014-05-04T06:51:25Z</time>
      </trkpt>
      <trkpt lat="44.27944" lon="5.25924">
        <ele>525.7</ele>
        <time>2014-05-04T06:51:28Z</time>
      </trkpt>
      <trkpt lat="44.27949" lon="5.25924">
        <ele>526.9</ele>
        <time>2014-05-04T06:51:31Z</time>
      </trkpt>
      <trkpt lat="44.27955" lon="5.25925">
        <ele>528.1</ele>
        <time>2014-05-04T06:51:34Z</time>
      </trkpt>
      <trkpt lat="44.27961" lon="5.25925">
        <ele>529.4</ele>
        <time>2014-05-04T06:51:37Z</time>
      </trkpt>
      <trkpt lat="44.27967" lon="5.25925">
        <ele>530.6</ele>
        <time>2014-05-04T06:51:40Z</time>
      </trkpt>
      <trkpt lat="44.27974" lon="5.25925">
        <ele>532</ele>
        <time>2014-05-04T06:51:43Z</time>
      </trkpt>
      <trkpt lat="44.2798" lon="5.25925">
        <ele>533.3</ele>
        <time>2014-05-04T06:51:46Z</time>
      </trkpt>
      <trkpt lat="44.27986" lon="5.25925">
        <ele>534.7</ele>
        <time>2014-05-04T06:51:49Z</time>
      </trkpt>
      <trkpt lat="44.27991" lon="5.25925">
        <ele>535.6</ele>
        <time>2014-05-04T06:51:51Z</time>
      </trkpt>
      <trkpt lat="44.27995" lon="5.25926">
        <ele>536.4</ele>
        <time>2014-05-04T06:51:53Z</time>
      </trkpt>
      <trkpt lat="44.28" lon="5.25927">
        <ele>537.5</ele>
        <time>2014-05-04T06:51:55Z</time>
      </trkpt>
      <trkpt lat="44.28005" lon="5.25926">
        <ele>538.3</ele>
        <time>2014-05-04T06:51:57Z</time>
      </trkpt>
      <trkpt lat="44.2801" lon="5.25925">
        <ele>539.3</ele>
        <time>2014-05-04T06:51:59Z</time>
      </trkpt>
      <trkpt lat="44.28015" lon="5.25924">
        <ele>540.2</ele>
        <time>2014-05-04T06:52:01Z</time>
      </trkpt>
      <trkpt lat="44.2802" lon="5.25923">
        <ele>541.2</ele>
        <time>2014-05-04T06:52:03Z</time>
      </trkpt>
      <trkpt lat="44.28025" lon="5.25921">
        <ele>542.2</ele>
        <time>2014-05-04T06:52:05Z</time>
      </trkpt>
      <trkpt lat="44.2803" lon="5.25919">
        <ele>543.2</ele>
        <time>2014-05-04T06:52:07Z</time>
      </trkpt>
      <trkpt lat="44.28035" lon="5.25918">
        <ele>544.3</ele>
        <time>2014-05-04T06:52:09Z</time>
      </trkpt>
      <trkpt lat="44.2804" lon="5.25915">
        <ele>545</ele>
        <time>2014-05-04T06:52:11Z</time>
      </trkpt>
      <trkpt lat="44.28047" lon="5.25912">
        <ele>545.2</ele>
        <time>2014-05-04T06:52:13Z</time>
      </trkpt>
      <trkpt lat="44.28052" lon="5.25908">
        <ele>545.4</ele>
        <time>2014-05-04T06:52:15Z</time>
      </trkpt>
      <trkpt lat="44.28057" lon="5.25902">
        <ele>545.2</ele>
        <time>2014-05-04T06:52:17Z</time>
      </trkpt>
      <trkpt lat="44.2806" lon="5.25897">
        <ele>544.6</ele>
        <time>2014-05-04T06:52:19Z</time>
      </trkpt>
      <trkpt lat="44.28068" lon="5.25885">
        <ele>543.6</ele>
        <time>2014-05-04T06:52:23Z</time>
      </trkpt>
      <trkpt lat="44.28072" lon="5.2588">
        <ele>543.4</ele>
        <time>2014-05-04T06:52:25Z</time>
      </trkpt>
      <trkpt lat="44.28076" lon="5.25875">
        <ele>543.2</ele>
        <time>2014-05-04T06:52:27Z</time>
      </trkpt>
      <trkpt lat="44.28081" lon="5.2587">
        <ele>543.4</ele>
        <time>2014-05-04T06:52:29Z</time>
      </trkpt>
      <trkpt lat="44.28085" lon="5.25865">
        <ele>543.1</ele>
        <time>2014-05-04T06:52:31Z</time>
      </trkpt>
      <trkpt lat="44.28089" lon="5.25859">
        <ele>542.3</ele>
        <time>2014-05-04T06:52:33Z</time>
      </trkpt>
      <trkpt lat="44.28092" lon="5.25854">
        <ele>541.3</ele>
        <time>2014-05-04T06:52:35Z</time>
      </trkpt>
      <trkpt lat="44.28096" lon="5.25848">
        <ele>540.6</ele>
        <time>2014-05-04T06:52:37Z</time>
      </trkpt>
      <trkpt lat="44.28101" lon="5.25843">
        <ele>539.9</ele>
        <time>2014-05-04T06:52:39Z</time>
      </trkpt>
      <trkpt lat="44.28105" lon="5.25839">
        <ele>539.5</ele>
        <time>2014-05-04T06:52:41Z</time>
      </trkpt>
      <trkpt lat="44.28111" lon="5.25835">
        <ele>539.2</ele>
        <time>2014-05-04T06:52:43Z</time>
      </trkpt>
      <trkpt lat="44.28116" lon="5.25832">
        <ele>538.7</ele>
        <time>2014-05-04T06:52:45Z</time>
      </trkpt>
      <trkpt lat="44.28121" lon="5.25829">
        <ele>538.5</ele>
        <time>2014-05-04T06:52:47Z</time>
      </trkpt>
      <trkpt lat="44.28126" lon="5.25827">
        <ele>538.6</ele>
        <time>2014-05-04T06:52:49Z</time>
      </trkpt>
      <trkpt lat="44.28132" lon="5.25825">
        <ele>538.4</ele>
        <time>2014-05-04T06:52:51Z</time>
      </trkpt>
      <trkpt lat="44.28137" lon="5.25824">
        <ele>538.5</ele>
        <time>2014-05-04T06:52:53Z</time>
      </trkpt>
      <trkpt lat="44.28142" lon="5.25823">
        <ele>538.6</ele>
        <time>2014-05-04T06:52:55Z</time>
      </trkpt>
      <trkpt lat="44.28147" lon="5.25822">
        <ele>539</ele>
        <time>2014-05-04T06:52:57Z</time>
      </trkpt>
      <trkpt lat="44.28152" lon="5.25822">
        <ele>539.4</ele>
        <time>2014-05-04T06:52:59Z</time>
      </trkpt>
      <trkpt lat="44.28157" lon="5.25822">
        <ele>539.8</ele>
        <time>2014-05-04T06:53:01Z</time>
      </trkpt>
      <trkpt lat="44.28162" lon="5.25822">
        <ele>540.1</ele>
        <time>2014-05-04T06:53:03Z</time>
      </trkpt>
      <trkpt lat="44.28167" lon="5.25822">
        <ele>540.5</ele>
        <time>2014-05-04T06:53:05Z</time>
      </trkpt>
      <trkpt lat="44.28173" lon="5.25821">
        <ele>541</ele>
        <time>2014-05-04T06:53:07Z</time>
      </trkpt>
      <trkpt lat="44.28178" lon="5.2582">
        <ele>541.4</ele>
        <time>2014-05-04T06:53:09Z</time>
      </trkpt>
      <trkpt lat="44.28184" lon="5.25818">
        <ele>541.8</ele>
        <time>2014-05-04T06:53:11Z</time>
      </trkpt>
      <trkpt lat="44.28189" lon="5.25817">
        <ele>542.2</ele>
        <time>2014-05-04T06:53:13Z</time>
      </trkpt>
      <trkpt lat="44.28195" lon="5.25816">
        <ele>542.6</ele>
        <time>2014-05-04T06:53:15Z</time>
      </trkpt>
      <trkpt lat="44.28201" lon="5.25815">
        <ele>543</ele>
        <time>2014-05-04T06:53:17Z</time>
      </trkpt>
      <trkpt lat="44.28206" lon="5.25813">
        <ele>543.4</ele>
        <time>2014-05-04T06:53:19Z</time>
      </trkpt>
      <trkpt lat="44.28211" lon="5.25812">
        <ele>544.1</ele>
        <time>2014-05-04T06:53:21Z</time>
      </trkpt>
      <trkpt lat="44.28222" lon="5.25811">
        <ele>544.9</ele>
        <time>2014-05-04T06:53:25Z</time>
      </trkpt>
      <trkpt lat="44.28227" lon="5.2581">
        <ele>545.6</ele>
        <time>2014-05-04T06:53:27Z</time>
      </trkpt>
      <trkpt lat="44.28233" lon="5.25809">
        <ele>546.1</ele>
        <time>2014-05-04T06:53:29Z</time>
      </trkpt>
      <trkpt lat="44.28238" lon="5.25807">
        <ele>546.5</ele>
        <time>2014-05-04T06:53:31Z</time>
      </trkpt>
      <trkpt lat="44.28243" lon="5.25805">
        <ele>546.6</ele>
        <time>2014-05-04T06:53:33Z</time>
      </trkpt>
      <trkpt lat="44.28249" lon="5.25802">
        <ele>546.8</ele>
        <time>2014-05-04T06:53:35Z</time>
      </trkpt>
      <trkpt lat="44.28254" lon="5.25799">
        <ele>546.9</ele>
        <time>2014-05-04T06:53:37Z</time>
      </trkpt>
      <trkpt lat="44.28259" lon="5.25797">
        <ele>546.9</ele>
        <time>2014-05-04T06:53:39Z</time>
      </trkpt>
      <trkpt lat="44.28264" lon="5.25795">
        <ele>547</ele>
        <time>2014-05-04T06:53:41Z</time>
      </trkpt>
      <trkpt lat="44.28269" lon="5.25794">
        <ele>547.3</ele>
        <time>2014-05-04T06:53:43Z</time>
      </trkpt>
      <trkpt lat="44.28274" lon="5.25793">
        <ele>547.6</ele>
        <time>2014-05-04T06:53:45Z</time>
      </trkpt>
      <trkpt lat="44.28279" lon="5.25792">
        <ele>548.1</ele>
        <time>2014-05-04T06:53:47Z</time>
      </trkpt>
      <trkpt lat="44.28284" lon="5.25792">
        <ele>548.7</ele>
        <time>2014-05-04T06:53:49Z</time>
      </trkpt>
      <trkpt lat="44.28289" lon="5.25791">
        <ele>549</ele>
        <time>2014-05-04T06:53:51Z</time>
      </trkpt>
      <trkpt lat="44.28294" lon="5.25791">
        <ele>549.6</ele>
        <time>2014-05-04T06:53:53Z</time>
      </trkpt>
      <trkpt lat="44.28299" lon="5.2579">
        <ele>549.9</ele>
        <time>2014-05-04T06:53:55Z</time>
      </trkpt>
      <trkpt lat="44.28304" lon="5.25789">
        <ele>550.2</ele>
        <time>2014-05-04T06:53:57Z</time>
      </trkpt>
      <trkpt lat="44.28309" lon="5.25786">
        <ele>550.3</ele>
        <time>2014-05-04T06:53:59Z</time>
      </trkpt>
      <trkpt lat="44.28314" lon="5.25783">
        <ele>550.5</ele>
        <time>2014-05-04T06:54:01Z</time>
      </trkpt>
      <trkpt lat="44.28319" lon="5.2578">
        <ele>550.7</ele>
        <time>2014-05-04T06:54:03Z</time>
      </trkpt>
      <trkpt lat="44.28324" lon="5.25777">
        <ele>550.6</ele>
        <time>2014-05-04T06:54:05Z</time>
      </trkpt>
      <trkpt lat="44.28329" lon="5.25774">
        <ele>550.8</ele>
        <time>2014-05-04T06:54:07Z</time>
      </trkpt>
      <trkpt lat="44.28333" lon="5.25771">
        <ele>551</ele>
        <time>2014-05-04T06:54:09Z</time>
      </trkpt>
      <trkpt lat="44.28338" lon="5.25768">
        <ele>551.2</ele>
        <time>2014-05-04T06:54:11Z</time>
      </trkpt>
      <trkpt lat="44.28343" lon="5.25766">
        <ele>551.9</ele>
        <time>2014-05-04T06:54:13Z</time>
      </trkpt>
      <trkpt lat="44.28348" lon="5.25765">
        <ele>552.5</ele>
        <time>2014-05-04T06:54:15Z</time>
      </trkpt>
      <trkpt lat="44.28353" lon="5.25763">
        <ele>553.1</ele>
        <time>2014-05-04T06:54:17Z</time>
      </trkpt>
      <trkpt lat="44.28358" lon="5.25762">
        <ele>553.7</ele>
        <time>2014-05-04T06:54:19Z</time>
      </trkpt>
      <trkpt lat="44.28363" lon="5.25761">
        <ele>554.4</ele>
        <time>2014-05-04T06:54:21Z</time>
      </trkpt>
      <trkpt lat="44.28368" lon="5.25761">
        <ele>555.2</ele>
        <time>2014-05-04T06:54:23Z</time>
      </trkpt>
      <trkpt lat="44.28378" lon="5.25761">
        <ele>556.7</ele>
        <time>2014-05-04T06:54:27Z</time>
      </trkpt>
      <trkpt lat="44.28383" lon="5.25761">
        <ele>557.5</ele>
        <time>2014-05-04T06:54:29Z</time>
      </trkpt>
      <trkpt lat="44.28388" lon="5.25762">
        <ele>558.5</ele>
        <time>2014-05-04T06:54:31Z</time>
      </trkpt>
      <trkpt lat="44.28393" lon="5.25762">
        <ele>559.3</ele>
        <time>2014-05-04T06:54:33Z</time>
      </trkpt>
      <trkpt lat="44.28398" lon="5.25761">
        <ele>559.9</ele>
        <time>2014-05-04T06:54:35Z</time>
      </trkpt>
      <trkpt lat="44.28403" lon="5.25759">
        <ele>560.6</ele>
        <time>2014-05-04T06:54:37Z</time>
      </trkpt>
      <trkpt lat="44.28407" lon="5.25757">
        <ele>561.1</ele>
        <time>2014-05-04T06:54:39Z</time>
      </trkpt>
      <trkpt lat="44.28413" lon="5.25753">
        <ele>561.7</ele>
        <time>2014-05-04T06:54:42Z</time>
      </trkpt>
      <trkpt lat="44.28419" lon="5.25749">
        <ele>562.4</ele>
        <time>2014-05-04T06:54:45Z</time>
      </trkpt>
      <trkpt lat="44.28423" lon="5.25744">
        <ele>563.2</ele>
        <time>2014-05-04T06:54:48Z</time>
      </trkpt>
      <trkpt lat="44.28428" lon="5.25739">
        <ele>564.1</ele>
        <time>2014-05-04T06:54:51Z</time>
      </trkpt>
      <trkpt lat="44.28433" lon="5.2574">
        <ele>565.1</ele>
        <time>2014-05-04T06:54:54Z</time>
      </trkpt>
      <trkpt lat="44.28432" lon="5.25748">
        <ele>564.8</ele>
        <time>2014-05-04T06:54:58Z</time>
      </trkpt>
      <trkpt lat="44.2843" lon="5.25755">
        <ele>565</ele>
        <time>2014-05-04T06:55:01Z</time>
      </trkpt>
      <trkpt lat="44.28429" lon="5.25763">
        <ele>565.5</ele>
        <time>2014-05-04T06:55:04Z</time>
      </trkpt>
      <trkpt lat="44.28429" lon="5.2577">
        <ele>566.2</ele>
        <time>2014-05-04T06:55:07Z</time>
      </trkpt>
      <trkpt lat="44.28429" lon="5.25777">
        <ele>567</ele>
        <time>2014-05-04T06:55:10Z</time>
      </trkpt>
      <trkpt lat="44.2843" lon="5.25785">
        <ele>567.8</ele>
        <time>2014-05-04T06:55:13Z</time>
      </trkpt>
      <trkpt lat="44.28429" lon="5.25793">
        <ele>568.4</ele>
        <time>2014-05-04T06:55:16Z</time>
      </trkpt>
      <trkpt lat="44.28426" lon="5.25799">
        <ele>568.6</ele>
        <time>2014-05-04T06:55:19Z</time>
      </trkpt>
      <trkpt lat="44.28423" lon="5.25805">
        <ele>568.4</ele>
        <time>2014-05-04T06:55:22Z</time>
      </trkpt>
      <trkpt lat="44.28419" lon="5.25809">
        <ele>568</ele>
        <time>2014-05-04T06:55:25Z</time>
      </trkpt>
      <trkpt lat="44.28409" lon="5.25814">
        <ele>567.1</ele>
        <time>2014-05-04T06:55:31Z</time>
      </trkpt>
      <trkpt lat="44.28404" lon="5.25818">
        <ele>566.8</ele>
        <time>2014-05-04T06:55:34Z</time>
      </trkpt>
      <trkpt lat="44.284" lon="5.25824">
        <ele>566.9</ele>
        <time>2014-05-04T06:55:37Z</time>
      </trkpt>
      <trkpt lat="44.28401" lon="5.25831">
        <ele>567.8</ele>
        <time>2014-05-04T06:55:40Z</time>
      </trkpt>
      <trkpt lat="44.28405" lon="5.25836">
        <ele>568.8</ele>
        <time>2014-05-04T06:55:43Z</time>
      </trkpt>
      <trkpt lat="44.2841" lon="5.25838">
        <ele>569.8</ele>
        <time>2014-05-04T06:55:46Z</time>
      </trkpt>
      <trkpt lat="44.28416" lon="5.25839">
        <ele>570.7</ele>
        <time>2014-05-04T06:55:49Z</time>
      </trkpt>
      <trkpt lat="44.28421" lon="5.25839">
        <ele>571.5</ele>
        <time>2014-05-04T06:55:51Z</time>
      </trkpt>
      <trkpt lat="44.28427" lon="5.25838">
        <ele>572.4</ele>
        <time>2014-05-04T06:55:54Z</time>
      </trkpt>
      <trkpt lat="44.28432" lon="5.25838">
        <ele>573.4</ele>
        <time>2014-05-04T06:55:57Z</time>
      </trkpt>
      <trkpt lat="44.28438" lon="5.25836">
        <ele>574.2</ele>
        <time>2014-05-04T06:56:00Z</time>
      </trkpt>
      <trkpt lat="44.28443" lon="5.25835">
        <ele>575</ele>
        <time>2014-05-04T06:56:03Z</time>
      </trkpt>
      <trkpt lat="44.28448" lon="5.25835">
        <ele>575.9</ele>
        <time>2014-05-04T06:56:06Z</time>
      </trkpt>
      <trkpt lat="44.28454" lon="5.25834">
        <ele>576.6</ele>
        <time>2014-05-04T06:56:09Z</time>
      </trkpt>
      <trkpt lat="44.28459" lon="5.25833">
        <ele>577.6</ele>
        <time>2014-05-04T06:56:12Z</time>
      </trkpt>
      <trkpt lat="44.28465" lon="5.25832">
        <ele>578.5</ele>
        <time>2014-05-04T06:56:15Z</time>
      </trkpt>
      <trkpt lat="44.2847" lon="5.25831">
        <ele>579.4</ele>
        <time>2014-05-04T06:56:18Z</time>
      </trkpt>
      <trkpt lat="44.28476" lon="5.25828">
        <ele>580.1</ele>
        <time>2014-05-04T06:56:21Z</time>
      </trkpt>
      <trkpt lat="44.28481" lon="5.25826">
        <ele>580.9</ele>
        <time>2014-05-04T06:56:24Z</time>
      </trkpt>
      <trkpt lat="44.28486" lon="5.25823">
        <ele>581.4</ele>
        <time>2014-05-04T06:56:27Z</time>
      </trkpt>
      <trkpt lat="44.28495" lon="5.25824">
        <ele>583.1</ele>
        <time>2014-05-04T06:56:33Z</time>
      </trkpt>
      <trkpt lat="44.28492" lon="5.25831">
        <ele>583.4</ele>
        <time>2014-05-04T06:56:36Z</time>
      </trkpt>
      <trkpt lat="44.28487" lon="5.25834">
        <ele>582.7</ele>
        <time>2014-05-04T06:56:39Z</time>
      </trkpt>
      <trkpt lat="44.28482" lon="5.25837">
        <ele>582.5</ele>
        <time>2014-05-04T06:56:42Z</time>
      </trkpt>
      <trkpt lat="44.28477" lon="5.25841">
        <ele>582.3</ele>
        <time>2014-05-04T06:56:45Z</time>
      </trkpt>
      <trkpt lat="44.28473" lon="5.25844">
        <ele>581.9</ele>
        <time>2014-05-04T06:56:48Z</time>
      </trkpt>
      <trkpt lat="44.28469" lon="5.25848">
        <ele>581.8</ele>
        <time>2014-05-04T06:56:51Z</time>
      </trkpt>
      <trkpt lat="44.28464" lon="5.25851">
        <ele>581.5</ele>
        <time>2014-05-04T06:56:54Z</time>
      </trkpt>
      <trkpt lat="44.2846" lon="5.25856">
        <ele>581.5</ele>
        <time>2014-05-04T06:56:57Z</time>
      </trkpt>
      <trkpt lat="44.28456" lon="5.2586">
        <ele>581.4</ele>
        <time>2014-05-04T06:57:00Z</time>
      </trkpt>
      <trkpt lat="44.28451" lon="5.25864">
        <ele>581.2</ele>
        <time>2014-05-04T06:57:03Z</time>
      </trkpt>
      <trkpt lat="44.28446" lon="5.25868">
        <ele>580.9</ele>
        <time>2014-05-04T06:57:06Z</time>
      </trkpt>
      <trkpt lat="44.28442" lon="5.25871">
        <ele>580.5</ele>
        <time>2014-05-04T06:57:09Z</time>
      </trkpt>
      <trkpt lat="44.28437" lon="5.25873">
        <ele>579.9</ele>
        <time>2014-05-04T06:57:12Z</time>
      </trkpt>
      <trkpt lat="44.28431" lon="5.25874">
        <ele>579.1</ele>
        <time>2014-05-04T06:57:15Z</time>
      </trkpt>
      <trkpt lat="44.28426" lon="5.25875">
        <ele>578.2</ele>
        <time>2014-05-04T06:57:18Z</time>
      </trkpt>
      <trkpt lat="44.28421" lon="5.25879">
        <ele>578</ele>
        <time>2014-05-04T06:57:21Z</time>
      </trkpt>
      <trkpt lat="44.2842" lon="5.25886">
        <ele>578.8</ele>
        <time>2014-05-04T06:57:24Z</time>
      </trkpt>
      <trkpt lat="44.28424" lon="5.25891">
        <ele>580.4</ele>
        <time>2014-05-04T06:57:27Z</time>
      </trkpt>
      <trkpt lat="44.2843" lon="5.25891">
        <ele>581.6</ele>
        <time>2014-05-04T06:57:30Z</time>
      </trkpt>
      <trkpt lat="44.2844" lon="5.25891">
        <ele>583.6</ele>
        <time>2014-05-04T06:57:36Z</time>
      </trkpt>
      <trkpt lat="44.28446" lon="5.25891">
        <ele>584.7</ele>
        <time>2014-05-04T06:57:39Z</time>
      </trkpt>
      <trkpt lat="44.28451" lon="5.25891">
        <ele>585.7</ele>
        <time>2014-05-04T06:57:42Z</time>
      </trkpt>
      <trkpt lat="44.28456" lon="5.25891">
        <ele>586.7</ele>
        <time>2014-05-04T06:57:45Z</time>
      </trkpt>
      <trkpt lat="44.28461" lon="5.2589">
        <ele>587.5</ele>
        <time>2014-05-04T06:57:48Z</time>
      </trkpt>
      <trkpt lat="44.28467" lon="5.25888">
        <ele>588.3</ele>
        <time>2014-05-04T06:57:51Z</time>
      </trkpt>
      <trkpt lat="44.28472" lon="5.25887">
        <ele>589.2</ele>
        <time>2014-05-04T06:57:54Z</time>
      </trkpt>
      <trkpt lat="44.28478" lon="5.25885">
        <ele>589.9</ele>
        <time>2014-05-04T06:57:57Z</time>
      </trkpt>
      <trkpt lat="44.28483" lon="5.25883">
        <ele>590.7</ele>
        <time>2014-05-04T06:58:00Z</time>
      </trkpt>
      <trkpt lat="44.28488" lon="5.25883">
        <ele>591.6</ele>
        <time>2014-05-04T06:58:03Z</time>
      </trkpt>
      <trkpt lat="44.28493" lon="5.25884">
        <ele>592.8</ele>
        <time>2014-05-04T06:58:06Z</time>
      </trkpt>
      <trkpt lat="44.28498" lon="5.25886">
        <ele>593.9</ele>
        <time>2014-05-04T06:58:09Z</time>
      </trkpt>
      <trkpt lat="44.28502" lon="5.25889">
        <ele>595.5</ele>
        <time>2014-05-04T06:58:12Z</time>
      </trkpt>
      <trkpt lat="44.28507" lon="5.2589">
        <ele>597.2</ele>
        <time>2014-05-04T06:58:15Z</time>
      </trkpt>
      <trkpt lat="44.28512" lon="5.25889">
        <ele>598.5</ele>
        <time>2014-05-04T06:58:18Z</time>
      </trkpt>
      <trkpt lat="44.28517" lon="5.25887">
        <ele>599.4</ele>
        <time>2014-05-04T06:58:21Z</time>
      </trkpt>
      <trkpt lat="44.28522" lon="5.25885">
        <ele>600.4</ele>
        <time>2014-05-04T06:58:24Z</time>
      </trkpt>
      <trkpt lat="44.28528" lon="5.25884">
        <ele>601.7</ele>
        <time>2014-05-04T06:58:27Z</time>
      </trkpt>
      <trkpt lat="44.28531" lon="5.2589">
        <ele>603.6</ele>
        <time>2014-05-04T06:58:31Z</time>
      </trkpt>
      <trkpt lat="44.28524" lon="5.25898">
        <ele>603.2</ele>
        <time>2014-05-04T06:58:37Z</time>
      </trkpt>
      <trkpt lat="44.2852" lon="5.25903">
        <ele>602.9</ele>
        <time>2014-05-04T06:58:40Z</time>
      </trkpt>
      <trkpt lat="44.28517" lon="5.25908">
        <ele>603</ele>
        <time>2014-05-04T06:58:43Z</time>
      </trkpt>
      <trkpt lat="44.28514" lon="5.25914">
        <ele>603.2</ele>
        <time>2014-05-04T06:58:46Z</time>
      </trkpt>
      <trkpt lat="44.28512" lon="5.2592">
        <ele>603.2</ele>
        <time>2014-05-04T06:58:49Z</time>
      </trkpt>
      <trkpt lat="44.28512" lon="5.25926">
        <ele>602.6</ele>
        <time>2014-05-04T06:58:52Z</time>
      </trkpt>
      <trkpt lat="44.28512" lon="5.25933">
        <ele>602.4</ele>
        <time>2014-05-04T06:58:55Z</time>
      </trkpt>
      <trkpt lat="44.28513" lon="5.2594">
        <ele>602.2</ele>
        <time>2014-05-04T06:58:58Z</time>
      </trkpt>
      <trkpt lat="44.28516" lon="5.25946">
        <ele>602.4</ele>
        <time>2014-05-04T06:59:01Z</time>
      </trkpt>
      <trkpt lat="44.28519" lon="5.25952">
        <ele>603</ele>
        <time>2014-05-04T06:59:04Z</time>
      </trkpt>
      <trkpt lat="44.28524" lon="5.25958">
        <ele>603.6</ele>
        <time>2014-05-04T06:59:07Z</time>
      </trkpt>
      <trkpt lat="44.28527" lon="5.25963">
        <ele>604.3</ele>
        <time>2014-05-04T06:59:10Z</time>
      </trkpt>
      <trkpt lat="44.28531" lon="5.25968">
        <ele>604.9</ele>
        <time>2014-05-04T06:59:13Z</time>
      </trkpt>
      <trkpt lat="44.28535" lon="5.25972">
        <ele>605.7</ele>
        <time>2014-05-04T06:59:16Z</time>
      </trkpt>
      <trkpt lat="44.2854" lon="5.25977">
        <ele>606.4</ele>
        <time>2014-05-04T06:59:19Z</time>
      </trkpt>
      <trkpt lat="44.28544" lon="5.25981">
        <ele>607.3</ele>
        <time>2014-05-04T06:59:22Z</time>
      </trkpt>
      <trkpt lat="44.28549" lon="5.25986">
        <ele>607.9</ele>
        <time>2014-05-04T06:59:25Z</time>
      </trkpt>
      <trkpt lat="44.28554" lon="5.25991">
        <ele>608.6</ele>
        <time>2014-05-04T06:59:28Z</time>
      </trkpt>
      <trkpt lat="44.28559" lon="5.25996">
        <ele>609.4</ele>
        <time>2014-05-04T06:59:31Z</time>
      </trkpt>
      <trkpt lat="44.28564" lon="5.26002">
        <ele>610.1</ele>
        <time>2014-05-04T06:59:34Z</time>
      </trkpt>
      <trkpt lat="44.28573" lon="5.26012">
        <ele>611</ele>
        <time>2014-05-04T06:59:40Z</time>
      </trkpt>
      <trkpt lat="44.28577" lon="5.26018">
        <ele>611.2</ele>
        <time>2014-05-04T06:59:43Z</time>
      </trkpt>
      <trkpt lat="44.28582" lon="5.26024">
        <ele>611.5</ele>
        <time>2014-05-04T06:59:46Z</time>
      </trkpt>
      <trkpt lat="44.28586" lon="5.26029">
        <ele>611.9</ele>
        <time>2014-05-04T06:59:49Z</time>
      </trkpt>
      <trkpt lat="44.28589" lon="5.26036">
        <ele>611.9</ele>
        <time>2014-05-04T06:59:52Z</time>
      </trkpt>
      <trkpt lat="44.28592" lon="5.26043">
        <ele>612.1</ele>
        <time>2014-05-04T06:59:55Z</time>
      </trkpt>
      <trkpt lat="44.28595" lon="5.2605">
        <ele>612</ele>
        <time>2014-05-04T06:59:58Z</time>
      </trkpt>
      <trkpt lat="44.28597" lon="5.26056">
        <ele>611.8</ele>
        <time>2014-05-04T07:00:01Z</time>
      </trkpt>
      <trkpt lat="44.286" lon="5.26063">
        <ele>611.7</ele>
        <time>2014-05-04T07:00:04Z</time>
      </trkpt>
      <trkpt lat="44.28604" lon="5.26069">
        <ele>612.1</ele>
        <time>2014-05-04T07:00:07Z</time>
      </trkpt>
      <trkpt lat="44.28609" lon="5.26074">
        <ele>613</ele>
        <time>2014-05-04T07:00:10Z</time>
      </trkpt>
      <trkpt lat="44.28614" lon="5.26079">
        <ele>614.1</ele>
        <time>2014-05-04T07:00:13Z</time>
      </trkpt>
      <trkpt lat="44.2862" lon="5.26082">
        <ele>615.1</ele>
        <time>2014-05-04T07:00:16Z</time>
      </trkpt>
      <trkpt lat="44.28626" lon="5.26086">
        <ele>616.6</ele>
        <time>2014-05-04T07:00:19Z</time>
      </trkpt>
      <trkpt lat="44.2863" lon="5.26088">
        <ele>617.8</ele>
        <time>2014-05-04T07:00:21Z</time>
      </trkpt>
      <trkpt lat="44.28636" lon="5.26092">
        <ele>619.2</ele>
        <time>2014-05-04T07:00:24Z</time>
      </trkpt>
      <trkpt lat="44.28641" lon="5.26097">
        <ele>620.2</ele>
        <time>2014-05-04T07:00:27Z</time>
      </trkpt>
      <trkpt lat="44.28645" lon="5.26103">
        <ele>621</ele>
        <time>2014-05-04T07:00:30Z</time>
      </trkpt>
      <trkpt lat="44.28647" lon="5.2611">
        <ele>621.2</ele>
        <time>2014-05-04T07:00:33Z</time>
      </trkpt>
      <trkpt lat="44.2865" lon="5.26118">
        <ele>621.2</ele>
        <time>2014-05-04T07:00:36Z</time>
      </trkpt>
      <trkpt lat="44.28654" lon="5.26133">
        <ele>621.1</ele>
        <time>2014-05-04T07:00:42Z</time>
      </trkpt>
      <trkpt lat="44.28657" lon="5.2614">
        <ele>621.3</ele>
        <time>2014-05-04T07:00:45Z</time>
      </trkpt>
      <trkpt lat="44.28661" lon="5.26145">
        <ele>621.8</ele>
        <time>2014-05-04T07:00:48Z</time>
      </trkpt>
      <trkpt lat="44.28666" lon="5.26151">
        <ele>622.3</ele>
        <time>2014-05-04T07:00:51Z</time>
      </trkpt>
      <trkpt lat="44.2867" lon="5.26157">
        <ele>623.2</ele>
        <time>2014-05-04T07:00:54Z</time>
      </trkpt>
      <trkpt lat="44.28675" lon="5.26162">
        <ele>623.9</ele>
        <time>2014-05-04T07:00:57Z</time>
      </trkpt>
      <trkpt lat="44.28679" lon="5.26169">
        <ele>624.4</ele>
        <time>2014-05-04T07:01:00Z</time>
      </trkpt>
      <trkpt lat="44.28682" lon="5.26175">
        <ele>624.8</ele>
        <time>2014-05-04T07:01:03Z</time>
      </trkpt>
      <trkpt lat="44.28685" lon="5.26182">
        <ele>625.2</ele>
        <time>2014-05-04T07:01:06Z</time>
      </trkpt>
      <trkpt lat="44.28688" lon="5.26188">
        <ele>625.4</ele>
        <time>2014-05-04T07:01:09Z</time>
      </trkpt>
      <trkpt lat="44.28691" lon="5.26194">
        <ele>625.9</ele>
        <time>2014-05-04T07:01:12Z</time>
      </trkpt>
      <trkpt lat="44.28695" lon="5.26197">
        <ele>626.7</ele>
        <time>2014-05-04T07:01:15Z</time>
      </trkpt>
      <trkpt lat="44.287" lon="5.262">
        <ele>627.6</ele>
        <time>2014-05-04T07:01:19Z</time>
      </trkpt>
      <trkpt lat="44.28705" lon="5.26203">
        <ele>628.6</ele>
        <time>2014-05-04T07:01:24Z</time>
      </trkpt>
      <trkpt lat="44.28709" lon="5.26203">
        <ele>629.9</ele>
        <time>2014-05-04T07:01:29Z</time>
      </trkpt>
      <trkpt lat="44.28714" lon="5.26201">
        <ele>631.3</ele>
        <time>2014-05-04T07:01:34Z</time>
      </trkpt>
      <trkpt lat="44.28719" lon="5.26199">
        <ele>632.8</ele>
        <time>2014-05-04T07:01:39Z</time>
      </trkpt>
      <trkpt lat="44.28729" lon="5.26198">
        <ele>635.5</ele>
        <time>2014-05-04T07:01:49Z</time>
      </trkpt>
      <trkpt lat="44.28734" lon="5.26199">
        <ele>636.6</ele>
        <time>2014-05-04T07:01:54Z</time>
      </trkpt>
      <trkpt lat="44.28739" lon="5.26201">
        <ele>637.7</ele>
        <time>2014-05-04T07:01:59Z</time>
      </trkpt>
      <trkpt lat="44.28743" lon="5.26203">
        <ele>638.6</ele>
        <time>2014-05-04T07:02:04Z</time>
      </trkpt>
      <trkpt lat="44.28747" lon="5.26199">
        <ele>640</ele>
        <time>2014-05-04T07:02:17Z</time>
      </trkpt>
      <trkpt lat="44.28749" lon="5.26193">
        <ele>641.2</ele>
        <time>2014-05-04T07:02:23Z</time>
      </trkpt>
      <trkpt lat="44.28751" lon="5.26187">
        <ele>642.6</ele>
        <time>2014-05-04T07:02:30Z</time>
      </trkpt>
      <trkpt lat="44.28752" lon="5.26181">
        <ele>643.7</ele>
        <time>2014-05-04T07:02:38Z</time>
      </trkpt>
      <trkpt lat="44.2875" lon="5.26174">
        <ele>644.2</ele>
        <time>2014-05-04T07:02:45Z</time>
      </trkpt>
      <trkpt lat="44.28746" lon="5.26162">
        <ele>644.8</ele>
        <time>2014-05-04T07:02:58Z</time>
      </trkpt>
      <trkpt lat="44.28744" lon="5.26156">
        <ele>644.9</ele>
        <time>2014-05-04T07:03:04Z</time>
      </trkpt>
      <trkpt lat="44.28741" lon="5.2615">
        <ele>645.4</ele>
        <time>2014-05-04T07:03:10Z</time>
      </trkpt>
      <trkpt lat="44.28739" lon="5.26142">
        <ele>645.6</ele>
        <time>2014-05-04T07:03:14Z</time>
      </trkpt>
      <trkpt lat="44.28735" lon="5.26136">
        <ele>645.5</ele>
        <time>2014-05-04T07:03:18Z</time>
      </trkpt>
      <trkpt lat="44.28733" lon="5.26129">
        <ele>645.8</ele>
        <time>2014-05-04T07:03:21Z</time>
      </trkpt>
      <trkpt lat="44.2873" lon="5.26122">
        <ele>646</ele>
        <time>2014-05-04T07:03:25Z</time>
      </trkpt>
      <trkpt lat="44.28727" lon="5.26116">
        <ele>646.1</ele>
        <time>2014-05-04T07:03:29Z</time>
      </trkpt>
      <trkpt lat="44.28725" lon="5.26109">
        <ele>646.4</ele>
        <time>2014-05-04T07:03:33Z</time>
      </trkpt>
      <trkpt lat="44.28725" lon="5.26102">
        <ele>647.4</ele>
        <time>2014-05-04T07:03:36Z</time>
      </trkpt>
      <trkpt lat="44.28726" lon="5.26096">
        <ele>648.6</ele>
        <time>2014-05-04T07:03:39Z</time>
      </trkpt>
      <trkpt lat="44.28727" lon="5.26089">
        <ele>650</ele>
        <time>2014-05-04T07:03:42Z</time>
      </trkpt>
      <trkpt lat="44.28731" lon="5.26084">
        <ele>652.1</ele>
        <time>2014-05-04T07:03:45Z</time>
      </trkpt>
      <trkpt lat="44.28733" lon="5.26078">
        <ele>653.3</ele>
        <time>2014-05-04T07:03:48Z</time>
      </trkpt>
      <trkpt lat="44.28735" lon="5.26062">
        <ele>655.8</ele>
        <time>2014-05-04T07:03:54Z</time>
      </trkpt>
      <trkpt lat="44.28735" lon="5.26055">
        <ele>656.7</ele>
        <time>2014-05-04T07:03:57Z</time>
      </trkpt>
      <trkpt lat="44.28735" lon="5.26048">
        <ele>657.1</ele>
        <time>2014-05-04T07:04:00Z</time>
      </trkpt>
      <trkpt lat="44.28733" lon="5.26042">
        <ele>657.2</ele>
        <time>2014-05-04T07:04:03Z</time>
      </trkpt>
      <trkpt lat="44.28732" lon="5.26036">
        <ele>657.4</ele>
        <time>2014-05-04T07:04:06Z</time>
      </trkpt>
      <trkpt lat="44.2873" lon="5.2603">
        <ele>657.2</ele>
        <time>2014-05-04T07:04:09Z</time>
      </trkpt>
      <trkpt lat="44.28726" lon="5.26024">
        <ele>656.9</ele>
        <time>2014-05-04T07:04:13Z</time>
      </trkpt>
      <trkpt lat="44.28723" lon="5.26017">
        <ele>656.5</ele>
        <time>2014-05-04T07:04:17Z</time>
      </trkpt>
      <trkpt lat="44.28721" lon="5.26011">
        <ele>656.4</ele>
        <time>2014-05-04T07:04:21Z</time>
      </trkpt>
      <trkpt lat="44.28718" lon="5.26005">
        <ele>656.1</ele>
        <time>2014-05-04T07:04:25Z</time>
      </trkpt>
      <trkpt lat="44.28716" lon="5.25998">
        <ele>656.1</ele>
        <time>2014-05-04T07:04:29Z</time>
      </trkpt>
      <trkpt lat="44.28714" lon="5.25992">
        <ele>655.7</ele>
        <time>2014-05-04T07:04:33Z</time>
      </trkpt>
      <trkpt lat="44.28712" lon="5.25985">
        <ele>655.6</ele>
        <time>2014-05-04T07:04:37Z</time>
      </trkpt>
      <trkpt lat="44.28711" lon="5.25979">
        <ele>655.4</ele>
        <time>2014-05-04T07:04:41Z</time>
      </trkpt>
      <trkpt lat="44.2871" lon="5.25971">
        <ele>655.5</ele>
        <time>2014-05-04T07:04:46Z</time>
      </trkpt>
      <trkpt lat="44.28709" lon="5.25964">
        <ele>655.3</ele>
        <time>2014-05-04T07:04:57Z</time>
      </trkpt>
      <trkpt lat="44.28706" lon="5.25951">
        <ele>655.1</ele>
        <time>2014-05-04T07:05:10Z</time>
      </trkpt>
      <trkpt lat="44.28705" lon="5.25945">
        <ele>655.3</ele>
        <time>2014-05-04T07:05:16Z</time>
      </trkpt>
      <trkpt lat="44.28703" lon="5.25938">
        <ele>655.2</ele>
        <time>2014-05-04T07:05:23Z</time>
      </trkpt>
      <trkpt lat="44.28703" lon="5.25931">
        <ele>655.4</ele>
        <time>2014-05-04T07:05:29Z</time>
      </trkpt>
      <trkpt lat="44.28705" lon="5.25925">
        <ele>656.3</ele>
        <time>2014-05-04T07:05:34Z</time>
      </trkpt>
      <trkpt lat="44.28708" lon="5.2592">
        <ele>657.4</ele>
        <time>2014-05-04T07:05:39Z</time>
      </trkpt>
      <trkpt lat="44.28712" lon="5.25915">
        <ele>658.1</ele>
        <time>2014-05-04T07:05:43Z</time>
      </trkpt>
      <trkpt lat="44.28716" lon="5.25911">
        <ele>658.8</ele>
        <time>2014-05-04T07:05:47Z</time>
      </trkpt>
      <trkpt lat="44.28721" lon="5.25906">
        <ele>659.6</ele>
        <time>2014-05-04T07:05:51Z</time>
      </trkpt>
      <trkpt lat="44.28726" lon="5.25902">
        <ele>660.4</ele>
        <time>2014-05-04T07:05:54Z</time>
      </trkpt>
      <trkpt lat="44.2873" lon="5.25898">
        <ele>661.1</ele>
        <time>2014-05-04T07:05:57Z</time>
      </trkpt>
      <trkpt lat="44.28734" lon="5.25894">
        <ele>661.7</ele>
        <time>2014-05-04T07:06:00Z</time>
      </trkpt>
      <trkpt lat="44.28742" lon="5.25885">
        <ele>662.7</ele>
        <time>2014-05-04T07:06:07Z</time>
      </trkpt>
      <trkpt lat="44.28745" lon="5.2588">
        <ele>663.2</ele>
        <time>2014-05-04T07:06:12Z</time>
      </trkpt>
      <trkpt lat="44.28747" lon="5.25872">
        <ele>662.8</ele>
        <time>2014-05-04T07:07:59Z</time>
      </trkpt>
      <trkpt lat="44.28751" lon="5.25856">
        <ele>662.3</ele>
        <time>2014-05-04T07:08:05Z</time>
      </trkpt>
      <trkpt lat="44.28753" lon="5.25849">
        <ele>662.3</ele>
        <time>2014-05-04T07:08:08Z</time>
      </trkpt>
      <trkpt lat="44.28756" lon="5.25843">
        <ele>662.4</ele>
        <time>2014-05-04T07:08:11Z</time>
      </trkpt>
      <trkpt lat="44.28758" lon="5.25838">
        <ele>662.5</ele>
        <time>2014-05-04T07:08:14Z</time>
      </trkpt>
      <trkpt lat="44.28762" lon="5.25832">
        <ele>663.1</ele>
        <time>2014-05-04T07:08:18Z</time>
      </trkpt>
      <trkpt lat="44.28765" lon="5.25827">
        <ele>663.2</ele>
        <time>2014-05-04T07:08:21Z</time>
      </trkpt>
      <trkpt lat="44.2877" lon="5.25822">
        <ele>663.7</ele>
        <time>2014-05-04T07:08:25Z</time>
      </trkpt>
      <trkpt lat="44.28775" lon="5.25818">
        <ele>664.6</ele>
        <time>2014-05-04T07:08:29Z</time>
      </trkpt>
      <trkpt lat="44.28779" lon="5.25817">
        <ele>665.5</ele>
        <time>2014-05-04T07:08:32Z</time>
      </trkpt>
      <trkpt lat="44.28785" lon="5.25814">
        <ele>666.6</ele>
        <time>2014-05-04T07:08:36Z</time>
      </trkpt>
      <trkpt lat="44.2879" lon="5.25812">
        <ele>667.5</ele>
        <time>2014-05-04T07:08:40Z</time>
      </trkpt>
      <trkpt lat="44.28795" lon="5.25808">
        <ele>668.2</ele>
        <time>2014-05-04T07:08:44Z</time>
      </trkpt>
      <trkpt lat="44.288" lon="5.25804">
        <ele>668.9</ele>
        <time>2014-05-04T07:08:48Z</time>
      </trkpt>
      <trkpt lat="44.28804" lon="5.25801">
        <ele>669.5</ele>
        <time>2014-05-04T07:08:51Z</time>
      </trkpt>
      <trkpt lat="44.28808" lon="5.25795">
        <ele>669.6</ele>
        <time>2014-05-04T07:08:55Z</time>
      </trkpt>
      <trkpt lat="44.28811" lon="5.2579">
        <ele>669.7</ele>
        <time>2014-05-04T07:08:58Z</time>
      </trkpt>
      <trkpt lat="44.28815" lon="5.25784">
        <ele>669.8</ele>
        <time>2014-05-04T07:09:01Z</time>
      </trkpt>
      <trkpt lat="44.28823" lon="5.25775">
        <ele>670.3</ele>
        <time>2014-05-04T07:09:07Z</time>
      </trkpt>
      <trkpt lat="44.28827" lon="5.2577">
        <ele>670.4</ele>
        <time>2014-05-04T07:09:10Z</time>
      </trkpt>
      <trkpt lat="44.28832" lon="5.25763">
        <ele>670.7</ele>
        <time>2014-05-04T07:09:13Z</time>
      </trkpt>
      <trkpt lat="44.28837" lon="5.25758">
        <ele>671.2</ele>
        <time>2014-05-04T07:09:15Z</time>
      </trkpt>
      <trkpt lat="44.28841" lon="5.25752">
        <ele>671.6</ele>
        <time>2014-05-04T07:09:17Z</time>
      </trkpt>
      <trkpt lat="44.28845" lon="5.25747">
        <ele>672</ele>
        <time>2014-05-04T07:09:19Z</time>
      </trkpt>
      <trkpt lat="44.2885" lon="5.25741">
        <ele>672.6</ele>
        <time>2014-05-04T07:09:21Z</time>
      </trkpt>
      <trkpt lat="44.28855" lon="5.25735">
        <ele>672.9</ele>
        <time>2014-05-04T07:09:23Z</time>
      </trkpt>
      <trkpt lat="44.28859" lon="5.25729">
        <ele>673</ele>
        <time>2014-05-04T07:09:25Z</time>
      </trkpt>
      <trkpt lat="44.28863" lon="5.25723">
        <ele>673.1</ele>
        <time>2014-05-04T07:09:27Z</time>
      </trkpt>
      <trkpt lat="44.28867" lon="5.25718">
        <ele>673.3</ele>
        <time>2014-05-04T07:09:29Z</time>
      </trkpt>
      <trkpt lat="44.28871" lon="5.25714">
        <ele>673.6</ele>
        <time>2014-05-04T07:09:31Z</time>
      </trkpt>
      <trkpt lat="44.28874" lon="5.25709">
        <ele>673.6</ele>
        <time>2014-05-04T07:09:33Z</time>
      </trkpt>
      <trkpt lat="44.28878" lon="5.25704">
        <ele>673.8</ele>
        <time>2014-05-04T07:09:35Z</time>
      </trkpt>
      <trkpt lat="44.28882" lon="5.257">
        <ele>673.7</ele>
        <time>2014-05-04T07:09:37Z</time>
      </trkpt>
      <trkpt lat="44.28886" lon="5.25697">
        <ele>674.2</ele>
        <time>2014-05-04T07:09:39Z</time>
      </trkpt>
      <trkpt lat="44.28892" lon="5.25695">
        <ele>675.2</ele>
        <time>2014-05-04T07:09:42Z</time>
      </trkpt>
      <trkpt lat="44.28898" lon="5.25693">
        <ele>676.3</ele>
        <time>2014-05-04T07:09:45Z</time>
      </trkpt>
      <trkpt lat="44.28902" lon="5.2569">
        <ele>676.6</ele>
        <time>2014-05-04T07:09:48Z</time>
      </trkpt>
      <trkpt lat="44.28907" lon="5.25687">
        <ele>677.2</ele>
        <time>2014-05-04T07:09:51Z</time>
      </trkpt>
      <trkpt lat="44.28912" lon="5.25684">
        <ele>677.7</ele>
        <time>2014-05-04T07:09:54Z</time>
      </trkpt>
      <trkpt lat="44.28916" lon="5.25681">
        <ele>678.2</ele>
        <time>2014-05-04T07:09:57Z</time>
      </trkpt>
      <trkpt lat="44.28922" lon="5.25679">
        <ele>678.7</ele>
        <time>2014-05-04T07:10:01Z</time>
      </trkpt>
      <trkpt lat="44.28926" lon="5.25678">
        <ele>679.1</ele>
        <time>2014-05-04T07:10:04Z</time>
      </trkpt>
      <trkpt lat="44.28937" lon="5.25681">
        <ele>681.8</ele>
        <time>2014-05-04T07:10:12Z</time>
      </trkpt>
      <trkpt lat="44.28942" lon="5.2568">
        <ele>682.7</ele>
        <time>2014-05-04T07:10:16Z</time>
      </trkpt>
      <trkpt lat="44.28946" lon="5.25676">
        <ele>682.6</ele>
        <time>2014-05-04T07:10:20Z</time>
      </trkpt>
      <trkpt lat="44.28951" lon="5.25672">
        <ele>682.4</ele>
        <time>2014-05-04T07:10:24Z</time>
      </trkpt>
      <trkpt lat="44.28955" lon="5.25669">
        <ele>682.2</ele>
        <time>2014-05-04T07:10:28Z</time>
      </trkpt>
      <trkpt lat="44.2896" lon="5.25665">
        <ele>682.3</ele>
        <time>2014-05-04T07:10:33Z</time>
      </trkpt>
      <trkpt lat="44.28964" lon="5.25662">
        <ele>682.7</ele>
        <time>2014-05-04T07:10:37Z</time>
      </trkpt>
      <trkpt lat="44.2897" lon="5.25659">
        <ele>683.3</ele>
        <time>2014-05-04T07:10:42Z</time>
      </trkpt>
      <trkpt lat="44.28975" lon="5.25657">
        <ele>683.7</ele>
        <time>2014-05-04T07:10:47Z</time>
      </trkpt>
      <trkpt lat="44.2898" lon="5.25655">
        <ele>684.5</ele>
        <time>2014-05-04T07:10:52Z</time>
      </trkpt>
      <trkpt lat="44.28985" lon="5.25652">
        <ele>684.8</ele>
        <time>2014-05-04T07:10:57Z</time>
      </trkpt>
      <trkpt lat="44.28989" lon="5.2565">
        <ele>685.2</ele>
        <time>2014-05-04T07:11:01Z</time>
      </trkpt>
      <trkpt lat="44.28994" lon="5.25648">
        <ele>686.1</ele>
        <time>2014-05-04T07:11:06Z</time>
      </trkpt>
      <trkpt lat="44.29003" lon="5.25647">
        <ele>688.1</ele>
        <time>2014-05-04T07:11:14Z</time>
      </trkpt>
      <trkpt lat="44.29009" lon="5.25648">
        <ele>689.5</ele>
        <time>2014-05-04T07:11:19Z</time>
      </trkpt>
      <trkpt lat="44.29014" lon="5.25649">
        <ele>691</ele>
        <time>2014-05-04T07:11:23Z</time>
      </trkpt>
      <trkpt lat="44.29019" lon="5.25651">
        <ele>692.5</ele>
        <time>2014-05-04T07:11:27Z</time>
      </trkpt>
      <trkpt lat="44.29024" lon="5.25651">
        <ele>693.8</ele>
        <time>2014-05-04T07:11:30Z</time>
      </trkpt>
      <trkpt lat="44.29029" lon="5.25649">
        <ele>694.8</ele>
        <time>2014-05-04T07:11:33Z</time>
      </trkpt>
      <trkpt lat="44.29034" lon="5.25646">
        <ele>695.9</ele>
        <time>2014-05-04T07:11:36Z</time>
      </trkpt>
      <trkpt lat="44.29039" lon="5.25643">
        <ele>697</ele>
        <time>2014-05-04T07:11:40Z</time>
      </trkpt>
      <trkpt lat="44.29045" lon="5.25641">
        <ele>698.4</ele>
        <time>2014-05-04T07:11:44Z</time>
      </trkpt>
      <trkpt lat="44.2905" lon="5.2564">
        <ele>699.9</ele>
        <time>2014-05-04T07:11:48Z</time>
      </trkpt>
      <trkpt lat="44.29055" lon="5.25639">
        <ele>701.3</ele>
        <time>2014-05-04T07:11:52Z</time>
      </trkpt>
      <trkpt lat="44.29061" lon="5.25641">
        <ele>702.8</ele>
        <time>2014-05-04T07:11:57Z</time>
      </trkpt>
      <trkpt lat="44.29066" lon="5.25644">
        <ele>704.2</ele>
        <time>2014-05-04T07:12:02Z</time>
      </trkpt>
      <trkpt lat="44.29071" lon="5.25647">
        <ele>705.7</ele>
        <time>2014-05-04T07:12:07Z</time>
      </trkpt>
      <trkpt lat="44.2908" lon="5.25651">
        <ele>708.2</ele>
        <time>2014-05-04T07:12:16Z</time>
      </trkpt>
      <trkpt lat="44.29084" lon="5.25652">
        <ele>709.3</ele>
        <time>2014-05-04T07:12:20Z</time>
      </trkpt>
      <trkpt lat="44.29089" lon="5.25655">
        <ele>711.2</ele>
        <time>2014-05-04T07:12:25Z</time>
      </trkpt>
      <trkpt lat="44.29094" lon="5.25657">
        <ele>712.8</ele>
        <time>2014-05-04T07:12:29Z</time>
      </trkpt>
      <trkpt lat="44.29098" lon="5.25659">
        <ele>714.2</ele>
        <time>2014-05-04T07:12:33Z</time>
      </trkpt>
      <trkpt lat="44.29104" lon="5.25661">
        <ele>716</ele>
        <time>2014-05-04T07:12:38Z</time>
      </trkpt>
      <trkpt lat="44.29109" lon="5.25659">
        <ele>717.9</ele>
        <time>2014-05-04T07:12:42Z</time>
      </trkpt>
      <trkpt lat="44.29113" lon="5.25656">
        <ele>719.2</ele>
        <time>2014-05-04T07:12:46Z</time>
      </trkpt>
      <trkpt lat="44.29116" lon="5.25651">
        <ele>720.3</ele>
        <time>2014-05-04T07:12:50Z</time>
      </trkpt>
      <trkpt lat="44.29119" lon="5.25647">
        <ele>721.6</ele>
        <time>2014-05-04T07:12:54Z</time>
      </trkpt>
      <trkpt lat="44.29123" lon="5.25643">
        <ele>723.1</ele>
        <time>2014-05-04T07:12:58Z</time>
      </trkpt>
      <trkpt lat="44.29129" lon="5.25642">
        <ele>725</ele>
        <time>2014-05-04T07:13:03Z</time>
      </trkpt>
      <trkpt lat="44.29133" lon="5.25643">
        <ele>726.6</ele>
        <time>2014-05-04T07:13:12Z</time>
      </trkpt>
      <trkpt lat="44.29142" lon="5.25649">
        <ele>729.5</ele>
        <time>2014-05-04T07:13:30Z</time>
      </trkpt>
      <trkpt lat="44.29146" lon="5.25652">
        <ele>731.1</ele>
        <time>2014-05-04T07:13:38Z</time>
      </trkpt>
      <trkpt lat="44.29151" lon="5.25655">
        <ele>732.6</ele>
        <time>2014-05-04T07:13:46Z</time>
      </trkpt>
      <trkpt lat="44.29155" lon="5.25659">
        <ele>733.9</ele>
        <time>2014-05-04T07:13:54Z</time>
      </trkpt>
      <trkpt lat="44.29158" lon="5.25662">
        <ele>735.1</ele>
        <time>2014-05-04T07:14:01Z</time>
      </trkpt>
      <trkpt lat="44.29162" lon="5.25668">
        <ele>736.2</ele>
        <time>2014-05-04T07:14:11Z</time>
      </trkpt>
      <trkpt lat="44.29165" lon="5.25672">
        <ele>738</ele>
        <time>2014-05-04T07:14:18Z</time>
      </trkpt>
      <trkpt lat="44.29174" lon="5.25669">
        <ele>741</ele>
        <time>2014-05-04T07:14:32Z</time>
      </trkpt>
      <trkpt lat="44.29174" lon="5.25662">
        <ele>740.8</ele>
        <time>2014-05-04T07:14:39Z</time>
      </trkpt>
      <trkpt lat="44.29172" lon="5.25655">
        <ele>740.2</ele>
        <time>2014-05-04T07:14:45Z</time>
      </trkpt>
      <trkpt lat="44.29171" lon="5.25648">
        <ele>739.9</ele>
        <time>2014-05-04T07:14:52Z</time>
      </trkpt>
      <trkpt lat="44.29172" lon="5.25641">
        <ele>740</ele>
        <time>2014-05-04T07:14:59Z</time>
      </trkpt>
      <trkpt lat="44.29171" lon="5.25634">
        <ele>739.8</ele>
        <time>2014-05-04T07:15:05Z</time>
      </trkpt>
      <trkpt lat="44.29171" lon="5.25627">
        <ele>739.8</ele>
        <time>2014-05-04T07:15:12Z</time>
      </trkpt>
      <trkpt lat="44.29171" lon="5.2562">
        <ele>739.9</ele>
        <time>2014-05-04T07:15:18Z</time>
      </trkpt>
      <trkpt lat="44.2917" lon="5.25614">
        <ele>739.7</ele>
        <time>2014-05-04T07:15:24Z</time>
      </trkpt>
      <trkpt lat="44.29171" lon="5.256">
        <ele>740</ele>
        <time>2014-05-04T07:15:40Z</time>
      </trkpt>
      <trkpt lat="44.29172" lon="5.25593">
        <ele>740.2</ele>
        <time>2014-05-04T07:15:47Z</time>
      </trkpt>
      <trkpt lat="44.29174" lon="5.25586">
        <ele>740.9</ele>
        <time>2014-05-04T07:16:45Z</time>
      </trkpt>
      <trkpt lat="44.29177" lon="5.25572">
        <ele>740.7</ele>
        <time>2014-05-04T07:16:52Z</time>
      </trkpt>
      <trkpt lat="44.29178" lon="5.25564">
        <ele>740.4</ele>
        <time>2014-05-04T07:16:56Z</time>
      </trkpt>
      <trkpt lat="44.29179" lon="5.25556">
        <ele>740</ele>
        <time>2014-05-04T07:17:00Z</time>
      </trkpt>
      <trkpt lat="44.29179" lon="5.25549">
        <ele>739.7</ele>
        <time>2014-05-04T07:17:04Z</time>
      </trkpt>
      <trkpt lat="44.2918" lon="5.25542">
        <ele>739.4</ele>
        <time>2014-05-04T07:17:08Z</time>
      </trkpt>
      <trkpt lat="44.2918" lon="5.25535">
        <ele>738.9</ele>
        <time>2014-05-04T07:17:12Z</time>
      </trkpt>
      <trkpt lat="44.29185" lon="5.25537">
        <ele>740</ele>
        <time>2014-05-04T07:17:18Z</time>
      </trkpt>
      <trkpt lat="44.29188" lon="5.25544">
        <ele>741</ele>
        <time>2014-05-04T07:17:23Z</time>
      </trkpt>
      <trkpt lat="44.29189" lon="5.25551">
        <ele>741.8</ele>
        <time>2014-05-04T07:17:28Z</time>
      </trkpt>
      <trkpt lat="44.2919" lon="5.25558">
        <ele>742.6</ele>
        <time>2014-05-04T07:17:33Z</time>
      </trkpt>
      <trkpt lat="44.29193" lon="5.25564">
        <ele>743.8</ele>
        <time>2014-05-04T07:17:40Z</time>
      </trkpt>
      <trkpt lat="44.29196" lon="5.2557">
        <ele>744.8</ele>
        <time>2014-05-04T07:17:46Z</time>
      </trkpt>
      <trkpt lat="44.292" lon="5.25582">
        <ele>746.9</ele>
        <time>2014-05-04T07:18:00Z</time>
      </trkpt>
      <trkpt lat="44.29202" lon="5.25587">
        <ele>747.8</ele>
        <time>2014-05-04T07:18:07Z</time>
      </trkpt>
      <trkpt lat="44.29205" lon="5.25593">
        <ele>748.8</ele>
        <time>2014-05-04T07:18:14Z</time>
      </trkpt>
      <trkpt lat="44.29208" lon="5.25599">
        <ele>749.9</ele>
        <time>2014-05-04T07:18:20Z</time>
      </trkpt>
      <trkpt lat="44.29211" lon="5.25603">
        <ele>751.2</ele>
        <time>2014-05-04T07:18:28Z</time>
      </trkpt>
      <trkpt lat="44.29216" lon="5.25607">
        <ele>752.6</ele>
        <time>2014-05-04T07:18:36Z</time>
      </trkpt>
      <trkpt lat="44.29219" lon="5.25612">
        <ele>754</ele>
        <time>2014-05-04T07:18:43Z</time>
      </trkpt>
      <trkpt lat="44.29224" lon="5.25615">
        <ele>755.6</ele>
        <time>2014-05-04T07:18:50Z</time>
      </trkpt>
      <trkpt lat="44.29232" lon="5.25623">
        <ele>759</ele>
        <time>2014-05-04T07:19:04Z</time>
      </trkpt>
      <trkpt lat="44.29236" lon="5.25626">
        <ele>760.5</ele>
        <time>2014-05-04T07:19:10Z</time>
      </trkpt>
      <trkpt lat="44.2924" lon="5.2563">
        <ele>762.3</ele>
        <time>2014-05-04T07:19:17Z</time>
      </trkpt>
      <trkpt lat="44.29244" lon="5.25634">
        <ele>764.1</ele>
        <time>2014-05-04T07:19:24Z</time>
      </trkpt>
      <trkpt lat="44.29248" lon="5.25637">
        <ele>765.9</ele>
        <time>2014-05-04T07:19:30Z</time>
      </trkpt>
      <trkpt lat="44.29252" lon="5.25642">
        <ele>768</ele>
        <time>2014-05-04T07:19:37Z</time>
      </trkpt>
      <trkpt lat="44.29256" lon="5.25646">
        <ele>770.7</ele>
        <time>2014-05-04T07:19:43Z</time>
      </trkpt>
      <trkpt lat="44.2926" lon="5.2565">
        <ele>773.3</ele>
        <time>2014-05-04T07:19:49Z</time>
      </trkpt>
      <trkpt lat="44.29265" lon="5.25653">
        <ele>775.7</ele>
        <time>2014-05-04T07:19:55Z</time>
      </trkpt>
      <trkpt lat="44.29273" lon="5.2566">
        <ele>780.8</ele>
        <time>2014-05-04T07:20:07Z</time>
      </trkpt>
      <trkpt lat="44.29277" lon="5.25662">
        <ele>783.2</ele>
        <time>2014-05-04T07:20:13Z</time>
      </trkpt>
      <trkpt lat="44.29282" lon="5.25662">
        <ele>785.3</ele>
        <time>2014-05-04T07:20:22Z</time>
      </trkpt>
      <trkpt lat="44.29286" lon="5.25658">
        <ele>786.3</ele>
        <time>2014-05-04T07:20:28Z</time>
      </trkpt>
      <trkpt lat="44.2929" lon="5.25655">
        <ele>787.8</ele>
        <time>2014-05-04T07:20:34Z</time>
      </trkpt>
      <trkpt lat="44.29294" lon="5.25652">
        <ele>789.1</ele>
        <time>2014-05-04T07:20:43Z</time>
      </trkpt>
      <trkpt lat="44.29299" lon="5.25648">
        <ele>790.2</ele>
        <time>2014-05-04T07:20:50Z</time>
      </trkpt>
      <trkpt lat="44.29303" lon="5.25644">
        <ele>791.3</ele>
        <time>2014-05-04T07:21:02Z</time>
      </trkpt>
      <trkpt lat="44.29311" lon="5.25637">
        <ele>793.5</ele>
        <time>2014-05-04T07:21:10Z</time>
      </trkpt>
      <trkpt lat="44.29315" lon="5.25632">
        <ele>794.1</ele>
        <time>2014-05-04T07:21:15Z</time>
      </trkpt>
      <trkpt lat="44.29319" lon="5.25628">
        <ele>794.9</ele>
        <time>2014-05-04T07:21:19Z</time>
      </trkpt>
      <trkpt lat="44.29323" lon="5.25623">
        <ele>795.3</ele>
        <time>2014-05-04T07:21:24Z</time>
      </trkpt>
      <trkpt lat="44.29326" lon="5.25619">
        <ele>796</ele>
        <time>2014-05-04T07:21:28Z</time>
      </trkpt>
      <trkpt lat="44.2933" lon="5.25614">
        <ele>796.1</ele>
        <time>2014-05-04T07:21:32Z</time>
      </trkpt>
      <trkpt lat="44.29333" lon="5.2561">
        <ele>796.6</ele>
        <time>2014-05-04T07:21:36Z</time>
      </trkpt>
      <trkpt lat="44.29337" lon="5.25604">
        <ele>796.5</ele>
        <time>2014-05-04T07:21:41Z</time>
      </trkpt>
      <trkpt lat="44.2934" lon="5.25599">
        <ele>796.8</ele>
        <time>2014-05-04T07:21:45Z</time>
      </trkpt>
      <trkpt lat="44.29343" lon="5.25595">
        <ele>796.8</ele>
        <time>2014-05-04T07:21:49Z</time>
      </trkpt>
      <trkpt lat="44.29347" lon="5.2559">
        <ele>797.6</ele>
        <time>2014-05-04T07:21:54Z</time>
      </trkpt>
      <trkpt lat="44.29351" lon="5.25585">
        <ele>798</ele>
        <time>2014-05-04T07:21:59Z</time>
      </trkpt>
      <trkpt lat="44.29355" lon="5.2558">
        <ele>798.3</ele>
        <time>2014-05-04T07:22:03Z</time>
      </trkpt>
      <trkpt lat="44.29363" lon="5.25572">
        <ele>799.8</ele>
        <time>2014-05-04T07:22:12Z</time>
      </trkpt>
      <trkpt lat="44.29368" lon="5.25568">
        <ele>801</ele>
        <time>2014-05-04T07:22:17Z</time>
      </trkpt>
      <trkpt lat="44.29373" lon="5.25564">
        <ele>802.1</ele>
        <time>2014-05-04T07:22:22Z</time>
      </trkpt>
      <trkpt lat="44.29378" lon="5.25561">
        <ele>803.2</ele>
        <time>2014-05-04T07:22:27Z</time>
      </trkpt>
      <trkpt lat="44.29382" lon="5.25558">
        <ele>804.5</ele>
        <time>2014-05-04T07:22:32Z</time>
      </trkpt>
      <trkpt lat="44.29387" lon="5.25554">
        <ele>805.6</ele>
        <time>2014-05-04T07:22:37Z</time>
      </trkpt>
      <trkpt lat="44.29392" lon="5.25551">
        <ele>806.9</ele>
        <time>2014-05-04T07:22:42Z</time>
      </trkpt>
      <trkpt lat="44.29396" lon="5.25548">
        <ele>807.9</ele>
        <time>2014-05-04T07:22:47Z</time>
      </trkpt>
      <trkpt lat="44.29401" lon="5.25545">
        <ele>809.1</ele>
        <time>2014-05-04T07:22:52Z</time>
      </trkpt>
      <trkpt lat="44.29405" lon="5.25541">
        <ele>810</ele>
        <time>2014-05-04T07:22:58Z</time>
      </trkpt>
      <trkpt lat="44.2941" lon="5.25538">
        <ele>811.1</ele>
        <time>2014-05-04T07:23:03Z</time>
      </trkpt>
      <trkpt lat="44.29413" lon="5.25535">
        <ele>811.8</ele>
        <time>2014-05-04T07:23:08Z</time>
      </trkpt>
      <trkpt lat="44.29422" lon="5.25527">
        <ele>814.1</ele>
        <time>2014-05-04T07:23:19Z</time>
      </trkpt>
      <trkpt lat="44.29426" lon="5.25523">
        <ele>815.2</ele>
        <time>2014-05-04T07:23:24Z</time>
      </trkpt>
      <trkpt lat="44.29429" lon="5.25518">
        <ele>815.9</ele>
        <time>2014-05-04T07:23:29Z</time>
      </trkpt>
      <trkpt lat="44.29433" lon="5.25514">
        <ele>817</ele>
        <time>2014-05-04T07:23:34Z</time>
      </trkpt>
      <trkpt lat="44.29437" lon="5.2551">
        <ele>818.4</ele>
        <time>2014-05-04T07:23:41Z</time>
      </trkpt>
      <trkpt lat="44.29442" lon="5.25507">
        <ele>820.4</ele>
        <time>2014-05-04T07:23:47Z</time>
      </trkpt>
      <trkpt lat="44.29446" lon="5.25504">
        <ele>822</ele>
        <time>2014-05-04T07:23:53Z</time>
      </trkpt>
      <trkpt lat="44.2945" lon="5.255">
        <ele>823.1</ele>
        <time>2014-05-04T07:23:59Z</time>
      </trkpt>
      <trkpt lat="44.29454" lon="5.25497">
        <ele>824.5</ele>
        <time>2014-05-04T07:24:08Z</time>
      </trkpt>
      <trkpt lat="44.29459" lon="5.25494">
        <ele>826.7</ele>
        <time>2014-05-04T07:24:21Z</time>
      </trkpt>
      <trkpt lat="44.29467" lon="5.25486">
        <ele>829.6</ele>
        <time>2014-05-04T07:24:35Z</time>
      </trkpt>
      <trkpt lat="44.29472" lon="5.25485">
        <ele>831.9</ele>
        <time>2014-05-04T07:24:43Z</time>
      </trkpt>
      <trkpt lat="44.29476" lon="5.2548">
        <ele>833</ele>
        <time>2014-05-04T07:24:51Z</time>
      </trkpt>
      <trkpt lat="44.2948" lon="5.25477">
        <ele>834.8</ele>
        <time>2014-05-04T07:24:58Z</time>
      </trkpt>
      <trkpt lat="44.29484" lon="5.25475">
        <ele>836.7</ele>
        <time>2014-05-04T07:25:05Z</time>
      </trkpt>
      <trkpt lat="44.29488" lon="5.25471">
        <ele>837.6</ele>
        <time>2014-05-04T07:25:13Z</time>
      </trkpt>
      <trkpt lat="44.29493" lon="5.25468">
        <ele>839.6</ele>
        <time>2014-05-04T07:25:21Z</time>
      </trkpt>
      <trkpt lat="44.29497" lon="5.25465">
        <ele>841.3</ele>
        <time>2014-05-04T07:25:28Z</time>
      </trkpt>
      <trkpt lat="44.29506" lon="5.25459">
        <ele>842.1</ele>
        <time>2014-05-04T07:25:44Z</time>
      </trkpt>
      <trkpt lat="44.29509" lon="5.25455">
        <ele>841.7</ele>
        <time>2014-05-04T07:25:51Z</time>
      </trkpt>
      <trkpt lat="44.29512" lon="5.25451">
        <ele>841.4</ele>
        <time>2014-05-04T07:25:59Z</time>
      </trkpt>
      <trkpt lat="44.29516" lon="5.25446">
        <ele>840.9</ele>
        <time>2014-05-04T07:26:09Z</time>
      </trkpt>
      <trkpt lat="44.29518" lon="5.25439">
        <ele>840</ele>
        <time>2014-05-04T07:26:18Z</time>
      </trkpt>
      <trkpt lat="44.29521" lon="5.25435">
        <ele>839.8</ele>
        <time>2014-05-04T07:26:26Z</time>
      </trkpt>
      <trkpt lat="44.29525" lon="5.25431">
        <ele>839.6</ele>
        <time>2014-05-04T07:26:35Z</time>
      </trkpt>
      <trkpt lat="44.29532" lon="5.25422">
        <ele>839</ele>
        <time>2014-05-04T07:26:54Z</time>
      </trkpt>
      <trkpt lat="44.29535" lon="5.25418">
        <ele>839</ele>
        <time>2014-05-04T07:27:02Z</time>
      </trkpt>
      <trkpt lat="44.29539" lon="5.25413">
        <ele>839.1</ele>
        <time>2014-05-04T07:27:11Z</time>
      </trkpt>
      <trkpt lat="44.29543" lon="5.25408">
        <ele>839.2</ele>
        <time>2014-05-04T07:27:18Z</time>
      </trkpt>
      <trkpt lat="44.29547" lon="5.25407">
        <ele>839.9</ele>
        <time>2014-05-04T07:27:27Z</time>
      </trkpt>
      <trkpt lat="44.29552" lon="5.25404">
        <ele>840.5</ele>
        <time>2014-05-04T07:27:36Z</time>
      </trkpt>
      <trkpt lat="44.29558" lon="5.25397">
        <ele>841.2</ele>
        <time>2014-05-04T07:28:09Z</time>
      </trkpt>
      <trkpt lat="44.29563" lon="5.25393">
        <ele>841.9</ele>
        <time>2014-05-04T07:28:19Z</time>
      </trkpt>
      <trkpt lat="44.29566" lon="5.25389">
        <ele>842.6</ele>
        <time>2014-05-04T07:28:25Z</time>
      </trkpt>
      <trkpt lat="44.29571" lon="5.25387">
        <ele>843.6</ele>
        <time>2014-05-04T07:28:46Z</time>
      </trkpt>
      <trkpt lat="44.29579" lon="5.25383">
        <ele>845.6</ele>
        <time>2014-05-04T07:29:02Z</time>
      </trkpt>
      <trkpt lat="44.29584" lon="5.2538">
        <ele>846.5</ele>
        <time>2014-05-04T07:29:11Z</time>
      </trkpt>
      <trkpt lat="44.29587" lon="5.25376">
        <ele>845.4</ele>
        <time>2014-05-04T07:29:18Z</time>
      </trkpt>
      <trkpt lat="44.2959" lon="5.2537">
        <ele>844.7</ele>
        <time>2014-05-04T07:29:24Z</time>
      </trkpt>
      <trkpt lat="44.29594" lon="5.25365">
        <ele>843.8</ele>
        <time>2014-05-04T07:29:30Z</time>
      </trkpt>
      <trkpt lat="44.29598" lon="5.25361">
        <ele>843.1</ele>
        <time>2014-05-04T07:29:36Z</time>
      </trkpt>
      <trkpt lat="44.29601" lon="5.25355">
        <ele>842.7</ele>
        <time>2014-05-04T07:29:42Z</time>
      </trkpt>
      <trkpt lat="44.29605" lon="5.25351">
        <ele>842.2</ele>
        <time>2014-05-04T07:29:48Z</time>
      </trkpt>
      <trkpt lat="44.29614" lon="5.25345">
        <ele>841.3</ele>
        <time>2014-05-04T07:30:03Z</time>
      </trkpt>
      <trkpt lat="44.29618" lon="5.25341">
        <ele>840.9</ele>
        <time>2014-05-04T07:30:11Z</time>
      </trkpt>
      <trkpt lat="44.29622" lon="5.25338">
        <ele>840.8</ele>
        <time>2014-05-04T07:30:19Z</time>
      </trkpt>
      <trkpt lat="44.29627" lon="5.25337">
        <ele>840.4</ele>
        <time>2014-05-04T07:30:30Z</time>
      </trkpt>
      <trkpt lat="44.29632" lon="5.25337">
        <ele>839.7</ele>
        <time>2014-05-04T07:30:42Z</time>
      </trkpt>
      <trkpt lat="44.29636" lon="5.25335">
        <ele>839.4</ele>
        <time>2014-05-04T07:30:51Z</time>
      </trkpt>
      <trkpt lat="44.29645" lon="5.25333">
        <ele>838.8</ele>
        <time>2014-05-04T07:31:11Z</time>
      </trkpt>
      <trkpt lat="44.29648" lon="5.25328">
        <ele>839.6</ele>
        <time>2014-05-04T07:31:20Z</time>
      </trkpt>
      <trkpt lat="44.29652" lon="5.25324">
        <ele>840.1</ele>
        <time>2014-05-04T07:31:28Z</time>
      </trkpt>
      <trkpt lat="44.29656" lon="5.2532">
        <ele>840.7</ele>
        <time>2014-05-04T07:31:37Z</time>
      </trkpt>
      <trkpt lat="44.29661" lon="5.2532">
        <ele>840.3</ele>
        <time>2014-05-04T07:31:47Z</time>
      </trkpt>
      <trkpt lat="44.29666" lon="5.25319">
        <ele>840</ele>
        <time>2014-05-04T07:31:58Z</time>
      </trkpt>
      <trkpt lat="44.2967" lon="5.25332">
        <ele>834.7</ele>
        <time>2014-05-04T07:32:13Z</time>
      </trkpt>
      <trkpt lat="44.29673" lon="5.25337">
        <ele>831.6</ele>
        <time>2014-05-04T07:32:21Z</time>
      </trkpt>
      <trkpt lat="44.29676" lon="5.25342">
        <ele>828.1</ele>
        <time>2014-05-04T07:32:31Z</time>
      </trkpt>
      <trkpt lat="44.29679" lon="5.25337">
        <ele>827.5</ele>
        <time>2014-05-04T07:38:48Z</time>
      </trkpt>
      <trkpt lat="44.29684" lon="5.25326">
        <ele>827.4</ele>
        <time>2014-05-04T07:38:58Z</time>
      </trkpt>
      <trkpt lat="44.29689" lon="5.25326">
        <ele>824.4</ele>
        <time>2014-05-04T07:39:05Z</time>
      </trkpt>
      <trkpt lat="44.29693" lon="5.25324">
        <ele>822.5</ele>
        <time>2014-05-04T07:39:09Z</time>
      </trkpt>
      <trkpt lat="44.29699" lon="5.25322">
        <ele>819.7</ele>
        <time>2014-05-04T07:39:13Z</time>
      </trkpt>
      <trkpt lat="44.29703" lon="5.25319">
        <ele>817.8</ele>
        <time>2014-05-04T07:39:16Z</time>
      </trkpt>
      <trkpt lat="44.29708" lon="5.25317">
        <ele>815.6</ele>
        <time>2014-05-04T07:39:19Z</time>
      </trkpt>
      <trkpt lat="44.29712" lon="5.25316">
        <ele>812.8</ele>
        <time>2014-05-04T07:39:21Z</time>
      </trkpt>
      <trkpt lat="44.29717" lon="5.25316">
        <ele>810.4</ele>
        <time>2014-05-04T07:39:23Z</time>
      </trkpt>
      <trkpt lat="44.29722" lon="5.25313">
        <ele>807.7</ele>
        <time>2014-05-04T07:39:26Z</time>
      </trkpt>
      <trkpt lat="44.29727" lon="5.2531">
        <ele>806</ele>
        <time>2014-05-04T07:39:29Z</time>
      </trkpt>
      <trkpt lat="44.29732" lon="5.25308">
        <ele>803.5</ele>
        <time>2014-05-04T07:39:32Z</time>
      </trkpt>
      <trkpt lat="44.29737" lon="5.25308">
        <ele>800</ele>
        <time>2014-05-04T07:39:35Z</time>
      </trkpt>
      <trkpt lat="44.29745" lon="5.25306">
        <ele>795.7</ele>
        <time>2014-05-04T07:39:37Z</time>
      </trkpt>
      <trkpt lat="44.2975" lon="5.25302">
        <ele>793.9</ele>
        <time>2014-05-04T07:39:39Z</time>
      </trkpt>
      <trkpt lat="44.29752" lon="5.25296">
        <ele>794.7</ele>
        <time>2014-05-04T07:39:41Z</time>
      </trkpt>
      <trkpt lat="44.29753" lon="5.25287">
        <ele>796.9</ele>
        <time>2014-05-04T07:39:43Z</time>
      </trkpt>
      <trkpt lat="44.29753" lon="5.2528">
        <ele>798.7</ele>
        <time>2014-05-04T07:39:45Z</time>
      </trkpt>
      <trkpt lat="44.29753" lon="5.25273">
        <ele>800.5</ele>
        <time>2014-05-04T07:39:47Z</time>
      </trkpt>
      <trkpt lat="44.29754" lon="5.25265">
        <ele>802.4</ele>
        <time>2014-05-04T07:39:50Z</time>
      </trkpt>
      <trkpt lat="44.29757" lon="5.25249">
        <ele>805.7</ele>
        <time>2014-05-04T07:39:55Z</time>
      </trkpt>
      <trkpt lat="44.29759" lon="5.25242">
        <ele>807.4</ele>
        <time>2014-05-04T07:39:57Z</time>
      </trkpt>
      <trkpt lat="44.29762" lon="5.25234">
        <ele>808.8</ele>
        <time>2014-05-04T07:40:00Z</time>
      </trkpt>
      <trkpt lat="44.29765" lon="5.25229">
        <ele>808.9</ele>
        <time>2014-05-04T07:40:03Z</time>
      </trkpt>
      <trkpt lat="44.29769" lon="5.25226">
        <ele>808.7</ele>
        <time>2014-05-04T07:40:06Z</time>
      </trkpt>
      <trkpt lat="44.29772" lon="5.25222">
        <ele>808.4</ele>
        <time>2014-05-04T07:40:09Z</time>
      </trkpt>
      <trkpt lat="44.29777" lon="5.25218">
        <ele>808</ele>
        <time>2014-05-04T07:40:12Z</time>
      </trkpt>
      <trkpt lat="44.29781" lon="5.25213">
        <ele>808.3</ele>
        <time>2014-05-04T07:40:15Z</time>
      </trkpt>
      <trkpt lat="44.29783" lon="5.25208">
        <ele>809.1</ele>
        <time>2014-05-04T07:40:18Z</time>
      </trkpt>
      <trkpt lat="44.29784" lon="5.25199">
        <ele>810.9</ele>
        <time>2014-05-04T07:40:21Z</time>
      </trkpt>
      <trkpt lat="44.29786" lon="5.25193">
        <ele>812.3</ele>
        <time>2014-05-04T07:40:23Z</time>
      </trkpt>
      <trkpt lat="44.29788" lon="5.25184">
        <ele>814.5</ele>
        <time>2014-05-04T07:40:26Z</time>
      </trkpt>
      <trkpt lat="44.29789" lon="5.25176">
        <ele>816.5</ele>
        <time>2014-05-04T07:40:29Z</time>
      </trkpt>
      <trkpt lat="44.29793" lon="5.25171">
        <ele>816.9</ele>
        <time>2014-05-04T07:40:35Z</time>
      </trkpt>
      <trkpt lat="44.29797" lon="5.25168">
        <ele>816.1</ele>
        <time>2014-05-04T07:40:58Z</time>
      </trkpt>
      <trkpt lat="44.29798" lon="5.25181">
        <ele>812.3</ele>
        <time>2014-05-04T07:41:18Z</time>
      </trkpt>
      <trkpt lat="44.29799" lon="5.25187">
        <ele>809.8</ele>
        <time>2014-05-04T07:41:25Z</time>
      </trkpt>
      <trkpt lat="44.29804" lon="5.25183">
        <ele>809.3</ele>
        <time>2014-05-04T07:41:29Z</time>
      </trkpt>
      <trkpt lat="44.29808" lon="5.25179">
        <ele>809.1</ele>
        <time>2014-05-04T07:41:33Z</time>
      </trkpt>
      <trkpt lat="44.2981" lon="5.25171">
        <ele>810.9</ele>
        <time>2014-05-04T07:41:36Z</time>
      </trkpt>
      <trkpt lat="44.29811" lon="5.25164">
        <ele>812.7</ele>
        <time>2014-05-04T07:41:39Z</time>
      </trkpt>
      <trkpt lat="44.29814" lon="5.25158">
        <ele>812.6</ele>
        <time>2014-05-04T07:41:42Z</time>
      </trkpt>
      <trkpt lat="44.29819" lon="5.25152">
        <ele>812.4</ele>
        <time>2014-05-04T07:41:45Z</time>
      </trkpt>
      <trkpt lat="44.29823" lon="5.25148">
        <ele>811.9</ele>
        <time>2014-05-04T07:41:47Z</time>
      </trkpt>
      <trkpt lat="44.29825" lon="5.2514">
        <ele>812.6</ele>
        <time>2014-05-04T07:41:50Z</time>
      </trkpt>
      <trkpt lat="44.29828" lon="5.25133">
        <ele>813</ele>
        <time>2014-05-04T07:41:54Z</time>
      </trkpt>
      <trkpt lat="44.29832" lon="5.25128">
        <ele>812.5</ele>
        <time>2014-05-04T07:41:57Z</time>
      </trkpt>
      <trkpt lat="44.29834" lon="5.25121">
        <ele>813.4</ele>
        <time>2014-05-04T07:42:00Z</time>
      </trkpt>
      <trkpt lat="44.2984" lon="5.25107">
        <ele>814.6</ele>
        <time>2014-05-04T07:42:07Z</time>
      </trkpt>
      <trkpt lat="44.29844" lon="5.251">
        <ele>814.7</ele>
        <time>2014-05-04T07:42:10Z</time>
      </trkpt>
      <trkpt lat="44.29848" lon="5.25095">
        <ele>815.1</ele>
        <time>2014-05-04T07:42:12Z</time>
      </trkpt>
      <trkpt lat="44.29851" lon="5.2509">
        <ele>814.9</ele>
        <time>2014-05-04T07:42:14Z</time>
      </trkpt>
      <trkpt lat="44.29856" lon="5.25084">
        <ele>814.8</ele>
        <time>2014-05-04T07:42:17Z</time>
      </trkpt>
      <trkpt lat="44.29859" lon="5.25079">
        <ele>813.7</ele>
        <time>2014-05-04T07:42:19Z</time>
      </trkpt>
      <trkpt lat="44.29862" lon="5.25072">
        <ele>812.5</ele>
        <time>2014-05-04T07:42:22Z</time>
      </trkpt>
      <trkpt lat="44.29864" lon="5.25065">
        <ele>811.6</ele>
        <time>2014-05-04T07:42:25Z</time>
      </trkpt>
      <trkpt lat="44.29865" lon="5.25057">
        <ele>810.9</ele>
        <time>2014-05-04T07:42:28Z</time>
      </trkpt>
      <trkpt lat="44.29866" lon="5.25049">
        <ele>810.2</ele>
        <time>2014-05-04T07:42:31Z</time>
      </trkpt>
      <trkpt lat="44.29866" lon="5.25042">
        <ele>809.8</ele>
        <time>2014-05-04T07:42:34Z</time>
      </trkpt>
      <trkpt lat="44.29868" lon="5.25034">
        <ele>808.8</ele>
        <time>2014-05-04T07:42:37Z</time>
      </trkpt>
      <trkpt lat="44.29868" lon="5.25027">
        <ele>808.3</ele>
        <time>2014-05-04T07:42:39Z</time>
      </trkpt>
      <trkpt lat="44.29867" lon="5.2502">
        <ele>808</ele>
        <time>2014-05-04T07:42:42Z</time>
      </trkpt>
      <trkpt lat="44.29867" lon="5.25012">
        <ele>807.7</ele>
        <time>2014-05-04T07:42:45Z</time>
      </trkpt>
      <trkpt lat="44.29866" lon="5.25005">
        <ele>807.8</ele>
        <time>2014-05-04T07:42:48Z</time>
      </trkpt>
      <trkpt lat="44.29864" lon="5.24999">
        <ele>808</ele>
        <time>2014-05-04T07:42:51Z</time>
      </trkpt>
      <trkpt lat="44.29862" lon="5.24991">
        <ele>808.2</ele>
        <time>2014-05-04T07:42:54Z</time>
      </trkpt>
      <trkpt lat="44.29861" lon="5.24983">
        <ele>808</ele>
        <time>2014-05-04T07:42:57Z</time>
      </trkpt>
      <trkpt lat="44.2986" lon="5.24977">
        <ele>808.1</ele>
        <time>2014-05-04T07:42:59Z</time>
      </trkpt>
      <trkpt lat="44.2986" lon="5.24968">
        <ele>807.4</ele>
        <time>2014-05-04T07:43:02Z</time>
      </trkpt>
      <trkpt lat="44.29859" lon="5.24951">
        <ele>806.3</ele>
        <time>2014-05-04T07:43:07Z</time>
      </trkpt>
      <trkpt lat="44.29861" lon="5.24939">
        <ele>804.9</ele>
        <time>2014-05-04T07:43:09Z</time>
      </trkpt>
      <trkpt lat="44.29861" lon="5.24932">
        <ele>804.2</ele>
        <time>2014-05-04T07:43:10Z</time>
      </trkpt>
      <trkpt lat="44.29862" lon="5.24923">
        <ele>803</ele>
        <time>2014-05-04T07:43:12Z</time>
      </trkpt>
      <trkpt lat="44.29863" lon="5.24915">
        <ele>802.2</ele>
        <time>2014-05-04T07:43:14Z</time>
      </trkpt>
      <trkpt lat="44.29864" lon="5.24907">
        <ele>802</ele>
        <time>2014-05-04T07:43:16Z</time>
      </trkpt>
      <trkpt lat="44.29864" lon="5.249">
        <ele>802</ele>
        <time>2014-05-04T07:43:18Z</time>
      </trkpt>
      <trkpt lat="44.29864" lon="5.24894">
        <ele>802.3</ele>
        <time>2014-05-04T07:43:20Z</time>
      </trkpt>
      <trkpt lat="44.29864" lon="5.24887">
        <ele>802.3</ele>
        <time>2014-05-04T07:43:22Z</time>
      </trkpt>
      <trkpt lat="44.29865" lon="5.2488">
        <ele>801.9</ele>
        <time>2014-05-04T07:43:24Z</time>
      </trkpt>
      <trkpt lat="44.29865" lon="5.24872">
        <ele>802</ele>
        <time>2014-05-04T07:43:26Z</time>
      </trkpt>
      <trkpt lat="44.29865" lon="5.24864">
        <ele>802</ele>
        <time>2014-05-04T07:43:28Z</time>
      </trkpt>
      <trkpt lat="44.29866" lon="5.24856">
        <ele>801.8</ele>
        <time>2014-05-04T07:43:30Z</time>
      </trkpt>
      <trkpt lat="44.29867" lon="5.24847">
        <ele>801.8</ele>
        <time>2014-05-04T07:43:32Z</time>
      </trkpt>
      <trkpt lat="44.29867" lon="5.24839">
        <ele>801.7</ele>
        <time>2014-05-04T07:43:34Z</time>
      </trkpt>
      <trkpt lat="44.29867" lon="5.24832">
        <ele>802.2</ele>
        <time>2014-05-04T07:43:36Z</time>
      </trkpt>
      <trkpt lat="44.29867" lon="5.24825">
        <ele>803.9</ele>
        <time>2014-05-04T07:43:38Z</time>
      </trkpt>
      <trkpt lat="44.29865" lon="5.24817">
        <ele>806.9</ele>
        <time>2014-05-04T07:43:40Z</time>
      </trkpt>
      <trkpt lat="44.29864" lon="5.24811">
        <ele>809.3</ele>
        <time>2014-05-04T07:43:42Z</time>
      </trkpt>
      <trkpt lat="44.29864" lon="5.24802">
        <ele>811.1</ele>
        <time>2014-05-04T07:43:45Z</time>
      </trkpt>
      <trkpt lat="44.29864" lon="5.24794">
        <ele>813.2</ele>
        <time>2014-05-04T07:43:48Z</time>
      </trkpt>
      <trkpt lat="44.29863" lon="5.24787">
        <ele>815.2</ele>
        <time>2014-05-04T07:43:51Z</time>
      </trkpt>
      <trkpt lat="44.29863" lon="5.24779">
        <ele>817.3</ele>
        <time>2014-05-04T07:43:55Z</time>
      </trkpt>
      <trkpt lat="44.29862" lon="5.24772">
        <ele>819.7</ele>
        <time>2014-05-04T07:43:59Z</time>
      </trkpt>
      <trkpt lat="44.2986" lon="5.24765">
        <ele>822</ele>
        <time>2014-05-04T07:44:03Z</time>
      </trkpt>
      <trkpt lat="44.29859" lon="5.24751">
        <ele>825.3</ele>
        <time>2014-05-04T07:44:12Z</time>
      </trkpt>
      <trkpt lat="44.29859" lon="5.24745">
        <ele>827.2</ele>
        <time>2014-05-04T07:44:16Z</time>
      </trkpt>
      <trkpt lat="44.2986" lon="5.24738">
        <ele>829.5</ele>
        <time>2014-05-04T07:44:21Z</time>
      </trkpt>
      <trkpt lat="44.2986" lon="5.2473">
        <ele>831.5</ele>
        <time>2014-05-04T07:44:26Z</time>
      </trkpt>
      <trkpt lat="44.29861" lon="5.24724">
        <ele>832.9</ele>
        <time>2014-05-04T07:44:30Z</time>
      </trkpt>
      <trkpt lat="44.29863" lon="5.24717">
        <ele>834.5</ele>
        <time>2014-05-04T07:44:34Z</time>
      </trkpt>
      <trkpt lat="44.29864" lon="5.24711">
        <ele>836.5</ele>
        <time>2014-05-04T07:44:38Z</time>
      </trkpt>
      <trkpt lat="44.29864" lon="5.24704">
        <ele>838.5</ele>
        <time>2014-05-04T07:44:42Z</time>
      </trkpt>
      <trkpt lat="44.29864" lon="5.24697">
        <ele>840.3</ele>
        <time>2014-05-04T07:44:46Z</time>
      </trkpt>
      <trkpt lat="44.29866" lon="5.24691">
        <ele>841.6</ele>
        <time>2014-05-04T07:44:50Z</time>
      </trkpt>
      <trkpt lat="44.29868" lon="5.24684">
        <ele>842.8</ele>
        <time>2014-05-04T07:44:54Z</time>
      </trkpt>
      <trkpt lat="44.29869" lon="5.24678">
        <ele>844</ele>
        <time>2014-05-04T07:44:58Z</time>
      </trkpt>
      <trkpt lat="44.29872" lon="5.24672">
        <ele>844.9</ele>
        <time>2014-05-04T07:45:02Z</time>
      </trkpt>
      <trkpt lat="44.29876" lon="5.24666">
        <ele>845.3</ele>
        <time>2014-05-04T07:45:08Z</time>
      </trkpt>
      <trkpt lat="44.29885" lon="5.24659">
        <ele>842.9</ele>
        <time>2014-05-04T07:45:16Z</time>
      </trkpt>
      <trkpt lat="44.2989" lon="5.24657">
        <ele>841.2</ele>
        <time>2014-05-04T07:45:21Z</time>
      </trkpt>
      <trkpt lat="44.29895" lon="5.24657">
        <ele>839.4</ele>
        <time>2014-05-04T07:45:25Z</time>
      </trkpt>
      <trkpt lat="44.299" lon="5.24656">
        <ele>838</ele>
        <time>2014-05-04T07:45:30Z</time>
      </trkpt>
      <trkpt lat="44.29906" lon="5.24655">
        <ele>836</ele>
        <time>2014-05-04T07:45:35Z</time>
      </trkpt>
      <trkpt lat="44.29911" lon="5.24656">
        <ele>833.9</ele>
        <time>2014-05-04T07:45:40Z</time>
      </trkpt>
      <trkpt lat="44.29913" lon="5.2465">
        <ele>834.4</ele>
        <time>2014-05-04T07:45:45Z</time>
      </trkpt>
      <trkpt lat="44.29914" lon="5.24643">
        <ele>835.1</ele>
        <time>2014-05-04T07:45:50Z</time>
      </trkpt>
      <trkpt lat="44.29918" lon="5.24635">
        <ele>834.6</ele>
        <time>2014-05-04T07:48:30Z</time>
      </trkpt>
      <trkpt lat="44.29925" lon="5.24626">
        <ele>832.8</ele>
        <time>2014-05-04T07:48:35Z</time>
      </trkpt>
      <trkpt lat="44.29928" lon="5.24617">
        <ele>832.7</ele>
        <time>2014-05-04T07:48:37Z</time>
      </trkpt>
      <trkpt lat="44.29931" lon="5.24607">
        <ele>833.4</ele>
        <time>2014-05-04T07:48:39Z</time>
      </trkpt>
      <trkpt lat="44.29934" lon="5.24597">
        <ele>833.9</ele>
        <time>2014-05-04T07:48:41Z</time>
      </trkpt>
      <trkpt lat="44.29938" lon="5.24588">
        <ele>833.8</ele>
        <time>2014-05-04T07:48:43Z</time>
      </trkpt>
      <trkpt lat="44.2994" lon="5.24583">
        <ele>833.2</ele>
        <time>2014-05-04T07:48:44Z</time>
      </trkpt>
      <trkpt lat="44.29943" lon="5.24576">
        <ele>832.2</ele>
        <time>2014-05-04T07:48:45Z</time>
      </trkpt>
      <trkpt lat="44.29946" lon="5.24569">
        <ele>831.3</ele>
        <time>2014-05-04T07:48:46Z</time>
      </trkpt>
      <trkpt lat="44.29949" lon="5.24561">
        <ele>830.3</ele>
        <time>2014-05-04T07:48:47Z</time>
      </trkpt>
      <trkpt lat="44.29952" lon="5.24554">
        <ele>829.4</ele>
        <time>2014-05-04T07:48:48Z</time>
      </trkpt>
      <trkpt lat="44.29954" lon="5.24547">
        <ele>828.8</ele>
        <time>2014-05-04T07:48:49Z</time>
      </trkpt>
      <trkpt lat="44.29956" lon="5.24541">
        <ele>828.3</ele>
        <time>2014-05-04T07:48:50Z</time>
      </trkpt>
      <trkpt lat="44.29958" lon="5.24535">
        <ele>827.9</ele>
        <time>2014-05-04T07:48:51Z</time>
      </trkpt>
      <trkpt lat="44.29959" lon="5.24529">
        <ele>827.7</ele>
        <time>2014-05-04T07:48:52Z</time>
      </trkpt>
      <trkpt lat="44.2996" lon="5.24523">
        <ele>827.8</ele>
        <time>2014-05-04T07:48:53Z</time>
      </trkpt>
      <trkpt lat="44.29961" lon="5.24516">
        <ele>827.6</ele>
        <time>2014-05-04T07:48:54Z</time>
      </trkpt>
      <trkpt lat="44.29963" lon="5.2451">
        <ele>827.3</ele>
        <time>2014-05-04T07:48:55Z</time>
      </trkpt>
      <trkpt lat="44.29964" lon="5.24504">
        <ele>826.9</ele>
        <time>2014-05-04T07:48:56Z</time>
      </trkpt>
      <trkpt lat="44.29966" lon="5.24497">
        <ele>826.8</ele>
        <time>2014-05-04T07:48:57Z</time>
      </trkpt>
      <trkpt lat="44.29967" lon="5.24489">
        <ele>826.9</ele>
        <time>2014-05-04T07:48:58Z</time>
      </trkpt>
      <trkpt lat="44.29967" lon="5.24482">
        <ele>827</ele>
        <time>2014-05-04T07:48:59Z</time>
      </trkpt>
      <trkpt lat="44.29968" lon="5.24475">
        <ele>827.3</ele>
        <time>2014-05-04T07:49:00Z</time>
      </trkpt>
      <trkpt lat="44.29969" lon="5.24468">
        <ele>827.1</ele>
        <time>2014-05-04T07:49:01Z</time>
      </trkpt>
      <trkpt lat="44.29971" lon="5.24461">
        <ele>827.1</ele>
        <time>2014-05-04T07:49:02Z</time>
      </trkpt>
      <trkpt lat="44.29973" lon="5.24454">
        <ele>826.8</ele>
        <time>2014-05-04T07:49:03Z</time>
      </trkpt>
      <trkpt lat="44.29975" lon="5.24447">
        <ele>826.4</ele>
        <time>2014-05-04T07:49:04Z</time>
      </trkpt>
      <trkpt lat="44.29978" lon="5.2444">
        <ele>825.8</ele>
        <time>2014-05-04T07:49:05Z</time>
      </trkpt>
      <trkpt lat="44.2998" lon="5.24433">
        <ele>825.7</ele>
        <time>2014-05-04T07:49:06Z</time>
      </trkpt>
      <trkpt lat="44.29981" lon="5.24425">
        <ele>825.8</ele>
        <time>2014-05-04T07:49:07Z</time>
      </trkpt>
      <trkpt lat="44.29982" lon="5.24418">
        <ele>826</ele>
        <time>2014-05-04T07:49:08Z</time>
      </trkpt>
      <trkpt lat="44.29982" lon="5.24411">
        <ele>826.6</ele>
        <time>2014-05-04T07:49:10Z</time>
      </trkpt>
      <trkpt lat="44.29984" lon="5.24404">
        <ele>826.5</ele>
        <time>2014-05-04T07:49:12Z</time>
      </trkpt>
      <trkpt lat="44.29987" lon="5.24396">
        <ele>826.4</ele>
        <time>2014-05-04T07:49:14Z</time>
      </trkpt>
      <trkpt lat="44.29992" lon="5.24389">
        <ele>825.8</ele>
        <time>2014-05-04T07:49:16Z</time>
      </trkpt>
      <trkpt lat="44.29998" lon="5.24382">
        <ele>824.8</ele>
        <time>2014-05-04T07:49:18Z</time>
      </trkpt>
      <trkpt lat="44.30001" lon="5.24377">
        <ele>824.4</ele>
        <time>2014-05-04T07:49:19Z</time>
      </trkpt>
      <trkpt lat="44.30004" lon="5.24371">
        <ele>824</ele>
        <time>2014-05-04T07:49:20Z</time>
      </trkpt>
      <trkpt lat="44.30006" lon="5.24365">
        <ele>823.6</ele>
        <time>2014-05-04T07:49:21Z</time>
      </trkpt>
      <trkpt lat="44.30009" lon="5.24359">
        <ele>823.4</ele>
        <time>2014-05-04T07:49:22Z</time>
      </trkpt>
      <trkpt lat="44.30012" lon="5.24353">
        <ele>823.2</ele>
        <time>2014-05-04T07:49:23Z</time>
      </trkpt>
      <trkpt lat="44.30014" lon="5.24347">
        <ele>822.9</ele>
        <time>2014-05-04T07:49:24Z</time>
      </trkpt>
      <trkpt lat="44.30017" lon="5.24338">
        <ele>823.1</ele>
        <time>2014-05-04T07:49:26Z</time>
      </trkpt>
      <trkpt lat="44.3002" lon="5.2433">
        <ele>822.3</ele>
        <time>2014-05-04T07:49:29Z</time>
      </trkpt>
      <trkpt lat="44.30024" lon="5.24322">
        <ele>821</ele>
        <time>2014-05-04T07:49:31Z</time>
      </trkpt>
      <trkpt lat="44.30029" lon="5.24302">
        <ele>819.3</ele>
        <time>2014-05-04T07:49:34Z</time>
      </trkpt>
      <trkpt lat="44.30031" lon="5.24294">
        <ele>818.9</ele>
        <time>2014-05-04T07:49:35Z</time>
      </trkpt>
      <trkpt lat="44.30032" lon="5.24286">
        <ele>818.7</ele>
        <time>2014-05-04T07:49:36Z</time>
      </trkpt>
      <trkpt lat="44.30033" lon="5.24277">
        <ele>818.4</ele>
        <time>2014-05-04T07:49:37Z</time>
      </trkpt>
      <trkpt lat="44.30035" lon="5.24269">
        <ele>818.1</ele>
        <time>2014-05-04T07:49:38Z</time>
      </trkpt>
      <trkpt lat="44.30036" lon="5.24261">
        <ele>817.9</ele>
        <time>2014-05-04T07:49:39Z</time>
      </trkpt>
      <trkpt lat="44.30037" lon="5.24253">
        <ele>817.9</ele>
        <time>2014-05-04T07:49:40Z</time>
      </trkpt>
      <trkpt lat="44.30038" lon="5.24245">
        <ele>817.7</ele>
        <time>2014-05-04T07:49:41Z</time>
      </trkpt>
      <trkpt lat="44.30039" lon="5.24237">
        <ele>817.4</ele>
        <time>2014-05-04T07:49:42Z</time>
      </trkpt>
      <trkpt lat="44.30039" lon="5.24229">
        <ele>817.2</ele>
        <time>2014-05-04T07:49:43Z</time>
      </trkpt>
      <trkpt lat="44.3004" lon="5.24222">
        <ele>816.9</ele>
        <time>2014-05-04T07:49:44Z</time>
      </trkpt>
      <trkpt lat="44.30041" lon="5.24214">
        <ele>816.6</ele>
        <time>2014-05-04T07:49:45Z</time>
      </trkpt>
      <trkpt lat="44.30042" lon="5.24206">
        <ele>816.3</ele>
        <time>2014-05-04T07:49:46Z</time>
      </trkpt>
      <trkpt lat="44.30044" lon="5.24198">
        <ele>815.9</ele>
        <time>2014-05-04T07:49:47Z</time>
      </trkpt>
      <trkpt lat="44.30045" lon="5.24191">
        <ele>815.4</ele>
        <time>2014-05-04T07:49:48Z</time>
      </trkpt>
      <trkpt lat="44.30046" lon="5.24184">
        <ele>815</ele>
        <time>2014-05-04T07:49:49Z</time>
      </trkpt>
      <trkpt lat="44.30047" lon="5.24176">
        <ele>814.5</ele>
        <time>2014-05-04T07:49:50Z</time>
      </trkpt>
      <trkpt lat="44.30049" lon="5.24169">
        <ele>814.1</ele>
        <time>2014-05-04T07:49:51Z</time>
      </trkpt>
      <trkpt lat="44.3005" lon="5.24162">
        <ele>814.2</ele>
        <time>2014-05-04T07:49:52Z</time>
      </trkpt>
      <trkpt lat="44.30051" lon="5.24155">
        <ele>814.3</ele>
        <time>2014-05-04T07:49:53Z</time>
      </trkpt>
      <trkpt lat="44.30052" lon="5.24148">
        <ele>814.7</ele>
        <time>2014-05-04T07:49:54Z</time>
      </trkpt>
      <trkpt lat="44.30053" lon="5.2414">
        <ele>815</ele>
        <time>2014-05-04T07:49:55Z</time>
      </trkpt>
      <trkpt lat="44.30054" lon="5.24133">
        <ele>815.2</ele>
        <time>2014-05-04T07:49:56Z</time>
      </trkpt>
      <trkpt lat="44.30056" lon="5.24126">
        <ele>815.5</ele>
        <time>2014-05-04T07:49:57Z</time>
      </trkpt>
      <trkpt lat="44.30057" lon="5.24119">
        <ele>815.6</ele>
        <time>2014-05-04T07:49:58Z</time>
      </trkpt>
      <trkpt lat="44.30058" lon="5.24112">
        <ele>815.7</ele>
        <time>2014-05-04T07:49:59Z</time>
      </trkpt>
      <trkpt lat="44.3006" lon="5.24105">
        <ele>815.8</ele>
        <time>2014-05-04T07:50:00Z</time>
      </trkpt>
      <trkpt lat="44.30061" lon="5.24097">
        <ele>816.1</ele>
        <time>2014-05-04T07:50:01Z</time>
      </trkpt>
      <trkpt lat="44.30063" lon="5.2409">
        <ele>816.2</ele>
        <time>2014-05-04T07:50:02Z</time>
      </trkpt>
      <trkpt lat="44.30064" lon="5.24082">
        <ele>816.4</ele>
        <time>2014-05-04T07:50:03Z</time>
      </trkpt>
      <trkpt lat="44.30065" lon="5.24075">
        <ele>816.9</ele>
        <time>2014-05-04T07:50:04Z</time>
      </trkpt>
      <trkpt lat="44.30066" lon="5.24068">
        <ele>817.2</ele>
        <time>2014-05-04T07:50:05Z</time>
      </trkpt>
      <trkpt lat="44.30068" lon="5.24061">
        <ele>817.7</ele>
        <time>2014-05-04T07:50:06Z</time>
      </trkpt>
      <trkpt lat="44.30069" lon="5.24054">
        <ele>818.1</ele>
        <time>2014-05-04T07:50:07Z</time>
      </trkpt>
      <trkpt lat="44.3007" lon="5.24047">
        <ele>818.5</ele>
        <time>2014-05-04T07:50:08Z</time>
      </trkpt>
      <trkpt lat="44.30071" lon="5.24041">
        <ele>818.9</ele>
        <time>2014-05-04T07:50:09Z</time>
      </trkpt>
      <trkpt lat="44.30072" lon="5.24034">
        <ele>819.5</ele>
        <time>2014-05-04T07:50:10Z</time>
      </trkpt>
      <trkpt lat="44.30074" lon="5.24028">
        <ele>819.8</ele>
        <time>2014-05-04T07:50:11Z</time>
      </trkpt>
      <trkpt lat="44.30076" lon="5.24023">
        <ele>819.7</ele>
        <time>2014-05-04T07:50:12Z</time>
      </trkpt>
      <trkpt lat="44.30079" lon="5.24017">
        <ele>819.4</ele>
        <time>2014-05-04T07:50:13Z</time>
      </trkpt>
      <trkpt lat="44.30084" lon="5.24008">
        <ele>818.9</ele>
        <time>2014-05-04T07:50:15Z</time>
      </trkpt>
      <trkpt lat="44.30089" lon="5.23998">
        <ele>819.2</ele>
        <time>2014-05-04T07:50:17Z</time>
      </trkpt>
      <trkpt lat="44.30094" lon="5.2399">
        <ele>819.7</ele>
        <time>2014-05-04T07:50:19Z</time>
      </trkpt>
      <trkpt lat="44.301" lon="5.23983">
        <ele>819.9</ele>
        <time>2014-05-04T07:50:21Z</time>
      </trkpt>
      <trkpt lat="44.30105" lon="5.23975">
        <ele>820.2</ele>
        <time>2014-05-04T07:50:23Z</time>
      </trkpt>
      <trkpt lat="44.3011" lon="5.23967">
        <ele>820.4</ele>
        <time>2014-05-04T07:50:25Z</time>
      </trkpt>
      <trkpt lat="44.30115" lon="5.2396">
        <ele>820.5</ele>
        <time>2014-05-04T07:50:27Z</time>
      </trkpt>
      <trkpt lat="44.30121" lon="5.23954">
        <ele>820.1</ele>
        <time>2014-05-04T07:50:29Z</time>
      </trkpt>
      <trkpt lat="44.30126" lon="5.23947">
        <ele>819.9</ele>
        <time>2014-05-04T07:50:31Z</time>
      </trkpt>
      <trkpt lat="44.3013" lon="5.23939">
        <ele>819.9</ele>
        <time>2014-05-04T07:50:33Z</time>
      </trkpt>
      <trkpt lat="44.30138" lon="5.23924">
        <ele>820</ele>
        <time>2014-05-04T07:50:37Z</time>
      </trkpt>
      <trkpt lat="44.30142" lon="5.23917">
        <ele>819.8</ele>
        <time>2014-05-04T07:50:39Z</time>
      </trkpt>
      <trkpt lat="44.30146" lon="5.23909">
        <ele>819.9</ele>
        <time>2014-05-04T07:50:41Z</time>
      </trkpt>
      <trkpt lat="44.3015" lon="5.23902">
        <ele>819.9</ele>
        <time>2014-05-04T07:50:43Z</time>
      </trkpt>
      <trkpt lat="44.30155" lon="5.23895">
        <ele>819.7</ele>
        <time>2014-05-04T07:50:45Z</time>
      </trkpt>
      <trkpt lat="44.30159" lon="5.23888">
        <ele>819.4</ele>
        <time>2014-05-04T07:50:47Z</time>
      </trkpt>
      <trkpt lat="44.30163" lon="5.23882">
        <ele>819.3</ele>
        <time>2014-05-04T07:50:49Z</time>
      </trkpt>
      <trkpt lat="44.30167" lon="5.23874">
        <ele>819.7</ele>
        <time>2014-05-04T07:50:51Z</time>
      </trkpt>
      <trkpt lat="44.30171" lon="5.23868">
        <ele>820.6</ele>
        <time>2014-05-04T07:50:53Z</time>
      </trkpt>
      <trkpt lat="44.30175" lon="5.23861">
        <ele>821.3</ele>
        <time>2014-05-04T07:50:55Z</time>
      </trkpt>
      <trkpt lat="44.30179" lon="5.23854">
        <ele>821.9</ele>
        <time>2014-05-04T07:50:57Z</time>
      </trkpt>
      <trkpt lat="44.30183" lon="5.23848">
        <ele>822.4</ele>
        <time>2014-05-04T07:50:59Z</time>
      </trkpt>
      <trkpt lat="44.30187" lon="5.23841">
        <ele>822.8</ele>
        <time>2014-05-04T07:51:01Z</time>
      </trkpt>
      <trkpt lat="44.30191" lon="5.23835">
        <ele>823.1</ele>
        <time>2014-05-04T07:51:03Z</time>
      </trkpt>
      <trkpt lat="44.30195" lon="5.23828">
        <ele>823.9</ele>
        <time>2014-05-04T07:51:05Z</time>
      </trkpt>
      <trkpt lat="44.30198" lon="5.23822">
        <ele>824.7</ele>
        <time>2014-05-04T07:51:07Z</time>
      </trkpt>
      <trkpt lat="44.30202" lon="5.23817">
        <ele>825.2</ele>
        <time>2014-05-04T07:51:09Z</time>
      </trkpt>
      <trkpt lat="44.30206" lon="5.23811">
        <ele>825.5</ele>
        <time>2014-05-04T07:51:11Z</time>
      </trkpt>
      <trkpt lat="44.3021" lon="5.23806">
        <ele>826.2</ele>
        <time>2014-05-04T07:51:13Z</time>
      </trkpt>
      <trkpt lat="44.30214" lon="5.238">
        <ele>826.5</ele>
        <time>2014-05-04T07:51:15Z</time>
      </trkpt>
      <trkpt lat="44.30218" lon="5.23795">
        <ele>826.7</ele>
        <time>2014-05-04T07:51:17Z</time>
      </trkpt>
      <trkpt lat="44.30222" lon="5.23791">
        <ele>826.5</ele>
        <time>2014-05-04T07:51:19Z</time>
      </trkpt>
      <trkpt lat="44.30227" lon="5.23787">
        <ele>826.2</ele>
        <time>2014-05-04T07:51:21Z</time>
      </trkpt>
      <trkpt lat="44.30231" lon="5.23783">
        <ele>826</ele>
        <time>2014-05-04T07:51:23Z</time>
      </trkpt>
      <trkpt lat="44.30235" lon="5.23778">
        <ele>825.8</ele>
        <time>2014-05-04T07:51:25Z</time>
      </trkpt>
      <trkpt lat="44.3024" lon="5.23774">
        <ele>825.4</ele>
        <time>2014-05-04T07:51:27Z</time>
      </trkpt>
      <trkpt lat="44.30244" lon="5.2377">
        <ele>825.1</ele>
        <time>2014-05-04T07:51:29Z</time>
      </trkpt>
      <trkpt lat="44.30248" lon="5.23766">
        <ele>824.7</ele>
        <time>2014-05-04T07:51:31Z</time>
      </trkpt>
      <trkpt lat="44.30252" lon="5.23761">
        <ele>825.1</ele>
        <time>2014-05-04T07:51:33Z</time>
      </trkpt>
      <trkpt lat="44.30256" lon="5.23757">
        <ele>825.6</ele>
        <time>2014-05-04T07:51:35Z</time>
      </trkpt>
      <trkpt lat="44.30264" lon="5.23747">
        <ele>826.8</ele>
        <time>2014-05-04T07:51:39Z</time>
      </trkpt>
      <trkpt lat="44.30268" lon="5.23743">
        <ele>827.3</ele>
        <time>2014-05-04T07:51:41Z</time>
      </trkpt>
      <trkpt lat="44.30272" lon="5.23738">
        <ele>827.8</ele>
        <time>2014-05-04T07:51:43Z</time>
      </trkpt>
      <trkpt lat="44.30276" lon="5.23733">
        <ele>828.4</ele>
        <time>2014-05-04T07:51:45Z</time>
      </trkpt>
      <trkpt lat="44.3028" lon="5.23728">
        <ele>828.7</ele>
        <time>2014-05-04T07:51:47Z</time>
      </trkpt>
      <trkpt lat="44.30284" lon="5.23722">
        <ele>829.3</ele>
        <time>2014-05-04T07:51:49Z</time>
      </trkpt>
      <trkpt lat="44.30288" lon="5.23716">
        <ele>829.7</ele>
        <time>2014-05-04T07:51:51Z</time>
      </trkpt>
      <trkpt lat="44.30292" lon="5.2371">
        <ele>830.2</ele>
        <time>2014-05-04T07:51:53Z</time>
      </trkpt>
      <trkpt lat="44.30296" lon="5.23704">
        <ele>830.7</ele>
        <time>2014-05-04T07:51:55Z</time>
      </trkpt>
      <trkpt lat="44.303" lon="5.23697">
        <ele>831.1</ele>
        <time>2014-05-04T07:51:57Z</time>
      </trkpt>
      <trkpt lat="44.30305" lon="5.23691">
        <ele>831.4</ele>
        <time>2014-05-04T07:51:59Z</time>
      </trkpt>
      <trkpt lat="44.30309" lon="5.23684">
        <ele>831.7</ele>
        <time>2014-05-04T07:52:01Z</time>
      </trkpt>
      <trkpt lat="44.30313" lon="5.23677">
        <ele>832</ele>
        <time>2014-05-04T07:52:03Z</time>
      </trkpt>
      <trkpt lat="44.30317" lon="5.23671">
        <ele>832</ele>
        <time>2014-05-04T07:52:05Z</time>
      </trkpt>
      <trkpt lat="44.30322" lon="5.23665">
        <ele>832.2</ele>
        <time>2014-05-04T07:52:07Z</time>
      </trkpt>
      <trkpt lat="44.30326" lon="5.23658">
        <ele>832.3</ele>
        <time>2014-05-04T07:52:09Z</time>
      </trkpt>
      <trkpt lat="44.3033" lon="5.23651">
        <ele>832.6</ele>
        <time>2014-05-04T07:52:11Z</time>
      </trkpt>
      <trkpt lat="44.30334" lon="5.23645">
        <ele>833.1</ele>
        <time>2014-05-04T07:52:13Z</time>
      </trkpt>
      <trkpt lat="44.30338" lon="5.23639">
        <ele>833.8</ele>
        <time>2014-05-04T07:52:15Z</time>
      </trkpt>
      <trkpt lat="44.30343" lon="5.23633">
        <ele>834.3</ele>
        <time>2014-05-04T07:52:17Z</time>
      </trkpt>
      <trkpt lat="44.30347" lon="5.23627">
        <ele>834.8</ele>
        <time>2014-05-04T07:52:19Z</time>
      </trkpt>
      <trkpt lat="44.30351" lon="5.23621">
        <ele>835.4</ele>
        <time>2014-05-04T07:52:21Z</time>
      </trkpt>
      <trkpt lat="44.30355" lon="5.23614">
        <ele>835.9</ele>
        <time>2014-05-04T07:52:23Z</time>
      </trkpt>
      <trkpt lat="44.30359" lon="5.23607">
        <ele>836.3</ele>
        <time>2014-05-04T07:52:25Z</time>
      </trkpt>
      <trkpt lat="44.30362" lon="5.236">
        <ele>836.8</ele>
        <time>2014-05-04T07:52:27Z</time>
      </trkpt>
      <trkpt lat="44.30366" lon="5.23592">
        <ele>837.2</ele>
        <time>2014-05-04T07:52:29Z</time>
      </trkpt>
      <trkpt lat="44.3037" lon="5.23586">
        <ele>837.4</ele>
        <time>2014-05-04T07:52:31Z</time>
      </trkpt>
      <trkpt lat="44.30373" lon="5.2358">
        <ele>838.1</ele>
        <time>2014-05-04T07:52:33Z</time>
      </trkpt>
      <trkpt lat="44.30377" lon="5.23575">
        <ele>838.8</ele>
        <time>2014-05-04T07:52:35Z</time>
      </trkpt>
      <trkpt lat="44.30381" lon="5.23571">
        <ele>839.2</ele>
        <time>2014-05-04T07:52:37Z</time>
      </trkpt>
      <trkpt lat="44.30391" lon="5.23565">
        <ele>839.7</ele>
        <time>2014-05-04T07:52:41Z</time>
      </trkpt>
      <trkpt lat="44.30395" lon="5.23561">
        <ele>839.8</ele>
        <time>2014-05-04T07:52:43Z</time>
      </trkpt>
      <trkpt lat="44.30399" lon="5.23558">
        <ele>840.3</ele>
        <time>2014-05-04T07:52:45Z</time>
      </trkpt>
      <trkpt lat="44.30403" lon="5.23555">
        <ele>840.5</ele>
        <time>2014-05-04T07:52:47Z</time>
      </trkpt>
      <trkpt lat="44.30407" lon="5.23551">
        <ele>841.1</ele>
        <time>2014-05-04T07:52:49Z</time>
      </trkpt>
      <trkpt lat="44.30411" lon="5.23548">
        <ele>841.7</ele>
        <time>2014-05-04T07:52:51Z</time>
      </trkpt>
      <trkpt lat="44.30416" lon="5.23545">
        <ele>841.9</ele>
        <time>2014-05-04T07:52:53Z</time>
      </trkpt>
      <trkpt lat="44.30421" lon="5.2354">
        <ele>843</ele>
        <time>2014-05-04T07:52:56Z</time>
      </trkpt>
      <trkpt lat="44.30427" lon="5.23535">
        <ele>844</ele>
        <time>2014-05-04T07:52:59Z</time>
      </trkpt>
      <trkpt lat="44.30431" lon="5.23531">
        <ele>844.7</ele>
        <time>2014-05-04T07:53:01Z</time>
      </trkpt>
      <trkpt lat="44.30435" lon="5.23527">
        <ele>845</ele>
        <time>2014-05-04T07:53:03Z</time>
      </trkpt>
      <trkpt lat="44.30439" lon="5.23524">
        <ele>845.5</ele>
        <time>2014-05-04T07:53:05Z</time>
      </trkpt>
      <trkpt lat="44.30443" lon="5.2352">
        <ele>845.9</ele>
        <time>2014-05-04T07:53:07Z</time>
      </trkpt>
      <trkpt lat="44.30447" lon="5.23517">
        <ele>846.1</ele>
        <time>2014-05-04T07:53:09Z</time>
      </trkpt>
      <trkpt lat="44.30451" lon="5.23513">
        <ele>846.1</ele>
        <time>2014-05-04T07:53:11Z</time>
      </trkpt>
      <trkpt lat="44.30455" lon="5.23509">
        <ele>846.4</ele>
        <time>2014-05-04T07:53:13Z</time>
      </trkpt>
      <trkpt lat="44.30459" lon="5.23506">
        <ele>846.3</ele>
        <time>2014-05-04T07:53:15Z</time>
      </trkpt>
      <trkpt lat="44.30463" lon="5.23503">
        <ele>846</ele>
        <time>2014-05-04T07:53:17Z</time>
      </trkpt>
      <trkpt lat="44.30468" lon="5.23499">
        <ele>846</ele>
        <time>2014-05-04T07:53:19Z</time>
      </trkpt>
      <trkpt lat="44.30472" lon="5.23495">
        <ele>846.5</ele>
        <time>2014-05-04T07:53:22Z</time>
      </trkpt>
      <trkpt lat="44.30477" lon="5.23491">
        <ele>846.7</ele>
        <time>2014-05-04T07:53:24Z</time>
      </trkpt>
      <trkpt lat="44.30481" lon="5.23486">
        <ele>846.8</ele>
        <time>2014-05-04T07:53:26Z</time>
      </trkpt>
      <trkpt lat="44.30485" lon="5.23481">
        <ele>847.3</ele>
        <time>2014-05-04T07:53:28Z</time>
      </trkpt>
      <trkpt lat="44.30489" lon="5.23476">
        <ele>847.7</ele>
        <time>2014-05-04T07:53:30Z</time>
      </trkpt>
      <trkpt lat="44.30493" lon="5.23471">
        <ele>848.1</ele>
        <time>2014-05-04T07:53:32Z</time>
      </trkpt>
      <trkpt lat="44.30498" lon="5.23464">
        <ele>848.4</ele>
        <time>2014-05-04T07:53:34Z</time>
      </trkpt>
      <trkpt lat="44.30502" lon="5.23458">
        <ele>849</ele>
        <time>2014-05-04T07:53:36Z</time>
      </trkpt>
      <trkpt lat="44.30507" lon="5.23454">
        <ele>850</ele>
        <time>2014-05-04T07:53:38Z</time>
      </trkpt>
      <trkpt lat="44.30516" lon="5.23448">
        <ele>850.9</ele>
        <time>2014-05-04T07:53:42Z</time>
      </trkpt>
      <trkpt lat="44.3052" lon="5.23445">
        <ele>851.1</ele>
        <time>2014-05-04T07:53:44Z</time>
      </trkpt>
      <trkpt lat="44.30524" lon="5.23442">
        <ele>851.2</ele>
        <time>2014-05-04T07:53:46Z</time>
      </trkpt>
      <trkpt lat="44.30528" lon="5.23438">
        <ele>851.4</ele>
        <time>2014-05-04T07:53:48Z</time>
      </trkpt>
      <trkpt lat="44.30532" lon="5.23435">
        <ele>851.4</ele>
        <time>2014-05-04T07:53:50Z</time>
      </trkpt>
      <trkpt lat="44.30537" lon="5.2343">
        <ele>851.3</ele>
        <time>2014-05-04T07:53:53Z</time>
      </trkpt>
      <trkpt lat="44.30542" lon="5.23425">
        <ele>851.1</ele>
        <time>2014-05-04T07:53:56Z</time>
      </trkpt>
      <trkpt lat="44.30547" lon="5.23419">
        <ele>850.7</ele>
        <time>2014-05-04T07:53:59Z</time>
      </trkpt>
      <trkpt lat="44.30552" lon="5.23413">
        <ele>850.7</ele>
        <time>2014-05-04T07:54:02Z</time>
      </trkpt>
      <trkpt lat="44.30556" lon="5.23409">
        <ele>850.9</ele>
        <time>2014-05-04T07:54:04Z</time>
      </trkpt>
      <trkpt lat="44.30559" lon="5.23405">
        <ele>851.1</ele>
        <time>2014-05-04T07:54:06Z</time>
      </trkpt>
      <trkpt lat="44.30564" lon="5.23399">
        <ele>851</ele>
        <time>2014-05-04T07:54:09Z</time>
      </trkpt>
      <trkpt lat="44.30568" lon="5.23394">
        <ele>851</ele>
        <time>2014-05-04T07:54:11Z</time>
      </trkpt>
      <trkpt lat="44.30572" lon="5.23389">
        <ele>850.8</ele>
        <time>2014-05-04T07:54:13Z</time>
      </trkpt>
      <trkpt lat="44.30576" lon="5.23385">
        <ele>850.6</ele>
        <time>2014-05-04T07:54:15Z</time>
      </trkpt>
      <trkpt lat="44.3058" lon="5.23381">
        <ele>850.1</ele>
        <time>2014-05-04T07:54:17Z</time>
      </trkpt>
      <trkpt lat="44.30584" lon="5.23376">
        <ele>850.2</ele>
        <time>2014-05-04T07:54:19Z</time>
      </trkpt>
      <trkpt lat="44.30588" lon="5.23372">
        <ele>851.4</ele>
        <time>2014-05-04T07:54:21Z</time>
      </trkpt>
      <trkpt lat="44.30592" lon="5.23368">
        <ele>852.6</ele>
        <time>2014-05-04T07:54:23Z</time>
      </trkpt>
      <trkpt lat="44.30596" lon="5.23364">
        <ele>853.7</ele>
        <time>2014-05-04T07:54:25Z</time>
      </trkpt>
      <trkpt lat="44.306" lon="5.23359">
        <ele>854.7</ele>
        <time>2014-05-04T07:54:27Z</time>
      </trkpt>
      <trkpt lat="44.30603" lon="5.23354">
        <ele>855.6</ele>
        <time>2014-05-04T07:54:29Z</time>
      </trkpt>
      <trkpt lat="44.30606" lon="5.23349">
        <ele>856.4</ele>
        <time>2014-05-04T07:54:31Z</time>
      </trkpt>
      <trkpt lat="44.30609" lon="5.23343">
        <ele>857.1</ele>
        <time>2014-05-04T07:54:33Z</time>
      </trkpt>
      <trkpt lat="44.30612" lon="5.23338">
        <ele>857.7</ele>
        <time>2014-05-04T07:54:35Z</time>
      </trkpt>
      <trkpt lat="44.30615" lon="5.23332">
        <ele>858.4</ele>
        <time>2014-05-04T07:54:37Z</time>
      </trkpt>
      <trkpt lat="44.30618" lon="5.23327">
        <ele>859.6</ele>
        <time>2014-05-04T07:54:39Z</time>
      </trkpt>
      <trkpt lat="44.30625" lon="5.23313">
        <ele>862.3</ele>
        <time>2014-05-04T07:54:45Z</time>
      </trkpt>
      <trkpt lat="44.30628" lon="5.23307">
        <ele>863.3</ele>
        <time>2014-05-04T07:54:48Z</time>
      </trkpt>
      <trkpt lat="44.30632" lon="5.23302">
        <ele>864</ele>
        <time>2014-05-04T07:54:51Z</time>
      </trkpt>
      <trkpt lat="44.30635" lon="5.23295">
        <ele>864.7</ele>
        <time>2014-05-04T07:54:54Z</time>
      </trkpt>
      <trkpt lat="44.30639" lon="5.23289">
        <ele>865.3</ele>
        <time>2014-05-04T07:54:57Z</time>
      </trkpt>
      <trkpt lat="44.30642" lon="5.23283">
        <ele>865.7</ele>
        <time>2014-05-04T07:55:00Z</time>
      </trkpt>
      <trkpt lat="44.30646" lon="5.23277">
        <ele>866</ele>
        <time>2014-05-04T07:55:03Z</time>
      </trkpt>
      <trkpt lat="44.3065" lon="5.23272">
        <ele>866.1</ele>
        <time>2014-05-04T07:55:06Z</time>
      </trkpt>
      <trkpt lat="44.30653" lon="5.23266">
        <ele>866.1</ele>
        <time>2014-05-04T07:55:09Z</time>
      </trkpt>
      <trkpt lat="44.30656" lon="5.2326">
        <ele>866.1</ele>
        <time>2014-05-04T07:55:12Z</time>
      </trkpt>
      <trkpt lat="44.30659" lon="5.23253">
        <ele>866</ele>
        <time>2014-05-04T07:55:15Z</time>
      </trkpt>
      <trkpt lat="44.30661" lon="5.23247">
        <ele>866</ele>
        <time>2014-05-04T07:55:18Z</time>
      </trkpt>
      <trkpt lat="44.30665" lon="5.23239">
        <ele>866.1</ele>
        <time>2014-05-04T07:55:21Z</time>
      </trkpt>
      <trkpt lat="44.30668" lon="5.23232">
        <ele>866.7</ele>
        <time>2014-05-04T07:55:24Z</time>
      </trkpt>
      <trkpt lat="44.30671" lon="5.23225">
        <ele>868.1</ele>
        <time>2014-05-04T07:55:27Z</time>
      </trkpt>
      <trkpt lat="44.30674" lon="5.23219">
        <ele>869.1</ele>
        <time>2014-05-04T07:55:29Z</time>
      </trkpt>
      <trkpt lat="44.30678" lon="5.23214">
        <ele>870.2</ele>
        <time>2014-05-04T07:55:31Z</time>
      </trkpt>
      <trkpt lat="44.30681" lon="5.23209">
        <ele>871.3</ele>
        <time>2014-05-04T07:55:33Z</time>
      </trkpt>
      <trkpt lat="44.30685" lon="5.23203">
        <ele>872.6</ele>
        <time>2014-05-04T07:55:36Z</time>
      </trkpt>
      <trkpt lat="44.3069" lon="5.23195">
        <ele>873.6</ele>
        <time>2014-05-04T07:55:39Z</time>
      </trkpt>
      <trkpt lat="44.30693" lon="5.2319">
        <ele>874.4</ele>
        <time>2014-05-04T07:55:41Z</time>
      </trkpt>
      <trkpt lat="44.30698" lon="5.2318">
        <ele>875.8</ele>
        <time>2014-05-04T07:55:45Z</time>
      </trkpt>
      <trkpt lat="44.30702" lon="5.23172">
        <ele>876.4</ele>
        <time>2014-05-04T07:55:48Z</time>
      </trkpt>
      <trkpt lat="44.30704" lon="5.23167">
        <ele>876.9</ele>
        <time>2014-05-04T07:55:50Z</time>
      </trkpt>
      <trkpt lat="44.30707" lon="5.23161">
        <ele>877.6</ele>
        <time>2014-05-04T07:55:52Z</time>
      </trkpt>
      <trkpt lat="44.30709" lon="5.23156">
        <ele>878.2</ele>
        <time>2014-05-04T07:55:54Z</time>
      </trkpt>
      <trkpt lat="44.30712" lon="5.2315">
        <ele>878.8</ele>
        <time>2014-05-04T07:55:56Z</time>
      </trkpt>
      <trkpt lat="44.30714" lon="5.23145">
        <ele>879.3</ele>
        <time>2014-05-04T07:55:58Z</time>
      </trkpt>
      <trkpt lat="44.30718" lon="5.23137">
        <ele>879.8</ele>
        <time>2014-05-04T07:56:01Z</time>
      </trkpt>
      <trkpt lat="44.30722" lon="5.2313">
        <ele>880.2</ele>
        <time>2014-05-04T07:56:04Z</time>
      </trkpt>
      <trkpt lat="44.30725" lon="5.23125">
        <ele>880.5</ele>
        <time>2014-05-04T07:56:06Z</time>
      </trkpt>
      <trkpt lat="44.3073" lon="5.23119">
        <ele>880.6</ele>
        <time>2014-05-04T07:56:09Z</time>
      </trkpt>
      <trkpt lat="44.30734" lon="5.23112">
        <ele>880.6</ele>
        <time>2014-05-04T07:56:12Z</time>
      </trkpt>
      <trkpt lat="44.30737" lon="5.23107">
        <ele>880.5</ele>
        <time>2014-05-04T07:56:14Z</time>
      </trkpt>
      <trkpt lat="44.3074" lon="5.23102">
        <ele>880.3</ele>
        <time>2014-05-04T07:56:16Z</time>
      </trkpt>
      <trkpt lat="44.30743" lon="5.23097">
        <ele>880</ele>
        <time>2014-05-04T07:56:18Z</time>
      </trkpt>
      <trkpt lat="44.30745" lon="5.23092">
        <ele>879.7</ele>
        <time>2014-05-04T07:56:20Z</time>
      </trkpt>
      <trkpt lat="44.30749" lon="5.23084">
        <ele>879</ele>
        <time>2014-05-04T07:56:23Z</time>
      </trkpt>
      <trkpt lat="44.30752" lon="5.23079">
        <ele>879.7</ele>
        <time>2014-05-04T07:56:25Z</time>
      </trkpt>
      <trkpt lat="44.30756" lon="5.23072">
        <ele>881</ele>
        <time>2014-05-04T07:56:28Z</time>
      </trkpt>
      <trkpt lat="44.3076" lon="5.23067">
        <ele>881.9</ele>
        <time>2014-05-04T07:56:30Z</time>
      </trkpt>
      <trkpt lat="44.30763" lon="5.23062">
        <ele>882.8</ele>
        <time>2014-05-04T07:56:32Z</time>
      </trkpt>
      <trkpt lat="44.30766" lon="5.23058">
        <ele>883.5</ele>
        <time>2014-05-04T07:56:34Z</time>
      </trkpt>
      <trkpt lat="44.30771" lon="5.23052">
        <ele>884.5</ele>
        <time>2014-05-04T07:56:37Z</time>
      </trkpt>
      <trkpt lat="44.30775" lon="5.23044">
        <ele>885.4</ele>
        <time>2014-05-04T07:56:40Z</time>
      </trkpt>
      <trkpt lat="44.30779" lon="5.23038">
        <ele>886.2</ele>
        <time>2014-05-04T07:56:43Z</time>
      </trkpt>
      <trkpt lat="44.30786" lon="5.23025">
        <ele>887.2</ele>
        <time>2014-05-04T07:56:48Z</time>
      </trkpt>
      <trkpt lat="44.30789" lon="5.23018">
        <ele>887.6</ele>
        <time>2014-05-04T07:56:51Z</time>
      </trkpt>
      <trkpt lat="44.30794" lon="5.23012">
        <ele>888.1</ele>
        <time>2014-05-04T07:56:54Z</time>
      </trkpt>
      <trkpt lat="44.30798" lon="5.23005">
        <ele>888.5</ele>
        <time>2014-05-04T07:56:57Z</time>
      </trkpt>
      <trkpt lat="44.30802" lon="5.22997">
        <ele>888.9</ele>
        <time>2014-05-04T07:57:00Z</time>
      </trkpt>
      <trkpt lat="44.30805" lon="5.22989">
        <ele>889.7</ele>
        <time>2014-05-04T07:57:03Z</time>
      </trkpt>
      <trkpt lat="44.30808" lon="5.22981">
        <ele>890.4</ele>
        <time>2014-05-04T07:57:06Z</time>
      </trkpt>
      <trkpt lat="44.30811" lon="5.22973">
        <ele>891</ele>
        <time>2014-05-04T07:57:09Z</time>
      </trkpt>
      <trkpt lat="44.30814" lon="5.22965">
        <ele>891.5</ele>
        <time>2014-05-04T07:57:12Z</time>
      </trkpt>
      <trkpt lat="44.30816" lon="5.22957">
        <ele>892</ele>
        <time>2014-05-04T07:57:15Z</time>
      </trkpt>
      <trkpt lat="44.30819" lon="5.2295">
        <ele>892.4</ele>
        <time>2014-05-04T07:57:18Z</time>
      </trkpt>
      <trkpt lat="44.30821" lon="5.22942">
        <ele>892.8</ele>
        <time>2014-05-04T07:57:21Z</time>
      </trkpt>
      <trkpt lat="44.30824" lon="5.22934">
        <ele>893.2</ele>
        <time>2014-05-04T07:57:24Z</time>
      </trkpt>
      <trkpt lat="44.30826" lon="5.22927">
        <ele>893.5</ele>
        <time>2014-05-04T07:57:27Z</time>
      </trkpt>
      <trkpt lat="44.30829" lon="5.22919">
        <ele>893.8</ele>
        <time>2014-05-04T07:57:30Z</time>
      </trkpt>
      <trkpt lat="44.30831" lon="5.22911">
        <ele>894.1</ele>
        <time>2014-05-04T07:57:33Z</time>
      </trkpt>
      <trkpt lat="44.30834" lon="5.22903">
        <ele>894.4</ele>
        <time>2014-05-04T07:57:36Z</time>
      </trkpt>
      <trkpt lat="44.30836" lon="5.22896">
        <ele>895.1</ele>
        <time>2014-05-04T07:57:39Z</time>
      </trkpt>
      <trkpt lat="44.30838" lon="5.22888">
        <ele>895.7</ele>
        <time>2014-05-04T07:57:42Z</time>
      </trkpt>
      <trkpt lat="44.30839" lon="5.22881">
        <ele>896</ele>
        <time>2014-05-04T07:57:44Z</time>
      </trkpt>
      <trkpt lat="44.30841" lon="5.22867">
        <ele>896.6</ele>
        <time>2014-05-04T07:57:48Z</time>
      </trkpt>
      <trkpt lat="44.30842" lon="5.2286">
        <ele>896.9</ele>
        <time>2014-05-04T07:57:50Z</time>
      </trkpt>
      <trkpt lat="44.30843" lon="5.22853">
        <ele>897.2</ele>
        <time>2014-05-04T07:57:52Z</time>
      </trkpt>
      <trkpt lat="44.30844" lon="5.22845">
        <ele>897.5</ele>
        <time>2014-05-04T07:57:54Z</time>
      </trkpt>
      <trkpt lat="44.30846" lon="5.22838">
        <ele>897.9</ele>
        <time>2014-05-04T07:57:56Z</time>
      </trkpt>
      <trkpt lat="44.30847" lon="5.22831">
        <ele>898.1</ele>
        <time>2014-05-04T07:57:58Z</time>
      </trkpt>
      <trkpt lat="44.30849" lon="5.22823">
        <ele>898</ele>
        <time>2014-05-04T07:58:00Z</time>
      </trkpt>
      <trkpt lat="44.3085" lon="5.22816">
        <ele>897.9</ele>
        <time>2014-05-04T07:58:02Z</time>
      </trkpt>
      <trkpt lat="44.30851" lon="5.22809">
        <ele>897.8</ele>
        <time>2014-05-04T07:58:04Z</time>
      </trkpt>
      <trkpt lat="44.30852" lon="5.22803">
        <ele>897.8</ele>
        <time>2014-05-04T07:58:06Z</time>
      </trkpt>
      <trkpt lat="44.30854" lon="5.22797">
        <ele>897.9</ele>
        <time>2014-05-04T07:58:08Z</time>
      </trkpt>
      <trkpt lat="44.30856" lon="5.2279">
        <ele>897.9</ele>
        <time>2014-05-04T07:58:10Z</time>
      </trkpt>
      <trkpt lat="44.30857" lon="5.22784">
        <ele>898</ele>
        <time>2014-05-04T07:58:12Z</time>
      </trkpt>
      <trkpt lat="44.30859" lon="5.22778">
        <ele>898.2</ele>
        <time>2014-05-04T07:58:14Z</time>
      </trkpt>
      <trkpt lat="44.30864" lon="5.22772">
        <ele>898.8</ele>
        <time>2014-05-04T07:58:17Z</time>
      </trkpt>
      <trkpt lat="44.30868" lon="5.22765">
        <ele>899.4</ele>
        <time>2014-05-04T07:58:20Z</time>
      </trkpt>
      <trkpt lat="44.30871" lon="5.22759">
        <ele>899.8</ele>
        <time>2014-05-04T07:58:23Z</time>
      </trkpt>
      <trkpt lat="44.30874" lon="5.22752">
        <ele>900.3</ele>
        <time>2014-05-04T07:58:26Z</time>
      </trkpt>
      <trkpt lat="44.30875" lon="5.22744">
        <ele>900</ele>
        <time>2014-05-04T07:58:29Z</time>
      </trkpt>
      <trkpt lat="44.30875" lon="5.22738">
        <ele>899.8</ele>
        <time>2014-05-04T07:58:32Z</time>
      </trkpt>
      <trkpt lat="44.3088" lon="5.22735">
        <ele>900.6</ele>
        <time>2014-05-04T07:58:43Z</time>
      </trkpt>
      <trkpt lat="44.30883" lon="5.2274">
        <ele>901.4</ele>
        <time>2014-05-04T07:58:47Z</time>
      </trkpt>
      <trkpt lat="44.30899" lon="5.22744">
        <ele>905</ele>
        <time>2014-05-04T08:00:37Z</time>
      </trkpt>
      <trkpt lat="44.30904" lon="5.22746">
        <ele>906.2</ele>
        <time>2014-05-04T08:00:40Z</time>
      </trkpt>
      <trkpt lat="44.30909" lon="5.22747">
        <ele>907.2</ele>
        <time>2014-05-04T08:00:43Z</time>
      </trkpt>
      <trkpt lat="44.30912" lon="5.22741">
        <ele>907.5</ele>
        <time>2014-05-04T08:00:46Z</time>
      </trkpt>
      <trkpt lat="44.30913" lon="5.22734">
        <ele>907.3</ele>
        <time>2014-05-04T08:00:48Z</time>
      </trkpt>
      <trkpt lat="44.30918" lon="5.22729">
        <ele>908</ele>
        <time>2014-05-04T08:00:50Z</time>
      </trkpt>
      <trkpt lat="44.30923" lon="5.22728">
        <ele>908.6</ele>
        <time>2014-05-04T08:00:52Z</time>
      </trkpt>
      <trkpt lat="44.30927" lon="5.22726">
        <ele>909.2</ele>
        <time>2014-05-04T08:00:54Z</time>
      </trkpt>
      <trkpt lat="44.30932" lon="5.22724">
        <ele>909.8</ele>
        <time>2014-05-04T08:00:56Z</time>
      </trkpt>
      <trkpt lat="44.30938" lon="5.22722">
        <ele>910.7</ele>
        <time>2014-05-04T08:00:59Z</time>
      </trkpt>
      <trkpt lat="44.30944" lon="5.22719">
        <ele>911.5</ele>
        <time>2014-05-04T08:01:02Z</time>
      </trkpt>
      <trkpt lat="44.30949" lon="5.22716">
        <ele>912.2</ele>
        <time>2014-05-04T08:01:05Z</time>
      </trkpt>
      <trkpt lat="44.30954" lon="5.22711">
        <ele>912.6</ele>
        <time>2014-05-04T08:01:08Z</time>
      </trkpt>
      <trkpt lat="44.30959" lon="5.22706">
        <ele>913.2</ele>
        <time>2014-05-04T08:01:11Z</time>
      </trkpt>
      <trkpt lat="44.30963" lon="5.22703">
        <ele>913.7</ele>
        <time>2014-05-04T08:01:14Z</time>
      </trkpt>
      <trkpt lat="44.30967" lon="5.22698">
        <ele>914.1</ele>
        <time>2014-05-04T08:01:17Z</time>
      </trkpt>
      <trkpt lat="44.3097" lon="5.22692">
        <ele>914.3</ele>
        <time>2014-05-04T08:01:20Z</time>
      </trkpt>
      <trkpt lat="44.30973" lon="5.22686">
        <ele>914.4</ele>
        <time>2014-05-04T08:01:23Z</time>
      </trkpt>
      <trkpt lat="44.30976" lon="5.2268">
        <ele>914.6</ele>
        <time>2014-05-04T08:01:26Z</time>
      </trkpt>
      <trkpt lat="44.30978" lon="5.22674">
        <ele>914.7</ele>
        <time>2014-05-04T08:01:30Z</time>
      </trkpt>
      <trkpt lat="44.30981" lon="5.22668">
        <ele>914.8</ele>
        <time>2014-05-04T08:01:34Z</time>
      </trkpt>
      <trkpt lat="44.30989" lon="5.22659">
        <ele>914.7</ele>
        <time>2014-05-04T08:01:42Z</time>
      </trkpt>
      <trkpt lat="44.30993" lon="5.22656">
        <ele>914.8</ele>
        <time>2014-05-04T08:01:46Z</time>
      </trkpt>
      <trkpt lat="44.30997" lon="5.22652">
        <ele>914.9</ele>
        <time>2014-05-04T08:01:51Z</time>
      </trkpt>
      <trkpt lat="44.31001" lon="5.22647">
        <ele>914.5</ele>
        <time>2014-05-04T08:01:56Z</time>
      </trkpt>
      <trkpt lat="44.31006" lon="5.22645">
        <ele>914.3</ele>
        <time>2014-05-04T08:02:00Z</time>
      </trkpt>
      <trkpt lat="44.31011" lon="5.22642">
        <ele>913.8</ele>
        <time>2014-05-04T08:02:04Z</time>
      </trkpt>
      <trkpt lat="44.31016" lon="5.22639">
        <ele>913.6</ele>
        <time>2014-05-04T08:02:09Z</time>
      </trkpt>
      <trkpt lat="44.31021" lon="5.22637">
        <ele>913.6</ele>
        <time>2014-05-04T08:02:13Z</time>
      </trkpt>
      <trkpt lat="44.31026" lon="5.22635">
        <ele>913.6</ele>
        <time>2014-05-04T08:02:17Z</time>
      </trkpt>
      <trkpt lat="44.31031" lon="5.22634">
        <ele>913.7</ele>
        <time>2014-05-04T08:02:21Z</time>
      </trkpt>
      <trkpt lat="44.31036" lon="5.22633">
        <ele>913.7</ele>
        <time>2014-05-04T08:02:25Z</time>
      </trkpt>
      <trkpt lat="44.3104" lon="5.22631">
        <ele>913.6</ele>
        <time>2014-05-04T08:02:29Z</time>
      </trkpt>
      <trkpt lat="44.31045" lon="5.22629">
        <ele>913.7</ele>
        <time>2014-05-04T08:02:33Z</time>
      </trkpt>
      <trkpt lat="44.3105" lon="5.22627">
        <ele>913.6</ele>
        <time>2014-05-04T08:02:37Z</time>
      </trkpt>
      <trkpt lat="44.3106" lon="5.22627">
        <ele>914.2</ele>
        <time>2014-05-04T08:02:45Z</time>
      </trkpt>
      <trkpt lat="44.31065" lon="5.22626">
        <ele>914.4</ele>
        <time>2014-05-04T08:02:49Z</time>
      </trkpt>
      <trkpt lat="44.3107" lon="5.22625">
        <ele>914.7</ele>
        <time>2014-05-04T08:02:53Z</time>
      </trkpt>
      <trkpt lat="44.31076" lon="5.22623">
        <ele>914.8</ele>
        <time>2014-05-04T08:02:57Z</time>
      </trkpt>
      <trkpt lat="44.31081" lon="5.22622">
        <ele>915</ele>
        <time>2014-05-04T08:03:01Z</time>
      </trkpt>
      <trkpt lat="44.31085" lon="5.22622">
        <ele>914.9</ele>
        <time>2014-05-04T08:03:05Z</time>
      </trkpt>
      <trkpt lat="44.3109" lon="5.22621">
        <ele>914.3</ele>
        <time>2014-05-04T08:03:09Z</time>
      </trkpt>
      <trkpt lat="44.31095" lon="5.2262">
        <ele>913.7</ele>
        <time>2014-05-04T08:03:12Z</time>
      </trkpt>
      <trkpt lat="44.311" lon="5.22619">
        <ele>912.9</ele>
        <time>2014-05-04T08:03:15Z</time>
      </trkpt>
      <trkpt lat="44.31106" lon="5.22618">
        <ele>912.2</ele>
        <time>2014-05-04T08:03:17Z</time>
      </trkpt>
      <trkpt lat="44.31112" lon="5.22618">
        <ele>911.3</ele>
        <time>2014-05-04T08:03:19Z</time>
      </trkpt>
      <trkpt lat="44.31119" lon="5.22617">
        <ele>910.3</ele>
        <time>2014-05-04T08:03:21Z</time>
      </trkpt>
      <trkpt lat="44.31125" lon="5.22616">
        <ele>909.5</ele>
        <time>2014-05-04T08:03:23Z</time>
      </trkpt>
      <trkpt lat="44.31132" lon="5.22615">
        <ele>908.7</ele>
        <time>2014-05-04T08:03:25Z</time>
      </trkpt>
      <trkpt lat="44.31138" lon="5.22616">
        <ele>907.9</ele>
        <time>2014-05-04T08:03:27Z</time>
      </trkpt>
      <trkpt lat="44.31144" lon="5.22618">
        <ele>907.4</ele>
        <time>2014-05-04T08:03:29Z</time>
      </trkpt>
      <trkpt lat="44.3115" lon="5.22621">
        <ele>907</ele>
        <time>2014-05-04T08:03:31Z</time>
      </trkpt>
      <trkpt lat="44.31155" lon="5.22624">
        <ele>906.7</ele>
        <time>2014-05-04T08:03:33Z</time>
      </trkpt>
      <trkpt lat="44.31161" lon="5.22628">
        <ele>906.4</ele>
        <time>2014-05-04T08:03:35Z</time>
      </trkpt>
      <trkpt lat="44.31167" lon="5.22632">
        <ele>906.2</ele>
        <time>2014-05-04T08:03:37Z</time>
      </trkpt>
      <trkpt lat="44.31171" lon="5.22638">
        <ele>906.2</ele>
        <time>2014-05-04T08:03:39Z</time>
      </trkpt>
      <trkpt lat="44.31179" lon="5.22649">
        <ele>906.4</ele>
        <time>2014-05-04T08:03:43Z</time>
      </trkpt>
      <trkpt lat="44.31183" lon="5.22655">
        <ele>906.5</ele>
        <time>2014-05-04T08:03:45Z</time>
      </trkpt>
      <trkpt lat="44.31186" lon="5.22661">
        <ele>906.6</ele>
        <time>2014-05-04T08:03:47Z</time>
      </trkpt>
      <trkpt lat="44.3119" lon="5.22667">
        <ele>906.7</ele>
        <time>2014-05-04T08:03:49Z</time>
      </trkpt>
      <trkpt lat="44.31193" lon="5.22672">
        <ele>906.4</ele>
        <time>2014-05-04T08:03:51Z</time>
      </trkpt>
      <trkpt lat="44.31196" lon="5.22677">
        <ele>906.3</ele>
        <time>2014-05-04T08:03:53Z</time>
      </trkpt>
      <trkpt lat="44.312" lon="5.22684">
        <ele>906.1</ele>
        <time>2014-05-04T08:03:56Z</time>
      </trkpt>
      <trkpt lat="44.31203" lon="5.22692">
        <ele>905.9</ele>
        <time>2014-05-04T08:03:59Z</time>
      </trkpt>
      <trkpt lat="44.31206" lon="5.22699">
        <ele>905.7</ele>
        <time>2014-05-04T08:04:02Z</time>
      </trkpt>
      <trkpt lat="44.31209" lon="5.22706">
        <ele>905.6</ele>
        <time>2014-05-04T08:04:05Z</time>
      </trkpt>
      <trkpt lat="44.31209" lon="5.22714">
        <ele>905.8</ele>
        <time>2014-05-04T08:04:08Z</time>
      </trkpt>
      <trkpt lat="44.3121" lon="5.22722">
        <ele>905.9</ele>
        <time>2014-05-04T08:04:11Z</time>
      </trkpt>
      <trkpt lat="44.31211" lon="5.22728">
        <ele>906.1</ele>
        <time>2014-05-04T08:04:14Z</time>
      </trkpt>
      <trkpt lat="44.3121" lon="5.22736">
        <ele>906.4</ele>
        <time>2014-05-04T08:04:18Z</time>
      </trkpt>
      <trkpt lat="44.3121" lon="5.22743">
        <ele>906.7</ele>
        <time>2014-05-04T08:04:22Z</time>
      </trkpt>
      <trkpt lat="44.3121" lon="5.22751">
        <ele>907.2</ele>
        <time>2014-05-04T08:04:26Z</time>
      </trkpt>
      <trkpt lat="44.31209" lon="5.22757">
        <ele>907.4</ele>
        <time>2014-05-04T08:04:30Z</time>
      </trkpt>
      <trkpt lat="44.31207" lon="5.22764">
        <ele>907.7</ele>
        <time>2014-05-04T08:04:35Z</time>
      </trkpt>
      <trkpt lat="44.31204" lon="5.2277">
        <ele>908.5</ele>
        <time>2014-05-04T08:04:39Z</time>
      </trkpt>
      <trkpt lat="44.31201" lon="5.22775">
        <ele>909.5</ele>
        <time>2014-05-04T08:04:42Z</time>
      </trkpt>
      <trkpt lat="44.31196" lon="5.22788">
        <ele>910.9</ele>
        <time>2014-05-04T08:04:51Z</time>
      </trkpt>
      <trkpt lat="44.31194" lon="5.22794">
        <ele>911.5</ele>
        <time>2014-05-04T08:04:55Z</time>
      </trkpt>
      <trkpt lat="44.31193" lon="5.22802">
        <ele>911.8</ele>
        <time>2014-05-04T08:05:00Z</time>
      </trkpt>
      <trkpt lat="44.31193" lon="5.22809">
        <ele>911.9</ele>
        <time>2014-05-04T08:05:05Z</time>
      </trkpt>
      <trkpt lat="44.31192" lon="5.22815">
        <ele>912.3</ele>
        <time>2014-05-04T08:05:10Z</time>
      </trkpt>
      <trkpt lat="44.31192" lon="5.22824">
        <ele>912.4</ele>
        <time>2014-05-04T08:05:14Z</time>
      </trkpt>
      <trkpt lat="44.31192" lon="5.22831">
        <ele>912.6</ele>
        <time>2014-05-04T08:05:19Z</time>
      </trkpt>
      <trkpt lat="44.31191" lon="5.22838">
        <ele>913.1</ele>
        <time>2014-05-04T08:05:24Z</time>
      </trkpt>
      <trkpt lat="44.31191" lon="5.22845">
        <ele>913.6</ele>
        <time>2014-05-04T08:05:28Z</time>
      </trkpt>
      <trkpt lat="44.3119" lon="5.22852">
        <ele>914.5</ele>
        <time>2014-05-04T08:05:33Z</time>
      </trkpt>
      <trkpt lat="44.3119" lon="5.22858">
        <ele>915.1</ele>
        <time>2014-05-04T08:05:37Z</time>
      </trkpt>
      <trkpt lat="44.3119" lon="5.22865">
        <ele>915.7</ele>
        <time>2014-05-04T08:05:41Z</time>
      </trkpt>
      <trkpt lat="44.31188" lon="5.22872">
        <ele>916.6</ele>
        <time>2014-05-04T08:05:46Z</time>
      </trkpt>
      <trkpt lat="44.31184" lon="5.22886">
        <ele>918.7</ele>
        <time>2014-05-04T08:05:54Z</time>
      </trkpt>
      <trkpt lat="44.31183" lon="5.22892">
        <ele>919.5</ele>
        <time>2014-05-04T08:05:58Z</time>
      </trkpt>
      <trkpt lat="44.31181" lon="5.22899">
        <ele>920.3</ele>
        <time>2014-05-04T08:06:02Z</time>
      </trkpt>
      <trkpt lat="44.31179" lon="5.22905">
        <ele>921.1</ele>
        <time>2014-05-04T08:06:06Z</time>
      </trkpt>
      <trkpt lat="44.31176" lon="5.22911">
        <ele>922.4</ele>
        <time>2014-05-04T08:06:10Z</time>
      </trkpt>
      <trkpt lat="44.31173" lon="5.22916">
        <ele>923.4</ele>
        <time>2014-05-04T08:06:14Z</time>
      </trkpt>
      <trkpt lat="44.3117" lon="5.22923">
        <ele>925.4</ele>
        <time>2014-05-04T08:06:18Z</time>
      </trkpt>
      <trkpt lat="44.31167" lon="5.22928">
        <ele>927.4</ele>
        <time>2014-05-04T08:06:22Z</time>
      </trkpt>
      <trkpt lat="44.31165" lon="5.22936">
        <ele>929.2</ele>
        <time>2014-05-04T08:06:26Z</time>
      </trkpt>
      <trkpt lat="44.31166" lon="5.22943">
        <ele>930.8</ele>
        <time>2014-05-04T08:06:30Z</time>
      </trkpt>
      <trkpt lat="44.31167" lon="5.22949">
        <ele>931.9</ele>
        <time>2014-05-04T08:06:33Z</time>
      </trkpt>
      <trkpt lat="44.3117" lon="5.22955">
        <ele>932.5</ele>
        <time>2014-05-04T08:06:36Z</time>
      </trkpt>
      <trkpt lat="44.31173" lon="5.2296">
        <ele>933.1</ele>
        <time>2014-05-04T08:06:39Z</time>
      </trkpt>
      <trkpt lat="44.31176" lon="5.22965">
        <ele>933.8</ele>
        <time>2014-05-04T08:06:42Z</time>
      </trkpt>
      <trkpt lat="44.31179" lon="5.22969">
        <ele>934.1</ele>
        <time>2014-05-04T08:06:45Z</time>
      </trkpt>
      <trkpt lat="44.31184" lon="5.22974">
        <ele>934.5</ele>
        <time>2014-05-04T08:06:49Z</time>
      </trkpt>
      <trkpt lat="44.31193" lon="5.2298">
        <ele>934.3</ele>
        <time>2014-05-04T08:06:55Z</time>
      </trkpt>
      <trkpt lat="44.31198" lon="5.22984">
        <ele>934.6</ele>
        <time>2014-05-04T08:06:58Z</time>
      </trkpt>
      <trkpt lat="44.31202" lon="5.22986">
        <ele>934.6</ele>
        <time>2014-05-04T08:07:01Z</time>
      </trkpt>
      <trkpt lat="44.31207" lon="5.2299">
        <ele>934.9</ele>
        <time>2014-05-04T08:07:04Z</time>
      </trkpt>
      <trkpt lat="44.31211" lon="5.22993">
        <ele>935.4</ele>
        <time>2014-05-04T08:07:07Z</time>
      </trkpt>
      <trkpt lat="44.31215" lon="5.22997">
        <ele>935.6</ele>
        <time>2014-05-04T08:07:10Z</time>
      </trkpt>
      <trkpt lat="44.31218" lon="5.23002">
        <ele>936.6</ele>
        <time>2014-05-04T08:07:13Z</time>
      </trkpt>
      <trkpt lat="44.31222" lon="5.23008">
        <ele>938</ele>
        <time>2014-05-04T08:07:16Z</time>
      </trkpt>
      <trkpt lat="44.31225" lon="5.23014">
        <ele>939.9</ele>
        <time>2014-05-04T08:07:19Z</time>
      </trkpt>
      <trkpt lat="44.31229" lon="5.23019">
        <ele>941.2</ele>
        <time>2014-05-04T08:07:22Z</time>
      </trkpt>
      <trkpt lat="44.31234" lon="5.23024">
        <ele>942.4</ele>
        <time>2014-05-04T08:07:25Z</time>
      </trkpt>
      <trkpt lat="44.31239" lon="5.23029">
        <ele>943.4</ele>
        <time>2014-05-04T08:07:28Z</time>
      </trkpt>
      <trkpt lat="44.31245" lon="5.23033">
        <ele>943.8</ele>
        <time>2014-05-04T08:07:31Z</time>
      </trkpt>
      <trkpt lat="44.3125" lon="5.23035">
        <ele>943.8</ele>
        <time>2014-05-04T08:07:34Z</time>
      </trkpt>
      <trkpt lat="44.31255" lon="5.23039">
        <ele>943.6</ele>
        <time>2014-05-04T08:07:37Z</time>
      </trkpt>
      <trkpt lat="44.31259" lon="5.23043">
        <ele>943.9</ele>
        <time>2014-05-04T08:07:40Z</time>
      </trkpt>
      <trkpt lat="44.31264" lon="5.23046">
        <ele>944.1</ele>
        <time>2014-05-04T08:07:43Z</time>
      </trkpt>
      <trkpt lat="44.31269" lon="5.2305">
        <ele>944.4</ele>
        <time>2014-05-04T08:07:46Z</time>
      </trkpt>
      <trkpt lat="44.31273" lon="5.23053">
        <ele>944.6</ele>
        <time>2014-05-04T08:07:49Z</time>
      </trkpt>
      <trkpt lat="44.31277" lon="5.23057">
        <ele>944.5</ele>
        <time>2014-05-04T08:07:52Z</time>
      </trkpt>
      <trkpt lat="44.31285" lon="5.23064">
        <ele>945.3</ele>
        <time>2014-05-04T08:07:58Z</time>
      </trkpt>
      <trkpt lat="44.3129" lon="5.23068">
        <ele>945.4</ele>
        <time>2014-05-04T08:08:02Z</time>
      </trkpt>
      <trkpt lat="44.31294" lon="5.23072">
        <ele>945.7</ele>
        <time>2014-05-04T08:08:05Z</time>
      </trkpt>
      <trkpt lat="44.31298" lon="5.23075">
        <ele>945.6</ele>
        <time>2014-05-04T08:08:08Z</time>
      </trkpt>
      <trkpt lat="44.31302" lon="5.23077">
        <ele>945.4</ele>
        <time>2014-05-04T08:08:11Z</time>
      </trkpt>
      <trkpt lat="44.31308" lon="5.23079">
        <ele>944.5</ele>
        <time>2014-05-04T08:08:15Z</time>
      </trkpt>
      <trkpt lat="44.31312" lon="5.2308">
        <ele>943.8</ele>
        <time>2014-05-04T08:08:19Z</time>
      </trkpt>
      <trkpt lat="44.31317" lon="5.23082">
        <ele>943.1</ele>
        <time>2014-05-04T08:08:23Z</time>
      </trkpt>
      <trkpt lat="44.31321" lon="5.23085">
        <ele>943.3</ele>
        <time>2014-05-04T08:08:27Z</time>
      </trkpt>
      <trkpt lat="44.31325" lon="5.23089">
        <ele>943.7</ele>
        <time>2014-05-04T08:08:31Z</time>
      </trkpt>
      <trkpt lat="44.31328" lon="5.23096">
        <ele>945</ele>
        <time>2014-05-04T08:08:36Z</time>
      </trkpt>
      <trkpt lat="44.31332" lon="5.23101">
        <ele>945.8</ele>
        <time>2014-05-04T08:08:41Z</time>
      </trkpt>
      <trkpt lat="44.31336" lon="5.23105">
        <ele>946.2</ele>
        <time>2014-05-04T08:08:46Z</time>
      </trkpt>
      <trkpt lat="44.31339" lon="5.2311">
        <ele>947</ele>
        <time>2014-05-04T08:08:50Z</time>
      </trkpt>
      <trkpt lat="44.31343" lon="5.23115">
        <ele>947.9</ele>
        <time>2014-05-04T08:08:55Z</time>
      </trkpt>
      <trkpt lat="44.31351" lon="5.23126">
        <ele>949.7</ele>
        <time>2014-05-04T08:09:05Z</time>
      </trkpt>
      <trkpt lat="44.31355" lon="5.23131">
        <ele>950.6</ele>
        <time>2014-05-04T08:09:10Z</time>
      </trkpt>
      <trkpt lat="44.31358" lon="5.23136">
        <ele>951.7</ele>
        <time>2014-05-04T08:09:15Z</time>
      </trkpt>
      <trkpt lat="44.31362" lon="5.2314">
        <ele>952.3</ele>
        <time>2014-05-04T08:09:20Z</time>
      </trkpt>
      <trkpt lat="44.31366" lon="5.23145">
        <ele>953.2</ele>
        <time>2014-05-04T08:09:25Z</time>
      </trkpt>
      <trkpt lat="44.31369" lon="5.23149">
        <ele>953.9</ele>
        <time>2014-05-04T08:09:29Z</time>
      </trkpt>
      <trkpt lat="44.31373" lon="5.23154">
        <ele>954.9</ele>
        <time>2014-05-04T08:09:34Z</time>
      </trkpt>
      <trkpt lat="44.31377" lon="5.23159">
        <ele>956</ele>
        <time>2014-05-04T08:09:39Z</time>
      </trkpt>
      <trkpt lat="44.31381" lon="5.23163">
        <ele>956.5</ele>
        <time>2014-05-04T08:09:44Z</time>
      </trkpt>
      <trkpt lat="44.31386" lon="5.23167">
        <ele>956.9</ele>
        <time>2014-05-04T08:09:49Z</time>
      </trkpt>
      <trkpt lat="44.31389" lon="5.23172">
        <ele>957.7</ele>
        <time>2014-05-04T08:09:53Z</time>
      </trkpt>
      <trkpt lat="44.31393" lon="5.23177">
        <ele>958.4</ele>
        <time>2014-05-04T08:09:58Z</time>
      </trkpt>
      <trkpt lat="44.31398" lon="5.23189">
        <ele>960.2</ele>
        <time>2014-05-04T08:10:08Z</time>
      </trkpt>
      <trkpt lat="44.31402" lon="5.23195">
        <ele>960.8</ele>
        <time>2014-05-04T08:10:13Z</time>
      </trkpt>
      <trkpt lat="44.31405" lon="5.232">
        <ele>961.7</ele>
        <time>2014-05-04T08:10:18Z</time>
      </trkpt>
      <trkpt lat="44.31408" lon="5.23205">
        <ele>961.9</ele>
        <time>2014-05-04T08:10:23Z</time>
      </trkpt>
      <trkpt lat="44.31411" lon="5.2321">
        <ele>962.4</ele>
        <time>2014-05-04T08:10:28Z</time>
      </trkpt>
      <trkpt lat="44.31413" lon="5.23216">
        <ele>963.2</ele>
        <time>2014-05-04T08:10:33Z</time>
      </trkpt>
      <trkpt lat="44.31416" lon="5.23222">
        <ele>963.7</ele>
        <time>2014-05-04T08:10:38Z</time>
      </trkpt>
      <trkpt lat="44.31418" lon="5.23228">
        <ele>964.5</ele>
        <time>2014-05-04T08:10:43Z</time>
      </trkpt>
      <trkpt lat="44.31421" lon="5.23234">
        <ele>964.7</ele>
        <time>2014-05-04T08:10:48Z</time>
      </trkpt>
      <trkpt lat="44.31424" lon="5.23238">
        <ele>964.7</ele>
        <time>2014-05-04T08:10:52Z</time>
      </trkpt>
      <trkpt lat="44.31428" lon="5.23243">
        <ele>964.4</ele>
        <time>2014-05-04T08:10:57Z</time>
      </trkpt>
      <trkpt lat="44.31431" lon="5.2325">
        <ele>964.4</ele>
        <time>2014-05-04T08:11:02Z</time>
      </trkpt>
      <trkpt lat="44.31436" lon="5.23263">
        <ele>963.1</ele>
        <time>2014-05-04T08:11:11Z</time>
      </trkpt>
      <trkpt lat="44.31438" lon="5.2327">
        <ele>962.5</ele>
        <time>2014-05-04T08:11:16Z</time>
      </trkpt>
      <trkpt lat="44.3144" lon="5.23275">
        <ele>961.8</ele>
        <time>2014-05-04T08:11:20Z</time>
      </trkpt>
      <trkpt lat="44.31442" lon="5.23283">
        <ele>961</ele>
        <time>2014-05-04T08:11:25Z</time>
      </trkpt>
      <trkpt lat="44.31444" lon="5.23288">
        <ele>960.2</ele>
        <time>2014-05-04T08:11:29Z</time>
      </trkpt>
      <trkpt lat="44.31446" lon="5.23294">
        <ele>959.4</ele>
        <time>2014-05-04T08:11:33Z</time>
      </trkpt>
      <trkpt lat="44.31449" lon="5.233">
        <ele>958.4</ele>
        <time>2014-05-04T08:11:37Z</time>
      </trkpt>
      <trkpt lat="44.31451" lon="5.23306">
        <ele>957.6</ele>
        <time>2014-05-04T08:11:41Z</time>
      </trkpt>
      <trkpt lat="44.31451" lon="5.23313">
        <ele>957.6</ele>
        <time>2014-05-04T08:11:46Z</time>
      </trkpt>
      <trkpt lat="44.3145" lon="5.23321">
        <ele>958.3</ele>
        <time>2014-05-04T08:11:51Z</time>
      </trkpt>
      <trkpt lat="44.31447" lon="5.23327">
        <ele>959.5</ele>
        <time>2014-05-04T08:11:56Z</time>
      </trkpt>
      <trkpt lat="44.31445" lon="5.23333">
        <ele>960.3</ele>
        <time>2014-05-04T08:12:00Z</time>
      </trkpt>
      <trkpt lat="44.31445" lon="5.23341">
        <ele>961.3</ele>
        <time>2014-05-04T08:12:04Z</time>
      </trkpt>
      <trkpt lat="44.31444" lon="5.23356">
        <ele>963.2</ele>
        <time>2014-05-04T08:12:12Z</time>
      </trkpt>
      <trkpt lat="44.31445" lon="5.23363">
        <ele>963.8</ele>
        <time>2014-05-04T08:12:15Z</time>
      </trkpt>
      <trkpt lat="44.31447" lon="5.2337">
        <ele>963.7</ele>
        <time>2014-05-04T08:12:18Z</time>
      </trkpt>
      <trkpt lat="44.31449" lon="5.23376">
        <ele>963.5</ele>
        <time>2014-05-04T08:12:21Z</time>
      </trkpt>
      <trkpt lat="44.3145" lon="5.23383">
        <ele>963.2</ele>
        <time>2014-05-04T08:12:24Z</time>
      </trkpt>
      <trkpt lat="44.31452" lon="5.23389">
        <ele>963.2</ele>
        <time>2014-05-04T08:12:27Z</time>
      </trkpt>
      <trkpt lat="44.31454" lon="5.23396">
        <ele>963.1</ele>
        <time>2014-05-04T08:12:30Z</time>
      </trkpt>
      <trkpt lat="44.31456" lon="5.23403">
        <ele>962.8</ele>
        <time>2014-05-04T08:12:33Z</time>
      </trkpt>
      <trkpt lat="44.31457" lon="5.2341">
        <ele>962.8</ele>
        <time>2014-05-04T08:12:36Z</time>
      </trkpt>
      <trkpt lat="44.31459" lon="5.23417">
        <ele>962.7</ele>
        <time>2014-05-04T08:12:39Z</time>
      </trkpt>
      <trkpt lat="44.3146" lon="5.23424">
        <ele>963.5</ele>
        <time>2014-05-04T08:12:42Z</time>
      </trkpt>
      <trkpt lat="44.31462" lon="5.23431">
        <ele>964.4</ele>
        <time>2014-05-04T08:12:45Z</time>
      </trkpt>
      <trkpt lat="44.31464" lon="5.23438">
        <ele>965</ele>
        <time>2014-05-04T08:12:48Z</time>
      </trkpt>
      <trkpt lat="44.31465" lon="5.23445">
        <ele>966</ele>
        <time>2014-05-04T08:12:51Z</time>
      </trkpt>
      <trkpt lat="44.31466" lon="5.23454">
        <ele>967.4</ele>
        <time>2014-05-04T08:12:54Z</time>
      </trkpt>
      <trkpt lat="44.31468" lon="5.2346">
        <ele>968</ele>
        <time>2014-05-04T08:12:57Z</time>
      </trkpt>
      <trkpt lat="44.31469" lon="5.23466">
        <ele>968.5</ele>
        <time>2014-05-04T08:13:00Z</time>
      </trkpt>
      <trkpt lat="44.31471" lon="5.23472">
        <ele>969</ele>
        <time>2014-05-04T08:13:03Z</time>
      </trkpt>
      <trkpt lat="44.31472" lon="5.23478">
        <ele>969.9</ele>
        <time>2014-05-04T08:13:06Z</time>
      </trkpt>
      <trkpt lat="44.31476" lon="5.23491">
        <ele>971.2</ele>
        <time>2014-05-04T08:13:12Z</time>
      </trkpt>
      <trkpt lat="44.31478" lon="5.23497">
        <ele>971.5</ele>
        <time>2014-05-04T08:13:15Z</time>
      </trkpt>
      <trkpt lat="44.31479" lon="5.23503">
        <ele>972.3</ele>
        <time>2014-05-04T08:13:18Z</time>
      </trkpt>
      <trkpt lat="44.31481" lon="5.23509">
        <ele>972.6</ele>
        <time>2014-05-04T08:13:21Z</time>
      </trkpt>
      <trkpt lat="44.31484" lon="5.23514">
        <ele>972.7</ele>
        <time>2014-05-04T08:13:24Z</time>
      </trkpt>
      <trkpt lat="44.31487" lon="5.23521">
        <ele>972.9</ele>
        <time>2014-05-04T08:13:27Z</time>
      </trkpt>
      <trkpt lat="44.31489" lon="5.23528">
        <ele>973.4</ele>
        <time>2014-05-04T08:13:30Z</time>
      </trkpt>
      <trkpt lat="44.31491" lon="5.23534">
        <ele>973.7</ele>
        <time>2014-05-04T08:13:33Z</time>
      </trkpt>
      <trkpt lat="44.31493" lon="5.2354">
        <ele>974</ele>
        <time>2014-05-04T08:13:36Z</time>
      </trkpt>
      <trkpt lat="44.31495" lon="5.23547">
        <ele>974.7</ele>
        <time>2014-05-04T08:13:39Z</time>
      </trkpt>
      <trkpt lat="44.31497" lon="5.23554">
        <ele>975</ele>
        <time>2014-05-04T08:13:42Z</time>
      </trkpt>
      <trkpt lat="44.31499" lon="5.2356">
        <ele>975.4</ele>
        <time>2014-05-04T08:13:45Z</time>
      </trkpt>
      <trkpt lat="44.31501" lon="5.23567">
        <ele>975.9</ele>
        <time>2014-05-04T08:13:48Z</time>
      </trkpt>
      <trkpt lat="44.31503" lon="5.23573">
        <ele>976.3</ele>
        <time>2014-05-04T08:13:51Z</time>
      </trkpt>
      <trkpt lat="44.31505" lon="5.23579">
        <ele>976.9</ele>
        <time>2014-05-04T08:13:54Z</time>
      </trkpt>
      <trkpt lat="44.31507" lon="5.23586">
        <ele>977.4</ele>
        <time>2014-05-04T08:13:57Z</time>
      </trkpt>
      <trkpt lat="44.3151" lon="5.23592">
        <ele>978.4</ele>
        <time>2014-05-04T08:14:00Z</time>
      </trkpt>
      <trkpt lat="44.31512" lon="5.23598">
        <ele>979.1</ele>
        <time>2014-05-04T08:14:03Z</time>
      </trkpt>
      <trkpt lat="44.31515" lon="5.23604">
        <ele>979.5</ele>
        <time>2014-05-04T08:14:06Z</time>
      </trkpt>
      <trkpt lat="44.31518" lon="5.2361">
        <ele>979.9</ele>
        <time>2014-05-04T08:14:09Z</time>
      </trkpt>
      <trkpt lat="44.31524" lon="5.23621">
        <ele>980.8</ele>
        <time>2014-05-04T08:14:15Z</time>
      </trkpt>
      <trkpt lat="44.31527" lon="5.23627">
        <ele>980.8</ele>
        <time>2014-05-04T08:14:18Z</time>
      </trkpt>
      <trkpt lat="44.3153" lon="5.23633">
        <ele>981</ele>
        <time>2014-05-04T08:14:21Z</time>
      </trkpt>
      <trkpt lat="44.31533" lon="5.23638">
        <ele>980.9</ele>
        <time>2014-05-04T08:14:24Z</time>
      </trkpt>
      <trkpt lat="44.31536" lon="5.23643">
        <ele>980.9</ele>
        <time>2014-05-04T08:14:27Z</time>
      </trkpt>
      <trkpt lat="44.3154" lon="5.23648">
        <ele>980.9</ele>
        <time>2014-05-04T08:14:31Z</time>
      </trkpt>
      <trkpt lat="44.31543" lon="5.23654">
        <ele>981.1</ele>
        <time>2014-05-04T08:14:34Z</time>
      </trkpt>
      <trkpt lat="44.31546" lon="5.23661">
        <ele>981.4</ele>
        <time>2014-05-04T08:14:38Z</time>
      </trkpt>
      <trkpt lat="44.31549" lon="5.23668">
        <ele>981.7</ele>
        <time>2014-05-04T08:14:42Z</time>
      </trkpt>
      <trkpt lat="44.31551" lon="5.23673">
        <ele>982</ele>
        <time>2014-05-04T08:14:45Z</time>
      </trkpt>
      <trkpt lat="44.31554" lon="5.2368">
        <ele>982.3</ele>
        <time>2014-05-04T08:14:49Z</time>
      </trkpt>
      <trkpt lat="44.31557" lon="5.23687">
        <ele>982.6</ele>
        <time>2014-05-04T08:14:53Z</time>
      </trkpt>
      <trkpt lat="44.31558" lon="5.23694">
        <ele>983.5</ele>
        <time>2014-05-04T08:14:57Z</time>
      </trkpt>
      <trkpt lat="44.31562" lon="5.237">
        <ele>983.4</ele>
        <time>2014-05-04T08:15:01Z</time>
      </trkpt>
      <trkpt lat="44.31564" lon="5.23706">
        <ele>983.8</ele>
        <time>2014-05-04T08:15:05Z</time>
      </trkpt>
      <trkpt lat="44.31566" lon="5.23713">
        <ele>984.4</ele>
        <time>2014-05-04T08:15:10Z</time>
      </trkpt>
      <trkpt lat="44.31568" lon="5.23727">
        <ele>986.8</ele>
        <time>2014-05-04T08:15:19Z</time>
      </trkpt>
      <trkpt lat="44.31568" lon="5.23734">
        <ele>988.4</ele>
        <time>2014-05-04T08:15:24Z</time>
      </trkpt>
      <trkpt lat="44.31568" lon="5.23742">
        <ele>990</ele>
        <time>2014-05-04T08:15:29Z</time>
      </trkpt>
      <trkpt lat="44.31567" lon="5.23748">
        <ele>991.8</ele>
        <time>2014-05-04T08:15:33Z</time>
      </trkpt>
      <trkpt lat="44.31567" lon="5.23755">
        <ele>993.2</ele>
        <time>2014-05-04T08:15:37Z</time>
      </trkpt>
      <trkpt lat="44.31567" lon="5.23761">
        <ele>994.3</ele>
        <time>2014-05-04T08:15:42Z</time>
      </trkpt>
      <trkpt lat="44.31567" lon="5.23769">
        <ele>995.6</ele>
        <time>2014-05-04T08:15:48Z</time>
      </trkpt>
      <trkpt lat="44.31568" lon="5.23775">
        <ele>996.1</ele>
        <time>2014-05-04T08:15:53Z</time>
      </trkpt>
      <trkpt lat="44.31569" lon="5.23782">
        <ele>996.6</ele>
        <time>2014-05-04T08:15:58Z</time>
      </trkpt>
      <trkpt lat="44.31571" lon="5.23788">
        <ele>996.8</ele>
        <time>2014-05-04T08:16:03Z</time>
      </trkpt>
      <trkpt lat="44.31572" lon="5.23794">
        <ele>997.7</ele>
        <time>2014-05-04T08:16:07Z</time>
      </trkpt>
      <trkpt lat="44.31572" lon="5.23802">
        <ele>998.5</ele>
        <time>2014-05-04T08:16:13Z</time>
      </trkpt>
      <trkpt lat="44.31574" lon="5.23815">
        <ele>999.9</ele>
        <time>2014-05-04T08:16:23Z</time>
      </trkpt>
      <trkpt lat="44.31574" lon="5.23822">
        <ele>1001.1</ele>
        <time>2014-05-04T08:16:29Z</time>
      </trkpt>
      <trkpt lat="44.31574" lon="5.23828">
        <ele>1002.3</ele>
        <time>2014-05-04T08:16:33Z</time>
      </trkpt>
      <trkpt lat="44.31573" lon="5.23835">
        <ele>1003.6</ele>
        <time>2014-05-04T08:16:38Z</time>
      </trkpt>
      <trkpt lat="44.31572" lon="5.23841">
        <ele>1003.8</ele>
        <time>2014-05-04T08:16:43Z</time>
      </trkpt>
      <trkpt lat="44.31572" lon="5.23848">
        <ele>1004.1</ele>
        <time>2014-05-04T08:16:48Z</time>
      </trkpt>
      <trkpt lat="44.31572" lon="5.23855">
        <ele>1004.3</ele>
        <time>2014-05-04T08:16:53Z</time>
      </trkpt>
      <trkpt lat="44.3157" lon="5.23862">
        <ele>1004.9</ele>
        <time>2014-05-04T08:16:58Z</time>
      </trkpt>
      <trkpt lat="44.31569" lon="5.23868">
        <ele>1005.5</ele>
        <time>2014-05-04T08:17:03Z</time>
      </trkpt>
      <trkpt lat="44.31569" lon="5.23874">
        <ele>1005.7</ele>
        <time>2014-05-04T08:17:08Z</time>
      </trkpt>
      <trkpt lat="44.31567" lon="5.23881">
        <ele>1006.3</ele>
        <time>2014-05-04T08:17:13Z</time>
      </trkpt>
      <trkpt lat="44.31566" lon="5.23887">
        <ele>1007.1</ele>
        <time>2014-05-04T08:17:18Z</time>
      </trkpt>
      <trkpt lat="44.31561" lon="5.239">
        <ele>1009.1</ele>
        <time>2014-05-04T08:17:27Z</time>
      </trkpt>
      <trkpt lat="44.3156" lon="5.23908">
        <ele>1009.9</ele>
        <time>2014-05-04T08:17:33Z</time>
      </trkpt>
      <trkpt lat="44.3156" lon="5.23916">
        <ele>1009.7</ele>
        <time>2014-05-04T08:17:43Z</time>
      </trkpt>
      <trkpt lat="44.31559" lon="5.23922">
        <ele>1009.7</ele>
        <time>2014-05-04T08:17:48Z</time>
      </trkpt>
      <trkpt lat="44.31557" lon="5.23929">
        <ele>1009.6</ele>
        <time>2014-05-04T08:17:55Z</time>
      </trkpt>
      <trkpt lat="44.31554" lon="5.23934">
        <ele>1010.1</ele>
        <time>2014-05-04T08:18:02Z</time>
      </trkpt>
      <trkpt lat="44.31551" lon="5.2394">
        <ele>1010.6</ele>
        <time>2014-05-04T08:18:09Z</time>
      </trkpt>
      <trkpt lat="44.31548" lon="5.23945">
        <ele>1011.4</ele>
        <time>2014-05-04T08:18:16Z</time>
      </trkpt>
      <trkpt lat="44.31546" lon="5.23952">
        <ele>1011.3</ele>
        <time>2014-05-04T08:18:23Z</time>
      </trkpt>
      <trkpt lat="44.31542" lon="5.23963">
        <ele>1012.2</ele>
        <time>2014-05-04T08:18:36Z</time>
      </trkpt>
      <trkpt lat="44.31538" lon="5.23968">
        <ele>1013.4</ele>
        <time>2014-05-04T08:18:43Z</time>
      </trkpt>
      <trkpt lat="44.31535" lon="5.23973">
        <ele>1014.5</ele>
        <time>2014-05-04T08:18:48Z</time>
      </trkpt>
      <trkpt lat="44.31532" lon="5.23978">
        <ele>1015.6</ele>
        <time>2014-05-04T08:18:54Z</time>
      </trkpt>
      <trkpt lat="44.31528" lon="5.23983">
        <ele>1016.9</ele>
        <time>2014-05-04T08:19:01Z</time>
      </trkpt>
      <trkpt lat="44.31525" lon="5.23989">
        <ele>1017.7</ele>
        <time>2014-05-04T08:19:06Z</time>
      </trkpt>
      <trkpt lat="44.31522" lon="5.23995">
        <ele>1018.7</ele>
        <time>2014-05-04T08:19:12Z</time>
      </trkpt>
      <trkpt lat="44.3152" lon="5.24">
        <ele>1019.6</ele>
        <time>2014-05-04T08:19:17Z</time>
      </trkpt>
      <trkpt lat="44.31517" lon="5.24006">
        <ele>1020.8</ele>
        <time>2014-05-04T08:19:24Z</time>
      </trkpt>
      <trkpt lat="44.31511" lon="5.24018">
        <ele>1023.5</ele>
        <time>2014-05-04T08:19:36Z</time>
      </trkpt>
      <trkpt lat="44.31509" lon="5.24024">
        <ele>1024.4</ele>
        <time>2014-05-04T08:19:41Z</time>
      </trkpt>
      <trkpt lat="44.31507" lon="5.2403">
        <ele>1025.4</ele>
        <time>2014-05-04T08:19:49Z</time>
      </trkpt>
      <trkpt lat="44.31504" lon="5.24035">
        <ele>1027</ele>
        <time>2014-05-04T08:19:56Z</time>
      </trkpt>
      <trkpt lat="44.31502" lon="5.24042">
        <ele>1027.7</ele>
        <time>2014-05-04T08:20:03Z</time>
      </trkpt>
      <trkpt lat="44.31501" lon="5.24049">
        <ele>1028.3</ele>
        <time>2014-05-04T08:20:11Z</time>
      </trkpt>
      <trkpt lat="44.315" lon="5.24055">
        <ele>1028.6</ele>
        <time>2014-05-04T08:20:18Z</time>
      </trkpt>
      <trkpt lat="44.31498" lon="5.24061">
        <ele>1029.2</ele>
        <time>2014-05-04T08:20:24Z</time>
      </trkpt>
      <trkpt lat="44.31498" lon="5.24067">
        <ele>1029.3</ele>
        <time>2014-05-04T08:20:30Z</time>
      </trkpt>
      <trkpt lat="44.31495" lon="5.24081">
        <ele>1030.6</ele>
        <time>2014-05-04T08:20:43Z</time>
      </trkpt>
      <trkpt lat="44.31493" lon="5.24087">
        <ele>1031.5</ele>
        <time>2014-05-04T08:20:51Z</time>
      </trkpt>
      <trkpt lat="44.31493" lon="5.24094">
        <ele>1031.7</ele>
        <time>2014-05-04T08:21:01Z</time>
      </trkpt>
      <trkpt lat="44.31492" lon="5.24101">
        <ele>1032.1</ele>
        <time>2014-05-04T08:21:07Z</time>
      </trkpt>
      <trkpt lat="44.31491" lon="5.24107">
        <ele>1032.8</ele>
        <time>2014-05-04T08:21:14Z</time>
      </trkpt>
      <trkpt lat="44.31488" lon="5.24112">
        <ele>1034.9</ele>
        <time>2014-05-04T08:21:19Z</time>
      </trkpt>
      <trkpt lat="44.31485" lon="5.24117">
        <ele>1036.6</ele>
        <time>2014-05-04T08:21:24Z</time>
      </trkpt>
      <trkpt lat="44.31482" lon="5.24122">
        <ele>1038.5</ele>
        <time>2014-05-04T08:21:30Z</time>
      </trkpt>
      <trkpt lat="44.3148" lon="5.24129">
        <ele>1040</ele>
        <time>2014-05-04T08:21:36Z</time>
      </trkpt>
      <trkpt lat="44.31481" lon="5.24143">
        <ele>1039.3</ele>
        <time>2014-05-04T08:21:48Z</time>
      </trkpt>
      <trkpt lat="44.31482" lon="5.24149">
        <ele>1038.4</ele>
        <time>2014-05-04T08:21:54Z</time>
      </trkpt>
      <trkpt lat="44.31483" lon="5.24156">
        <ele>1038.2</ele>
        <time>2014-05-04T08:22:01Z</time>
      </trkpt>
      <trkpt lat="44.31482" lon="5.24163">
        <ele>1038.4</ele>
        <time>2014-05-04T08:22:06Z</time>
      </trkpt>
      <trkpt lat="44.31482" lon="5.24169">
        <ele>1038.6</ele>
        <time>2014-05-04T08:22:12Z</time>
      </trkpt>
      <trkpt lat="44.31481" lon="5.24176">
        <ele>1039.2</ele>
        <time>2014-05-04T08:22:18Z</time>
      </trkpt>
      <trkpt lat="44.3148" lon="5.24183">
        <ele>1039.8</ele>
        <time>2014-05-04T08:22:24Z</time>
      </trkpt>
      <trkpt lat="44.31479" lon="5.24189">
        <ele>1040.6</ele>
        <time>2014-05-04T08:22:30Z</time>
      </trkpt>
      <trkpt lat="44.31477" lon="5.24196">
        <ele>1041.8</ele>
        <time>2014-05-04T08:22:37Z</time>
      </trkpt>
      <trkpt lat="44.31475" lon="5.2421">
        <ele>1043.3</ele>
        <time>2014-05-04T08:22:49Z</time>
      </trkpt>
      <trkpt lat="44.31473" lon="5.24216">
        <ele>1044.3</ele>
        <time>2014-05-04T08:22:55Z</time>
      </trkpt>
      <trkpt lat="44.31471" lon="5.24222">
        <ele>1045.6</ele>
        <time>2014-05-04T08:23:02Z</time>
      </trkpt>
      <trkpt lat="44.31469" lon="5.24228">
        <ele>1046.8</ele>
        <time>2014-05-04T08:23:10Z</time>
      </trkpt>
      <trkpt lat="44.31467" lon="5.24235">
        <ele>1048.1</ele>
        <time>2014-05-04T08:23:18Z</time>
      </trkpt>
      <trkpt lat="44.31465" lon="5.2424">
        <ele>1049.6</ele>
        <time>2014-05-04T08:23:26Z</time>
      </trkpt>
      <trkpt lat="44.31463" lon="5.24246">
        <ele>1050.9</ele>
        <time>2014-05-04T08:23:33Z</time>
      </trkpt>
      <trkpt lat="44.3146" lon="5.24252">
        <ele>1052.5</ele>
        <time>2014-05-04T08:23:40Z</time>
      </trkpt>
      <trkpt lat="44.31455" lon="5.24265">
        <ele>1054.4</ele>
        <time>2014-05-04T08:23:54Z</time>
      </trkpt>
      <trkpt lat="44.31452" lon="5.2427">
        <ele>1056</ele>
        <time>2014-05-04T08:24:00Z</time>
      </trkpt>
      <trkpt lat="44.3145" lon="5.24276">
        <ele>1056.6</ele>
        <time>2014-05-04T08:24:07Z</time>
      </trkpt>
      <trkpt lat="44.31447" lon="5.24282">
        <ele>1057.7</ele>
        <time>2014-05-04T08:24:13Z</time>
      </trkpt>
      <trkpt lat="44.31445" lon="5.24288">
        <ele>1057.9</ele>
        <time>2014-05-04T08:24:20Z</time>
      </trkpt>
      <trkpt lat="44.31445" lon="5.24295">
        <ele>1057.5</ele>
        <time>2014-05-04T08:24:30Z</time>
      </trkpt>
      <trkpt lat="44.31442" lon="5.24301">
        <ele>1058.6</ele>
        <time>2014-05-04T08:24:35Z</time>
      </trkpt>
      <trkpt lat="44.31439" lon="5.24306">
        <ele>1059.6</ele>
        <time>2014-05-04T08:24:39Z</time>
      </trkpt>
      <trkpt lat="44.31436" lon="5.24312">
        <ele>1060.5</ele>
        <time>2014-05-04T08:24:45Z</time>
      </trkpt>
      <trkpt lat="44.3143" lon="5.24322">
        <ele>1063.5</ele>
        <time>2014-05-04T08:24:54Z</time>
      </trkpt>
      <trkpt lat="44.31427" lon="5.24328">
        <ele>1064.8</ele>
        <time>2014-05-04T08:24:59Z</time>
      </trkpt>
      <trkpt lat="44.31423" lon="5.24333">
        <ele>1066.1</ele>
        <time>2014-05-04T08:25:04Z</time>
      </trkpt>
      <trkpt lat="44.3142" lon="5.24339">
        <ele>1067.4</ele>
        <time>2014-05-04T08:25:08Z</time>
      </trkpt>
      <trkpt lat="44.31417" lon="5.24345">
        <ele>1068.5</ele>
        <time>2014-05-04T08:25:13Z</time>
      </trkpt>
      <trkpt lat="44.31415" lon="5.24351">
        <ele>1068.9</ele>
        <time>2014-05-04T08:25:17Z</time>
      </trkpt>
      <trkpt lat="44.31413" lon="5.24358">
        <ele>1070.2</ele>
        <time>2014-05-04T08:25:21Z</time>
      </trkpt>
      <trkpt lat="44.31409" lon="5.24364">
        <ele>1071.5</ele>
        <time>2014-05-04T08:25:25Z</time>
      </trkpt>
      <trkpt lat="44.31407" lon="5.2437">
        <ele>1072.5</ele>
        <time>2014-05-04T08:25:29Z</time>
      </trkpt>
      <trkpt lat="44.31403" lon="5.24375">
        <ele>1073.9</ele>
        <time>2014-05-04T08:25:33Z</time>
      </trkpt>
      <trkpt lat="44.314" lon="5.24381">
        <ele>1075.1</ele>
        <time>2014-05-04T08:25:37Z</time>
      </trkpt>
      <trkpt lat="44.31398" lon="5.24386">
        <ele>1076.3</ele>
        <time>2014-05-04T08:25:41Z</time>
      </trkpt>
      <trkpt lat="44.31395" lon="5.24392">
        <ele>1077.1</ele>
        <time>2014-05-04T08:25:45Z</time>
      </trkpt>
      <trkpt lat="44.31392" lon="5.24398">
        <ele>1078.1</ele>
        <time>2014-05-04T08:25:49Z</time>
      </trkpt>
      <trkpt lat="44.31386" lon="5.2441">
        <ele>1080.4</ele>
        <time>2014-05-04T08:25:57Z</time>
      </trkpt>
      <trkpt lat="44.31383" lon="5.24416">
        <ele>1081.3</ele>
        <time>2014-05-04T08:26:02Z</time>
      </trkpt>
      <trkpt lat="44.3138" lon="5.24424">
        <ele>1082.1</ele>
        <time>2014-05-04T08:26:07Z</time>
      </trkpt>
      <trkpt lat="44.31377" lon="5.24431">
        <ele>1082.9</ele>
        <time>2014-05-04T08:26:11Z</time>
      </trkpt>
      <trkpt lat="44.31374" lon="5.24438">
        <ele>1084.1</ele>
        <time>2014-05-04T08:26:15Z</time>
      </trkpt>
      <trkpt lat="44.31372" lon="5.24444">
        <ele>1084.5</ele>
        <time>2014-05-04T08:26:19Z</time>
      </trkpt>
      <trkpt lat="44.31369" lon="5.24451">
        <ele>1085.6</ele>
        <time>2014-05-04T08:26:23Z</time>
      </trkpt>
      <trkpt lat="44.31366" lon="5.24457">
        <ele>1086.8</ele>
        <time>2014-05-04T08:26:27Z</time>
      </trkpt>
      <trkpt lat="44.31363" lon="5.24463">
        <ele>1087.9</ele>
        <time>2014-05-04T08:26:31Z</time>
      </trkpt>
      <trkpt lat="44.3136" lon="5.24468">
        <ele>1089.1</ele>
        <time>2014-05-04T08:26:35Z</time>
      </trkpt>
      <trkpt lat="44.31355" lon="5.24471">
        <ele>1091.8</ele>
        <time>2014-05-04T08:26:39Z</time>
      </trkpt>
      <trkpt lat="44.31351" lon="5.24474">
        <ele>1094.4</ele>
        <time>2014-05-04T08:26:44Z</time>
      </trkpt>
      <trkpt lat="44.31346" lon="5.24473">
        <ele>1097.4</ele>
        <time>2014-05-04T08:26:50Z</time>
      </trkpt>
      <trkpt lat="44.31345" lon="5.24481">
        <ele>1097.6</ele>
        <time>2014-05-04T08:35:10Z</time>
      </trkpt>
      <trkpt lat="44.31348" lon="5.24496">
        <ele>1094.3</ele>
        <time>2014-05-04T08:35:15Z</time>
      </trkpt>
      <trkpt lat="44.3135" lon="5.24503">
        <ele>1092.4</ele>
        <time>2014-05-04T08:35:18Z</time>
      </trkpt>
      <trkpt lat="44.31351" lon="5.2451">
        <ele>1091.3</ele>
        <time>2014-05-04T08:35:21Z</time>
      </trkpt>
      <trkpt lat="44.31349" lon="5.24519">
        <ele>1092.2</ele>
        <time>2014-05-04T08:35:24Z</time>
      </trkpt>
      <trkpt lat="44.31347" lon="5.24526">
        <ele>1093.2</ele>
        <time>2014-05-04T08:35:26Z</time>
      </trkpt>
      <trkpt lat="44.31345" lon="5.24535">
        <ele>1094.4</ele>
        <time>2014-05-04T08:35:28Z</time>
      </trkpt>
      <trkpt lat="44.31343" lon="5.24544">
        <ele>1094.9</ele>
        <time>2014-05-04T08:35:30Z</time>
      </trkpt>
      <trkpt lat="44.31342" lon="5.24553">
        <ele>1095.4</ele>
        <time>2014-05-04T08:35:32Z</time>
      </trkpt>
      <trkpt lat="44.3134" lon="5.24561">
        <ele>1096.8</ele>
        <time>2014-05-04T08:35:34Z</time>
      </trkpt>
      <trkpt lat="44.3134" lon="5.2457">
        <ele>1096.5</ele>
        <time>2014-05-04T08:35:36Z</time>
      </trkpt>
      <trkpt lat="44.31341" lon="5.24577">
        <ele>1095.4</ele>
        <time>2014-05-04T08:35:38Z</time>
      </trkpt>
      <trkpt lat="44.31341" lon="5.24586">
        <ele>1094.9</ele>
        <time>2014-05-04T08:35:41Z</time>
      </trkpt>
      <trkpt lat="44.31343" lon="5.24594">
        <ele>1093.6</ele>
        <time>2014-05-04T08:35:44Z</time>
      </trkpt>
      <trkpt lat="44.31344" lon="5.24603">
        <ele>1092.4</ele>
        <time>2014-05-04T08:35:47Z</time>
      </trkpt>
      <trkpt lat="44.31344" lon="5.24613">
        <ele>1092.4</ele>
        <time>2014-05-04T08:35:49Z</time>
      </trkpt>
      <trkpt lat="44.31344" lon="5.24623">
        <ele>1092.1</ele>
        <time>2014-05-04T08:35:51Z</time>
      </trkpt>
      <trkpt lat="44.31342" lon="5.24632">
        <ele>1092.9</ele>
        <time>2014-05-04T08:35:53Z</time>
      </trkpt>
      <trkpt lat="44.31338" lon="5.24641">
        <ele>1095.1</ele>
        <time>2014-05-04T08:35:55Z</time>
      </trkpt>
      <trkpt lat="44.31335" lon="5.24649">
        <ele>1097.5</ele>
        <time>2014-05-04T08:35:57Z</time>
      </trkpt>
      <trkpt lat="44.31331" lon="5.24657">
        <ele>1098.5</ele>
        <time>2014-05-04T08:35:59Z</time>
      </trkpt>
      <trkpt lat="44.31329" lon="5.24663">
        <ele>1098.6</ele>
        <time>2014-05-04T08:36:01Z</time>
      </trkpt>
      <trkpt lat="44.31328" lon="5.24673">
        <ele>1098.6</ele>
        <time>2014-05-04T08:36:04Z</time>
      </trkpt>
      <trkpt lat="44.31329" lon="5.24682">
        <ele>1098.5</ele>
        <time>2014-05-04T08:36:06Z</time>
      </trkpt>
      <trkpt lat="44.31328" lon="5.24691">
        <ele>1098.5</ele>
        <time>2014-05-04T08:36:08Z</time>
      </trkpt>
      <trkpt lat="44.31327" lon="5.24701">
        <ele>1098.5</ele>
        <time>2014-05-04T08:36:10Z</time>
      </trkpt>
      <trkpt lat="44.31328" lon="5.24714">
        <ele>1098.5</ele>
        <time>2014-05-04T08:36:12Z</time>
      </trkpt>
      <trkpt lat="44.31331" lon="5.24732">
        <ele>1098.2</ele>
        <time>2014-05-04T08:36:15Z</time>
      </trkpt>
      <trkpt lat="44.31333" lon="5.24744">
        <ele>1098</ele>
        <time>2014-05-04T08:36:17Z</time>
      </trkpt>
      <trkpt lat="44.31336" lon="5.24754">
        <ele>1096.2</ele>
        <time>2014-05-04T08:36:19Z</time>
      </trkpt>
      <trkpt lat="44.31337" lon="5.24761">
        <ele>1095.6</ele>
        <time>2014-05-04T08:36:20Z</time>
      </trkpt>
      <trkpt lat="44.31339" lon="5.24767">
        <ele>1095</ele>
        <time>2014-05-04T08:36:21Z</time>
      </trkpt>
      <trkpt lat="44.3134" lon="5.24774">
        <ele>1094.5</ele>
        <time>2014-05-04T08:36:22Z</time>
      </trkpt>
      <trkpt lat="44.31342" lon="5.24781">
        <ele>1093.6</ele>
        <time>2014-05-04T08:36:23Z</time>
      </trkpt>
      <trkpt lat="44.31345" lon="5.24788">
        <ele>1092.2</ele>
        <time>2014-05-04T08:36:24Z</time>
      </trkpt>
      <trkpt lat="44.31347" lon="5.24794">
        <ele>1091</ele>
        <time>2014-05-04T08:36:25Z</time>
      </trkpt>
      <trkpt lat="44.31349" lon="5.248">
        <ele>1089.9</ele>
        <time>2014-05-04T08:36:26Z</time>
      </trkpt>
      <trkpt lat="44.31351" lon="5.24806">
        <ele>1088.9</ele>
        <time>2014-05-04T08:36:27Z</time>
      </trkpt>
      <trkpt lat="44.31353" lon="5.24813">
        <ele>1088.2</ele>
        <time>2014-05-04T08:36:28Z</time>
      </trkpt>
      <trkpt lat="44.31355" lon="5.2482">
        <ele>1087.4</ele>
        <time>2014-05-04T08:36:29Z</time>
      </trkpt>
      <trkpt lat="44.31357" lon="5.24826">
        <ele>1086.6</ele>
        <time>2014-05-04T08:36:30Z</time>
      </trkpt>
      <trkpt lat="44.3136" lon="5.24833">
        <ele>1085.2</ele>
        <time>2014-05-04T08:36:31Z</time>
      </trkpt>
      <trkpt lat="44.31362" lon="5.24839">
        <ele>1084</ele>
        <time>2014-05-04T08:36:32Z</time>
      </trkpt>
      <trkpt lat="44.31365" lon="5.24844">
        <ele>1082.5</ele>
        <time>2014-05-04T08:36:33Z</time>
      </trkpt>
      <trkpt lat="44.31369" lon="5.24854">
        <ele>1079.6</ele>
        <time>2014-05-04T08:36:35Z</time>
      </trkpt>
      <trkpt lat="44.31375" lon="5.24862">
        <ele>1076.8</ele>
        <time>2014-05-04T08:36:37Z</time>
      </trkpt>
      <trkpt lat="44.31378" lon="5.24867">
        <ele>1074.8</ele>
        <time>2014-05-04T08:36:39Z</time>
      </trkpt>
      <trkpt lat="44.31382" lon="5.24872">
        <ele>1073.3</ele>
        <time>2014-05-04T08:36:41Z</time>
      </trkpt>
      <trkpt lat="44.31386" lon="5.24877">
        <ele>1071.3</ele>
        <time>2014-05-04T08:36:43Z</time>
      </trkpt>
      <trkpt lat="44.3139" lon="5.24882">
        <ele>1069.4</ele>
        <time>2014-05-04T08:36:45Z</time>
      </trkpt>
      <trkpt lat="44.31396" lon="5.24885">
        <ele>1066.8</ele>
        <time>2014-05-04T08:36:47Z</time>
      </trkpt>
      <trkpt lat="44.31401" lon="5.24886">
        <ele>1064.4</ele>
        <time>2014-05-04T08:36:49Z</time>
      </trkpt>
      <trkpt lat="44.31406" lon="5.24886">
        <ele>1062.1</ele>
        <time>2014-05-04T08:36:51Z</time>
      </trkpt>
      <trkpt lat="44.31412" lon="5.24885">
        <ele>1059.2</ele>
        <time>2014-05-04T08:36:54Z</time>
      </trkpt>
      <trkpt lat="44.31417" lon="5.24889">
        <ele>1057.4</ele>
        <time>2014-05-04T08:36:57Z</time>
      </trkpt>
      <trkpt lat="44.31421" lon="5.24896">
        <ele>1054.3</ele>
        <time>2014-05-04T08:37:00Z</time>
      </trkpt>
      <trkpt lat="44.31425" lon="5.24902">
        <ele>1052</ele>
        <time>2014-05-04T08:37:03Z</time>
      </trkpt>
      <trkpt lat="44.31426" lon="5.2491">
        <ele>1052.1</ele>
        <time>2014-05-04T08:37:06Z</time>
      </trkpt>
      <trkpt lat="44.31426" lon="5.24917">
        <ele>1052.9</ele>
        <time>2014-05-04T08:37:08Z</time>
      </trkpt>
      <trkpt lat="44.31426" lon="5.24923">
        <ele>1052.1</ele>
        <time>2014-05-04T08:37:10Z</time>
      </trkpt>
      <trkpt lat="44.31426" lon="5.2493">
        <ele>1051.3</ele>
        <time>2014-05-04T08:37:12Z</time>
      </trkpt>
      <trkpt lat="44.31426" lon="5.24937">
        <ele>1050.5</ele>
        <time>2014-05-04T08:37:14Z</time>
      </trkpt>
      <trkpt lat="44.31428" lon="5.24951">
        <ele>1047.6</ele>
        <time>2014-05-04T08:37:18Z</time>
      </trkpt>
      <trkpt lat="44.3143" lon="5.24958">
        <ele>1046</ele>
        <time>2014-05-04T08:37:20Z</time>
      </trkpt>
      <trkpt lat="44.31431" lon="5.24966">
        <ele>1044.5</ele>
        <time>2014-05-04T08:37:22Z</time>
      </trkpt>
      <trkpt lat="44.31432" lon="5.24974">
        <ele>1042.6</ele>
        <time>2014-05-04T08:37:24Z</time>
      </trkpt>
      <trkpt lat="44.31435" lon="5.24983">
        <ele>1039.8</ele>
        <time>2014-05-04T08:37:26Z</time>
      </trkpt>
      <trkpt lat="44.31437" lon="5.24991">
        <ele>1037.1</ele>
        <time>2014-05-04T08:37:28Z</time>
      </trkpt>
      <trkpt lat="44.31438" lon="5.25">
        <ele>1035.2</ele>
        <time>2014-05-04T08:37:30Z</time>
      </trkpt>
      <trkpt lat="44.31441" lon="5.25008">
        <ele>1031.3</ele>
        <time>2014-05-04T08:37:32Z</time>
      </trkpt>
      <trkpt lat="44.31442" lon="5.25016">
        <ele>1028.2</ele>
        <time>2014-05-04T08:37:34Z</time>
      </trkpt>
      <trkpt lat="44.31441" lon="5.25025">
        <ele>1027.2</ele>
        <time>2014-05-04T08:37:36Z</time>
      </trkpt>
      <trkpt lat="44.3144" lon="5.25034">
        <ele>1026.2</ele>
        <time>2014-05-04T08:37:38Z</time>
      </trkpt>
      <trkpt lat="44.3144" lon="5.25042">
        <ele>1024.2</ele>
        <time>2014-05-04T08:37:40Z</time>
      </trkpt>
      <trkpt lat="44.31439" lon="5.25051">
        <ele>1023.2</ele>
        <time>2014-05-04T08:37:42Z</time>
      </trkpt>
      <trkpt lat="44.31438" lon="5.25059">
        <ele>1022</ele>
        <time>2014-05-04T08:37:44Z</time>
      </trkpt>
      <trkpt lat="44.31439" lon="5.25068">
        <ele>1019.4</ele>
        <time>2014-05-04T08:37:46Z</time>
      </trkpt>
      <trkpt lat="44.31438" lon="5.25077">
        <ele>1017.6</ele>
        <time>2014-05-04T08:37:48Z</time>
      </trkpt>
      <trkpt lat="44.31437" lon="5.25084">
        <ele>1017.3</ele>
        <time>2014-05-04T08:37:50Z</time>
      </trkpt>
      <trkpt lat="44.31437" lon="5.25091">
        <ele>1016.9</ele>
        <time>2014-05-04T08:37:52Z</time>
      </trkpt>
      <trkpt lat="44.31436" lon="5.25098">
        <ele>1016</ele>
        <time>2014-05-04T08:37:54Z</time>
      </trkpt>
      <trkpt lat="44.31435" lon="5.25106">
        <ele>1015.9</ele>
        <time>2014-05-04T08:37:56Z</time>
      </trkpt>
      <trkpt lat="44.31433" lon="5.25114">
        <ele>1016.4</ele>
        <time>2014-05-04T08:37:58Z</time>
      </trkpt>
      <trkpt lat="44.31431" lon="5.25122">
        <ele>1016.6</ele>
        <time>2014-05-04T08:38:00Z</time>
      </trkpt>
      <trkpt lat="44.3143" lon="5.2513">
        <ele>1016.2</ele>
        <time>2014-05-04T08:38:02Z</time>
      </trkpt>
      <trkpt lat="44.31429" lon="5.25138">
        <ele>1015.7</ele>
        <time>2014-05-04T08:38:04Z</time>
      </trkpt>
      <trkpt lat="44.31429" lon="5.25147">
        <ele>1014.3</ele>
        <time>2014-05-04T08:38:06Z</time>
      </trkpt>
      <trkpt lat="44.3143" lon="5.25157">
        <ele>1011.9</ele>
        <time>2014-05-04T08:38:08Z</time>
      </trkpt>
      <trkpt lat="44.31433" lon="5.25166">
        <ele>1008.2</ele>
        <time>2014-05-04T08:38:10Z</time>
      </trkpt>
      <trkpt lat="44.31437" lon="5.25175">
        <ele>1005.2</ele>
        <time>2014-05-04T08:38:12Z</time>
      </trkpt>
      <trkpt lat="44.3144" lon="5.25186">
        <ele>1002.9</ele>
        <time>2014-05-04T08:38:14Z</time>
      </trkpt>
      <trkpt lat="44.31443" lon="5.25196">
        <ele>1000.1</ele>
        <time>2014-05-04T08:38:16Z</time>
      </trkpt>
      <trkpt lat="44.31447" lon="5.25214">
        <ele>997.1</ele>
        <time>2014-05-04T08:38:19Z</time>
      </trkpt>
      <trkpt lat="44.31446" lon="5.25223">
        <ele>998.5</ele>
        <time>2014-05-04T08:38:21Z</time>
      </trkpt>
      <trkpt lat="44.31441" lon="5.25228">
        <ele>1001.7</ele>
        <time>2014-05-04T08:38:24Z</time>
      </trkpt>
      <trkpt lat="44.31436" lon="5.25232">
        <ele>1004.8</ele>
        <time>2014-05-04T08:38:26Z</time>
      </trkpt>
      <trkpt lat="44.31431" lon="5.25235">
        <ele>1008.6</ele>
        <time>2014-05-04T08:38:28Z</time>
      </trkpt>
      <trkpt lat="44.31425" lon="5.25237">
        <ele>1012.7</ele>
        <time>2014-05-04T08:38:30Z</time>
      </trkpt>
      <trkpt lat="44.31421" lon="5.25236">
        <ele>1015.8</ele>
        <time>2014-05-04T08:38:33Z</time>
      </trkpt>
      <trkpt lat="44.31419" lon="5.25243">
        <ele>1016.7</ele>
        <time>2014-05-04T08:39:20Z</time>
      </trkpt>
      <trkpt lat="44.31413" lon="5.25256">
        <ele>1018.6</ele>
        <time>2014-05-04T08:39:24Z</time>
      </trkpt>
      <trkpt lat="44.31409" lon="5.25264">
        <ele>1019.3</ele>
        <time>2014-05-04T08:39:26Z</time>
      </trkpt>
      <trkpt lat="44.31405" lon="5.25274">
        <ele>1019.9</ele>
        <time>2014-05-04T08:39:28Z</time>
      </trkpt>
      <trkpt lat="44.31403" lon="5.25281">
        <ele>1020.2</ele>
        <time>2014-05-04T08:39:29Z</time>
      </trkpt>
      <trkpt lat="44.31401" lon="5.25287">
        <ele>1020.4</ele>
        <time>2014-05-04T08:39:30Z</time>
      </trkpt>
      <trkpt lat="44.31396" lon="5.25297">
        <ele>1020.8</ele>
        <time>2014-05-04T08:39:32Z</time>
      </trkpt>
      <trkpt lat="44.31392" lon="5.25301">
        <ele>1021</ele>
        <time>2014-05-04T08:39:33Z</time>
      </trkpt>
      <trkpt lat="44.31389" lon="5.25306">
        <ele>1021.1</ele>
        <time>2014-05-04T08:39:34Z</time>
      </trkpt>
      <trkpt lat="44.31386" lon="5.25311">
        <ele>1021.2</ele>
        <time>2014-05-04T08:39:35Z</time>
      </trkpt>
      <trkpt lat="44.31379" lon="5.25316">
        <ele>1021.2</ele>
        <time>2014-05-04T08:39:37Z</time>
      </trkpt>
      <trkpt lat="44.31371" lon="5.25323">
        <ele>1021.1</ele>
        <time>2014-05-04T08:39:39Z</time>
      </trkpt>
      <trkpt lat="44.31367" lon="5.25326">
        <ele>1021</ele>
        <time>2014-05-04T08:39:40Z</time>
      </trkpt>
      <trkpt lat="44.31362" lon="5.25329">
        <ele>1020.8</ele>
        <time>2014-05-04T08:39:41Z</time>
      </trkpt>
      <trkpt lat="44.31358" lon="5.25332">
        <ele>1020.6</ele>
        <time>2014-05-04T08:39:42Z</time>
      </trkpt>
      <trkpt lat="44.31353" lon="5.25335">
        <ele>1020.4</ele>
        <time>2014-05-04T08:39:43Z</time>
      </trkpt>
      <trkpt lat="44.31349" lon="5.25337">
        <ele>1020.2</ele>
        <time>2014-05-04T08:39:44Z</time>
      </trkpt>
      <trkpt lat="44.31341" lon="5.25341">
        <ele>1019.6</ele>
        <time>2014-05-04T08:39:46Z</time>
      </trkpt>
      <trkpt lat="44.31336" lon="5.25346">
        <ele>1019.1</ele>
        <time>2014-05-04T08:39:48Z</time>
      </trkpt>
      <trkpt lat="44.31331" lon="5.25346">
        <ele>1018.4</ele>
        <time>2014-05-04T08:39:50Z</time>
      </trkpt>
      <trkpt lat="44.31326" lon="5.2534">
        <ele>1017.6</ele>
        <time>2014-05-04T08:39:53Z</time>
      </trkpt>
      <trkpt lat="44.31322" lon="5.25339">
        <ele>1016.5</ele>
        <time>2014-05-04T08:40:08Z</time>
      </trkpt>
      <trkpt lat="44.31317" lon="5.25339">
        <ele>1015.4</ele>
        <time>2014-05-04T08:40:10Z</time>
      </trkpt>
      <trkpt lat="44.31313" lon="5.25341">
        <ele>1014.1</ele>
        <time>2014-05-04T08:40:12Z</time>
      </trkpt>
      <trkpt lat="44.31308" lon="5.25346">
        <ele>1012.7</ele>
        <time>2014-05-04T08:40:14Z</time>
      </trkpt>
      <trkpt lat="44.31302" lon="5.25351">
        <ele>1011.1</ele>
        <time>2014-05-04T08:40:16Z</time>
      </trkpt>
      <trkpt lat="44.31296" lon="5.25357">
        <ele>1009.4</ele>
        <time>2014-05-04T08:40:18Z</time>
      </trkpt>
      <trkpt lat="44.3129" lon="5.25362">
        <ele>1007.7</ele>
        <time>2014-05-04T08:40:20Z</time>
      </trkpt>
      <trkpt lat="44.31284" lon="5.25366">
        <ele>1006.4</ele>
        <time>2014-05-04T08:40:22Z</time>
      </trkpt>
      <trkpt lat="44.31274" lon="5.25363">
        <ele>1004.1</ele>
        <time>2014-05-04T08:40:28Z</time>
      </trkpt>
      <trkpt lat="44.31269" lon="5.25363">
        <ele>1003</ele>
        <time>2014-05-04T08:40:31Z</time>
      </trkpt>
      <trkpt lat="44.31263" lon="5.25361">
        <ele>1001.7</ele>
        <time>2014-05-04T08:40:34Z</time>
      </trkpt>
      <trkpt lat="44.31257" lon="5.25359">
        <ele>1000.2</ele>
        <time>2014-05-04T08:40:37Z</time>
      </trkpt>
      <trkpt lat="44.31252" lon="5.2536">
        <ele>999.1</ele>
        <time>2014-05-04T08:40:39Z</time>
      </trkpt>
      <trkpt lat="44.31248" lon="5.25363">
        <ele>997.9</ele>
        <time>2014-05-04T08:40:41Z</time>
      </trkpt>
      <trkpt lat="44.31243" lon="5.25366">
        <ele>996.5</ele>
        <time>2014-05-04T08:40:43Z</time>
      </trkpt>
      <trkpt lat="44.31238" lon="5.25372">
        <ele>994.8</ele>
        <time>2014-05-04T08:40:45Z</time>
      </trkpt>
      <trkpt lat="44.31233" lon="5.25375">
        <ele>993.2</ele>
        <time>2014-05-04T08:40:47Z</time>
      </trkpt>
      <trkpt lat="44.31227" lon="5.25375">
        <ele>991.5</ele>
        <time>2014-05-04T08:40:49Z</time>
      </trkpt>
      <trkpt lat="44.31222" lon="5.25375">
        <ele>989.7</ele>
        <time>2014-05-04T08:40:51Z</time>
      </trkpt>
      <trkpt lat="44.31218" lon="5.2537">
        <ele>988</ele>
        <time>2014-05-04T08:40:53Z</time>
      </trkpt>
      <trkpt lat="44.31213" lon="5.25364">
        <ele>986.3</ele>
        <time>2014-05-04T08:40:55Z</time>
      </trkpt>
      <trkpt lat="44.31208" lon="5.25363">
        <ele>984.3</ele>
        <time>2014-05-04T08:40:57Z</time>
      </trkpt>
      <trkpt lat="44.31203" lon="5.25368">
        <ele>983.1</ele>
        <time>2014-05-04T08:40:59Z</time>
      </trkpt>
      <trkpt lat="44.31198" lon="5.25378">
        <ele>981.5</ele>
        <time>2014-05-04T08:41:01Z</time>
      </trkpt>
      <trkpt lat="44.31194" lon="5.25388">
        <ele>980.6</ele>
        <time>2014-05-04T08:41:03Z</time>
      </trkpt>
      <trkpt lat="44.31191" lon="5.25396">
        <ele>980</ele>
        <time>2014-05-04T08:41:05Z</time>
      </trkpt>
      <trkpt lat="44.31189" lon="5.25404">
        <ele>979.7</ele>
        <time>2014-05-04T08:41:07Z</time>
      </trkpt>
      <trkpt lat="44.31186" lon="5.25412">
        <ele>979.1</ele>
        <time>2014-05-04T08:41:09Z</time>
      </trkpt>
      <trkpt lat="44.31183" lon="5.25419">
        <ele>978.2</ele>
        <time>2014-05-04T08:41:11Z</time>
      </trkpt>
      <trkpt lat="44.31181" lon="5.25429">
        <ele>977.5</ele>
        <time>2014-05-04T08:41:13Z</time>
      </trkpt>
      <trkpt lat="44.31179" lon="5.25437">
        <ele>976.6</ele>
        <time>2014-05-04T08:41:15Z</time>
      </trkpt>
      <trkpt lat="44.31177" lon="5.25446">
        <ele>975.7</ele>
        <time>2014-05-04T08:41:17Z</time>
      </trkpt>
      <trkpt lat="44.31176" lon="5.25456">
        <ele>975.3</ele>
        <time>2014-05-04T08:41:19Z</time>
      </trkpt>
      <trkpt lat="44.31176" lon="5.25465">
        <ele>975.1</ele>
        <time>2014-05-04T08:41:21Z</time>
      </trkpt>
      <trkpt lat="44.31176" lon="5.25476">
        <ele>974.8</ele>
        <time>2014-05-04T08:41:23Z</time>
      </trkpt>
      <trkpt lat="44.31175" lon="5.25487">
        <ele>974.4</ele>
        <time>2014-05-04T08:41:25Z</time>
      </trkpt>
      <trkpt lat="44.31175" lon="5.2551">
        <ele>973.3</ele>
        <time>2014-05-04T08:41:29Z</time>
      </trkpt>
      <trkpt lat="44.31175" lon="5.25522">
        <ele>972</ele>
        <time>2014-05-04T08:41:31Z</time>
      </trkpt>
      <trkpt lat="44.31174" lon="5.25532">
        <ele>971.1</ele>
        <time>2014-05-04T08:41:33Z</time>
      </trkpt>
      <trkpt lat="44.31173" lon="5.25541">
        <ele>969.9</ele>
        <time>2014-05-04T08:41:35Z</time>
      </trkpt>
      <trkpt lat="44.31169" lon="5.2555">
        <ele>968.3</ele>
        <time>2014-05-04T08:41:37Z</time>
      </trkpt>
      <trkpt lat="44.31167" lon="5.2556">
        <ele>967</ele>
        <time>2014-05-04T08:41:39Z</time>
      </trkpt>
      <trkpt lat="44.31164" lon="5.25568">
        <ele>965.3</ele>
        <time>2014-05-04T08:41:41Z</time>
      </trkpt>
      <trkpt lat="44.31162" lon="5.25578">
        <ele>963.7</ele>
        <time>2014-05-04T08:41:43Z</time>
      </trkpt>
      <trkpt lat="44.3116" lon="5.25588">
        <ele>961.8</ele>
        <time>2014-05-04T08:41:45Z</time>
      </trkpt>
      <trkpt lat="44.31159" lon="5.25598">
        <ele>960.3</ele>
        <time>2014-05-04T08:41:47Z</time>
      </trkpt>
      <trkpt lat="44.31158" lon="5.2561">
        <ele>958.9</ele>
        <time>2014-05-04T08:41:49Z</time>
      </trkpt>
      <trkpt lat="44.31156" lon="5.25621">
        <ele>956.8</ele>
        <time>2014-05-04T08:41:51Z</time>
      </trkpt>
      <trkpt lat="44.31154" lon="5.2563">
        <ele>955.4</ele>
        <time>2014-05-04T08:41:53Z</time>
      </trkpt>
      <trkpt lat="44.31154" lon="5.25638">
        <ele>954.5</ele>
        <time>2014-05-04T08:41:55Z</time>
      </trkpt>
      <trkpt lat="44.31152" lon="5.25648">
        <ele>952.7</ele>
        <time>2014-05-04T08:41:57Z</time>
      </trkpt>
      <trkpt lat="44.3115" lon="5.25657">
        <ele>950.9</ele>
        <time>2014-05-04T08:41:59Z</time>
      </trkpt>
      <trkpt lat="44.31147" lon="5.25666">
        <ele>948.8</ele>
        <time>2014-05-04T08:42:01Z</time>
      </trkpt>
      <trkpt lat="44.31142" lon="5.25676">
        <ele>945.9</ele>
        <time>2014-05-04T08:42:03Z</time>
      </trkpt>
      <trkpt lat="44.31139" lon="5.25687">
        <ele>943.6</ele>
        <time>2014-05-04T08:42:05Z</time>
      </trkpt>
      <trkpt lat="44.31138" lon="5.25696">
        <ele>942</ele>
        <time>2014-05-04T08:42:07Z</time>
      </trkpt>
      <trkpt lat="44.31135" lon="5.25704">
        <ele>940</ele>
        <time>2014-05-04T08:42:09Z</time>
      </trkpt>
      <trkpt lat="44.31132" lon="5.2571">
        <ele>938.3</ele>
        <time>2014-05-04T08:42:11Z</time>
      </trkpt>
      <trkpt lat="44.31128" lon="5.25716">
        <ele>936.6</ele>
        <time>2014-05-04T08:42:13Z</time>
      </trkpt>
      <trkpt lat="44.31127" lon="5.25723">
        <ele>935.5</ele>
        <time>2014-05-04T08:42:15Z</time>
      </trkpt>
      <trkpt lat="44.31124" lon="5.2573">
        <ele>933.9</ele>
        <time>2014-05-04T08:42:17Z</time>
      </trkpt>
      <trkpt lat="44.31122" lon="5.25741">
        <ele>932.4</ele>
        <time>2014-05-04T08:42:19Z</time>
      </trkpt>
      <trkpt lat="44.31119" lon="5.25751">
        <ele>930.6</ele>
        <time>2014-05-04T08:42:21Z</time>
      </trkpt>
      <trkpt lat="44.31117" lon="5.25759">
        <ele>929.5</ele>
        <time>2014-05-04T08:42:23Z</time>
      </trkpt>
      <trkpt lat="44.31114" lon="5.25766">
        <ele>928.3</ele>
        <time>2014-05-04T08:42:31Z</time>
      </trkpt>
      <trkpt lat="44.31108" lon="5.25778">
        <ele>925.8</ele>
        <time>2014-05-04T08:42:35Z</time>
      </trkpt>
      <trkpt lat="44.31105" lon="5.25786">
        <ele>924.6</ele>
        <time>2014-05-04T08:42:37Z</time>
      </trkpt>
      <trkpt lat="44.31101" lon="5.25793">
        <ele>923.5</ele>
        <time>2014-05-04T08:42:39Z</time>
      </trkpt>
      <trkpt lat="44.31098" lon="5.25801">
        <ele>922.5</ele>
        <time>2014-05-04T08:42:41Z</time>
      </trkpt>
      <trkpt lat="44.31095" lon="5.25809">
        <ele>921.6</ele>
        <time>2014-05-04T08:42:43Z</time>
      </trkpt>
      <trkpt lat="44.31093" lon="5.25817">
        <ele>921.1</ele>
        <time>2014-05-04T08:42:45Z</time>
      </trkpt>
      <trkpt lat="44.31091" lon="5.25824">
        <ele>920.6</ele>
        <time>2014-05-04T08:42:47Z</time>
      </trkpt>
      <trkpt lat="44.3109" lon="5.25832">
        <ele>920.1</ele>
        <time>2014-05-04T08:42:49Z</time>
      </trkpt>
      <trkpt lat="44.31088" lon="5.25838">
        <ele>919.3</ele>
        <time>2014-05-04T08:42:51Z</time>
      </trkpt>
      <trkpt lat="44.31085" lon="5.25844">
        <ele>918</ele>
        <time>2014-05-04T08:42:53Z</time>
      </trkpt>
      <trkpt lat="44.31083" lon="5.25852">
        <ele>916.6</ele>
        <time>2014-05-04T08:42:55Z</time>
      </trkpt>
      <trkpt lat="44.31082" lon="5.25859">
        <ele>914.7</ele>
        <time>2014-05-04T08:42:57Z</time>
      </trkpt>
      <trkpt lat="44.3108" lon="5.25866">
        <ele>913</ele>
        <time>2014-05-04T08:42:59Z</time>
      </trkpt>
      <trkpt lat="44.3108" lon="5.25874">
        <ele>911.8</ele>
        <time>2014-05-04T08:43:01Z</time>
      </trkpt>
      <trkpt lat="44.31081" lon="5.25881">
        <ele>911.4</ele>
        <time>2014-05-04T08:43:03Z</time>
      </trkpt>
      <trkpt lat="44.31082" lon="5.25888">
        <ele>911</ele>
        <time>2014-05-04T08:43:05Z</time>
      </trkpt>
      <trkpt lat="44.31083" lon="5.25898">
        <ele>910.2</ele>
        <time>2014-05-04T08:43:07Z</time>
      </trkpt>
      <trkpt lat="44.31084" lon="5.25906">
        <ele>909.5</ele>
        <time>2014-05-04T08:43:09Z</time>
      </trkpt>
      <trkpt lat="44.31085" lon="5.25913">
        <ele>908.8</ele>
        <time>2014-05-04T08:43:11Z</time>
      </trkpt>
      <trkpt lat="44.31085" lon="5.25921">
        <ele>907.9</ele>
        <time>2014-05-04T08:43:13Z</time>
      </trkpt>
      <trkpt lat="44.31086" lon="5.25929">
        <ele>907.1</ele>
        <time>2014-05-04T08:43:15Z</time>
      </trkpt>
      <trkpt lat="44.31087" lon="5.25937">
        <ele>906.5</ele>
        <time>2014-05-04T08:43:17Z</time>
      </trkpt>
      <trkpt lat="44.31088" lon="5.25946">
        <ele>905.7</ele>
        <time>2014-05-04T08:43:19Z</time>
      </trkpt>
      <trkpt lat="44.3109" lon="5.25956">
        <ele>904.7</ele>
        <time>2014-05-04T08:43:21Z</time>
      </trkpt>
      <trkpt lat="44.31091" lon="5.25964">
        <ele>904.1</ele>
        <time>2014-05-04T08:43:24Z</time>
      </trkpt>
      <trkpt lat="44.31093" lon="5.2597">
        <ele>903.7</ele>
        <time>2014-05-04T08:43:26Z</time>
      </trkpt>
      <trkpt lat="44.31094" lon="5.25976">
        <ele>903.4</ele>
        <time>2014-05-04T08:43:28Z</time>
      </trkpt>
      <trkpt lat="44.31096" lon="5.25983">
        <ele>903</ele>
        <time>2014-05-04T08:43:32Z</time>
      </trkpt>
      <trkpt lat="44.31097" lon="5.25997">
        <ele>901.8</ele>
        <time>2014-05-04T08:43:38Z</time>
      </trkpt>
      <trkpt lat="44.31095" lon="5.26005">
        <ele>901.6</ele>
        <time>2014-05-04T08:43:40Z</time>
      </trkpt>
      <trkpt lat="44.31092" lon="5.26014">
        <ele>901.9</ele>
        <time>2014-05-04T08:43:42Z</time>
      </trkpt>
      <trkpt lat="44.31089" lon="5.2602">
        <ele>902.3</ele>
        <time>2014-05-04T08:43:44Z</time>
      </trkpt>
      <trkpt lat="44.31088" lon="5.26026">
        <ele>903</ele>
        <time>2014-05-04T08:43:46Z</time>
      </trkpt>
      <trkpt lat="44.31085" lon="5.26033">
        <ele>903.5</ele>
        <time>2014-05-04T08:43:48Z</time>
      </trkpt>
      <trkpt lat="44.31083" lon="5.26039">
        <ele>903.7</ele>
        <time>2014-05-04T08:43:50Z</time>
      </trkpt>
      <trkpt lat="44.31078" lon="5.26046">
        <ele>902.2</ele>
        <time>2014-05-04T08:43:52Z</time>
      </trkpt>
      <trkpt lat="44.31074" lon="5.26053">
        <ele>901.3</ele>
        <time>2014-05-04T08:43:54Z</time>
      </trkpt>
      <trkpt lat="44.3107" lon="5.26059">
        <ele>900</ele>
        <time>2014-05-04T08:43:56Z</time>
      </trkpt>
      <trkpt lat="44.31066" lon="5.26064">
        <ele>898.6</ele>
        <time>2014-05-04T08:43:58Z</time>
      </trkpt>
      <trkpt lat="44.31061" lon="5.2607">
        <ele>896.5</ele>
        <time>2014-05-04T08:44:00Z</time>
      </trkpt>
      <trkpt lat="44.31056" lon="5.26074">
        <ele>894.5</ele>
        <time>2014-05-04T08:44:02Z</time>
      </trkpt>
      <trkpt lat="44.31051" lon="5.26078">
        <ele>892.2</ele>
        <time>2014-05-04T08:44:04Z</time>
      </trkpt>
      <trkpt lat="44.31048" lon="5.26083">
        <ele>891</ele>
        <time>2014-05-04T08:44:06Z</time>
      </trkpt>
      <trkpt lat="44.31044" lon="5.26088">
        <ele>889.5</ele>
        <time>2014-05-04T08:44:08Z</time>
      </trkpt>
      <trkpt lat="44.31042" lon="5.26096">
        <ele>889.5</ele>
        <time>2014-05-04T08:44:11Z</time>
      </trkpt>
      <trkpt lat="44.3104" lon="5.26102">
        <ele>889.1</ele>
        <time>2014-05-04T08:44:20Z</time>
      </trkpt>
      <trkpt lat="44.31039" lon="5.2611">
        <ele>889</ele>
        <time>2014-05-04T08:44:22Z</time>
      </trkpt>
      <trkpt lat="44.31038" lon="5.26118">
        <ele>889.3</ele>
        <time>2014-05-04T08:44:24Z</time>
      </trkpt>
      <trkpt lat="44.31037" lon="5.26128">
        <ele>889.7</ele>
        <time>2014-05-04T08:44:26Z</time>
      </trkpt>
      <trkpt lat="44.31035" lon="5.26138">
        <ele>889.6</ele>
        <time>2014-05-04T08:44:28Z</time>
      </trkpt>
      <trkpt lat="44.31033" lon="5.26148">
        <ele>889.4</ele>
        <time>2014-05-04T08:44:30Z</time>
      </trkpt>
      <trkpt lat="44.31033" lon="5.26156">
        <ele>890.1</ele>
        <time>2014-05-04T08:44:32Z</time>
      </trkpt>
      <trkpt lat="44.31031" lon="5.26164">
        <ele>889.9</ele>
        <time>2014-05-04T08:44:34Z</time>
      </trkpt>
      <trkpt lat="44.31029" lon="5.2618">
        <ele>888</ele>
        <time>2014-05-04T08:44:38Z</time>
      </trkpt>
      <trkpt lat="44.31027" lon="5.26191">
        <ele>886.4</ele>
        <time>2014-05-04T08:44:40Z</time>
      </trkpt>
      <trkpt lat="44.31026" lon="5.26201">
        <ele>885.4</ele>
        <time>2014-05-04T08:44:42Z</time>
      </trkpt>
      <trkpt lat="44.31025" lon="5.26212">
        <ele>884.6</ele>
        <time>2014-05-04T08:44:44Z</time>
      </trkpt>
      <trkpt lat="44.31024" lon="5.26218">
        <ele>883.7</ele>
        <time>2014-05-04T08:44:45Z</time>
      </trkpt>
      <trkpt lat="44.31023" lon="5.26224">
        <ele>882.9</ele>
        <time>2014-05-04T08:44:46Z</time>
      </trkpt>
      <trkpt lat="44.31022" lon="5.26231">
        <ele>882</ele>
        <time>2014-05-04T08:44:47Z</time>
      </trkpt>
      <trkpt lat="44.31021" lon="5.26237">
        <ele>881.2</ele>
        <time>2014-05-04T08:44:48Z</time>
      </trkpt>
      <trkpt lat="44.3102" lon="5.26243">
        <ele>880.4</ele>
        <time>2014-05-04T08:44:49Z</time>
      </trkpt>
      <trkpt lat="44.31019" lon="5.2625">
        <ele>879.6</ele>
        <time>2014-05-04T08:44:50Z</time>
      </trkpt>
      <trkpt lat="44.31018" lon="5.2626">
        <ele>878.2</ele>
        <time>2014-05-04T08:44:52Z</time>
      </trkpt>
      <trkpt lat="44.31017" lon="5.26271">
        <ele>877.1</ele>
        <time>2014-05-04T08:44:54Z</time>
      </trkpt>
      <trkpt lat="44.31015" lon="5.26283">
        <ele>875.7</ele>
        <time>2014-05-04T08:44:56Z</time>
      </trkpt>
      <trkpt lat="44.31014" lon="5.2629">
        <ele>874.9</ele>
        <time>2014-05-04T08:44:57Z</time>
      </trkpt>
      <trkpt lat="44.31013" lon="5.26296">
        <ele>874.1</ele>
        <time>2014-05-04T08:44:58Z</time>
      </trkpt>
      <trkpt lat="44.31012" lon="5.26303">
        <ele>873.2</ele>
        <time>2014-05-04T08:44:59Z</time>
      </trkpt>
      <trkpt lat="44.3101" lon="5.2631">
        <ele>872.2</ele>
        <time>2014-05-04T08:45:00Z</time>
      </trkpt>
      <trkpt lat="44.31009" lon="5.26317">
        <ele>871.3</ele>
        <time>2014-05-04T08:45:01Z</time>
      </trkpt>
      <trkpt lat="44.31008" lon="5.26324">
        <ele>870.5</ele>
        <time>2014-05-04T08:45:02Z</time>
      </trkpt>
      <trkpt lat="44.31007" lon="5.2633">
        <ele>870</ele>
        <time>2014-05-04T08:45:03Z</time>
      </trkpt>
      <trkpt lat="44.31006" lon="5.26341">
        <ele>868.6</ele>
        <time>2014-05-04T08:45:05Z</time>
      </trkpt>
      <trkpt lat="44.31005" lon="5.26349">
        <ele>867.7</ele>
        <time>2014-05-04T08:45:07Z</time>
      </trkpt>
      <trkpt lat="44.31005" lon="5.26356">
        <ele>866.9</ele>
        <time>2014-05-04T08:45:09Z</time>
      </trkpt>
      <trkpt lat="44.31004" lon="5.26364">
        <ele>865.7</ele>
        <time>2014-05-04T08:45:22Z</time>
      </trkpt>
      <trkpt lat="44.31003" lon="5.26375">
        <ele>864.4</ele>
        <time>2014-05-04T08:45:24Z</time>
      </trkpt>
      <trkpt lat="44.31002" lon="5.26381">
        <ele>863.7</ele>
        <time>2014-05-04T08:45:25Z</time>
      </trkpt>
      <trkpt lat="44.31003" lon="5.26388">
        <ele>863.4</ele>
        <time>2014-05-04T08:45:26Z</time>
      </trkpt>
      <trkpt lat="44.31003" lon="5.26395">
        <ele>862.9</ele>
        <time>2014-05-04T08:45:27Z</time>
      </trkpt>
      <trkpt lat="44.31003" lon="5.26403">
        <ele>862.5</ele>
        <time>2014-05-04T08:45:28Z</time>
      </trkpt>
      <trkpt lat="44.31003" lon="5.26411">
        <ele>862.2</ele>
        <time>2014-05-04T08:45:29Z</time>
      </trkpt>
      <trkpt lat="44.31004" lon="5.26419">
        <ele>861.9</ele>
        <time>2014-05-04T08:45:30Z</time>
      </trkpt>
      <trkpt lat="44.31005" lon="5.26427">
        <ele>861.3</ele>
        <time>2014-05-04T08:45:31Z</time>
      </trkpt>
      <trkpt lat="44.31006" lon="5.26434">
        <ele>860.9</ele>
        <time>2014-05-04T08:45:32Z</time>
      </trkpt>
      <trkpt lat="44.31008" lon="5.26442">
        <ele>860.5</ele>
        <time>2014-05-04T08:45:33Z</time>
      </trkpt>
      <trkpt lat="44.31009" lon="5.2645">
        <ele>860.1</ele>
        <time>2014-05-04T08:45:34Z</time>
      </trkpt>
      <trkpt lat="44.3101" lon="5.26458">
        <ele>859.6</ele>
        <time>2014-05-04T08:45:35Z</time>
      </trkpt>
      <trkpt lat="44.31013" lon="5.26474">
        <ele>858.5</ele>
        <time>2014-05-04T08:45:37Z</time>
      </trkpt>
      <trkpt lat="44.31014" lon="5.26482">
        <ele>857.9</ele>
        <time>2014-05-04T08:45:38Z</time>
      </trkpt>
      <trkpt lat="44.31015" lon="5.26492">
        <ele>857.2</ele>
        <time>2014-05-04T08:45:39Z</time>
      </trkpt>
      <trkpt lat="44.31017" lon="5.26502">
        <ele>856.3</ele>
        <time>2014-05-04T08:45:40Z</time>
      </trkpt>
      <trkpt lat="44.31018" lon="5.26512">
        <ele>855.1</ele>
        <time>2014-05-04T08:45:41Z</time>
      </trkpt>
      <trkpt lat="44.31019" lon="5.26522">
        <ele>853.9</ele>
        <time>2014-05-04T08:45:42Z</time>
      </trkpt>
      <trkpt lat="44.3102" lon="5.26531">
        <ele>852.7</ele>
        <time>2014-05-04T08:45:43Z</time>
      </trkpt>
      <trkpt lat="44.3102" lon="5.26539">
        <ele>851.2</ele>
        <time>2014-05-04T08:45:44Z</time>
      </trkpt>
      <trkpt lat="44.3102" lon="5.26547">
        <ele>849.6</ele>
        <time>2014-05-04T08:45:45Z</time>
      </trkpt>
      <trkpt lat="44.31019" lon="5.26555">
        <ele>848</ele>
        <time>2014-05-04T08:45:46Z</time>
      </trkpt>
      <trkpt lat="44.31018" lon="5.26562">
        <ele>846.4</ele>
        <time>2014-05-04T08:45:47Z</time>
      </trkpt>
      <trkpt lat="44.31017" lon="5.26569">
        <ele>844.6</ele>
        <time>2014-05-04T08:45:48Z</time>
      </trkpt>
      <trkpt lat="44.31016" lon="5.26576">
        <ele>843</ele>
        <time>2014-05-04T08:45:49Z</time>
      </trkpt>
      <trkpt lat="44.31015" lon="5.26583">
        <ele>841.2</ele>
        <time>2014-05-04T08:45:50Z</time>
      </trkpt>
      <trkpt lat="44.31015" lon="5.2659">
        <ele>839.7</ele>
        <time>2014-05-04T08:45:51Z</time>
      </trkpt>
      <trkpt lat="44.31016" lon="5.26601">
        <ele>837.7</ele>
        <time>2014-05-04T08:45:53Z</time>
      </trkpt>
      <trkpt lat="44.31017" lon="5.26614">
        <ele>835.3</ele>
        <time>2014-05-04T08:45:55Z</time>
      </trkpt>
      <trkpt lat="44.31017" lon="5.2662">
        <ele>833.9</ele>
        <time>2014-05-04T08:45:56Z</time>
      </trkpt>
      <trkpt lat="44.31018" lon="5.26627">
        <ele>832.7</ele>
        <time>2014-05-04T08:45:57Z</time>
      </trkpt>
      <trkpt lat="44.31019" lon="5.26634">
        <ele>831.3</ele>
        <time>2014-05-04T08:45:58Z</time>
      </trkpt>
      <trkpt lat="44.3102" lon="5.26641">
        <ele>830.2</ele>
        <time>2014-05-04T08:45:59Z</time>
      </trkpt>
      <trkpt lat="44.31021" lon="5.26647">
        <ele>829</ele>
        <time>2014-05-04T08:46:00Z</time>
      </trkpt>
      <trkpt lat="44.31021" lon="5.26654">
        <ele>827.9</ele>
        <time>2014-05-04T08:46:01Z</time>
      </trkpt>
      <trkpt lat="44.31022" lon="5.26661">
        <ele>826.5</ele>
        <time>2014-05-04T08:46:02Z</time>
      </trkpt>
      <trkpt lat="44.31024" lon="5.2667">
        <ele>825.5</ele>
        <time>2014-05-04T08:46:03Z</time>
      </trkpt>
      <trkpt lat="44.31026" lon="5.26678">
        <ele>824.7</ele>
        <time>2014-05-04T08:46:04Z</time>
      </trkpt>
      <trkpt lat="44.31029" lon="5.26685">
        <ele>824</ele>
        <time>2014-05-04T08:46:05Z</time>
      </trkpt>
      <trkpt lat="44.3103" lon="5.26693">
        <ele>823.1</ele>
        <time>2014-05-04T08:46:06Z</time>
      </trkpt>
      <trkpt lat="44.31032" lon="5.267">
        <ele>822</ele>
        <time>2014-05-04T08:46:07Z</time>
      </trkpt>
      <trkpt lat="44.31034" lon="5.26708">
        <ele>821</ele>
        <time>2014-05-04T08:46:08Z</time>
      </trkpt>
      <trkpt lat="44.31036" lon="5.26716">
        <ele>820</ele>
        <time>2014-05-04T08:46:09Z</time>
      </trkpt>
      <trkpt lat="44.31037" lon="5.26724">
        <ele>818.8</ele>
        <time>2014-05-04T08:46:10Z</time>
      </trkpt>
      <trkpt lat="44.31039" lon="5.26731">
        <ele>817.8</ele>
        <time>2014-05-04T08:46:11Z</time>
      </trkpt>
      <trkpt lat="44.3104" lon="5.26738">
        <ele>816.8</ele>
        <time>2014-05-04T08:46:12Z</time>
      </trkpt>
      <trkpt lat="44.31041" lon="5.26744">
        <ele>815.7</ele>
        <time>2014-05-04T08:46:13Z</time>
      </trkpt>
      <trkpt lat="44.31042" lon="5.26752">
        <ele>814.3</ele>
        <time>2014-05-04T08:46:14Z</time>
      </trkpt>
      <trkpt lat="44.31042" lon="5.2676">
        <ele>813.1</ele>
        <time>2014-05-04T08:46:15Z</time>
      </trkpt>
      <trkpt lat="44.31042" lon="5.26767">
        <ele>811.7</ele>
        <time>2014-05-04T08:46:16Z</time>
      </trkpt>
      <trkpt lat="44.31042" lon="5.26775">
        <ele>810.3</ele>
        <time>2014-05-04T08:46:17Z</time>
      </trkpt>
      <trkpt lat="44.31041" lon="5.26783">
        <ele>808.8</ele>
        <time>2014-05-04T08:46:18Z</time>
      </trkpt>
      <trkpt lat="44.31041" lon="5.2679">
        <ele>807.5</ele>
        <time>2014-05-04T08:46:19Z</time>
      </trkpt>
      <trkpt lat="44.3104" lon="5.26797">
        <ele>806.1</ele>
        <time>2014-05-04T08:46:20Z</time>
      </trkpt>
      <trkpt lat="44.31039" lon="5.26804">
        <ele>804.9</ele>
        <time>2014-05-04T08:46:21Z</time>
      </trkpt>
      <trkpt lat="44.31037" lon="5.26816">
        <ele>802.6</ele>
        <time>2014-05-04T08:46:23Z</time>
      </trkpt>
      <trkpt lat="44.31036" lon="5.26823">
        <ele>801.2</ele>
        <time>2014-05-04T08:46:24Z</time>
      </trkpt>
      <trkpt lat="44.31034" lon="5.26831">
        <ele>799.9</ele>
        <time>2014-05-04T08:46:25Z</time>
      </trkpt>
      <trkpt lat="44.31033" lon="5.26839">
        <ele>798.4</ele>
        <time>2014-05-04T08:46:26Z</time>
      </trkpt>
      <trkpt lat="44.31031" lon="5.26847">
        <ele>797</ele>
        <time>2014-05-04T08:46:27Z</time>
      </trkpt>
      <trkpt lat="44.31029" lon="5.26855">
        <ele>795.5</ele>
        <time>2014-05-04T08:46:28Z</time>
      </trkpt>
      <trkpt lat="44.31027" lon="5.26864">
        <ele>794.2</ele>
        <time>2014-05-04T08:46:29Z</time>
      </trkpt>
      <trkpt lat="44.31025" lon="5.26873">
        <ele>792.9</ele>
        <time>2014-05-04T08:46:30Z</time>
      </trkpt>
      <trkpt lat="44.31023" lon="5.26881">
        <ele>791.8</ele>
        <time>2014-05-04T08:46:31Z</time>
      </trkpt>
      <trkpt lat="44.31022" lon="5.26889">
        <ele>790.9</ele>
        <time>2014-05-04T08:46:32Z</time>
      </trkpt>
      <trkpt lat="44.3102" lon="5.26897">
        <ele>790</ele>
        <time>2014-05-04T08:46:33Z</time>
      </trkpt>
      <trkpt lat="44.31019" lon="5.26904">
        <ele>789.1</ele>
        <time>2014-05-04T08:46:34Z</time>
      </trkpt>
      <trkpt lat="44.31017" lon="5.26912">
        <ele>788.4</ele>
        <time>2014-05-04T08:46:35Z</time>
      </trkpt>
      <trkpt lat="44.31015" lon="5.26921">
        <ele>786.7</ele>
        <time>2014-05-04T08:46:36Z</time>
      </trkpt>
      <trkpt lat="44.31014" lon="5.26929">
        <ele>784.2</ele>
        <time>2014-05-04T08:46:37Z</time>
      </trkpt>
      <trkpt lat="44.31011" lon="5.26945">
        <ele>778.9</ele>
        <time>2014-05-04T08:46:39Z</time>
      </trkpt>
      <trkpt lat="44.31011" lon="5.26952">
        <ele>776.1</ele>
        <time>2014-05-04T08:46:40Z</time>
      </trkpt>
      <trkpt lat="44.31012" lon="5.26963">
        <ele>772.2</ele>
        <time>2014-05-04T08:46:42Z</time>
      </trkpt>
      <trkpt lat="44.31017" lon="5.2697">
        <ele>768.8</ele>
        <time>2014-05-04T08:46:44Z</time>
      </trkpt>
      <trkpt lat="44.31024" lon="5.26974">
        <ele>766.8</ele>
        <time>2014-05-04T08:46:46Z</time>
      </trkpt>
      <trkpt lat="44.31032" lon="5.26977">
        <ele>765.2</ele>
        <time>2014-05-04T08:46:48Z</time>
      </trkpt>
      <trkpt lat="44.3104" lon="5.26982">
        <ele>763.3</ele>
        <time>2014-05-04T08:46:50Z</time>
      </trkpt>
      <trkpt lat="44.31047" lon="5.26986">
        <ele>761.1</ele>
        <time>2014-05-04T08:46:52Z</time>
      </trkpt>
      <trkpt lat="44.31055" lon="5.2699">
        <ele>759.4</ele>
        <time>2014-05-04T08:46:54Z</time>
      </trkpt>
      <trkpt lat="44.31063" lon="5.26995">
        <ele>757.4</ele>
        <time>2014-05-04T08:46:56Z</time>
      </trkpt>
      <trkpt lat="44.3107" lon="5.26997">
        <ele>756.3</ele>
        <time>2014-05-04T08:46:58Z</time>
      </trkpt>
      <trkpt lat="44.31077" lon="5.26998">
        <ele>755.9</ele>
        <time>2014-05-04T08:47:00Z</time>
      </trkpt>
      <trkpt lat="44.31084" lon="5.26998">
        <ele>755.3</ele>
        <time>2014-05-04T08:47:02Z</time>
      </trkpt>
      <trkpt lat="44.31094" lon="5.26996">
        <ele>752.6</ele>
        <time>2014-05-04T08:47:04Z</time>
      </trkpt>
      <trkpt lat="44.31099" lon="5.26995">
        <ele>750.9</ele>
        <time>2014-05-04T08:47:05Z</time>
      </trkpt>
      <trkpt lat="44.31104" lon="5.26995">
        <ele>749.1</ele>
        <time>2014-05-04T08:47:06Z</time>
      </trkpt>
      <trkpt lat="44.31109" lon="5.26996">
        <ele>746.9</ele>
        <time>2014-05-04T08:47:07Z</time>
      </trkpt>
      <trkpt lat="44.31114" lon="5.26998">
        <ele>744.7</ele>
        <time>2014-05-04T08:47:08Z</time>
      </trkpt>
      <trkpt lat="44.3112" lon="5.27">
        <ele>742.3</ele>
        <time>2014-05-04T08:47:09Z</time>
      </trkpt>
      <trkpt lat="44.31125" lon="5.27002">
        <ele>740.4</ele>
        <time>2014-05-04T08:47:10Z</time>
      </trkpt>
      <trkpt lat="44.3113" lon="5.27004">
        <ele>738.7</ele>
        <time>2014-05-04T08:47:11Z</time>
      </trkpt>
      <trkpt lat="44.31137" lon="5.27006">
        <ele>736.1</ele>
        <time>2014-05-04T08:47:13Z</time>
      </trkpt>
      <trkpt lat="44.31142" lon="5.27006">
        <ele>734.2</ele>
        <time>2014-05-04T08:47:15Z</time>
      </trkpt>
      <trkpt lat="44.31142" lon="5.27016">
        <ele>733.8</ele>
        <time>2014-05-04T08:50:32Z</time>
      </trkpt>
      <trkpt lat="44.31146" lon="5.27032">
        <ele>732.4</ele>
        <time>2014-05-04T08:50:38Z</time>
      </trkpt>
      <trkpt lat="44.3115" lon="5.27037">
        <ele>730.8</ele>
        <time>2014-05-04T08:50:40Z</time>
      </trkpt>
      <trkpt lat="44.31155" lon="5.27039">
        <ele>729.3</ele>
        <time>2014-05-04T08:50:42Z</time>
      </trkpt>
      <trkpt lat="44.31157" lon="5.27047">
        <ele>728.6</ele>
        <time>2014-05-04T08:50:44Z</time>
      </trkpt>
      <trkpt lat="44.31158" lon="5.27058">
        <ele>728.2</ele>
        <time>2014-05-04T08:50:46Z</time>
      </trkpt>
      <trkpt lat="44.3116" lon="5.27068">
        <ele>727.6</ele>
        <time>2014-05-04T08:50:48Z</time>
      </trkpt>
      <trkpt lat="44.31162" lon="5.27077">
        <ele>727.2</ele>
        <time>2014-05-04T08:50:50Z</time>
      </trkpt>
      <trkpt lat="44.31165" lon="5.27087">
        <ele>726.3</ele>
        <time>2014-05-04T08:50:52Z</time>
      </trkpt>
      <trkpt lat="44.31166" lon="5.27094">
        <ele>725.8</ele>
        <time>2014-05-04T08:50:53Z</time>
      </trkpt>
      <trkpt lat="44.31168" lon="5.27105">
        <ele>725</ele>
        <time>2014-05-04T08:50:55Z</time>
      </trkpt>
      <trkpt lat="44.3117" lon="5.27115">
        <ele>724</ele>
        <time>2014-05-04T08:50:57Z</time>
      </trkpt>
      <trkpt lat="44.31171" lon="5.27124">
        <ele>723.5</ele>
        <time>2014-05-04T08:50:59Z</time>
      </trkpt>
      <trkpt lat="44.31173" lon="5.27135">
        <ele>722.5</ele>
        <time>2014-05-04T08:51:01Z</time>
      </trkpt>
      <trkpt lat="44.31175" lon="5.27146">
        <ele>721.3</ele>
        <time>2014-05-04T08:51:03Z</time>
      </trkpt>
      <trkpt lat="44.31175" lon="5.27157">
        <ele>720.7</ele>
        <time>2014-05-04T08:51:05Z</time>
      </trkpt>
      <trkpt lat="44.31175" lon="5.27163">
        <ele>720.5</ele>
        <time>2014-05-04T08:51:06Z</time>
      </trkpt>
      <trkpt lat="44.31176" lon="5.2717">
        <ele>719.8</ele>
        <time>2014-05-04T08:51:07Z</time>
      </trkpt>
      <trkpt lat="44.31178" lon="5.27177">
        <ele>718.2</ele>
        <time>2014-05-04T08:51:08Z</time>
      </trkpt>
      <trkpt lat="44.31179" lon="5.27183">
        <ele>716.8</ele>
        <time>2014-05-04T08:51:09Z</time>
      </trkpt>
      <trkpt lat="44.31179" lon="5.27195">
        <ele>715.1</ele>
        <time>2014-05-04T08:51:11Z</time>
      </trkpt>
      <trkpt lat="44.31179" lon="5.27206">
        <ele>713.6</ele>
        <time>2014-05-04T08:51:13Z</time>
      </trkpt>
      <trkpt lat="44.31181" lon="5.27217">
        <ele>711.4</ele>
        <time>2014-05-04T08:51:15Z</time>
      </trkpt>
      <trkpt lat="44.31184" lon="5.27222">
        <ele>709.8</ele>
        <time>2014-05-04T08:51:16Z</time>
      </trkpt>
      <trkpt lat="44.31186" lon="5.27228">
        <ele>708.2</ele>
        <time>2014-05-04T08:51:17Z</time>
      </trkpt>
      <trkpt lat="44.31187" lon="5.27239">
        <ele>706.6</ele>
        <time>2014-05-04T08:51:19Z</time>
      </trkpt>
      <trkpt lat="44.31188" lon="5.2725">
        <ele>704.5</ele>
        <time>2014-05-04T08:51:21Z</time>
      </trkpt>
      <trkpt lat="44.31189" lon="5.27262">
        <ele>704.5</ele>
        <time>2014-05-04T08:51:23Z</time>
      </trkpt>
      <trkpt lat="44.3119" lon="5.27269">
        <ele>704.4</ele>
        <time>2014-05-04T08:51:24Z</time>
      </trkpt>
      <trkpt lat="44.31193" lon="5.27276">
        <ele>703.2</ele>
        <time>2014-05-04T08:51:26Z</time>
      </trkpt>
      <trkpt lat="44.31198" lon="5.27283">
        <ele>701.7</ele>
        <time>2014-05-04T08:51:28Z</time>
      </trkpt>
      <trkpt lat="44.31202" lon="5.27286">
        <ele>700.4</ele>
        <time>2014-05-04T08:51:29Z</time>
      </trkpt>
      <trkpt lat="44.31207" lon="5.2729">
        <ele>698.9</ele>
        <time>2014-05-04T08:51:31Z</time>
      </trkpt>
      <trkpt lat="44.3121" lon="5.27295">
        <ele>698</ele>
        <time>2014-05-04T08:51:33Z</time>
      </trkpt>
      <trkpt lat="44.31218" lon="5.27307">
        <ele>695.6</ele>
        <time>2014-05-04T08:51:37Z</time>
      </trkpt>
      <trkpt lat="44.3122" lon="5.27317">
        <ele>695.1</ele>
        <time>2014-05-04T08:51:39Z</time>
      </trkpt>
      <trkpt lat="44.3122" lon="5.27327">
        <ele>695.4</ele>
        <time>2014-05-04T08:51:41Z</time>
      </trkpt>
      <trkpt lat="44.31222" lon="5.27337">
        <ele>695.3</ele>
        <time>2014-05-04T08:51:43Z</time>
      </trkpt>
      <trkpt lat="44.31223" lon="5.27349">
        <ele>695.8</ele>
        <time>2014-05-04T08:51:45Z</time>
      </trkpt>
      <trkpt lat="44.31226" lon="5.27358">
        <ele>695.5</ele>
        <time>2014-05-04T08:51:47Z</time>
      </trkpt>
      <trkpt lat="44.3123" lon="5.27364">
        <ele>694.7</ele>
        <time>2014-05-04T08:51:49Z</time>
      </trkpt>
      <trkpt lat="44.31235" lon="5.27371">
        <ele>693.5</ele>
        <time>2014-05-04T08:51:51Z</time>
      </trkpt>
      <trkpt lat="44.31238" lon="5.27379">
        <ele>693.3</ele>
        <time>2014-05-04T08:51:53Z</time>
      </trkpt>
      <trkpt lat="44.31242" lon="5.27387">
        <ele>692.3</ele>
        <time>2014-05-04T08:51:55Z</time>
      </trkpt>
      <trkpt lat="44.31245" lon="5.27394">
        <ele>691.9</ele>
        <time>2014-05-04T08:51:57Z</time>
      </trkpt>
      <trkpt lat="44.31247" lon="5.274">
        <ele>691.9</ele>
        <time>2014-05-04T08:51:59Z</time>
      </trkpt>
      <trkpt lat="44.31249" lon="5.27407">
        <ele>691.6</ele>
        <time>2014-05-04T08:52:01Z</time>
      </trkpt>
      <trkpt lat="44.31251" lon="5.27414">
        <ele>691.3</ele>
        <time>2014-05-04T08:52:03Z</time>
      </trkpt>
      <trkpt lat="44.31252" lon="5.27424">
        <ele>691.4</ele>
        <time>2014-05-04T08:52:06Z</time>
      </trkpt>
      <trkpt lat="44.31253" lon="5.2743">
        <ele>691.2</ele>
        <time>2014-05-04T08:52:08Z</time>
      </trkpt>
      <trkpt lat="44.31255" lon="5.27437">
        <ele>690.5</ele>
        <time>2014-05-04T08:52:10Z</time>
      </trkpt>
      <trkpt lat="44.31256" lon="5.27446">
        <ele>690.7</ele>
        <time>2014-05-04T08:52:12Z</time>
      </trkpt>
      <trkpt lat="44.31257" lon="5.27452">
        <ele>690.3</ele>
        <time>2014-05-04T08:52:14Z</time>
      </trkpt>
      <trkpt lat="44.31259" lon="5.27461">
        <ele>689.8</ele>
        <time>2014-05-04T08:52:16Z</time>
      </trkpt>
      <trkpt lat="44.3126" lon="5.27472">
        <ele>689.7</ele>
        <time>2014-05-04T08:52:18Z</time>
      </trkpt>
      <trkpt lat="44.3126" lon="5.27482">
        <ele>690.1</ele>
        <time>2014-05-04T08:52:20Z</time>
      </trkpt>
      <trkpt lat="44.31257" lon="5.27487">
        <ele>691.7</ele>
        <time>2014-05-04T08:52:22Z</time>
      </trkpt>
      <trkpt lat="44.31257" lon="5.27495">
        <ele>691.6</ele>
        <time>2014-05-04T08:52:25Z</time>
      </trkpt>
      <trkpt lat="44.31256" lon="5.27503">
        <ele>692.2</ele>
        <time>2014-05-04T08:52:27Z</time>
      </trkpt>
      <trkpt lat="44.31258" lon="5.27512">
        <ele>691.6</ele>
        <time>2014-05-04T08:52:29Z</time>
      </trkpt>
      <trkpt lat="44.31261" lon="5.27521">
        <ele>690.6</ele>
        <time>2014-05-04T08:52:31Z</time>
      </trkpt>
      <trkpt lat="44.31262" lon="5.27529">
        <ele>690.2</ele>
        <time>2014-05-04T08:52:33Z</time>
      </trkpt>
      <trkpt lat="44.31262" lon="5.27536">
        <ele>690.5</ele>
        <time>2014-05-04T08:52:35Z</time>
      </trkpt>
      <trkpt lat="44.31262" lon="5.2755">
        <ele>690.6</ele>
        <time>2014-05-04T08:52:39Z</time>
      </trkpt>
      <trkpt lat="44.31264" lon="5.27557">
        <ele>689.8</ele>
        <time>2014-05-04T08:52:42Z</time>
      </trkpt>
      <trkpt lat="44.31264" lon="5.27564">
        <ele>689.8</ele>
        <time>2014-05-04T08:52:44Z</time>
      </trkpt>
      <trkpt lat="44.31264" lon="5.27572">
        <ele>689.9</ele>
        <time>2014-05-04T08:52:46Z</time>
      </trkpt>
      <trkpt lat="44.31265" lon="5.27579">
        <ele>689.9</ele>
        <time>2014-05-04T08:52:48Z</time>
      </trkpt>
      <trkpt lat="44.31266" lon="5.27589">
        <ele>689.2</ele>
        <time>2014-05-04T08:52:51Z</time>
      </trkpt>
      <trkpt lat="44.31265" lon="5.27595">
        <ele>689.7</ele>
        <time>2014-05-04T08:52:53Z</time>
      </trkpt>
      <trkpt lat="44.31263" lon="5.27602">
        <ele>690.4</ele>
        <time>2014-05-04T08:52:56Z</time>
      </trkpt>
      <trkpt lat="44.31264" lon="5.27612">
        <ele>689.6</ele>
        <time>2014-05-04T08:52:59Z</time>
      </trkpt>
      <trkpt lat="44.31265" lon="5.2762">
        <ele>688.9</ele>
        <time>2014-05-04T08:53:01Z</time>
      </trkpt>
      <trkpt lat="44.31268" lon="5.27628">
        <ele>687.4</ele>
        <time>2014-05-04T08:53:03Z</time>
      </trkpt>
      <trkpt lat="44.31271" lon="5.27637">
        <ele>686.2</ele>
        <time>2014-05-04T08:53:05Z</time>
      </trkpt>
      <trkpt lat="44.3127" lon="5.27648">
        <ele>686.2</ele>
        <time>2014-05-04T08:53:07Z</time>
      </trkpt>
      <trkpt lat="44.31271" lon="5.27656">
        <ele>685.5</ele>
        <time>2014-05-04T08:53:09Z</time>
      </trkpt>
      <trkpt lat="44.31274" lon="5.27666">
        <ele>684.2</ele>
        <time>2014-05-04T08:53:11Z</time>
      </trkpt>
      <trkpt lat="44.31275" lon="5.27673">
        <ele>683.4</ele>
        <time>2014-05-04T08:53:12Z</time>
      </trkpt>
      <trkpt lat="44.31276" lon="5.27679">
        <ele>682.7</ele>
        <time>2014-05-04T08:53:13Z</time>
      </trkpt>
      <trkpt lat="44.31277" lon="5.2769">
        <ele>681.9</ele>
        <time>2014-05-04T08:53:15Z</time>
      </trkpt>
      <trkpt lat="44.31276" lon="5.27697">
        <ele>682.1</ele>
        <time>2014-05-04T08:53:17Z</time>
      </trkpt>
      <trkpt lat="44.31275" lon="5.27704">
        <ele>682.4</ele>
        <time>2014-05-04T08:53:19Z</time>
      </trkpt>
      <trkpt lat="44.31274" lon="5.27711">
        <ele>682.7</ele>
        <time>2014-05-04T08:53:21Z</time>
      </trkpt>
      <trkpt lat="44.31276" lon="5.27719">
        <ele>681.7</ele>
        <time>2014-05-04T08:53:23Z</time>
      </trkpt>
      <trkpt lat="44.31276" lon="5.27726">
        <ele>681.5</ele>
        <time>2014-05-04T08:53:25Z</time>
      </trkpt>
      <trkpt lat="44.31276" lon="5.27736">
        <ele>681.4</ele>
        <time>2014-05-04T08:53:28Z</time>
      </trkpt>
      <trkpt lat="44.31277" lon="5.27744">
        <ele>680.5</ele>
        <time>2014-05-04T08:53:30Z</time>
      </trkpt>
      <trkpt lat="44.31278" lon="5.27754">
        <ele>680</ele>
        <time>2014-05-04T08:53:32Z</time>
      </trkpt>
      <trkpt lat="44.31276" lon="5.2776">
        <ele>680.6</ele>
        <time>2014-05-04T08:53:34Z</time>
      </trkpt>
      <trkpt lat="44.31271" lon="5.27766">
        <ele>682.6</ele>
        <time>2014-05-04T08:53:37Z</time>
      </trkpt>
      <trkpt lat="44.31265" lon="5.2778">
        <ele>685.3</ele>
        <time>2014-05-04T08:53:43Z</time>
      </trkpt>
      <trkpt lat="44.31263" lon="5.27789">
        <ele>685.9</ele>
        <time>2014-05-04T08:53:46Z</time>
      </trkpt>
      <trkpt lat="44.31262" lon="5.27797">
        <ele>686.5</ele>
        <time>2014-05-04T08:53:49Z</time>
      </trkpt>
      <trkpt lat="44.3126" lon="5.27804">
        <ele>686.9</ele>
        <time>2014-05-04T08:53:52Z</time>
      </trkpt>
      <trkpt lat="44.3126" lon="5.27811">
        <ele>687.2</ele>
        <time>2014-05-04T08:53:55Z</time>
      </trkpt>
      <trkpt lat="44.31258" lon="5.27818">
        <ele>687.6</ele>
        <time>2014-05-04T08:53:58Z</time>
      </trkpt>
      <trkpt lat="44.31257" lon="5.27825">
        <ele>688.2</ele>
        <time>2014-05-04T08:54:01Z</time>
      </trkpt>
      <trkpt lat="44.31254" lon="5.27832">
        <ele>689</ele>
        <time>2014-05-04T08:54:04Z</time>
      </trkpt>
      <trkpt lat="44.31252" lon="5.27839">
        <ele>689.7</ele>
        <time>2014-05-04T08:54:07Z</time>
      </trkpt>
      <trkpt lat="44.31249" lon="5.27846">
        <ele>690.3</ele>
        <time>2014-05-04T08:54:10Z</time>
      </trkpt>
      <trkpt lat="44.31247" lon="5.27853">
        <ele>690.4</ele>
        <time>2014-05-04T08:54:13Z</time>
      </trkpt>
      <trkpt lat="44.31246" lon="5.2786">
        <ele>690.5</ele>
        <time>2014-05-04T08:54:16Z</time>
      </trkpt>
      <trkpt lat="44.31244" lon="5.27868">
        <ele>690.6</ele>
        <time>2014-05-04T08:54:19Z</time>
      </trkpt>
      <trkpt lat="44.31242" lon="5.27875">
        <ele>690.6</ele>
        <time>2014-05-04T08:54:21Z</time>
      </trkpt>
      <trkpt lat="44.3124" lon="5.27882">
        <ele>690.9</ele>
        <time>2014-05-04T08:54:23Z</time>
      </trkpt>
      <trkpt lat="44.31238" lon="5.27889">
        <ele>691.3</ele>
        <time>2014-05-04T08:54:25Z</time>
      </trkpt>
      <trkpt lat="44.31236" lon="5.27898">
        <ele>691.5</ele>
        <time>2014-05-04T08:54:27Z</time>
      </trkpt>
      <trkpt lat="44.31235" lon="5.27906">
        <ele>691.4</ele>
        <time>2014-05-04T08:54:29Z</time>
      </trkpt>
      <trkpt lat="44.31234" lon="5.27916">
        <ele>691.1</ele>
        <time>2014-05-04T08:54:31Z</time>
      </trkpt>
      <trkpt lat="44.31233" lon="5.27924">
        <ele>690.9</ele>
        <time>2014-05-04T08:54:33Z</time>
      </trkpt>
      <trkpt lat="44.31232" lon="5.27932">
        <ele>690.9</ele>
        <time>2014-05-04T08:54:35Z</time>
      </trkpt>
      <trkpt lat="44.31231" lon="5.27939">
        <ele>690.9</ele>
        <time>2014-05-04T08:54:37Z</time>
      </trkpt>
      <trkpt lat="44.3123" lon="5.27947">
        <ele>690.8</ele>
        <time>2014-05-04T08:54:39Z</time>
      </trkpt>
      <trkpt lat="44.31227" lon="5.27961">
        <ele>690.7</ele>
        <time>2014-05-04T08:54:43Z</time>
      </trkpt>
      <trkpt lat="44.31225" lon="5.27967">
        <ele>691.1</ele>
        <time>2014-05-04T08:54:45Z</time>
      </trkpt>
      <trkpt lat="44.31222" lon="5.27973">
        <ele>691.8</ele>
        <time>2014-05-04T08:54:48Z</time>
      </trkpt>
      <trkpt lat="44.31217" lon="5.27977">
        <ele>693.1</ele>
        <time>2014-05-04T08:54:51Z</time>
      </trkpt>
      <trkpt lat="44.31212" lon="5.27979">
        <ele>694.6</ele>
        <time>2014-05-04T08:54:54Z</time>
      </trkpt>
      <trkpt lat="44.31209" lon="5.27985">
        <ele>695.4</ele>
        <time>2014-05-04T08:54:57Z</time>
      </trkpt>
      <trkpt lat="44.31206" lon="5.2799">
        <ele>696.2</ele>
        <time>2014-05-04T08:55:01Z</time>
      </trkpt>
      <trkpt lat="44.31203" lon="5.27995">
        <ele>697</ele>
        <time>2014-05-04T09:13:10Z</time>
      </trkpt>
      <trkpt lat="44.31197" lon="5.28007">
        <ele>698</ele>
        <time>2014-05-04T09:13:27Z</time>
      </trkpt>
      <trkpt lat="44.31194" lon="5.28012">
        <ele>698.7</ele>
        <time>2014-05-04T09:13:30Z</time>
      </trkpt>
      <trkpt lat="44.31193" lon="5.2802">
        <ele>698.8</ele>
        <time>2014-05-04T09:13:34Z</time>
      </trkpt>
      <trkpt lat="44.31191" lon="5.28027">
        <ele>698.9</ele>
        <time>2014-05-04T09:13:37Z</time>
      </trkpt>
      <trkpt lat="44.31189" lon="5.28034">
        <ele>699.2</ele>
        <time>2014-05-04T09:13:40Z</time>
      </trkpt>
      <trkpt lat="44.31188" lon="5.28042">
        <ele>699</ele>
        <time>2014-05-04T09:13:43Z</time>
      </trkpt>
      <trkpt lat="44.31187" lon="5.28051">
        <ele>698.9</ele>
        <time>2014-05-04T09:13:46Z</time>
      </trkpt>
      <trkpt lat="44.31186" lon="5.28059">
        <ele>698.8</ele>
        <time>2014-05-04T09:13:49Z</time>
      </trkpt>
      <trkpt lat="44.31186" lon="5.28068">
        <ele>698.4</ele>
        <time>2014-05-04T09:13:52Z</time>
      </trkpt>
      <trkpt lat="44.31185" lon="5.28076">
        <ele>698</ele>
        <time>2014-05-04T09:13:55Z</time>
      </trkpt>
      <trkpt lat="44.31185" lon="5.28084">
        <ele>697.8</ele>
        <time>2014-05-04T09:13:58Z</time>
      </trkpt>
      <trkpt lat="44.31184" lon="5.28093">
        <ele>697.8</ele>
        <time>2014-05-04T09:14:01Z</time>
      </trkpt>
      <trkpt lat="44.31183" lon="5.28102">
        <ele>698</ele>
        <time>2014-05-04T09:14:04Z</time>
      </trkpt>
      <trkpt lat="44.31183" lon="5.2811">
        <ele>698.1</ele>
        <time>2014-05-04T09:14:07Z</time>
      </trkpt>
      <trkpt lat="44.31182" lon="5.28118">
        <ele>698.3</ele>
        <time>2014-05-04T09:14:10Z</time>
      </trkpt>
      <trkpt lat="44.31181" lon="5.28126">
        <ele>698.4</ele>
        <time>2014-05-04T09:14:13Z</time>
      </trkpt>
      <trkpt lat="44.31181" lon="5.28142">
        <ele>698.4</ele>
        <time>2014-05-04T09:14:19Z</time>
      </trkpt>
      <trkpt lat="44.3118" lon="5.2815">
        <ele>698.4</ele>
        <time>2014-05-04T09:14:22Z</time>
      </trkpt>
      <trkpt lat="44.3118" lon="5.28158">
        <ele>698.5</ele>
        <time>2014-05-04T09:14:25Z</time>
      </trkpt>
      <trkpt lat="44.31179" lon="5.28166">
        <ele>698.7</ele>
        <time>2014-05-04T09:14:29Z</time>
      </trkpt>
      <trkpt lat="44.31178" lon="5.28173">
        <ele>698.7</ele>
        <time>2014-05-04T09:14:32Z</time>
      </trkpt>
      <trkpt lat="44.31177" lon="5.28181">
        <ele>698.8</ele>
        <time>2014-05-04T09:14:35Z</time>
      </trkpt>
      <trkpt lat="44.31175" lon="5.28188">
        <ele>699.1</ele>
        <time>2014-05-04T09:14:38Z</time>
      </trkpt>
      <trkpt lat="44.31173" lon="5.28195">
        <ele>699.6</ele>
        <time>2014-05-04T09:14:41Z</time>
      </trkpt>
      <trkpt lat="44.31171" lon="5.28202">
        <ele>700</ele>
        <time>2014-05-04T09:14:44Z</time>
      </trkpt>
      <trkpt lat="44.31169" lon="5.28209">
        <ele>700.5</ele>
        <time>2014-05-04T09:14:47Z</time>
      </trkpt>
      <trkpt lat="44.31167" lon="5.28216">
        <ele>701.1</ele>
        <time>2014-05-04T09:14:50Z</time>
      </trkpt>
      <trkpt lat="44.31165" lon="5.28223">
        <ele>701.6</ele>
        <time>2014-05-04T09:14:53Z</time>
      </trkpt>
      <trkpt lat="44.31163" lon="5.28231">
        <ele>702.1</ele>
        <time>2014-05-04T09:14:56Z</time>
      </trkpt>
      <trkpt lat="44.31161" lon="5.28238">
        <ele>702.9</ele>
        <time>2014-05-04T09:14:59Z</time>
      </trkpt>
      <trkpt lat="44.31159" lon="5.28244">
        <ele>703.7</ele>
        <time>2014-05-04T09:15:02Z</time>
      </trkpt>
      <trkpt lat="44.31157" lon="5.2825">
        <ele>704.5</ele>
        <time>2014-05-04T09:15:05Z</time>
      </trkpt>
      <trkpt lat="44.31155" lon="5.28256">
        <ele>705.1</ele>
        <time>2014-05-04T09:15:08Z</time>
      </trkpt>
      <trkpt lat="44.31154" lon="5.28264">
        <ele>705</ele>
        <time>2014-05-04T09:15:11Z</time>
      </trkpt>
      <trkpt lat="44.31154" lon="5.28271">
        <ele>704.5</ele>
        <time>2014-05-04T09:15:14Z</time>
      </trkpt>
      <trkpt lat="44.31154" lon="5.28286">
        <ele>703.8</ele>
        <time>2014-05-04T09:15:20Z</time>
      </trkpt>
      <trkpt lat="44.31154" lon="5.28294">
        <ele>703.4</ele>
        <time>2014-05-04T09:15:23Z</time>
      </trkpt>
      <trkpt lat="44.31155" lon="5.28301">
        <ele>702.9</ele>
        <time>2014-05-04T09:15:26Z</time>
      </trkpt>
      <trkpt lat="44.31155" lon="5.28309">
        <ele>702.4</ele>
        <time>2014-05-04T09:15:30Z</time>
      </trkpt>
      <trkpt lat="44.31155" lon="5.28317">
        <ele>702</ele>
        <time>2014-05-04T09:15:34Z</time>
      </trkpt>
      <trkpt lat="44.31156" lon="5.28324">
        <ele>701.2</ele>
        <time>2014-05-04T09:15:37Z</time>
      </trkpt>
      <trkpt lat="44.31157" lon="5.2833">
        <ele>700.4</ele>
        <time>2014-05-04T09:15:40Z</time>
      </trkpt>
      <trkpt lat="44.31157" lon="5.28337">
        <ele>700.1</ele>
        <time>2014-05-04T09:15:43Z</time>
      </trkpt>
      <trkpt lat="44.31157" lon="5.28345">
        <ele>700.6</ele>
        <time>2014-05-04T09:15:46Z</time>
      </trkpt>
      <trkpt lat="44.31157" lon="5.28353">
        <ele>700.8</ele>
        <time>2014-05-04T09:15:49Z</time>
      </trkpt>
      <trkpt lat="44.31156" lon="5.2836">
        <ele>701.6</ele>
        <time>2014-05-04T09:15:52Z</time>
      </trkpt>
      <trkpt lat="44.31155" lon="5.28367">
        <ele>702.2</ele>
        <time>2014-05-04T09:15:55Z</time>
      </trkpt>
      <trkpt lat="44.31154" lon="5.28375">
        <ele>703</ele>
        <time>2014-05-04T09:15:58Z</time>
      </trkpt>
      <trkpt lat="44.31153" lon="5.28382">
        <ele>703.8</ele>
        <time>2014-05-04T09:16:01Z</time>
      </trkpt>
      <trkpt lat="44.31152" lon="5.28389">
        <ele>704.7</ele>
        <time>2014-05-04T09:16:04Z</time>
      </trkpt>
      <trkpt lat="44.31151" lon="5.28396">
        <ele>705.3</ele>
        <time>2014-05-04T09:16:07Z</time>
      </trkpt>
      <trkpt lat="44.31151" lon="5.28402">
        <ele>705.7</ele>
        <time>2014-05-04T09:16:10Z</time>
      </trkpt>
      <trkpt lat="44.31151" lon="5.28409">
        <ele>705.8</ele>
        <time>2014-05-04T09:16:13Z</time>
      </trkpt>
      <trkpt lat="44.31151" lon="5.28415">
        <ele>706</ele>
        <time>2014-05-04T09:16:16Z</time>
      </trkpt>
      <trkpt lat="44.31151" lon="5.2843">
        <ele>707</ele>
        <time>2014-05-04T09:16:23Z</time>
      </trkpt>
      <trkpt lat="44.3115" lon="5.28437">
        <ele>707.7</ele>
        <time>2014-05-04T09:16:26Z</time>
      </trkpt>
      <trkpt lat="44.31149" lon="5.28445">
        <ele>709.1</ele>
        <time>2014-05-04T09:16:29Z</time>
      </trkpt>
      <trkpt lat="44.31147" lon="5.28452">
        <ele>710.3</ele>
        <time>2014-05-04T09:16:32Z</time>
      </trkpt>
      <trkpt lat="44.31145" lon="5.28459">
        <ele>711.4</ele>
        <time>2014-05-04T09:16:35Z</time>
      </trkpt>
      <trkpt lat="44.31143" lon="5.28465">
        <ele>712.9</ele>
        <time>2014-05-04T09:16:38Z</time>
      </trkpt>
      <trkpt lat="44.3114" lon="5.28471">
        <ele>714.3</ele>
        <time>2014-05-04T09:16:41Z</time>
      </trkpt>
      <trkpt lat="44.31138" lon="5.28476">
        <ele>715.8</ele>
        <time>2014-05-04T09:16:44Z</time>
      </trkpt>
      <trkpt lat="44.31134" lon="5.28483">
        <ele>717.6</ele>
        <time>2014-05-04T09:16:47Z</time>
      </trkpt>
      <trkpt lat="44.31131" lon="5.2849">
        <ele>719.5</ele>
        <time>2014-05-04T09:16:50Z</time>
      </trkpt>
      <trkpt lat="44.31127" lon="5.28498">
        <ele>721.4</ele>
        <time>2014-05-04T09:16:53Z</time>
      </trkpt>
      <trkpt lat="44.31124" lon="5.28506">
        <ele>722.8</ele>
        <time>2014-05-04T09:16:56Z</time>
      </trkpt>
      <trkpt lat="44.31122" lon="5.28514">
        <ele>723.8</ele>
        <time>2014-05-04T09:16:59Z</time>
      </trkpt>
      <trkpt lat="44.3112" lon="5.28523">
        <ele>724.8</ele>
        <time>2014-05-04T09:17:02Z</time>
      </trkpt>
      <trkpt lat="44.31118" lon="5.28532">
        <ele>725.6</ele>
        <time>2014-05-04T09:17:05Z</time>
      </trkpt>
      <trkpt lat="44.31117" lon="5.28541">
        <ele>726.1</ele>
        <time>2014-05-04T09:17:08Z</time>
      </trkpt>
      <trkpt lat="44.31117" lon="5.28547">
        <ele>726.2</ele>
        <time>2014-05-04T09:17:10Z</time>
      </trkpt>
      <trkpt lat="44.31117" lon="5.28554">
        <ele>726.2</ele>
        <time>2014-05-04T09:17:12Z</time>
      </trkpt>
      <trkpt lat="44.31117" lon="5.28561">
        <ele>726.3</ele>
        <time>2014-05-04T09:17:14Z</time>
      </trkpt>
      <trkpt lat="44.31117" lon="5.28568">
        <ele>726.3</ele>
        <time>2014-05-04T09:17:16Z</time>
      </trkpt>
      <trkpt lat="44.31116" lon="5.28575">
        <ele>726.4</ele>
        <time>2014-05-04T09:17:18Z</time>
      </trkpt>
      <trkpt lat="44.31116" lon="5.2859">
        <ele>727</ele>
        <time>2014-05-04T09:17:23Z</time>
      </trkpt>
      <trkpt lat="44.31116" lon="5.28598">
        <ele>727.2</ele>
        <time>2014-05-04T09:17:26Z</time>
      </trkpt>
      <trkpt lat="44.31115" lon="5.28606">
        <ele>727.8</ele>
        <time>2014-05-04T09:17:29Z</time>
      </trkpt>
      <trkpt lat="44.31115" lon="5.28614">
        <ele>727.9</ele>
        <time>2014-05-04T09:17:32Z</time>
      </trkpt>
      <trkpt lat="44.31115" lon="5.28621">
        <ele>728.3</ele>
        <time>2014-05-04T09:17:35Z</time>
      </trkpt>
      <trkpt lat="44.31113" lon="5.2863">
        <ele>729.5</ele>
        <time>2014-05-04T09:17:38Z</time>
      </trkpt>
      <trkpt lat="44.31112" lon="5.28638">
        <ele>730.5</ele>
        <time>2014-05-04T09:17:41Z</time>
      </trkpt>
      <trkpt lat="44.3111" lon="5.28645">
        <ele>731.3</ele>
        <time>2014-05-04T09:17:43Z</time>
      </trkpt>
      <trkpt lat="44.31108" lon="5.28652">
        <ele>732.4</ele>
        <time>2014-05-04T09:17:45Z</time>
      </trkpt>
      <trkpt lat="44.31107" lon="5.28659">
        <ele>733.4</ele>
        <time>2014-05-04T09:17:47Z</time>
      </trkpt>
      <trkpt lat="44.31106" lon="5.28666">
        <ele>734</ele>
        <time>2014-05-04T09:17:49Z</time>
      </trkpt>
      <trkpt lat="44.31105" lon="5.28673">
        <ele>735.1</ele>
        <time>2014-05-04T09:17:51Z</time>
      </trkpt>
      <trkpt lat="44.31104" lon="5.28679">
        <ele>735.9</ele>
        <time>2014-05-04T09:17:53Z</time>
      </trkpt>
      <trkpt lat="44.31104" lon="5.28686">
        <ele>736.6</ele>
        <time>2014-05-04T09:17:55Z</time>
      </trkpt>
      <trkpt lat="44.31105" lon="5.28693">
        <ele>736.4</ele>
        <time>2014-05-04T09:17:57Z</time>
      </trkpt>
      <trkpt lat="44.31107" lon="5.287">
        <ele>736.3</ele>
        <time>2014-05-04T09:17:59Z</time>
      </trkpt>
      <trkpt lat="44.31109" lon="5.28706">
        <ele>735.9</ele>
        <time>2014-05-04T09:18:01Z</time>
      </trkpt>
      <trkpt lat="44.31113" lon="5.28711">
        <ele>734.9</ele>
        <time>2014-05-04T09:18:03Z</time>
      </trkpt>
      <trkpt lat="44.31117" lon="5.28716">
        <ele>733.3</ele>
        <time>2014-05-04T09:18:05Z</time>
      </trkpt>
      <trkpt lat="44.31121" lon="5.2872">
        <ele>731.9</ele>
        <time>2014-05-04T09:18:07Z</time>
      </trkpt>
      <trkpt lat="44.31126" lon="5.28723">
        <ele>730.1</ele>
        <time>2014-05-04T09:18:09Z</time>
      </trkpt>
      <trkpt lat="44.31131" lon="5.28727">
        <ele>728.5</ele>
        <time>2014-05-04T09:18:11Z</time>
      </trkpt>
      <trkpt lat="44.31135" lon="5.28731">
        <ele>726.9</ele>
        <time>2014-05-04T09:18:13Z</time>
      </trkpt>
      <trkpt lat="44.31139" lon="5.28734">
        <ele>725.4</ele>
        <time>2014-05-04T09:18:15Z</time>
      </trkpt>
      <trkpt lat="44.31143" lon="5.28739">
        <ele>724.2</ele>
        <time>2014-05-04T09:18:17Z</time>
      </trkpt>
      <trkpt lat="44.31146" lon="5.28743">
        <ele>723.4</ele>
        <time>2014-05-04T09:18:19Z</time>
      </trkpt>
      <trkpt lat="44.31147" lon="5.2876">
        <ele>722.4</ele>
        <time>2014-05-04T09:18:25Z</time>
      </trkpt>
      <trkpt lat="44.31145" lon="5.28768">
        <ele>722.3</ele>
        <time>2014-05-04T09:18:28Z</time>
      </trkpt>
      <trkpt lat="44.31143" lon="5.28776">
        <ele>722</ele>
        <time>2014-05-04T09:18:31Z</time>
      </trkpt>
      <trkpt lat="44.31141" lon="5.28784">
        <ele>722.1</ele>
        <time>2014-05-04T09:18:34Z</time>
      </trkpt>
      <trkpt lat="44.31138" lon="5.28791">
        <ele>722.4</ele>
        <time>2014-05-04T09:18:37Z</time>
      </trkpt>
      <trkpt lat="44.31136" lon="5.28797">
        <ele>722.9</ele>
        <time>2014-05-04T09:18:40Z</time>
      </trkpt>
      <trkpt lat="44.31132" lon="5.28804">
        <ele>724</ele>
        <time>2014-05-04T09:18:43Z</time>
      </trkpt>
      <trkpt lat="44.31129" lon="5.28811">
        <ele>724.6</ele>
        <time>2014-05-04T09:18:46Z</time>
      </trkpt>
      <trkpt lat="44.31126" lon="5.28818">
        <ele>725.4</ele>
        <time>2014-05-04T09:18:49Z</time>
      </trkpt>
      <trkpt lat="44.31124" lon="5.28824">
        <ele>725.9</ele>
        <time>2014-05-04T09:18:52Z</time>
      </trkpt>
      <trkpt lat="44.31122" lon="5.28831">
        <ele>726.5</ele>
        <time>2014-05-04T09:18:55Z</time>
      </trkpt>
      <trkpt lat="44.3112" lon="5.28837">
        <ele>727.1</ele>
        <time>2014-05-04T09:18:58Z</time>
      </trkpt>
      <trkpt lat="44.31118" lon="5.28844">
        <ele>728</ele>
        <time>2014-05-04T09:19:02Z</time>
      </trkpt>
      <trkpt lat="44.31117" lon="5.28851">
        <ele>728.7</ele>
        <time>2014-05-04T09:19:05Z</time>
      </trkpt>
      <trkpt lat="44.31116" lon="5.28858">
        <ele>729.1</ele>
        <time>2014-05-04T09:19:08Z</time>
      </trkpt>
      <trkpt lat="44.31115" lon="5.28865">
        <ele>729.8</ele>
        <time>2014-05-04T09:19:11Z</time>
      </trkpt>
      <trkpt lat="44.31113" lon="5.28872">
        <ele>731</ele>
        <time>2014-05-04T09:19:14Z</time>
      </trkpt>
      <trkpt lat="44.31111" lon="5.28879">
        <ele>732.2</ele>
        <time>2014-05-04T09:19:17Z</time>
      </trkpt>
      <trkpt lat="44.31109" lon="5.28885">
        <ele>733.3</ele>
        <time>2014-05-04T09:19:20Z</time>
      </trkpt>
      <trkpt lat="44.31104" lon="5.28897">
        <ele>735.8</ele>
        <time>2014-05-04T09:19:26Z</time>
      </trkpt>
      <trkpt lat="44.31101" lon="5.28904">
        <ele>737.3</ele>
        <time>2014-05-04T09:19:29Z</time>
      </trkpt>
      <trkpt lat="44.31098" lon="5.28912">
        <ele>739.1</ele>
        <time>2014-05-04T09:19:32Z</time>
      </trkpt>
      <trkpt lat="44.31096" lon="5.28918">
        <ele>740.2</ele>
        <time>2014-05-04T09:19:34Z</time>
      </trkpt>
      <trkpt lat="44.31094" lon="5.28924">
        <ele>741.6</ele>
        <time>2014-05-04T09:19:36Z</time>
      </trkpt>
      <trkpt lat="44.31092" lon="5.28931">
        <ele>743</ele>
        <time>2014-05-04T09:19:38Z</time>
      </trkpt>
      <trkpt lat="44.31091" lon="5.28938">
        <ele>744</ele>
        <time>2014-05-04T09:19:40Z</time>
      </trkpt>
      <trkpt lat="44.31089" lon="5.28947">
        <ele>745.3</ele>
        <time>2014-05-04T09:19:43Z</time>
      </trkpt>
      <trkpt lat="44.31088" lon="5.28953">
        <ele>746.2</ele>
        <time>2014-05-04T09:19:45Z</time>
      </trkpt>
      <trkpt lat="44.31088" lon="5.2896">
        <ele>746.7</ele>
        <time>2014-05-04T09:19:47Z</time>
      </trkpt>
      <trkpt lat="44.31089" lon="5.2897">
        <ele>746.6</ele>
        <time>2014-05-04T09:19:50Z</time>
      </trkpt>
      <trkpt lat="44.3109" lon="5.28976">
        <ele>746.3</ele>
        <time>2014-05-04T09:19:52Z</time>
      </trkpt>
      <trkpt lat="44.31091" lon="5.28982">
        <ele>746.1</ele>
        <time>2014-05-04T09:19:54Z</time>
      </trkpt>
      <trkpt lat="44.31092" lon="5.28988">
        <ele>746.1</ele>
        <time>2014-05-04T09:19:56Z</time>
      </trkpt>
      <trkpt lat="44.31093" lon="5.28997">
        <ele>745.7</ele>
        <time>2014-05-04T09:19:59Z</time>
      </trkpt>
      <trkpt lat="44.31095" lon="5.29005">
        <ele>745.9</ele>
        <time>2014-05-04T09:20:02Z</time>
      </trkpt>
      <trkpt lat="44.31097" lon="5.29013">
        <ele>746.2</ele>
        <time>2014-05-04T09:20:05Z</time>
      </trkpt>
      <trkpt lat="44.31099" lon="5.29022">
        <ele>746.7</ele>
        <time>2014-05-04T09:20:08Z</time>
      </trkpt>
      <trkpt lat="44.311" lon="5.29029">
        <ele>747.4</ele>
        <time>2014-05-04T09:20:11Z</time>
      </trkpt>
      <trkpt lat="44.31101" lon="5.29036">
        <ele>748.2</ele>
        <time>2014-05-04T09:20:14Z</time>
      </trkpt>
      <trkpt lat="44.31101" lon="5.29045">
        <ele>749.2</ele>
        <time>2014-05-04T09:20:17Z</time>
      </trkpt>
      <trkpt lat="44.31103" lon="5.29054">
        <ele>750.3</ele>
        <time>2014-05-04T09:20:20Z</time>
      </trkpt>
      <trkpt lat="44.31105" lon="5.2906">
        <ele>750.3</ele>
        <time>2014-05-04T09:20:22Z</time>
      </trkpt>
      <trkpt lat="44.3111" lon="5.29072">
        <ele>750.5</ele>
        <time>2014-05-04T09:20:26Z</time>
      </trkpt>
      <trkpt lat="44.31112" lon="5.2908">
        <ele>750.9</ele>
        <time>2014-05-04T09:20:29Z</time>
      </trkpt>
      <trkpt lat="44.31116" lon="5.29087">
        <ele>750.4</ele>
        <time>2014-05-04T09:20:32Z</time>
      </trkpt>
      <trkpt lat="44.31121" lon="5.29094">
        <ele>750.4</ele>
        <time>2014-05-04T09:20:35Z</time>
      </trkpt>
      <trkpt lat="44.31124" lon="5.291">
        <ele>750.4</ele>
        <time>2014-05-04T09:20:38Z</time>
      </trkpt>
      <trkpt lat="44.31127" lon="5.29107">
        <ele>750.4</ele>
        <time>2014-05-04T09:20:41Z</time>
      </trkpt>
      <trkpt lat="44.31131" lon="5.29113">
        <ele>749.8</ele>
        <time>2014-05-04T09:20:44Z</time>
      </trkpt>
      <trkpt lat="44.31135" lon="5.29118">
        <ele>749.2</ele>
        <time>2014-05-04T09:20:46Z</time>
      </trkpt>
      <trkpt lat="44.31138" lon="5.29123">
        <ele>748.9</ele>
        <time>2014-05-04T09:20:48Z</time>
      </trkpt>
      <trkpt lat="44.31142" lon="5.2913">
        <ele>748.8</ele>
        <time>2014-05-04T09:20:50Z</time>
      </trkpt>
      <trkpt lat="44.31145" lon="5.29136">
        <ele>748.7</ele>
        <time>2014-05-04T09:20:52Z</time>
      </trkpt>
      <trkpt lat="44.31148" lon="5.29143">
        <ele>748.8</ele>
        <time>2014-05-04T09:20:54Z</time>
      </trkpt>
      <trkpt lat="44.31151" lon="5.29149">
        <ele>749</ele>
        <time>2014-05-04T09:20:56Z</time>
      </trkpt>
      <trkpt lat="44.31153" lon="5.29155">
        <ele>749.1</ele>
        <time>2014-05-04T09:20:58Z</time>
      </trkpt>
      <trkpt lat="44.31155" lon="5.29161">
        <ele>749.6</ele>
        <time>2014-05-04T09:21:00Z</time>
      </trkpt>
      <trkpt lat="44.31157" lon="5.29169">
        <ele>750.1</ele>
        <time>2014-05-04T09:21:02Z</time>
      </trkpt>
      <trkpt lat="44.31159" lon="5.29176">
        <ele>749.6</ele>
        <time>2014-05-04T09:21:04Z</time>
      </trkpt>
      <trkpt lat="44.31161" lon="5.29182">
        <ele>749.2</ele>
        <time>2014-05-04T09:21:06Z</time>
      </trkpt>
      <trkpt lat="44.31163" lon="5.29189">
        <ele>748.9</ele>
        <time>2014-05-04T09:21:08Z</time>
      </trkpt>
      <trkpt lat="44.31164" lon="5.29198">
        <ele>749.2</ele>
        <time>2014-05-04T09:21:10Z</time>
      </trkpt>
      <trkpt lat="44.31165" lon="5.29206">
        <ele>749.4</ele>
        <time>2014-05-04T09:21:12Z</time>
      </trkpt>
      <trkpt lat="44.31167" lon="5.29213">
        <ele>749.3</ele>
        <time>2014-05-04T09:21:14Z</time>
      </trkpt>
      <trkpt lat="44.31168" lon="5.29221">
        <ele>749.3</ele>
        <time>2014-05-04T09:21:16Z</time>
      </trkpt>
      <trkpt lat="44.3117" lon="5.29229">
        <ele>749.3</ele>
        <time>2014-05-04T09:21:18Z</time>
      </trkpt>
      <trkpt lat="44.31171" lon="5.29237">
        <ele>749.3</ele>
        <time>2014-05-04T09:21:20Z</time>
      </trkpt>
      <trkpt lat="44.31171" lon="5.29245">
        <ele>749.6</ele>
        <time>2014-05-04T09:21:22Z</time>
      </trkpt>
      <trkpt lat="44.31172" lon="5.29254">
        <ele>749.7</ele>
        <time>2014-05-04T09:21:24Z</time>
      </trkpt>
      <trkpt lat="44.3117" lon="5.29274">
        <ele>750</ele>
        <time>2014-05-04T09:21:28Z</time>
      </trkpt>
      <trkpt lat="44.31169" lon="5.29286">
        <ele>750</ele>
        <time>2014-05-04T09:21:30Z</time>
      </trkpt>
      <trkpt lat="44.3117" lon="5.29293">
        <ele>749.6</ele>
        <time>2014-05-04T09:21:31Z</time>
      </trkpt>
      <trkpt lat="44.3117" lon="5.293">
        <ele>749.2</ele>
        <time>2014-05-04T09:21:32Z</time>
      </trkpt>
      <trkpt lat="44.31171" lon="5.29307">
        <ele>748.6</ele>
        <time>2014-05-04T09:21:33Z</time>
      </trkpt>
      <trkpt lat="44.31173" lon="5.29315">
        <ele>747.8</ele>
        <time>2014-05-04T09:21:34Z</time>
      </trkpt>
      <trkpt lat="44.31174" lon="5.29323">
        <ele>747</ele>
        <time>2014-05-04T09:21:35Z</time>
      </trkpt>
      <trkpt lat="44.31175" lon="5.29331">
        <ele>746.4</ele>
        <time>2014-05-04T09:21:36Z</time>
      </trkpt>
      <trkpt lat="44.31175" lon="5.29338">
        <ele>746.2</ele>
        <time>2014-05-04T09:21:37Z</time>
      </trkpt>
      <trkpt lat="44.31175" lon="5.29349">
        <ele>745.7</ele>
        <time>2014-05-04T09:21:39Z</time>
      </trkpt>
      <trkpt lat="44.31175" lon="5.29361">
        <ele>745.6</ele>
        <time>2014-05-04T09:21:41Z</time>
      </trkpt>
      <trkpt lat="44.31175" lon="5.29373">
        <ele>745.8</ele>
        <time>2014-05-04T09:21:43Z</time>
      </trkpt>
      <trkpt lat="44.31174" lon="5.2938">
        <ele>745.9</ele>
        <time>2014-05-04T09:21:44Z</time>
      </trkpt>
      <trkpt lat="44.31174" lon="5.29387">
        <ele>746.1</ele>
        <time>2014-05-04T09:21:45Z</time>
      </trkpt>
      <trkpt lat="44.31173" lon="5.29394">
        <ele>746.2</ele>
        <time>2014-05-04T09:21:46Z</time>
      </trkpt>
      <trkpt lat="44.31173" lon="5.29401">
        <ele>746.4</ele>
        <time>2014-05-04T09:21:47Z</time>
      </trkpt>
      <trkpt lat="44.31172" lon="5.29408">
        <ele>746.6</ele>
        <time>2014-05-04T09:21:48Z</time>
      </trkpt>
      <trkpt lat="44.31172" lon="5.29414">
        <ele>746.7</ele>
        <time>2014-05-04T09:21:49Z</time>
      </trkpt>
      <trkpt lat="44.31172" lon="5.29421">
        <ele>747</ele>
        <time>2014-05-04T09:21:50Z</time>
      </trkpt>
      <trkpt lat="44.31172" lon="5.29432">
        <ele>747.2</ele>
        <time>2014-05-04T09:21:52Z</time>
      </trkpt>
      <trkpt lat="44.31172" lon="5.29443">
        <ele>747.4</ele>
        <time>2014-05-04T09:21:54Z</time>
      </trkpt>
      <trkpt lat="44.31173" lon="5.29455">
        <ele>747.4</ele>
        <time>2014-05-04T09:21:56Z</time>
      </trkpt>
      <trkpt lat="44.31175" lon="5.29466">
        <ele>747</ele>
        <time>2014-05-04T09:21:58Z</time>
      </trkpt>
      <trkpt lat="44.31177" lon="5.29472">
        <ele>746.7</ele>
        <time>2014-05-04T09:21:59Z</time>
      </trkpt>
      <trkpt lat="44.31178" lon="5.29479">
        <ele>746.7</ele>
        <time>2014-05-04T09:22:00Z</time>
      </trkpt>
      <trkpt lat="44.31179" lon="5.29486">
        <ele>746.5</ele>
        <time>2014-05-04T09:22:01Z</time>
      </trkpt>
      <trkpt lat="44.31181" lon="5.29493">
        <ele>746.5</ele>
        <time>2014-05-04T09:22:02Z</time>
      </trkpt>
      <trkpt lat="44.31182" lon="5.295">
        <ele>746.5</ele>
        <time>2014-05-04T09:22:03Z</time>
      </trkpt>
      <trkpt lat="44.31182" lon="5.29507">
        <ele>746.5</ele>
        <time>2014-05-04T09:22:04Z</time>
      </trkpt>
      <trkpt lat="44.31182" lon="5.29513">
        <ele>746.8</ele>
        <time>2014-05-04T09:22:05Z</time>
      </trkpt>
      <trkpt lat="44.31181" lon="5.29524">
        <ele>747.6</ele>
        <time>2014-05-04T09:22:07Z</time>
      </trkpt>
      <trkpt lat="44.3118" lon="5.29534">
        <ele>748.1</ele>
        <time>2014-05-04T09:22:09Z</time>
      </trkpt>
      <trkpt lat="44.3118" lon="5.29543">
        <ele>748.2</ele>
        <time>2014-05-04T09:22:11Z</time>
      </trkpt>
      <trkpt lat="44.3118" lon="5.29552">
        <ele>748.6</ele>
        <time>2014-05-04T09:22:13Z</time>
      </trkpt>
      <trkpt lat="44.31179" lon="5.2956">
        <ele>749.2</ele>
        <time>2014-05-04T09:22:15Z</time>
      </trkpt>
      <trkpt lat="44.31177" lon="5.29569">
        <ele>749.9</ele>
        <time>2014-05-04T09:22:17Z</time>
      </trkpt>
      <trkpt lat="44.31175" lon="5.29577">
        <ele>750.6</ele>
        <time>2014-05-04T09:22:19Z</time>
      </trkpt>
      <trkpt lat="44.31174" lon="5.29584">
        <ele>751.2</ele>
        <time>2014-05-04T09:22:21Z</time>
      </trkpt>
      <trkpt lat="44.31173" lon="5.29591">
        <ele>751.9</ele>
        <time>2014-05-04T09:22:23Z</time>
      </trkpt>
      <trkpt lat="44.31172" lon="5.29598">
        <ele>752.5</ele>
        <time>2014-05-04T09:22:25Z</time>
      </trkpt>
      <trkpt lat="44.3117" lon="5.29612">
        <ele>753.6</ele>
        <time>2014-05-04T09:22:29Z</time>
      </trkpt>
      <trkpt lat="44.3117" lon="5.29618">
        <ele>754.2</ele>
        <time>2014-05-04T09:22:31Z</time>
      </trkpt>
      <trkpt lat="44.31169" lon="5.29625">
        <ele>754.8</ele>
        <time>2014-05-04T09:22:33Z</time>
      </trkpt>
      <trkpt lat="44.31168" lon="5.29632">
        <ele>755.4</ele>
        <time>2014-05-04T09:22:35Z</time>
      </trkpt>
      <trkpt lat="44.31168" lon="5.29639">
        <ele>756</ele>
        <time>2014-05-04T09:22:37Z</time>
      </trkpt>
      <trkpt lat="44.31167" lon="5.29646">
        <ele>756.8</ele>
        <time>2014-05-04T09:22:39Z</time>
      </trkpt>
      <trkpt lat="44.31166" lon="5.29652">
        <ele>757.4</ele>
        <time>2014-05-04T09:22:41Z</time>
      </trkpt>
      <trkpt lat="44.31165" lon="5.2966">
        <ele>758.1</ele>
        <time>2014-05-04T09:22:43Z</time>
      </trkpt>
      <trkpt lat="44.31163" lon="5.29667">
        <ele>759.1</ele>
        <time>2014-05-04T09:22:45Z</time>
      </trkpt>
      <trkpt lat="44.31162" lon="5.29674">
        <ele>759.5</ele>
        <time>2014-05-04T09:22:47Z</time>
      </trkpt>
      <trkpt lat="44.31161" lon="5.29682">
        <ele>759.9</ele>
        <time>2014-05-04T09:22:49Z</time>
      </trkpt>
      <trkpt lat="44.3116" lon="5.29689">
        <ele>760.3</ele>
        <time>2014-05-04T09:22:51Z</time>
      </trkpt>
      <trkpt lat="44.3116" lon="5.29695">
        <ele>760.4</ele>
        <time>2014-05-04T09:22:53Z</time>
      </trkpt>
      <trkpt lat="44.31159" lon="5.29704">
        <ele>760.8</ele>
        <time>2014-05-04T09:22:56Z</time>
      </trkpt>
      <trkpt lat="44.31157" lon="5.29712">
        <ele>761.4</ele>
        <time>2014-05-04T09:22:59Z</time>
      </trkpt>
      <trkpt lat="44.31155" lon="5.29719">
        <ele>762.2</ele>
        <time>2014-05-04T09:23:02Z</time>
      </trkpt>
      <trkpt lat="44.31153" lon="5.29727">
        <ele>762.9</ele>
        <time>2014-05-04T09:23:05Z</time>
      </trkpt>
      <trkpt lat="44.31151" lon="5.29734">
        <ele>763.6</ele>
        <time>2014-05-04T09:23:08Z</time>
      </trkpt>
      <trkpt lat="44.31149" lon="5.29741">
        <ele>764.1</ele>
        <time>2014-05-04T09:23:11Z</time>
      </trkpt>
      <trkpt lat="44.31148" lon="5.29748">
        <ele>764.6</ele>
        <time>2014-05-04T09:23:14Z</time>
      </trkpt>
      <trkpt lat="44.31147" lon="5.29754">
        <ele>764.6</ele>
        <time>2014-05-04T09:23:17Z</time>
      </trkpt>
      <trkpt lat="44.31146" lon="5.29761">
        <ele>764.1</ele>
        <time>2014-05-04T09:23:20Z</time>
      </trkpt>
      <trkpt lat="44.31144" lon="5.29768">
        <ele>764.1</ele>
        <time>2014-05-04T09:23:23Z</time>
      </trkpt>
      <trkpt lat="44.31142" lon="5.29774">
        <ele>764.1</ele>
        <time>2014-05-04T09:23:26Z</time>
      </trkpt>
      <trkpt lat="44.31139" lon="5.29788">
        <ele>763.7</ele>
        <time>2014-05-04T09:23:32Z</time>
      </trkpt>
      <trkpt lat="44.31137" lon="5.29794">
        <ele>763.5</ele>
        <time>2014-05-04T09:23:35Z</time>
      </trkpt>
      <trkpt lat="44.31135" lon="5.29801">
        <ele>763.6</ele>
        <time>2014-05-04T09:23:38Z</time>
      </trkpt>
      <trkpt lat="44.31133" lon="5.29807">
        <ele>763.7</ele>
        <time>2014-05-04T09:23:41Z</time>
      </trkpt>
      <trkpt lat="44.3113" lon="5.29813">
        <ele>763.8</ele>
        <time>2014-05-04T09:23:44Z</time>
      </trkpt>
      <trkpt lat="44.31128" lon="5.29819">
        <ele>764</ele>
        <time>2014-05-04T09:23:47Z</time>
      </trkpt>
      <trkpt lat="44.31125" lon="5.29826">
        <ele>764.2</ele>
        <time>2014-05-04T09:23:50Z</time>
      </trkpt>
      <trkpt lat="44.31123" lon="5.29832">
        <ele>764.3</ele>
        <time>2014-05-04T09:23:53Z</time>
      </trkpt>
      <trkpt lat="44.31121" lon="5.29837">
        <ele>764.5</ele>
        <time>2014-05-04T09:23:56Z</time>
      </trkpt>
      <trkpt lat="44.31119" lon="5.29844">
        <ele>764.5</ele>
        <time>2014-05-04T09:23:59Z</time>
      </trkpt>
      <trkpt lat="44.31117" lon="5.2985">
        <ele>764.6</ele>
        <time>2014-05-04T09:24:02Z</time>
      </trkpt>
      <trkpt lat="44.31116" lon="5.29857">
        <ele>764.5</ele>
        <time>2014-05-04T09:24:05Z</time>
      </trkpt>
      <trkpt lat="44.31114" lon="5.29863">
        <ele>764.6</ele>
        <time>2014-05-04T09:24:08Z</time>
      </trkpt>
      <trkpt lat="44.31112" lon="5.2987">
        <ele>764.6</ele>
        <time>2014-05-04T09:24:11Z</time>
      </trkpt>
      <trkpt lat="44.31111" lon="5.29876">
        <ele>764.6</ele>
        <time>2014-05-04T09:24:14Z</time>
      </trkpt>
      <trkpt lat="44.31109" lon="5.29884">
        <ele>764.4</ele>
        <time>2014-05-04T09:24:18Z</time>
      </trkpt>
      <trkpt lat="44.31108" lon="5.29891">
        <ele>764.3</ele>
        <time>2014-05-04T09:24:21Z</time>
      </trkpt>
      <trkpt lat="44.31107" lon="5.29898">
        <ele>763.9</ele>
        <time>2014-05-04T09:24:24Z</time>
      </trkpt>
      <trkpt lat="44.31108" lon="5.29906">
        <ele>763.2</ele>
        <time>2014-05-04T09:24:27Z</time>
      </trkpt>
      <trkpt lat="44.31109" lon="5.29922">
        <ele>761.9</ele>
        <time>2014-05-04T09:24:33Z</time>
      </trkpt>
      <trkpt lat="44.3111" lon="5.2993">
        <ele>761.8</ele>
        <time>2014-05-04T09:24:36Z</time>
      </trkpt>
      <trkpt lat="44.3111" lon="5.29938">
        <ele>761.7</ele>
        <time>2014-05-04T09:24:39Z</time>
      </trkpt>
      <trkpt lat="44.31111" lon="5.29946">
        <ele>761.7</ele>
        <time>2014-05-04T09:24:42Z</time>
      </trkpt>
      <trkpt lat="44.31111" lon="5.29955">
        <ele>761.9</ele>
        <time>2014-05-04T09:24:45Z</time>
      </trkpt>
      <trkpt lat="44.31111" lon="5.29963">
        <ele>762.2</ele>
        <time>2014-05-04T09:24:48Z</time>
      </trkpt>
      <trkpt lat="44.31111" lon="5.29971">
        <ele>762.5</ele>
        <time>2014-05-04T09:24:51Z</time>
      </trkpt>
      <trkpt lat="44.31112" lon="5.2998">
        <ele>762.7</ele>
        <time>2014-05-04T09:24:54Z</time>
      </trkpt>
      <trkpt lat="44.31112" lon="5.29987">
        <ele>762.7</ele>
        <time>2014-05-04T09:24:56Z</time>
      </trkpt>
      <trkpt lat="44.31113" lon="5.29993">
        <ele>762.8</ele>
        <time>2014-05-04T09:24:58Z</time>
      </trkpt>
      <trkpt lat="44.31113" lon="5.29999">
        <ele>762.7</ele>
        <time>2014-05-04T09:25:00Z</time>
      </trkpt>
      <trkpt lat="44.31114" lon="5.30006">
        <ele>762.9</ele>
        <time>2014-05-04T09:25:02Z</time>
      </trkpt>
      <trkpt lat="44.31115" lon="5.30012">
        <ele>762.9</ele>
        <time>2014-05-04T09:25:04Z</time>
      </trkpt>
      <trkpt lat="44.31116" lon="5.30019">
        <ele>763.1</ele>
        <time>2014-05-04T09:25:06Z</time>
      </trkpt>
      <trkpt lat="44.31116" lon="5.30028">
        <ele>763.7</ele>
        <time>2014-05-04T09:25:09Z</time>
      </trkpt>
      <trkpt lat="44.31117" lon="5.30037">
        <ele>764</ele>
        <time>2014-05-04T09:25:12Z</time>
      </trkpt>
      <trkpt lat="44.31118" lon="5.30043">
        <ele>764.1</ele>
        <time>2014-05-04T09:25:14Z</time>
      </trkpt>
      <trkpt lat="44.31119" lon="5.30052">
        <ele>764.5</ele>
        <time>2014-05-04T09:25:17Z</time>
      </trkpt>
      <trkpt lat="44.31119" lon="5.30059">
        <ele>764.9</ele>
        <time>2014-05-04T09:25:19Z</time>
      </trkpt>
      <trkpt lat="44.31119" lon="5.30065">
        <ele>765.3</ele>
        <time>2014-05-04T09:25:21Z</time>
      </trkpt>
      <trkpt lat="44.31119" lon="5.30075">
        <ele>766.1</ele>
        <time>2014-05-04T09:25:24Z</time>
      </trkpt>
      <trkpt lat="44.31119" lon="5.30082">
        <ele>766.6</ele>
        <time>2014-05-04T09:25:26Z</time>
      </trkpt>
      <trkpt lat="44.31118" lon="5.30091">
        <ele>767.1</ele>
        <time>2014-05-04T09:25:29Z</time>
      </trkpt>
      <trkpt lat="44.31118" lon="5.30104">
        <ele>767.3</ele>
        <time>2014-05-04T09:25:33Z</time>
      </trkpt>
      <trkpt lat="44.31118" lon="5.3011">
        <ele>767.3</ele>
        <time>2014-05-04T09:25:35Z</time>
      </trkpt>
      <trkpt lat="44.31118" lon="5.30116">
        <ele>767.3</ele>
        <time>2014-05-04T09:25:37Z</time>
      </trkpt>
      <trkpt lat="44.31118" lon="5.30123">
        <ele>767.5</ele>
        <time>2014-05-04T09:25:39Z</time>
      </trkpt>
      <trkpt lat="44.31118" lon="5.30129">
        <ele>767.5</ele>
        <time>2014-05-04T09:25:41Z</time>
      </trkpt>
      <trkpt lat="44.31118" lon="5.30135">
        <ele>767.7</ele>
        <time>2014-05-04T09:25:43Z</time>
      </trkpt>
      <trkpt lat="44.31117" lon="5.30145">
        <ele>767.9</ele>
        <time>2014-05-04T09:25:46Z</time>
      </trkpt>
      <trkpt lat="44.31116" lon="5.30151">
        <ele>768.2</ele>
        <time>2014-05-04T09:25:48Z</time>
      </trkpt>
      <trkpt lat="44.31115" lon="5.30157">
        <ele>768.8</ele>
        <time>2014-05-04T09:25:50Z</time>
      </trkpt>
      <trkpt lat="44.31114" lon="5.30163">
        <ele>769.4</ele>
        <time>2014-05-04T09:25:52Z</time>
      </trkpt>
      <trkpt lat="44.31112" lon="5.30171">
        <ele>770.4</ele>
        <time>2014-05-04T09:25:54Z</time>
      </trkpt>
      <trkpt lat="44.31109" lon="5.30178">
        <ele>771.2</ele>
        <time>2014-05-04T09:25:56Z</time>
      </trkpt>
      <trkpt lat="44.31107" lon="5.30185">
        <ele>772</ele>
        <time>2014-05-04T09:25:58Z</time>
      </trkpt>
      <trkpt lat="44.31105" lon="5.30191">
        <ele>772.7</ele>
        <time>2014-05-04T09:26:00Z</time>
      </trkpt>
      <trkpt lat="44.31103" lon="5.30198">
        <ele>773.3</ele>
        <time>2014-05-04T09:26:02Z</time>
      </trkpt>
      <trkpt lat="44.31101" lon="5.30204">
        <ele>773.9</ele>
        <time>2014-05-04T09:26:04Z</time>
      </trkpt>
      <trkpt lat="44.31099" lon="5.3021">
        <ele>774.7</ele>
        <time>2014-05-04T09:26:06Z</time>
      </trkpt>
      <trkpt lat="44.31097" lon="5.30216">
        <ele>775.2</ele>
        <time>2014-05-04T09:26:08Z</time>
      </trkpt>
      <trkpt lat="44.31094" lon="5.30222">
        <ele>775.8</ele>
        <time>2014-05-04T09:26:10Z</time>
      </trkpt>
      <trkpt lat="44.31092" lon="5.30227">
        <ele>776.2</ele>
        <time>2014-05-04T09:26:12Z</time>
      </trkpt>
      <trkpt lat="44.31091" lon="5.30234">
        <ele>776.5</ele>
        <time>2014-05-04T09:26:14Z</time>
      </trkpt>
      <trkpt lat="44.31089" lon="5.3024">
        <ele>776.7</ele>
        <time>2014-05-04T09:26:16Z</time>
      </trkpt>
      <trkpt lat="44.31087" lon="5.30246">
        <ele>776.9</ele>
        <time>2014-05-04T09:26:18Z</time>
      </trkpt>
      <trkpt lat="44.31086" lon="5.30253">
        <ele>777</ele>
        <time>2014-05-04T09:26:20Z</time>
      </trkpt>
      <trkpt lat="44.31084" lon="5.3026">
        <ele>776.6</ele>
        <time>2014-05-04T09:26:22Z</time>
      </trkpt>
      <trkpt lat="44.31083" lon="5.30267">
        <ele>776.1</ele>
        <time>2014-05-04T09:26:24Z</time>
      </trkpt>
      <trkpt lat="44.31082" lon="5.30274">
        <ele>775.9</ele>
        <time>2014-05-04T09:26:26Z</time>
      </trkpt>
      <trkpt lat="44.31081" lon="5.30281">
        <ele>775.8</ele>
        <time>2014-05-04T09:26:28Z</time>
      </trkpt>
      <trkpt lat="44.31079" lon="5.30289">
        <ele>775.5</ele>
        <time>2014-05-04T09:26:30Z</time>
      </trkpt>
      <trkpt lat="44.31078" lon="5.30304">
        <ele>774.7</ele>
        <time>2014-05-04T09:26:34Z</time>
      </trkpt>
      <trkpt lat="44.31077" lon="5.30312">
        <ele>774.2</ele>
        <time>2014-05-04T09:26:36Z</time>
      </trkpt>
      <trkpt lat="44.31076" lon="5.3032">
        <ele>773.7</ele>
        <time>2014-05-04T09:26:38Z</time>
      </trkpt>
      <trkpt lat="44.31075" lon="5.30328">
        <ele>773.3</ele>
        <time>2014-05-04T09:26:40Z</time>
      </trkpt>
      <trkpt lat="44.31074" lon="5.30336">
        <ele>773</ele>
        <time>2014-05-04T09:26:42Z</time>
      </trkpt>
      <trkpt lat="44.31073" lon="5.30343">
        <ele>773.4</ele>
        <time>2014-05-04T09:26:44Z</time>
      </trkpt>
      <trkpt lat="44.31072" lon="5.3035">
        <ele>773.7</ele>
        <time>2014-05-04T09:26:46Z</time>
      </trkpt>
      <trkpt lat="44.31072" lon="5.30358">
        <ele>773.9</ele>
        <time>2014-05-04T09:26:48Z</time>
      </trkpt>
      <trkpt lat="44.31072" lon="5.30365">
        <ele>773.8</ele>
        <time>2014-05-04T09:26:50Z</time>
      </trkpt>
      <trkpt lat="44.31072" lon="5.30373">
        <ele>773.6</ele>
        <time>2014-05-04T09:26:52Z</time>
      </trkpt>
      <trkpt lat="44.31072" lon="5.3038">
        <ele>773.6</ele>
        <time>2014-05-04T09:26:54Z</time>
      </trkpt>
      <trkpt lat="44.31071" lon="5.30387">
        <ele>773.7</ele>
        <time>2014-05-04T09:26:56Z</time>
      </trkpt>
      <trkpt lat="44.31071" lon="5.30396">
        <ele>773.9</ele>
        <time>2014-05-04T09:26:59Z</time>
      </trkpt>
      <trkpt lat="44.31069" lon="5.30405">
        <ele>774.4</ele>
        <time>2014-05-04T09:27:02Z</time>
      </trkpt>
      <trkpt lat="44.31067" lon="5.30417">
        <ele>775.1</ele>
        <time>2014-05-04T09:27:06Z</time>
      </trkpt>
      <trkpt lat="44.31065" lon="5.30427">
        <ele>776.4</ele>
        <time>2014-05-04T09:27:10Z</time>
      </trkpt>
      <trkpt lat="44.31062" lon="5.30436">
        <ele>778</ele>
        <time>2014-05-04T09:27:14Z</time>
      </trkpt>
      <trkpt lat="44.3106" lon="5.30445">
        <ele>778.9</ele>
        <time>2014-05-04T09:27:18Z</time>
      </trkpt>
      <trkpt lat="44.31058" lon="5.30453">
        <ele>780</ele>
        <time>2014-05-04T09:27:22Z</time>
      </trkpt>
      <trkpt lat="44.31056" lon="5.30461">
        <ele>781</ele>
        <time>2014-05-04T09:27:26Z</time>
      </trkpt>
      <trkpt lat="44.31054" lon="5.30468">
        <ele>782.2</ele>
        <time>2014-05-04T09:27:30Z</time>
      </trkpt>
      <trkpt lat="44.31049" lon="5.30481">
        <ele>784.4</ele>
        <time>2014-05-04T09:27:38Z</time>
      </trkpt>
      <trkpt lat="44.31049" lon="5.30489">
        <ele>784.9</ele>
        <time>2014-05-04T09:27:43Z</time>
      </trkpt>
      <trkpt lat="44.31047" lon="5.30496">
        <ele>785.6</ele>
        <time>2014-05-04T09:27:46Z</time>
      </trkpt>
      <trkpt lat="44.31048" lon="5.30504">
        <ele>785.8</ele>
        <time>2014-05-04T09:27:50Z</time>
      </trkpt>
      <trkpt lat="44.31048" lon="5.30511">
        <ele>785.7</ele>
        <time>2014-05-04T09:27:52Z</time>
      </trkpt>
      <trkpt lat="44.31049" lon="5.30519">
        <ele>785.6</ele>
        <time>2014-05-04T09:27:56Z</time>
      </trkpt>
      <trkpt lat="44.31047" lon="5.30526">
        <ele>786.4</ele>
        <time>2014-05-04T09:28:00Z</time>
      </trkpt>
      <trkpt lat="44.31047" lon="5.30535">
        <ele>786.9</ele>
        <time>2014-05-04T09:28:05Z</time>
      </trkpt>
      <trkpt lat="44.31047" lon="5.30542">
        <ele>786.8</ele>
        <time>2014-05-04T09:28:09Z</time>
      </trkpt>
      <trkpt lat="44.31044" lon="5.30556">
        <ele>788.8</ele>
        <time>2014-05-04T09:28:15Z</time>
      </trkpt>
      <trkpt lat="44.31044" lon="5.30564">
        <ele>789</ele>
        <time>2014-05-04T09:28:19Z</time>
      </trkpt>
      <trkpt lat="44.3104" lon="5.3058">
        <ele>791</ele>
        <time>2014-05-04T09:28:25Z</time>
      </trkpt>
      <trkpt lat="44.31041" lon="5.30591">
        <ele>791.3</ele>
        <time>2014-05-04T09:28:29Z</time>
      </trkpt>
      <trkpt lat="44.31039" lon="5.30604">
        <ele>792.5</ele>
        <time>2014-05-04T09:28:33Z</time>
      </trkpt>
      <trkpt lat="44.31039" lon="5.30619">
        <ele>793.3</ele>
        <time>2014-05-04T09:28:38Z</time>
      </trkpt>
      <trkpt lat="44.31039" lon="5.30626">
        <ele>793.8</ele>
        <time>2014-05-04T09:28:40Z</time>
      </trkpt>
      <trkpt lat="44.3104" lon="5.30634">
        <ele>793.9</ele>
        <time>2014-05-04T09:28:43Z</time>
      </trkpt>
      <trkpt lat="44.31039" lon="5.30641">
        <ele>794.7</ele>
        <time>2014-05-04T09:28:45Z</time>
      </trkpt>
      <trkpt lat="44.31039" lon="5.3065">
        <ele>794.8</ele>
        <time>2014-05-04T09:28:48Z</time>
      </trkpt>
      <trkpt lat="44.3104" lon="5.30657">
        <ele>794.8</ele>
        <time>2014-05-04T09:28:50Z</time>
      </trkpt>
      <trkpt lat="44.3104" lon="5.30664">
        <ele>795</ele>
        <time>2014-05-04T09:28:52Z</time>
      </trkpt>
      <trkpt lat="44.31041" lon="5.30671">
        <ele>795</ele>
        <time>2014-05-04T09:28:54Z</time>
      </trkpt>
      <trkpt lat="44.31043" lon="5.30677">
        <ele>794.5</ele>
        <time>2014-05-04T09:28:56Z</time>
      </trkpt>
      <trkpt lat="44.31043" lon="5.30684">
        <ele>794.5</ele>
        <time>2014-05-04T09:28:58Z</time>
      </trkpt>
      <trkpt lat="44.31044" lon="5.30691">
        <ele>794.5</ele>
        <time>2014-05-04T09:29:00Z</time>
      </trkpt>
      <trkpt lat="44.31045" lon="5.30697">
        <ele>794.1</ele>
        <time>2014-05-04T09:29:02Z</time>
      </trkpt>
      <trkpt lat="44.31047" lon="5.30704">
        <ele>793.4</ele>
        <time>2014-05-04T09:29:04Z</time>
      </trkpt>
      <trkpt lat="44.31048" lon="5.30711">
        <ele>793.5</ele>
        <time>2014-05-04T09:29:06Z</time>
      </trkpt>
      <trkpt lat="44.31049" lon="5.30718">
        <ele>793.3</ele>
        <time>2014-05-04T09:29:08Z</time>
      </trkpt>
      <trkpt lat="44.31049" lon="5.30725">
        <ele>793.2</ele>
        <time>2014-05-04T09:29:10Z</time>
      </trkpt>
      <trkpt lat="44.3105" lon="5.30732">
        <ele>793.3</ele>
        <time>2014-05-04T09:29:12Z</time>
      </trkpt>
      <trkpt lat="44.31051" lon="5.3074">
        <ele>793.1</ele>
        <time>2014-05-04T09:29:14Z</time>
      </trkpt>
      <trkpt lat="44.31051" lon="5.30747">
        <ele>793</ele>
        <time>2014-05-04T09:29:16Z</time>
      </trkpt>
      <trkpt lat="44.31052" lon="5.30754">
        <ele>792.9</ele>
        <time>2014-05-04T09:29:18Z</time>
      </trkpt>
      <trkpt lat="44.31053" lon="5.30763">
        <ele>792.7</ele>
        <time>2014-05-04T09:29:21Z</time>
      </trkpt>
      <trkpt lat="44.31053" lon="5.30771">
        <ele>792.7</ele>
        <time>2014-05-04T09:29:24Z</time>
      </trkpt>
      <trkpt lat="44.31055" lon="5.3078">
        <ele>792.3</ele>
        <time>2014-05-04T09:29:27Z</time>
      </trkpt>
      <trkpt lat="44.31055" lon="5.30788">
        <ele>792.6</ele>
        <time>2014-05-04T09:29:30Z</time>
      </trkpt>
      <trkpt lat="44.31055" lon="5.30796">
        <ele>792.9</ele>
        <time>2014-05-04T09:29:33Z</time>
      </trkpt>
      <trkpt lat="44.31056" lon="5.30804">
        <ele>792.7</ele>
        <time>2014-05-04T09:29:36Z</time>
      </trkpt>
      <trkpt lat="44.31055" lon="5.30821">
        <ele>793.9</ele>
        <time>2014-05-04T09:29:42Z</time>
      </trkpt>
      <trkpt lat="44.31054" lon="5.30829">
        <ele>794.7</ele>
        <time>2014-05-04T09:29:45Z</time>
      </trkpt>
      <trkpt lat="44.31053" lon="5.30836">
        <ele>795.5</ele>
        <time>2014-05-04T09:29:48Z</time>
      </trkpt>
      <trkpt lat="44.31052" lon="5.30844">
        <ele>796.3</ele>
        <time>2014-05-04T09:29:51Z</time>
      </trkpt>
      <trkpt lat="44.31051" lon="5.30851">
        <ele>797.1</ele>
        <time>2014-05-04T09:29:54Z</time>
      </trkpt>
      <trkpt lat="44.31049" lon="5.30858">
        <ele>798.1</ele>
        <time>2014-05-04T09:29:57Z</time>
      </trkpt>
      <trkpt lat="44.31048" lon="5.30866">
        <ele>798.9</ele>
        <time>2014-05-04T09:30:00Z</time>
      </trkpt>
      <trkpt lat="44.31047" lon="5.30874">
        <ele>799.9</ele>
        <time>2014-05-04T09:30:03Z</time>
      </trkpt>
      <trkpt lat="44.31046" lon="5.30882">
        <ele>800.6</ele>
        <time>2014-05-04T09:30:06Z</time>
      </trkpt>
      <trkpt lat="44.31046" lon="5.30889">
        <ele>801.4</ele>
        <time>2014-05-04T09:30:09Z</time>
      </trkpt>
      <trkpt lat="44.31045" lon="5.30895">
        <ele>801.8</ele>
        <time>2014-05-04T09:30:12Z</time>
      </trkpt>
      <trkpt lat="44.31041" lon="5.309">
        <ele>803.8</ele>
        <time>2014-05-04T09:30:16Z</time>
      </trkpt>
      <trkpt lat="44.31045" lon="5.30904">
        <ele>802.4</ele>
        <time>2014-05-04T09:30:21Z</time>
      </trkpt>
      <trkpt lat="44.31042" lon="5.3091">
        <ele>804</ele>
        <time>2014-05-04T09:34:10Z</time>
      </trkpt>
      <trkpt lat="44.31041" lon="5.30928">
        <ele>804.9</ele>
        <time>2014-05-04T09:34:15Z</time>
      </trkpt>
      <trkpt lat="44.31041" lon="5.30935">
        <ele>804.8</ele>
        <time>2014-05-04T09:34:16Z</time>
      </trkpt>
      <trkpt lat="44.31041" lon="5.30943">
        <ele>804.5</ele>
        <time>2014-05-04T09:34:17Z</time>
      </trkpt>
      <trkpt lat="44.31042" lon="5.30951">
        <ele>804</ele>
        <time>2014-05-04T09:34:18Z</time>
      </trkpt>
      <trkpt lat="44.31043" lon="5.3096">
        <ele>803.5</ele>
        <time>2014-05-04T09:34:19Z</time>
      </trkpt>
      <trkpt lat="44.31045" lon="5.30968">
        <ele>802.8</ele>
        <time>2014-05-04T09:34:20Z</time>
      </trkpt>
      <trkpt lat="44.31046" lon="5.30977">
        <ele>802.2</ele>
        <time>2014-05-04T09:34:21Z</time>
      </trkpt>
      <trkpt lat="44.31046" lon="5.30985">
        <ele>801.8</ele>
        <time>2014-05-04T09:34:22Z</time>
      </trkpt>
      <trkpt lat="44.31047" lon="5.30994">
        <ele>801.6</ele>
        <time>2014-05-04T09:34:23Z</time>
      </trkpt>
      <trkpt lat="44.31047" lon="5.31003">
        <ele>801.5</ele>
        <time>2014-05-04T09:34:24Z</time>
      </trkpt>
      <trkpt lat="44.31047" lon="5.31011">
        <ele>801.5</ele>
        <time>2014-05-04T09:34:25Z</time>
      </trkpt>
      <trkpt lat="44.31047" lon="5.31019">
        <ele>801.3</ele>
        <time>2014-05-04T09:34:26Z</time>
      </trkpt>
      <trkpt lat="44.31048" lon="5.31026">
        <ele>801.2</ele>
        <time>2014-05-04T09:34:27Z</time>
      </trkpt>
      <trkpt lat="44.31048" lon="5.31037">
        <ele>800.9</ele>
        <time>2014-05-04T09:34:29Z</time>
      </trkpt>
      <trkpt lat="44.3105" lon="5.31045">
        <ele>799.9</ele>
        <time>2014-05-04T09:34:31Z</time>
      </trkpt>
      <trkpt lat="44.31051" lon="5.31053">
        <ele>799.5</ele>
        <time>2014-05-04T09:34:33Z</time>
      </trkpt>
      <trkpt lat="44.31052" lon="5.31061">
        <ele>799.2</ele>
        <time>2014-05-04T09:34:35Z</time>
      </trkpt>
      <trkpt lat="44.31053" lon="5.3107">
        <ele>798.7</ele>
        <time>2014-05-04T09:34:37Z</time>
      </trkpt>
      <trkpt lat="44.31054" lon="5.31077">
        <ele>798.1</ele>
        <time>2014-05-04T09:34:39Z</time>
      </trkpt>
      <trkpt lat="44.31054" lon="5.31086">
        <ele>798.2</ele>
        <time>2014-05-04T09:34:41Z</time>
      </trkpt>
      <trkpt lat="44.31054" lon="5.31096">
        <ele>798.7</ele>
        <time>2014-05-04T09:34:43Z</time>
      </trkpt>
      <trkpt lat="44.31055" lon="5.31106">
        <ele>799.1</ele>
        <time>2014-05-04T09:34:45Z</time>
      </trkpt>
      <trkpt lat="44.31055" lon="5.31116">
        <ele>799.7</ele>
        <time>2014-05-04T09:34:47Z</time>
      </trkpt>
      <trkpt lat="44.31056" lon="5.31126">
        <ele>800.1</ele>
        <time>2014-05-04T09:34:49Z</time>
      </trkpt>
      <trkpt lat="44.31056" lon="5.31135">
        <ele>800.5</ele>
        <time>2014-05-04T09:34:51Z</time>
      </trkpt>
      <trkpt lat="44.31056" lon="5.31145">
        <ele>801.1</ele>
        <time>2014-05-04T09:34:53Z</time>
      </trkpt>
      <trkpt lat="44.31056" lon="5.31156">
        <ele>801.8</ele>
        <time>2014-05-04T09:34:55Z</time>
      </trkpt>
      <trkpt lat="44.31056" lon="5.31166">
        <ele>802.7</ele>
        <time>2014-05-04T09:34:57Z</time>
      </trkpt>
      <trkpt lat="44.31056" lon="5.31175">
        <ele>803.1</ele>
        <time>2014-05-04T09:34:59Z</time>
      </trkpt>
      <trkpt lat="44.31056" lon="5.31185">
        <ele>803.1</ele>
        <time>2014-05-04T09:35:01Z</time>
      </trkpt>
      <trkpt lat="44.31057" lon="5.31194">
        <ele>802.8</ele>
        <time>2014-05-04T09:35:03Z</time>
      </trkpt>
      <trkpt lat="44.31059" lon="5.31204">
        <ele>802.5</ele>
        <time>2014-05-04T09:35:05Z</time>
      </trkpt>
      <trkpt lat="44.3106" lon="5.31214">
        <ele>802.1</ele>
        <time>2014-05-04T09:35:07Z</time>
      </trkpt>
      <trkpt lat="44.31061" lon="5.31223">
        <ele>801.7</ele>
        <time>2014-05-04T09:35:09Z</time>
      </trkpt>
      <trkpt lat="44.31062" lon="5.31231">
        <ele>801.6</ele>
        <time>2014-05-04T09:35:11Z</time>
      </trkpt>
      <trkpt lat="44.31062" lon="5.31249">
        <ele>801.9</ele>
        <time>2014-05-04T09:35:15Z</time>
      </trkpt>
      <trkpt lat="44.31062" lon="5.31259">
        <ele>802.2</ele>
        <time>2014-05-04T09:35:17Z</time>
      </trkpt>
      <trkpt lat="44.31063" lon="5.3127">
        <ele>802.1</ele>
        <time>2014-05-04T09:35:19Z</time>
      </trkpt>
      <trkpt lat="44.31065" lon="5.3128">
        <ele>801.8</ele>
        <time>2014-05-04T09:35:21Z</time>
      </trkpt>
      <trkpt lat="44.31065" lon="5.31291">
        <ele>802</ele>
        <time>2014-05-04T09:35:23Z</time>
      </trkpt>
      <trkpt lat="44.31065" lon="5.31301">
        <ele>802.2</ele>
        <time>2014-05-04T09:35:25Z</time>
      </trkpt>
      <trkpt lat="44.31065" lon="5.31311">
        <ele>803</ele>
        <time>2014-05-04T09:35:27Z</time>
      </trkpt>
      <trkpt lat="44.31065" lon="5.31323">
        <ele>803.2</ele>
        <time>2014-05-04T09:35:29Z</time>
      </trkpt>
      <trkpt lat="44.31066" lon="5.31331">
        <ele>803</ele>
        <time>2014-05-04T09:35:30Z</time>
      </trkpt>
      <trkpt lat="44.31067" lon="5.3134">
        <ele>802.4</ele>
        <time>2014-05-04T09:35:31Z</time>
      </trkpt>
      <trkpt lat="44.31069" lon="5.31348">
        <ele>801.8</ele>
        <time>2014-05-04T09:35:32Z</time>
      </trkpt>
      <trkpt lat="44.3107" lon="5.31357">
        <ele>801.1</ele>
        <time>2014-05-04T09:35:33Z</time>
      </trkpt>
      <trkpt lat="44.31072" lon="5.31365">
        <ele>800.3</ele>
        <time>2014-05-04T09:35:34Z</time>
      </trkpt>
      <trkpt lat="44.31073" lon="5.31373">
        <ele>799.4</ele>
        <time>2014-05-04T09:35:35Z</time>
      </trkpt>
      <trkpt lat="44.31075" lon="5.31381">
        <ele>798.6</ele>
        <time>2014-05-04T09:35:36Z</time>
      </trkpt>
      <trkpt lat="44.31077" lon="5.31389">
        <ele>797.5</ele>
        <time>2014-05-04T09:35:37Z</time>
      </trkpt>
      <trkpt lat="44.31079" lon="5.31397">
        <ele>796.5</ele>
        <time>2014-05-04T09:35:38Z</time>
      </trkpt>
      <trkpt lat="44.31081" lon="5.31405">
        <ele>795.4</ele>
        <time>2014-05-04T09:35:39Z</time>
      </trkpt>
      <trkpt lat="44.31082" lon="5.31414">
        <ele>794.5</ele>
        <time>2014-05-04T09:35:40Z</time>
      </trkpt>
      <trkpt lat="44.31084" lon="5.31422">
        <ele>794</ele>
        <time>2014-05-04T09:35:41Z</time>
      </trkpt>
      <trkpt lat="44.31086" lon="5.31431">
        <ele>793.7</ele>
        <time>2014-05-04T09:35:42Z</time>
      </trkpt>
      <trkpt lat="44.31087" lon="5.31441">
        <ele>793.5</ele>
        <time>2014-05-04T09:35:43Z</time>
      </trkpt>
      <trkpt lat="44.31088" lon="5.3145">
        <ele>793.5</ele>
        <time>2014-05-04T09:35:44Z</time>
      </trkpt>
      <trkpt lat="44.3109" lon="5.31459">
        <ele>793.4</ele>
        <time>2014-05-04T09:35:45Z</time>
      </trkpt>
      <trkpt lat="44.31091" lon="5.31469">
        <ele>793.3</ele>
        <time>2014-05-04T09:35:46Z</time>
      </trkpt>
      <trkpt lat="44.31092" lon="5.31478">
        <ele>793.4</ele>
        <time>2014-05-04T09:35:47Z</time>
      </trkpt>
      <trkpt lat="44.31094" lon="5.31489">
        <ele>793.2</ele>
        <time>2014-05-04T09:35:48Z</time>
      </trkpt>
      <trkpt lat="44.31097" lon="5.31499">
        <ele>792.9</ele>
        <time>2014-05-04T09:35:49Z</time>
      </trkpt>
      <trkpt lat="44.31099" lon="5.31509">
        <ele>792.4</ele>
        <time>2014-05-04T09:35:50Z</time>
      </trkpt>
      <trkpt lat="44.31101" lon="5.31519">
        <ele>791.8</ele>
        <time>2014-05-04T09:35:51Z</time>
      </trkpt>
      <trkpt lat="44.31104" lon="5.31529">
        <ele>791.2</ele>
        <time>2014-05-04T09:35:52Z</time>
      </trkpt>
      <trkpt lat="44.31106" lon="5.31539">
        <ele>790.6</ele>
        <time>2014-05-04T09:35:53Z</time>
      </trkpt>
      <trkpt lat="44.31109" lon="5.31548">
        <ele>790.1</ele>
        <time>2014-05-04T09:35:54Z</time>
      </trkpt>
      <trkpt lat="44.31111" lon="5.31556">
        <ele>789.5</ele>
        <time>2014-05-04T09:35:55Z</time>
      </trkpt>
      <trkpt lat="44.31114" lon="5.31565">
        <ele>788.9</ele>
        <time>2014-05-04T09:35:56Z</time>
      </trkpt>
      <trkpt lat="44.31117" lon="5.31574">
        <ele>788.2</ele>
        <time>2014-05-04T09:35:57Z</time>
      </trkpt>
      <trkpt lat="44.3112" lon="5.31582">
        <ele>787.5</ele>
        <time>2014-05-04T09:35:58Z</time>
      </trkpt>
      <trkpt lat="44.31124" lon="5.31591">
        <ele>786.2</ele>
        <time>2014-05-04T09:35:59Z</time>
      </trkpt>
      <trkpt lat="44.31128" lon="5.31599">
        <ele>784.6</ele>
        <time>2014-05-04T09:36:00Z</time>
      </trkpt>
      <trkpt lat="44.31131" lon="5.31608">
        <ele>783</ele>
        <time>2014-05-04T09:36:01Z</time>
      </trkpt>
      <trkpt lat="44.31135" lon="5.31617">
        <ele>781.5</ele>
        <time>2014-05-04T09:36:02Z</time>
      </trkpt>
      <trkpt lat="44.31138" lon="5.31627">
        <ele>780</ele>
        <time>2014-05-04T09:36:03Z</time>
      </trkpt>
      <trkpt lat="44.3114" lon="5.31638">
        <ele>778.7</ele>
        <time>2014-05-04T09:36:04Z</time>
      </trkpt>
      <trkpt lat="44.31141" lon="5.31649">
        <ele>777.4</ele>
        <time>2014-05-04T09:36:05Z</time>
      </trkpt>
      <trkpt lat="44.31142" lon="5.3166">
        <ele>776.5</ele>
        <time>2014-05-04T09:36:06Z</time>
      </trkpt>
      <trkpt lat="44.31142" lon="5.31671">
        <ele>775.7</ele>
        <time>2014-05-04T09:36:07Z</time>
      </trkpt>
      <trkpt lat="44.31143" lon="5.31682">
        <ele>775.3</ele>
        <time>2014-05-04T09:36:08Z</time>
      </trkpt>
      <trkpt lat="44.31142" lon="5.31692">
        <ele>775</ele>
        <time>2014-05-04T09:36:09Z</time>
      </trkpt>
      <trkpt lat="44.31142" lon="5.31702">
        <ele>774.8</ele>
        <time>2014-05-04T09:36:10Z</time>
      </trkpt>
      <trkpt lat="44.31142" lon="5.31711">
        <ele>774.4</ele>
        <time>2014-05-04T09:36:11Z</time>
      </trkpt>
      <trkpt lat="44.31142" lon="5.31721">
        <ele>774.1</ele>
        <time>2014-05-04T09:36:12Z</time>
      </trkpt>
      <trkpt lat="44.31142" lon="5.3174">
        <ele>773.4</ele>
        <time>2014-05-04T09:36:14Z</time>
      </trkpt>
      <trkpt lat="44.31143" lon="5.31749">
        <ele>772.9</ele>
        <time>2014-05-04T09:36:15Z</time>
      </trkpt>
      <trkpt lat="44.31143" lon="5.31759">
        <ele>773</ele>
        <time>2014-05-04T09:36:16Z</time>
      </trkpt>
      <trkpt lat="44.31144" lon="5.31769">
        <ele>772.9</ele>
        <time>2014-05-04T09:36:17Z</time>
      </trkpt>
      <trkpt lat="44.31145" lon="5.3178">
        <ele>773</ele>
        <time>2014-05-04T09:36:18Z</time>
      </trkpt>
      <trkpt lat="44.31146" lon="5.3179">
        <ele>773.2</ele>
        <time>2014-05-04T09:36:19Z</time>
      </trkpt>
      <trkpt lat="44.31147" lon="5.31801">
        <ele>773.4</ele>
        <time>2014-05-04T09:36:20Z</time>
      </trkpt>
      <trkpt lat="44.31147" lon="5.31812">
        <ele>773.8</ele>
        <time>2014-05-04T09:36:21Z</time>
      </trkpt>
      <trkpt lat="44.31146" lon="5.31821">
        <ele>774.2</ele>
        <time>2014-05-04T09:36:22Z</time>
      </trkpt>
      <trkpt lat="44.31146" lon="5.31828">
        <ele>774.7</ele>
        <time>2014-05-04T09:36:23Z</time>
      </trkpt>
      <trkpt lat="44.31144" lon="5.31834">
        <ele>775.5</ele>
        <time>2014-05-04T09:36:25Z</time>
      </trkpt>
      <trkpt lat="44.31143" lon="5.3184">
        <ele>776.6</ele>
        <time>2014-05-04T09:36:28Z</time>
      </trkpt>
      <trkpt lat="44.3114" lon="5.31847">
        <ele>778.5</ele>
        <time>2014-05-04T09:36:32Z</time>
      </trkpt>
      <trkpt lat="44.31138" lon="5.31854">
        <ele>779.8</ele>
        <time>2014-05-04T09:36:36Z</time>
      </trkpt>
      <trkpt lat="44.31134" lon="5.31859">
        <ele>781.7</ele>
        <time>2014-05-04T09:36:40Z</time>
      </trkpt>
      <trkpt lat="44.3113" lon="5.3186">
        <ele>783.5</ele>
        <time>2014-05-04T09:36:44Z</time>
      </trkpt>
      <trkpt lat="44.31125" lon="5.3186">
        <ele>785.5</ele>
        <time>2014-05-04T09:36:49Z</time>
      </trkpt>
      <trkpt lat="44.3112" lon="5.31862">
        <ele>787.9</ele>
        <time>2014-05-04T09:38:01Z</time>
      </trkpt>
      <trkpt lat="44.31111" lon="5.31863">
        <ele>791.6</ele>
        <time>2014-05-04T09:38:07Z</time>
      </trkpt>
      <trkpt lat="44.31105" lon="5.31862">
        <ele>793.9</ele>
        <time>2014-05-04T09:38:11Z</time>
      </trkpt>
      <trkpt lat="44.31099" lon="5.31864">
        <ele>796.4</ele>
        <time>2014-05-04T09:38:15Z</time>
      </trkpt>
      <trkpt lat="44.31094" lon="5.31862">
        <ele>798.4</ele>
        <time>2014-05-04T09:38:18Z</time>
      </trkpt>
      <trkpt lat="44.31091" lon="5.31857">
        <ele>799.1</ele>
        <time>2014-05-04T09:38:21Z</time>
      </trkpt>
      <trkpt lat="44.31087" lon="5.31854">
        <ele>800.4</ele>
        <time>2014-05-04T09:38:31Z</time>
      </trkpt>
      <trkpt lat="44.31082" lon="5.31855">
        <ele>801.9</ele>
        <time>2014-05-04T09:38:41Z</time>
      </trkpt>
      <trkpt lat="44.31079" lon="5.3185">
        <ele>801.3</ele>
        <time>2014-05-04T09:39:00Z</time>
      </trkpt>
      <trkpt lat="44.31076" lon="5.31855">
        <ele>801.8</ele>
        <time>2014-05-04T09:39:18Z</time>
      </trkpt>
      <trkpt lat="44.31071" lon="5.31858">
        <ele>802.3</ele>
        <time>2014-05-04T09:39:31Z</time>
      </trkpt>
      <trkpt lat="44.31068" lon="5.31852">
        <ele>801.7</ele>
        <time>2014-05-04T09:39:38Z</time>
      </trkpt>
      <trkpt lat="44.31064" lon="5.31848">
        <ele>801.3</ele>
        <time>2014-05-04T09:39:50Z</time>
      </trkpt>
      <trkpt lat="44.31061" lon="5.31842">
        <ele>800.8</ele>
        <time>2014-05-04T09:39:52Z</time>
      </trkpt>
      <trkpt lat="44.31057" lon="5.31837">
        <ele>800.5</ele>
        <time>2014-05-04T09:39:54Z</time>
      </trkpt>
      <trkpt lat="44.31052" lon="5.31837">
        <ele>800.7</ele>
        <time>2014-05-04T09:39:57Z</time>
      </trkpt>
      <trkpt lat="44.31046" lon="5.31833">
        <ele>800.8</ele>
        <time>2014-05-04T09:40:00Z</time>
      </trkpt>
      <trkpt lat="44.31042" lon="5.31831">
        <ele>801.2</ele>
        <time>2014-05-04T09:40:06Z</time>
      </trkpt>
      <trkpt lat="44.31042" lon="5.31838">
        <ele>801.2</ele>
        <time>2014-05-04T09:40:11Z</time>
      </trkpt>
      <trkpt lat="44.31041" lon="5.31845">
        <ele>801.7</ele>
        <time>2014-05-04T09:40:13Z</time>
      </trkpt>
      <trkpt lat="44.31041" lon="5.31853">
        <ele>802.2</ele>
        <time>2014-05-04T09:40:16Z</time>
      </trkpt>
      <trkpt lat="44.3104" lon="5.31859">
        <ele>802.6</ele>
        <time>2014-05-04T09:40:18Z</time>
      </trkpt>
      <trkpt lat="44.31039" lon="5.31867">
        <ele>803</ele>
        <time>2014-05-04T09:40:21Z</time>
      </trkpt>
      <trkpt lat="44.31035" lon="5.31881">
        <ele>803.6</ele>
        <time>2014-05-04T09:40:26Z</time>
      </trkpt>
      <trkpt lat="44.31033" lon="5.31888">
        <ele>803.9</ele>
        <time>2014-05-04T09:40:28Z</time>
      </trkpt>
      <trkpt lat="44.31027" lon="5.31886">
        <ele>803.5</ele>
        <time>2014-05-04T09:40:32Z</time>
      </trkpt>
      <trkpt lat="44.31022" lon="5.31881">
        <ele>803.1</ele>
        <time>2014-05-04T09:40:35Z</time>
      </trkpt>
      <trkpt lat="44.31017" lon="5.31881">
        <ele>803</ele>
        <time>2014-05-04T09:40:38Z</time>
      </trkpt>
      <trkpt lat="44.31015" lon="5.31887">
        <ele>803</ele>
        <time>2014-05-04T09:40:40Z</time>
      </trkpt>
      <trkpt lat="44.31013" lon="5.31894">
        <ele>803</ele>
        <time>2014-05-04T09:40:42Z</time>
      </trkpt>
      <trkpt lat="44.3101" lon="5.31902">
        <ele>802.9</ele>
        <time>2014-05-04T09:40:44Z</time>
      </trkpt>
      <trkpt lat="44.31006" lon="5.31912">
        <ele>802.6</ele>
        <time>2014-05-04T09:40:46Z</time>
      </trkpt>
      <trkpt lat="44.31002" lon="5.31921">
        <ele>802.6</ele>
        <time>2014-05-04T09:40:48Z</time>
      </trkpt>
      <trkpt lat="44.30999" lon="5.31932">
        <ele>803.3</ele>
        <time>2014-05-04T09:40:50Z</time>
      </trkpt>
      <trkpt lat="44.30998" lon="5.31939">
        <ele>803.1</ele>
        <time>2014-05-04T09:40:51Z</time>
      </trkpt>
      <trkpt lat="44.30996" lon="5.31946">
        <ele>802.9</ele>
        <time>2014-05-04T09:40:52Z</time>
      </trkpt>
      <trkpt lat="44.30994" lon="5.31952">
        <ele>802.7</ele>
        <time>2014-05-04T09:40:53Z</time>
      </trkpt>
      <trkpt lat="44.30992" lon="5.31959">
        <ele>802.3</ele>
        <time>2014-05-04T09:40:54Z</time>
      </trkpt>
      <trkpt lat="44.30991" lon="5.31966">
        <ele>801.8</ele>
        <time>2014-05-04T09:40:55Z</time>
      </trkpt>
      <trkpt lat="44.30989" lon="5.31973">
        <ele>801.7</ele>
        <time>2014-05-04T09:40:56Z</time>
      </trkpt>
      <trkpt lat="44.30987" lon="5.3198">
        <ele>801.4</ele>
        <time>2014-05-04T09:40:57Z</time>
      </trkpt>
      <trkpt lat="44.30986" lon="5.31987">
        <ele>801.1</ele>
        <time>2014-05-04T09:40:58Z</time>
      </trkpt>
      <trkpt lat="44.30984" lon="5.31993">
        <ele>800.8</ele>
        <time>2014-05-04T09:40:59Z</time>
      </trkpt>
      <trkpt lat="44.30982" lon="5.31999">
        <ele>800.5</ele>
        <time>2014-05-04T09:41:00Z</time>
      </trkpt>
      <trkpt lat="44.3098" lon="5.32005">
        <ele>800.1</ele>
        <time>2014-05-04T09:41:01Z</time>
      </trkpt>
      <trkpt lat="44.30978" lon="5.32011">
        <ele>799.3</ele>
        <time>2014-05-04T09:41:02Z</time>
      </trkpt>
      <trkpt lat="44.30976" lon="5.32017">
        <ele>798.9</ele>
        <time>2014-05-04T09:41:03Z</time>
      </trkpt>
      <trkpt lat="44.30974" lon="5.32025">
        <ele>798.4</ele>
        <time>2014-05-04T09:41:04Z</time>
      </trkpt>
      <trkpt lat="44.30972" lon="5.32032">
        <ele>797.9</ele>
        <time>2014-05-04T09:41:05Z</time>
      </trkpt>
      <trkpt lat="44.3097" lon="5.32039">
        <ele>797.4</ele>
        <time>2014-05-04T09:41:06Z</time>
      </trkpt>
      <trkpt lat="44.30967" lon="5.32047">
        <ele>796.6</ele>
        <time>2014-05-04T09:41:07Z</time>
      </trkpt>
      <trkpt lat="44.30965" lon="5.32056">
        <ele>796.1</ele>
        <time>2014-05-04T09:41:08Z</time>
      </trkpt>
      <trkpt lat="44.30963" lon="5.32065">
        <ele>795.6</ele>
        <time>2014-05-04T09:41:09Z</time>
      </trkpt>
      <trkpt lat="44.3096" lon="5.32073">
        <ele>795.1</ele>
        <time>2014-05-04T09:41:10Z</time>
      </trkpt>
      <trkpt lat="44.30958" lon="5.32081">
        <ele>794.6</ele>
        <time>2014-05-04T09:41:11Z</time>
      </trkpt>
      <trkpt lat="44.30956" lon="5.32088">
        <ele>794.2</ele>
        <time>2014-05-04T09:41:12Z</time>
      </trkpt>
      <trkpt lat="44.30954" lon="5.32095">
        <ele>793.3</ele>
        <time>2014-05-04T09:41:13Z</time>
      </trkpt>
      <trkpt lat="44.30951" lon="5.32102">
        <ele>792.5</ele>
        <time>2014-05-04T09:41:14Z</time>
      </trkpt>
      <trkpt lat="44.30948" lon="5.3211">
        <ele>791.5</ele>
        <time>2014-05-04T09:41:15Z</time>
      </trkpt>
      <trkpt lat="44.30946" lon="5.32119">
        <ele>790.9</ele>
        <time>2014-05-04T09:41:16Z</time>
      </trkpt>
      <trkpt lat="44.30943" lon="5.32129">
        <ele>790.4</ele>
        <time>2014-05-04T09:41:17Z</time>
      </trkpt>
      <trkpt lat="44.30941" lon="5.32139">
        <ele>789.9</ele>
        <time>2014-05-04T09:41:18Z</time>
      </trkpt>
      <trkpt lat="44.30939" lon="5.32148">
        <ele>789.6</ele>
        <time>2014-05-04T09:41:19Z</time>
      </trkpt>
      <trkpt lat="44.30937" lon="5.32158">
        <ele>789.4</ele>
        <time>2014-05-04T09:41:20Z</time>
      </trkpt>
      <trkpt lat="44.30934" lon="5.32167">
        <ele>789.2</ele>
        <time>2014-05-04T09:41:21Z</time>
      </trkpt>
      <trkpt lat="44.30932" lon="5.32176">
        <ele>789.1</ele>
        <time>2014-05-04T09:41:22Z</time>
      </trkpt>
      <trkpt lat="44.30928" lon="5.32193">
        <ele>788.8</ele>
        <time>2014-05-04T09:41:24Z</time>
      </trkpt>
      <trkpt lat="44.30925" lon="5.32202">
        <ele>788.4</ele>
        <time>2014-05-04T09:41:25Z</time>
      </trkpt>
      <trkpt lat="44.30923" lon="5.32209">
        <ele>788.2</ele>
        <time>2014-05-04T09:41:26Z</time>
      </trkpt>
      <trkpt lat="44.3092" lon="5.32217">
        <ele>787.7</ele>
        <time>2014-05-04T09:41:27Z</time>
      </trkpt>
      <trkpt lat="44.30917" lon="5.32224">
        <ele>787.1</ele>
        <time>2014-05-04T09:41:28Z</time>
      </trkpt>
      <trkpt lat="44.30913" lon="5.32232">
        <ele>785.9</ele>
        <time>2014-05-04T09:41:29Z</time>
      </trkpt>
      <trkpt lat="44.30909" lon="5.32239">
        <ele>784.6</ele>
        <time>2014-05-04T09:41:30Z</time>
      </trkpt>
      <trkpt lat="44.30905" lon="5.32248">
        <ele>784</ele>
        <time>2014-05-04T09:41:31Z</time>
      </trkpt>
      <trkpt lat="44.30902" lon="5.32258">
        <ele>783</ele>
        <time>2014-05-04T09:41:32Z</time>
      </trkpt>
      <trkpt lat="44.309" lon="5.32267">
        <ele>781.9</ele>
        <time>2014-05-04T09:41:33Z</time>
      </trkpt>
      <trkpt lat="44.30897" lon="5.32275">
        <ele>780.5</ele>
        <time>2014-05-04T09:41:34Z</time>
      </trkpt>
      <trkpt lat="44.30894" lon="5.32283">
        <ele>779.5</ele>
        <time>2014-05-04T09:41:35Z</time>
      </trkpt>
      <trkpt lat="44.30892" lon="5.32291">
        <ele>778.3</ele>
        <time>2014-05-04T09:41:36Z</time>
      </trkpt>
      <trkpt lat="44.30889" lon="5.32299">
        <ele>777</ele>
        <time>2014-05-04T09:41:37Z</time>
      </trkpt>
      <trkpt lat="44.30886" lon="5.32306">
        <ele>775.6</ele>
        <time>2014-05-04T09:41:38Z</time>
      </trkpt>
      <trkpt lat="44.30884" lon="5.32315">
        <ele>774.8</ele>
        <time>2014-05-04T09:41:39Z</time>
      </trkpt>
      <trkpt lat="44.30883" lon="5.32323">
        <ele>774.5</ele>
        <time>2014-05-04T09:41:40Z</time>
      </trkpt>
      <trkpt lat="44.30882" lon="5.32332">
        <ele>774.4</ele>
        <time>2014-05-04T09:41:41Z</time>
      </trkpt>
      <trkpt lat="44.30882" lon="5.3234">
        <ele>774.6</ele>
        <time>2014-05-04T09:41:42Z</time>
      </trkpt>
      <trkpt lat="44.30883" lon="5.32347">
        <ele>775.1</ele>
        <time>2014-05-04T09:41:43Z</time>
      </trkpt>
      <trkpt lat="44.30884" lon="5.32354">
        <ele>775.9</ele>
        <time>2014-05-04T09:41:44Z</time>
      </trkpt>
      <trkpt lat="44.30887" lon="5.32359">
        <ele>777.6</ele>
        <time>2014-05-04T09:41:45Z</time>
      </trkpt>
      <trkpt lat="44.3089" lon="5.32365">
        <ele>779.8</ele>
        <time>2014-05-04T09:41:46Z</time>
      </trkpt>
      <trkpt lat="44.30894" lon="5.3237">
        <ele>782.3</ele>
        <time>2014-05-04T09:41:47Z</time>
      </trkpt>
      <trkpt lat="44.30898" lon="5.32376">
        <ele>784.8</ele>
        <time>2014-05-04T09:41:48Z</time>
      </trkpt>
      <trkpt lat="44.30901" lon="5.32383">
        <ele>786.8</ele>
        <time>2014-05-04T09:41:49Z</time>
      </trkpt>
      <trkpt lat="44.30903" lon="5.32391">
        <ele>788</ele>
        <time>2014-05-04T09:41:50Z</time>
      </trkpt>
      <trkpt lat="44.30904" lon="5.324">
        <ele>789</ele>
        <time>2014-05-04T09:41:51Z</time>
      </trkpt>
      <trkpt lat="44.30903" lon="5.32408">
        <ele>788.6</ele>
        <time>2014-05-04T09:41:52Z</time>
      </trkpt>
      <trkpt lat="44.30901" lon="5.32416">
        <ele>787.6</ele>
        <time>2014-05-04T09:41:53Z</time>
      </trkpt>
      <trkpt lat="44.30898" lon="5.32422">
        <ele>787</ele>
        <time>2014-05-04T09:41:54Z</time>
      </trkpt>
      <trkpt lat="44.30896" lon="5.32429">
        <ele>786.8</ele>
        <time>2014-05-04T09:41:55Z</time>
      </trkpt>
      <trkpt lat="44.30894" lon="5.32434">
        <ele>786.6</ele>
        <time>2014-05-04T09:41:56Z</time>
      </trkpt>
      <trkpt lat="44.30891" lon="5.32439">
        <ele>785.7</ele>
        <time>2014-05-04T09:41:57Z</time>
      </trkpt>
      <trkpt lat="44.30886" lon="5.32448">
        <ele>783.8</ele>
        <time>2014-05-04T09:41:59Z</time>
      </trkpt>
      <trkpt lat="44.30882" lon="5.32452">
        <ele>782.2</ele>
        <time>2014-05-04T09:42:00Z</time>
      </trkpt>
      <trkpt lat="44.30879" lon="5.32456">
        <ele>780.9</ele>
        <time>2014-05-04T09:42:01Z</time>
      </trkpt>
      <trkpt lat="44.30875" lon="5.3246">
        <ele>779.2</ele>
        <time>2014-05-04T09:42:02Z</time>
      </trkpt>
      <trkpt lat="44.30872" lon="5.32465">
        <ele>778.1</ele>
        <time>2014-05-04T09:42:03Z</time>
      </trkpt>
      <trkpt lat="44.30865" lon="5.32473">
        <ele>775.5</ele>
        <time>2014-05-04T09:42:05Z</time>
      </trkpt>
      <trkpt lat="44.30862" lon="5.32478">
        <ele>774.1</ele>
        <time>2014-05-04T09:42:06Z</time>
      </trkpt>
      <trkpt lat="44.30859" lon="5.32483">
        <ele>772.6</ele>
        <time>2014-05-04T09:42:07Z</time>
      </trkpt>
      <trkpt lat="44.30855" lon="5.32487">
        <ele>771.2</ele>
        <time>2014-05-04T09:42:08Z</time>
      </trkpt>
      <trkpt lat="44.30851" lon="5.32492">
        <ele>769.8</ele>
        <time>2014-05-04T09:42:09Z</time>
      </trkpt>
      <trkpt lat="44.30848" lon="5.32497">
        <ele>767.9</ele>
        <time>2014-05-04T09:42:10Z</time>
      </trkpt>
      <trkpt lat="44.30843" lon="5.32502">
        <ele>765.8</ele>
        <time>2014-05-04T09:42:11Z</time>
      </trkpt>
      <trkpt lat="44.30839" lon="5.32508">
        <ele>764.1</ele>
        <time>2014-05-04T09:42:12Z</time>
      </trkpt>
      <trkpt lat="44.30835" lon="5.32514">
        <ele>762</ele>
        <time>2014-05-04T09:42:13Z</time>
      </trkpt>
      <trkpt lat="44.3083" lon="5.32521">
        <ele>760.1</ele>
        <time>2014-05-04T09:42:14Z</time>
      </trkpt>
      <trkpt lat="44.30826" lon="5.32528">
        <ele>758.3</ele>
        <time>2014-05-04T09:42:15Z</time>
      </trkpt>
      <trkpt lat="44.30821" lon="5.32537">
        <ele>756.9</ele>
        <time>2014-05-04T09:42:16Z</time>
      </trkpt>
      <trkpt lat="44.30817" lon="5.32546">
        <ele>755.9</ele>
        <time>2014-05-04T09:42:17Z</time>
      </trkpt>
      <trkpt lat="44.30814" lon="5.32555">
        <ele>755.3</ele>
        <time>2014-05-04T09:42:18Z</time>
      </trkpt>
      <trkpt lat="44.30812" lon="5.32564">
        <ele>755.3</ele>
        <time>2014-05-04T09:42:19Z</time>
      </trkpt>
      <trkpt lat="44.3081" lon="5.32571">
        <ele>755.3</ele>
        <time>2014-05-04T09:42:20Z</time>
      </trkpt>
      <trkpt lat="44.30809" lon="5.32577">
        <ele>755.7</ele>
        <time>2014-05-04T09:42:21Z</time>
      </trkpt>
      <trkpt lat="44.30807" lon="5.32587">
        <ele>755.8</ele>
        <time>2014-05-04T09:42:23Z</time>
      </trkpt>
      <trkpt lat="44.30804" lon="5.32601">
        <ele>756.9</ele>
        <time>2014-05-04T09:42:27Z</time>
      </trkpt>
      <trkpt lat="44.30802" lon="5.32607">
        <ele>757</ele>
        <time>2014-05-04T09:42:29Z</time>
      </trkpt>
      <trkpt lat="44.308" lon="5.32614">
        <ele>757.1</ele>
        <time>2014-05-04T09:42:31Z</time>
      </trkpt>
      <trkpt lat="44.30798" lon="5.32621">
        <ele>757.2</ele>
        <time>2014-05-04T09:42:33Z</time>
      </trkpt>
      <trkpt lat="44.30796" lon="5.32628">
        <ele>757.5</ele>
        <time>2014-05-04T09:42:35Z</time>
      </trkpt>
      <trkpt lat="44.30794" lon="5.32635">
        <ele>757.4</ele>
        <time>2014-05-04T09:42:37Z</time>
      </trkpt>
      <trkpt lat="44.30791" lon="5.32642">
        <ele>757.4</ele>
        <time>2014-05-04T09:42:39Z</time>
      </trkpt>
      <trkpt lat="44.30788" lon="5.3265">
        <ele>757.3</ele>
        <time>2014-05-04T09:42:41Z</time>
      </trkpt>
      <trkpt lat="44.30786" lon="5.32657">
        <ele>756.9</ele>
        <time>2014-05-04T09:42:43Z</time>
      </trkpt>
      <trkpt lat="44.30783" lon="5.32664">
        <ele>756.8</ele>
        <time>2014-05-04T09:42:45Z</time>
      </trkpt>
      <trkpt lat="44.30779" lon="5.32672">
        <ele>755.5</ele>
        <time>2014-05-04T09:42:47Z</time>
      </trkpt>
      <trkpt lat="44.30776" lon="5.32678">
        <ele>754.5</ele>
        <time>2014-05-04T09:42:48Z</time>
      </trkpt>
      <trkpt lat="44.30773" lon="5.32684">
        <ele>753.7</ele>
        <time>2014-05-04T09:42:49Z</time>
      </trkpt>
      <trkpt lat="44.3077" lon="5.3269">
        <ele>752.7</ele>
        <time>2014-05-04T09:42:50Z</time>
      </trkpt>
      <trkpt lat="44.30767" lon="5.32696">
        <ele>751.8</ele>
        <time>2014-05-04T09:42:51Z</time>
      </trkpt>
      <trkpt lat="44.30764" lon="5.32704">
        <ele>751</ele>
        <time>2014-05-04T09:42:52Z</time>
      </trkpt>
      <trkpt lat="44.30761" lon="5.32711">
        <ele>750.1</ele>
        <time>2014-05-04T09:42:53Z</time>
      </trkpt>
      <trkpt lat="44.30758" lon="5.32719">
        <ele>749.8</ele>
        <time>2014-05-04T09:42:54Z</time>
      </trkpt>
      <trkpt lat="44.30757" lon="5.32726">
        <ele>749.7</ele>
        <time>2014-05-04T09:42:55Z</time>
      </trkpt>
      <trkpt lat="44.30756" lon="5.32734">
        <ele>750.5</ele>
        <time>2014-05-04T09:42:56Z</time>
      </trkpt>
      <trkpt lat="44.30756" lon="5.32743">
        <ele>751.8</ele>
        <time>2014-05-04T09:42:57Z</time>
      </trkpt>
      <trkpt lat="44.30756" lon="5.32753">
        <ele>753.4</ele>
        <time>2014-05-04T09:42:58Z</time>
      </trkpt>
      <trkpt lat="44.30757" lon="5.32762">
        <ele>754.3</ele>
        <time>2014-05-04T09:42:59Z</time>
      </trkpt>
      <trkpt lat="44.30757" lon="5.32769">
        <ele>755.1</ele>
        <time>2014-05-04T09:43:00Z</time>
      </trkpt>
      <trkpt lat="44.30757" lon="5.32776">
        <ele>755.6</ele>
        <time>2014-05-04T09:43:01Z</time>
      </trkpt>
      <trkpt lat="44.30756" lon="5.32785">
        <ele>755.9</ele>
        <time>2014-05-04T09:43:03Z</time>
      </trkpt>
      <trkpt lat="44.30755" lon="5.32794">
        <ele>755.9</ele>
        <time>2014-05-04T09:43:05Z</time>
      </trkpt>
      <trkpt lat="44.30754" lon="5.32804">
        <ele>755.9</ele>
        <time>2014-05-04T09:43:07Z</time>
      </trkpt>
      <trkpt lat="44.30753" lon="5.3281">
        <ele>756.3</ele>
        <time>2014-05-04T09:43:08Z</time>
      </trkpt>
      <trkpt lat="44.30753" lon="5.32817">
        <ele>756.2</ele>
        <time>2014-05-04T09:43:09Z</time>
      </trkpt>
      <trkpt lat="44.30751" lon="5.32823">
        <ele>755.9</ele>
        <time>2014-05-04T09:43:10Z</time>
      </trkpt>
      <trkpt lat="44.3075" lon="5.32829">
        <ele>755.6</ele>
        <time>2014-05-04T09:43:11Z</time>
      </trkpt>
      <trkpt lat="44.30748" lon="5.32835">
        <ele>755.1</ele>
        <time>2014-05-04T09:43:12Z</time>
      </trkpt>
      <trkpt lat="44.30746" lon="5.32841">
        <ele>754</ele>
        <time>2014-05-04T09:43:13Z</time>
      </trkpt>
      <trkpt lat="44.30743" lon="5.32848">
        <ele>752.8</ele>
        <time>2014-05-04T09:43:14Z</time>
      </trkpt>
      <trkpt lat="44.30741" lon="5.32854">
        <ele>751.8</ele>
        <time>2014-05-04T09:43:15Z</time>
      </trkpt>
      <trkpt lat="44.30738" lon="5.3286">
        <ele>750.6</ele>
        <time>2014-05-04T09:43:16Z</time>
      </trkpt>
      <trkpt lat="44.30736" lon="5.32866">
        <ele>749.4</ele>
        <time>2014-05-04T09:43:17Z</time>
      </trkpt>
      <trkpt lat="44.30733" lon="5.32872">
        <ele>748.4</ele>
        <time>2014-05-04T09:43:18Z</time>
      </trkpt>
      <trkpt lat="44.30731" lon="5.32878">
        <ele>747.2</ele>
        <time>2014-05-04T09:43:19Z</time>
      </trkpt>
      <trkpt lat="44.30728" lon="5.32884">
        <ele>746.2</ele>
        <time>2014-05-04T09:43:20Z</time>
      </trkpt>
      <trkpt lat="44.30726" lon="5.32891">
        <ele>745.2</ele>
        <time>2014-05-04T09:43:21Z</time>
      </trkpt>
      <trkpt lat="44.30724" lon="5.32898">
        <ele>744.3</ele>
        <time>2014-05-04T09:43:22Z</time>
      </trkpt>
      <trkpt lat="44.30723" lon="5.32905">
        <ele>743.8</ele>
        <time>2014-05-04T09:43:23Z</time>
      </trkpt>
      <trkpt lat="44.30722" lon="5.32912">
        <ele>743.3</ele>
        <time>2014-05-04T09:43:24Z</time>
      </trkpt>
      <trkpt lat="44.30723" lon="5.32925">
        <ele>743.8</ele>
        <time>2014-05-04T09:43:26Z</time>
      </trkpt>
      <trkpt lat="44.30724" lon="5.32932">
        <ele>743.9</ele>
        <time>2014-05-04T09:43:27Z</time>
      </trkpt>
      <trkpt lat="44.30723" lon="5.32939">
        <ele>743.6</ele>
        <time>2014-05-04T09:43:28Z</time>
      </trkpt>
      <trkpt lat="44.30722" lon="5.32945">
        <ele>742.9</ele>
        <time>2014-05-04T09:43:29Z</time>
      </trkpt>
      <trkpt lat="44.30721" lon="5.32958">
        <ele>741.8</ele>
        <time>2014-05-04T09:43:31Z</time>
      </trkpt>
      <trkpt lat="44.3072" lon="5.32964">
        <ele>741.3</ele>
        <time>2014-05-04T09:43:32Z</time>
      </trkpt>
      <trkpt lat="44.30719" lon="5.32976">
        <ele>740.3</ele>
        <time>2014-05-04T09:43:34Z</time>
      </trkpt>
      <trkpt lat="44.30718" lon="5.32983">
        <ele>739.7</ele>
        <time>2014-05-04T09:43:35Z</time>
      </trkpt>
      <trkpt lat="44.30717" lon="5.32989">
        <ele>739</ele>
        <time>2014-05-04T09:43:36Z</time>
      </trkpt>
      <trkpt lat="44.30716" lon="5.33">
        <ele>738.3</ele>
        <time>2014-05-04T09:43:38Z</time>
      </trkpt>
      <trkpt lat="44.30717" lon="5.33009">
        <ele>739</ele>
        <time>2014-05-04T09:43:40Z</time>
      </trkpt>
      <trkpt lat="44.30717" lon="5.33016">
        <ele>739.8</ele>
        <time>2014-05-04T09:43:42Z</time>
      </trkpt>
      <trkpt lat="44.30717" lon="5.33025">
        <ele>740.4</ele>
        <time>2014-05-04T09:43:45Z</time>
      </trkpt>
      <trkpt lat="44.30716" lon="5.33032">
        <ele>740.5</ele>
        <time>2014-05-04T09:43:48Z</time>
      </trkpt>
      <trkpt lat="44.30713" lon="5.3304">
        <ele>739.3</ele>
        <time>2014-05-04T09:46:08Z</time>
      </trkpt>
      <trkpt lat="44.30705" lon="5.33057">
        <ele>736.3</ele>
        <time>2014-05-04T09:46:12Z</time>
      </trkpt>
      <trkpt lat="44.30701" lon="5.33061">
        <ele>734.6</ele>
        <time>2014-05-04T09:46:13Z</time>
      </trkpt>
      <trkpt lat="44.30697" lon="5.33063">
        <ele>732.4</ele>
        <time>2014-05-04T09:46:14Z</time>
      </trkpt>
      <trkpt lat="44.30692" lon="5.33063">
        <ele>729.9</ele>
        <time>2014-05-04T09:46:15Z</time>
      </trkpt>
      <trkpt lat="44.30686" lon="5.33063">
        <ele>727</ele>
        <time>2014-05-04T09:46:16Z</time>
      </trkpt>
      <trkpt lat="44.30681" lon="5.33061">
        <ele>724.1</ele>
        <time>2014-05-04T09:46:17Z</time>
      </trkpt>
      <trkpt lat="44.30675" lon="5.33059">
        <ele>721.1</ele>
        <time>2014-05-04T09:46:18Z</time>
      </trkpt>
      <trkpt lat="44.30669" lon="5.33057">
        <ele>718</ele>
        <time>2014-05-04T09:46:19Z</time>
      </trkpt>
      <trkpt lat="44.30663" lon="5.33055">
        <ele>715.6</ele>
        <time>2014-05-04T09:46:20Z</time>
      </trkpt>
      <trkpt lat="44.30657" lon="5.33053">
        <ele>713.7</ele>
        <time>2014-05-04T09:46:21Z</time>
      </trkpt>
      <trkpt lat="44.30651" lon="5.33051">
        <ele>712</ele>
        <time>2014-05-04T09:46:22Z</time>
      </trkpt>
      <trkpt lat="44.30646" lon="5.33051">
        <ele>710.5</ele>
        <time>2014-05-04T09:46:23Z</time>
      </trkpt>
      <trkpt lat="44.3064" lon="5.33045">
        <ele>708.6</ele>
        <time>2014-05-04T09:46:25Z</time>
      </trkpt>
      <trkpt lat="44.30639" lon="5.33035">
        <ele>708.1</ele>
        <time>2014-05-04T09:46:27Z</time>
      </trkpt>
      <trkpt lat="44.30639" lon="5.33028">
        <ele>707.9</ele>
        <time>2014-05-04T09:46:28Z</time>
      </trkpt>
      <trkpt lat="44.3064" lon="5.3302">
        <ele>707.7</ele>
        <time>2014-05-04T09:46:29Z</time>
      </trkpt>
      <trkpt lat="44.3064" lon="5.33013">
        <ele>707.6</ele>
        <time>2014-05-04T09:46:30Z</time>
      </trkpt>
      <trkpt lat="44.30638" lon="5.33003">
        <ele>706.9</ele>
        <time>2014-05-04T09:46:32Z</time>
      </trkpt>
      <trkpt lat="44.30636" lon="5.33011">
        <ele>706.6</ele>
        <time>2014-05-04T09:46:36Z</time>
      </trkpt>
      <trkpt lat="44.30636" lon="5.33018">
        <ele>706.6</ele>
        <time>2014-05-04T09:46:38Z</time>
      </trkpt>
      <trkpt lat="44.30634" lon="5.33025">
        <ele>706.4</ele>
        <time>2014-05-04T09:46:40Z</time>
      </trkpt>
      <trkpt lat="44.30632" lon="5.33034">
        <ele>706.1</ele>
        <time>2014-05-04T09:46:43Z</time>
      </trkpt>
      <trkpt lat="44.30631" lon="5.33042">
        <ele>706</ele>
        <time>2014-05-04T09:46:46Z</time>
      </trkpt>
      <trkpt lat="44.30631" lon="5.3305">
        <ele>706</ele>
        <time>2014-05-04T09:46:48Z</time>
      </trkpt>
      <trkpt lat="44.30631" lon="5.33061">
        <ele>706.3</ele>
        <time>2014-05-04T09:46:50Z</time>
      </trkpt>
      <trkpt lat="44.30631" lon="5.33067">
        <ele>706.6</ele>
        <time>2014-05-04T09:46:51Z</time>
      </trkpt>
      <trkpt lat="44.30632" lon="5.33074">
        <ele>707</ele>
        <time>2014-05-04T09:46:52Z</time>
      </trkpt>
      <trkpt lat="44.30633" lon="5.33081">
        <ele>707.5</ele>
        <time>2014-05-04T09:46:53Z</time>
      </trkpt>
      <trkpt lat="44.30635" lon="5.33088">
        <ele>708.3</ele>
        <time>2014-05-04T09:46:54Z</time>
      </trkpt>
      <trkpt lat="44.30636" lon="5.33095">
        <ele>709.2</ele>
        <time>2014-05-04T09:46:55Z</time>
      </trkpt>
      <trkpt lat="44.30636" lon="5.33102">
        <ele>709.6</ele>
        <time>2014-05-04T09:46:56Z</time>
      </trkpt>
      <trkpt lat="44.30635" lon="5.3311">
        <ele>709.9</ele>
        <time>2014-05-04T09:46:57Z</time>
      </trkpt>
      <trkpt lat="44.30634" lon="5.33118">
        <ele>709.9</ele>
        <time>2014-05-04T09:46:58Z</time>
      </trkpt>
      <trkpt lat="44.30632" lon="5.33125">
        <ele>709.6</ele>
        <time>2014-05-04T09:46:59Z</time>
      </trkpt>
      <trkpt lat="44.30629" lon="5.33132">
        <ele>709.1</ele>
        <time>2014-05-04T09:47:00Z</time>
      </trkpt>
      <trkpt lat="44.30626" lon="5.33139">
        <ele>708.3</ele>
        <time>2014-05-04T09:47:01Z</time>
      </trkpt>
      <trkpt lat="44.30623" lon="5.33146">
        <ele>707.8</ele>
        <time>2014-05-04T09:47:02Z</time>
      </trkpt>
      <trkpt lat="44.30621" lon="5.33153">
        <ele>707.2</ele>
        <time>2014-05-04T09:47:03Z</time>
      </trkpt>
      <trkpt lat="44.30619" lon="5.3316">
        <ele>706.8</ele>
        <time>2014-05-04T09:47:04Z</time>
      </trkpt>
      <trkpt lat="44.30618" lon="5.33167">
        <ele>706.7</ele>
        <time>2014-05-04T09:47:05Z</time>
      </trkpt>
      <trkpt lat="44.30617" lon="5.33175">
        <ele>706.5</ele>
        <time>2014-05-04T09:47:06Z</time>
      </trkpt>
      <trkpt lat="44.30619" lon="5.33182">
        <ele>706.7</ele>
        <time>2014-05-04T09:47:07Z</time>
      </trkpt>
      <trkpt lat="44.3062" lon="5.33189">
        <ele>707.1</ele>
        <time>2014-05-04T09:47:08Z</time>
      </trkpt>
      <trkpt lat="44.30622" lon="5.33196">
        <ele>707.7</ele>
        <time>2014-05-04T09:47:09Z</time>
      </trkpt>
      <trkpt lat="44.30627" lon="5.3321">
        <ele>709.2</ele>
        <time>2014-05-04T09:47:11Z</time>
      </trkpt>
      <trkpt lat="44.3063" lon="5.33216">
        <ele>710.3</ele>
        <time>2014-05-04T09:47:12Z</time>
      </trkpt>
      <trkpt lat="44.30632" lon="5.33222">
        <ele>710.8</ele>
        <time>2014-05-04T09:47:13Z</time>
      </trkpt>
      <trkpt lat="44.30633" lon="5.33229">
        <ele>711.2</ele>
        <time>2014-05-04T09:47:14Z</time>
      </trkpt>
      <trkpt lat="44.30634" lon="5.33235">
        <ele>711.4</ele>
        <time>2014-05-04T09:47:15Z</time>
      </trkpt>
      <trkpt lat="44.30638" lon="5.33246">
        <ele>712.9</ele>
        <time>2014-05-04T09:47:17Z</time>
      </trkpt>
      <trkpt lat="44.30643" lon="5.33253">
        <ele>715</ele>
        <time>2014-05-04T09:47:19Z</time>
      </trkpt>
      <trkpt lat="44.30648" lon="5.33261">
        <ele>717</ele>
        <time>2014-05-04T09:47:21Z</time>
      </trkpt>
      <trkpt lat="44.30652" lon="5.33269">
        <ele>718.3</ele>
        <time>2014-05-04T09:47:23Z</time>
      </trkpt>
      <trkpt lat="44.30652" lon="5.33277">
        <ele>718.2</ele>
        <time>2014-05-04T09:47:25Z</time>
      </trkpt>
      <trkpt lat="44.3065" lon="5.33284">
        <ele>717.4</ele>
        <time>2014-05-04T09:47:27Z</time>
      </trkpt>
      <trkpt lat="44.30648" lon="5.3329">
        <ele>716.2</ele>
        <time>2014-05-04T09:47:29Z</time>
      </trkpt>
      <trkpt lat="44.30644" lon="5.33297">
        <ele>714.5</ele>
        <time>2014-05-04T09:47:32Z</time>
      </trkpt>
      <trkpt lat="44.30641" lon="5.33304">
        <ele>713.2</ele>
        <time>2014-05-04T09:47:34Z</time>
      </trkpt>
      <trkpt lat="44.3064" lon="5.33312">
        <ele>712.4</ele>
        <time>2014-05-04T09:47:36Z</time>
      </trkpt>
      <trkpt lat="44.3064" lon="5.33322">
        <ele>712.3</ele>
        <time>2014-05-04T09:47:38Z</time>
      </trkpt>
      <trkpt lat="44.30643" lon="5.33333">
        <ele>713.3</ele>
        <time>2014-05-04T09:47:40Z</time>
      </trkpt>
      <trkpt lat="44.30644" lon="5.33339">
        <ele>714</ele>
        <time>2014-05-04T09:47:41Z</time>
      </trkpt>
      <trkpt lat="44.30647" lon="5.3335">
        <ele>715.1</ele>
        <time>2014-05-04T09:47:43Z</time>
      </trkpt>
      <trkpt lat="44.30649" lon="5.33361">
        <ele>716.4</ele>
        <time>2014-05-04T09:47:45Z</time>
      </trkpt>
      <trkpt lat="44.3065" lon="5.33373">
        <ele>716.7</ele>
        <time>2014-05-04T09:47:47Z</time>
      </trkpt>
      <trkpt lat="44.30646" lon="5.33382">
        <ele>715.2</ele>
        <time>2014-05-04T09:47:49Z</time>
      </trkpt>
      <trkpt lat="44.30638" lon="5.33387">
        <ele>712.1</ele>
        <time>2014-05-04T09:47:51Z</time>
      </trkpt>
      <trkpt lat="44.30632" lon="5.33396">
        <ele>709.5</ele>
        <time>2014-05-04T09:47:53Z</time>
      </trkpt>
      <trkpt lat="44.30629" lon="5.33401">
        <ele>708.1</ele>
        <time>2014-05-04T09:47:54Z</time>
      </trkpt>
      <trkpt lat="44.30625" lon="5.33406">
        <ele>706.4</ele>
        <time>2014-05-04T09:47:55Z</time>
      </trkpt>
      <trkpt lat="44.3062" lon="5.33405">
        <ele>704.4</ele>
        <time>2014-05-04T09:47:56Z</time>
      </trkpt>
      <trkpt lat="44.30615" lon="5.33404">
        <ele>702.1</ele>
        <time>2014-05-04T09:47:57Z</time>
      </trkpt>
      <trkpt lat="44.3061" lon="5.33403">
        <ele>699.7</ele>
        <time>2014-05-04T09:47:58Z</time>
      </trkpt>
      <trkpt lat="44.30604" lon="5.33402">
        <ele>697.3</ele>
        <time>2014-05-04T09:47:59Z</time>
      </trkpt>
      <trkpt lat="44.30599" lon="5.33401">
        <ele>695.2</ele>
        <time>2014-05-04T09:48:00Z</time>
      </trkpt>
      <trkpt lat="44.30594" lon="5.33399">
        <ele>692.9</ele>
        <time>2014-05-04T09:48:01Z</time>
      </trkpt>
      <trkpt lat="44.30589" lon="5.33397">
        <ele>690.8</ele>
        <time>2014-05-04T09:48:02Z</time>
      </trkpt>
      <trkpt lat="44.30584" lon="5.33395">
        <ele>688.5</ele>
        <time>2014-05-04T09:48:03Z</time>
      </trkpt>
      <trkpt lat="44.30579" lon="5.33393">
        <ele>687</ele>
        <time>2014-05-04T09:48:04Z</time>
      </trkpt>
      <trkpt lat="44.30574" lon="5.33391">
        <ele>685.5</ele>
        <time>2014-05-04T09:48:05Z</time>
      </trkpt>
      <trkpt lat="44.30568" lon="5.33389">
        <ele>683.8</ele>
        <time>2014-05-04T09:48:06Z</time>
      </trkpt>
      <trkpt lat="44.30563" lon="5.33388">
        <ele>682.1</ele>
        <time>2014-05-04T09:48:07Z</time>
      </trkpt>
      <trkpt lat="44.30558" lon="5.33388">
        <ele>680.6</ele>
        <time>2014-05-04T09:48:08Z</time>
      </trkpt>
      <trkpt lat="44.30553" lon="5.33391">
        <ele>679.2</ele>
        <time>2014-05-04T09:48:09Z</time>
      </trkpt>
      <trkpt lat="44.30548" lon="5.33395">
        <ele>678.1</ele>
        <time>2014-05-04T09:48:10Z</time>
      </trkpt>
      <trkpt lat="44.30542" lon="5.3341">
        <ele>677.5</ele>
        <time>2014-05-04T09:48:12Z</time>
      </trkpt>
      <trkpt lat="44.3054" lon="5.33418">
        <ele>677.8</ele>
        <time>2014-05-04T09:48:13Z</time>
      </trkpt>
      <trkpt lat="44.30536" lon="5.33425">
        <ele>678.3</ele>
        <time>2014-05-04T09:48:14Z</time>
      </trkpt>
      <trkpt lat="44.30532" lon="5.33432">
        <ele>678.9</ele>
        <time>2014-05-04T09:48:15Z</time>
      </trkpt>
      <trkpt lat="44.30526" lon="5.33439">
        <ele>679</ele>
        <time>2014-05-04T09:48:16Z</time>
      </trkpt>
      <trkpt lat="44.30521" lon="5.33446">
        <ele>679.1</ele>
        <time>2014-05-04T09:48:17Z</time>
      </trkpt>
      <trkpt lat="44.30515" lon="5.33453">
        <ele>679.5</ele>
        <time>2014-05-04T09:48:18Z</time>
      </trkpt>
      <trkpt lat="44.30509" lon="5.3346">
        <ele>679.3</ele>
        <time>2014-05-04T09:48:19Z</time>
      </trkpt>
      <trkpt lat="44.30502" lon="5.33465">
        <ele>678.9</ele>
        <time>2014-05-04T09:48:20Z</time>
      </trkpt>
      <trkpt lat="44.30496" lon="5.3347">
        <ele>677.9</ele>
        <time>2014-05-04T09:48:21Z</time>
      </trkpt>
      <trkpt lat="44.30491" lon="5.33474">
        <ele>677.2</ele>
        <time>2014-05-04T09:48:22Z</time>
      </trkpt>
      <trkpt lat="44.30487" lon="5.33479">
        <ele>676.7</ele>
        <time>2014-05-04T09:48:23Z</time>
      </trkpt>
      <trkpt lat="44.30483" lon="5.33485">
        <ele>676.5</ele>
        <time>2014-05-04T09:48:24Z</time>
      </trkpt>
      <trkpt lat="44.3048" lon="5.33492">
        <ele>676.9</ele>
        <time>2014-05-04T09:48:25Z</time>
      </trkpt>
      <trkpt lat="44.30479" lon="5.335">
        <ele>677.6</ele>
        <time>2014-05-04T09:48:26Z</time>
      </trkpt>
      <trkpt lat="44.30478" lon="5.33507">
        <ele>679</ele>
        <time>2014-05-04T09:48:27Z</time>
      </trkpt>
      <trkpt lat="44.30478" lon="5.33515">
        <ele>680.6</ele>
        <time>2014-05-04T09:48:28Z</time>
      </trkpt>
      <trkpt lat="44.30478" lon="5.33523">
        <ele>682.5</ele>
        <time>2014-05-04T09:48:29Z</time>
      </trkpt>
      <trkpt lat="44.30477" lon="5.33531">
        <ele>683.7</ele>
        <time>2014-05-04T09:48:30Z</time>
      </trkpt>
      <trkpt lat="44.30476" lon="5.33538">
        <ele>685.2</ele>
        <time>2014-05-04T09:48:31Z</time>
      </trkpt>
      <trkpt lat="44.30477" lon="5.33545">
        <ele>686.6</ele>
        <time>2014-05-04T09:48:32Z</time>
      </trkpt>
      <trkpt lat="44.30477" lon="5.33551">
        <ele>688.1</ele>
        <time>2014-05-04T09:48:33Z</time>
      </trkpt>
      <trkpt lat="44.30476" lon="5.33558">
        <ele>689.3</ele>
        <time>2014-05-04T09:48:34Z</time>
      </trkpt>
      <trkpt lat="44.3047" lon="5.33568">
        <ele>688.9</ele>
        <time>2014-05-04T09:48:36Z</time>
      </trkpt>
      <trkpt lat="44.30467" lon="5.33572">
        <ele>688</ele>
        <time>2014-05-04T09:48:37Z</time>
      </trkpt>
      <trkpt lat="44.30464" lon="5.33578">
        <ele>687.9</ele>
        <time>2014-05-04T09:48:38Z</time>
      </trkpt>
      <trkpt lat="44.30463" lon="5.33584">
        <ele>688.5</ele>
        <time>2014-05-04T09:48:39Z</time>
      </trkpt>
      <trkpt lat="44.30462" lon="5.33591">
        <ele>688.8</ele>
        <time>2014-05-04T09:48:40Z</time>
      </trkpt>
      <trkpt lat="44.30461" lon="5.33598">
        <ele>689.3</ele>
        <time>2014-05-04T09:48:41Z</time>
      </trkpt>
      <trkpt lat="44.3046" lon="5.33605">
        <ele>689.4</ele>
        <time>2014-05-04T09:48:42Z</time>
      </trkpt>
      <trkpt lat="44.3046" lon="5.33612">
        <ele>689.9</ele>
        <time>2014-05-04T09:48:43Z</time>
      </trkpt>
      <trkpt lat="44.3046" lon="5.33619">
        <ele>690.5</ele>
        <time>2014-05-04T09:48:44Z</time>
      </trkpt>
      <trkpt lat="44.3046" lon="5.33625">
        <ele>691.1</ele>
        <time>2014-05-04T09:48:45Z</time>
      </trkpt>
      <trkpt lat="44.3046" lon="5.33636">
        <ele>692.1</ele>
        <time>2014-05-04T09:48:47Z</time>
      </trkpt>
      <trkpt lat="44.30458" lon="5.33646">
        <ele>692.3</ele>
        <time>2014-05-04T09:48:49Z</time>
      </trkpt>
      <trkpt lat="44.30456" lon="5.33658">
        <ele>692.7</ele>
        <time>2014-05-04T09:48:51Z</time>
      </trkpt>
      <trkpt lat="44.30456" lon="5.33665">
        <ele>693.1</ele>
        <time>2014-05-04T09:48:52Z</time>
      </trkpt>
      <trkpt lat="44.30456" lon="5.33671">
        <ele>693.3</ele>
        <time>2014-05-04T09:48:53Z</time>
      </trkpt>
      <trkpt lat="44.30456" lon="5.33678">
        <ele>693.4</ele>
        <time>2014-05-04T09:48:54Z</time>
      </trkpt>
      <trkpt lat="44.30455" lon="5.33685">
        <ele>693.3</ele>
        <time>2014-05-04T09:48:55Z</time>
      </trkpt>
      <trkpt lat="44.30455" lon="5.33691">
        <ele>693.1</ele>
        <time>2014-05-04T09:48:56Z</time>
      </trkpt>
      <trkpt lat="44.30454" lon="5.33698">
        <ele>693</ele>
        <time>2014-05-04T09:48:57Z</time>
      </trkpt>
      <trkpt lat="44.30454" lon="5.33704">
        <ele>693.1</ele>
        <time>2014-05-04T09:48:58Z</time>
      </trkpt>
      <trkpt lat="44.30454" lon="5.33711">
        <ele>693</ele>
        <time>2014-05-04T09:48:59Z</time>
      </trkpt>
      <trkpt lat="44.30452" lon="5.33722">
        <ele>692.1</ele>
        <time>2014-05-04T09:49:01Z</time>
      </trkpt>
      <trkpt lat="44.30446" lon="5.33725">
        <ele>689.7</ele>
        <time>2014-05-04T09:49:03Z</time>
      </trkpt>
      <trkpt lat="44.30438" lon="5.33726">
        <ele>686.3</ele>
        <time>2014-05-04T09:49:05Z</time>
      </trkpt>
      <trkpt lat="44.30433" lon="5.33727">
        <ele>684.3</ele>
        <time>2014-05-04T09:49:06Z</time>
      </trkpt>
      <trkpt lat="44.30428" lon="5.33728">
        <ele>682.1</ele>
        <time>2014-05-04T09:49:07Z</time>
      </trkpt>
      <trkpt lat="44.30423" lon="5.3373">
        <ele>679.9</ele>
        <time>2014-05-04T09:49:08Z</time>
      </trkpt>
      <trkpt lat="44.30418" lon="5.33733">
        <ele>677.8</ele>
        <time>2014-05-04T09:49:09Z</time>
      </trkpt>
      <trkpt lat="44.30414" lon="5.33735">
        <ele>676.1</ele>
        <time>2014-05-04T09:49:10Z</time>
      </trkpt>
      <trkpt lat="44.3041" lon="5.33739">
        <ele>674.6</ele>
        <time>2014-05-04T09:49:11Z</time>
      </trkpt>
      <trkpt lat="44.30402" lon="5.33754">
        <ele>671.8</ele>
        <time>2014-05-04T09:49:15Z</time>
      </trkpt>
      <trkpt lat="44.304" lon="5.33761">
        <ele>670.8</ele>
        <time>2014-05-04T09:49:17Z</time>
      </trkpt>
      <trkpt lat="44.30398" lon="5.33768">
        <ele>669.9</ele>
        <time>2014-05-04T09:49:19Z</time>
      </trkpt>
      <trkpt lat="44.30397" lon="5.33776">
        <ele>669.3</ele>
        <time>2014-05-04T09:49:21Z</time>
      </trkpt>
      <trkpt lat="44.30395" lon="5.33783">
        <ele>668.6</ele>
        <time>2014-05-04T09:49:23Z</time>
      </trkpt>
      <trkpt lat="44.30394" lon="5.33791">
        <ele>667.9</ele>
        <time>2014-05-04T09:49:25Z</time>
      </trkpt>
      <trkpt lat="44.30393" lon="5.33799">
        <ele>667.3</ele>
        <time>2014-05-04T09:49:27Z</time>
      </trkpt>
      <trkpt lat="44.30392" lon="5.33808">
        <ele>667.1</ele>
        <time>2014-05-04T09:49:29Z</time>
      </trkpt>
      <trkpt lat="44.30394" lon="5.33816">
        <ele>667.6</ele>
        <time>2014-05-04T09:49:31Z</time>
      </trkpt>
      <trkpt lat="44.30395" lon="5.33824">
        <ele>667.8</ele>
        <time>2014-05-04T09:49:33Z</time>
      </trkpt>
      <trkpt lat="44.30396" lon="5.33832">
        <ele>668.1</ele>
        <time>2014-05-04T09:49:35Z</time>
      </trkpt>
      <trkpt lat="44.30397" lon="5.33841">
        <ele>667.6</ele>
        <time>2014-05-04T09:49:37Z</time>
      </trkpt>
      <trkpt lat="44.30398" lon="5.33851">
        <ele>667.1</ele>
        <time>2014-05-04T09:49:39Z</time>
      </trkpt>
      <trkpt lat="44.304" lon="5.3386">
        <ele>666.7</ele>
        <time>2014-05-04T09:49:41Z</time>
      </trkpt>
      <trkpt lat="44.30402" lon="5.33871">
        <ele>666</ele>
        <time>2014-05-04T09:49:43Z</time>
      </trkpt>
      <trkpt lat="44.30404" lon="5.33883">
        <ele>665.2</ele>
        <time>2014-05-04T09:49:45Z</time>
      </trkpt>
      <trkpt lat="44.30405" lon="5.33895">
        <ele>664.5</ele>
        <time>2014-05-04T09:49:47Z</time>
      </trkpt>
      <trkpt lat="44.30406" lon="5.33902">
        <ele>663.9</ele>
        <time>2014-05-04T09:49:48Z</time>
      </trkpt>
      <trkpt lat="44.30407" lon="5.33909">
        <ele>663.5</ele>
        <time>2014-05-04T09:49:49Z</time>
      </trkpt>
      <trkpt lat="44.30408" lon="5.33916">
        <ele>662.9</ele>
        <time>2014-05-04T09:49:50Z</time>
      </trkpt>
      <trkpt lat="44.30409" lon="5.33922">
        <ele>662.2</ele>
        <time>2014-05-04T09:49:51Z</time>
      </trkpt>
      <trkpt lat="44.30406" lon="5.33933">
        <ele>660.4</ele>
        <time>2014-05-04T09:49:53Z</time>
      </trkpt>
      <trkpt lat="44.304" lon="5.3394">
        <ele>658</ele>
        <time>2014-05-04T09:49:55Z</time>
      </trkpt>
      <trkpt lat="44.30393" lon="5.33945">
        <ele>655.5</ele>
        <time>2014-05-04T09:49:57Z</time>
      </trkpt>
      <trkpt lat="44.30388" lon="5.33948">
        <ele>654.1</ele>
        <time>2014-05-04T09:49:58Z</time>
      </trkpt>
      <trkpt lat="44.30383" lon="5.33949">
        <ele>652.6</ele>
        <time>2014-05-04T09:49:59Z</time>
      </trkpt>
      <trkpt lat="44.30378" lon="5.3395">
        <ele>651.2</ele>
        <time>2014-05-04T09:50:00Z</time>
      </trkpt>
      <trkpt lat="44.30373" lon="5.33951">
        <ele>649.8</ele>
        <time>2014-05-04T09:50:01Z</time>
      </trkpt>
      <trkpt lat="44.30367" lon="5.33953">
        <ele>648.2</ele>
        <time>2014-05-04T09:50:02Z</time>
      </trkpt>
      <trkpt lat="44.30362" lon="5.33957">
        <ele>646.6</ele>
        <time>2014-05-04T09:50:03Z</time>
      </trkpt>
      <trkpt lat="44.30357" lon="5.33961">
        <ele>644.9</ele>
        <time>2014-05-04T09:50:04Z</time>
      </trkpt>
      <trkpt lat="44.30351" lon="5.33965">
        <ele>643.2</ele>
        <time>2014-05-04T09:50:05Z</time>
      </trkpt>
      <trkpt lat="44.30345" lon="5.33969">
        <ele>641.4</ele>
        <time>2014-05-04T09:50:06Z</time>
      </trkpt>
      <trkpt lat="44.3034" lon="5.33973">
        <ele>639.7</ele>
        <time>2014-05-04T09:50:07Z</time>
      </trkpt>
      <trkpt lat="44.30334" lon="5.33977">
        <ele>638.1</ele>
        <time>2014-05-04T09:50:08Z</time>
      </trkpt>
      <trkpt lat="44.30328" lon="5.33981">
        <ele>636.8</ele>
        <time>2014-05-04T09:50:09Z</time>
      </trkpt>
      <trkpt lat="44.30323" lon="5.33986">
        <ele>635.5</ele>
        <time>2014-05-04T09:50:10Z</time>
      </trkpt>
      <trkpt lat="44.30317" lon="5.3399">
        <ele>634.3</ele>
        <time>2014-05-04T09:50:11Z</time>
      </trkpt>
      <trkpt lat="44.30311" lon="5.33995">
        <ele>633</ele>
        <time>2014-05-04T09:50:12Z</time>
      </trkpt>
      <trkpt lat="44.30301" lon="5.34004">
        <ele>630.6</ele>
        <time>2014-05-04T09:50:14Z</time>
      </trkpt>
      <trkpt lat="44.30296" lon="5.34008">
        <ele>629.5</ele>
        <time>2014-05-04T09:50:15Z</time>
      </trkpt>
      <trkpt lat="44.30291" lon="5.34011">
        <ele>628.3</ele>
        <time>2014-05-04T09:50:16Z</time>
      </trkpt>
      <trkpt lat="44.30286" lon="5.34013">
        <ele>627.3</ele>
        <time>2014-05-04T09:50:17Z</time>
      </trkpt>
      <trkpt lat="44.3028" lon="5.34016">
        <ele>626.3</ele>
        <time>2014-05-04T09:50:18Z</time>
      </trkpt>
      <trkpt lat="44.30275" lon="5.3402">
        <ele>625.2</ele>
        <time>2014-05-04T09:50:19Z</time>
      </trkpt>
      <trkpt lat="44.3027" lon="5.34024">
        <ele>624.1</ele>
        <time>2014-05-04T09:50:20Z</time>
      </trkpt>
      <trkpt lat="44.30265" lon="5.34029">
        <ele>622.9</ele>
        <time>2014-05-04T09:50:21Z</time>
      </trkpt>
      <trkpt lat="44.30259" lon="5.34035">
        <ele>621.8</ele>
        <time>2014-05-04T09:50:22Z</time>
      </trkpt>
      <trkpt lat="44.30254" lon="5.34039">
        <ele>620.7</ele>
        <time>2014-05-04T09:50:23Z</time>
      </trkpt>
      <trkpt lat="44.30249" lon="5.34044">
        <ele>619.7</ele>
        <time>2014-05-04T09:50:24Z</time>
      </trkpt>
      <trkpt lat="44.30244" lon="5.34049">
        <ele>619</ele>
        <time>2014-05-04T09:50:25Z</time>
      </trkpt>
      <trkpt lat="44.30239" lon="5.34054">
        <ele>618.2</ele>
        <time>2014-05-04T09:50:26Z</time>
      </trkpt>
      <trkpt lat="44.30234" lon="5.34059">
        <ele>617.5</ele>
        <time>2014-05-04T09:50:27Z</time>
      </trkpt>
      <trkpt lat="44.3023" lon="5.34064">
        <ele>616.8</ele>
        <time>2014-05-04T09:50:28Z</time>
      </trkpt>
      <trkpt lat="44.30226" lon="5.34069">
        <ele>616.3</ele>
        <time>2014-05-04T09:50:29Z</time>
      </trkpt>
      <trkpt lat="44.30222" lon="5.34073">
        <ele>615.7</ele>
        <time>2014-05-04T09:50:30Z</time>
      </trkpt>
      <trkpt lat="44.30215" lon="5.3408">
        <ele>614.7</ele>
        <time>2014-05-04T09:50:32Z</time>
      </trkpt>
      <trkpt lat="44.3021" lon="5.34087">
        <ele>614</ele>
        <time>2014-05-04T09:50:34Z</time>
      </trkpt>
      <trkpt lat="44.30207" lon="5.34093">
        <ele>613.4</ele>
        <time>2014-05-04T09:50:38Z</time>
      </trkpt>
      <trkpt lat="44.30203" lon="5.34097">
        <ele>613</ele>
        <time>2014-05-04T09:50:42Z</time>
      </trkpt>
      <trkpt lat="44.30202" lon="5.34104">
        <ele>612.6</ele>
        <time>2014-05-04T09:50:47Z</time>
      </trkpt>
      <trkpt lat="44.302" lon="5.34109">
        <ele>612.2</ele>
        <time>2014-05-04T09:50:50Z</time>
      </trkpt>
      <trkpt lat="44.30196" lon="5.34115">
        <ele>611.7</ele>
        <time>2014-05-04T09:50:53Z</time>
      </trkpt>
      <trkpt lat="44.30193" lon="5.3412">
        <ele>611.3</ele>
        <time>2014-05-04T09:50:55Z</time>
      </trkpt>
      <trkpt lat="44.30189" lon="5.34128">
        <ele>610.8</ele>
        <time>2014-05-04T09:50:58Z</time>
      </trkpt>
      <trkpt lat="44.30185" lon="5.34135">
        <ele>610.4</ele>
        <time>2014-05-04T09:51:00Z</time>
      </trkpt>
      <trkpt lat="44.30179" lon="5.34142">
        <ele>610</ele>
        <time>2014-05-04T09:51:02Z</time>
      </trkpt>
      <trkpt lat="44.30175" lon="5.3415">
        <ele>609.6</ele>
        <time>2014-05-04T09:51:04Z</time>
      </trkpt>
      <trkpt lat="44.30174" lon="5.3416">
        <ele>609.3</ele>
        <time>2014-05-04T09:51:06Z</time>
      </trkpt>
      <trkpt lat="44.30175" lon="5.34169">
        <ele>609.1</ele>
        <time>2014-05-04T09:51:08Z</time>
      </trkpt>
      <trkpt lat="44.30176" lon="5.34177">
        <ele>608.7</ele>
        <time>2014-05-04T09:51:10Z</time>
      </trkpt>
      <trkpt lat="44.30176" lon="5.34189">
        <ele>608.2</ele>
        <time>2014-05-04T09:51:12Z</time>
      </trkpt>
      <trkpt lat="44.30177" lon="5.34195">
        <ele>607.9</ele>
        <time>2014-05-04T09:51:13Z</time>
      </trkpt>
      <trkpt lat="44.30179" lon="5.34219">
        <ele>606.9</ele>
        <time>2014-05-04T09:51:17Z</time>
      </trkpt>
      <trkpt lat="44.30179" lon="5.34228">
        <ele>606.6</ele>
        <time>2014-05-04T09:51:18Z</time>
      </trkpt>
      <trkpt lat="44.3018" lon="5.34236">
        <ele>606.1</ele>
        <time>2014-05-04T09:51:19Z</time>
      </trkpt>
      <trkpt lat="44.30181" lon="5.34245">
        <ele>605.7</ele>
        <time>2014-05-04T09:51:20Z</time>
      </trkpt>
      <trkpt lat="44.30183" lon="5.34253">
        <ele>605.3</ele>
        <time>2014-05-04T09:51:21Z</time>
      </trkpt>
      <trkpt lat="44.30185" lon="5.34261">
        <ele>605</ele>
        <time>2014-05-04T09:51:22Z</time>
      </trkpt>
      <trkpt lat="44.30187" lon="5.34267">
        <ele>604.7</ele>
        <time>2014-05-04T09:51:23Z</time>
      </trkpt>
      <trkpt lat="44.30188" lon="5.34274">
        <ele>604.4</ele>
        <time>2014-05-04T09:51:24Z</time>
      </trkpt>
      <trkpt lat="44.30189" lon="5.34281">
        <ele>604.1</ele>
        <time>2014-05-04T09:51:25Z</time>
      </trkpt>
      <trkpt lat="44.30189" lon="5.34288">
        <ele>603.7</ele>
        <time>2014-05-04T09:51:26Z</time>
      </trkpt>
      <trkpt lat="44.3019" lon="5.34295">
        <ele>603.4</ele>
        <time>2014-05-04T09:51:27Z</time>
      </trkpt>
      <trkpt lat="44.30191" lon="5.34302">
        <ele>603.1</ele>
        <time>2014-05-04T09:51:28Z</time>
      </trkpt>
      <trkpt lat="44.30191" lon="5.34309">
        <ele>602.7</ele>
        <time>2014-05-04T09:51:29Z</time>
      </trkpt>
      <trkpt lat="44.30192" lon="5.34321">
        <ele>602.2</ele>
        <time>2014-05-04T09:51:31Z</time>
      </trkpt>
      <trkpt lat="44.30191" lon="5.34331">
        <ele>601.8</ele>
        <time>2014-05-04T09:51:33Z</time>
      </trkpt>
      <trkpt lat="44.30189" lon="5.34336">
        <ele>601.7</ele>
        <time>2014-05-04T09:51:38Z</time>
      </trkpt>
      <trkpt lat="44.30186" lon="5.34344">
        <ele>601.4</ele>
        <time>2014-05-04T09:51:42Z</time>
      </trkpt>
      <trkpt lat="44.30185" lon="5.34356">
        <ele>600.3</ele>
        <time>2014-05-04T09:51:44Z</time>
      </trkpt>
      <trkpt lat="44.30185" lon="5.34362">
        <ele>599.6</ele>
        <time>2014-05-04T09:51:45Z</time>
      </trkpt>
      <trkpt lat="44.30185" lon="5.34369">
        <ele>598.8</ele>
        <time>2014-05-04T09:51:46Z</time>
      </trkpt>
      <trkpt lat="44.30186" lon="5.34376">
        <ele>598</ele>
        <time>2014-05-04T09:51:47Z</time>
      </trkpt>
      <trkpt lat="44.30187" lon="5.34383">
        <ele>597.1</ele>
        <time>2014-05-04T09:51:48Z</time>
      </trkpt>
      <trkpt lat="44.30188" lon="5.3439">
        <ele>596.3</ele>
        <time>2014-05-04T09:51:49Z</time>
      </trkpt>
      <trkpt lat="44.30189" lon="5.34398">
        <ele>595.4</ele>
        <time>2014-05-04T09:51:50Z</time>
      </trkpt>
      <trkpt lat="44.30189" lon="5.34406">
        <ele>594.5</ele>
        <time>2014-05-04T09:51:51Z</time>
      </trkpt>
      <trkpt lat="44.30189" lon="5.34413">
        <ele>593.7</ele>
        <time>2014-05-04T09:51:52Z</time>
      </trkpt>
      <trkpt lat="44.3019" lon="5.3442">
        <ele>592.8</ele>
        <time>2014-05-04T09:51:53Z</time>
      </trkpt>
      <trkpt lat="44.3019" lon="5.34426">
        <ele>591.5</ele>
        <time>2014-05-04T09:51:54Z</time>
      </trkpt>
      <trkpt lat="44.3019" lon="5.34433">
        <ele>590.2</ele>
        <time>2014-05-04T09:51:55Z</time>
      </trkpt>
      <trkpt lat="44.30191" lon="5.34441">
        <ele>588.6</ele>
        <time>2014-05-04T09:51:56Z</time>
      </trkpt>
      <trkpt lat="44.30192" lon="5.34448">
        <ele>587.1</ele>
        <time>2014-05-04T09:51:57Z</time>
      </trkpt>
      <trkpt lat="44.30192" lon="5.34455">
        <ele>585.9</ele>
        <time>2014-05-04T09:51:58Z</time>
      </trkpt>
      <trkpt lat="44.30191" lon="5.34461">
        <ele>584.7</ele>
        <time>2014-05-04T09:51:59Z</time>
      </trkpt>
      <trkpt lat="44.3019" lon="5.34468">
        <ele>583.5</ele>
        <time>2014-05-04T09:52:00Z</time>
      </trkpt>
      <trkpt lat="44.30191" lon="5.34475">
        <ele>582.2</ele>
        <time>2014-05-04T09:52:01Z</time>
      </trkpt>
      <trkpt lat="44.30192" lon="5.34482">
        <ele>580.8</ele>
        <time>2014-05-04T09:52:02Z</time>
      </trkpt>
      <trkpt lat="44.30194" lon="5.3449">
        <ele>579.5</ele>
        <time>2014-05-04T09:52:03Z</time>
      </trkpt>
      <trkpt lat="44.30197" lon="5.34495">
        <ele>578.8</ele>
        <time>2014-05-04T09:52:04Z</time>
      </trkpt>
      <trkpt lat="44.30205" lon="5.34502">
        <ele>578.6</ele>
        <time>2014-05-04T09:52:06Z</time>
      </trkpt>
      <trkpt lat="44.30209" lon="5.34504">
        <ele>579</ele>
        <time>2014-05-04T09:52:07Z</time>
      </trkpt>
      <trkpt lat="44.30214" lon="5.34505">
        <ele>579.6</ele>
        <time>2014-05-04T09:52:08Z</time>
      </trkpt>
      <trkpt lat="44.3022" lon="5.34504">
        <ele>580.1</ele>
        <time>2014-05-04T09:52:09Z</time>
      </trkpt>
      <trkpt lat="44.30225" lon="5.34504">
        <ele>580.6</ele>
        <time>2014-05-04T09:52:10Z</time>
      </trkpt>
      <trkpt lat="44.3023" lon="5.34502">
        <ele>581.1</ele>
        <time>2014-05-04T09:52:11Z</time>
      </trkpt>
      <trkpt lat="44.30235" lon="5.34501">
        <ele>581.6</ele>
        <time>2014-05-04T09:52:12Z</time>
      </trkpt>
      <trkpt lat="44.30239" lon="5.34499">
        <ele>582.1</ele>
        <time>2014-05-04T09:52:13Z</time>
      </trkpt>
      <trkpt lat="44.30244" lon="5.34497">
        <ele>582.6</ele>
        <time>2014-05-04T09:52:14Z</time>
      </trkpt>
      <trkpt lat="44.30253" lon="5.34492">
        <ele>583.8</ele>
        <time>2014-05-04T09:52:16Z</time>
      </trkpt>
      <trkpt lat="44.30259" lon="5.34485">
        <ele>585</ele>
        <time>2014-05-04T09:52:18Z</time>
      </trkpt>
      <trkpt lat="44.3026" lon="5.34492">
        <ele>585</ele>
        <time>2014-05-04T09:52:21Z</time>
      </trkpt>
      <trkpt lat="44.30255" lon="5.34498">
        <ele>584</ele>
        <time>2014-05-04T09:52:23Z</time>
      </trkpt>
      <trkpt lat="44.30249" lon="5.34506">
        <ele>583.3</ele>
        <time>2014-05-04T09:52:25Z</time>
      </trkpt>
      <trkpt lat="44.30246" lon="5.34512">
        <ele>583.5</ele>
        <time>2014-05-04T09:52:27Z</time>
      </trkpt>
      <trkpt lat="44.30252" lon="5.34513">
        <ele>584.4</ele>
        <time>2014-05-04T09:52:29Z</time>
      </trkpt>
      <trkpt lat="44.30258" lon="5.34509">
        <ele>585.1</ele>
        <time>2014-05-04T09:52:31Z</time>
      </trkpt>
      <trkpt lat="44.30263" lon="5.34507">
        <ele>585.6</ele>
        <time>2014-05-04T09:52:32Z</time>
      </trkpt>
      <trkpt lat="44.30267" lon="5.34504">
        <ele>586.2</ele>
        <time>2014-05-04T09:52:33Z</time>
      </trkpt>
      <trkpt lat="44.30273" lon="5.34502">
        <ele>586.9</ele>
        <time>2014-05-04T09:52:34Z</time>
      </trkpt>
      <trkpt lat="44.30278" lon="5.34501">
        <ele>587.7</ele>
        <time>2014-05-04T09:52:35Z</time>
      </trkpt>
      <trkpt lat="44.30283" lon="5.34501">
        <ele>588.5</ele>
        <time>2014-05-04T09:52:36Z</time>
      </trkpt>
      <trkpt lat="44.30289" lon="5.34503">
        <ele>589.7</ele>
        <time>2014-05-04T09:52:38Z</time>
      </trkpt>
      <trkpt lat="44.30291" lon="5.34509">
        <ele>590.4</ele>
        <time>2014-05-04T09:52:40Z</time>
      </trkpt>
      <trkpt lat="44.30292" lon="5.34516">
        <ele>591</ele>
        <time>2014-05-04T09:52:42Z</time>
      </trkpt>
      <trkpt lat="44.30292" lon="5.34523">
        <ele>591.4</ele>
        <time>2014-05-04T09:52:44Z</time>
      </trkpt>
      <trkpt lat="44.3029" lon="5.34533">
        <ele>591.7</ele>
        <time>2014-05-04T09:52:46Z</time>
      </trkpt>
      <trkpt lat="44.30286" lon="5.34542">
        <ele>591.7</ele>
        <time>2014-05-04T09:52:48Z</time>
      </trkpt>
      <trkpt lat="44.30281" lon="5.3455">
        <ele>591.5</ele>
        <time>2014-05-04T09:52:50Z</time>
      </trkpt>
      <trkpt lat="44.30277" lon="5.34556">
        <ele>591.4</ele>
        <time>2014-05-04T09:52:52Z</time>
      </trkpt>
      <trkpt lat="44.30273" lon="5.34562">
        <ele>591.1</ele>
        <time>2014-05-04T09:52:54Z</time>
      </trkpt>
      <trkpt lat="44.30269" lon="5.34569">
        <ele>591.2</ele>
        <time>2014-05-04T09:52:56Z</time>
      </trkpt>
      <trkpt lat="44.30264" lon="5.34576">
        <ele>591</ele>
        <time>2014-05-04T09:52:58Z</time>
      </trkpt>
      <trkpt lat="44.30259" lon="5.34584">
        <ele>591.1</ele>
        <time>2014-05-04T09:53:00Z</time>
      </trkpt>
      <trkpt lat="44.30254" lon="5.34593">
        <ele>591.5</ele>
        <time>2014-05-04T09:53:02Z</time>
      </trkpt>
      <trkpt lat="44.3025" lon="5.346">
        <ele>591.7</ele>
        <time>2014-05-04T09:53:04Z</time>
      </trkpt>
      <trkpt lat="44.30246" lon="5.34607">
        <ele>591.4</ele>
        <time>2014-05-04T09:53:06Z</time>
      </trkpt>
      <trkpt lat="44.30245" lon="5.346">
        <ele>590.2</ele>
        <time>2014-05-04T09:53:13Z</time>
      </trkpt>
      <trkpt lat="44.30247" lon="5.34593">
        <ele>590.1</ele>
        <time>2014-05-04T09:53:15Z</time>
      </trkpt>
      <trkpt lat="44.30254" lon="5.34576">
        <ele>589.8</ele>
        <time>2014-05-04T09:53:19Z</time>
      </trkpt>
      <trkpt lat="44.30257" lon="5.34569">
        <ele>589.6</ele>
        <time>2014-05-04T09:53:21Z</time>
      </trkpt>
      <trkpt lat="44.30256" lon="5.34562">
        <ele>589</ele>
        <time>2014-05-04T09:53:24Z</time>
      </trkpt>
      <trkpt lat="44.30252" lon="5.34565">
        <ele>588.7</ele>
        <time>2014-05-04T09:53:27Z</time>
      </trkpt>
      <trkpt lat="44.30249" lon="5.34571">
        <ele>588.5</ele>
        <time>2014-05-04T09:53:29Z</time>
      </trkpt>
      <trkpt lat="44.30245" lon="5.34577">
        <ele>588</ele>
        <time>2014-05-04T09:53:31Z</time>
      </trkpt>
      <trkpt lat="44.30242" lon="5.34583">
        <ele>587.3</ele>
        <time>2014-05-04T09:53:33Z</time>
      </trkpt>
      <trkpt lat="44.30237" lon="5.3459">
        <ele>586.8</ele>
        <time>2014-05-04T09:53:35Z</time>
      </trkpt>
      <trkpt lat="44.30233" lon="5.34595">
        <ele>586.3</ele>
        <time>2014-05-04T09:53:38Z</time>
      </trkpt>
      <trkpt lat="44.3023" lon="5.34602">
        <ele>586.1</ele>
        <time>2014-05-04T09:53:40Z</time>
      </trkpt>
      <trkpt lat="44.30227" lon="5.34608">
        <ele>586.2</ele>
        <time>2014-05-04T09:53:43Z</time>
      </trkpt>
      <trkpt lat="44.30221" lon="5.34614">
        <ele>585.4</ele>
        <time>2014-05-04T09:53:47Z</time>
      </trkpt>
      <trkpt lat="44.30217" lon="5.34619">
        <ele>585.1</ele>
        <time>2014-05-04T09:53:49Z</time>
      </trkpt>
      <trkpt lat="44.30213" lon="5.34624">
        <ele>584.8</ele>
        <time>2014-05-04T09:53:51Z</time>
      </trkpt>
      <trkpt lat="44.30208" lon="5.34628">
        <ele>584</ele>
        <time>2014-05-04T09:53:53Z</time>
      </trkpt>
      <trkpt lat="44.30202" lon="5.34633">
        <ele>583.3</ele>
        <time>2014-05-04T09:53:55Z</time>
      </trkpt>
      <trkpt lat="44.30196" lon="5.34639">
        <ele>582.9</ele>
        <time>2014-05-04T09:53:57Z</time>
      </trkpt>
      <trkpt lat="44.3019" lon="5.34644">
        <ele>582.4</ele>
        <time>2014-05-04T09:53:59Z</time>
      </trkpt>
      <trkpt lat="44.30184" lon="5.34649">
        <ele>582</ele>
        <time>2014-05-04T09:54:01Z</time>
      </trkpt>
      <trkpt lat="44.30177" lon="5.34653">
        <ele>581.3</ele>
        <time>2014-05-04T09:54:03Z</time>
      </trkpt>
      <trkpt lat="44.3017" lon="5.34657">
        <ele>580.5</ele>
        <time>2014-05-04T09:54:05Z</time>
      </trkpt>
      <trkpt lat="44.30164" lon="5.34662">
        <ele>579.5</ele>
        <time>2014-05-04T09:54:07Z</time>
      </trkpt>
      <trkpt lat="44.30158" lon="5.34667">
        <ele>577.6</ele>
        <time>2014-05-04T09:54:09Z</time>
      </trkpt>
      <trkpt lat="44.30156" lon="5.3466">
        <ele>574.7</ele>
        <time>2014-05-04T09:54:12Z</time>
      </trkpt>
      <trkpt lat="44.3016" lon="5.34656">
        <ele>576.3</ele>
        <time>2014-05-04T09:54:15Z</time>
      </trkpt>
      <trkpt lat="44.30165" lon="5.34653">
        <ele>578.1</ele>
        <time>2014-05-04T09:54:17Z</time>
      </trkpt>
      <trkpt lat="44.30164" lon="5.34644">
        <ele>575.5</ele>
        <time>2014-05-04T09:54:22Z</time>
      </trkpt>
      <trkpt lat="44.30158" lon="5.34648">
        <ele>573.6</ele>
        <time>2014-05-04T09:54:24Z</time>
      </trkpt>
      <trkpt lat="44.30151" lon="5.34651">
        <ele>570.4</ele>
        <time>2014-05-04T09:54:26Z</time>
      </trkpt>
      <trkpt lat="44.30143" lon="5.34655">
        <ele>567.3</ele>
        <time>2014-05-04T09:54:28Z</time>
      </trkpt>
      <trkpt lat="44.30137" lon="5.3466">
        <ele>564.7</ele>
        <time>2014-05-04T09:54:30Z</time>
      </trkpt>
      <trkpt lat="44.30131" lon="5.34665">
        <ele>562.5</ele>
        <time>2014-05-04T09:54:32Z</time>
      </trkpt>
      <trkpt lat="44.30125" lon="5.34669">
        <ele>559.9</ele>
        <time>2014-05-04T09:54:34Z</time>
      </trkpt>
      <trkpt lat="44.3012" lon="5.34669">
        <ele>557.1</ele>
        <time>2014-05-04T09:54:36Z</time>
      </trkpt>
      <trkpt lat="44.30114" lon="5.34669">
        <ele>553.9</ele>
        <time>2014-05-04T09:54:38Z</time>
      </trkpt>
      <trkpt lat="44.30109" lon="5.34668">
        <ele>550.9</ele>
        <time>2014-05-04T09:54:40Z</time>
      </trkpt>
      <trkpt lat="44.30103" lon="5.34667">
        <ele>547.4</ele>
        <time>2014-05-04T09:54:42Z</time>
      </trkpt>
      <trkpt lat="44.30097" lon="5.34666">
        <ele>544.5</ele>
        <time>2014-05-04T09:54:44Z</time>
      </trkpt>
      <trkpt lat="44.30092" lon="5.3467">
        <ele>542.3</ele>
        <time>2014-05-04T09:54:47Z</time>
      </trkpt>
      <trkpt lat="44.30094" lon="5.34679">
        <ele>544.8</ele>
        <time>2014-05-04T09:54:50Z</time>
      </trkpt>
      <trkpt lat="44.30092" lon="5.34687">
        <ele>545</ele>
        <time>2014-05-04T09:57:18Z</time>
      </trkpt>
      <trkpt lat="44.30094" lon="5.347">
        <ele>547.7</ele>
        <time>2014-05-04T09:57:22Z</time>
      </trkpt>
      <trkpt lat="44.30095" lon="5.34707">
        <ele>549.4</ele>
        <time>2014-05-04T09:57:24Z</time>
      </trkpt>
      <trkpt lat="44.30096" lon="5.34713">
        <ele>551</ele>
        <time>2014-05-04T09:57:26Z</time>
      </trkpt>
      <trkpt lat="44.30098" lon="5.3472">
        <ele>552.9</ele>
        <time>2014-05-04T09:57:28Z</time>
      </trkpt>
      <trkpt lat="44.30099" lon="5.34726">
        <ele>554.8</ele>
        <time>2014-05-04T09:57:30Z</time>
      </trkpt>
      <trkpt lat="44.301" lon="5.34733">
        <ele>556.5</ele>
        <time>2014-05-04T09:57:32Z</time>
      </trkpt>
      <trkpt lat="44.30102" lon="5.3474">
        <ele>558.7</ele>
        <time>2014-05-04T09:57:34Z</time>
      </trkpt>
      <trkpt lat="44.30104" lon="5.34747">
        <ele>560.5</ele>
        <time>2014-05-04T09:57:36Z</time>
      </trkpt>
      <trkpt lat="44.30106" lon="5.34753">
        <ele>561.9</ele>
        <time>2014-05-04T09:57:38Z</time>
      </trkpt>
      <trkpt lat="44.30108" lon="5.34759">
        <ele>562.3</ele>
        <time>2014-05-04T09:57:40Z</time>
      </trkpt>
      <trkpt lat="44.30109" lon="5.34766">
        <ele>562.9</ele>
        <time>2014-05-04T09:57:42Z</time>
      </trkpt>
      <trkpt lat="44.30111" lon="5.34773">
        <ele>563.3</ele>
        <time>2014-05-04T09:57:44Z</time>
      </trkpt>
      <trkpt lat="44.30113" lon="5.3478">
        <ele>563.9</ele>
        <time>2014-05-04T09:57:46Z</time>
      </trkpt>
      <trkpt lat="44.30115" lon="5.34787">
        <ele>564.5</ele>
        <time>2014-05-04T09:57:48Z</time>
      </trkpt>
      <trkpt lat="44.30116" lon="5.34794">
        <ele>564.8</ele>
        <time>2014-05-04T09:57:50Z</time>
      </trkpt>
      <trkpt lat="44.30115" lon="5.34801">
        <ele>563.6</ele>
        <time>2014-05-04T09:57:52Z</time>
      </trkpt>
      <trkpt lat="44.3011" lon="5.34806">
        <ele>560.1</ele>
        <time>2014-05-04T09:57:55Z</time>
      </trkpt>
      <trkpt lat="44.30104" lon="5.3481">
        <ele>556.6</ele>
        <time>2014-05-04T09:57:58Z</time>
      </trkpt>
      <trkpt lat="44.30099" lon="5.34815">
        <ele>553</ele>
        <time>2014-05-04T09:58:01Z</time>
      </trkpt>
      <trkpt lat="44.30093" lon="5.34819">
        <ele>549.4</ele>
        <time>2014-05-04T09:58:04Z</time>
      </trkpt>
      <trkpt lat="44.30089" lon="5.34823">
        <ele>546.5</ele>
        <time>2014-05-04T09:58:07Z</time>
      </trkpt>
      <trkpt lat="44.30084" lon="5.34826">
        <ele>543.3</ele>
        <time>2014-05-04T09:58:10Z</time>
      </trkpt>
      <trkpt lat="44.30079" lon="5.34829">
        <ele>541.4</ele>
        <time>2014-05-04T09:58:13Z</time>
      </trkpt>
      <trkpt lat="44.30074" lon="5.3483">
        <ele>539.8</ele>
        <time>2014-05-04T09:58:16Z</time>
      </trkpt>
      <trkpt lat="44.30069" lon="5.34825">
        <ele>538.9</ele>
        <time>2014-05-04T09:58:19Z</time>
      </trkpt>
      <trkpt lat="44.30062" lon="5.34811">
        <ele>537.9</ele>
        <time>2014-05-04T09:58:25Z</time>
      </trkpt>
      <trkpt lat="44.3006" lon="5.34804">
        <ele>537.5</ele>
        <time>2014-05-04T09:58:28Z</time>
      </trkpt>
      <trkpt lat="44.30057" lon="5.34798">
        <ele>536.8</ele>
        <time>2014-05-04T09:58:31Z</time>
      </trkpt>
      <trkpt lat="44.30054" lon="5.34791">
        <ele>536.1</ele>
        <time>2014-05-04T09:58:34Z</time>
      </trkpt>
      <trkpt lat="44.30051" lon="5.34786">
        <ele>535.2</ele>
        <time>2014-05-04T09:58:37Z</time>
      </trkpt>
      <trkpt lat="44.30048" lon="5.34781">
        <ele>534.5</ele>
        <time>2014-05-04T09:58:40Z</time>
      </trkpt>
      <trkpt lat="44.30044" lon="5.34775">
        <ele>533.2</ele>
        <time>2014-05-04T09:58:44Z</time>
      </trkpt>
      <trkpt lat="44.30039" lon="5.34771">
        <ele>531.5</ele>
        <time>2014-05-04T09:58:48Z</time>
      </trkpt>
      <trkpt lat="44.30034" lon="5.34767">
        <ele>529.8</ele>
        <time>2014-05-04T09:58:51Z</time>
      </trkpt>
      <trkpt lat="44.3003" lon="5.34764">
        <ele>528</ele>
        <time>2014-05-04T09:58:54Z</time>
      </trkpt>
      <trkpt lat="44.30025" lon="5.34761">
        <ele>526.4</ele>
        <time>2014-05-04T09:58:57Z</time>
      </trkpt>
      <trkpt lat="44.30021" lon="5.34756">
        <ele>524.7</ele>
        <time>2014-05-04T09:59:00Z</time>
      </trkpt>
      <trkpt lat="44.30017" lon="5.34752">
        <ele>522.9</ele>
        <time>2014-05-04T09:59:03Z</time>
      </trkpt>
      <trkpt lat="44.30014" lon="5.34747">
        <ele>521.4</ele>
        <time>2014-05-04T09:59:06Z</time>
      </trkpt>
      <trkpt lat="44.3001" lon="5.34741">
        <ele>519.9</ele>
        <time>2014-05-04T09:59:09Z</time>
      </trkpt>
      <trkpt lat="44.30007" lon="5.34735">
        <ele>518.5</ele>
        <time>2014-05-04T09:59:12Z</time>
      </trkpt>
      <trkpt lat="44.30005" lon="5.34729">
        <ele>517.6</ele>
        <time>2014-05-04T09:59:15Z</time>
      </trkpt>
      <trkpt lat="44.30002" lon="5.34724">
        <ele>516.3</ele>
        <time>2014-05-04T09:59:18Z</time>
      </trkpt>
      <trkpt lat="44.29999" lon="5.34718">
        <ele>515.7</ele>
        <time>2014-05-04T09:59:21Z</time>
      </trkpt>
      <trkpt lat="44.29993" lon="5.34706">
        <ele>516.3</ele>
        <time>2014-05-04T09:59:27Z</time>
      </trkpt>
      <trkpt lat="44.29989" lon="5.34704">
        <ele>516.6</ele>
        <time>2014-05-04T09:59:30Z</time>
      </trkpt>
      <trkpt lat="44.29983" lon="5.34703">
        <ele>517.3</ele>
        <time>2014-05-04T09:59:34Z</time>
      </trkpt>
      <trkpt lat="44.29979" lon="5.34708">
        <ele>517.8</ele>
        <time>2014-05-04T09:59:37Z</time>
      </trkpt>
      <trkpt lat="44.29979" lon="5.34715">
        <ele>518.1</ele>
        <time>2014-05-04T09:59:40Z</time>
      </trkpt>
      <trkpt lat="44.2998" lon="5.34722">
        <ele>518.2</ele>
        <time>2014-05-04T09:59:43Z</time>
      </trkpt>
      <trkpt lat="44.29982" lon="5.34729">
        <ele>518.2</ele>
        <time>2014-05-04T09:59:46Z</time>
      </trkpt>
      <trkpt lat="44.29983" lon="5.34736">
        <ele>518.2</ele>
        <time>2014-05-04T09:59:49Z</time>
      </trkpt>
      <trkpt lat="44.29985" lon="5.34742">
        <ele>518.2</ele>
        <time>2014-05-04T09:59:52Z</time>
      </trkpt>
      <trkpt lat="44.29986" lon="5.3475">
        <ele>518.2</ele>
        <time>2014-05-04T09:59:55Z</time>
      </trkpt>
      <trkpt lat="44.29987" lon="5.34757">
        <ele>518.3</ele>
        <time>2014-05-04T09:59:58Z</time>
      </trkpt>
      <trkpt lat="44.29988" lon="5.34764">
        <ele>518.6</ele>
        <time>2014-05-04T10:00:01Z</time>
      </trkpt>
      <trkpt lat="44.29989" lon="5.3477">
        <ele>518.8</ele>
        <time>2014-05-04T10:00:04Z</time>
      </trkpt>
      <trkpt lat="44.2999" lon="5.34777">
        <ele>519</ele>
        <time>2014-05-04T10:00:07Z</time>
      </trkpt>
      <trkpt lat="44.2999" lon="5.34783">
        <ele>519.3</ele>
        <time>2014-05-04T10:00:10Z</time>
      </trkpt>
      <trkpt lat="44.2999" lon="5.3479">
        <ele>519.6</ele>
        <time>2014-05-04T10:00:13Z</time>
      </trkpt>
      <trkpt lat="44.2999" lon="5.34797">
        <ele>519.9</ele>
        <time>2014-05-04T10:00:16Z</time>
      </trkpt>
      <trkpt lat="44.29991" lon="5.34803">
        <ele>520.2</ele>
        <time>2014-05-04T10:00:19Z</time>
      </trkpt>
      <trkpt lat="44.29991" lon="5.3481">
        <ele>520.5</ele>
        <time>2014-05-04T10:00:22Z</time>
      </trkpt>
      <trkpt lat="44.29991" lon="5.34823">
        <ele>521.2</ele>
        <time>2014-05-04T10:00:28Z</time>
      </trkpt>
      <trkpt lat="44.2999" lon="5.34829">
        <ele>521.6</ele>
        <time>2014-05-04T10:00:31Z</time>
      </trkpt>
      <trkpt lat="44.2999" lon="5.34837">
        <ele>522</ele>
        <time>2014-05-04T10:00:34Z</time>
      </trkpt>
      <trkpt lat="44.29989" lon="5.34843">
        <ele>522.5</ele>
        <time>2014-05-04T10:00:37Z</time>
      </trkpt>
      <trkpt lat="44.29987" lon="5.3485">
        <ele>523.1</ele>
        <time>2014-05-04T10:00:40Z</time>
      </trkpt>
      <trkpt lat="44.29986" lon="5.34856">
        <ele>523.5</ele>
        <time>2014-05-04T10:00:43Z</time>
      </trkpt>
      <trkpt lat="44.29984" lon="5.34862">
        <ele>524.2</ele>
        <time>2014-05-04T10:00:46Z</time>
      </trkpt>
      <trkpt lat="44.29981" lon="5.34868">
        <ele>524.9</ele>
        <time>2014-05-04T10:00:49Z</time>
      </trkpt>
      <trkpt lat="44.29979" lon="5.34874">
        <ele>525.6</ele>
        <time>2014-05-04T10:00:52Z</time>
      </trkpt>
      <trkpt lat="44.29976" lon="5.34881">
        <ele>526.4</ele>
        <time>2014-05-04T10:00:56Z</time>
      </trkpt>
      <trkpt lat="44.29973" lon="5.34888">
        <ele>527.3</ele>
        <time>2014-05-04T10:01:00Z</time>
      </trkpt>
      <trkpt lat="44.29971" lon="5.34895">
        <ele>528.1</ele>
        <time>2014-05-04T10:01:04Z</time>
      </trkpt>
      <trkpt lat="44.29968" lon="5.34902">
        <ele>528.9</ele>
        <time>2014-05-04T10:01:08Z</time>
      </trkpt>
      <trkpt lat="44.29965" lon="5.34909">
        <ele>529.7</ele>
        <time>2014-05-04T10:01:12Z</time>
      </trkpt>
      <trkpt lat="44.29963" lon="5.34916">
        <ele>530.4</ele>
        <time>2014-05-04T10:01:16Z</time>
      </trkpt>
      <trkpt lat="44.29961" lon="5.34922">
        <ele>531.3</ele>
        <time>2014-05-04T10:01:20Z</time>
      </trkpt>
      <trkpt lat="44.29958" lon="5.3493">
        <ele>532.4</ele>
        <time>2014-05-04T10:01:24Z</time>
      </trkpt>
      <trkpt lat="44.29954" lon="5.34943">
        <ele>534.4</ele>
        <time>2014-05-04T10:01:32Z</time>
      </trkpt>
      <trkpt lat="44.29951" lon="5.34951">
        <ele>535.5</ele>
        <time>2014-05-04T10:01:36Z</time>
      </trkpt>
      <trkpt lat="44.29949" lon="5.34957">
        <ele>536.2</ele>
        <time>2014-05-04T10:01:39Z</time>
      </trkpt>
      <trkpt lat="44.29946" lon="5.34962">
        <ele>537.2</ele>
        <time>2014-05-04T10:01:42Z</time>
      </trkpt>
      <trkpt lat="44.29944" lon="5.34969">
        <ele>538.1</ele>
        <time>2014-05-04T10:01:45Z</time>
      </trkpt>
      <trkpt lat="44.29943" lon="5.34975">
        <ele>538.8</ele>
        <time>2014-05-04T10:01:48Z</time>
      </trkpt>
      <trkpt lat="44.29942" lon="5.34982">
        <ele>539.6</ele>
        <time>2014-05-04T10:01:51Z</time>
      </trkpt>
      <trkpt lat="44.2994" lon="5.34989">
        <ele>540.3</ele>
        <time>2014-05-04T10:01:54Z</time>
      </trkpt>
      <trkpt lat="44.2994" lon="5.34996">
        <ele>541.1</ele>
        <time>2014-05-04T10:01:57Z</time>
      </trkpt>
      <trkpt lat="44.29939" lon="5.35003">
        <ele>541.5</ele>
        <time>2014-05-04T10:02:00Z</time>
      </trkpt>
      <trkpt lat="44.29938" lon="5.35011">
        <ele>541.6</ele>
        <time>2014-05-04T10:02:03Z</time>
      </trkpt>
      <trkpt lat="44.29938" lon="5.35018">
        <ele>541.7</ele>
        <time>2014-05-04T10:02:06Z</time>
      </trkpt>
      <trkpt lat="44.29938" lon="5.35026">
        <ele>541.8</ele>
        <time>2014-05-04T10:02:09Z</time>
      </trkpt>
      <trkpt lat="44.29937" lon="5.35032">
        <ele>542</ele>
        <time>2014-05-04T10:02:12Z</time>
      </trkpt>
      <trkpt lat="44.29935" lon="5.35039">
        <ele>542.3</ele>
        <time>2014-05-04T10:02:15Z</time>
      </trkpt>
      <trkpt lat="44.29932" lon="5.35044">
        <ele>542.9</ele>
        <time>2014-05-04T10:02:18Z</time>
      </trkpt>
      <trkpt lat="44.29927" lon="5.35047">
        <ele>543.9</ele>
        <time>2014-05-04T10:02:22Z</time>
      </trkpt>
      <trkpt lat="44.29922" lon="5.35046">
        <ele>544.9</ele>
        <time>2014-05-04T10:02:25Z</time>
      </trkpt>
      <trkpt lat="44.29912" lon="5.35047">
        <ele>546.7</ele>
        <time>2014-05-04T10:02:32Z</time>
      </trkpt>
      <trkpt lat="44.29908" lon="5.35051">
        <ele>547.2</ele>
        <time>2014-05-04T10:02:35Z</time>
      </trkpt>
      <trkpt lat="44.29904" lon="5.35054">
        <ele>547.8</ele>
        <time>2014-05-04T10:02:38Z</time>
      </trkpt>
      <trkpt lat="44.29899" lon="5.35057">
        <ele>548.4</ele>
        <time>2014-05-04T10:02:41Z</time>
      </trkpt>
      <trkpt lat="44.29895" lon="5.3506">
        <ele>549</ele>
        <time>2014-05-04T10:02:44Z</time>
      </trkpt>
      <trkpt lat="44.29891" lon="5.35063">
        <ele>549.6</ele>
        <time>2014-05-04T10:02:47Z</time>
      </trkpt>
      <trkpt lat="44.29887" lon="5.35067">
        <ele>550.1</ele>
        <time>2014-05-04T10:02:50Z</time>
      </trkpt>
      <trkpt lat="44.29883" lon="5.35072">
        <ele>550.7</ele>
        <time>2014-05-04T10:02:53Z</time>
      </trkpt>
      <trkpt lat="44.29881" lon="5.35078">
        <ele>551.1</ele>
        <time>2014-05-04T10:02:56Z</time>
      </trkpt>
      <trkpt lat="44.29878" lon="5.35083">
        <ele>551.6</ele>
        <time>2014-05-04T10:02:59Z</time>
      </trkpt>
      <trkpt lat="44.29875" lon="5.35089">
        <ele>551.7</ele>
        <time>2014-05-04T10:03:02Z</time>
      </trkpt>
      <trkpt lat="44.29872" lon="5.35094">
        <ele>551.9</ele>
        <time>2014-05-04T10:03:05Z</time>
      </trkpt>
      <trkpt lat="44.2987" lon="5.351">
        <ele>551.8</ele>
        <time>2014-05-04T10:03:08Z</time>
      </trkpt>
      <trkpt lat="44.29869" lon="5.35107">
        <ele>551.6</ele>
        <time>2014-05-04T10:03:11Z</time>
      </trkpt>
      <trkpt lat="44.29867" lon="5.35113">
        <ele>551.5</ele>
        <time>2014-05-04T10:03:14Z</time>
      </trkpt>
      <trkpt lat="44.29866" lon="5.35119">
        <ele>551.4</ele>
        <time>2014-05-04T10:03:17Z</time>
      </trkpt>
      <trkpt lat="44.29865" lon="5.35126">
        <ele>551.1</ele>
        <time>2014-05-04T10:03:20Z</time>
      </trkpt>
      <trkpt lat="44.29864" lon="5.35132">
        <ele>551</ele>
        <time>2014-05-04T10:03:23Z</time>
      </trkpt>
      <trkpt lat="44.29863" lon="5.35139">
        <ele>550.7</ele>
        <time>2014-05-04T10:03:26Z</time>
      </trkpt>
      <trkpt lat="44.29858" lon="5.35151">
        <ele>550.6</ele>
        <time>2014-05-04T10:03:33Z</time>
      </trkpt>
      <trkpt lat="44.29855" lon="5.35157">
        <ele>550.8</ele>
        <time>2014-05-04T10:03:37Z</time>
      </trkpt>
      <trkpt lat="44.2985" lon="5.35161">
        <ele>551.1</ele>
        <time>2014-05-04T10:03:41Z</time>
      </trkpt>
      <trkpt lat="44.29846" lon="5.35165">
        <ele>551.5</ele>
        <time>2014-05-04T10:03:45Z</time>
      </trkpt>
      <trkpt lat="44.29841" lon="5.35168">
        <ele>551.9</ele>
        <time>2014-05-04T10:03:49Z</time>
      </trkpt>
      <trkpt lat="44.29837" lon="5.35171">
        <ele>552.5</ele>
        <time>2014-05-04T10:03:53Z</time>
      </trkpt>
      <trkpt lat="44.29832" lon="5.35175">
        <ele>553.1</ele>
        <time>2014-05-04T10:03:57Z</time>
      </trkpt>
      <trkpt lat="44.29828" lon="5.35181">
        <ele>553.8</ele>
        <time>2014-05-04T10:04:01Z</time>
      </trkpt>
      <trkpt lat="44.29823" lon="5.35184">
        <ele>554.5</ele>
        <time>2014-05-04T10:04:05Z</time>
      </trkpt>
      <trkpt lat="44.29818" lon="5.35186">
        <ele>555.6</ele>
        <time>2014-05-04T10:04:09Z</time>
      </trkpt>
      <trkpt lat="44.29813" lon="5.35181">
        <ele>556.6</ele>
        <time>2014-05-04T10:04:13Z</time>
      </trkpt>
      <trkpt lat="44.29814" lon="5.35174">
        <ele>556.8</ele>
        <time>2014-05-04T10:04:17Z</time>
      </trkpt>
      <trkpt lat="44.29815" lon="5.35166">
        <ele>556.9</ele>
        <time>2014-05-04T10:04:21Z</time>
      </trkpt>
      <trkpt lat="44.29815" lon="5.35158">
        <ele>557.2</ele>
        <time>2014-05-04T10:04:25Z</time>
      </trkpt>
      <trkpt lat="44.29813" lon="5.3515">
        <ele>558</ele>
        <time>2014-05-04T10:04:29Z</time>
      </trkpt>
      <trkpt lat="44.29808" lon="5.35138">
        <ele>559.6</ele>
        <time>2014-05-04T10:04:35Z</time>
      </trkpt>
      <trkpt lat="44.29805" lon="5.35134">
        <ele>560.6</ele>
        <time>2014-05-04T10:04:38Z</time>
      </trkpt>
      <trkpt lat="44.29801" lon="5.35131">
        <ele>561.5</ele>
        <time>2014-05-04T10:04:41Z</time>
      </trkpt>
      <trkpt lat="44.29796" lon="5.35131">
        <ele>562.4</ele>
        <time>2014-05-04T10:04:44Z</time>
      </trkpt>
      <trkpt lat="44.29791" lon="5.35134">
        <ele>563.3</ele>
        <time>2014-05-04T10:04:47Z</time>
      </trkpt>
      <trkpt lat="44.29788" lon="5.3514">
        <ele>563.5</ele>
        <time>2014-05-04T10:04:50Z</time>
      </trkpt>
      <trkpt lat="44.29786" lon="5.35146">
        <ele>563.7</ele>
        <time>2014-05-04T10:04:53Z</time>
      </trkpt>
      <trkpt lat="44.29785" lon="5.35153">
        <ele>563.6</ele>
        <time>2014-05-04T10:04:56Z</time>
      </trkpt>
      <trkpt lat="44.29783" lon="5.3516">
        <ele>563.5</ele>
        <time>2014-05-04T10:04:59Z</time>
      </trkpt>
      <trkpt lat="44.29782" lon="5.35167">
        <ele>563.5</ele>
        <time>2014-05-04T10:05:02Z</time>
      </trkpt>
      <trkpt lat="44.2978" lon="5.35174">
        <ele>563.5</ele>
        <time>2014-05-04T10:05:05Z</time>
      </trkpt>
      <trkpt lat="44.29779" lon="5.35181">
        <ele>563.5</ele>
        <time>2014-05-04T10:05:08Z</time>
      </trkpt>
      <trkpt lat="44.29778" lon="5.35188">
        <ele>563.5</ele>
        <time>2014-05-04T10:05:11Z</time>
      </trkpt>
      <trkpt lat="44.29775" lon="5.35193">
        <ele>563.8</ele>
        <time>2014-05-04T10:05:14Z</time>
      </trkpt>
      <trkpt lat="44.29772" lon="5.35199">
        <ele>564.2</ele>
        <time>2014-05-04T10:05:17Z</time>
      </trkpt>
      <trkpt lat="44.29768" lon="5.35203">
        <ele>564.7</ele>
        <time>2014-05-04T10:05:20Z</time>
      </trkpt>
      <trkpt lat="44.29765" lon="5.35207">
        <ele>565.2</ele>
        <time>2014-05-04T10:05:23Z</time>
      </trkpt>
      <trkpt lat="44.29761" lon="5.35212">
        <ele>565.8</ele>
        <time>2014-05-04T10:05:26Z</time>
      </trkpt>
      <trkpt lat="44.29757" lon="5.35216">
        <ele>566.4</ele>
        <time>2014-05-04T10:05:29Z</time>
      </trkpt>
      <trkpt lat="44.29753" lon="5.3522">
        <ele>566.9</ele>
        <time>2014-05-04T10:05:32Z</time>
      </trkpt>
      <trkpt lat="44.29745" lon="5.35226">
        <ele>568.6</ele>
        <time>2014-05-04T10:05:38Z</time>
      </trkpt>
      <trkpt lat="44.29741" lon="5.3523">
        <ele>569.4</ele>
        <time>2014-05-04T10:05:41Z</time>
      </trkpt>
      <trkpt lat="44.29737" lon="5.35234">
        <ele>570.4</ele>
        <time>2014-05-04T10:05:44Z</time>
      </trkpt>
      <trkpt lat="44.29733" lon="5.35238">
        <ele>571.2</ele>
        <time>2014-05-04T10:05:47Z</time>
      </trkpt>
      <trkpt lat="44.29729" lon="5.35242">
        <ele>571.9</ele>
        <time>2014-05-04T10:05:50Z</time>
      </trkpt>
      <trkpt lat="44.29725" lon="5.35246">
        <ele>572.9</ele>
        <time>2014-05-04T10:05:53Z</time>
      </trkpt>
      <trkpt lat="44.29722" lon="5.35251">
        <ele>573.8</ele>
        <time>2014-05-04T10:05:56Z</time>
      </trkpt>
      <trkpt lat="44.29718" lon="5.35255">
        <ele>574.7</ele>
        <time>2014-05-04T10:05:59Z</time>
      </trkpt>
      <trkpt lat="44.29715" lon="5.3526">
        <ele>575.4</ele>
        <time>2014-05-04T10:06:02Z</time>
      </trkpt>
      <trkpt lat="44.29711" lon="5.35265">
        <ele>576.2</ele>
        <time>2014-05-04T10:06:05Z</time>
      </trkpt>
      <trkpt lat="44.29707" lon="5.3527">
        <ele>577</ele>
        <time>2014-05-04T10:06:08Z</time>
      </trkpt>
      <trkpt lat="44.29703" lon="5.35275">
        <ele>577.8</ele>
        <time>2014-05-04T10:06:11Z</time>
      </trkpt>
      <trkpt lat="44.297" lon="5.3528">
        <ele>578.6</ele>
        <time>2014-05-04T10:06:14Z</time>
      </trkpt>
      <trkpt lat="44.29696" lon="5.35284">
        <ele>579.4</ele>
        <time>2014-05-04T10:06:17Z</time>
      </trkpt>
      <trkpt lat="44.29691" lon="5.35289">
        <ele>580.2</ele>
        <time>2014-05-04T10:06:20Z</time>
      </trkpt>
      <trkpt lat="44.29687" lon="5.35294">
        <ele>581.1</ele>
        <time>2014-05-04T10:06:23Z</time>
      </trkpt>
      <trkpt lat="44.29684" lon="5.35299">
        <ele>581.8</ele>
        <time>2014-05-04T10:06:26Z</time>
      </trkpt>
      <trkpt lat="44.29679" lon="5.35304">
        <ele>582.6</ele>
        <time>2014-05-04T10:06:29Z</time>
      </trkpt>
      <trkpt lat="44.29676" lon="5.3531">
        <ele>583.2</ele>
        <time>2014-05-04T10:06:32Z</time>
      </trkpt>
      <trkpt lat="44.29672" lon="5.35315">
        <ele>583.8</ele>
        <time>2014-05-04T10:06:35Z</time>
      </trkpt>
      <trkpt lat="44.29664" lon="5.35324">
        <ele>585</ele>
        <time>2014-05-04T10:06:41Z</time>
      </trkpt>
      <trkpt lat="44.2966" lon="5.3533">
        <ele>585.5</ele>
        <time>2014-05-04T10:06:44Z</time>
      </trkpt>
      <trkpt lat="44.29656" lon="5.35335">
        <ele>586</ele>
        <time>2014-05-04T10:06:47Z</time>
      </trkpt>
      <trkpt lat="44.29652" lon="5.35341">
        <ele>586.7</ele>
        <time>2014-05-04T10:06:50Z</time>
      </trkpt>
      <trkpt lat="44.29648" lon="5.35346">
        <ele>587.4</ele>
        <time>2014-05-04T10:06:53Z</time>
      </trkpt>
      <trkpt lat="44.29644" lon="5.35351">
        <ele>587.9</ele>
        <time>2014-05-04T10:06:56Z</time>
      </trkpt>
      <trkpt lat="44.2964" lon="5.35356">
        <ele>588.6</ele>
        <time>2014-05-04T10:06:59Z</time>
      </trkpt>
      <trkpt lat="44.29637" lon="5.35362">
        <ele>589.1</ele>
        <time>2014-05-04T10:07:02Z</time>
      </trkpt>
      <trkpt lat="44.29632" lon="5.35367">
        <ele>589.8</ele>
        <time>2014-05-04T10:07:05Z</time>
      </trkpt>
      <trkpt lat="44.29629" lon="5.35373">
        <ele>590.3</ele>
        <time>2014-05-04T10:07:08Z</time>
      </trkpt>
      <trkpt lat="44.29625" lon="5.35378">
        <ele>590.9</ele>
        <time>2014-05-04T10:07:11Z</time>
      </trkpt>
      <trkpt lat="44.29621" lon="5.35384">
        <ele>591.4</ele>
        <time>2014-05-04T10:07:14Z</time>
      </trkpt>
      <trkpt lat="44.29618" lon="5.35389">
        <ele>592</ele>
        <time>2014-05-04T10:07:17Z</time>
      </trkpt>
      <trkpt lat="44.29613" lon="5.35395">
        <ele>592.7</ele>
        <time>2014-05-04T10:07:20Z</time>
      </trkpt>
      <trkpt lat="44.2961" lon="5.354">
        <ele>593.2</ele>
        <time>2014-05-04T10:07:23Z</time>
      </trkpt>
      <trkpt lat="44.29606" lon="5.35405">
        <ele>593.7</ele>
        <time>2014-05-04T10:07:26Z</time>
      </trkpt>
      <trkpt lat="44.29603" lon="5.3541">
        <ele>594.2</ele>
        <time>2014-05-04T10:07:29Z</time>
      </trkpt>
      <trkpt lat="44.296" lon="5.35415">
        <ele>594.6</ele>
        <time>2014-05-04T10:07:32Z</time>
      </trkpt>
      <trkpt lat="44.29597" lon="5.35421">
        <ele>595.2</ele>
        <time>2014-05-04T10:07:35Z</time>
      </trkpt>
      <trkpt lat="44.29594" lon="5.35425">
        <ele>595.7</ele>
        <time>2014-05-04T10:07:38Z</time>
      </trkpt>
      <trkpt lat="44.29586" lon="5.35437">
        <ele>597.4</ele>
        <time>2014-05-04T10:07:46Z</time>
      </trkpt>
      <trkpt lat="44.29583" lon="5.35442">
        <ele>598.1</ele>
        <time>2014-05-04T10:07:49Z</time>
      </trkpt>
      <trkpt lat="44.2958" lon="5.35447">
        <ele>598.7</ele>
        <time>2014-05-04T10:07:52Z</time>
      </trkpt>
      <trkpt lat="44.29576" lon="5.35452">
        <ele>599.4</ele>
        <time>2014-05-04T10:07:55Z</time>
      </trkpt>
      <trkpt lat="44.29572" lon="5.35457">
        <ele>600.2</ele>
        <time>2014-05-04T10:07:58Z</time>
      </trkpt>
      <trkpt lat="44.29569" lon="5.35463">
        <ele>600.8</ele>
        <time>2014-05-04T10:08:01Z</time>
      </trkpt>
      <trkpt lat="44.29565" lon="5.35469">
        <ele>601.6</ele>
        <time>2014-05-04T10:08:04Z</time>
      </trkpt>
      <trkpt lat="44.29561" lon="5.35475">
        <ele>602.4</ele>
        <time>2014-05-04T10:08:07Z</time>
      </trkpt>
      <trkpt lat="44.29557" lon="5.35481">
        <ele>603.3</ele>
        <time>2014-05-04T10:08:10Z</time>
      </trkpt>
      <trkpt lat="44.29553" lon="5.35486">
        <ele>604.2</ele>
        <time>2014-05-04T10:08:13Z</time>
      </trkpt>
      <trkpt lat="44.29548" lon="5.35491">
        <ele>605.1</ele>
        <time>2014-05-04T10:08:16Z</time>
      </trkpt>
      <trkpt lat="44.29544" lon="5.35497">
        <ele>606</ele>
        <time>2014-05-04T10:08:19Z</time>
      </trkpt>
      <trkpt lat="44.2954" lon="5.35503">
        <ele>606.6</ele>
        <time>2014-05-04T10:08:22Z</time>
      </trkpt>
      <trkpt lat="44.29536" lon="5.35509">
        <ele>607.2</ele>
        <time>2014-05-04T10:08:25Z</time>
      </trkpt>
      <trkpt lat="44.29532" lon="5.35514">
        <ele>607.7</ele>
        <time>2014-05-04T10:08:28Z</time>
      </trkpt>
      <trkpt lat="44.29529" lon="5.35519">
        <ele>608.2</ele>
        <time>2014-05-04T10:08:31Z</time>
      </trkpt>
      <trkpt lat="44.29524" lon="5.35524">
        <ele>608.8</ele>
        <time>2014-05-04T10:08:34Z</time>
      </trkpt>
      <trkpt lat="44.2952" lon="5.35529">
        <ele>609.6</ele>
        <time>2014-05-04T10:08:37Z</time>
      </trkpt>
      <trkpt lat="44.29515" lon="5.35533">
        <ele>610.5</ele>
        <time>2014-05-04T10:08:40Z</time>
      </trkpt>
      <trkpt lat="44.29504" lon="5.35536">
        <ele>612.7</ele>
        <time>2014-05-04T10:08:46Z</time>
      </trkpt>
      <trkpt lat="44.29499" lon="5.35536">
        <ele>613.8</ele>
        <time>2014-05-04T10:08:49Z</time>
      </trkpt>
      <trkpt lat="44.29494" lon="5.35538">
        <ele>614.3</ele>
        <time>2014-05-04T10:08:52Z</time>
      </trkpt>
      <trkpt lat="44.29489" lon="5.35538">
        <ele>614.7</ele>
        <time>2014-05-04T10:08:55Z</time>
      </trkpt>
      <trkpt lat="44.29484" lon="5.35539">
        <ele>615.1</ele>
        <time>2014-05-04T10:08:58Z</time>
      </trkpt>
      <trkpt lat="44.2948" lon="5.3554">
        <ele>615.6</ele>
        <time>2014-05-04T10:09:01Z</time>
      </trkpt>
      <trkpt lat="44.29475" lon="5.35541">
        <ele>616</ele>
        <time>2014-05-04T10:09:04Z</time>
      </trkpt>
      <trkpt lat="44.29471" lon="5.35542">
        <ele>616.3</ele>
        <time>2014-05-04T10:09:07Z</time>
      </trkpt>
      <trkpt lat="44.29466" lon="5.35542">
        <ele>616.8</ele>
        <time>2014-05-04T10:09:10Z</time>
      </trkpt>
      <trkpt lat="44.29461" lon="5.35543">
        <ele>617.2</ele>
        <time>2014-05-04T10:09:13Z</time>
      </trkpt>
      <trkpt lat="44.29456" lon="5.35544">
        <ele>617.7</ele>
        <time>2014-05-04T10:09:16Z</time>
      </trkpt>
      <trkpt lat="44.29451" lon="5.35543">
        <ele>618.1</ele>
        <time>2014-05-04T10:09:19Z</time>
      </trkpt>
      <trkpt lat="44.29445" lon="5.35542">
        <ele>618.8</ele>
        <time>2014-05-04T10:09:23Z</time>
      </trkpt>
      <trkpt lat="44.29439" lon="5.35542">
        <ele>619.3</ele>
        <time>2014-05-04T10:09:27Z</time>
      </trkpt>
      <trkpt lat="44.29435" lon="5.35541">
        <ele>619.8</ele>
        <time>2014-05-04T10:09:30Z</time>
      </trkpt>
      <trkpt lat="44.2943" lon="5.3554">
        <ele>620.3</ele>
        <time>2014-05-04T10:09:33Z</time>
      </trkpt>
      <trkpt lat="44.29426" lon="5.35539">
        <ele>620.9</ele>
        <time>2014-05-04T10:09:36Z</time>
      </trkpt>
      <trkpt lat="44.2942" lon="5.35537">
        <ele>621.5</ele>
        <time>2014-05-04T10:09:40Z</time>
      </trkpt>
      <trkpt lat="44.29414" lon="5.35535">
        <ele>622.1</ele>
        <time>2014-05-04T10:09:44Z</time>
      </trkpt>
      <trkpt lat="44.29404" lon="5.35529">
        <ele>623.1</ele>
        <time>2014-05-04T10:09:52Z</time>
      </trkpt>
      <trkpt lat="44.29399" lon="5.35526">
        <ele>623.6</ele>
        <time>2014-05-04T10:09:56Z</time>
      </trkpt>
      <trkpt lat="44.29395" lon="5.35522">
        <ele>624.3</ele>
        <time>2014-05-04T10:10:00Z</time>
      </trkpt>
      <trkpt lat="44.2939" lon="5.35519">
        <ele>624.9</ele>
        <time>2014-05-04T10:10:04Z</time>
      </trkpt>
      <trkpt lat="44.29385" lon="5.35516">
        <ele>625.5</ele>
        <time>2014-05-04T10:10:08Z</time>
      </trkpt>
      <trkpt lat="44.29381" lon="5.35513">
        <ele>626.3</ele>
        <time>2014-05-04T10:10:12Z</time>
      </trkpt>
      <trkpt lat="44.29377" lon="5.3551">
        <ele>626.9</ele>
        <time>2014-05-04T10:10:16Z</time>
      </trkpt>
      <trkpt lat="44.29372" lon="5.35508">
        <ele>627.4</ele>
        <time>2014-05-04T10:10:20Z</time>
      </trkpt>
      <trkpt lat="44.29367" lon="5.35505">
        <ele>628.1</ele>
        <time>2014-05-04T10:10:24Z</time>
      </trkpt>
      <trkpt lat="44.29363" lon="5.35502">
        <ele>629</ele>
        <time>2014-05-04T10:10:28Z</time>
      </trkpt>
      <trkpt lat="44.29358" lon="5.355">
        <ele>629.6</ele>
        <time>2014-05-04T10:10:32Z</time>
      </trkpt>
      <trkpt lat="44.29353" lon="5.35498">
        <ele>630.2</ele>
        <time>2014-05-04T10:10:36Z</time>
      </trkpt>
      <trkpt lat="44.29349" lon="5.35497">
        <ele>630.7</ele>
        <time>2014-05-04T10:10:40Z</time>
      </trkpt>
      <trkpt lat="44.29344" lon="5.35495">
        <ele>631.2</ele>
        <time>2014-05-04T10:10:44Z</time>
      </trkpt>
      <trkpt lat="44.2934" lon="5.35493">
        <ele>631.7</ele>
        <time>2014-05-04T10:10:48Z</time>
      </trkpt>
      <trkpt lat="44.2933" lon="5.35493">
        <ele>632.6</ele>
        <time>2014-05-04T10:10:56Z</time>
      </trkpt>
      <trkpt lat="44.29326" lon="5.35492">
        <ele>633</ele>
        <time>2014-05-04T10:11:00Z</time>
      </trkpt>
      <trkpt lat="44.29321" lon="5.35491">
        <ele>633.4</ele>
        <time>2014-05-04T10:11:04Z</time>
      </trkpt>
      <trkpt lat="44.29316" lon="5.35489">
        <ele>634</ele>
        <time>2014-05-04T10:11:09Z</time>
      </trkpt>
      <trkpt lat="44.29312" lon="5.35487">
        <ele>634.4</ele>
        <time>2014-05-04T10:11:13Z</time>
      </trkpt>
      <trkpt lat="44.29307" lon="5.35484">
        <ele>635</ele>
        <time>2014-05-04T10:11:18Z</time>
      </trkpt>
      <trkpt lat="44.29303" lon="5.35482">
        <ele>635.5</ele>
        <time>2014-05-04T10:11:22Z</time>
      </trkpt>
      <trkpt lat="44.29298" lon="5.3548">
        <ele>636</ele>
        <time>2014-05-04T10:11:26Z</time>
      </trkpt>
      <trkpt lat="44.29293" lon="5.35478">
        <ele>636.6</ele>
        <time>2014-05-04T10:11:30Z</time>
      </trkpt>
      <trkpt lat="44.29289" lon="5.35476">
        <ele>637.2</ele>
        <time>2014-05-04T10:11:34Z</time>
      </trkpt>
      <trkpt lat="44.29284" lon="5.35475">
        <ele>637.7</ele>
        <time>2014-05-04T10:11:38Z</time>
      </trkpt>
      <trkpt lat="44.29279" lon="5.35474">
        <ele>638.3</ele>
        <time>2014-05-04T10:11:42Z</time>
      </trkpt>
      <trkpt lat="44.29275" lon="5.35472">
        <ele>638.8</ele>
        <time>2014-05-04T10:11:46Z</time>
      </trkpt>
      <trkpt lat="44.2927" lon="5.35471">
        <ele>639.2</ele>
        <time>2014-05-04T10:11:50Z</time>
      </trkpt>
      <trkpt lat="44.29261" lon="5.3547">
        <ele>640.3</ele>
        <time>2014-05-04T10:11:58Z</time>
      </trkpt>
      <trkpt lat="44.29257" lon="5.35469">
        <ele>640.8</ele>
        <time>2014-05-04T10:12:02Z</time>
      </trkpt>
      <trkpt lat="44.29251" lon="5.3547">
        <ele>641.3</ele>
        <time>2014-05-04T10:12:07Z</time>
      </trkpt>
      <trkpt lat="44.29246" lon="5.35471">
        <ele>641.9</ele>
        <time>2014-05-04T10:12:12Z</time>
      </trkpt>
      <trkpt lat="44.29241" lon="5.35471">
        <ele>642.5</ele>
        <time>2014-05-04T10:12:16Z</time>
      </trkpt>
      <trkpt lat="44.29236" lon="5.35472">
        <ele>643.2</ele>
        <time>2014-05-04T10:12:21Z</time>
      </trkpt>
      <trkpt lat="44.29231" lon="5.35473">
        <ele>643.7</ele>
        <time>2014-05-04T10:12:25Z</time>
      </trkpt>
      <trkpt lat="44.29227" lon="5.35474">
        <ele>644.2</ele>
        <time>2014-05-04T10:12:29Z</time>
      </trkpt>
      <trkpt lat="44.29222" lon="5.35475">
        <ele>644.9</ele>
        <time>2014-05-04T10:12:33Z</time>
      </trkpt>
      <trkpt lat="44.29217" lon="5.35476">
        <ele>645.5</ele>
        <time>2014-05-04T10:12:37Z</time>
      </trkpt>
      <trkpt lat="44.29212" lon="5.35477">
        <ele>646.1</ele>
        <time>2014-05-04T10:12:41Z</time>
      </trkpt>
      <trkpt lat="44.29206" lon="5.35479">
        <ele>646.7</ele>
        <time>2014-05-04T10:12:45Z</time>
      </trkpt>
      <trkpt lat="44.29201" lon="5.35481">
        <ele>647.1</ele>
        <time>2014-05-04T10:12:49Z</time>
      </trkpt>
      <trkpt lat="44.29197" lon="5.35483">
        <ele>647.5</ele>
        <time>2014-05-04T10:12:53Z</time>
      </trkpt>
      <trkpt lat="44.29188" lon="5.35489">
        <ele>648.2</ele>
        <time>2014-05-04T10:13:01Z</time>
      </trkpt>
      <trkpt lat="44.29183" lon="5.35491">
        <ele>648.7</ele>
        <time>2014-05-04T10:13:46Z</time>
      </trkpt>
      <trkpt lat="44.29177" lon="5.35493">
        <ele>649.3</ele>
        <time>2014-05-04T10:17:16Z</time>
      </trkpt>
      <trkpt lat="44.29167" lon="5.35495">
        <ele>650.5</ele>
        <time>2014-05-04T10:17:23Z</time>
      </trkpt>
      <trkpt lat="44.29161" lon="5.35495">
        <ele>651.7</ele>
        <time>2014-05-04T10:17:27Z</time>
      </trkpt>
      <trkpt lat="44.29155" lon="5.35496">
        <ele>652.8</ele>
        <time>2014-05-04T10:17:31Z</time>
      </trkpt>
      <trkpt lat="44.2915" lon="5.35494">
        <ele>654.1</ele>
        <time>2014-05-04T10:17:35Z</time>
      </trkpt>
      <trkpt lat="44.29144" lon="5.3549">
        <ele>655.5</ele>
        <time>2014-05-04T10:17:39Z</time>
      </trkpt>
      <trkpt lat="44.29139" lon="5.35486">
        <ele>656.9</ele>
        <time>2014-05-04T10:17:43Z</time>
      </trkpt>
      <trkpt lat="44.29135" lon="5.35483">
        <ele>657.9</ele>
        <time>2014-05-04T10:17:46Z</time>
      </trkpt>
      <trkpt lat="44.29131" lon="5.35478">
        <ele>659.1</ele>
        <time>2014-05-04T10:17:50Z</time>
      </trkpt>
      <trkpt lat="44.29128" lon="5.35472">
        <ele>660.1</ele>
        <time>2014-05-04T10:17:54Z</time>
      </trkpt>
      <trkpt lat="44.29125" lon="5.35466">
        <ele>661.3</ele>
        <time>2014-05-04T10:17:58Z</time>
      </trkpt>
      <trkpt lat="44.29121" lon="5.3546">
        <ele>662.3</ele>
        <time>2014-05-04T10:18:02Z</time>
      </trkpt>
      <trkpt lat="44.29118" lon="5.35454">
        <ele>663.4</ele>
        <time>2014-05-04T10:18:06Z</time>
      </trkpt>
      <trkpt lat="44.29115" lon="5.35447">
        <ele>664.3</ele>
        <time>2014-05-04T10:18:10Z</time>
      </trkpt>
      <trkpt lat="44.29113" lon="5.3544">
        <ele>665.1</ele>
        <time>2014-05-04T10:18:14Z</time>
      </trkpt>
      <trkpt lat="44.29113" lon="5.35432">
        <ele>665.7</ele>
        <time>2014-05-04T10:18:18Z</time>
      </trkpt>
      <trkpt lat="44.29117" lon="5.35418">
        <ele>666.1</ele>
        <time>2014-05-04T10:18:26Z</time>
      </trkpt>
      <trkpt lat="44.2912" lon="5.35412">
        <ele>665.8</ele>
        <time>2014-05-04T10:18:30Z</time>
      </trkpt>
      <trkpt lat="44.29123" lon="5.35405">
        <ele>665.2</ele>
        <time>2014-05-04T10:18:34Z</time>
      </trkpt>
      <trkpt lat="44.29127" lon="5.35399">
        <ele>664.7</ele>
        <time>2014-05-04T10:18:38Z</time>
      </trkpt>
      <trkpt lat="44.29129" lon="5.35393">
        <ele>664.3</ele>
        <time>2014-05-04T10:18:41Z</time>
      </trkpt>
      <trkpt lat="44.29132" lon="5.35388">
        <ele>663.9</ele>
        <time>2014-05-04T10:18:44Z</time>
      </trkpt>
      <trkpt lat="44.29134" lon="5.35382">
        <ele>663.6</ele>
        <time>2014-05-04T10:18:47Z</time>
      </trkpt>
      <trkpt lat="44.29135" lon="5.35376">
        <ele>663.3</ele>
        <time>2014-05-04T10:18:50Z</time>
      </trkpt>
      <trkpt lat="44.29136" lon="5.35369">
        <ele>663.1</ele>
        <time>2014-05-04T10:18:53Z</time>
      </trkpt>
      <trkpt lat="44.29136" lon="5.35363">
        <ele>663.1</ele>
        <time>2014-05-04T10:18:56Z</time>
      </trkpt>
      <trkpt lat="44.29136" lon="5.35356">
        <ele>663.1</ele>
        <time>2014-05-04T10:18:59Z</time>
      </trkpt>
      <trkpt lat="44.29135" lon="5.35349">
        <ele>663.2</ele>
        <time>2014-05-04T10:19:02Z</time>
      </trkpt>
      <trkpt lat="44.29134" lon="5.35342">
        <ele>663.4</ele>
        <time>2014-05-04T10:19:05Z</time>
      </trkpt>
      <trkpt lat="44.29133" lon="5.35335">
        <ele>663.6</ele>
        <time>2014-05-04T10:19:08Z</time>
      </trkpt>
      <trkpt lat="44.29131" lon="5.35329">
        <ele>663.3</ele>
        <time>2014-05-04T10:19:11Z</time>
      </trkpt>
      <trkpt lat="44.29128" lon="5.35323">
        <ele>663.2</ele>
        <time>2014-05-04T10:19:14Z</time>
      </trkpt>
      <trkpt lat="44.29125" lon="5.35318">
        <ele>663.5</ele>
        <time>2014-05-04T10:19:17Z</time>
      </trkpt>
      <trkpt lat="44.29121" lon="5.35314">
        <ele>663.9</ele>
        <time>2014-05-04T10:19:20Z</time>
      </trkpt>
      <trkpt lat="44.29111" lon="5.3531">
        <ele>665.2</ele>
        <time>2014-05-04T10:19:26Z</time>
      </trkpt>
      <trkpt lat="44.29106" lon="5.3531">
        <ele>666</ele>
        <time>2014-05-04T10:19:29Z</time>
      </trkpt>
      <trkpt lat="44.291" lon="5.3531">
        <ele>667</ele>
        <time>2014-05-04T10:19:32Z</time>
      </trkpt>
      <trkpt lat="44.29095" lon="5.3531">
        <ele>668.2</ele>
        <time>2014-05-04T10:19:35Z</time>
      </trkpt>
      <trkpt lat="44.29089" lon="5.35311">
        <ele>669.2</ele>
        <time>2014-05-04T10:19:38Z</time>
      </trkpt>
      <trkpt lat="44.29084" lon="5.35312">
        <ele>670.3</ele>
        <time>2014-05-04T10:19:41Z</time>
      </trkpt>
      <trkpt lat="44.29079" lon="5.35314">
        <ele>671.4</ele>
        <time>2014-05-04T10:19:44Z</time>
      </trkpt>
      <trkpt lat="44.29074" lon="5.35315">
        <ele>672.5</ele>
        <time>2014-05-04T10:19:47Z</time>
      </trkpt>
      <trkpt lat="44.29069" lon="5.35316">
        <ele>673.6</ele>
        <time>2014-05-04T10:19:50Z</time>
      </trkpt>
      <trkpt lat="44.29064" lon="5.35319">
        <ele>674.8</ele>
        <time>2014-05-04T10:19:53Z</time>
      </trkpt>
      <trkpt lat="44.2906" lon="5.35321">
        <ele>675.8</ele>
        <time>2014-05-04T10:19:56Z</time>
      </trkpt>
      <trkpt lat="44.29055" lon="5.35326">
        <ele>677.4</ele>
        <time>2014-05-04T10:20:00Z</time>
      </trkpt>
      <trkpt lat="44.29052" lon="5.35331">
        <ele>678.7</ele>
        <time>2014-05-04T10:20:03Z</time>
      </trkpt>
      <trkpt lat="44.29049" lon="5.35336">
        <ele>679.5</ele>
        <time>2014-05-04T10:20:06Z</time>
      </trkpt>
      <trkpt lat="44.29046" lon="5.35342">
        <ele>679.8</ele>
        <time>2014-05-04T10:20:09Z</time>
      </trkpt>
      <trkpt lat="44.29043" lon="5.35348">
        <ele>680.2</ele>
        <time>2014-05-04T10:20:12Z</time>
      </trkpt>
      <trkpt lat="44.2904" lon="5.35354">
        <ele>680.5</ele>
        <time>2014-05-04T10:20:15Z</time>
      </trkpt>
      <trkpt lat="44.29037" lon="5.35361">
        <ele>680.8</ele>
        <time>2014-05-04T10:20:18Z</time>
      </trkpt>
      <trkpt lat="44.29035" lon="5.35368">
        <ele>681</ele>
        <time>2014-05-04T10:20:21Z</time>
      </trkpt>
      <trkpt lat="44.29031" lon="5.35381">
        <ele>681.2</ele>
        <time>2014-05-04T10:20:27Z</time>
      </trkpt>
      <trkpt lat="44.29029" lon="5.35389">
        <ele>681.2</ele>
        <time>2014-05-04T10:20:30Z</time>
      </trkpt>
      <trkpt lat="44.29028" lon="5.35396">
        <ele>681.1</ele>
        <time>2014-05-04T10:20:33Z</time>
      </trkpt>
      <trkpt lat="44.29027" lon="5.35403">
        <ele>681</ele>
        <time>2014-05-04T10:20:36Z</time>
      </trkpt>
      <trkpt lat="44.29026" lon="5.35411">
        <ele>680.8</ele>
        <time>2014-05-04T10:20:39Z</time>
      </trkpt>
      <trkpt lat="44.29025" lon="5.35418">
        <ele>680.7</ele>
        <time>2014-05-04T10:20:42Z</time>
      </trkpt>
      <trkpt lat="44.29023" lon="5.35425">
        <ele>680.3</ele>
        <time>2014-05-04T10:20:45Z</time>
      </trkpt>
      <trkpt lat="44.29021" lon="5.35431">
        <ele>680.2</ele>
        <time>2014-05-04T10:20:48Z</time>
      </trkpt>
      <trkpt lat="44.29017" lon="5.35436">
        <ele>680</ele>
        <time>2014-05-04T10:20:51Z</time>
      </trkpt>
      <trkpt lat="44.29014" lon="5.3544">
        <ele>680.1</ele>
        <time>2014-05-04T10:20:54Z</time>
      </trkpt>
      <trkpt lat="44.2901" lon="5.35443">
        <ele>680.5</ele>
        <time>2014-05-04T10:20:57Z</time>
      </trkpt>
      <trkpt lat="44.29005" lon="5.35446">
        <ele>680.9</ele>
        <time>2014-05-04T10:21:00Z</time>
      </trkpt>
      <trkpt lat="44.29" lon="5.35448">
        <ele>681.3</ele>
        <time>2014-05-04T10:21:03Z</time>
      </trkpt>
      <trkpt lat="44.28995" lon="5.35451">
        <ele>682.3</ele>
        <time>2014-05-04T10:21:06Z</time>
      </trkpt>
      <trkpt lat="44.2899" lon="5.35455">
        <ele>683</ele>
        <time>2014-05-04T10:21:09Z</time>
      </trkpt>
      <trkpt lat="44.28985" lon="5.35458">
        <ele>683.8</ele>
        <time>2014-05-04T10:21:12Z</time>
      </trkpt>
      <trkpt lat="44.2898" lon="5.35462">
        <ele>684.4</ele>
        <time>2014-05-04T10:21:15Z</time>
      </trkpt>
      <trkpt lat="44.28977" lon="5.35467">
        <ele>684.7</ele>
        <time>2014-05-04T10:21:18Z</time>
      </trkpt>
      <trkpt lat="44.28973" lon="5.35473">
        <ele>684.8</ele>
        <time>2014-05-04T10:21:21Z</time>
      </trkpt>
      <trkpt lat="44.28971" lon="5.3548">
        <ele>684.6</ele>
        <time>2014-05-04T10:21:24Z</time>
      </trkpt>
      <trkpt lat="44.28966" lon="5.35492">
        <ele>684.5</ele>
        <time>2014-05-04T10:21:30Z</time>
      </trkpt>
      <trkpt lat="44.28962" lon="5.35497">
        <ele>684.9</ele>
        <time>2014-05-04T10:21:34Z</time>
      </trkpt>
      <trkpt lat="44.28957" lon="5.35501">
        <ele>685.8</ele>
        <time>2014-05-04T10:21:38Z</time>
      </trkpt>
      <trkpt lat="44.28952" lon="5.35502">
        <ele>687</ele>
        <time>2014-05-04T10:21:41Z</time>
      </trkpt>
      <trkpt lat="44.28947" lon="5.35503">
        <ele>688.1</ele>
        <time>2014-05-04T10:21:44Z</time>
      </trkpt>
      <trkpt lat="44.28943" lon="5.35504">
        <ele>689.1</ele>
        <time>2014-05-04T10:21:47Z</time>
      </trkpt>
      <trkpt lat="44.28938" lon="5.35506">
        <ele>690.2</ele>
        <time>2014-05-04T10:21:50Z</time>
      </trkpt>
      <trkpt lat="44.28933" lon="5.35507">
        <ele>691.3</ele>
        <time>2014-05-04T10:21:53Z</time>
      </trkpt>
      <trkpt lat="44.28928" lon="5.3551">
        <ele>692.3</ele>
        <time>2014-05-04T10:21:56Z</time>
      </trkpt>
      <trkpt lat="44.28924" lon="5.35513">
        <ele>693</ele>
        <time>2014-05-04T10:21:59Z</time>
      </trkpt>
      <trkpt lat="44.2892" lon="5.35518">
        <ele>693.5</ele>
        <time>2014-05-04T10:22:02Z</time>
      </trkpt>
      <trkpt lat="44.28916" lon="5.35524">
        <ele>693.8</ele>
        <time>2014-05-04T10:22:06Z</time>
      </trkpt>
      <trkpt lat="44.28913" lon="5.35529">
        <ele>694.1</ele>
        <time>2014-05-04T10:22:09Z</time>
      </trkpt>
      <trkpt lat="44.28909" lon="5.35535">
        <ele>694.5</ele>
        <time>2014-05-04T10:22:12Z</time>
      </trkpt>
      <trkpt lat="44.28906" lon="5.35541">
        <ele>694.6</ele>
        <time>2014-05-04T10:22:15Z</time>
      </trkpt>
      <trkpt lat="44.28903" lon="5.35547">
        <ele>694.7</ele>
        <time>2014-05-04T10:22:18Z</time>
      </trkpt>
      <trkpt lat="44.28902" lon="5.35554">
        <ele>694.4</ele>
        <time>2014-05-04T10:22:21Z</time>
      </trkpt>
      <trkpt lat="44.28901" lon="5.35561">
        <ele>694.1</ele>
        <time>2014-05-04T10:22:24Z</time>
      </trkpt>
      <trkpt lat="44.28899" lon="5.35567">
        <ele>693.8</ele>
        <time>2014-05-04T10:22:27Z</time>
      </trkpt>
      <trkpt lat="44.28895" lon="5.35579">
        <ele>693.9</ele>
        <time>2014-05-04T10:22:33Z</time>
      </trkpt>
      <trkpt lat="44.28891" lon="5.35584">
        <ele>694.4</ele>
        <time>2014-05-04T10:22:36Z</time>
      </trkpt>
      <trkpt lat="44.28887" lon="5.35589">
        <ele>695</ele>
        <time>2014-05-04T10:22:39Z</time>
      </trkpt>
      <trkpt lat="44.28884" lon="5.35594">
        <ele>695.6</ele>
        <time>2014-05-04T10:22:42Z</time>
      </trkpt>
      <trkpt lat="44.2888" lon="5.356">
        <ele>695.9</ele>
        <time>2014-05-04T10:22:45Z</time>
      </trkpt>
      <trkpt lat="44.28878" lon="5.35606">
        <ele>696</ele>
        <time>2014-05-04T10:22:48Z</time>
      </trkpt>
      <trkpt lat="44.28875" lon="5.35612">
        <ele>696.2</ele>
        <time>2014-05-04T10:22:51Z</time>
      </trkpt>
      <trkpt lat="44.28873" lon="5.35618">
        <ele>696.3</ele>
        <time>2014-05-04T10:22:54Z</time>
      </trkpt>
      <trkpt lat="44.28871" lon="5.35624">
        <ele>696.4</ele>
        <time>2014-05-04T10:22:57Z</time>
      </trkpt>
      <trkpt lat="44.28869" lon="5.3563">
        <ele>696.4</ele>
        <time>2014-05-04T10:23:00Z</time>
      </trkpt>
      <trkpt lat="44.28867" lon="5.35636">
        <ele>696.5</ele>
        <time>2014-05-04T10:23:03Z</time>
      </trkpt>
      <trkpt lat="44.28864" lon="5.35642">
        <ele>696.8</ele>
        <time>2014-05-04T10:23:06Z</time>
      </trkpt>
      <trkpt lat="44.2886" lon="5.35646">
        <ele>697.2</ele>
        <time>2014-05-04T10:23:09Z</time>
      </trkpt>
      <trkpt lat="44.28856" lon="5.35649">
        <ele>698.1</ele>
        <time>2014-05-04T10:23:12Z</time>
      </trkpt>
      <trkpt lat="44.28851" lon="5.35651">
        <ele>699.2</ele>
        <time>2014-05-04T10:23:15Z</time>
      </trkpt>
      <trkpt lat="44.28846" lon="5.35652">
        <ele>700.2</ele>
        <time>2014-05-04T10:23:18Z</time>
      </trkpt>
      <trkpt lat="44.28841" lon="5.35654">
        <ele>701.2</ele>
        <time>2014-05-04T10:23:21Z</time>
      </trkpt>
      <trkpt lat="44.28837" lon="5.35657">
        <ele>702</ele>
        <time>2014-05-04T10:23:24Z</time>
      </trkpt>
      <trkpt lat="44.28833" lon="5.35662">
        <ele>702.5</ele>
        <time>2014-05-04T10:23:28Z</time>
      </trkpt>
      <trkpt lat="44.28829" lon="5.35677">
        <ele>703</ele>
        <time>2014-05-04T10:23:36Z</time>
      </trkpt>
      <trkpt lat="44.28828" lon="5.35683">
        <ele>703.2</ele>
        <time>2014-05-04T10:23:39Z</time>
      </trkpt>
      <trkpt lat="44.28826" lon="5.3569">
        <ele>703.3</ele>
        <time>2014-05-04T10:23:42Z</time>
      </trkpt>
      <trkpt lat="44.28825" lon="5.35696">
        <ele>703.6</ele>
        <time>2014-05-04T10:23:45Z</time>
      </trkpt>
      <trkpt lat="44.28824" lon="5.35703">
        <ele>703.5</ele>
        <time>2014-05-04T10:23:48Z</time>
      </trkpt>
      <trkpt lat="44.28823" lon="5.3571">
        <ele>703.3</ele>
        <time>2014-05-04T10:23:51Z</time>
      </trkpt>
      <trkpt lat="44.28823" lon="5.35718">
        <ele>702.9</ele>
        <time>2014-05-04T10:23:54Z</time>
      </trkpt>
      <trkpt lat="44.28824" lon="5.35725">
        <ele>702.5</ele>
        <time>2014-05-04T10:23:57Z</time>
      </trkpt>
      <trkpt lat="44.28824" lon="5.35732">
        <ele>702.2</ele>
        <time>2014-05-04T10:24:00Z</time>
      </trkpt>
      <trkpt lat="44.28824" lon="5.35739">
        <ele>701.9</ele>
        <time>2014-05-04T10:24:03Z</time>
      </trkpt>
      <trkpt lat="44.28823" lon="5.35746">
        <ele>701.8</ele>
        <time>2014-05-04T10:24:06Z</time>
      </trkpt>
      <trkpt lat="44.28822" lon="5.35754">
        <ele>701.9</ele>
        <time>2014-05-04T10:24:09Z</time>
      </trkpt>
      <trkpt lat="44.2882" lon="5.3576">
        <ele>702.2</ele>
        <time>2014-05-04T10:24:12Z</time>
      </trkpt>
      <trkpt lat="44.28817" lon="5.35766">
        <ele>702.8</ele>
        <time>2014-05-04T10:24:15Z</time>
      </trkpt>
      <trkpt lat="44.28814" lon="5.35771">
        <ele>703.5</ele>
        <time>2014-05-04T10:24:18Z</time>
      </trkpt>
      <trkpt lat="44.2881" lon="5.35777">
        <ele>704.7</ele>
        <time>2014-05-04T10:24:22Z</time>
      </trkpt>
      <trkpt lat="44.28806" lon="5.35782">
        <ele>705.8</ele>
        <time>2014-05-04T10:24:26Z</time>
      </trkpt>
      <trkpt lat="44.28802" lon="5.35786">
        <ele>706.9</ele>
        <time>2014-05-04T10:24:29Z</time>
      </trkpt>
      <trkpt lat="44.28796" lon="5.35798">
        <ele>708.3</ele>
        <time>2014-05-04T10:24:37Z</time>
      </trkpt>
      <trkpt lat="44.28794" lon="5.35805">
        <ele>708.5</ele>
        <time>2014-05-04T10:24:41Z</time>
      </trkpt>
      <trkpt lat="44.28792" lon="5.35812">
        <ele>708.8</ele>
        <time>2014-05-04T10:24:45Z</time>
      </trkpt>
      <trkpt lat="44.28791" lon="5.3582">
        <ele>708.8</ele>
        <time>2014-05-04T10:24:49Z</time>
      </trkpt>
      <trkpt lat="44.28789" lon="5.35827">
        <ele>709</ele>
        <time>2014-05-04T10:24:53Z</time>
      </trkpt>
      <trkpt lat="44.28786" lon="5.35833">
        <ele>709.5</ele>
        <time>2014-05-04T10:24:57Z</time>
      </trkpt>
      <trkpt lat="44.28783" lon="5.3584">
        <ele>710.4</ele>
        <time>2014-05-04T10:25:01Z</time>
      </trkpt>
      <trkpt lat="44.2878" lon="5.35846">
        <ele>711</ele>
        <time>2014-05-04T10:25:05Z</time>
      </trkpt>
      <trkpt lat="44.28776" lon="5.35852">
        <ele>711.7</ele>
        <time>2014-05-04T10:25:09Z</time>
      </trkpt>
      <trkpt lat="44.28773" lon="5.35858">
        <ele>712.5</ele>
        <time>2014-05-04T10:25:13Z</time>
      </trkpt>
      <trkpt lat="44.2877" lon="5.35864">
        <ele>713</ele>
        <time>2014-05-04T10:25:17Z</time>
      </trkpt>
      <trkpt lat="44.28766" lon="5.35869">
        <ele>713.7</ele>
        <time>2014-05-04T10:25:21Z</time>
      </trkpt>
      <trkpt lat="44.28762" lon="5.35872">
        <ele>714.9</ele>
        <time>2014-05-04T10:25:25Z</time>
      </trkpt>
      <trkpt lat="44.28757" lon="5.35871">
        <ele>716.5</ele>
        <time>2014-05-04T10:25:29Z</time>
      </trkpt>
      <trkpt lat="44.28753" lon="5.35865">
        <ele>717.9</ele>
        <time>2014-05-04T10:25:34Z</time>
      </trkpt>
      <trkpt lat="44.28756" lon="5.35851">
        <ele>718.3</ele>
        <time>2014-05-04T10:25:44Z</time>
      </trkpt>
      <trkpt lat="44.28759" lon="5.35845">
        <ele>718.1</ele>
        <time>2014-05-04T10:25:48Z</time>
      </trkpt>
      <trkpt lat="44.2876" lon="5.35839">
        <ele>718.2</ele>
        <time>2014-05-04T10:25:52Z</time>
      </trkpt>
      <trkpt lat="44.2876" lon="5.35832">
        <ele>718.5</ele>
        <time>2014-05-04T10:25:56Z</time>
      </trkpt>
      <trkpt lat="44.2876" lon="5.35824">
        <ele>719</ele>
        <time>2014-05-04T10:26:00Z</time>
      </trkpt>
      <trkpt lat="44.28759" lon="5.35817">
        <ele>720</ele>
        <time>2014-05-04T10:26:04Z</time>
      </trkpt>
      <trkpt lat="44.28759" lon="5.35809">
        <ele>720.6</ele>
        <time>2014-05-04T10:26:08Z</time>
      </trkpt>
      <trkpt lat="44.28758" lon="5.35801">
        <ele>721.4</ele>
        <time>2014-05-04T10:26:12Z</time>
      </trkpt>
      <trkpt lat="44.28757" lon="5.35794">
        <ele>722.3</ele>
        <time>2014-05-04T10:26:16Z</time>
      </trkpt>
      <trkpt lat="44.28756" lon="5.35787">
        <ele>723.2</ele>
        <time>2014-05-04T10:26:20Z</time>
      </trkpt>
      <trkpt lat="44.28755" lon="5.35781">
        <ele>724.1</ele>
        <time>2014-05-04T10:26:23Z</time>
      </trkpt>
      <trkpt lat="44.28754" lon="5.35774">
        <ele>724.8</ele>
        <time>2014-05-04T10:26:26Z</time>
      </trkpt>
      <trkpt lat="44.28754" lon="5.35768">
        <ele>725.4</ele>
        <time>2014-05-04T10:26:29Z</time>
      </trkpt>
      <trkpt lat="44.28755" lon="5.3576">
        <ele>725.6</ele>
        <time>2014-05-04T10:26:33Z</time>
      </trkpt>
      <trkpt lat="44.28756" lon="5.35751">
        <ele>725.7</ele>
        <time>2014-05-04T10:26:37Z</time>
      </trkpt>
      <trkpt lat="44.28756" lon="5.35738">
        <ele>726.1</ele>
        <time>2014-05-04T10:26:43Z</time>
      </trkpt>
      <trkpt lat="44.28757" lon="5.35731">
        <ele>725.9</ele>
        <time>2014-05-04T10:26:46Z</time>
      </trkpt>
      <trkpt lat="44.28757" lon="5.35725">
        <ele>725.7</ele>
        <time>2014-05-04T10:26:49Z</time>
      </trkpt>
      <trkpt lat="44.28758" lon="5.35718">
        <ele>725.5</ele>
        <time>2014-05-04T10:26:52Z</time>
      </trkpt>
      <trkpt lat="44.2876" lon="5.35712">
        <ele>725.2</ele>
        <time>2014-05-04T10:26:55Z</time>
      </trkpt>
      <trkpt lat="44.28761" lon="5.35705">
        <ele>724.9</ele>
        <time>2014-05-04T10:26:58Z</time>
      </trkpt>
      <trkpt lat="44.28761" lon="5.35699">
        <ele>724.9</ele>
        <time>2014-05-04T10:27:01Z</time>
      </trkpt>
      <trkpt lat="44.28761" lon="5.35692">
        <ele>725.1</ele>
        <time>2014-05-04T10:27:04Z</time>
      </trkpt>
      <trkpt lat="44.2876" lon="5.35685">
        <ele>725.3</ele>
        <time>2014-05-04T10:27:07Z</time>
      </trkpt>
      <trkpt lat="44.28759" lon="5.35676">
        <ele>725.8</ele>
        <time>2014-05-04T10:27:11Z</time>
      </trkpt>
      <trkpt lat="44.28758" lon="5.35669">
        <ele>726.4</ele>
        <time>2014-05-04T10:27:15Z</time>
      </trkpt>
      <trkpt lat="44.28757" lon="5.35662">
        <ele>727.3</ele>
        <time>2014-05-04T10:27:18Z</time>
      </trkpt>
      <trkpt lat="44.28755" lon="5.35656">
        <ele>728.3</ele>
        <time>2014-05-04T10:27:21Z</time>
      </trkpt>
      <trkpt lat="44.28754" lon="5.35648">
        <ele>729.4</ele>
        <time>2014-05-04T10:27:24Z</time>
      </trkpt>
      <trkpt lat="44.28751" lon="5.35642">
        <ele>730.8</ele>
        <time>2014-05-04T10:27:27Z</time>
      </trkpt>
      <trkpt lat="44.28749" lon="5.35634">
        <ele>732.1</ele>
        <time>2014-05-04T10:27:30Z</time>
      </trkpt>
      <trkpt lat="44.28747" lon="5.35627">
        <ele>733.3</ele>
        <time>2014-05-04T10:27:33Z</time>
      </trkpt>
      <trkpt lat="44.28745" lon="5.3562">
        <ele>734.7</ele>
        <time>2014-05-04T10:27:37Z</time>
      </trkpt>
      <trkpt lat="44.28741" lon="5.35616">
        <ele>736.1</ele>
        <time>2014-05-04T10:27:40Z</time>
      </trkpt>
      <trkpt lat="44.28732" lon="5.35608">
        <ele>739.2</ele>
        <time>2014-05-04T10:27:47Z</time>
      </trkpt>
      <trkpt lat="44.28729" lon="5.35604">
        <ele>740.4</ele>
        <time>2014-05-04T10:27:50Z</time>
      </trkpt>
      <trkpt lat="44.28723" lon="5.356">
        <ele>742.1</ele>
        <time>2014-05-04T10:27:54Z</time>
      </trkpt>
      <trkpt lat="44.28719" lon="5.35596">
        <ele>743.5</ele>
        <time>2014-05-04T10:27:58Z</time>
      </trkpt>
      <trkpt lat="44.28714" lon="5.35591">
        <ele>744.9</ele>
        <time>2014-05-04T10:28:02Z</time>
      </trkpt>
      <trkpt lat="44.2871" lon="5.35587">
        <ele>746.1</ele>
        <time>2014-05-04T10:28:06Z</time>
      </trkpt>
      <trkpt lat="44.28705" lon="5.35581">
        <ele>747.2</ele>
        <time>2014-05-04T10:28:10Z</time>
      </trkpt>
      <trkpt lat="44.28701" lon="5.35577">
        <ele>748</ele>
        <time>2014-05-04T10:28:14Z</time>
      </trkpt>
      <trkpt lat="44.28697" lon="5.35572">
        <ele>748.8</ele>
        <time>2014-05-04T10:28:18Z</time>
      </trkpt>
      <trkpt lat="44.28694" lon="5.35566">
        <ele>749.4</ele>
        <time>2014-05-04T10:28:22Z</time>
      </trkpt>
      <trkpt lat="44.28691" lon="5.35559">
        <ele>750</ele>
        <time>2014-05-04T10:28:26Z</time>
      </trkpt>
      <trkpt lat="44.28687" lon="5.35553">
        <ele>750.3</ele>
        <time>2014-05-04T10:28:30Z</time>
      </trkpt>
      <trkpt lat="44.28684" lon="5.35547">
        <ele>750.8</ele>
        <time>2014-05-04T10:28:34Z</time>
      </trkpt>
      <trkpt lat="44.2868" lon="5.35546">
        <ele>751.8</ele>
        <time>2014-05-04T10:28:38Z</time>
      </trkpt>
      <trkpt lat="44.28675" lon="5.35549">
        <ele>753</ele>
        <time>2014-05-04T10:28:43Z</time>
      </trkpt>
      <trkpt lat="44.28675" lon="5.35565">
        <ele>753.8</ele>
        <time>2014-05-04T10:28:51Z</time>
      </trkpt>
      <trkpt lat="44.28678" lon="5.3557">
        <ele>753.5</ele>
        <time>2014-05-04T10:28:54Z</time>
      </trkpt>
      <trkpt lat="44.2868" lon="5.35577">
        <ele>753.2</ele>
        <time>2014-05-04T10:28:58Z</time>
      </trkpt>
      <trkpt lat="44.28682" lon="5.35584">
        <ele>753.1</ele>
        <time>2014-05-04T10:29:02Z</time>
      </trkpt>
      <trkpt lat="44.28684" lon="5.35591">
        <ele>752.8</ele>
        <time>2014-05-04T10:29:06Z</time>
      </trkpt>
      <trkpt lat="44.28685" lon="5.35597">
        <ele>752.7</ele>
        <time>2014-05-04T10:29:10Z</time>
      </trkpt>
      <trkpt lat="44.28686" lon="5.35603">
        <ele>752.7</ele>
        <time>2014-05-04T10:29:13Z</time>
      </trkpt>
      <trkpt lat="44.28688" lon="5.35611">
        <ele>752.3</ele>
        <time>2014-05-04T10:29:17Z</time>
      </trkpt>
      <trkpt lat="44.28691" lon="5.35617">
        <ele>751.5</ele>
        <time>2014-05-04T10:29:21Z</time>
      </trkpt>
      <trkpt lat="44.28693" lon="5.35623">
        <ele>750.8</ele>
        <time>2014-05-04T10:29:25Z</time>
      </trkpt>
      <trkpt lat="44.28695" lon="5.3563">
        <ele>750.3</ele>
        <time>2014-05-04T10:29:29Z</time>
      </trkpt>
      <trkpt lat="44.28696" lon="5.35637">
        <ele>750</ele>
        <time>2014-05-04T10:29:33Z</time>
      </trkpt>
      <trkpt lat="44.28696" lon="5.35645">
        <ele>750.1</ele>
        <time>2014-05-04T10:29:37Z</time>
      </trkpt>
      <trkpt lat="44.28695" lon="5.35652">
        <ele>750.6</ele>
        <time>2014-05-04T10:29:40Z</time>
      </trkpt>
      <trkpt lat="44.28693" lon="5.35658">
        <ele>751.6</ele>
        <time>2014-05-04T10:29:43Z</time>
      </trkpt>
      <trkpt lat="44.2869" lon="5.35664">
        <ele>752.5</ele>
        <time>2014-05-04T10:29:46Z</time>
      </trkpt>
      <trkpt lat="44.28686" lon="5.35675">
        <ele>754</ele>
        <time>2014-05-04T10:29:52Z</time>
      </trkpt>
      <trkpt lat="44.28683" lon="5.35681">
        <ele>755.1</ele>
        <time>2014-05-04T10:29:56Z</time>
      </trkpt>
      <trkpt lat="44.28679" lon="5.35684">
        <ele>756.6</ele>
        <time>2014-05-04T10:30:00Z</time>
      </trkpt>
      <trkpt lat="44.28674" lon="5.3568">
        <ele>758.5</ele>
        <time>2014-05-04T10:30:05Z</time>
      </trkpt>
      <trkpt lat="44.28673" lon="5.35673">
        <ele>759.4</ele>
        <time>2014-05-04T10:30:09Z</time>
      </trkpt>
      <trkpt lat="44.28672" lon="5.35666">
        <ele>759.6</ele>
        <time>2014-05-04T10:30:12Z</time>
      </trkpt>
      <trkpt lat="44.2867" lon="5.35659">
        <ele>760.2</ele>
        <time>2014-05-04T10:30:16Z</time>
      </trkpt>
      <trkpt lat="44.28666" lon="5.35654">
        <ele>761.4</ele>
        <time>2014-05-04T10:30:21Z</time>
      </trkpt>
      <trkpt lat="44.28663" lon="5.35648">
        <ele>761.9</ele>
        <time>2014-05-04T10:30:25Z</time>
      </trkpt>
      <trkpt lat="44.2866" lon="5.35641">
        <ele>762.4</ele>
        <time>2014-05-04T10:30:29Z</time>
      </trkpt>
      <trkpt lat="44.28658" lon="5.35634">
        <ele>762.8</ele>
        <time>2014-05-04T10:30:33Z</time>
      </trkpt>
      <trkpt lat="44.28655" lon="5.35628">
        <ele>763.1</ele>
        <time>2014-05-04T10:30:37Z</time>
      </trkpt>
      <trkpt lat="44.28653" lon="5.3562">
        <ele>763.3</ele>
        <time>2014-05-04T10:30:41Z</time>
      </trkpt>
      <trkpt lat="44.28651" lon="5.35614">
        <ele>763.6</ele>
        <time>2014-05-04T10:30:45Z</time>
      </trkpt>
      <trkpt lat="44.28648" lon="5.35608">
        <ele>764.2</ele>
        <time>2014-05-04T10:30:49Z</time>
      </trkpt>
      <trkpt lat="44.28638" lon="5.35603">
        <ele>766.8</ele>
        <time>2014-05-04T10:30:57Z</time>
      </trkpt>
      <trkpt lat="44.28633" lon="5.35607">
        <ele>768.4</ele>
        <time>2014-05-04T10:31:01Z</time>
      </trkpt>
      <trkpt lat="44.28631" lon="5.35614">
        <ele>769.5</ele>
        <time>2014-05-04T10:31:05Z</time>
      </trkpt>
      <trkpt lat="44.28629" lon="5.35621">
        <ele>770.5</ele>
        <time>2014-05-04T10:31:09Z</time>
      </trkpt>
      <trkpt lat="44.28627" lon="5.35628">
        <ele>771.7</ele>
        <time>2014-05-04T10:31:13Z</time>
      </trkpt>
      <trkpt lat="44.28623" lon="5.35634">
        <ele>773</ele>
        <time>2014-05-04T10:31:18Z</time>
      </trkpt>
      <trkpt lat="44.2862" lon="5.3564">
        <ele>774.3</ele>
        <time>2014-05-04T10:31:22Z</time>
      </trkpt>
      <trkpt lat="44.28617" lon="5.35646">
        <ele>775.6</ele>
        <time>2014-05-04T10:31:26Z</time>
      </trkpt>
      <trkpt lat="44.28614" lon="5.3565">
        <ele>776.7</ele>
        <time>2014-05-04T10:31:30Z</time>
      </trkpt>
      <trkpt lat="44.2861" lon="5.35655">
        <ele>778.2</ele>
        <time>2014-05-04T10:31:34Z</time>
      </trkpt>
      <trkpt lat="44.28606" lon="5.3566">
        <ele>779.6</ele>
        <time>2014-05-04T10:31:38Z</time>
      </trkpt>
      <trkpt lat="44.28602" lon="5.35665">
        <ele>781.3</ele>
        <time>2014-05-04T10:31:42Z</time>
      </trkpt>
      <trkpt lat="44.28598" lon="5.35669">
        <ele>782.6</ele>
        <time>2014-05-04T10:31:45Z</time>
      </trkpt>
      <trkpt lat="44.28593" lon="5.35672">
        <ele>784</ele>
        <time>2014-05-04T10:31:49Z</time>
      </trkpt>
      <trkpt lat="44.28589" lon="5.35676">
        <ele>785</ele>
        <time>2014-05-04T10:31:53Z</time>
      </trkpt>
      <trkpt lat="44.2858" lon="5.35685">
        <ele>787</ele>
        <time>2014-05-04T10:32:01Z</time>
      </trkpt>
      <trkpt lat="44.28575" lon="5.35688">
        <ele>787.8</ele>
        <time>2014-05-04T10:32:05Z</time>
      </trkpt>
      <trkpt lat="44.2857" lon="5.35692">
        <ele>788.6</ele>
        <time>2014-05-04T10:32:09Z</time>
      </trkpt>
      <trkpt lat="44.28564" lon="5.35695">
        <ele>789.6</ele>
        <time>2014-05-04T10:32:13Z</time>
      </trkpt>
      <trkpt lat="44.2856" lon="5.35697">
        <ele>790.2</ele>
        <time>2014-05-04T10:32:16Z</time>
      </trkpt>
      <trkpt lat="44.28555" lon="5.35699">
        <ele>791.1</ele>
        <time>2014-05-04T10:32:20Z</time>
      </trkpt>
      <trkpt lat="44.2855" lon="5.35701">
        <ele>791.9</ele>
        <time>2014-05-04T10:32:24Z</time>
      </trkpt>
      <trkpt lat="44.28544" lon="5.35701">
        <ele>793</ele>
        <time>2014-05-04T10:32:28Z</time>
      </trkpt>
      <trkpt lat="44.28539" lon="5.35701">
        <ele>793.8</ele>
        <time>2014-05-04T10:32:32Z</time>
      </trkpt>
      <trkpt lat="44.28535" lon="5.35698">
        <ele>794.8</ele>
        <time>2014-05-04T10:32:36Z</time>
      </trkpt>
      <trkpt lat="44.28532" lon="5.35691">
        <ele>795.7</ele>
        <time>2014-05-04T10:32:41Z</time>
      </trkpt>
      <trkpt lat="44.28531" lon="5.35684">
        <ele>796.1</ele>
        <time>2014-05-04T10:36:52Z</time>
      </trkpt>
      <trkpt lat="44.28529" lon="5.3567">
        <ele>797.2</ele>
        <time>2014-05-04T10:37:00Z</time>
      </trkpt>
      <trkpt lat="44.28528" lon="5.35663">
        <ele>797.5</ele>
        <time>2014-05-04T10:37:04Z</time>
      </trkpt>
      <trkpt lat="44.28524" lon="5.35657">
        <ele>798.1</ele>
        <time>2014-05-04T10:37:08Z</time>
      </trkpt>
      <trkpt lat="44.2852" lon="5.35653">
        <ele>798.8</ele>
        <time>2014-05-04T10:37:11Z</time>
      </trkpt>
      <trkpt lat="44.28515" lon="5.35652">
        <ele>799.6</ele>
        <time>2014-05-04T10:37:14Z</time>
      </trkpt>
      <trkpt lat="44.28511" lon="5.3565">
        <ele>800.4</ele>
        <time>2014-05-04T10:37:17Z</time>
      </trkpt>
      <trkpt lat="44.28505" lon="5.35649">
        <ele>801.5</ele>
        <time>2014-05-04T10:37:21Z</time>
      </trkpt>
      <trkpt lat="44.28499" lon="5.35647">
        <ele>802.6</ele>
        <time>2014-05-04T10:37:25Z</time>
      </trkpt>
      <trkpt lat="44.28494" lon="5.35646">
        <ele>803.3</ele>
        <time>2014-05-04T10:37:29Z</time>
      </trkpt>
      <trkpt lat="44.28489" lon="5.35646">
        <ele>804</ele>
        <time>2014-05-04T10:37:33Z</time>
      </trkpt>
      <trkpt lat="44.28484" lon="5.35645">
        <ele>804.6</ele>
        <time>2014-05-04T10:37:37Z</time>
      </trkpt>
      <trkpt lat="44.28479" lon="5.35645">
        <ele>805.3</ele>
        <time>2014-05-04T10:37:41Z</time>
      </trkpt>
      <trkpt lat="44.28474" lon="5.35645">
        <ele>805.9</ele>
        <time>2014-05-04T10:37:45Z</time>
      </trkpt>
      <trkpt lat="44.28469" lon="5.35646">
        <ele>806.6</ele>
        <time>2014-05-04T10:37:49Z</time>
      </trkpt>
      <trkpt lat="44.28465" lon="5.35649">
        <ele>807.3</ele>
        <time>2014-05-04T10:37:53Z</time>
      </trkpt>
      <trkpt lat="44.28459" lon="5.3566">
        <ele>808.3</ele>
        <time>2014-05-04T10:38:01Z</time>
      </trkpt>
      <trkpt lat="44.28455" lon="5.35664">
        <ele>808.9</ele>
        <time>2014-05-04T10:38:05Z</time>
      </trkpt>
      <trkpt lat="44.2845" lon="5.35669">
        <ele>809.5</ele>
        <time>2014-05-04T10:38:09Z</time>
      </trkpt>
      <trkpt lat="44.28446" lon="5.35675">
        <ele>809.8</ele>
        <time>2014-05-04T10:38:13Z</time>
      </trkpt>
      <trkpt lat="44.28442" lon="5.35682">
        <ele>810.1</ele>
        <time>2014-05-04T10:38:17Z</time>
      </trkpt>
      <trkpt lat="44.28439" lon="5.35687">
        <ele>810.3</ele>
        <time>2014-05-04T10:38:20Z</time>
      </trkpt>
      <trkpt lat="44.28436" lon="5.35692">
        <ele>810.6</ele>
        <time>2014-05-04T10:38:23Z</time>
      </trkpt>
      <trkpt lat="44.28433" lon="5.35697">
        <ele>811</ele>
        <time>2014-05-04T10:38:26Z</time>
      </trkpt>
      <trkpt lat="44.28429" lon="5.35703">
        <ele>811.3</ele>
        <time>2014-05-04T10:38:29Z</time>
      </trkpt>
      <trkpt lat="44.28425" lon="5.35708">
        <ele>811.7</ele>
        <time>2014-05-04T10:38:32Z</time>
      </trkpt>
      <trkpt lat="44.28421" lon="5.35714">
        <ele>812.2</ele>
        <time>2014-05-04T10:38:35Z</time>
      </trkpt>
      <trkpt lat="44.28417" lon="5.35722">
        <ele>812.6</ele>
        <time>2014-05-04T10:38:38Z</time>
      </trkpt>
      <trkpt lat="44.28413" lon="5.35729">
        <ele>813</ele>
        <time>2014-05-04T10:38:41Z</time>
      </trkpt>
      <trkpt lat="44.28409" lon="5.35736">
        <ele>813.4</ele>
        <time>2014-05-04T10:38:44Z</time>
      </trkpt>
      <trkpt lat="44.28406" lon="5.35743">
        <ele>813.8</ele>
        <time>2014-05-04T10:38:47Z</time>
      </trkpt>
      <trkpt lat="44.28403" lon="5.35751">
        <ele>813.9</ele>
        <time>2014-05-04T10:38:50Z</time>
      </trkpt>
      <trkpt lat="44.28402" lon="5.35758">
        <ele>813.5</ele>
        <time>2014-05-04T10:38:53Z</time>
      </trkpt>
      <trkpt lat="44.28402" lon="5.35766">
        <ele>812.9</ele>
        <time>2014-05-04T10:38:56Z</time>
      </trkpt>
      <trkpt lat="44.28403" lon="5.3578">
        <ele>811.8</ele>
        <time>2014-05-04T10:39:02Z</time>
      </trkpt>
      <trkpt lat="44.28404" lon="5.35787">
        <ele>811.2</ele>
        <time>2014-05-04T10:39:05Z</time>
      </trkpt>
      <trkpt lat="44.28404" lon="5.35794">
        <ele>810.7</ele>
        <time>2014-05-04T10:39:08Z</time>
      </trkpt>
      <trkpt lat="44.28404" lon="5.358">
        <ele>810.2</ele>
        <time>2014-05-04T10:39:11Z</time>
      </trkpt>
      <trkpt lat="44.28405" lon="5.35808">
        <ele>809.5</ele>
        <time>2014-05-04T10:39:15Z</time>
      </trkpt>
      <trkpt lat="44.28405" lon="5.35815">
        <ele>808.9</ele>
        <time>2014-05-04T10:39:18Z</time>
      </trkpt>
      <trkpt lat="44.28405" lon="5.35821">
        <ele>808.4</ele>
        <time>2014-05-04T10:39:21Z</time>
      </trkpt>
      <trkpt lat="44.28405" lon="5.35828">
        <ele>808</ele>
        <time>2014-05-04T10:39:24Z</time>
      </trkpt>
      <trkpt lat="44.28404" lon="5.35835">
        <ele>807.7</ele>
        <time>2014-05-04T10:39:27Z</time>
      </trkpt>
      <trkpt lat="44.28403" lon="5.35841">
        <ele>807.6</ele>
        <time>2014-05-04T10:39:30Z</time>
      </trkpt>
      <trkpt lat="44.28401" lon="5.35847">
        <ele>807.8</ele>
        <time>2014-05-04T10:39:33Z</time>
      </trkpt>
      <trkpt lat="44.284" lon="5.35854">
        <ele>807.9</ele>
        <time>2014-05-04T10:39:36Z</time>
      </trkpt>
      <trkpt lat="44.28399" lon="5.3586">
        <ele>807.9</ele>
        <time>2014-05-04T10:39:39Z</time>
      </trkpt>
      <trkpt lat="44.28396" lon="5.35868">
        <ele>808.1</ele>
        <time>2014-05-04T10:39:43Z</time>
      </trkpt>
      <trkpt lat="44.28393" lon="5.35873">
        <ele>808.5</ele>
        <time>2014-05-04T10:39:46Z</time>
      </trkpt>
      <trkpt lat="44.28389" lon="5.35877">
        <ele>809.2</ele>
        <time>2014-05-04T10:39:49Z</time>
      </trkpt>
      <trkpt lat="44.28385" lon="5.35881">
        <ele>810</ele>
        <time>2014-05-04T10:39:52Z</time>
      </trkpt>
      <trkpt lat="44.2838" lon="5.35887">
        <ele>810.6</ele>
        <time>2014-05-04T10:39:55Z</time>
      </trkpt>
      <trkpt lat="44.28377" lon="5.35894">
        <ele>811.1</ele>
        <time>2014-05-04T10:39:58Z</time>
      </trkpt>
      <trkpt lat="44.28373" lon="5.35909">
        <ele>811.3</ele>
        <time>2014-05-04T10:40:05Z</time>
      </trkpt>
      <trkpt lat="44.28371" lon="5.35915">
        <ele>811.4</ele>
        <time>2014-05-04T10:40:08Z</time>
      </trkpt>
      <trkpt lat="44.2837" lon="5.35922">
        <ele>811.6</ele>
        <time>2014-05-04T10:40:11Z</time>
      </trkpt>
      <trkpt lat="44.28368" lon="5.35929">
        <ele>811.8</ele>
        <time>2014-05-04T10:40:14Z</time>
      </trkpt>
      <trkpt lat="44.28366" lon="5.35936">
        <ele>812.3</ele>
        <time>2014-05-04T10:40:17Z</time>
      </trkpt>
      <trkpt lat="44.28364" lon="5.35942">
        <ele>812.6</ele>
        <time>2014-05-04T10:40:20Z</time>
      </trkpt>
      <trkpt lat="44.28362" lon="5.35948">
        <ele>812.9</ele>
        <time>2014-05-04T10:40:23Z</time>
      </trkpt>
      <trkpt lat="44.28359" lon="5.35955">
        <ele>813.4</ele>
        <time>2014-05-04T10:40:27Z</time>
      </trkpt>
      <trkpt lat="44.28357" lon="5.3596">
        <ele>813.8</ele>
        <time>2014-05-04T10:40:30Z</time>
      </trkpt>
      <trkpt lat="44.28355" lon="5.35966">
        <ele>814.1</ele>
        <time>2014-05-04T10:40:33Z</time>
      </trkpt>
      <trkpt lat="44.28351" lon="5.35973">
        <ele>814.6</ele>
        <time>2014-05-04T10:40:37Z</time>
      </trkpt>
      <trkpt lat="44.28347" lon="5.35979">
        <ele>815.2</ele>
        <time>2014-05-04T10:40:41Z</time>
      </trkpt>
      <trkpt lat="44.28344" lon="5.35983">
        <ele>815.6</ele>
        <time>2014-05-04T10:40:44Z</time>
      </trkpt>
      <trkpt lat="44.2834" lon="5.35989">
        <ele>816.2</ele>
        <time>2014-05-04T10:40:48Z</time>
      </trkpt>
      <trkpt lat="44.28336" lon="5.35992">
        <ele>816.8</ele>
        <time>2014-05-04T10:40:51Z</time>
      </trkpt>
      <trkpt lat="44.28332" lon="5.35996">
        <ele>817.6</ele>
        <time>2014-05-04T10:40:54Z</time>
      </trkpt>
      <trkpt lat="44.28328" lon="5.35999">
        <ele>818.9</ele>
        <time>2014-05-04T10:40:57Z</time>
      </trkpt>
      <trkpt lat="44.28323" lon="5.36002">
        <ele>820.6</ele>
        <time>2014-05-04T10:41:00Z</time>
      </trkpt>
      <trkpt lat="44.28315" lon="5.3601">
        <ele>824.5</ele>
        <time>2014-05-04T10:41:06Z</time>
      </trkpt>
      <trkpt lat="44.28311" lon="5.36014">
        <ele>826.2</ele>
        <time>2014-05-04T10:41:09Z</time>
      </trkpt>
      <trkpt lat="44.28306" lon="5.36016">
        <ele>828</ele>
        <time>2014-05-04T10:41:12Z</time>
      </trkpt>
      <trkpt lat="44.283" lon="5.36019">
        <ele>829.9</ele>
        <time>2014-05-04T10:41:15Z</time>
      </trkpt>
      <trkpt lat="44.28295" lon="5.36021">
        <ele>831.7</ele>
        <time>2014-05-04T10:41:18Z</time>
      </trkpt>
      <trkpt lat="44.28291" lon="5.36022">
        <ele>833.3</ele>
        <time>2014-05-04T10:41:21Z</time>
      </trkpt>
      <trkpt lat="44.28286" lon="5.36024">
        <ele>834.8</ele>
        <time>2014-05-04T10:41:24Z</time>
      </trkpt>
      <trkpt lat="44.28282" lon="5.36026">
        <ele>836.2</ele>
        <time>2014-05-04T10:41:27Z</time>
      </trkpt>
      <trkpt lat="44.28276" lon="5.36029">
        <ele>838</ele>
        <time>2014-05-04T10:41:31Z</time>
      </trkpt>
      <trkpt lat="44.28273" lon="5.36033">
        <ele>839.3</ele>
        <time>2014-05-04T10:41:34Z</time>
      </trkpt>
      <trkpt lat="44.28268" lon="5.36037">
        <ele>840.7</ele>
        <time>2014-05-04T10:41:37Z</time>
      </trkpt>
      <trkpt lat="44.28265" lon="5.36041">
        <ele>842</ele>
        <time>2014-05-04T10:41:40Z</time>
      </trkpt>
      <trkpt lat="44.2826" lon="5.36046">
        <ele>843.5</ele>
        <time>2014-05-04T10:41:44Z</time>
      </trkpt>
      <trkpt lat="44.28256" lon="5.3605">
        <ele>844.8</ele>
        <time>2014-05-04T10:41:47Z</time>
      </trkpt>
      <trkpt lat="44.28251" lon="5.36055">
        <ele>846</ele>
        <time>2014-05-04T10:41:51Z</time>
      </trkpt>
      <trkpt lat="44.28247" lon="5.3606">
        <ele>847.3</ele>
        <time>2014-05-04T10:41:55Z</time>
      </trkpt>
      <trkpt lat="44.28245" lon="5.36067">
        <ele>848</ele>
        <time>2014-05-04T10:41:59Z</time>
      </trkpt>
      <trkpt lat="44.28247" lon="5.36074">
        <ele>847.6</ele>
        <time>2014-05-04T10:42:03Z</time>
      </trkpt>
      <trkpt lat="44.28255" lon="5.36083">
        <ele>846</ele>
        <time>2014-05-04T10:42:10Z</time>
      </trkpt>
      <trkpt lat="44.2826" lon="5.36087">
        <ele>845.8</ele>
        <time>2014-05-04T10:42:14Z</time>
      </trkpt>
      <trkpt lat="44.28264" lon="5.36091">
        <ele>846.3</ele>
        <time>2014-05-04T10:42:18Z</time>
      </trkpt>
      <trkpt lat="44.28269" lon="5.36095">
        <ele>846.5</ele>
        <time>2014-05-04T10:42:22Z</time>
      </trkpt>
      <trkpt lat="44.28274" lon="5.36099">
        <ele>846.6</ele>
        <time>2014-05-04T10:42:26Z</time>
      </trkpt>
      <trkpt lat="44.28279" lon="5.36102">
        <ele>846.4</ele>
        <time>2014-05-04T10:42:30Z</time>
      </trkpt>
      <trkpt lat="44.28284" lon="5.36106">
        <ele>846.5</ele>
        <time>2014-05-04T10:42:34Z</time>
      </trkpt>
      <trkpt lat="44.28288" lon="5.36112">
        <ele>847.7</ele>
        <time>2014-05-04T10:42:38Z</time>
      </trkpt>
      <trkpt lat="44.28291" lon="5.36118">
        <ele>848.5</ele>
        <time>2014-05-04T10:42:42Z</time>
      </trkpt>
      <trkpt lat="44.28296" lon="5.36122">
        <ele>848.8</ele>
        <time>2014-05-04T10:42:46Z</time>
      </trkpt>
      <trkpt lat="44.28299" lon="5.36126">
        <ele>849.2</ele>
        <time>2014-05-04T10:42:49Z</time>
      </trkpt>
      <trkpt lat="44.28304" lon="5.36129">
        <ele>849</ele>
        <time>2014-05-04T10:42:53Z</time>
      </trkpt>
      <trkpt lat="44.28309" lon="5.36133">
        <ele>849.7</ele>
        <time>2014-05-04T10:42:57Z</time>
      </trkpt>
      <trkpt lat="44.28312" lon="5.36138">
        <ele>850.5</ele>
        <time>2014-05-04T10:43:01Z</time>
      </trkpt>
      <trkpt lat="44.28316" lon="5.36144">
        <ele>851.4</ele>
        <time>2014-05-04T10:43:05Z</time>
      </trkpt>
      <trkpt lat="44.28323" lon="5.36155">
        <ele>853.6</ele>
        <time>2014-05-04T10:43:13Z</time>
      </trkpt>
      <trkpt lat="44.28326" lon="5.36161">
        <ele>854.4</ele>
        <time>2014-05-04T10:43:17Z</time>
      </trkpt>
      <trkpt lat="44.2833" lon="5.36165">
        <ele>855.3</ele>
        <time>2014-05-04T10:43:21Z</time>
      </trkpt>
      <trkpt lat="44.28334" lon="5.36169">
        <ele>855.5</ele>
        <time>2014-05-04T10:43:25Z</time>
      </trkpt>
      <trkpt lat="44.28339" lon="5.36173">
        <ele>854.2</ele>
        <time>2014-05-04T10:43:30Z</time>
      </trkpt>
      <trkpt lat="44.28345" lon="5.36174">
        <ele>852.6</ele>
        <time>2014-05-04T10:43:34Z</time>
      </trkpt>
      <trkpt lat="44.2835" lon="5.36174">
        <ele>850.9</ele>
        <time>2014-05-04T10:43:38Z</time>
      </trkpt>
      <trkpt lat="44.28355" lon="5.36173">
        <ele>848.9</ele>
        <time>2014-05-04T10:43:42Z</time>
      </trkpt>
      <trkpt lat="44.2836" lon="5.36171">
        <ele>846.8</ele>
        <time>2014-05-04T10:43:46Z</time>
      </trkpt>
      <trkpt lat="44.28365" lon="5.36169">
        <ele>845</ele>
        <time>2014-05-04T10:43:50Z</time>
      </trkpt>
      <trkpt lat="44.2837" lon="5.36169">
        <ele>843.4</ele>
        <time>2014-05-04T10:43:54Z</time>
      </trkpt>
      <trkpt lat="44.28374" lon="5.36171">
        <ele>842.2</ele>
        <time>2014-05-04T10:43:58Z</time>
      </trkpt>
      <trkpt lat="44.28378" lon="5.36175">
        <ele>841.7</ele>
        <time>2014-05-04T10:44:02Z</time>
      </trkpt>
      <trkpt lat="44.28381" lon="5.3618">
        <ele>841.7</ele>
        <time>2014-05-04T10:44:06Z</time>
      </trkpt>
      <trkpt lat="44.28386" lon="5.36195">
        <ele>843.3</ele>
        <time>2014-05-04T10:44:14Z</time>
      </trkpt>
      <trkpt lat="44.28387" lon="5.36201">
        <ele>844.4</ele>
        <time>2014-05-04T10:44:17Z</time>
      </trkpt>
      <trkpt lat="44.28387" lon="5.36208">
        <ele>845.7</ele>
        <time>2014-05-04T10:44:20Z</time>
      </trkpt>
      <trkpt lat="44.28388" lon="5.36214">
        <ele>846.9</ele>
        <time>2014-05-04T10:44:23Z</time>
      </trkpt>
      <trkpt lat="44.28388" lon="5.36222">
        <ele>848.3</ele>
        <time>2014-05-04T10:44:27Z</time>
      </trkpt>
      <trkpt lat="44.28389" lon="5.36229">
        <ele>849.6</ele>
        <time>2014-05-04T10:44:30Z</time>
      </trkpt>
      <trkpt lat="44.28389" lon="5.36236">
        <ele>851.2</ele>
        <time>2014-05-04T10:44:33Z</time>
      </trkpt>
      <trkpt lat="44.28389" lon="5.36243">
        <ele>852.5</ele>
        <time>2014-05-04T10:44:36Z</time>
      </trkpt>
      <trkpt lat="44.28391" lon="5.3625">
        <ele>853.5</ele>
        <time>2014-05-04T10:44:39Z</time>
      </trkpt>
      <trkpt lat="44.2839" lon="5.36257">
        <ele>855.1</ele>
        <time>2014-05-04T10:44:42Z</time>
      </trkpt>
      <trkpt lat="44.2839" lon="5.36265">
        <ele>856.6</ele>
        <time>2014-05-04T10:44:45Z</time>
      </trkpt>
      <trkpt lat="44.2839" lon="5.36272">
        <ele>858.3</ele>
        <time>2014-05-04T10:44:48Z</time>
      </trkpt>
      <trkpt lat="44.28389" lon="5.36279">
        <ele>859.7</ele>
        <time>2014-05-04T10:44:51Z</time>
      </trkpt>
      <trkpt lat="44.28388" lon="5.36286">
        <ele>861.3</ele>
        <time>2014-05-04T10:44:54Z</time>
      </trkpt>
      <trkpt lat="44.28386" lon="5.36293">
        <ele>863.1</ele>
        <time>2014-05-04T10:44:57Z</time>
      </trkpt>
      <trkpt lat="44.28385" lon="5.36299">
        <ele>864.5</ele>
        <time>2014-05-04T10:45:00Z</time>
      </trkpt>
      <trkpt lat="44.28382" lon="5.36306">
        <ele>866.3</ele>
        <time>2014-05-04T10:45:04Z</time>
      </trkpt>
      <trkpt lat="44.28381" lon="5.36313">
        <ele>867.8</ele>
        <time>2014-05-04T10:45:08Z</time>
      </trkpt>
      <trkpt lat="44.2838" lon="5.36329">
        <ele>870.7</ele>
        <time>2014-05-04T10:45:16Z</time>
      </trkpt>
      <trkpt lat="44.28381" lon="5.36335">
        <ele>871.6</ele>
        <time>2014-05-04T10:45:19Z</time>
      </trkpt>
      <trkpt lat="44.28382" lon="5.36342">
        <ele>872.5</ele>
        <time>2014-05-04T10:45:22Z</time>
      </trkpt>
      <trkpt lat="44.28384" lon="5.3635">
        <ele>873.5</ele>
        <time>2014-05-04T10:45:26Z</time>
      </trkpt>
      <trkpt lat="44.28384" lon="5.36358">
        <ele>874.6</ele>
        <time>2014-05-04T10:45:30Z</time>
      </trkpt>
      <trkpt lat="44.28386" lon="5.36364">
        <ele>875.5</ele>
        <time>2014-05-04T10:45:33Z</time>
      </trkpt>
      <trkpt lat="44.28388" lon="5.36372">
        <ele>876.7</ele>
        <time>2014-05-04T10:45:36Z</time>
      </trkpt>
      <trkpt lat="44.2839" lon="5.3638">
        <ele>877.5</ele>
        <time>2014-05-04T10:45:39Z</time>
      </trkpt>
      <trkpt lat="44.28394" lon="5.36387">
        <ele>878.3</ele>
        <time>2014-05-04T10:45:42Z</time>
      </trkpt>
      <trkpt lat="44.28396" lon="5.36393">
        <ele>878.9</ele>
        <time>2014-05-04T10:45:45Z</time>
      </trkpt>
      <trkpt lat="44.284" lon="5.36399">
        <ele>879.6</ele>
        <time>2014-05-04T10:45:48Z</time>
      </trkpt>
      <trkpt lat="44.28403" lon="5.36404">
        <ele>880.1</ele>
        <time>2014-05-04T10:45:50Z</time>
      </trkpt>
      <trkpt lat="44.28405" lon="5.36411">
        <ele>881.1</ele>
        <time>2014-05-04T10:45:52Z</time>
      </trkpt>
      <trkpt lat="44.28407" lon="5.36419">
        <ele>882.4</ele>
        <time>2014-05-04T10:45:55Z</time>
      </trkpt>
      <trkpt lat="44.28411" lon="5.36426">
        <ele>883</ele>
        <time>2014-05-04T10:45:58Z</time>
      </trkpt>
      <trkpt lat="44.28414" lon="5.36432">
        <ele>883.3</ele>
        <time>2014-05-04T10:46:01Z</time>
      </trkpt>
      <trkpt lat="44.28419" lon="5.36435">
        <ele>882.8</ele>
        <time>2014-05-04T10:46:04Z</time>
      </trkpt>
      <trkpt lat="44.28423" lon="5.36437">
        <ele>881.2</ele>
        <time>2014-05-04T10:46:07Z</time>
      </trkpt>
      <trkpt lat="44.28429" lon="5.36437">
        <ele>879.1</ele>
        <time>2014-05-04T10:46:10Z</time>
      </trkpt>
      <trkpt lat="44.2844" lon="5.36433">
        <ele>874.2</ele>
        <time>2014-05-04T10:46:18Z</time>
      </trkpt>
      <trkpt lat="44.28445" lon="5.36431">
        <ele>872.1</ele>
        <time>2014-05-04T10:46:21Z</time>
      </trkpt>
      <trkpt lat="44.28451" lon="5.36429">
        <ele>869.6</ele>
        <time>2014-05-04T10:46:25Z</time>
      </trkpt>
      <trkpt lat="44.28455" lon="5.36428">
        <ele>867.9</ele>
        <time>2014-05-04T10:46:28Z</time>
      </trkpt>
      <trkpt lat="44.2846" lon="5.3643">
        <ele>866.3</ele>
        <time>2014-05-04T10:46:32Z</time>
      </trkpt>
      <trkpt lat="44.28464" lon="5.36434">
        <ele>865.4</ele>
        <time>2014-05-04T10:46:36Z</time>
      </trkpt>
      <trkpt lat="44.28467" lon="5.3644">
        <ele>865.2</ele>
        <time>2014-05-04T10:46:40Z</time>
      </trkpt>
      <trkpt lat="44.28469" lon="5.36446">
        <ele>865.2</ele>
        <time>2014-05-04T10:46:44Z</time>
      </trkpt>
      <trkpt lat="44.28471" lon="5.36453">
        <ele>865.5</ele>
        <time>2014-05-04T10:46:49Z</time>
      </trkpt>
      <trkpt lat="44.28472" lon="5.3646">
        <ele>866.3</ele>
        <time>2014-05-04T10:46:53Z</time>
      </trkpt>
      <trkpt lat="44.28473" lon="5.36467">
        <ele>866.9</ele>
        <time>2014-05-04T10:46:57Z</time>
      </trkpt>
      <trkpt lat="44.28474" lon="5.36474">
        <ele>867.7</ele>
        <time>2014-05-04T10:47:01Z</time>
      </trkpt>
      <trkpt lat="44.28475" lon="5.36481">
        <ele>868.3</ele>
        <time>2014-05-04T10:47:05Z</time>
      </trkpt>
      <trkpt lat="44.28477" lon="5.36488">
        <ele>868.6</ele>
        <time>2014-05-04T10:47:09Z</time>
      </trkpt>
      <trkpt lat="44.28479" lon="5.36495">
        <ele>868.8</ele>
        <time>2014-05-04T10:47:13Z</time>
      </trkpt>
      <trkpt lat="44.2848" lon="5.3651">
        <ele>870.9</ele>
        <time>2014-05-04T10:47:20Z</time>
      </trkpt>
      <trkpt lat="44.2848" lon="5.36517">
        <ele>871.9</ele>
        <time>2014-05-04T10:47:23Z</time>
      </trkpt>
      <trkpt lat="44.28481" lon="5.36525">
        <ele>873</ele>
        <time>2014-05-04T10:47:27Z</time>
      </trkpt>
      <trkpt lat="44.28481" lon="5.36531">
        <ele>873.7</ele>
        <time>2014-05-04T10:47:30Z</time>
      </trkpt>
      <trkpt lat="44.28483" lon="5.36539">
        <ele>874.1</ele>
        <time>2014-05-04T10:47:34Z</time>
      </trkpt>
      <trkpt lat="44.28484" lon="5.36546">
        <ele>875</ele>
        <time>2014-05-04T10:47:38Z</time>
      </trkpt>
      <trkpt lat="44.28484" lon="5.36553">
        <ele>875.7</ele>
        <time>2014-05-04T10:47:42Z</time>
      </trkpt>
      <trkpt lat="44.28484" lon="5.36561">
        <ele>876.9</ele>
        <time>2014-05-04T10:47:46Z</time>
      </trkpt>
      <trkpt lat="44.28483" lon="5.36567">
        <ele>878.4</ele>
        <time>2014-05-04T10:47:50Z</time>
      </trkpt>
      <trkpt lat="44.2848" lon="5.36575">
        <ele>880.4</ele>
        <time>2014-05-04T10:47:55Z</time>
      </trkpt>
      <trkpt lat="44.28479" lon="5.36582">
        <ele>882.3</ele>
        <time>2014-05-04T10:48:00Z</time>
      </trkpt>
      <trkpt lat="44.28479" lon="5.36588">
        <ele>882.5</ele>
        <time>2014-05-04T10:48:04Z</time>
      </trkpt>
      <trkpt lat="44.2848" lon="5.36596">
        <ele>882.3</ele>
        <time>2014-05-04T10:48:09Z</time>
      </trkpt>
      <trkpt lat="44.28482" lon="5.36602">
        <ele>881.7</ele>
        <time>2014-05-04T10:48:13Z</time>
      </trkpt>
      <trkpt lat="44.28485" lon="5.36609">
        <ele>880.9</ele>
        <time>2014-05-04T10:48:18Z</time>
      </trkpt>
      <trkpt lat="44.28491" lon="5.36621">
        <ele>879.3</ele>
        <time>2014-05-04T10:48:28Z</time>
      </trkpt>
      <trkpt lat="44.28492" lon="5.36628">
        <ele>878.9</ele>
        <time>2014-05-04T10:48:33Z</time>
      </trkpt>
      <trkpt lat="44.28493" lon="5.36635">
        <ele>878.9</ele>
        <time>2014-05-04T10:48:37Z</time>
      </trkpt>
      <trkpt lat="44.28491" lon="5.36642">
        <ele>879.8</ele>
        <time>2014-05-04T10:48:42Z</time>
      </trkpt>
      <trkpt lat="44.28486" lon="5.36644">
        <ele>881.8</ele>
        <time>2014-05-04T10:48:47Z</time>
      </trkpt>
      <trkpt lat="44.28481" lon="5.36645">
        <ele>883.7</ele>
        <time>2014-05-04T10:48:51Z</time>
      </trkpt>
      <trkpt lat="44.28477" lon="5.3664">
        <ele>884.9</ele>
        <time>2014-05-04T10:48:56Z</time>
      </trkpt>
      <trkpt lat="44.28474" lon="5.36634">
        <ele>885.9</ele>
        <time>2014-05-04T10:49:01Z</time>
      </trkpt>
      <trkpt lat="44.28472" lon="5.36628">
        <ele>886.5</ele>
        <time>2014-05-04T10:49:05Z</time>
      </trkpt>
      <trkpt lat="44.28469" lon="5.36623">
        <ele>887.4</ele>
        <time>2014-05-04T10:49:09Z</time>
      </trkpt>
      <trkpt lat="44.28465" lon="5.36619">
        <ele>888.8</ele>
        <time>2014-05-04T10:49:13Z</time>
      </trkpt>
      <trkpt lat="44.28461" lon="5.36615">
        <ele>889.9</ele>
        <time>2014-05-04T10:49:17Z</time>
      </trkpt>
      <trkpt lat="44.28457" lon="5.36611">
        <ele>891.4</ele>
        <time>2014-05-04T10:49:22Z</time>
      </trkpt>
      <trkpt lat="44.28449" lon="5.36603">
        <ele>893.9</ele>
        <time>2014-05-04T10:49:30Z</time>
      </trkpt>
      <trkpt lat="44.28444" lon="5.36599">
        <ele>895.2</ele>
        <time>2014-05-04T10:49:34Z</time>
      </trkpt>
      <trkpt lat="44.28439" lon="5.366">
        <ele>897.1</ele>
        <time>2014-05-04T10:49:38Z</time>
      </trkpt>
      <trkpt lat="44.28437" lon="5.36606">
        <ele>898.3</ele>
        <time>2014-05-04T10:49:42Z</time>
      </trkpt>
      <trkpt lat="44.28439" lon="5.36613">
        <ele>898.1</ele>
        <time>2014-05-04T10:49:46Z</time>
      </trkpt>
      <trkpt lat="44.28441" lon="5.36618">
        <ele>897.5</ele>
        <time>2014-05-04T10:49:50Z</time>
      </trkpt>
      <trkpt lat="44.28444" lon="5.36623">
        <ele>896.6</ele>
        <time>2014-05-04T10:49:54Z</time>
      </trkpt>
      <trkpt lat="44.28448" lon="5.36628">
        <ele>895.4</ele>
        <time>2014-05-04T10:49:58Z</time>
      </trkpt>
      <trkpt lat="44.28452" lon="5.36633">
        <ele>894.3</ele>
        <time>2014-05-04T10:50:02Z</time>
      </trkpt>
      <trkpt lat="44.28455" lon="5.36639">
        <ele>893.6</ele>
        <time>2014-05-04T10:50:06Z</time>
      </trkpt>
      <trkpt lat="44.28456" lon="5.36645">
        <ele>893.3</ele>
        <time>2014-05-04T10:50:10Z</time>
      </trkpt>
      <trkpt lat="44.28456" lon="5.36652">
        <ele>893.5</ele>
        <time>2014-05-04T10:50:14Z</time>
      </trkpt>
      <trkpt lat="44.28456" lon="5.36659">
        <ele>893.9</ele>
        <time>2014-05-04T10:50:18Z</time>
      </trkpt>
      <trkpt lat="44.28456" lon="5.36667">
        <ele>894.3</ele>
        <time>2014-05-04T10:50:22Z</time>
      </trkpt>
      <trkpt lat="44.28455" lon="5.36674">
        <ele>893.7</ele>
        <time>2014-05-04T10:50:26Z</time>
      </trkpt>
      <trkpt lat="44.28453" lon="5.36688">
        <ele>892.2</ele>
        <time>2014-05-04T10:50:34Z</time>
      </trkpt>
      <trkpt lat="44.28451" lon="5.36695">
        <ele>892</ele>
        <time>2014-05-04T10:50:38Z</time>
      </trkpt>
      <trkpt lat="44.28449" lon="5.36702">
        <ele>891.4</ele>
        <time>2014-05-04T10:50:42Z</time>
      </trkpt>
      <trkpt lat="44.28447" lon="5.36708">
        <ele>891.5</ele>
        <time>2014-05-04T10:50:45Z</time>
      </trkpt>
      <trkpt lat="44.28445" lon="5.36713">
        <ele>891.8</ele>
        <time>2014-05-04T10:50:48Z</time>
      </trkpt>
      <trkpt lat="44.28442" lon="5.36719">
        <ele>892.3</ele>
        <time>2014-05-04T10:50:51Z</time>
      </trkpt>
      <trkpt lat="44.28439" lon="5.36725">
        <ele>893.3</ele>
        <time>2014-05-04T10:50:54Z</time>
      </trkpt>
      <trkpt lat="44.28435" lon="5.3673">
        <ele>894.1</ele>
        <time>2014-05-04T10:50:57Z</time>
      </trkpt>
      <trkpt lat="44.28432" lon="5.36736">
        <ele>895.4</ele>
        <time>2014-05-04T10:51:01Z</time>
      </trkpt>
      <trkpt lat="44.28428" lon="5.3674">
        <ele>896.8</ele>
        <time>2014-05-04T10:51:04Z</time>
      </trkpt>
      <trkpt lat="44.28424" lon="5.36745">
        <ele>898.5</ele>
        <time>2014-05-04T10:51:08Z</time>
      </trkpt>
      <trkpt lat="44.2842" lon="5.36751">
        <ele>900.3</ele>
        <time>2014-05-04T10:51:12Z</time>
      </trkpt>
      <trkpt lat="44.28416" lon="5.36757">
        <ele>901.1</ele>
        <time>2014-05-04T10:51:15Z</time>
      </trkpt>
      <trkpt lat="44.28412" lon="5.36763">
        <ele>901.5</ele>
        <time>2014-05-04T10:51:18Z</time>
      </trkpt>
      <trkpt lat="44.28408" lon="5.36769">
        <ele>902.1</ele>
        <time>2014-05-04T10:51:21Z</time>
      </trkpt>
      <trkpt lat="44.28404" lon="5.36773">
        <ele>902.7</ele>
        <time>2014-05-04T10:51:24Z</time>
      </trkpt>
      <trkpt lat="44.284" lon="5.36777">
        <ele>903.5</ele>
        <time>2014-05-04T10:51:27Z</time>
      </trkpt>
      <trkpt lat="44.28391" lon="5.36787">
        <ele>905.5</ele>
        <time>2014-05-04T10:51:33Z</time>
      </trkpt>
      <trkpt lat="44.28388" lon="5.36794">
        <ele>905.4</ele>
        <time>2014-05-04T10:51:37Z</time>
      </trkpt>
      <trkpt lat="44.28385" lon="5.36801">
        <ele>905.6</ele>
        <time>2014-05-04T10:51:40Z</time>
      </trkpt>
      <trkpt lat="44.28382" lon="5.36807">
        <ele>906.2</ele>
        <time>2014-05-04T10:51:43Z</time>
      </trkpt>
      <trkpt lat="44.28378" lon="5.36812">
        <ele>907</ele>
        <time>2014-05-04T10:51:46Z</time>
      </trkpt>
      <trkpt lat="44.28374" lon="5.36818">
        <ele>907.6</ele>
        <time>2014-05-04T10:51:49Z</time>
      </trkpt>
      <trkpt lat="44.2837" lon="5.36824">
        <ele>908.9</ele>
        <time>2014-05-04T10:51:52Z</time>
      </trkpt>
      <trkpt lat="44.28366" lon="5.36829">
        <ele>910</ele>
        <time>2014-05-04T10:51:54Z</time>
      </trkpt>
      <trkpt lat="44.28361" lon="5.36834">
        <ele>911.4</ele>
        <time>2014-05-04T10:51:56Z</time>
      </trkpt>
      <trkpt lat="44.28355" lon="5.3684">
        <ele>912.9</ele>
        <time>2014-05-04T10:51:58Z</time>
      </trkpt>
      <trkpt lat="44.2835" lon="5.36848">
        <ele>913.3</ele>
        <time>2014-05-04T10:52:00Z</time>
      </trkpt>
      <trkpt lat="44.28344" lon="5.36858">
        <ele>913.7</ele>
        <time>2014-05-04T10:52:02Z</time>
      </trkpt>
      <trkpt lat="44.28341" lon="5.36863">
        <ele>914.7</ele>
        <time>2014-05-04T10:52:03Z</time>
      </trkpt>
      <trkpt lat="44.28337" lon="5.36867">
        <ele>915.8</ele>
        <time>2014-05-04T10:52:04Z</time>
      </trkpt>
      <trkpt lat="44.28333" lon="5.3687">
        <ele>916.6</ele>
        <time>2014-05-04T10:52:05Z</time>
      </trkpt>
      <trkpt lat="44.28329" lon="5.36874">
        <ele>916.7</ele>
        <time>2014-05-04T10:52:06Z</time>
      </trkpt>
      <trkpt lat="44.28322" lon="5.3688">
        <ele>917.1</ele>
        <time>2014-05-04T10:52:08Z</time>
      </trkpt>
      <trkpt lat="44.28317" lon="5.36886">
        <ele>917.5</ele>
        <time>2014-05-04T10:52:10Z</time>
      </trkpt>
      <trkpt lat="44.28311" lon="5.36892">
        <ele>918</ele>
        <time>2014-05-04T10:52:12Z</time>
      </trkpt>
      <trkpt lat="44.28305" lon="5.36897">
        <ele>918.7</ele>
        <time>2014-05-04T10:52:14Z</time>
      </trkpt>
      <trkpt lat="44.283" lon="5.36901">
        <ele>919.2</ele>
        <time>2014-05-04T10:52:16Z</time>
      </trkpt>
      <trkpt lat="44.28296" lon="5.36905">
        <ele>919.8</ele>
        <time>2014-05-04T10:52:18Z</time>
      </trkpt>
      <trkpt lat="44.28292" lon="5.3691">
        <ele>920.5</ele>
        <time>2014-05-04T10:52:20Z</time>
      </trkpt>
      <trkpt lat="44.28287" lon="5.36914">
        <ele>921.2</ele>
        <time>2014-05-04T10:52:22Z</time>
      </trkpt>
      <trkpt lat="44.28283" lon="5.36919">
        <ele>921.4</ele>
        <time>2014-05-04T10:52:24Z</time>
      </trkpt>
      <trkpt lat="44.28278" lon="5.36924">
        <ele>922.1</ele>
        <time>2014-05-04T10:52:26Z</time>
      </trkpt>
      <trkpt lat="44.28274" lon="5.36928">
        <ele>922.4</ele>
        <time>2014-05-04T10:52:28Z</time>
      </trkpt>
      <trkpt lat="44.28266" lon="5.36938">
        <ele>922.9</ele>
        <time>2014-05-04T10:52:34Z</time>
      </trkpt>
      <trkpt lat="44.28262" lon="5.36944">
        <ele>922.6</ele>
        <time>2014-05-04T10:52:37Z</time>
      </trkpt>
      <trkpt lat="44.28259" lon="5.36951">
        <ele>922.4</ele>
        <time>2014-05-04T10:52:40Z</time>
      </trkpt>
      <trkpt lat="44.28256" lon="5.36956">
        <ele>922.6</ele>
        <time>2014-05-04T10:52:43Z</time>
      </trkpt>
      <trkpt lat="44.28253" lon="5.36961">
        <ele>922.6</ele>
        <time>2014-05-04T10:52:46Z</time>
      </trkpt>
      <trkpt lat="44.2825" lon="5.36966">
        <ele>922.8</ele>
        <time>2014-05-04T10:52:49Z</time>
      </trkpt>
      <trkpt lat="44.28247" lon="5.36971">
        <ele>922.6</ele>
        <time>2014-05-04T10:52:52Z</time>
      </trkpt>
      <trkpt lat="44.28243" lon="5.36976">
        <ele>922.6</ele>
        <time>2014-05-04T10:52:55Z</time>
      </trkpt>
      <trkpt lat="44.2824" lon="5.36981">
        <ele>922.5</ele>
        <time>2014-05-04T10:52:58Z</time>
      </trkpt>
      <trkpt lat="44.28238" lon="5.36988">
        <ele>921.9</ele>
        <time>2014-05-04T10:53:02Z</time>
      </trkpt>
      <trkpt lat="44.28235" lon="5.36994">
        <ele>921.4</ele>
        <time>2014-05-04T10:53:05Z</time>
      </trkpt>
      <trkpt lat="44.28233" lon="5.37">
        <ele>920.8</ele>
        <time>2014-05-04T10:53:09Z</time>
      </trkpt>
      <trkpt lat="44.28231" lon="5.37006">
        <ele>920.9</ele>
        <time>2014-05-04T10:53:13Z</time>
      </trkpt>
      <trkpt lat="44.28229" lon="5.37013">
        <ele>920.6</ele>
        <time>2014-05-04T10:53:17Z</time>
      </trkpt>
      <trkpt lat="44.28227" lon="5.37019">
        <ele>920.1</ele>
        <time>2014-05-04T10:53:21Z</time>
      </trkpt>
      <trkpt lat="44.28223" lon="5.37027">
        <ele>920.2</ele>
        <time>2014-05-04T10:53:25Z</time>
      </trkpt>
      <trkpt lat="44.28221" lon="5.37033">
        <ele>920</ele>
        <time>2014-05-04T10:53:28Z</time>
      </trkpt>
      <trkpt lat="44.28218" lon="5.3704">
        <ele>920</ele>
        <time>2014-05-04T10:53:32Z</time>
      </trkpt>
      <trkpt lat="44.28213" lon="5.37053">
        <ele>919.5</ele>
        <time>2014-05-04T10:53:40Z</time>
      </trkpt>
      <trkpt lat="44.28211" lon="5.37059">
        <ele>919.4</ele>
        <time>2014-05-04T10:53:44Z</time>
      </trkpt>
      <trkpt lat="44.28209" lon="5.37065">
        <ele>919.2</ele>
        <time>2014-05-04T10:53:48Z</time>
      </trkpt>
      <trkpt lat="44.28208" lon="5.37072">
        <ele>918.7</ele>
        <time>2014-05-04T10:53:52Z</time>
      </trkpt>
      <trkpt lat="44.28205" lon="5.3708">
        <ele>918.5</ele>
        <time>2014-05-04T10:53:56Z</time>
      </trkpt>
      <trkpt lat="44.28202" lon="5.37087">
        <ele>918.6</ele>
        <time>2014-05-04T10:54:00Z</time>
      </trkpt>
      <trkpt lat="44.28199" lon="5.37092">
        <ele>918.8</ele>
        <time>2014-05-04T10:54:03Z</time>
      </trkpt>
      <trkpt lat="44.28194" lon="5.37098">
        <ele>919.1</ele>
        <time>2014-05-04T10:54:07Z</time>
      </trkpt>
      <trkpt lat="44.28192" lon="5.37103">
        <ele>919.1</ele>
        <time>2014-05-04T10:54:10Z</time>
      </trkpt>
      <trkpt lat="44.28189" lon="5.37108">
        <ele>919.5</ele>
        <time>2014-05-04T10:54:13Z</time>
      </trkpt>
      <trkpt lat="44.28185" lon="5.37113">
        <ele>919.7</ele>
        <time>2014-05-04T10:54:17Z</time>
      </trkpt>
      <trkpt lat="44.28181" lon="5.37118">
        <ele>919.9</ele>
        <time>2014-05-04T10:54:20Z</time>
      </trkpt>
      <trkpt lat="44.28178" lon="5.37123">
        <ele>920.3</ele>
        <time>2014-05-04T10:54:23Z</time>
      </trkpt>
      <trkpt lat="44.28173" lon="5.3713">
        <ele>920.8</ele>
        <time>2014-05-04T10:54:27Z</time>
      </trkpt>
      <trkpt lat="44.28169" lon="5.37136">
        <ele>921.3</ele>
        <time>2014-05-04T10:54:30Z</time>
      </trkpt>
      <trkpt lat="44.28164" lon="5.37142">
        <ele>922.1</ele>
        <time>2014-05-04T10:54:33Z</time>
      </trkpt>
      <trkpt lat="44.28155" lon="5.37149">
        <ele>924.3</ele>
        <time>2014-05-04T10:54:39Z</time>
      </trkpt>
      <trkpt lat="44.2815" lon="5.37152">
        <ele>925.5</ele>
        <time>2014-05-04T10:54:43Z</time>
      </trkpt>
      <trkpt lat="44.28146" lon="5.37154">
        <ele>926.9</ele>
        <time>2014-05-04T10:54:47Z</time>
      </trkpt>
      <trkpt lat="44.28141" lon="5.37157">
        <ele>928.3</ele>
        <time>2014-05-04T10:54:52Z</time>
      </trkpt>
      <trkpt lat="44.28137" lon="5.37161">
        <ele>929.1</ele>
        <time>2014-05-04T10:54:57Z</time>
      </trkpt>
      <trkpt lat="44.28133" lon="5.37164">
        <ele>930</ele>
        <time>2014-05-04T10:55:01Z</time>
      </trkpt>
      <trkpt lat="44.28128" lon="5.37167">
        <ele>931.5</ele>
        <time>2014-05-04T10:55:06Z</time>
      </trkpt>
      <trkpt lat="44.28124" lon="5.37171">
        <ele>932.4</ele>
        <time>2014-05-04T10:55:11Z</time>
      </trkpt>
      <trkpt lat="44.2812" lon="5.37176">
        <ele>933</ele>
        <time>2014-05-04T10:55:16Z</time>
      </trkpt>
      <trkpt lat="44.28116" lon="5.37181">
        <ele>933.7</ele>
        <time>2014-05-04T10:55:21Z</time>
      </trkpt>
      <trkpt lat="44.28111" lon="5.37185">
        <ele>934.7</ele>
        <time>2014-05-04T10:55:26Z</time>
      </trkpt>
      <trkpt lat="44.28107" lon="5.37189">
        <ele>935.7</ele>
        <time>2014-05-04T10:55:30Z</time>
      </trkpt>
      <trkpt lat="44.28103" lon="5.37193">
        <ele>936.6</ele>
        <time>2014-05-04T10:55:35Z</time>
      </trkpt>
      <trkpt lat="44.28094" lon="5.37202">
        <ele>938.7</ele>
        <time>2014-05-04T10:55:46Z</time>
      </trkpt>
      <trkpt lat="44.2809" lon="5.37206">
        <ele>940</ele>
        <time>2014-05-04T10:55:51Z</time>
      </trkpt>
      <trkpt lat="44.28086" lon="5.37211">
        <ele>940.7</ele>
        <time>2014-05-04T10:55:57Z</time>
      </trkpt>
      <trkpt lat="44.28082" lon="5.37218">
        <ele>941.1</ele>
        <time>2014-05-04T10:56:02Z</time>
      </trkpt>
      <trkpt lat="44.28079" lon="5.37222">
        <ele>941.9</ele>
        <time>2014-05-04T10:56:07Z</time>
      </trkpt>
      <trkpt lat="44.28075" lon="5.37226">
        <ele>942.8</ele>
        <time>2014-05-04T10:56:16Z</time>
      </trkpt>
      <trkpt lat="44.28071" lon="5.3723">
        <ele>943.6</ele>
        <time>2014-05-04T10:56:21Z</time>
      </trkpt>
      <trkpt lat="44.28067" lon="5.37233">
        <ele>944.7</ele>
        <time>2014-05-04T10:56:27Z</time>
      </trkpt>
      <trkpt lat="44.28063" lon="5.37238">
        <ele>945.7</ele>
        <time>2014-05-04T10:56:33Z</time>
      </trkpt>
      <trkpt lat="44.28059" lon="5.37242">
        <ele>946.8</ele>
        <time>2014-05-04T10:56:41Z</time>
      </trkpt>
      <trkpt lat="44.28049" lon="5.37248">
        <ele>949.7</ele>
        <time>2014-05-04T10:56:53Z</time>
      </trkpt>
      <trkpt lat="44.28045" lon="5.37251">
        <ele>951.2</ele>
        <time>2014-05-04T10:57:00Z</time>
      </trkpt>
      <trkpt lat="44.2804" lon="5.37253">
        <ele>952.8</ele>
        <time>2014-05-04T10:57:06Z</time>
      </trkpt>
      <trkpt lat="44.28036" lon="5.37253">
        <ele>954.6</ele>
        <time>2014-05-04T10:57:12Z</time>
      </trkpt>
      <trkpt lat="44.28031" lon="5.37256">
        <ele>956.3</ele>
        <time>2014-05-04T10:57:21Z</time>
      </trkpt>
      <trkpt lat="44.28026" lon="5.37258">
        <ele>957.8</ele>
        <time>2014-05-04T10:57:28Z</time>
      </trkpt>
      <trkpt lat="44.28022" lon="5.37262">
        <ele>959.3</ele>
        <time>2014-05-04T10:57:34Z</time>
      </trkpt>
      <trkpt lat="44.28017" lon="5.37264">
        <ele>960.9</ele>
        <time>2014-05-04T10:57:41Z</time>
      </trkpt>
      <trkpt lat="44.28014" lon="5.37267">
        <ele>962.1</ele>
        <time>2014-05-04T10:57:48Z</time>
      </trkpt>
      <trkpt lat="44.28006" lon="5.37275">
        <ele>964.4</ele>
        <time>2014-05-04T10:58:03Z</time>
      </trkpt>
      <trkpt lat="44.28002" lon="5.37278">
        <ele>965.9</ele>
        <time>2014-05-04T10:58:08Z</time>
      </trkpt>
      <trkpt lat="44.27997" lon="5.37282">
        <ele>967.2</ele>
        <time>2014-05-04T10:58:15Z</time>
      </trkpt>
      <trkpt lat="44.27993" lon="5.37285">
        <ele>968.2</ele>
        <time>2014-05-04T10:58:21Z</time>
      </trkpt>
      <trkpt lat="44.27989" lon="5.37289">
        <ele>969.2</ele>
        <time>2014-05-04T10:58:28Z</time>
      </trkpt>
      <trkpt lat="44.27985" lon="5.37291">
        <ele>970.3</ele>
        <time>2014-05-04T10:58:34Z</time>
      </trkpt>
      <trkpt lat="44.27981" lon="5.37295">
        <ele>971.1</ele>
        <time>2014-05-04T10:58:41Z</time>
      </trkpt>
      <trkpt lat="44.27977" lon="5.37299">
        <ele>971.9</ele>
        <time>2014-05-04T10:58:47Z</time>
      </trkpt>
      <trkpt lat="44.27974" lon="5.37303">
        <ele>972.7</ele>
        <time>2014-05-04T10:58:52Z</time>
      </trkpt>
      <trkpt lat="44.27965" lon="5.37311">
        <ele>974.4</ele>
        <time>2014-05-04T10:59:04Z</time>
      </trkpt>
      <trkpt lat="44.27961" lon="5.37316">
        <ele>975.3</ele>
        <time>2014-05-04T10:59:10Z</time>
      </trkpt>
      <trkpt lat="44.27957" lon="5.3732">
        <ele>975.8</ele>
        <time>2014-05-04T10:59:18Z</time>
      </trkpt>
      <trkpt lat="44.27953" lon="5.37323">
        <ele>976.7</ele>
        <time>2014-05-04T10:59:25Z</time>
      </trkpt>
      <trkpt lat="44.27949" lon="5.37326">
        <ele>977.6</ele>
        <time>2014-05-04T10:59:33Z</time>
      </trkpt>
      <trkpt lat="44.27945" lon="5.3733">
        <ele>978.3</ele>
        <time>2014-05-04T10:59:44Z</time>
      </trkpt>
      <trkpt lat="44.2794" lon="5.37333">
        <ele>979.5</ele>
        <time>2014-05-04T10:59:49Z</time>
      </trkpt>
      <trkpt lat="44.27935" lon="5.37336">
        <ele>980.4</ele>
        <time>2014-05-04T10:59:54Z</time>
      </trkpt>
      <trkpt lat="44.27927" lon="5.37343">
        <ele>981.7</ele>
        <time>2014-05-04T11:00:09Z</time>
      </trkpt>
      <trkpt lat="44.27922" lon="5.37347">
        <ele>982.2</ele>
        <time>2014-05-04T11:00:17Z</time>
      </trkpt>
      <trkpt lat="44.27918" lon="5.37349">
        <ele>983.3</ele>
        <time>2014-05-04T11:00:25Z</time>
      </trkpt>
      <trkpt lat="44.27913" lon="5.3735">
        <ele>984.3</ele>
        <time>2014-05-04T11:00:33Z</time>
      </trkpt>
      <trkpt lat="44.27908" lon="5.37352">
        <ele>985.5</ele>
        <time>2014-05-04T11:00:40Z</time>
      </trkpt>
      <trkpt lat="44.27903" lon="5.37354">
        <ele>986.7</ele>
        <time>2014-05-04T11:00:47Z</time>
      </trkpt>
      <trkpt lat="44.27899" lon="5.37354">
        <ele>988.1</ele>
        <time>2014-05-04T11:00:53Z</time>
      </trkpt>
      <trkpt lat="44.27896" lon="5.37349">
        <ele>989.9</ele>
        <time>2014-05-04T11:01:01Z</time>
      </trkpt>
      <trkpt lat="44.27916" lon="5.37335">
        <ele>986</ele>
        <time>2014-05-04T11:17:39Z</time>
      </trkpt>
      <trkpt lat="44.27919" lon="5.37326">
        <ele>986.4</ele>
        <time>2014-05-04T11:17:41Z</time>
      </trkpt>
      <trkpt lat="44.27921" lon="5.3732">
        <ele>986.6</ele>
        <time>2014-05-04T11:17:43Z</time>
      </trkpt>
      <trkpt lat="44.27923" lon="5.37313">
        <ele>986.8</ele>
        <time>2014-05-04T11:17:46Z</time>
      </trkpt>
      <trkpt lat="44.27926" lon="5.37305">
        <ele>987.1</ele>
        <time>2014-05-04T11:17:49Z</time>
      </trkpt>
      <trkpt lat="44.27927" lon="5.37298">
        <ele>987.5</ele>
        <time>2014-05-04T11:17:52Z</time>
      </trkpt>
      <trkpt lat="44.27931" lon="5.37289">
        <ele>987.5</ele>
        <time>2014-05-04T11:17:55Z</time>
      </trkpt>
      <trkpt lat="44.27933" lon="5.37282">
        <ele>987.6</ele>
        <time>2014-05-04T11:17:57Z</time>
      </trkpt>
      <trkpt lat="44.27936" lon="5.37275">
        <ele>987.6</ele>
        <time>2014-05-04T11:17:59Z</time>
      </trkpt>
      <trkpt lat="44.27938" lon="5.37269">
        <ele>987.6</ele>
        <time>2014-05-04T11:18:01Z</time>
      </trkpt>
      <trkpt lat="44.27942" lon="5.37263">
        <ele>987.2</ele>
        <time>2014-05-04T11:18:03Z</time>
      </trkpt>
      <trkpt lat="44.27946" lon="5.37256">
        <ele>986.6</ele>
        <time>2014-05-04T11:18:05Z</time>
      </trkpt>
      <trkpt lat="44.27948" lon="5.37247">
        <ele>986.9</ele>
        <time>2014-05-04T11:18:07Z</time>
      </trkpt>
      <trkpt lat="44.27952" lon="5.37238">
        <ele>986.5</ele>
        <time>2014-05-04T11:18:09Z</time>
      </trkpt>
      <trkpt lat="44.27957" lon="5.3723">
        <ele>985.6</ele>
        <time>2014-05-04T11:18:11Z</time>
      </trkpt>
      <trkpt lat="44.27961" lon="5.3722">
        <ele>985.6</ele>
        <time>2014-05-04T11:18:13Z</time>
      </trkpt>
      <trkpt lat="44.27962" lon="5.37209">
        <ele>986</ele>
        <time>2014-05-04T11:18:15Z</time>
      </trkpt>
      <trkpt lat="44.27964" lon="5.37202">
        <ele>986.2</ele>
        <time>2014-05-04T11:18:17Z</time>
      </trkpt>
      <trkpt lat="44.27967" lon="5.37194">
        <ele>986.1</ele>
        <time>2014-05-04T11:18:19Z</time>
      </trkpt>
      <trkpt lat="44.2797" lon="5.37186">
        <ele>986</ele>
        <time>2014-05-04T11:18:21Z</time>
      </trkpt>
      <trkpt lat="44.27972" lon="5.37178">
        <ele>986</ele>
        <time>2014-05-04T11:18:23Z</time>
      </trkpt>
      <trkpt lat="44.27974" lon="5.37171">
        <ele>986.1</ele>
        <time>2014-05-04T11:18:25Z</time>
      </trkpt>
      <trkpt lat="44.27977" lon="5.37163">
        <ele>985.9</ele>
        <time>2014-05-04T11:18:27Z</time>
      </trkpt>
      <trkpt lat="44.27981" lon="5.37154">
        <ele>985.9</ele>
        <time>2014-05-04T11:18:29Z</time>
      </trkpt>
      <trkpt lat="44.27985" lon="5.37145">
        <ele>985.9</ele>
        <time>2014-05-04T11:18:31Z</time>
      </trkpt>
      <trkpt lat="44.27988" lon="5.37136">
        <ele>986</ele>
        <time>2014-05-04T11:18:33Z</time>
      </trkpt>
      <trkpt lat="44.27991" lon="5.37128">
        <ele>986.3</ele>
        <time>2014-05-04T11:18:35Z</time>
      </trkpt>
      <trkpt lat="44.27994" lon="5.37119">
        <ele>986.7</ele>
        <time>2014-05-04T11:18:37Z</time>
      </trkpt>
      <trkpt lat="44.28001" lon="5.37101">
        <ele>987.2</ele>
        <time>2014-05-04T11:18:41Z</time>
      </trkpt>
      <trkpt lat="44.28003" lon="5.37092">
        <ele>987.9</ele>
        <time>2014-05-04T11:18:43Z</time>
      </trkpt>
      <trkpt lat="44.28004" lon="5.37084">
        <ele>988.7</ele>
        <time>2014-05-04T11:18:45Z</time>
      </trkpt>
      <trkpt lat="44.28007" lon="5.37077">
        <ele>989.1</ele>
        <time>2014-05-04T11:18:47Z</time>
      </trkpt>
      <trkpt lat="44.2801" lon="5.3707">
        <ele>989.5</ele>
        <time>2014-05-04T11:18:49Z</time>
      </trkpt>
      <trkpt lat="44.28012" lon="5.37063">
        <ele>989.6</ele>
        <time>2014-05-04T11:18:51Z</time>
      </trkpt>
      <trkpt lat="44.28015" lon="5.37056">
        <ele>990</ele>
        <time>2014-05-04T11:18:53Z</time>
      </trkpt>
      <trkpt lat="44.28017" lon="5.37048">
        <ele>990.8</ele>
        <time>2014-05-04T11:18:55Z</time>
      </trkpt>
      <trkpt lat="44.2802" lon="5.37039">
        <ele>991.3</ele>
        <time>2014-05-04T11:18:57Z</time>
      </trkpt>
      <trkpt lat="44.28023" lon="5.37031">
        <ele>992</ele>
        <time>2014-05-04T11:18:59Z</time>
      </trkpt>
      <trkpt lat="44.28026" lon="5.37024">
        <ele>991.9</ele>
        <time>2014-05-04T11:19:01Z</time>
      </trkpt>
      <trkpt lat="44.28028" lon="5.37015">
        <ele>993</ele>
        <time>2014-05-04T11:19:03Z</time>
      </trkpt>
      <trkpt lat="44.2803" lon="5.37009">
        <ele>993</ele>
        <time>2014-05-04T11:19:05Z</time>
      </trkpt>
      <trkpt lat="44.28033" lon="5.37001">
        <ele>993.5</ele>
        <time>2014-05-04T11:19:08Z</time>
      </trkpt>
      <trkpt lat="44.28035" lon="5.36993">
        <ele>993.7</ele>
        <time>2014-05-04T11:19:10Z</time>
      </trkpt>
      <trkpt lat="44.28039" lon="5.36985">
        <ele>993.3</ele>
        <time>2014-05-04T11:19:12Z</time>
      </trkpt>
      <trkpt lat="44.28043" lon="5.36978">
        <ele>992.8</ele>
        <time>2014-05-04T11:19:14Z</time>
      </trkpt>
      <trkpt lat="44.28046" lon="5.36971">
        <ele>992.6</ele>
        <time>2014-05-04T11:19:16Z</time>
      </trkpt>
      <trkpt lat="44.28049" lon="5.36964">
        <ele>992.3</ele>
        <time>2014-05-04T11:19:18Z</time>
      </trkpt>
      <trkpt lat="44.28051" lon="5.36956">
        <ele>992.7</ele>
        <time>2014-05-04T11:19:20Z</time>
      </trkpt>
      <trkpt lat="44.28052" lon="5.3695">
        <ele>992.9</ele>
        <time>2014-05-04T11:19:22Z</time>
      </trkpt>
      <trkpt lat="44.28054" lon="5.36942">
        <ele>993</ele>
        <time>2014-05-04T11:19:25Z</time>
      </trkpt>
      <trkpt lat="44.28056" lon="5.36934">
        <ele>993.2</ele>
        <time>2014-05-04T11:19:28Z</time>
      </trkpt>
      <trkpt lat="44.28058" lon="5.36927">
        <ele>993.2</ele>
        <time>2014-05-04T11:19:31Z</time>
      </trkpt>
      <trkpt lat="44.28063" lon="5.3692">
        <ele>992.4</ele>
        <time>2014-05-04T11:19:34Z</time>
      </trkpt>
      <trkpt lat="44.28067" lon="5.36914">
        <ele>991.7</ele>
        <time>2014-05-04T11:19:36Z</time>
      </trkpt>
      <trkpt lat="44.28069" lon="5.36907">
        <ele>991.3</ele>
        <time>2014-05-04T11:19:38Z</time>
      </trkpt>
      <trkpt lat="44.28073" lon="5.36894">
        <ele>991.4</ele>
        <time>2014-05-04T11:19:43Z</time>
      </trkpt>
      <trkpt lat="44.28076" lon="5.36887">
        <ele>991.2</ele>
        <time>2014-05-04T11:19:46Z</time>
      </trkpt>
      <trkpt lat="44.28077" lon="5.36879">
        <ele>991.8</ele>
        <time>2014-05-04T11:19:50Z</time>
      </trkpt>
      <trkpt lat="44.28078" lon="5.36872">
        <ele>991.8</ele>
        <time>2014-05-04T11:19:54Z</time>
      </trkpt>
      <trkpt lat="44.2808" lon="5.36866">
        <ele>991.9</ele>
        <time>2014-05-04T11:19:59Z</time>
      </trkpt>
      <trkpt lat="44.28075" lon="5.36852">
        <ele>994.7</ele>
        <time>2014-05-04T11:20:16Z</time>
      </trkpt>
      <trkpt lat="44.28071" lon="5.36846">
        <ele>996.3</ele>
        <time>2014-05-04T11:20:18Z</time>
      </trkpt>
      <trkpt lat="44.28068" lon="5.36839">
        <ele>997.7</ele>
        <time>2014-05-04T11:20:21Z</time>
      </trkpt>
      <trkpt lat="44.28064" lon="5.36832">
        <ele>999.4</ele>
        <time>2014-05-04T11:20:24Z</time>
      </trkpt>
      <trkpt lat="44.28061" lon="5.36827">
        <ele>1000.2</ele>
        <time>2014-05-04T11:20:26Z</time>
      </trkpt>
      <trkpt lat="44.28056" lon="5.36821">
        <ele>1001.1</ele>
        <time>2014-05-04T11:20:29Z</time>
      </trkpt>
      <trkpt lat="44.28052" lon="5.36815">
        <ele>1001.8</ele>
        <time>2014-05-04T11:20:31Z</time>
      </trkpt>
      <trkpt lat="44.28048" lon="5.3681">
        <ele>1002.5</ele>
        <time>2014-05-04T11:20:33Z</time>
      </trkpt>
      <trkpt lat="44.28045" lon="5.36803">
        <ele>1002.8</ele>
        <time>2014-05-04T11:20:35Z</time>
      </trkpt>
      <trkpt lat="44.28041" lon="5.36796">
        <ele>1003.1</ele>
        <time>2014-05-04T11:20:37Z</time>
      </trkpt>
      <trkpt lat="44.28038" lon="5.36791">
        <ele>1003.3</ele>
        <time>2014-05-04T11:20:39Z</time>
      </trkpt>
      <trkpt lat="44.28033" lon="5.3678">
        <ele>1003.3</ele>
        <time>2014-05-04T11:20:43Z</time>
      </trkpt>
      <trkpt lat="44.28029" lon="5.36773">
        <ele>1003</ele>
        <time>2014-05-04T11:20:45Z</time>
      </trkpt>
      <trkpt lat="44.28028" lon="5.36766">
        <ele>1002.6</ele>
        <time>2014-05-04T11:20:47Z</time>
      </trkpt>
      <trkpt lat="44.28024" lon="5.36758">
        <ele>1002.1</ele>
        <time>2014-05-04T11:20:49Z</time>
      </trkpt>
      <trkpt lat="44.28021" lon="5.36748">
        <ele>1001.1</ele>
        <time>2014-05-04T11:20:51Z</time>
      </trkpt>
      <trkpt lat="44.28019" lon="5.36741">
        <ele>1000.4</ele>
        <time>2014-05-04T11:20:53Z</time>
      </trkpt>
      <trkpt lat="44.28017" lon="5.36734">
        <ele>999.7</ele>
        <time>2014-05-04T11:20:55Z</time>
      </trkpt>
      <trkpt lat="44.28013" lon="5.36728">
        <ele>999.1</ele>
        <time>2014-05-04T11:20:57Z</time>
      </trkpt>
      <trkpt lat="44.28011" lon="5.36722">
        <ele>998.4</ele>
        <time>2014-05-04T11:20:59Z</time>
      </trkpt>
      <trkpt lat="44.28009" lon="5.36716">
        <ele>997.8</ele>
        <time>2014-05-04T11:21:01Z</time>
      </trkpt>
      <trkpt lat="44.28008" lon="5.36708">
        <ele>996.7</ele>
        <time>2014-05-04T11:21:04Z</time>
      </trkpt>
      <trkpt lat="44.28006" lon="5.36702">
        <ele>996.2</ele>
        <time>2014-05-04T11:21:07Z</time>
      </trkpt>
      <trkpt lat="44.28005" lon="5.36694">
        <ele>995.2</ele>
        <time>2014-05-04T11:21:11Z</time>
      </trkpt>
      <trkpt lat="44.28004" lon="5.36685">
        <ele>994.1</ele>
        <time>2014-05-04T11:21:14Z</time>
      </trkpt>
      <trkpt lat="44.28002" lon="5.36677">
        <ele>993.1</ele>
        <time>2014-05-04T11:21:16Z</time>
      </trkpt>
      <trkpt lat="44.28001" lon="5.36669">
        <ele>992.3</ele>
        <time>2014-05-04T11:21:18Z</time>
      </trkpt>
      <trkpt lat="44.28" lon="5.36661">
        <ele>991</ele>
        <time>2014-05-04T11:21:20Z</time>
      </trkpt>
      <trkpt lat="44.27998" lon="5.36655">
        <ele>990.6</ele>
        <time>2014-05-04T11:21:22Z</time>
      </trkpt>
      <trkpt lat="44.27995" lon="5.36647">
        <ele>990.2</ele>
        <time>2014-05-04T11:21:24Z</time>
      </trkpt>
      <trkpt lat="44.27992" lon="5.3664">
        <ele>990.6</ele>
        <time>2014-05-04T11:21:26Z</time>
      </trkpt>
      <trkpt lat="44.27989" lon="5.36633">
        <ele>990.9</ele>
        <time>2014-05-04T11:21:28Z</time>
      </trkpt>
      <trkpt lat="44.27985" lon="5.36627">
        <ele>991.3</ele>
        <time>2014-05-04T11:21:30Z</time>
      </trkpt>
      <trkpt lat="44.27981" lon="5.36619">
        <ele>991.7</ele>
        <time>2014-05-04T11:21:33Z</time>
      </trkpt>
      <trkpt lat="44.27978" lon="5.36612">
        <ele>991.6</ele>
        <time>2014-05-04T11:21:35Z</time>
      </trkpt>
      <trkpt lat="44.27975" lon="5.36603">
        <ele>991.7</ele>
        <time>2014-05-04T11:21:37Z</time>
      </trkpt>
      <trkpt lat="44.27971" lon="5.36591">
        <ele>991.2</ele>
        <time>2014-05-04T11:21:39Z</time>
      </trkpt>
      <trkpt lat="44.27969" lon="5.36585">
        <ele>991.2</ele>
        <time>2014-05-04T11:21:40Z</time>
      </trkpt>
      <trkpt lat="44.27964" lon="5.36569">
        <ele>989.8</ele>
        <time>2014-05-04T11:21:43Z</time>
      </trkpt>
      <trkpt lat="44.27958" lon="5.3656">
        <ele>990.5</ele>
        <time>2014-05-04T11:21:45Z</time>
      </trkpt>
      <trkpt lat="44.27952" lon="5.36549">
        <ele>991.2</ele>
        <time>2014-05-04T11:21:47Z</time>
      </trkpt>
      <trkpt lat="44.27947" lon="5.3654">
        <ele>991.9</ele>
        <time>2014-05-04T11:21:49Z</time>
      </trkpt>
      <trkpt lat="44.27942" lon="5.36533">
        <ele>992.7</ele>
        <time>2014-05-04T11:21:51Z</time>
      </trkpt>
      <trkpt lat="44.27939" lon="5.36526">
        <ele>993</ele>
        <time>2014-05-04T11:21:53Z</time>
      </trkpt>
      <trkpt lat="44.27936" lon="5.3652">
        <ele>993.3</ele>
        <time>2014-05-04T11:21:55Z</time>
      </trkpt>
      <trkpt lat="44.27933" lon="5.36515">
        <ele>993.4</ele>
        <time>2014-05-04T11:21:57Z</time>
      </trkpt>
      <trkpt lat="44.27931" lon="5.36507">
        <ele>992.9</ele>
        <time>2014-05-04T11:22:01Z</time>
      </trkpt>
      <trkpt lat="44.27928" lon="5.365">
        <ele>993.1</ele>
        <time>2014-05-04T11:22:04Z</time>
      </trkpt>
      <trkpt lat="44.27925" lon="5.36494">
        <ele>993.7</ele>
        <time>2014-05-04T11:22:07Z</time>
      </trkpt>
      <trkpt lat="44.27923" lon="5.36486">
        <ele>993.1</ele>
        <time>2014-05-04T11:22:11Z</time>
      </trkpt>
      <trkpt lat="44.27923" lon="5.36477">
        <ele>991.5</ele>
        <time>2014-05-04T11:22:14Z</time>
      </trkpt>
      <trkpt lat="44.27921" lon="5.3647">
        <ele>991.8</ele>
        <time>2014-05-04T11:22:16Z</time>
      </trkpt>
      <trkpt lat="44.27916" lon="5.36461">
        <ele>992.8</ele>
        <time>2014-05-04T11:22:18Z</time>
      </trkpt>
      <trkpt lat="44.27912" lon="5.36454">
        <ele>993.6</ele>
        <time>2014-05-04T11:22:20Z</time>
      </trkpt>
      <trkpt lat="44.27909" lon="5.36447">
        <ele>994.1</ele>
        <time>2014-05-04T11:22:23Z</time>
      </trkpt>
      <trkpt lat="44.27906" lon="5.36442">
        <ele>995.2</ele>
        <time>2014-05-04T11:22:26Z</time>
      </trkpt>
      <trkpt lat="44.27903" lon="5.36434">
        <ele>995.4</ele>
        <time>2014-05-04T11:22:30Z</time>
      </trkpt>
      <trkpt lat="44.27903" lon="5.36427">
        <ele>994.6</ele>
        <time>2014-05-04T11:22:35Z</time>
      </trkpt>
      <trkpt lat="44.27902" lon="5.3642">
        <ele>993.7</ele>
        <time>2014-05-04T11:22:39Z</time>
      </trkpt>
      <trkpt lat="44.27901" lon="5.36413">
        <ele>993.4</ele>
        <time>2014-05-04T11:22:43Z</time>
      </trkpt>
      <trkpt lat="44.27896" lon="5.364">
        <ele>994.8</ele>
        <time>2014-05-04T11:22:50Z</time>
      </trkpt>
      <trkpt lat="44.27895" lon="5.36392">
        <ele>994.6</ele>
        <time>2014-05-04T11:22:54Z</time>
      </trkpt>
      <trkpt lat="44.27895" lon="5.36385">
        <ele>993.8</ele>
        <time>2014-05-04T11:22:58Z</time>
      </trkpt>
      <trkpt lat="44.27894" lon="5.36378">
        <ele>993.5</ele>
        <time>2014-05-04T11:23:02Z</time>
      </trkpt>
      <trkpt lat="44.27891" lon="5.36371">
        <ele>994.6</ele>
        <time>2014-05-04T11:23:05Z</time>
      </trkpt>
      <trkpt lat="44.27892" lon="5.36365">
        <ele>993.8</ele>
        <time>2014-05-04T11:23:09Z</time>
      </trkpt>
      <trkpt lat="44.27892" lon="5.36357">
        <ele>992.3</ele>
        <time>2014-05-04T11:23:14Z</time>
      </trkpt>
      <trkpt lat="44.27892" lon="5.36349">
        <ele>992.1</ele>
        <time>2014-05-04T11:23:17Z</time>
      </trkpt>
      <trkpt lat="44.2789" lon="5.36344">
        <ele>992.7</ele>
        <time>2014-05-04T11:23:20Z</time>
      </trkpt>
      <trkpt lat="44.27888" lon="5.36337">
        <ele>992.6</ele>
        <time>2014-05-04T11:23:23Z</time>
      </trkpt>
      <trkpt lat="44.27887" lon="5.3633">
        <ele>992.7</ele>
        <time>2014-05-04T11:23:27Z</time>
      </trkpt>
      <trkpt lat="44.27884" lon="5.36324">
        <ele>993.2</ele>
        <time>2014-05-04T11:23:31Z</time>
      </trkpt>
      <trkpt lat="44.27882" lon="5.36318">
        <ele>994</ele>
        <time>2014-05-04T11:23:34Z</time>
      </trkpt>
      <trkpt lat="44.27879" lon="5.36312">
        <ele>994.5</ele>
        <time>2014-05-04T11:23:38Z</time>
      </trkpt>
      <trkpt lat="44.27877" lon="5.36304">
        <ele>994.7</ele>
        <time>2014-05-04T11:23:42Z</time>
      </trkpt>
      <trkpt lat="44.27876" lon="5.36298">
        <ele>994.5</ele>
        <time>2014-05-04T11:23:44Z</time>
      </trkpt>
      <trkpt lat="44.27868" lon="5.36288">
        <ele>997.5</ele>
        <time>2014-05-04T11:23:50Z</time>
      </trkpt>
      <trkpt lat="44.27864" lon="5.36284">
        <ele>998.9</ele>
        <time>2014-05-04T11:23:52Z</time>
      </trkpt>
      <trkpt lat="44.27858" lon="5.3628">
        <ele>1001.3</ele>
        <time>2014-05-04T11:23:54Z</time>
      </trkpt>
      <trkpt lat="44.27853" lon="5.36278">
        <ele>1003.5</ele>
        <time>2014-05-04T11:23:56Z</time>
      </trkpt>
      <trkpt lat="44.27849" lon="5.36273">
        <ele>1004.7</ele>
        <time>2014-05-04T11:23:58Z</time>
      </trkpt>
      <trkpt lat="44.27845" lon="5.36265">
        <ele>1005.6</ele>
        <time>2014-05-04T11:24:00Z</time>
      </trkpt>
      <trkpt lat="44.2784" lon="5.36258">
        <ele>1007</ele>
        <time>2014-05-04T11:24:02Z</time>
      </trkpt>
      <trkpt lat="44.27834" lon="5.36251">
        <ele>1008.8</ele>
        <time>2014-05-04T11:24:04Z</time>
      </trkpt>
      <trkpt lat="44.27829" lon="5.36247">
        <ele>1009.8</ele>
        <time>2014-05-04T11:24:05Z</time>
      </trkpt>
      <trkpt lat="44.27824" lon="5.36244">
        <ele>1010.9</ele>
        <time>2014-05-04T11:24:06Z</time>
      </trkpt>
      <trkpt lat="44.27819" lon="5.36241">
        <ele>1012.3</ele>
        <time>2014-05-04T11:24:07Z</time>
      </trkpt>
      <trkpt lat="44.27814" lon="5.36239">
        <ele>1013.4</ele>
        <time>2014-05-04T11:24:08Z</time>
      </trkpt>
      <trkpt lat="44.27809" lon="5.36237">
        <ele>1014.7</ele>
        <time>2014-05-04T11:24:09Z</time>
      </trkpt>
      <trkpt lat="44.27804" lon="5.36236">
        <ele>1015.9</ele>
        <time>2014-05-04T11:24:10Z</time>
      </trkpt>
      <trkpt lat="44.27797" lon="5.36234">
        <ele>1017.8</ele>
        <time>2014-05-04T11:24:12Z</time>
      </trkpt>
      <trkpt lat="44.2779" lon="5.36234">
        <ele>1019.8</ele>
        <time>2014-05-04T11:24:14Z</time>
      </trkpt>
      <trkpt lat="44.27786" lon="5.36234">
        <ele>1021.1</ele>
        <time>2014-05-04T11:24:16Z</time>
      </trkpt>
      <trkpt lat="44.27781" lon="5.36232">
        <ele>1022.4</ele>
        <time>2014-05-04T11:24:18Z</time>
      </trkpt>
      <trkpt lat="44.27776" lon="5.36231">
        <ele>1023.6</ele>
        <time>2014-05-04T11:24:20Z</time>
      </trkpt>
      <trkpt lat="44.27771" lon="5.36231">
        <ele>1025</ele>
        <time>2014-05-04T11:24:22Z</time>
      </trkpt>
      <trkpt lat="44.27766" lon="5.36231">
        <ele>1026.5</ele>
        <time>2014-05-04T11:24:24Z</time>
      </trkpt>
      <trkpt lat="44.2776" lon="5.3623">
        <ele>1028.1</ele>
        <time>2014-05-04T11:24:27Z</time>
      </trkpt>
      <trkpt lat="44.27755" lon="5.3623">
        <ele>1029.4</ele>
        <time>2014-05-04T11:24:29Z</time>
      </trkpt>
      <trkpt lat="44.27751" lon="5.36226">
        <ele>1030.4</ele>
        <time>2014-05-04T11:24:31Z</time>
      </trkpt>
      <trkpt lat="44.27747" lon="5.36221">
        <ele>1030.5</ele>
        <time>2014-05-04T11:24:33Z</time>
      </trkpt>
      <trkpt lat="44.27745" lon="5.36215">
        <ele>1030.3</ele>
        <time>2014-05-04T11:24:35Z</time>
      </trkpt>
      <trkpt lat="44.27742" lon="5.3621">
        <ele>1030.2</ele>
        <time>2014-05-04T11:24:38Z</time>
      </trkpt>
      <trkpt lat="44.27745" lon="5.36201">
        <ele>1029</ele>
        <time>2014-05-04T11:24:41Z</time>
      </trkpt>
      <trkpt lat="44.27745" lon="5.36194">
        <ele>1028.3</ele>
        <time>2014-05-04T11:24:43Z</time>
      </trkpt>
      <trkpt lat="44.27746" lon="5.36186">
        <ele>1027.4</ele>
        <time>2014-05-04T11:24:46Z</time>
      </trkpt>
      <trkpt lat="44.27746" lon="5.36171">
        <ele>1025.9</ele>
        <time>2014-05-04T11:24:52Z</time>
      </trkpt>
      <trkpt lat="44.27747" lon="5.36163">
        <ele>1026</ele>
        <time>2014-05-04T11:24:55Z</time>
      </trkpt>
      <trkpt lat="44.27748" lon="5.36156">
        <ele>1026.9</ele>
        <time>2014-05-04T11:24:58Z</time>
      </trkpt>
      <trkpt lat="44.2775" lon="5.36149">
        <ele>1027.6</ele>
        <time>2014-05-04T11:25:01Z</time>
      </trkpt>
      <trkpt lat="44.27752" lon="5.36143">
        <ele>1027.9</ele>
        <time>2014-05-04T11:25:04Z</time>
      </trkpt>
      <trkpt lat="44.27755" lon="5.36136">
        <ele>1028.1</ele>
        <time>2014-05-04T11:25:07Z</time>
      </trkpt>
      <trkpt lat="44.27757" lon="5.36129">
        <ele>1028.5</ele>
        <time>2014-05-04T11:25:10Z</time>
      </trkpt>
      <trkpt lat="44.27759" lon="5.36123">
        <ele>1028.9</ele>
        <time>2014-05-04T11:25:13Z</time>
      </trkpt>
      <trkpt lat="44.27761" lon="5.36117">
        <ele>1029</ele>
        <time>2014-05-04T11:25:16Z</time>
      </trkpt>
      <trkpt lat="44.27763" lon="5.36111">
        <ele>1029.4</ele>
        <time>2014-05-04T11:25:19Z</time>
      </trkpt>
      <trkpt lat="44.27766" lon="5.36104">
        <ele>1029.6</ele>
        <time>2014-05-04T11:25:23Z</time>
      </trkpt>
      <trkpt lat="44.2777" lon="5.36101">
        <ele>1029.1</ele>
        <time>2014-05-04T11:25:26Z</time>
      </trkpt>
      <trkpt lat="44.27773" lon="5.36096">
        <ele>1028.9</ele>
        <time>2014-05-04T11:25:29Z</time>
      </trkpt>
      <trkpt lat="44.27776" lon="5.3609">
        <ele>1028.8</ele>
        <time>2014-05-04T11:25:32Z</time>
      </trkpt>
      <trkpt lat="44.27779" lon="5.36084">
        <ele>1028.9</ele>
        <time>2014-05-04T11:25:36Z</time>
      </trkpt>
      <trkpt lat="44.27783" lon="5.36078">
        <ele>1029</ele>
        <time>2014-05-04T11:25:40Z</time>
      </trkpt>
      <trkpt lat="44.27785" lon="5.36071">
        <ele>1029.4</ele>
        <time>2014-05-04T11:25:44Z</time>
      </trkpt>
      <trkpt lat="44.27787" lon="5.36063">
        <ele>1030.2</ele>
        <time>2014-05-04T11:25:48Z</time>
      </trkpt>
      <trkpt lat="44.27792" lon="5.36049">
        <ele>1031.6</ele>
        <time>2014-05-04T11:25:56Z</time>
      </trkpt>
      <trkpt lat="44.27795" lon="5.36042">
        <ele>1032.2</ele>
        <time>2014-05-04T11:26:00Z</time>
      </trkpt>
      <trkpt lat="44.27797" lon="5.36034">
        <ele>1033.1</ele>
        <time>2014-05-04T11:26:04Z</time>
      </trkpt>
      <trkpt lat="44.27799" lon="5.36027">
        <ele>1034.2</ele>
        <time>2014-05-04T11:26:08Z</time>
      </trkpt>
      <trkpt lat="44.27802" lon="5.3602">
        <ele>1035</ele>
        <time>2014-05-04T11:26:12Z</time>
      </trkpt>
      <trkpt lat="44.27805" lon="5.36014">
        <ele>1035.8</ele>
        <time>2014-05-04T11:26:16Z</time>
      </trkpt>
      <trkpt lat="44.27809" lon="5.3601">
        <ele>1036</ele>
        <time>2014-05-04T11:26:19Z</time>
      </trkpt>
      <trkpt lat="44.27813" lon="5.36006">
        <ele>1036.3</ele>
        <time>2014-05-04T11:26:22Z</time>
      </trkpt>
      <trkpt lat="44.27818" lon="5.36001">
        <ele>1036.6</ele>
        <time>2014-05-04T11:26:26Z</time>
      </trkpt>
      <trkpt lat="44.27821" lon="5.35997">
        <ele>1037.1</ele>
        <time>2014-05-04T11:26:29Z</time>
      </trkpt>
      <trkpt lat="44.27824" lon="5.35992">
        <ele>1037.5</ele>
        <time>2014-05-04T11:26:32Z</time>
      </trkpt>
      <trkpt lat="44.27829" lon="5.35986">
        <ele>1037.9</ele>
        <time>2014-05-04T11:26:36Z</time>
      </trkpt>
      <trkpt lat="44.27834" lon="5.35984">
        <ele>1037.7</ele>
        <time>2014-05-04T11:26:39Z</time>
      </trkpt>
      <trkpt lat="44.27839" lon="5.35981">
        <ele>1035</ele>
        <time>2014-05-04T11:26:42Z</time>
      </trkpt>
      <trkpt lat="44.27843" lon="5.35979">
        <ele>1033.1</ele>
        <time>2014-05-04T11:26:45Z</time>
      </trkpt>
      <trkpt lat="44.27847" lon="5.35976">
        <ele>1031.4</ele>
        <time>2014-05-04T11:26:48Z</time>
      </trkpt>
      <trkpt lat="44.27851" lon="5.35972">
        <ele>1029.9</ele>
        <time>2014-05-04T11:26:51Z</time>
      </trkpt>
      <trkpt lat="44.27858" lon="5.35961">
        <ele>1028.3</ele>
        <time>2014-05-04T11:26:59Z</time>
      </trkpt>
      <trkpt lat="44.27861" lon="5.35955">
        <ele>1027.6</ele>
        <time>2014-05-04T11:27:03Z</time>
      </trkpt>
      <trkpt lat="44.27864" lon="5.35949">
        <ele>1027.2</ele>
        <time>2014-05-04T11:27:07Z</time>
      </trkpt>
      <trkpt lat="44.27867" lon="5.35943">
        <ele>1026.4</ele>
        <time>2014-05-04T11:27:11Z</time>
      </trkpt>
      <trkpt lat="44.27871" lon="5.35937">
        <ele>1025.6</ele>
        <time>2014-05-04T11:27:15Z</time>
      </trkpt>
      <trkpt lat="44.27875" lon="5.35934">
        <ele>1023.7</ele>
        <time>2014-05-04T11:27:19Z</time>
      </trkpt>
      <trkpt lat="44.2788" lon="5.35929">
        <ele>1022.4</ele>
        <time>2014-05-04T11:27:24Z</time>
      </trkpt>
      <trkpt lat="44.27883" lon="5.35924">
        <ele>1021.6</ele>
        <time>2014-05-04T11:27:28Z</time>
      </trkpt>
      <trkpt lat="44.27887" lon="5.3592">
        <ele>1020.3</ele>
        <time>2014-05-04T11:27:32Z</time>
      </trkpt>
      <trkpt lat="44.27906" lon="5.35865">
        <ele>1018.6</ele>
        <time>2014-05-04T11:29:01Z</time>
      </trkpt>
      <trkpt lat="44.27915" lon="5.35839">
        <ele>1018</ele>
        <time>2014-05-04T11:29:09Z</time>
      </trkpt>
      <trkpt lat="44.27918" lon="5.35831">
        <ele>1017.4</ele>
        <time>2014-05-04T11:29:12Z</time>
      </trkpt>
      <trkpt lat="44.27921" lon="5.35824">
        <ele>1017.1</ele>
        <time>2014-05-04T11:29:15Z</time>
      </trkpt>
      <trkpt lat="44.27923" lon="5.35816">
        <ele>1016.6</ele>
        <time>2014-05-04T11:29:18Z</time>
      </trkpt>
      <trkpt lat="44.27925" lon="5.3581">
        <ele>1016.4</ele>
        <time>2014-05-04T11:29:21Z</time>
      </trkpt>
      <trkpt lat="44.27926" lon="5.35804">
        <ele>1016.3</ele>
        <time>2014-05-04T11:29:24Z</time>
      </trkpt>
      <trkpt lat="44.27928" lon="5.35797">
        <ele>1016.1</ele>
        <time>2014-05-04T11:29:31Z</time>
      </trkpt>
      <trkpt lat="44.2793" lon="5.35791">
        <ele>1015.1</ele>
        <time>2014-05-04T11:29:35Z</time>
      </trkpt>
      <trkpt lat="44.27933" lon="5.35786">
        <ele>1014.1</ele>
        <time>2014-05-04T11:29:38Z</time>
      </trkpt>
      <trkpt lat="44.27934" lon="5.35778">
        <ele>1014</ele>
        <time>2014-05-04T11:29:42Z</time>
      </trkpt>
      <trkpt lat="44.27936" lon="5.35771">
        <ele>1013.6</ele>
        <time>2014-05-04T11:29:46Z</time>
      </trkpt>
      <trkpt lat="44.27938" lon="5.35765">
        <ele>1012.9</ele>
        <time>2014-05-04T11:29:49Z</time>
      </trkpt>
      <trkpt lat="44.2794" lon="5.35758">
        <ele>1011.6</ele>
        <time>2014-05-04T11:29:52Z</time>
      </trkpt>
      <trkpt lat="44.27942" lon="5.35751">
        <ele>1011.3</ele>
        <time>2014-05-04T11:29:56Z</time>
      </trkpt>
      <trkpt lat="44.27944" lon="5.35744">
        <ele>1009.8</ele>
        <time>2014-05-04T11:30:00Z</time>
      </trkpt>
      <trkpt lat="44.27947" lon="5.35737">
        <ele>1008</ele>
        <time>2014-05-04T11:30:04Z</time>
      </trkpt>
      <trkpt lat="44.27949" lon="5.3573">
        <ele>1006.5</ele>
        <time>2014-05-04T11:30:08Z</time>
      </trkpt>
      <trkpt lat="44.27953" lon="5.35717">
        <ele>1004.2</ele>
        <time>2014-05-04T11:30:14Z</time>
      </trkpt>
      <trkpt lat="44.27955" lon="5.35711">
        <ele>1002.9</ele>
        <time>2014-05-04T11:30:17Z</time>
      </trkpt>
      <trkpt lat="44.27957" lon="5.35704">
        <ele>1001.3</ele>
        <time>2014-05-04T11:30:21Z</time>
      </trkpt>
      <trkpt lat="44.27958" lon="5.35697">
        <ele>1000.6</ele>
        <time>2014-05-04T11:30:25Z</time>
      </trkpt>
      <trkpt lat="44.2796" lon="5.3569">
        <ele>999.8</ele>
        <time>2014-05-04T11:30:29Z</time>
      </trkpt>
      <trkpt lat="44.2796" lon="5.35683">
        <ele>999.6</ele>
        <time>2014-05-04T11:30:33Z</time>
      </trkpt>
      <trkpt lat="44.27962" lon="5.35675">
        <ele>998.5</ele>
        <time>2014-05-04T11:30:37Z</time>
      </trkpt>
      <trkpt lat="44.27963" lon="5.35669">
        <ele>997.7</ele>
        <time>2014-05-04T11:30:40Z</time>
      </trkpt>
      <trkpt lat="44.27964" lon="5.35662">
        <ele>996.8</ele>
        <time>2014-05-04T11:30:43Z</time>
      </trkpt>
      <trkpt lat="44.27966" lon="5.35655">
        <ele>995.9</ele>
        <time>2014-05-04T11:30:46Z</time>
      </trkpt>
      <trkpt lat="44.27966" lon="5.35647">
        <ele>995.5</ele>
        <time>2014-05-04T11:30:49Z</time>
      </trkpt>
      <trkpt lat="44.27965" lon="5.3564">
        <ele>996.9</ele>
        <time>2014-05-04T11:30:53Z</time>
      </trkpt>
      <trkpt lat="44.27966" lon="5.35631">
        <ele>996</ele>
        <time>2014-05-04T11:33:26Z</time>
      </trkpt>
      <trkpt lat="44.27974" lon="5.35615">
        <ele>990.2</ele>
        <time>2014-05-04T11:33:30Z</time>
      </trkpt>
      <trkpt lat="44.27975" lon="5.35609">
        <ele>989</ele>
        <time>2014-05-04T11:33:31Z</time>
      </trkpt>
      <trkpt lat="44.27977" lon="5.35601">
        <ele>987.7</ele>
        <time>2014-05-04T11:33:32Z</time>
      </trkpt>
      <trkpt lat="44.27978" lon="5.35594">
        <ele>986.5</ele>
        <time>2014-05-04T11:33:33Z</time>
      </trkpt>
      <trkpt lat="44.2798" lon="5.35587">
        <ele>985.3</ele>
        <time>2014-05-04T11:33:34Z</time>
      </trkpt>
      <trkpt lat="44.27982" lon="5.3558">
        <ele>984.1</ele>
        <time>2014-05-04T11:33:35Z</time>
      </trkpt>
      <trkpt lat="44.27983" lon="5.35572">
        <ele>983.3</ele>
        <time>2014-05-04T11:33:36Z</time>
      </trkpt>
      <trkpt lat="44.27984" lon="5.35564">
        <ele>983.1</ele>
        <time>2014-05-04T11:33:37Z</time>
      </trkpt>
      <trkpt lat="44.27985" lon="5.35556">
        <ele>982.6</ele>
        <time>2014-05-04T11:33:38Z</time>
      </trkpt>
      <trkpt lat="44.27986" lon="5.35547">
        <ele>981.9</ele>
        <time>2014-05-04T11:33:39Z</time>
      </trkpt>
      <trkpt lat="44.27987" lon="5.35539">
        <ele>981.1</ele>
        <time>2014-05-04T11:33:40Z</time>
      </trkpt>
      <trkpt lat="44.27988" lon="5.35531">
        <ele>980.6</ele>
        <time>2014-05-04T11:33:41Z</time>
      </trkpt>
      <trkpt lat="44.2799" lon="5.35522">
        <ele>979.9</ele>
        <time>2014-05-04T11:33:42Z</time>
      </trkpt>
      <trkpt lat="44.27991" lon="5.35513">
        <ele>979.5</ele>
        <time>2014-05-04T11:33:43Z</time>
      </trkpt>
      <trkpt lat="44.27992" lon="5.35505">
        <ele>979</ele>
        <time>2014-05-04T11:33:44Z</time>
      </trkpt>
      <trkpt lat="44.27993" lon="5.35498">
        <ele>978.3</ele>
        <time>2014-05-04T11:33:45Z</time>
      </trkpt>
      <trkpt lat="44.27994" lon="5.35491">
        <ele>977.6</ele>
        <time>2014-05-04T11:33:46Z</time>
      </trkpt>
      <trkpt lat="44.27995" lon="5.35483">
        <ele>977.7</ele>
        <time>2014-05-04T11:33:47Z</time>
      </trkpt>
      <trkpt lat="44.27995" lon="5.35476">
        <ele>977.7</ele>
        <time>2014-05-04T11:33:48Z</time>
      </trkpt>
      <trkpt lat="44.27996" lon="5.35469">
        <ele>977.9</ele>
        <time>2014-05-04T11:33:49Z</time>
      </trkpt>
      <trkpt lat="44.27996" lon="5.35462">
        <ele>978.1</ele>
        <time>2014-05-04T11:33:50Z</time>
      </trkpt>
      <trkpt lat="44.27996" lon="5.35455">
        <ele>978.3</ele>
        <time>2014-05-04T11:33:51Z</time>
      </trkpt>
      <trkpt lat="44.27996" lon="5.35448">
        <ele>979.2</ele>
        <time>2014-05-04T11:33:52Z</time>
      </trkpt>
      <trkpt lat="44.27995" lon="5.35441">
        <ele>980.2</ele>
        <time>2014-05-04T11:33:53Z</time>
      </trkpt>
      <trkpt lat="44.27995" lon="5.35435">
        <ele>981.1</ele>
        <time>2014-05-04T11:33:54Z</time>
      </trkpt>
      <trkpt lat="44.27995" lon="5.35424">
        <ele>982</ele>
        <time>2014-05-04T11:33:56Z</time>
      </trkpt>
      <trkpt lat="44.27995" lon="5.35415">
        <ele>982.8</ele>
        <time>2014-05-04T11:33:58Z</time>
      </trkpt>
      <trkpt lat="44.27994" lon="5.35409">
        <ele>983.2</ele>
        <time>2014-05-04T11:34:00Z</time>
      </trkpt>
      <trkpt lat="44.27994" lon="5.354">
        <ele>984.5</ele>
        <time>2014-05-04T11:34:03Z</time>
      </trkpt>
      <trkpt lat="44.27992" lon="5.35393">
        <ele>986.3</ele>
        <time>2014-05-04T11:34:06Z</time>
      </trkpt>
      <trkpt lat="44.2799" lon="5.35385">
        <ele>987.8</ele>
        <time>2014-05-04T11:34:09Z</time>
      </trkpt>
      <trkpt lat="44.27991" lon="5.35378">
        <ele>987.4</ele>
        <time>2014-05-04T11:34:12Z</time>
      </trkpt>
      <trkpt lat="44.27992" lon="5.3537">
        <ele>987.5</ele>
        <time>2014-05-04T11:34:15Z</time>
      </trkpt>
      <trkpt lat="44.27992" lon="5.35362">
        <ele>988</ele>
        <time>2014-05-04T11:34:18Z</time>
      </trkpt>
      <trkpt lat="44.27991" lon="5.35355">
        <ele>988.9</ele>
        <time>2014-05-04T11:34:21Z</time>
      </trkpt>
      <trkpt lat="44.2799" lon="5.35348">
        <ele>989.8</ele>
        <time>2014-05-04T11:34:24Z</time>
      </trkpt>
      <trkpt lat="44.27989" lon="5.35341">
        <ele>991.2</ele>
        <time>2014-05-04T11:34:27Z</time>
      </trkpt>
      <trkpt lat="44.27988" lon="5.35334">
        <ele>992.4</ele>
        <time>2014-05-04T11:34:30Z</time>
      </trkpt>
      <trkpt lat="44.27986" lon="5.3532">
        <ele>995.4</ele>
        <time>2014-05-04T11:34:37Z</time>
      </trkpt>
      <trkpt lat="44.27986" lon="5.35312">
        <ele>996.4</ele>
        <time>2014-05-04T11:34:41Z</time>
      </trkpt>
      <trkpt lat="44.27986" lon="5.35304">
        <ele>997.1</ele>
        <time>2014-05-04T11:34:45Z</time>
      </trkpt>
      <trkpt lat="44.27985" lon="5.35296">
        <ele>998.6</ele>
        <time>2014-05-04T11:34:49Z</time>
      </trkpt>
      <trkpt lat="44.27984" lon="5.35289">
        <ele>999.8</ele>
        <time>2014-05-04T11:34:53Z</time>
      </trkpt>
      <trkpt lat="44.27983" lon="5.35283">
        <ele>1000.7</ele>
        <time>2014-05-04T11:34:56Z</time>
      </trkpt>
      <trkpt lat="44.27983" lon="5.35274">
        <ele>1001.8</ele>
        <time>2014-05-04T11:35:00Z</time>
      </trkpt>
      <trkpt lat="44.27983" lon="5.35266">
        <ele>1002.7</ele>
        <time>2014-05-04T11:35:03Z</time>
      </trkpt>
      <trkpt lat="44.27982" lon="5.35258">
        <ele>1003.7</ele>
        <time>2014-05-04T11:35:06Z</time>
      </trkpt>
      <trkpt lat="44.27983" lon="5.3525">
        <ele>1004.1</ele>
        <time>2014-05-04T11:35:09Z</time>
      </trkpt>
      <trkpt lat="44.27983" lon="5.35243">
        <ele>1004</ele>
        <time>2014-05-04T11:35:12Z</time>
      </trkpt>
      <trkpt lat="44.27984" lon="5.35236">
        <ele>1003.8</ele>
        <time>2014-05-04T11:35:15Z</time>
      </trkpt>
      <trkpt lat="44.27985" lon="5.35229">
        <ele>1003.5</ele>
        <time>2014-05-04T11:35:18Z</time>
      </trkpt>
      <trkpt lat="44.27986" lon="5.35222">
        <ele>1003.3</ele>
        <time>2014-05-04T11:35:21Z</time>
      </trkpt>
      <trkpt lat="44.27987" lon="5.35214">
        <ele>1003</ele>
        <time>2014-05-04T11:35:24Z</time>
      </trkpt>
      <trkpt lat="44.27987" lon="5.35207">
        <ele>1003.1</ele>
        <time>2014-05-04T11:35:27Z</time>
      </trkpt>
      <trkpt lat="44.27987" lon="5.352">
        <ele>1003.6</ele>
        <time>2014-05-04T11:35:30Z</time>
      </trkpt>
      <trkpt lat="44.27988" lon="5.35192">
        <ele>1003</ele>
        <time>2014-05-04T11:35:33Z</time>
      </trkpt>
      <trkpt lat="44.27991" lon="5.35178">
        <ele>1001.7</ele>
        <time>2014-05-04T11:35:39Z</time>
      </trkpt>
      <trkpt lat="44.27992" lon="5.3517">
        <ele>1001.1</ele>
        <time>2014-05-04T11:35:42Z</time>
      </trkpt>
      <trkpt lat="44.27993" lon="5.35164">
        <ele>1000.9</ele>
        <time>2014-05-04T11:35:45Z</time>
      </trkpt>
      <trkpt lat="44.27995" lon="5.35156">
        <ele>1000.3</ele>
        <time>2014-05-04T11:35:49Z</time>
      </trkpt>
      <trkpt lat="44.27997" lon="5.3515">
        <ele>999.1</ele>
        <time>2014-05-04T11:35:52Z</time>
      </trkpt>
      <trkpt lat="44.27999" lon="5.35143">
        <ele>999</ele>
        <time>2014-05-04T11:35:55Z</time>
      </trkpt>
      <trkpt lat="44.28" lon="5.35136">
        <ele>999</ele>
        <time>2014-05-04T11:35:58Z</time>
      </trkpt>
      <trkpt lat="44.28001" lon="5.3513">
        <ele>998.7</ele>
        <time>2014-05-04T11:36:01Z</time>
      </trkpt>
      <trkpt lat="44.28001" lon="5.35123">
        <ele>999.6</ele>
        <time>2014-05-04T11:36:04Z</time>
      </trkpt>
      <trkpt lat="44.28001" lon="5.35117">
        <ele>1000.4</ele>
        <time>2014-05-04T11:36:07Z</time>
      </trkpt>
      <trkpt lat="44.28001" lon="5.35109">
        <ele>1001.1</ele>
        <time>2014-05-04T11:36:10Z</time>
      </trkpt>
      <trkpt lat="44.28001" lon="5.35101">
        <ele>1002.3</ele>
        <time>2014-05-04T11:36:13Z</time>
      </trkpt>
      <trkpt lat="44.28" lon="5.35092">
        <ele>1003.7</ele>
        <time>2014-05-04T11:36:16Z</time>
      </trkpt>
      <trkpt lat="44.28" lon="5.35083">
        <ele>1005.2</ele>
        <time>2014-05-04T11:36:19Z</time>
      </trkpt>
      <trkpt lat="44.28" lon="5.35074">
        <ele>1006.4</ele>
        <time>2014-05-04T11:36:22Z</time>
      </trkpt>
      <trkpt lat="44.28" lon="5.35066">
        <ele>1007.5</ele>
        <time>2014-05-04T11:36:25Z</time>
      </trkpt>
      <trkpt lat="44.28" lon="5.35059">
        <ele>1008.5</ele>
        <time>2014-05-04T11:36:28Z</time>
      </trkpt>
      <trkpt lat="44.28" lon="5.35051">
        <ele>1009.3</ele>
        <time>2014-05-04T11:36:31Z</time>
      </trkpt>
      <trkpt lat="44.27999" lon="5.35043">
        <ele>1010.8</ele>
        <time>2014-05-04T11:36:34Z</time>
      </trkpt>
      <trkpt lat="44.27999" lon="5.35026">
        <ele>1013.4</ele>
        <time>2014-05-04T11:36:40Z</time>
      </trkpt>
      <trkpt lat="44.27998" lon="5.35019">
        <ele>1014.8</ele>
        <time>2014-05-04T11:36:43Z</time>
      </trkpt>
      <trkpt lat="44.27998" lon="5.35011">
        <ele>1016.1</ele>
        <time>2014-05-04T11:36:46Z</time>
      </trkpt>
      <trkpt lat="44.27997" lon="5.35002">
        <ele>1017.6</ele>
        <time>2014-05-04T11:36:49Z</time>
      </trkpt>
      <trkpt lat="44.27996" lon="5.34993">
        <ele>1018</ele>
        <time>2014-05-04T11:36:52Z</time>
      </trkpt>
      <trkpt lat="44.27994" lon="5.34984">
        <ele>1018.8</ele>
        <time>2014-05-04T11:36:55Z</time>
      </trkpt>
      <trkpt lat="44.27993" lon="5.34976">
        <ele>1019.5</ele>
        <time>2014-05-04T11:36:57Z</time>
      </trkpt>
      <trkpt lat="44.27991" lon="5.34968">
        <ele>1019.9</ele>
        <time>2014-05-04T11:36:59Z</time>
      </trkpt>
      <trkpt lat="44.27991" lon="5.3496">
        <ele>1020</ele>
        <time>2014-05-04T11:37:01Z</time>
      </trkpt>
      <trkpt lat="44.27991" lon="5.34951">
        <ele>1019.6</ele>
        <time>2014-05-04T11:37:04Z</time>
      </trkpt>
      <trkpt lat="44.27992" lon="5.34943">
        <ele>1018.6</ele>
        <time>2014-05-04T11:37:07Z</time>
      </trkpt>
      <trkpt lat="44.27993" lon="5.34935">
        <ele>1017.5</ele>
        <time>2014-05-04T11:37:10Z</time>
      </trkpt>
      <trkpt lat="44.27994" lon="5.34927">
        <ele>1016.4</ele>
        <time>2014-05-04T11:37:13Z</time>
      </trkpt>
      <trkpt lat="44.27994" lon="5.34918">
        <ele>1015.6</ele>
        <time>2014-05-04T11:37:16Z</time>
      </trkpt>
      <trkpt lat="44.27994" lon="5.34909">
        <ele>1015.5</ele>
        <time>2014-05-04T11:37:19Z</time>
      </trkpt>
      <trkpt lat="44.27994" lon="5.34903">
        <ele>1015.5</ele>
        <time>2014-05-04T11:37:21Z</time>
      </trkpt>
      <trkpt lat="44.27993" lon="5.34896">
        <ele>1015.5</ele>
        <time>2014-05-04T11:37:23Z</time>
      </trkpt>
      <trkpt lat="44.27993" lon="5.34888">
        <ele>1015.7</ele>
        <time>2014-05-04T11:37:25Z</time>
      </trkpt>
      <trkpt lat="44.27993" lon="5.3488">
        <ele>1015.4</ele>
        <time>2014-05-04T11:37:27Z</time>
      </trkpt>
      <trkpt lat="44.27993" lon="5.34873">
        <ele>1015.2</ele>
        <time>2014-05-04T11:37:29Z</time>
      </trkpt>
      <trkpt lat="44.27994" lon="5.34867">
        <ele>1014.3</ele>
        <time>2014-05-04T11:37:31Z</time>
      </trkpt>
      <trkpt lat="44.27995" lon="5.3486">
        <ele>1013.4</ele>
        <time>2014-05-04T11:37:33Z</time>
      </trkpt>
      <trkpt lat="44.27996" lon="5.34853">
        <ele>1012.3</ele>
        <time>2014-05-04T11:37:35Z</time>
      </trkpt>
      <trkpt lat="44.27998" lon="5.3484">
        <ele>1010.5</ele>
        <time>2014-05-04T11:37:39Z</time>
      </trkpt>
      <trkpt lat="44.27999" lon="5.34833">
        <ele>1009.5</ele>
        <time>2014-05-04T11:37:41Z</time>
      </trkpt>
      <trkpt lat="44.28" lon="5.34826">
        <ele>1009.4</ele>
        <time>2014-05-04T11:37:43Z</time>
      </trkpt>
      <trkpt lat="44.28" lon="5.3482">
        <ele>1009.5</ele>
        <time>2014-05-04T11:37:45Z</time>
      </trkpt>
      <trkpt lat="44.28001" lon="5.34813">
        <ele>1009.3</ele>
        <time>2014-05-04T11:37:47Z</time>
      </trkpt>
      <trkpt lat="44.28002" lon="5.34804">
        <ele>1009.1</ele>
        <time>2014-05-04T11:37:50Z</time>
      </trkpt>
      <trkpt lat="44.28003" lon="5.34798">
        <ele>1009.3</ele>
        <time>2014-05-04T11:37:52Z</time>
      </trkpt>
      <trkpt lat="44.28002" lon="5.3479">
        <ele>1010</ele>
        <time>2014-05-04T11:37:54Z</time>
      </trkpt>
      <trkpt lat="44.28001" lon="5.3478">
        <ele>1011.2</ele>
        <time>2014-05-04T11:37:56Z</time>
      </trkpt>
      <trkpt lat="44.27999" lon="5.34769">
        <ele>1012.7</ele>
        <time>2014-05-04T11:37:58Z</time>
      </trkpt>
      <trkpt lat="44.27997" lon="5.34757">
        <ele>1014.3</ele>
        <time>2014-05-04T11:38:00Z</time>
      </trkpt>
      <trkpt lat="44.27997" lon="5.3475">
        <ele>1014.6</ele>
        <time>2014-05-04T11:38:01Z</time>
      </trkpt>
      <trkpt lat="44.27997" lon="5.34744">
        <ele>1015</ele>
        <time>2014-05-04T11:38:02Z</time>
      </trkpt>
      <trkpt lat="44.27998" lon="5.34737">
        <ele>1015.2</ele>
        <time>2014-05-04T11:38:03Z</time>
      </trkpt>
      <trkpt lat="44.27998" lon="5.34731">
        <ele>1015.3</ele>
        <time>2014-05-04T11:38:04Z</time>
      </trkpt>
      <trkpt lat="44.27998" lon="5.34724">
        <ele>1015.7</ele>
        <time>2014-05-04T11:38:05Z</time>
      </trkpt>
      <trkpt lat="44.27998" lon="5.34717">
        <ele>1016.4</ele>
        <time>2014-05-04T11:38:06Z</time>
      </trkpt>
      <trkpt lat="44.27998" lon="5.3471">
        <ele>1016.7</ele>
        <time>2014-05-04T11:38:07Z</time>
      </trkpt>
      <trkpt lat="44.27998" lon="5.34702">
        <ele>1017</ele>
        <time>2014-05-04T11:38:08Z</time>
      </trkpt>
      <trkpt lat="44.27999" lon="5.34695">
        <ele>1016.8</ele>
        <time>2014-05-04T11:38:09Z</time>
      </trkpt>
      <trkpt lat="44.28001" lon="5.34689">
        <ele>1016.3</ele>
        <time>2014-05-04T11:38:10Z</time>
      </trkpt>
      <trkpt lat="44.28004" lon="5.34679">
        <ele>1014.3</ele>
        <time>2014-05-04T11:38:12Z</time>
      </trkpt>
      <trkpt lat="44.28008" lon="5.34672">
        <ele>1012.6</ele>
        <time>2014-05-04T11:38:14Z</time>
      </trkpt>
      <trkpt lat="44.2801" lon="5.34666">
        <ele>1011.2</ele>
        <time>2014-05-04T11:38:16Z</time>
      </trkpt>
      <trkpt lat="44.28012" lon="5.34661">
        <ele>1010.3</ele>
        <time>2014-05-04T11:38:18Z</time>
      </trkpt>
      <trkpt lat="44.28014" lon="5.34652">
        <ele>1010.1</ele>
        <time>2014-05-04T11:38:21Z</time>
      </trkpt>
      <trkpt lat="44.28014" lon="5.34644">
        <ele>1010.5</ele>
        <time>2014-05-04T11:38:23Z</time>
      </trkpt>
      <trkpt lat="44.28014" lon="5.34637">
        <ele>1010.9</ele>
        <time>2014-05-04T11:38:25Z</time>
      </trkpt>
      <trkpt lat="44.28014" lon="5.34628">
        <ele>1011.5</ele>
        <time>2014-05-04T11:38:27Z</time>
      </trkpt>
      <trkpt lat="44.28014" lon="5.34618">
        <ele>1012.2</ele>
        <time>2014-05-04T11:38:29Z</time>
      </trkpt>
      <trkpt lat="44.28014" lon="5.34608">
        <ele>1013.2</ele>
        <time>2014-05-04T11:38:31Z</time>
      </trkpt>
      <trkpt lat="44.28013" lon="5.34596">
        <ele>1014.4</ele>
        <time>2014-05-04T11:38:33Z</time>
      </trkpt>
      <trkpt lat="44.28013" lon="5.34587">
        <ele>1015.4</ele>
        <time>2014-05-04T11:38:35Z</time>
      </trkpt>
      <trkpt lat="44.28013" lon="5.34578">
        <ele>1015.8</ele>
        <time>2014-05-04T11:38:37Z</time>
      </trkpt>
      <trkpt lat="44.28013" lon="5.34561">
        <ele>1016.2</ele>
        <time>2014-05-04T11:38:41Z</time>
      </trkpt>
      <trkpt lat="44.28013" lon="5.34553">
        <ele>1016.3</ele>
        <time>2014-05-04T11:38:43Z</time>
      </trkpt>
      <trkpt lat="44.28014" lon="5.34545">
        <ele>1016.1</ele>
        <time>2014-05-04T11:38:45Z</time>
      </trkpt>
      <trkpt lat="44.28014" lon="5.34537">
        <ele>1016.1</ele>
        <time>2014-05-04T11:38:47Z</time>
      </trkpt>
      <trkpt lat="44.28014" lon="5.3453">
        <ele>1016.4</ele>
        <time>2014-05-04T11:38:49Z</time>
      </trkpt>
      <trkpt lat="44.28014" lon="5.34523">
        <ele>1016.7</ele>
        <time>2014-05-04T11:38:51Z</time>
      </trkpt>
      <trkpt lat="44.28014" lon="5.34516">
        <ele>1017.2</ele>
        <time>2014-05-04T11:38:53Z</time>
      </trkpt>
      <trkpt lat="44.28014" lon="5.3451">
        <ele>1017.6</ele>
        <time>2014-05-04T11:38:55Z</time>
      </trkpt>
      <trkpt lat="44.28013" lon="5.34503">
        <ele>1018.1</ele>
        <time>2014-05-04T11:38:57Z</time>
      </trkpt>
      <trkpt lat="44.28013" lon="5.34494">
        <ele>1018.6</ele>
        <time>2014-05-04T11:39:00Z</time>
      </trkpt>
      <trkpt lat="44.28013" lon="5.34486">
        <ele>1018.6</ele>
        <time>2014-05-04T11:39:03Z</time>
      </trkpt>
      <trkpt lat="44.28013" lon="5.34478">
        <ele>1018.8</ele>
        <time>2014-05-04T11:39:06Z</time>
      </trkpt>
      <trkpt lat="44.28013" lon="5.34469">
        <ele>1019.3</ele>
        <time>2014-05-04T11:39:09Z</time>
      </trkpt>
      <trkpt lat="44.28013" lon="5.3446">
        <ele>1019.7</ele>
        <time>2014-05-04T11:39:12Z</time>
      </trkpt>
      <trkpt lat="44.28012" lon="5.34453">
        <ele>1020.2</ele>
        <time>2014-05-04T11:39:15Z</time>
      </trkpt>
      <trkpt lat="44.28012" lon="5.34445">
        <ele>1020.9</ele>
        <time>2014-05-04T11:39:18Z</time>
      </trkpt>
      <trkpt lat="44.28011" lon="5.34437">
        <ele>1021.3</ele>
        <time>2014-05-04T11:39:21Z</time>
      </trkpt>
      <trkpt lat="44.28011" lon="5.3443">
        <ele>1021.9</ele>
        <time>2014-05-04T11:39:24Z</time>
      </trkpt>
      <trkpt lat="44.2801" lon="5.34423">
        <ele>1022.8</ele>
        <time>2014-05-04T11:39:27Z</time>
      </trkpt>
      <trkpt lat="44.28009" lon="5.34415">
        <ele>1023.3</ele>
        <time>2014-05-04T11:39:30Z</time>
      </trkpt>
      <trkpt lat="44.28009" lon="5.34408">
        <ele>1023.9</ele>
        <time>2014-05-04T11:39:33Z</time>
      </trkpt>
      <trkpt lat="44.28009" lon="5.34401">
        <ele>1024.2</ele>
        <time>2014-05-04T11:39:36Z</time>
      </trkpt>
      <trkpt lat="44.28009" lon="5.34393">
        <ele>1024.7</ele>
        <time>2014-05-04T11:39:39Z</time>
      </trkpt>
      <trkpt lat="44.28011" lon="5.34377">
        <ele>1024.6</ele>
        <time>2014-05-04T11:39:45Z</time>
      </trkpt>
      <trkpt lat="44.28012" lon="5.34369">
        <ele>1024.4</ele>
        <time>2014-05-04T11:39:48Z</time>
      </trkpt>
      <trkpt lat="44.28012" lon="5.34361">
        <ele>1024.6</ele>
        <time>2014-05-04T11:39:51Z</time>
      </trkpt>
      <trkpt lat="44.28012" lon="5.34353">
        <ele>1025.1</ele>
        <time>2014-05-04T11:39:54Z</time>
      </trkpt>
      <trkpt lat="44.28012" lon="5.34345">
        <ele>1025.5</ele>
        <time>2014-05-04T11:39:57Z</time>
      </trkpt>
      <trkpt lat="44.28011" lon="5.34337">
        <ele>1026.8</ele>
        <time>2014-05-04T11:40:00Z</time>
      </trkpt>
      <trkpt lat="44.28009" lon="5.34329">
        <ele>1028.3</ele>
        <time>2014-05-04T11:40:03Z</time>
      </trkpt>
      <trkpt lat="44.28007" lon="5.34323">
        <ele>1029.6</ele>
        <time>2014-05-04T11:40:05Z</time>
      </trkpt>
      <trkpt lat="44.28004" lon="5.34314">
        <ele>1031.8</ele>
        <time>2014-05-04T11:40:07Z</time>
      </trkpt>
      <trkpt lat="44.28002" lon="5.34304">
        <ele>1033.6</ele>
        <time>2014-05-04T11:40:09Z</time>
      </trkpt>
      <trkpt lat="44.28004" lon="5.34295">
        <ele>1032.5</ele>
        <time>2014-05-04T11:40:11Z</time>
      </trkpt>
      <trkpt lat="44.28008" lon="5.34286">
        <ele>1030.5</ele>
        <time>2014-05-04T11:40:13Z</time>
      </trkpt>
      <trkpt lat="44.28011" lon="5.34278">
        <ele>1029.1</ele>
        <time>2014-05-04T11:40:15Z</time>
      </trkpt>
      <trkpt lat="44.28011" lon="5.34271">
        <ele>1029.1</ele>
        <time>2014-05-04T11:40:17Z</time>
      </trkpt>
      <trkpt lat="44.28011" lon="5.34262">
        <ele>1029.6</ele>
        <time>2014-05-04T11:40:19Z</time>
      </trkpt>
      <trkpt lat="44.28011" lon="5.34253">
        <ele>1029.9</ele>
        <time>2014-05-04T11:40:21Z</time>
      </trkpt>
      <trkpt lat="44.28011" lon="5.34242">
        <ele>1030.8</ele>
        <time>2014-05-04T11:40:23Z</time>
      </trkpt>
      <trkpt lat="44.28011" lon="5.34232">
        <ele>1031.7</ele>
        <time>2014-05-04T11:40:25Z</time>
      </trkpt>
      <trkpt lat="44.28011" lon="5.34224">
        <ele>1032.3</ele>
        <time>2014-05-04T11:40:27Z</time>
      </trkpt>
      <trkpt lat="44.28012" lon="5.34217">
        <ele>1032.8</ele>
        <time>2014-05-04T11:40:29Z</time>
      </trkpt>
      <trkpt lat="44.28011" lon="5.34211">
        <ele>1033.7</ele>
        <time>2014-05-04T11:40:31Z</time>
      </trkpt>
      <trkpt lat="44.28011" lon="5.34204">
        <ele>1034.4</ele>
        <time>2014-05-04T11:40:33Z</time>
      </trkpt>
      <trkpt lat="44.28011" lon="5.34197">
        <ele>1035</ele>
        <time>2014-05-04T11:40:35Z</time>
      </trkpt>
      <trkpt lat="44.28012" lon="5.34191">
        <ele>1035.2</ele>
        <time>2014-05-04T11:40:37Z</time>
      </trkpt>
      <trkpt lat="44.28013" lon="5.34184">
        <ele>1035.5</ele>
        <time>2014-05-04T11:40:39Z</time>
      </trkpt>
      <trkpt lat="44.28014" lon="5.34178">
        <ele>1035.4</ele>
        <time>2014-05-04T11:40:41Z</time>
      </trkpt>
      <trkpt lat="44.28016" lon="5.34162">
        <ele>1035.7</ele>
        <time>2014-05-04T11:40:46Z</time>
      </trkpt>
      <trkpt lat="44.28017" lon="5.34156">
        <ele>1035.2</ele>
        <time>2014-05-04T11:40:48Z</time>
      </trkpt>
      <trkpt lat="44.28019" lon="5.34148">
        <ele>1034.8</ele>
        <time>2014-05-04T11:40:51Z</time>
      </trkpt>
      <trkpt lat="44.2802" lon="5.3414">
        <ele>1035.7</ele>
        <time>2014-05-04T11:40:54Z</time>
      </trkpt>
      <trkpt lat="44.2802" lon="5.34133">
        <ele>1036.3</ele>
        <time>2014-05-04T11:40:57Z</time>
      </trkpt>
      <trkpt lat="44.2802" lon="5.34125">
        <ele>1037.2</ele>
        <time>2014-05-04T11:41:00Z</time>
      </trkpt>
      <trkpt lat="44.2802" lon="5.34116">
        <ele>1038.2</ele>
        <time>2014-05-04T11:41:03Z</time>
      </trkpt>
      <trkpt lat="44.2802" lon="5.34108">
        <ele>1039.6</ele>
        <time>2014-05-04T11:41:06Z</time>
      </trkpt>
      <trkpt lat="44.28018" lon="5.341">
        <ele>1041.5</ele>
        <time>2014-05-04T11:41:09Z</time>
      </trkpt>
      <trkpt lat="44.28017" lon="5.34091">
        <ele>1043.3</ele>
        <time>2014-05-04T11:41:12Z</time>
      </trkpt>
      <trkpt lat="44.28017" lon="5.34083">
        <ele>1044.4</ele>
        <time>2014-05-04T11:41:15Z</time>
      </trkpt>
      <trkpt lat="44.28016" lon="5.34075">
        <ele>1046.7</ele>
        <time>2014-05-04T11:41:18Z</time>
      </trkpt>
      <trkpt lat="44.28014" lon="5.34067">
        <ele>1049.5</ele>
        <time>2014-05-04T11:41:21Z</time>
      </trkpt>
      <trkpt lat="44.28014" lon="5.3406">
        <ele>1051.1</ele>
        <time>2014-05-04T11:41:23Z</time>
      </trkpt>
      <trkpt lat="44.28016" lon="5.34052">
        <ele>1052</ele>
        <time>2014-05-04T11:41:26Z</time>
      </trkpt>
      <trkpt lat="44.28018" lon="5.34044">
        <ele>1052.2</ele>
        <time>2014-05-04T11:41:29Z</time>
      </trkpt>
      <trkpt lat="44.2802" lon="5.34036">
        <ele>1053</ele>
        <time>2014-05-04T11:41:32Z</time>
      </trkpt>
      <trkpt lat="44.28022" lon="5.34029">
        <ele>1053.2</ele>
        <time>2014-05-04T11:41:35Z</time>
      </trkpt>
      <trkpt lat="44.28025" lon="5.34023">
        <ele>1053.2</ele>
        <time>2014-05-04T11:41:38Z</time>
      </trkpt>
      <trkpt lat="44.28026" lon="5.34016">
        <ele>1053.8</ele>
        <time>2014-05-04T11:41:41Z</time>
      </trkpt>
      <trkpt lat="44.28027" lon="5.34009">
        <ele>1055.1</ele>
        <time>2014-05-04T11:41:44Z</time>
      </trkpt>
      <trkpt lat="44.28033" lon="5.33997">
        <ele>1055</ele>
        <time>2014-05-04T11:41:50Z</time>
      </trkpt>
      <trkpt lat="44.28036" lon="5.33991">
        <ele>1054.9</ele>
        <time>2014-05-04T11:41:53Z</time>
      </trkpt>
      <trkpt lat="44.28039" lon="5.33985">
        <ele>1055.1</ele>
        <time>2014-05-04T11:41:56Z</time>
      </trkpt>
      <trkpt lat="44.28042" lon="5.3398">
        <ele>1055.2</ele>
        <time>2014-05-04T11:41:59Z</time>
      </trkpt>
      <trkpt lat="44.28045" lon="5.33974">
        <ele>1055.4</ele>
        <time>2014-05-04T11:42:02Z</time>
      </trkpt>
      <trkpt lat="44.28048" lon="5.33969">
        <ele>1055.8</ele>
        <time>2014-05-04T11:42:05Z</time>
      </trkpt>
      <trkpt lat="44.28051" lon="5.33963">
        <ele>1056.7</ele>
        <time>2014-05-04T11:42:08Z</time>
      </trkpt>
      <trkpt lat="44.28053" lon="5.33956">
        <ele>1057.8</ele>
        <time>2014-05-04T11:42:11Z</time>
      </trkpt>
      <trkpt lat="44.28055" lon="5.33949">
        <ele>1059.5</ele>
        <time>2014-05-04T11:42:14Z</time>
      </trkpt>
      <trkpt lat="44.28058" lon="5.33941">
        <ele>1061.3</ele>
        <time>2014-05-04T11:42:17Z</time>
      </trkpt>
      <trkpt lat="44.2806" lon="5.33932">
        <ele>1063.1</ele>
        <time>2014-05-04T11:42:20Z</time>
      </trkpt>
      <trkpt lat="44.28062" lon="5.33926">
        <ele>1064.9</ele>
        <time>2014-05-04T11:42:22Z</time>
      </trkpt>
      <trkpt lat="44.28064" lon="5.3392">
        <ele>1066.8</ele>
        <time>2014-05-04T11:42:24Z</time>
      </trkpt>
      <trkpt lat="44.28065" lon="5.33913">
        <ele>1068.3</ele>
        <time>2014-05-04T11:42:26Z</time>
      </trkpt>
      <trkpt lat="44.28067" lon="5.33905">
        <ele>1070</ele>
        <time>2014-05-04T11:42:28Z</time>
      </trkpt>
      <trkpt lat="44.28068" lon="5.33897">
        <ele>1071.7</ele>
        <time>2014-05-04T11:42:30Z</time>
      </trkpt>
      <trkpt lat="44.2807" lon="5.33889">
        <ele>1073.9</ele>
        <time>2014-05-04T11:42:32Z</time>
      </trkpt>
      <trkpt lat="44.28071" lon="5.33881">
        <ele>1075.7</ele>
        <time>2014-05-04T11:42:34Z</time>
      </trkpt>
      <trkpt lat="44.28073" lon="5.33872">
        <ele>1077.7</ele>
        <time>2014-05-04T11:42:36Z</time>
      </trkpt>
      <trkpt lat="44.28075" lon="5.33865">
        <ele>1079.8</ele>
        <time>2014-05-04T11:42:38Z</time>
      </trkpt>
      <trkpt lat="44.28076" lon="5.33857">
        <ele>1081.9</ele>
        <time>2014-05-04T11:42:40Z</time>
      </trkpt>
      <trkpt lat="44.28078" lon="5.3385">
        <ele>1083.8</ele>
        <time>2014-05-04T11:42:42Z</time>
      </trkpt>
      <trkpt lat="44.28079" lon="5.33844">
        <ele>1086.1</ele>
        <time>2014-05-04T11:42:44Z</time>
      </trkpt>
      <trkpt lat="44.28081" lon="5.33837">
        <ele>1088.1</ele>
        <time>2014-05-04T11:42:46Z</time>
      </trkpt>
      <trkpt lat="44.28086" lon="5.3382">
        <ele>1088.8</ele>
        <time>2014-05-04T11:42:52Z</time>
      </trkpt>
      <trkpt lat="44.28089" lon="5.33812">
        <ele>1087.9</ele>
        <time>2014-05-04T11:42:55Z</time>
      </trkpt>
      <trkpt lat="44.28089" lon="5.33805">
        <ele>1088</ele>
        <time>2014-05-04T11:42:59Z</time>
      </trkpt>
      <trkpt lat="44.28089" lon="5.33797">
        <ele>1088.7</ele>
        <time>2014-05-04T11:43:03Z</time>
      </trkpt>
      <trkpt lat="44.28089" lon="5.33789">
        <ele>1089.5</ele>
        <time>2014-05-04T11:43:59Z</time>
      </trkpt>
      <trkpt lat="44.28088" lon="5.33772">
        <ele>1091.4</ele>
        <time>2014-05-04T11:44:03Z</time>
      </trkpt>
      <trkpt lat="44.28087" lon="5.33761">
        <ele>1092.3</ele>
        <time>2014-05-04T11:44:05Z</time>
      </trkpt>
      <trkpt lat="44.28086" lon="5.3375">
        <ele>1093.9</ele>
        <time>2014-05-04T11:44:07Z</time>
      </trkpt>
      <trkpt lat="44.28084" lon="5.33738">
        <ele>1094.1</ele>
        <time>2014-05-04T11:44:09Z</time>
      </trkpt>
      <trkpt lat="44.28081" lon="5.33727">
        <ele>1093.3</ele>
        <time>2014-05-04T11:44:11Z</time>
      </trkpt>
      <trkpt lat="44.28079" lon="5.33717">
        <ele>1092.3</ele>
        <time>2014-05-04T11:44:13Z</time>
      </trkpt>
      <trkpt lat="44.28076" lon="5.3371">
        <ele>1091.4</ele>
        <time>2014-05-04T11:44:15Z</time>
      </trkpt>
      <trkpt lat="44.28072" lon="5.33702">
        <ele>1090.3</ele>
        <time>2014-05-04T11:44:17Z</time>
      </trkpt>
      <trkpt lat="44.28069" lon="5.33692">
        <ele>1089.1</ele>
        <time>2014-05-04T11:44:19Z</time>
      </trkpt>
      <trkpt lat="44.28068" lon="5.33681">
        <ele>1088.3</ele>
        <time>2014-05-04T11:44:21Z</time>
      </trkpt>
      <trkpt lat="44.28069" lon="5.33669">
        <ele>1087.8</ele>
        <time>2014-05-04T11:44:23Z</time>
      </trkpt>
      <trkpt lat="44.28072" lon="5.3366">
        <ele>1087.4</ele>
        <time>2014-05-04T11:44:25Z</time>
      </trkpt>
      <trkpt lat="44.28075" lon="5.33653">
        <ele>1087.3</ele>
        <time>2014-05-04T11:44:27Z</time>
      </trkpt>
      <trkpt lat="44.28077" lon="5.33646">
        <ele>1087</ele>
        <time>2014-05-04T11:44:29Z</time>
      </trkpt>
      <trkpt lat="44.28078" lon="5.3364">
        <ele>1086.7</ele>
        <time>2014-05-04T11:44:31Z</time>
      </trkpt>
      <trkpt lat="44.2808" lon="5.33632">
        <ele>1086.1</ele>
        <time>2014-05-04T11:44:33Z</time>
      </trkpt>
      <trkpt lat="44.28082" lon="5.33625">
        <ele>1085.8</ele>
        <time>2014-05-04T11:44:35Z</time>
      </trkpt>
      <trkpt lat="44.28083" lon="5.33619">
        <ele>1085.4</ele>
        <time>2014-05-04T11:44:37Z</time>
      </trkpt>
      <trkpt lat="44.28085" lon="5.33613">
        <ele>1084.4</ele>
        <time>2014-05-04T11:44:39Z</time>
      </trkpt>
      <trkpt lat="44.28085" lon="5.33607">
        <ele>1083.5</ele>
        <time>2014-05-04T11:44:41Z</time>
      </trkpt>
      <trkpt lat="44.28086" lon="5.336">
        <ele>1082.8</ele>
        <time>2014-05-04T11:44:43Z</time>
      </trkpt>
      <trkpt lat="44.28089" lon="5.33592">
        <ele>1081.2</ele>
        <time>2014-05-04T11:44:46Z</time>
      </trkpt>
      <trkpt lat="44.28092" lon="5.33586">
        <ele>1080</ele>
        <time>2014-05-04T11:44:53Z</time>
      </trkpt>
      <trkpt lat="44.28093" lon="5.33579">
        <ele>1079.4</ele>
        <time>2014-05-04T11:45:03Z</time>
      </trkpt>
      <trkpt lat="44.28094" lon="5.33563">
        <ele>1078.3</ele>
        <time>2014-05-04T11:45:07Z</time>
      </trkpt>
      <trkpt lat="44.28096" lon="5.33557">
        <ele>1077.7</ele>
        <time>2014-05-04T11:45:09Z</time>
      </trkpt>
      <trkpt lat="44.281" lon="5.33552">
        <ele>1076.7</ele>
        <time>2014-05-04T11:45:12Z</time>
      </trkpt>
      <trkpt lat="44.28104" lon="5.33548">
        <ele>1075.7</ele>
        <time>2014-05-04T11:45:16Z</time>
      </trkpt>
      <trkpt lat="44.28108" lon="5.33544">
        <ele>1074.6</ele>
        <time>2014-05-04T11:45:21Z</time>
      </trkpt>
      <trkpt lat="44.28112" lon="5.3354">
        <ele>1073.5</ele>
        <time>2014-05-04T11:45:26Z</time>
      </trkpt>
      <trkpt lat="44.28117" lon="5.33537">
        <ele>1072.4</ele>
        <time>2014-05-04T11:45:31Z</time>
      </trkpt>
      <trkpt lat="44.28122" lon="5.33533">
        <ele>1071.4</ele>
        <time>2014-05-04T11:45:36Z</time>
      </trkpt>
      <trkpt lat="44.28126" lon="5.3353">
        <ele>1070.5</ele>
        <time>2014-05-04T11:45:41Z</time>
      </trkpt>
      <trkpt lat="44.2813" lon="5.33526">
        <ele>1069.6</ele>
        <time>2014-05-04T11:45:46Z</time>
      </trkpt>
      <trkpt lat="44.28133" lon="5.3352">
        <ele>1069.1</ele>
        <time>2014-05-04T11:45:51Z</time>
      </trkpt>
      <trkpt lat="44.28135" lon="5.33511">
        <ele>1068.6</ele>
        <time>2014-05-04T11:45:55Z</time>
      </trkpt>
      <trkpt lat="44.28136" lon="5.33504">
        <ele>1068.4</ele>
        <time>2014-05-04T11:45:57Z</time>
      </trkpt>
      <trkpt lat="44.28137" lon="5.33493">
        <ele>1068.1</ele>
        <time>2014-05-04T11:45:59Z</time>
      </trkpt>
      <trkpt lat="44.28138" lon="5.33481">
        <ele>1067.8</ele>
        <time>2014-05-04T11:46:01Z</time>
      </trkpt>
      <trkpt lat="44.28139" lon="5.33474">
        <ele>1067.6</ele>
        <time>2014-05-04T11:46:02Z</time>
      </trkpt>
      <trkpt lat="44.2814" lon="5.33463">
        <ele>1067.2</ele>
        <time>2014-05-04T11:46:04Z</time>
      </trkpt>
      <trkpt lat="44.28142" lon="5.33452">
        <ele>1066.8</ele>
        <time>2014-05-04T11:46:06Z</time>
      </trkpt>
      <trkpt lat="44.28145" lon="5.33437">
        <ele>1066</ele>
        <time>2014-05-04T11:46:10Z</time>
      </trkpt>
      <trkpt lat="44.28147" lon="5.3343">
        <ele>1065.7</ele>
        <time>2014-05-04T11:46:13Z</time>
      </trkpt>
      <trkpt lat="44.28147" lon="5.33422">
        <ele>1065.7</ele>
        <time>2014-05-04T11:47:39Z</time>
      </trkpt>
      <trkpt lat="44.28142" lon="5.33404">
        <ele>1065</ele>
        <time>2014-05-04T11:47:45Z</time>
      </trkpt>
      <trkpt lat="44.28142" lon="5.33395">
        <ele>1064</ele>
        <time>2014-05-04T11:47:47Z</time>
      </trkpt>
      <trkpt lat="44.28144" lon="5.33386">
        <ele>1063</ele>
        <time>2014-05-04T11:47:49Z</time>
      </trkpt>
      <trkpt lat="44.28145" lon="5.33378">
        <ele>1062.2</ele>
        <time>2014-05-04T11:47:51Z</time>
      </trkpt>
      <trkpt lat="44.28144" lon="5.33371">
        <ele>1061.5</ele>
        <time>2014-05-04T11:47:53Z</time>
      </trkpt>
      <trkpt lat="44.28147" lon="5.33363">
        <ele>1060.6</ele>
        <time>2014-05-04T11:47:55Z</time>
      </trkpt>
      <trkpt lat="44.28151" lon="5.33354">
        <ele>1059.6</ele>
        <time>2014-05-04T11:47:57Z</time>
      </trkpt>
      <trkpt lat="44.28157" lon="5.33345">
        <ele>1058.4</ele>
        <time>2014-05-04T11:47:59Z</time>
      </trkpt>
      <trkpt lat="44.2816" lon="5.3334">
        <ele>1057.8</ele>
        <time>2014-05-04T11:48:00Z</time>
      </trkpt>
      <trkpt lat="44.28163" lon="5.33334">
        <ele>1057.2</ele>
        <time>2014-05-04T11:48:01Z</time>
      </trkpt>
      <trkpt lat="44.28166" lon="5.33329">
        <ele>1056.9</ele>
        <time>2014-05-04T11:48:02Z</time>
      </trkpt>
      <trkpt lat="44.28169" lon="5.33322">
        <ele>1055.9</ele>
        <time>2014-05-04T11:48:03Z</time>
      </trkpt>
      <trkpt lat="44.28172" lon="5.33316">
        <ele>1054.9</ele>
        <time>2014-05-04T11:48:04Z</time>
      </trkpt>
      <trkpt lat="44.28174" lon="5.33309">
        <ele>1054</ele>
        <time>2014-05-04T11:48:05Z</time>
      </trkpt>
      <trkpt lat="44.28176" lon="5.33302">
        <ele>1053.2</ele>
        <time>2014-05-04T11:48:06Z</time>
      </trkpt>
      <trkpt lat="44.28178" lon="5.33296">
        <ele>1052.4</ele>
        <time>2014-05-04T11:48:07Z</time>
      </trkpt>
      <trkpt lat="44.2818" lon="5.33289">
        <ele>1051.7</ele>
        <time>2014-05-04T11:48:08Z</time>
      </trkpt>
      <trkpt lat="44.28182" lon="5.33282">
        <ele>1051</ele>
        <time>2014-05-04T11:48:09Z</time>
      </trkpt>
      <trkpt lat="44.28184" lon="5.33276">
        <ele>1050.2</ele>
        <time>2014-05-04T11:48:10Z</time>
      </trkpt>
      <trkpt lat="44.28186" lon="5.33269">
        <ele>1049.3</ele>
        <time>2014-05-04T11:48:11Z</time>
      </trkpt>
      <trkpt lat="44.28188" lon="5.33264">
        <ele>1048.4</ele>
        <time>2014-05-04T11:48:12Z</time>
      </trkpt>
      <trkpt lat="44.28196" lon="5.33256">
        <ele>1045.8</ele>
        <time>2014-05-04T11:48:14Z</time>
      </trkpt>
      <trkpt lat="44.282" lon="5.33253">
        <ele>1044.2</ele>
        <time>2014-05-04T11:48:15Z</time>
      </trkpt>
      <trkpt lat="44.28205" lon="5.33251">
        <ele>1042.6</ele>
        <time>2014-05-04T11:48:16Z</time>
      </trkpt>
      <trkpt lat="44.28209" lon="5.33249">
        <ele>1041.1</ele>
        <time>2014-05-04T11:48:17Z</time>
      </trkpt>
      <trkpt lat="44.28213" lon="5.33245">
        <ele>1039.6</ele>
        <time>2014-05-04T11:48:18Z</time>
      </trkpt>
      <trkpt lat="44.28216" lon="5.3324">
        <ele>1038.3</ele>
        <time>2014-05-04T11:48:19Z</time>
      </trkpt>
      <trkpt lat="44.28218" lon="5.33234">
        <ele>1037.3</ele>
        <time>2014-05-04T11:48:20Z</time>
      </trkpt>
      <trkpt lat="44.28219" lon="5.33221">
        <ele>1036.1</ele>
        <time>2014-05-04T11:48:22Z</time>
      </trkpt>
      <trkpt lat="44.28219" lon="5.33215">
        <ele>1035.5</ele>
        <time>2014-05-04T11:48:23Z</time>
      </trkpt>
      <trkpt lat="44.2822" lon="5.33207">
        <ele>1034.8</ele>
        <time>2014-05-04T11:48:24Z</time>
      </trkpt>
      <trkpt lat="44.28221" lon="5.332">
        <ele>1034</ele>
        <time>2014-05-04T11:48:25Z</time>
      </trkpt>
      <trkpt lat="44.28222" lon="5.33193">
        <ele>1033.4</ele>
        <time>2014-05-04T11:48:26Z</time>
      </trkpt>
      <trkpt lat="44.28223" lon="5.33186">
        <ele>1032.7</ele>
        <time>2014-05-04T11:48:27Z</time>
      </trkpt>
      <trkpt lat="44.28225" lon="5.33179">
        <ele>1031.7</ele>
        <time>2014-05-04T11:48:28Z</time>
      </trkpt>
      <trkpt lat="44.28227" lon="5.33172">
        <ele>1030.7</ele>
        <time>2014-05-04T11:48:29Z</time>
      </trkpt>
      <trkpt lat="44.28229" lon="5.33165">
        <ele>1029.7</ele>
        <time>2014-05-04T11:48:30Z</time>
      </trkpt>
      <trkpt lat="44.28231" lon="5.33158">
        <ele>1028.5</ele>
        <time>2014-05-04T11:48:31Z</time>
      </trkpt>
      <trkpt lat="44.28232" lon="5.33151">
        <ele>1027.5</ele>
        <time>2014-05-04T11:48:32Z</time>
      </trkpt>
      <trkpt lat="44.28233" lon="5.33143">
        <ele>1026.4</ele>
        <time>2014-05-04T11:48:33Z</time>
      </trkpt>
      <trkpt lat="44.28235" lon="5.33136">
        <ele>1025.3</ele>
        <time>2014-05-04T11:48:34Z</time>
      </trkpt>
      <trkpt lat="44.28236" lon="5.33129">
        <ele>1024.2</ele>
        <time>2014-05-04T11:48:35Z</time>
      </trkpt>
      <trkpt lat="44.28238" lon="5.33121">
        <ele>1023.1</ele>
        <time>2014-05-04T11:48:36Z</time>
      </trkpt>
      <trkpt lat="44.2824" lon="5.33114">
        <ele>1021.9</ele>
        <time>2014-05-04T11:48:37Z</time>
      </trkpt>
      <trkpt lat="44.28241" lon="5.33107">
        <ele>1020.9</ele>
        <time>2014-05-04T11:48:38Z</time>
      </trkpt>
      <trkpt lat="44.28242" lon="5.331">
        <ele>1020.2</ele>
        <time>2014-05-04T11:48:39Z</time>
      </trkpt>
      <trkpt lat="44.28243" lon="5.33092">
        <ele>1019.2</ele>
        <time>2014-05-04T11:48:40Z</time>
      </trkpt>
      <trkpt lat="44.28244" lon="5.33084">
        <ele>1018.3</ele>
        <time>2014-05-04T11:48:41Z</time>
      </trkpt>
      <trkpt lat="44.28245" lon="5.33069">
        <ele>1017.3</ele>
        <time>2014-05-04T11:48:43Z</time>
      </trkpt>
      <trkpt lat="44.28246" lon="5.33062">
        <ele>1016.7</ele>
        <time>2014-05-04T11:48:44Z</time>
      </trkpt>
      <trkpt lat="44.28247" lon="5.33055">
        <ele>1016.1</ele>
        <time>2014-05-04T11:48:45Z</time>
      </trkpt>
      <trkpt lat="44.28248" lon="5.33048">
        <ele>1015.6</ele>
        <time>2014-05-04T11:48:46Z</time>
      </trkpt>
      <trkpt lat="44.2825" lon="5.33042">
        <ele>1015</ele>
        <time>2014-05-04T11:48:47Z</time>
      </trkpt>
      <trkpt lat="44.28252" lon="5.33035">
        <ele>1013.6</ele>
        <time>2014-05-04T11:48:48Z</time>
      </trkpt>
      <trkpt lat="44.28255" lon="5.33029">
        <ele>1012</ele>
        <time>2014-05-04T11:48:49Z</time>
      </trkpt>
      <trkpt lat="44.28258" lon="5.33022">
        <ele>1010.3</ele>
        <time>2014-05-04T11:48:50Z</time>
      </trkpt>
      <trkpt lat="44.28261" lon="5.33015">
        <ele>1008.6</ele>
        <time>2014-05-04T11:48:51Z</time>
      </trkpt>
      <trkpt lat="44.28263" lon="5.33008">
        <ele>1007.4</ele>
        <time>2014-05-04T11:48:52Z</time>
      </trkpt>
      <trkpt lat="44.28264" lon="5.33001">
        <ele>1006.4</ele>
        <time>2014-05-04T11:48:53Z</time>
      </trkpt>
      <trkpt lat="44.28266" lon="5.32993">
        <ele>1005.9</ele>
        <time>2014-05-04T11:48:54Z</time>
      </trkpt>
      <trkpt lat="44.28268" lon="5.32986">
        <ele>1005.2</ele>
        <time>2014-05-04T11:48:55Z</time>
      </trkpt>
      <trkpt lat="44.2827" lon="5.32978">
        <ele>1004.5</ele>
        <time>2014-05-04T11:48:56Z</time>
      </trkpt>
      <trkpt lat="44.28273" lon="5.32969">
        <ele>1003.4</ele>
        <time>2014-05-04T11:48:57Z</time>
      </trkpt>
      <trkpt lat="44.28276" lon="5.3296">
        <ele>1002.4</ele>
        <time>2014-05-04T11:48:58Z</time>
      </trkpt>
      <trkpt lat="44.28279" lon="5.32951">
        <ele>1001.4</ele>
        <time>2014-05-04T11:48:59Z</time>
      </trkpt>
      <trkpt lat="44.28282" lon="5.32943">
        <ele>1000.2</ele>
        <time>2014-05-04T11:49:00Z</time>
      </trkpt>
      <trkpt lat="44.28285" lon="5.32936">
        <ele>999.1</ele>
        <time>2014-05-04T11:49:01Z</time>
      </trkpt>
      <trkpt lat="44.28289" lon="5.32928">
        <ele>997.7</ele>
        <time>2014-05-04T11:49:02Z</time>
      </trkpt>
      <trkpt lat="44.28292" lon="5.32921">
        <ele>996.6</ele>
        <time>2014-05-04T11:49:03Z</time>
      </trkpt>
      <trkpt lat="44.28296" lon="5.32914">
        <ele>995.5</ele>
        <time>2014-05-04T11:49:04Z</time>
      </trkpt>
      <trkpt lat="44.28299" lon="5.32907">
        <ele>994.6</ele>
        <time>2014-05-04T11:49:05Z</time>
      </trkpt>
      <trkpt lat="44.28301" lon="5.32899">
        <ele>993.9</ele>
        <time>2014-05-04T11:49:06Z</time>
      </trkpt>
      <trkpt lat="44.28304" lon="5.32893">
        <ele>993.1</ele>
        <time>2014-05-04T11:49:07Z</time>
      </trkpt>
      <trkpt lat="44.28307" lon="5.32886">
        <ele>992.5</ele>
        <time>2014-05-04T11:49:08Z</time>
      </trkpt>
      <trkpt lat="44.28311" lon="5.32878">
        <ele>991.9</ele>
        <time>2014-05-04T11:49:09Z</time>
      </trkpt>
      <trkpt lat="44.28315" lon="5.32868">
        <ele>991.1</ele>
        <time>2014-05-04T11:49:10Z</time>
      </trkpt>
      <trkpt lat="44.28318" lon="5.32859">
        <ele>990.9</ele>
        <time>2014-05-04T11:49:11Z</time>
      </trkpt>
      <trkpt lat="44.28321" lon="5.32849">
        <ele>991</ele>
        <time>2014-05-04T11:49:12Z</time>
      </trkpt>
      <trkpt lat="44.28322" lon="5.32841">
        <ele>991.3</ele>
        <time>2014-05-04T11:49:13Z</time>
      </trkpt>
      <trkpt lat="44.28324" lon="5.32834">
        <ele>991.5</ele>
        <time>2014-05-04T11:49:14Z</time>
      </trkpt>
      <trkpt lat="44.28325" lon="5.32827">
        <ele>991.4</ele>
        <time>2014-05-04T11:49:15Z</time>
      </trkpt>
      <trkpt lat="44.28327" lon="5.3282">
        <ele>991.2</ele>
        <time>2014-05-04T11:49:16Z</time>
      </trkpt>
      <trkpt lat="44.28329" lon="5.32814">
        <ele>991.1</ele>
        <time>2014-05-04T11:49:17Z</time>
      </trkpt>
      <trkpt lat="44.28331" lon="5.32808">
        <ele>990.8</ele>
        <time>2014-05-04T11:49:18Z</time>
      </trkpt>
      <trkpt lat="44.28334" lon="5.32802">
        <ele>990.4</ele>
        <time>2014-05-04T11:49:19Z</time>
      </trkpt>
      <trkpt lat="44.28336" lon="5.32795">
        <ele>989.6</ele>
        <time>2014-05-04T11:49:20Z</time>
      </trkpt>
      <trkpt lat="44.28338" lon="5.32788">
        <ele>988.9</ele>
        <time>2014-05-04T11:49:21Z</time>
      </trkpt>
      <trkpt lat="44.2834" lon="5.3278">
        <ele>988.3</ele>
        <time>2014-05-04T11:49:22Z</time>
      </trkpt>
      <trkpt lat="44.28343" lon="5.32771">
        <ele>987.3</ele>
        <time>2014-05-04T11:49:23Z</time>
      </trkpt>
      <trkpt lat="44.28346" lon="5.32762">
        <ele>986.1</ele>
        <time>2014-05-04T11:49:24Z</time>
      </trkpt>
      <trkpt lat="44.2835" lon="5.32753">
        <ele>984.4</ele>
        <time>2014-05-04T11:49:25Z</time>
      </trkpt>
      <trkpt lat="44.28355" lon="5.32744">
        <ele>982.4</ele>
        <time>2014-05-04T11:49:26Z</time>
      </trkpt>
      <trkpt lat="44.2836" lon="5.32735">
        <ele>980.5</ele>
        <time>2014-05-04T11:49:27Z</time>
      </trkpt>
      <trkpt lat="44.28365" lon="5.32726">
        <ele>978.6</ele>
        <time>2014-05-04T11:49:28Z</time>
      </trkpt>
      <trkpt lat="44.2837" lon="5.32717">
        <ele>977.2</ele>
        <time>2014-05-04T11:49:29Z</time>
      </trkpt>
      <trkpt lat="44.28375" lon="5.32708">
        <ele>975.8</ele>
        <time>2014-05-04T11:49:30Z</time>
      </trkpt>
      <trkpt lat="44.28379" lon="5.32699">
        <ele>974.4</ele>
        <time>2014-05-04T11:49:31Z</time>
      </trkpt>
      <trkpt lat="44.28383" lon="5.3269">
        <ele>973.5</ele>
        <time>2014-05-04T11:49:32Z</time>
      </trkpt>
      <trkpt lat="44.28387" lon="5.3268">
        <ele>972.6</ele>
        <time>2014-05-04T11:49:33Z</time>
      </trkpt>
      <trkpt lat="44.28391" lon="5.3267">
        <ele>972</ele>
        <time>2014-05-04T11:49:34Z</time>
      </trkpt>
      <trkpt lat="44.28394" lon="5.3266">
        <ele>971.7</ele>
        <time>2014-05-04T11:49:35Z</time>
      </trkpt>
      <trkpt lat="44.28398" lon="5.3265">
        <ele>971.6</ele>
        <time>2014-05-04T11:49:36Z</time>
      </trkpt>
      <trkpt lat="44.28402" lon="5.3264">
        <ele>971.3</ele>
        <time>2014-05-04T11:49:37Z</time>
      </trkpt>
      <trkpt lat="44.28407" lon="5.32631">
        <ele>970.9</ele>
        <time>2014-05-04T11:49:38Z</time>
      </trkpt>
      <trkpt lat="44.2841" lon="5.32622">
        <ele>971.4</ele>
        <time>2014-05-04T11:49:39Z</time>
      </trkpt>
      <trkpt lat="44.28413" lon="5.32613">
        <ele>972</ele>
        <time>2014-05-04T11:49:40Z</time>
      </trkpt>
      <trkpt lat="44.28415" lon="5.32604">
        <ele>972.9</ele>
        <time>2014-05-04T11:49:41Z</time>
      </trkpt>
      <trkpt lat="44.28417" lon="5.32595">
        <ele>974</ele>
        <time>2014-05-04T11:49:42Z</time>
      </trkpt>
      <trkpt lat="44.28421" lon="5.32577">
        <ele>975.2</ele>
        <time>2014-05-04T11:49:44Z</time>
      </trkpt>
      <trkpt lat="44.28423" lon="5.32568">
        <ele>975.5</ele>
        <time>2014-05-04T11:49:45Z</time>
      </trkpt>
      <trkpt lat="44.28425" lon="5.3256">
        <ele>975.8</ele>
        <time>2014-05-04T11:49:46Z</time>
      </trkpt>
      <trkpt lat="44.28428" lon="5.32553">
        <ele>975.8</ele>
        <time>2014-05-04T11:49:47Z</time>
      </trkpt>
      <trkpt lat="44.2843" lon="5.32547">
        <ele>975.4</ele>
        <time>2014-05-04T11:49:48Z</time>
      </trkpt>
      <trkpt lat="44.28434" lon="5.32537">
        <ele>975.5</ele>
        <time>2014-05-04T11:49:50Z</time>
      </trkpt>
      <trkpt lat="44.28437" lon="5.32527">
        <ele>975.7</ele>
        <time>2014-05-04T11:49:52Z</time>
      </trkpt>
      <trkpt lat="44.28438" lon="5.32518">
        <ele>976.9</ele>
        <time>2014-05-04T11:49:54Z</time>
      </trkpt>
      <trkpt lat="44.28438" lon="5.32508">
        <ele>978.6</ele>
        <time>2014-05-04T11:49:56Z</time>
      </trkpt>
      <trkpt lat="44.28438" lon="5.32497">
        <ele>980.4</ele>
        <time>2014-05-04T11:49:58Z</time>
      </trkpt>
      <trkpt lat="44.28437" lon="5.32487">
        <ele>981.6</ele>
        <time>2014-05-04T11:50:00Z</time>
      </trkpt>
      <trkpt lat="44.28437" lon="5.32477">
        <ele>982.6</ele>
        <time>2014-05-04T11:50:02Z</time>
      </trkpt>
      <trkpt lat="44.28438" lon="5.32469">
        <ele>983.3</ele>
        <time>2014-05-04T11:50:04Z</time>
      </trkpt>
      <trkpt lat="44.2844" lon="5.32461">
        <ele>983</ele>
        <time>2014-05-04T11:50:06Z</time>
      </trkpt>
      <trkpt lat="44.28442" lon="5.32455">
        <ele>983</ele>
        <time>2014-05-04T11:50:08Z</time>
      </trkpt>
      <trkpt lat="44.28444" lon="5.32446">
        <ele>983</ele>
        <time>2014-05-04T11:50:11Z</time>
      </trkpt>
      <trkpt lat="44.28446" lon="5.32439">
        <ele>982.8</ele>
        <time>2014-05-04T11:50:14Z</time>
      </trkpt>
      <trkpt lat="44.28447" lon="5.32431">
        <ele>982.9</ele>
        <time>2014-05-04T11:50:18Z</time>
      </trkpt>
      <trkpt lat="44.28447" lon="5.32424">
        <ele>983.9</ele>
        <time>2014-05-04T11:50:20Z</time>
      </trkpt>
      <trkpt lat="44.28445" lon="5.32416">
        <ele>985.4</ele>
        <time>2014-05-04T11:50:22Z</time>
      </trkpt>
      <trkpt lat="44.28441" lon="5.32406">
        <ele>987</ele>
        <time>2014-05-04T11:50:24Z</time>
      </trkpt>
      <trkpt lat="44.28438" lon="5.32395">
        <ele>988.5</ele>
        <time>2014-05-04T11:50:26Z</time>
      </trkpt>
      <trkpt lat="44.28436" lon="5.32383">
        <ele>989.1</ele>
        <time>2014-05-04T11:50:28Z</time>
      </trkpt>
      <trkpt lat="44.28435" lon="5.3237">
        <ele>989.9</ele>
        <time>2014-05-04T11:50:30Z</time>
      </trkpt>
      <trkpt lat="44.28433" lon="5.32364">
        <ele>990.4</ele>
        <time>2014-05-04T11:50:31Z</time>
      </trkpt>
      <trkpt lat="44.28432" lon="5.32357">
        <ele>990.7</ele>
        <time>2014-05-04T11:50:32Z</time>
      </trkpt>
      <trkpt lat="44.28431" lon="5.3235">
        <ele>991.4</ele>
        <time>2014-05-04T11:50:33Z</time>
      </trkpt>
      <trkpt lat="44.28429" lon="5.32344">
        <ele>992</ele>
        <time>2014-05-04T11:50:34Z</time>
      </trkpt>
      <trkpt lat="44.28428" lon="5.32338">
        <ele>992.5</ele>
        <time>2014-05-04T11:50:35Z</time>
      </trkpt>
      <trkpt lat="44.28427" lon="5.32331">
        <ele>992.6</ele>
        <time>2014-05-04T11:50:36Z</time>
      </trkpt>
      <trkpt lat="44.28426" lon="5.32325">
        <ele>992.1</ele>
        <time>2014-05-04T11:50:37Z</time>
      </trkpt>
      <trkpt lat="44.28426" lon="5.32318">
        <ele>991.6</ele>
        <time>2014-05-04T11:50:38Z</time>
      </trkpt>
      <trkpt lat="44.28425" lon="5.3231">
        <ele>991</ele>
        <time>2014-05-04T11:50:39Z</time>
      </trkpt>
      <trkpt lat="44.28425" lon="5.32303">
        <ele>990.6</ele>
        <time>2014-05-04T11:50:40Z</time>
      </trkpt>
      <trkpt lat="44.28424" lon="5.32296">
        <ele>990.3</ele>
        <time>2014-05-04T11:50:41Z</time>
      </trkpt>
      <trkpt lat="44.28422" lon="5.32289">
        <ele>990.1</ele>
        <time>2014-05-04T11:50:42Z</time>
      </trkpt>
      <trkpt lat="44.28421" lon="5.32282">
        <ele>990.1</ele>
        <time>2014-05-04T11:50:43Z</time>
      </trkpt>
      <trkpt lat="44.28419" lon="5.32275">
        <ele>989.8</ele>
        <time>2014-05-04T11:50:44Z</time>
      </trkpt>
      <trkpt lat="44.28416" lon="5.32261">
        <ele>989</ele>
        <time>2014-05-04T11:50:46Z</time>
      </trkpt>
      <trkpt lat="44.28414" lon="5.32255">
        <ele>988.3</ele>
        <time>2014-05-04T11:50:47Z</time>
      </trkpt>
      <trkpt lat="44.28411" lon="5.32243">
        <ele>986.7</ele>
        <time>2014-05-04T11:50:49Z</time>
      </trkpt>
      <trkpt lat="44.2841" lon="5.32237">
        <ele>985.9</ele>
        <time>2014-05-04T11:50:50Z</time>
      </trkpt>
      <trkpt lat="44.28407" lon="5.32226">
        <ele>984.5</ele>
        <time>2014-05-04T11:50:52Z</time>
      </trkpt>
      <trkpt lat="44.28401" lon="5.32217">
        <ele>983</ele>
        <time>2014-05-04T11:50:54Z</time>
      </trkpt>
      <trkpt lat="44.28398" lon="5.32212">
        <ele>982.1</ele>
        <time>2014-05-04T11:50:55Z</time>
      </trkpt>
      <trkpt lat="44.28394" lon="5.32207">
        <ele>981.2</ele>
        <time>2014-05-04T11:50:56Z</time>
      </trkpt>
      <trkpt lat="44.28391" lon="5.32201">
        <ele>980.3</ele>
        <time>2014-05-04T11:50:57Z</time>
      </trkpt>
      <trkpt lat="44.28388" lon="5.32195">
        <ele>979.5</ele>
        <time>2014-05-04T11:50:58Z</time>
      </trkpt>
      <trkpt lat="44.28385" lon="5.3219">
        <ele>978.6</ele>
        <time>2014-05-04T11:50:59Z</time>
      </trkpt>
      <trkpt lat="44.28382" lon="5.32184">
        <ele>977.7</ele>
        <time>2014-05-04T11:51:00Z</time>
      </trkpt>
      <trkpt lat="44.28379" lon="5.32178">
        <ele>976.8</ele>
        <time>2014-05-04T11:51:01Z</time>
      </trkpt>
      <trkpt lat="44.28376" lon="5.32172">
        <ele>976</ele>
        <time>2014-05-04T11:51:02Z</time>
      </trkpt>
      <trkpt lat="44.28373" lon="5.32166">
        <ele>975.1</ele>
        <time>2014-05-04T11:51:03Z</time>
      </trkpt>
      <trkpt lat="44.2837" lon="5.32159">
        <ele>973.8</ele>
        <time>2014-05-04T11:51:04Z</time>
      </trkpt>
      <trkpt lat="44.28367" lon="5.32153">
        <ele>972.5</ele>
        <time>2014-05-04T11:51:05Z</time>
      </trkpt>
      <trkpt lat="44.28364" lon="5.32147">
        <ele>971.4</ele>
        <time>2014-05-04T11:51:06Z</time>
      </trkpt>
      <trkpt lat="44.2836" lon="5.32141">
        <ele>970.1</ele>
        <time>2014-05-04T11:51:07Z</time>
      </trkpt>
      <trkpt lat="44.28357" lon="5.32134">
        <ele>968.5</ele>
        <time>2014-05-04T11:51:08Z</time>
      </trkpt>
      <trkpt lat="44.28353" lon="5.32127">
        <ele>967.2</ele>
        <time>2014-05-04T11:51:09Z</time>
      </trkpt>
      <trkpt lat="44.2835" lon="5.32121">
        <ele>965.9</ele>
        <time>2014-05-04T11:51:10Z</time>
      </trkpt>
      <trkpt lat="44.28346" lon="5.32114">
        <ele>964.6</ele>
        <time>2014-05-04T11:51:11Z</time>
      </trkpt>
      <trkpt lat="44.28343" lon="5.32107">
        <ele>963.3</ele>
        <time>2014-05-04T11:51:12Z</time>
      </trkpt>
      <trkpt lat="44.2834" lon="5.32101">
        <ele>962</ele>
        <time>2014-05-04T11:51:13Z</time>
      </trkpt>
      <trkpt lat="44.28337" lon="5.32094">
        <ele>960.8</ele>
        <time>2014-05-04T11:51:14Z</time>
      </trkpt>
      <trkpt lat="44.28334" lon="5.32088">
        <ele>959.6</ele>
        <time>2014-05-04T11:51:15Z</time>
      </trkpt>
      <trkpt lat="44.28331" lon="5.32081">
        <ele>958.3</ele>
        <time>2014-05-04T11:51:16Z</time>
      </trkpt>
      <trkpt lat="44.28329" lon="5.32074">
        <ele>956.8</ele>
        <time>2014-05-04T11:51:17Z</time>
      </trkpt>
      <trkpt lat="44.28326" lon="5.32068">
        <ele>955.2</ele>
        <time>2014-05-04T11:51:18Z</time>
      </trkpt>
      <trkpt lat="44.28323" lon="5.32062">
        <ele>953.8</ele>
        <time>2014-05-04T11:51:19Z</time>
      </trkpt>
      <trkpt lat="44.28321" lon="5.32056">
        <ele>952.7</ele>
        <time>2014-05-04T11:51:20Z</time>
      </trkpt>
      <trkpt lat="44.28319" lon="5.32046">
        <ele>950.6</ele>
        <time>2014-05-04T11:51:22Z</time>
      </trkpt>
      <trkpt lat="44.28323" lon="5.32038">
        <ele>949.3</ele>
        <time>2014-05-04T11:51:24Z</time>
      </trkpt>
      <trkpt lat="44.2833" lon="5.32033">
        <ele>948.6</ele>
        <time>2014-05-04T11:51:26Z</time>
      </trkpt>
      <trkpt lat="44.28338" lon="5.3203">
        <ele>948.5</ele>
        <time>2014-05-04T11:51:28Z</time>
      </trkpt>
      <trkpt lat="44.28345" lon="5.32028">
        <ele>948.6</ele>
        <time>2014-05-04T11:51:30Z</time>
      </trkpt>
      <trkpt lat="44.28352" lon="5.32026">
        <ele>949</ele>
        <time>2014-05-04T11:51:32Z</time>
      </trkpt>
      <trkpt lat="44.28361" lon="5.32024">
        <ele>949.2</ele>
        <time>2014-05-04T11:51:34Z</time>
      </trkpt>
      <trkpt lat="44.28365" lon="5.32023">
        <ele>949.3</ele>
        <time>2014-05-04T11:51:35Z</time>
      </trkpt>
      <trkpt lat="44.28369" lon="5.32021">
        <ele>949.1</ele>
        <time>2014-05-04T11:51:36Z</time>
      </trkpt>
      <trkpt lat="44.28377" lon="5.32017">
        <ele>948.9</ele>
        <time>2014-05-04T11:51:38Z</time>
      </trkpt>
      <trkpt lat="44.28384" lon="5.32012">
        <ele>948.8</ele>
        <time>2014-05-04T11:51:40Z</time>
      </trkpt>
      <trkpt lat="44.28392" lon="5.32008">
        <ele>948.6</ele>
        <time>2014-05-04T11:51:42Z</time>
      </trkpt>
      <trkpt lat="44.28401" lon="5.32005">
        <ele>948.8</ele>
        <time>2014-05-04T11:51:44Z</time>
      </trkpt>
      <trkpt lat="44.28406" lon="5.32004">
        <ele>948.6</ele>
        <time>2014-05-04T11:51:45Z</time>
      </trkpt>
      <trkpt lat="44.28411" lon="5.32002">
        <ele>948.8</ele>
        <time>2014-05-04T11:51:46Z</time>
      </trkpt>
      <trkpt lat="44.2842" lon="5.31999">
        <ele>948.5</ele>
        <time>2014-05-04T11:51:48Z</time>
      </trkpt>
      <trkpt lat="44.28425" lon="5.31997">
        <ele>947.7</ele>
        <time>2014-05-04T11:51:49Z</time>
      </trkpt>
      <trkpt lat="44.2843" lon="5.31994">
        <ele>946.9</ele>
        <time>2014-05-04T11:51:50Z</time>
      </trkpt>
      <trkpt lat="44.28435" lon="5.31991">
        <ele>946.1</ele>
        <time>2014-05-04T11:51:51Z</time>
      </trkpt>
      <trkpt lat="44.2844" lon="5.31987">
        <ele>945.1</ele>
        <time>2014-05-04T11:51:52Z</time>
      </trkpt>
      <trkpt lat="44.28446" lon="5.31982">
        <ele>943.9</ele>
        <time>2014-05-04T11:51:53Z</time>
      </trkpt>
      <trkpt lat="44.28451" lon="5.31977">
        <ele>942.7</ele>
        <time>2014-05-04T11:51:54Z</time>
      </trkpt>
      <trkpt lat="44.28455" lon="5.31972">
        <ele>941.7</ele>
        <time>2014-05-04T11:51:55Z</time>
      </trkpt>
      <trkpt lat="44.28459" lon="5.31966">
        <ele>940.5</ele>
        <time>2014-05-04T11:51:56Z</time>
      </trkpt>
      <trkpt lat="44.28462" lon="5.3196">
        <ele>939.5</ele>
        <time>2014-05-04T11:51:57Z</time>
      </trkpt>
      <trkpt lat="44.28466" lon="5.31954">
        <ele>938.5</ele>
        <time>2014-05-04T11:51:58Z</time>
      </trkpt>
      <trkpt lat="44.28469" lon="5.31949">
        <ele>937.6</ele>
        <time>2014-05-04T11:51:59Z</time>
      </trkpt>
      <trkpt lat="44.28472" lon="5.31944">
        <ele>936.9</ele>
        <time>2014-05-04T11:52:00Z</time>
      </trkpt>
      <trkpt lat="44.28479" lon="5.31937">
        <ele>935.7</ele>
        <time>2014-05-04T11:52:02Z</time>
      </trkpt>
      <trkpt lat="44.28484" lon="5.31928">
        <ele>934.4</ele>
        <time>2014-05-04T11:52:04Z</time>
      </trkpt>
      <trkpt lat="44.28486" lon="5.31922">
        <ele>933.7</ele>
        <time>2014-05-04T11:52:05Z</time>
      </trkpt>
      <trkpt lat="44.28488" lon="5.31916">
        <ele>932.8</ele>
        <time>2014-05-04T11:52:06Z</time>
      </trkpt>
      <trkpt lat="44.28491" lon="5.31909">
        <ele>931.9</ele>
        <time>2014-05-04T11:52:07Z</time>
      </trkpt>
      <trkpt lat="44.28493" lon="5.31901">
        <ele>931.1</ele>
        <time>2014-05-04T11:52:08Z</time>
      </trkpt>
      <trkpt lat="44.28494" lon="5.31894">
        <ele>930.2</ele>
        <time>2014-05-04T11:52:09Z</time>
      </trkpt>
      <trkpt lat="44.28495" lon="5.31885">
        <ele>929.1</ele>
        <time>2014-05-04T11:52:10Z</time>
      </trkpt>
      <trkpt lat="44.28495" lon="5.31876">
        <ele>928</ele>
        <time>2014-05-04T11:52:11Z</time>
      </trkpt>
      <trkpt lat="44.28496" lon="5.31867">
        <ele>927</ele>
        <time>2014-05-04T11:52:12Z</time>
      </trkpt>
      <trkpt lat="44.28496" lon="5.31858">
        <ele>925.9</ele>
        <time>2014-05-04T11:52:13Z</time>
      </trkpt>
      <trkpt lat="44.28496" lon="5.31849">
        <ele>924.8</ele>
        <time>2014-05-04T11:52:14Z</time>
      </trkpt>
      <trkpt lat="44.28497" lon="5.3184">
        <ele>923.7</ele>
        <time>2014-05-04T11:52:15Z</time>
      </trkpt>
      <trkpt lat="44.28496" lon="5.31831">
        <ele>922.7</ele>
        <time>2014-05-04T11:52:16Z</time>
      </trkpt>
      <trkpt lat="44.28496" lon="5.31823">
        <ele>921.7</ele>
        <time>2014-05-04T11:52:17Z</time>
      </trkpt>
      <trkpt lat="44.28496" lon="5.31814">
        <ele>920.8</ele>
        <time>2014-05-04T11:52:18Z</time>
      </trkpt>
      <trkpt lat="44.28496" lon="5.31806">
        <ele>920</ele>
        <time>2014-05-04T11:52:19Z</time>
      </trkpt>
      <trkpt lat="44.28496" lon="5.31799">
        <ele>919.1</ele>
        <time>2014-05-04T11:52:20Z</time>
      </trkpt>
      <trkpt lat="44.28497" lon="5.31792">
        <ele>918.4</ele>
        <time>2014-05-04T11:52:21Z</time>
      </trkpt>
      <trkpt lat="44.28497" lon="5.31784">
        <ele>917.6</ele>
        <time>2014-05-04T11:52:22Z</time>
      </trkpt>
      <trkpt lat="44.28496" lon="5.31777">
        <ele>916.7</ele>
        <time>2014-05-04T11:52:23Z</time>
      </trkpt>
      <trkpt lat="44.28497" lon="5.31769">
        <ele>916</ele>
        <time>2014-05-04T11:52:24Z</time>
      </trkpt>
      <trkpt lat="44.28497" lon="5.31762">
        <ele>915.2</ele>
        <time>2014-05-04T11:52:25Z</time>
      </trkpt>
      <trkpt lat="44.28497" lon="5.31754">
        <ele>914.3</ele>
        <time>2014-05-04T11:52:26Z</time>
      </trkpt>
      <trkpt lat="44.28497" lon="5.31746">
        <ele>913.7</ele>
        <time>2014-05-04T11:52:27Z</time>
      </trkpt>
      <trkpt lat="44.28497" lon="5.31739">
        <ele>913.3</ele>
        <time>2014-05-04T11:52:28Z</time>
      </trkpt>
      <trkpt lat="44.28497" lon="5.31731">
        <ele>912.9</ele>
        <time>2014-05-04T11:52:29Z</time>
      </trkpt>
      <trkpt lat="44.28497" lon="5.31724">
        <ele>912.6</ele>
        <time>2014-05-04T11:52:30Z</time>
      </trkpt>
      <trkpt lat="44.28497" lon="5.31717">
        <ele>912.2</ele>
        <time>2014-05-04T11:52:31Z</time>
      </trkpt>
      <trkpt lat="44.28498" lon="5.3171">
        <ele>911.9</ele>
        <time>2014-05-04T11:52:32Z</time>
      </trkpt>
      <trkpt lat="44.28498" lon="5.31704">
        <ele>911.6</ele>
        <time>2014-05-04T11:52:33Z</time>
      </trkpt>
      <trkpt lat="44.28499" lon="5.31697">
        <ele>911.3</ele>
        <time>2014-05-04T11:52:34Z</time>
      </trkpt>
      <trkpt lat="44.285" lon="5.31686">
        <ele>910.8</ele>
        <time>2014-05-04T11:52:36Z</time>
      </trkpt>
      <trkpt lat="44.28502" lon="5.31675">
        <ele>909.9</ele>
        <time>2014-05-04T11:52:38Z</time>
      </trkpt>
      <trkpt lat="44.28504" lon="5.31669">
        <ele>909.1</ele>
        <time>2014-05-04T11:52:39Z</time>
      </trkpt>
      <trkpt lat="44.28507" lon="5.31661">
        <ele>907.6</ele>
        <time>2014-05-04T11:52:40Z</time>
      </trkpt>
      <trkpt lat="44.28511" lon="5.31653">
        <ele>906.1</ele>
        <time>2014-05-04T11:52:41Z</time>
      </trkpt>
      <trkpt lat="44.28513" lon="5.31646">
        <ele>904.8</ele>
        <time>2014-05-04T11:52:42Z</time>
      </trkpt>
      <trkpt lat="44.28517" lon="5.31638">
        <ele>903.3</ele>
        <time>2014-05-04T11:52:44Z</time>
      </trkpt>
      <trkpt lat="44.28521" lon="5.31632">
        <ele>901.8</ele>
        <time>2014-05-04T11:52:47Z</time>
      </trkpt>
      <trkpt lat="44.28524" lon="5.31626">
        <ele>900.5</ele>
        <time>2014-05-04T11:52:50Z</time>
      </trkpt>
      <trkpt lat="44.28529" lon="5.31613">
        <ele>898.4</ele>
        <time>2014-05-04T11:52:56Z</time>
      </trkpt>
      <trkpt lat="44.2853" lon="5.31606">
        <ele>897.5</ele>
        <time>2014-05-04T11:53:00Z</time>
      </trkpt>
      <trkpt lat="44.28531" lon="5.31598">
        <ele>896.6</ele>
        <time>2014-05-04T11:53:04Z</time>
      </trkpt>
      <trkpt lat="44.28532" lon="5.3159">
        <ele>895.7</ele>
        <time>2014-05-04T11:53:08Z</time>
      </trkpt>
      <trkpt lat="44.28531" lon="5.31584">
        <ele>895.1</ele>
        <time>2014-05-04T11:53:11Z</time>
      </trkpt>
      <trkpt lat="44.28532" lon="5.31577">
        <ele>894</ele>
        <time>2014-05-04T11:53:14Z</time>
      </trkpt>
      <trkpt lat="44.28531" lon="5.31569">
        <ele>892.9</ele>
        <time>2014-05-04T11:53:19Z</time>
      </trkpt>
      <trkpt lat="44.2853" lon="5.31562">
        <ele>891.9</ele>
        <time>2014-05-04T11:53:21Z</time>
      </trkpt>
      <trkpt lat="44.2853" lon="5.31555">
        <ele>891</ele>
        <time>2014-05-04T11:53:23Z</time>
      </trkpt>
      <trkpt lat="44.28529" lon="5.31548">
        <ele>890.2</ele>
        <time>2014-05-04T11:53:25Z</time>
      </trkpt>
      <trkpt lat="44.28528" lon="5.31539">
        <ele>888.9</ele>
        <time>2014-05-04T11:53:27Z</time>
      </trkpt>
      <trkpt lat="44.28527" lon="5.31528">
        <ele>887.3</ele>
        <time>2014-05-04T11:53:29Z</time>
      </trkpt>
      <trkpt lat="44.28526" lon="5.31521">
        <ele>886.3</ele>
        <time>2014-05-04T11:53:30Z</time>
      </trkpt>
      <trkpt lat="44.28526" lon="5.31515">
        <ele>885.4</ele>
        <time>2014-05-04T11:53:31Z</time>
      </trkpt>
      <trkpt lat="44.28526" lon="5.31508">
        <ele>884.4</ele>
        <time>2014-05-04T11:53:32Z</time>
      </trkpt>
      <trkpt lat="44.28527" lon="5.315">
        <ele>883.1</ele>
        <time>2014-05-04T11:53:33Z</time>
      </trkpt>
      <trkpt lat="44.28527" lon="5.31492">
        <ele>882.1</ele>
        <time>2014-05-04T11:53:34Z</time>
      </trkpt>
      <trkpt lat="44.28528" lon="5.31484">
        <ele>881.1</ele>
        <time>2014-05-04T11:53:35Z</time>
      </trkpt>
      <trkpt lat="44.2853" lon="5.31476">
        <ele>880</ele>
        <time>2014-05-04T11:53:36Z</time>
      </trkpt>
      <trkpt lat="44.28531" lon="5.31468">
        <ele>878.8</ele>
        <time>2014-05-04T11:53:37Z</time>
      </trkpt>
      <trkpt lat="44.28532" lon="5.3146">
        <ele>877.6</ele>
        <time>2014-05-04T11:53:38Z</time>
      </trkpt>
      <trkpt lat="44.28534" lon="5.31451">
        <ele>876.4</ele>
        <time>2014-05-04T11:53:39Z</time>
      </trkpt>
      <trkpt lat="44.28535" lon="5.31442">
        <ele>875.2</ele>
        <time>2014-05-04T11:53:40Z</time>
      </trkpt>
      <trkpt lat="44.28536" lon="5.31432">
        <ele>873.9</ele>
        <time>2014-05-04T11:53:41Z</time>
      </trkpt>
      <trkpt lat="44.28538" lon="5.31423">
        <ele>872.5</ele>
        <time>2014-05-04T11:53:42Z</time>
      </trkpt>
      <trkpt lat="44.28539" lon="5.31412">
        <ele>871</ele>
        <time>2014-05-04T11:53:43Z</time>
      </trkpt>
      <trkpt lat="44.2854" lon="5.31401">
        <ele>869.1</ele>
        <time>2014-05-04T11:53:44Z</time>
      </trkpt>
      <trkpt lat="44.28542" lon="5.31388">
        <ele>867.2</ele>
        <time>2014-05-04T11:53:45Z</time>
      </trkpt>
      <trkpt lat="44.28544" lon="5.31375">
        <ele>864.8</ele>
        <time>2014-05-04T11:53:46Z</time>
      </trkpt>
      <trkpt lat="44.28548" lon="5.31363">
        <ele>862.3</ele>
        <time>2014-05-04T11:53:47Z</time>
      </trkpt>
      <trkpt lat="44.28552" lon="5.31351">
        <ele>859.8</ele>
        <time>2014-05-04T11:53:48Z</time>
      </trkpt>
      <trkpt lat="44.28556" lon="5.31339">
        <ele>857.1</ele>
        <time>2014-05-04T11:53:49Z</time>
      </trkpt>
      <trkpt lat="44.28561" lon="5.31328">
        <ele>854.9</ele>
        <time>2014-05-04T11:53:50Z</time>
      </trkpt>
      <trkpt lat="44.28566" lon="5.31317">
        <ele>853.2</ele>
        <time>2014-05-04T11:53:51Z</time>
      </trkpt>
      <trkpt lat="44.28577" lon="5.31298">
        <ele>849.8</ele>
        <time>2014-05-04T11:53:53Z</time>
      </trkpt>
      <trkpt lat="44.2858" lon="5.31287">
        <ele>848.3</ele>
        <time>2014-05-04T11:53:54Z</time>
      </trkpt>
      <trkpt lat="44.28582" lon="5.31276">
        <ele>847.1</ele>
        <time>2014-05-04T11:53:55Z</time>
      </trkpt>
      <trkpt lat="44.28584" lon="5.31265">
        <ele>845.9</ele>
        <time>2014-05-04T11:53:56Z</time>
      </trkpt>
      <trkpt lat="44.28584" lon="5.31252">
        <ele>844.7</ele>
        <time>2014-05-04T11:53:57Z</time>
      </trkpt>
      <trkpt lat="44.28585" lon="5.31239">
        <ele>844.8</ele>
        <time>2014-05-04T11:53:58Z</time>
      </trkpt>
      <trkpt lat="44.28586" lon="5.31226">
        <ele>844.9</ele>
        <time>2014-05-04T11:53:59Z</time>
      </trkpt>
      <trkpt lat="44.28588" lon="5.31213">
        <ele>845</ele>
        <time>2014-05-04T11:54:00Z</time>
      </trkpt>
      <trkpt lat="44.28589" lon="5.31199">
        <ele>845.2</ele>
        <time>2014-05-04T11:54:01Z</time>
      </trkpt>
      <trkpt lat="44.2859" lon="5.31185">
        <ele>845.4</ele>
        <time>2014-05-04T11:54:02Z</time>
      </trkpt>
      <trkpt lat="44.28591" lon="5.31171">
        <ele>845.5</ele>
        <time>2014-05-04T11:54:03Z</time>
      </trkpt>
      <trkpt lat="44.28593" lon="5.31158">
        <ele>845.6</ele>
        <time>2014-05-04T11:54:04Z</time>
      </trkpt>
      <trkpt lat="44.28595" lon="5.31145">
        <ele>845.9</ele>
        <time>2014-05-04T11:54:05Z</time>
      </trkpt>
      <trkpt lat="44.28596" lon="5.31133">
        <ele>846.4</ele>
        <time>2014-05-04T11:54:06Z</time>
      </trkpt>
      <trkpt lat="44.28597" lon="5.31122">
        <ele>846.8</ele>
        <time>2014-05-04T11:54:07Z</time>
      </trkpt>
      <trkpt lat="44.28598" lon="5.31111">
        <ele>847.1</ele>
        <time>2014-05-04T11:54:08Z</time>
      </trkpt>
      <trkpt lat="44.28599" lon="5.31102">
        <ele>847.3</ele>
        <time>2014-05-04T11:54:09Z</time>
      </trkpt>
      <trkpt lat="44.286" lon="5.31093">
        <ele>847.5</ele>
        <time>2014-05-04T11:54:10Z</time>
      </trkpt>
      <trkpt lat="44.28601" lon="5.31084">
        <ele>847.5</ele>
        <time>2014-05-04T11:54:11Z</time>
      </trkpt>
      <trkpt lat="44.28602" lon="5.31076">
        <ele>847.2</ele>
        <time>2014-05-04T11:54:12Z</time>
      </trkpt>
      <trkpt lat="44.28603" lon="5.31069">
        <ele>847.2</ele>
        <time>2014-05-04T11:54:13Z</time>
      </trkpt>
      <trkpt lat="44.28604" lon="5.31062">
        <ele>846.9</ele>
        <time>2014-05-04T11:54:14Z</time>
      </trkpt>
      <trkpt lat="44.28605" lon="5.31056">
        <ele>846.9</ele>
        <time>2014-05-04T11:54:15Z</time>
      </trkpt>
      <trkpt lat="44.28606" lon="5.31045">
        <ele>846.6</ele>
        <time>2014-05-04T11:54:17Z</time>
      </trkpt>
      <trkpt lat="44.28608" lon="5.31034">
        <ele>846.1</ele>
        <time>2014-05-04T11:54:19Z</time>
      </trkpt>
      <trkpt lat="44.2861" lon="5.31025">
        <ele>845.8</ele>
        <time>2014-05-04T11:54:21Z</time>
      </trkpt>
      <trkpt lat="44.28612" lon="5.31015">
        <ele>845.2</ele>
        <time>2014-05-04T11:54:23Z</time>
      </trkpt>
      <trkpt lat="44.28614" lon="5.31006">
        <ele>844.5</ele>
        <time>2014-05-04T11:54:25Z</time>
      </trkpt>
      <trkpt lat="44.28617" lon="5.31">
        <ele>843.7</ele>
        <time>2014-05-04T11:54:27Z</time>
      </trkpt>
      <trkpt lat="44.28619" lon="5.30992">
        <ele>842.7</ele>
        <time>2014-05-04T11:54:29Z</time>
      </trkpt>
      <trkpt lat="44.28621" lon="5.30983">
        <ele>841.9</ele>
        <time>2014-05-04T11:54:31Z</time>
      </trkpt>
      <trkpt lat="44.28624" lon="5.30975">
        <ele>841.2</ele>
        <time>2014-05-04T11:54:33Z</time>
      </trkpt>
      <trkpt lat="44.28625" lon="5.30965">
        <ele>841</ele>
        <time>2014-05-04T11:54:35Z</time>
      </trkpt>
      <trkpt lat="44.28627" lon="5.30957">
        <ele>840.4</ele>
        <time>2014-05-04T11:54:37Z</time>
      </trkpt>
      <trkpt lat="44.28629" lon="5.30949">
        <ele>839.7</ele>
        <time>2014-05-04T11:54:39Z</time>
      </trkpt>
      <trkpt lat="44.28631" lon="5.30941">
        <ele>839.1</ele>
        <time>2014-05-04T11:54:41Z</time>
      </trkpt>
      <trkpt lat="44.28633" lon="5.30931">
        <ele>838.8</ele>
        <time>2014-05-04T11:54:43Z</time>
      </trkpt>
      <trkpt lat="44.28635" lon="5.30921">
        <ele>838.1</ele>
        <time>2014-05-04T11:54:45Z</time>
      </trkpt>
      <trkpt lat="44.28639" lon="5.30909">
        <ele>836.7</ele>
        <time>2014-05-04T11:54:47Z</time>
      </trkpt>
      <trkpt lat="44.2864" lon="5.30902">
        <ele>836.1</ele>
        <time>2014-05-04T11:54:48Z</time>
      </trkpt>
      <trkpt lat="44.28643" lon="5.30894">
        <ele>834.9</ele>
        <time>2014-05-04T11:54:49Z</time>
      </trkpt>
      <trkpt lat="44.28646" lon="5.30887">
        <ele>833.5</ele>
        <time>2014-05-04T11:54:50Z</time>
      </trkpt>
      <trkpt lat="44.2865" lon="5.30879">
        <ele>831.8</ele>
        <time>2014-05-04T11:54:51Z</time>
      </trkpt>
      <trkpt lat="44.28653" lon="5.30871">
        <ele>830.4</ele>
        <time>2014-05-04T11:54:52Z</time>
      </trkpt>
      <trkpt lat="44.28656" lon="5.30864">
        <ele>829.2</ele>
        <time>2014-05-04T11:54:53Z</time>
      </trkpt>
      <trkpt lat="44.28661" lon="5.30849">
        <ele>827.3</ele>
        <time>2014-05-04T11:54:55Z</time>
      </trkpt>
      <trkpt lat="44.28663" lon="5.30841">
        <ele>826.4</ele>
        <time>2014-05-04T11:54:56Z</time>
      </trkpt>
      <trkpt lat="44.28665" lon="5.30835">
        <ele>825.8</ele>
        <time>2014-05-04T11:54:57Z</time>
      </trkpt>
      <trkpt lat="44.28666" lon="5.30827">
        <ele>825.5</ele>
        <time>2014-05-04T11:54:58Z</time>
      </trkpt>
      <trkpt lat="44.28667" lon="5.30818">
        <ele>825.9</ele>
        <time>2014-05-04T11:54:59Z</time>
      </trkpt>
      <trkpt lat="44.28669" lon="5.3081">
        <ele>825.7</ele>
        <time>2014-05-04T11:55:00Z</time>
      </trkpt>
      <trkpt lat="44.2867" lon="5.30802">
        <ele>825.8</ele>
        <time>2014-05-04T11:55:01Z</time>
      </trkpt>
      <trkpt lat="44.28672" lon="5.30793">
        <ele>825.7</ele>
        <time>2014-05-04T11:55:02Z</time>
      </trkpt>
      <trkpt lat="44.28673" lon="5.30784">
        <ele>825.9</ele>
        <time>2014-05-04T11:55:03Z</time>
      </trkpt>
      <trkpt lat="44.28674" lon="5.30775">
        <ele>826.3</ele>
        <time>2014-05-04T11:55:04Z</time>
      </trkpt>
      <trkpt lat="44.28674" lon="5.30766">
        <ele>826.8</ele>
        <time>2014-05-04T11:55:05Z</time>
      </trkpt>
      <trkpt lat="44.28675" lon="5.30758">
        <ele>827.2</ele>
        <time>2014-05-04T11:55:06Z</time>
      </trkpt>
      <trkpt lat="44.28675" lon="5.3075">
        <ele>827.7</ele>
        <time>2014-05-04T11:55:07Z</time>
      </trkpt>
      <trkpt lat="44.28675" lon="5.30742">
        <ele>827.9</ele>
        <time>2014-05-04T11:55:08Z</time>
      </trkpt>
      <trkpt lat="44.28676" lon="5.30733">
        <ele>828.2</ele>
        <time>2014-05-04T11:55:09Z</time>
      </trkpt>
      <trkpt lat="44.28677" lon="5.30725">
        <ele>828.2</ele>
        <time>2014-05-04T11:55:10Z</time>
      </trkpt>
      <trkpt lat="44.28678" lon="5.30717">
        <ele>828.2</ele>
        <time>2014-05-04T11:55:11Z</time>
      </trkpt>
      <trkpt lat="44.2868" lon="5.3071">
        <ele>828.1</ele>
        <time>2014-05-04T11:55:12Z</time>
      </trkpt>
      <trkpt lat="44.28684" lon="5.30703">
        <ele>827.7</ele>
        <time>2014-05-04T11:55:13Z</time>
      </trkpt>
      <trkpt lat="44.28686" lon="5.30697">
        <ele>827.5</ele>
        <time>2014-05-04T11:55:14Z</time>
      </trkpt>
      <trkpt lat="44.28689" lon="5.3069">
        <ele>827.6</ele>
        <time>2014-05-04T11:55:15Z</time>
      </trkpt>
      <trkpt lat="44.28691" lon="5.30682">
        <ele>827.7</ele>
        <time>2014-05-04T11:55:16Z</time>
      </trkpt>
      <trkpt lat="44.28693" lon="5.30674">
        <ele>828.1</ele>
        <time>2014-05-04T11:55:17Z</time>
      </trkpt>
      <trkpt lat="44.28693" lon="5.30667">
        <ele>828.5</ele>
        <time>2014-05-04T11:55:18Z</time>
      </trkpt>
      <trkpt lat="44.28693" lon="5.3066">
        <ele>829.4</ele>
        <time>2014-05-04T11:55:19Z</time>
      </trkpt>
      <trkpt lat="44.28692" lon="5.30653">
        <ele>830.5</ele>
        <time>2014-05-04T11:55:20Z</time>
      </trkpt>
      <trkpt lat="44.28692" lon="5.30646">
        <ele>831.5</ele>
        <time>2014-05-04T11:55:21Z</time>
      </trkpt>
      <trkpt lat="44.28693" lon="5.30639">
        <ele>832.4</ele>
        <time>2014-05-04T11:55:22Z</time>
      </trkpt>
      <trkpt lat="44.28697" lon="5.3063">
        <ele>833.1</ele>
        <time>2014-05-04T11:55:24Z</time>
      </trkpt>
      <trkpt lat="44.28703" lon="5.30624">
        <ele>833.1</ele>
        <time>2014-05-04T11:55:26Z</time>
      </trkpt>
      <trkpt lat="44.28708" lon="5.30615">
        <ele>833.7</ele>
        <time>2014-05-04T11:55:28Z</time>
      </trkpt>
      <trkpt lat="44.28712" lon="5.30604">
        <ele>834.7</ele>
        <time>2014-05-04T11:55:30Z</time>
      </trkpt>
      <trkpt lat="44.28715" lon="5.30594">
        <ele>835.8</ele>
        <time>2014-05-04T11:55:32Z</time>
      </trkpt>
      <trkpt lat="44.28717" lon="5.30584">
        <ele>837</ele>
        <time>2014-05-04T11:55:34Z</time>
      </trkpt>
      <trkpt lat="44.28717" lon="5.30574">
        <ele>838</ele>
        <time>2014-05-04T11:55:36Z</time>
      </trkpt>
      <trkpt lat="44.28716" lon="5.30566">
        <ele>839.2</ele>
        <time>2014-05-04T11:55:38Z</time>
      </trkpt>
      <trkpt lat="44.28715" lon="5.30558">
        <ele>840.1</ele>
        <time>2014-05-04T11:55:40Z</time>
      </trkpt>
      <trkpt lat="44.28715" lon="5.30551">
        <ele>840.9</ele>
        <time>2014-05-04T11:55:42Z</time>
      </trkpt>
      <trkpt lat="44.28716" lon="5.30542">
        <ele>841.8</ele>
        <time>2014-05-04T11:55:45Z</time>
      </trkpt>
      <trkpt lat="44.28719" lon="5.30536">
        <ele>842.1</ele>
        <time>2014-05-04T11:55:48Z</time>
      </trkpt>
      <trkpt lat="44.28725" lon="5.30533">
        <ele>841.6</ele>
        <time>2014-05-04T11:55:51Z</time>
      </trkpt>
      <trkpt lat="44.2873" lon="5.30533">
        <ele>841.1</ele>
        <time>2014-05-04T11:55:53Z</time>
      </trkpt>
      <trkpt lat="44.28735" lon="5.30533">
        <ele>840.3</ele>
        <time>2014-05-04T11:55:56Z</time>
      </trkpt>
      <trkpt lat="44.28746" lon="5.30531">
        <ele>839.1</ele>
        <time>2014-05-04T11:56:02Z</time>
      </trkpt>
      <trkpt lat="44.28752" lon="5.30528">
        <ele>838.7</ele>
        <time>2014-05-04T11:56:05Z</time>
      </trkpt>
      <trkpt lat="44.28758" lon="5.30524">
        <ele>838.3</ele>
        <time>2014-05-04T11:56:08Z</time>
      </trkpt>
      <trkpt lat="44.28761" lon="5.3052">
        <ele>838.2</ele>
        <time>2014-05-04T11:56:10Z</time>
      </trkpt>
      <trkpt lat="44.28766" lon="5.30515">
        <ele>838.1</ele>
        <time>2014-05-04T11:56:12Z</time>
      </trkpt>
      <trkpt lat="44.2877" lon="5.30509">
        <ele>838.2</ele>
        <time>2014-05-04T11:56:14Z</time>
      </trkpt>
      <trkpt lat="44.28774" lon="5.30503">
        <ele>838.4</ele>
        <time>2014-05-04T11:56:16Z</time>
      </trkpt>
      <trkpt lat="44.28777" lon="5.30498">
        <ele>838.6</ele>
        <time>2014-05-04T11:56:18Z</time>
      </trkpt>
      <trkpt lat="44.28781" lon="5.30494">
        <ele>838.4</ele>
        <time>2014-05-04T11:56:20Z</time>
      </trkpt>
      <trkpt lat="44.28785" lon="5.30493">
        <ele>837.9</ele>
        <time>2014-05-04T11:56:22Z</time>
      </trkpt>
      <trkpt lat="44.28791" lon="5.30495">
        <ele>837</ele>
        <time>2014-05-04T11:56:25Z</time>
      </trkpt>
      <trkpt lat="44.28797" lon="5.30499">
        <ele>835.9</ele>
        <time>2014-05-04T11:56:27Z</time>
      </trkpt>
      <trkpt lat="44.28803" lon="5.30503">
        <ele>834.6</ele>
        <time>2014-05-04T11:56:29Z</time>
      </trkpt>
      <trkpt lat="44.28809" lon="5.30504">
        <ele>833.5</ele>
        <time>2014-05-04T11:56:31Z</time>
      </trkpt>
      <trkpt lat="44.28815" lon="5.305">
        <ele>833.6</ele>
        <time>2014-05-04T11:56:33Z</time>
      </trkpt>
      <trkpt lat="44.28815" lon="5.30492">
        <ele>834.2</ele>
        <time>2014-05-04T11:56:38Z</time>
      </trkpt>
      <trkpt lat="44.28818" lon="5.30487">
        <ele>834.5</ele>
        <time>2014-05-04T11:56:40Z</time>
      </trkpt>
      <trkpt lat="44.28824" lon="5.3048">
        <ele>834.5</ele>
        <time>2014-05-04T11:56:42Z</time>
      </trkpt>
      <trkpt lat="44.28828" lon="5.30474">
        <ele>835</ele>
        <time>2014-05-04T11:56:44Z</time>
      </trkpt>
      <trkpt lat="44.28833" lon="5.30469">
        <ele>835.2</ele>
        <time>2014-05-04T11:56:46Z</time>
      </trkpt>
      <trkpt lat="44.28837" lon="5.30467">
        <ele>836.2</ele>
        <time>2014-05-04T11:56:47Z</time>
      </trkpt>
      <trkpt lat="44.28841" lon="5.30465">
        <ele>837.3</ele>
        <time>2014-05-04T11:56:48Z</time>
      </trkpt>
      <trkpt lat="44.28846" lon="5.30462">
        <ele>838.7</ele>
        <time>2014-05-04T11:56:49Z</time>
      </trkpt>
      <trkpt lat="44.28851" lon="5.30459">
        <ele>840.4</ele>
        <time>2014-05-04T11:56:50Z</time>
      </trkpt>
      <trkpt lat="44.28855" lon="5.30452">
        <ele>842.2</ele>
        <time>2014-05-04T11:56:51Z</time>
      </trkpt>
      <trkpt lat="44.28857" lon="5.30445">
        <ele>843.7</ele>
        <time>2014-05-04T11:56:52Z</time>
      </trkpt>
      <trkpt lat="44.28858" lon="5.30438">
        <ele>845.3</ele>
        <time>2014-05-04T11:56:53Z</time>
      </trkpt>
      <trkpt lat="44.28858" lon="5.30432">
        <ele>846.4</ele>
        <time>2014-05-04T11:56:54Z</time>
      </trkpt>
      <trkpt lat="44.28858" lon="5.30421">
        <ele>848</ele>
        <time>2014-05-04T11:56:56Z</time>
      </trkpt>
      <trkpt lat="44.28859" lon="5.30412">
        <ele>848.5</ele>
        <time>2014-05-04T11:56:58Z</time>
      </trkpt>
      <trkpt lat="44.28861" lon="5.30396">
        <ele>847.6</ele>
        <time>2014-05-04T11:57:02Z</time>
      </trkpt>
      <trkpt lat="44.28861" lon="5.30387">
        <ele>846.8</ele>
        <time>2014-05-04T11:57:03Z</time>
      </trkpt>
      <trkpt lat="44.28862" lon="5.30379">
        <ele>846.4</ele>
        <time>2014-05-04T11:57:04Z</time>
      </trkpt>
      <trkpt lat="44.28864" lon="5.30372">
        <ele>846.5</ele>
        <time>2014-05-04T11:57:05Z</time>
      </trkpt>
      <trkpt lat="44.28865" lon="5.30366">
        <ele>846.3</ele>
        <time>2014-05-04T11:57:06Z</time>
      </trkpt>
      <trkpt lat="44.28865" lon="5.30354">
        <ele>844.8</ele>
        <time>2014-05-04T11:57:08Z</time>
      </trkpt>
      <trkpt lat="44.28863" lon="5.30344">
        <ele>843.2</ele>
        <time>2014-05-04T11:57:10Z</time>
      </trkpt>
      <trkpt lat="44.28861" lon="5.30333">
        <ele>841.5</ele>
        <time>2014-05-04T11:57:12Z</time>
      </trkpt>
      <trkpt lat="44.28861" lon="5.30324">
        <ele>839.3</ele>
        <time>2014-05-04T11:57:14Z</time>
      </trkpt>
      <trkpt lat="44.2886" lon="5.30313">
        <ele>837</ele>
        <time>2014-05-04T11:57:16Z</time>
      </trkpt>
      <trkpt lat="44.2886" lon="5.30301">
        <ele>834.3</ele>
        <time>2014-05-04T11:57:18Z</time>
      </trkpt>
      <trkpt lat="44.2886" lon="5.30295">
        <ele>832.9</ele>
        <time>2014-05-04T11:57:19Z</time>
      </trkpt>
      <trkpt lat="44.28861" lon="5.30282">
        <ele>830.9</ele>
        <time>2014-05-04T11:57:21Z</time>
      </trkpt>
      <trkpt lat="44.2886" lon="5.30276">
        <ele>829.3</ele>
        <time>2014-05-04T11:57:22Z</time>
      </trkpt>
      <trkpt lat="44.28859" lon="5.30265">
        <ele>826.5</ele>
        <time>2014-05-04T11:57:24Z</time>
      </trkpt>
      <trkpt lat="44.2886" lon="5.30255">
        <ele>825.1</ele>
        <time>2014-05-04T11:57:26Z</time>
      </trkpt>
      <trkpt lat="44.28859" lon="5.30241">
        <ele>821.6</ele>
        <time>2014-05-04T11:57:28Z</time>
      </trkpt>
      <trkpt lat="44.28859" lon="5.30234">
        <ele>819.6</ele>
        <time>2014-05-04T11:57:29Z</time>
      </trkpt>
      <trkpt lat="44.28858" lon="5.30226">
        <ele>817.6</ele>
        <time>2014-05-04T11:57:30Z</time>
      </trkpt>
      <trkpt lat="44.28857" lon="5.30218">
        <ele>815.5</ele>
        <time>2014-05-04T11:57:31Z</time>
      </trkpt>
      <trkpt lat="44.28854" lon="5.30209">
        <ele>812.1</ele>
        <time>2014-05-04T11:57:32Z</time>
      </trkpt>
      <trkpt lat="44.28853" lon="5.30203">
        <ele>810.3</ele>
        <time>2014-05-04T11:57:33Z</time>
      </trkpt>
      <trkpt lat="44.28852" lon="5.30194">
        <ele>808</ele>
        <time>2014-05-04T11:57:34Z</time>
      </trkpt>
      <trkpt lat="44.28849" lon="5.30187">
        <ele>805</ele>
        <time>2014-05-04T11:57:35Z</time>
      </trkpt>
      <trkpt lat="44.28845" lon="5.30182">
        <ele>801.8</ele>
        <time>2014-05-04T11:57:36Z</time>
      </trkpt>
      <trkpt lat="44.28844" lon="5.30173">
        <ele>799.8</ele>
        <time>2014-05-04T11:57:38Z</time>
      </trkpt>
      <trkpt lat="44.28845" lon="5.30166">
        <ele>798.4</ele>
        <time>2014-05-04T11:57:40Z</time>
      </trkpt>
      <trkpt lat="44.28846" lon="5.30159">
        <ele>796.8</ele>
        <time>2014-05-04T11:57:42Z</time>
      </trkpt>
      <trkpt lat="44.28846" lon="5.3015">
        <ele>794.7</ele>
        <time>2014-05-04T11:57:44Z</time>
      </trkpt>
      <trkpt lat="44.28847" lon="5.30142">
        <ele>792.9</ele>
        <time>2014-05-04T11:57:46Z</time>
      </trkpt>
      <trkpt lat="44.28849" lon="5.30133">
        <ele>791.5</ele>
        <time>2014-05-04T11:57:48Z</time>
      </trkpt>
      <trkpt lat="44.2885" lon="5.30124">
        <ele>789.9</ele>
        <time>2014-05-04T11:57:50Z</time>
      </trkpt>
      <trkpt lat="44.28849" lon="5.30115">
        <ele>787</ele>
        <time>2014-05-04T11:57:52Z</time>
      </trkpt>
      <trkpt lat="44.28847" lon="5.30106">
        <ele>783.1</ele>
        <time>2014-05-04T11:57:54Z</time>
      </trkpt>
      <trkpt lat="44.28844" lon="5.301">
        <ele>780</ele>
        <time>2014-05-04T11:57:56Z</time>
      </trkpt>
      <trkpt lat="44.28845" lon="5.30092">
        <ele>778.4</ele>
        <time>2014-05-04T11:57:59Z</time>
      </trkpt>
      <trkpt lat="44.28843" lon="5.30086">
        <ele>775.6</ele>
        <time>2014-05-04T11:58:01Z</time>
      </trkpt>
      <trkpt lat="44.2884" lon="5.30066">
        <ele>769.1</ele>
        <time>2014-05-04T11:58:05Z</time>
      </trkpt>
      <trkpt lat="44.28841" lon="5.30054">
        <ele>766.7</ele>
        <time>2014-05-04T11:58:07Z</time>
      </trkpt>
      <trkpt lat="44.28842" lon="5.30043">
        <ele>764.4</ele>
        <time>2014-05-04T11:58:09Z</time>
      </trkpt>
      <trkpt lat="44.2884" lon="5.30035">
        <ele>761.3</ele>
        <time>2014-05-04T11:58:11Z</time>
      </trkpt>
      <trkpt lat="44.2884" lon="5.30024">
        <ele>758.5</ele>
        <time>2014-05-04T11:58:13Z</time>
      </trkpt>
      <trkpt lat="44.28841" lon="5.30012">
        <ele>756.1</ele>
        <time>2014-05-04T11:58:15Z</time>
      </trkpt>
      <trkpt lat="44.28842" lon="5.30003">
        <ele>754.7</ele>
        <time>2014-05-04T11:58:17Z</time>
      </trkpt>
      <trkpt lat="44.28843" lon="5.29996">
        <ele>753.5</ele>
        <time>2014-05-04T11:58:19Z</time>
      </trkpt>
      <trkpt lat="44.28845" lon="5.29987">
        <ele>753.3</ele>
        <time>2014-05-04T11:58:22Z</time>
      </trkpt>
      <trkpt lat="44.28848" lon="5.29978">
        <ele>753.6</ele>
        <time>2014-05-04T11:58:25Z</time>
      </trkpt>
      <trkpt lat="44.28851" lon="5.29971">
        <ele>753.7</ele>
        <time>2014-05-04T11:58:27Z</time>
      </trkpt>
      <trkpt lat="44.2885" lon="5.29962">
        <ele>752.3</ele>
        <time>2014-05-04T11:58:29Z</time>
      </trkpt>
      <trkpt lat="44.28849" lon="5.29953">
        <ele>749.5</ele>
        <time>2014-05-04T11:58:31Z</time>
      </trkpt>
      <trkpt lat="44.28849" lon="5.29943">
        <ele>748.1</ele>
        <time>2014-05-04T11:58:33Z</time>
      </trkpt>
      <trkpt lat="44.28849" lon="5.29933">
        <ele>746.2</ele>
        <time>2014-05-04T11:58:35Z</time>
      </trkpt>
      <trkpt lat="44.28849" lon="5.29923">
        <ele>744.5</ele>
        <time>2014-05-04T11:58:37Z</time>
      </trkpt>
      <trkpt lat="44.28847" lon="5.29916">
        <ele>742.3</ele>
        <time>2014-05-04T11:58:39Z</time>
      </trkpt>
      <trkpt lat="44.28848" lon="5.29908">
        <ele>741.7</ele>
        <time>2014-05-04T11:58:41Z</time>
      </trkpt>
      <trkpt lat="44.28846" lon="5.29901">
        <ele>739.9</ele>
        <time>2014-05-04T11:58:43Z</time>
      </trkpt>
      <trkpt lat="44.28844" lon="5.29894">
        <ele>737.6</ele>
        <time>2014-05-04T11:58:45Z</time>
      </trkpt>
      <trkpt lat="44.28839" lon="5.29889">
        <ele>734.3</ele>
        <time>2014-05-04T11:58:47Z</time>
      </trkpt>
      <trkpt lat="44.28838" lon="5.29883">
        <ele>732.5</ele>
        <time>2014-05-04T11:58:49Z</time>
      </trkpt>
      <trkpt lat="44.28834" lon="5.29872">
        <ele>728.8</ele>
        <time>2014-05-04T11:58:51Z</time>
      </trkpt>
      <trkpt lat="44.28832" lon="5.29863">
        <ele>727</ele>
        <time>2014-05-04T11:58:53Z</time>
      </trkpt>
      <trkpt lat="44.28829" lon="5.29855">
        <ele>725.5</ele>
        <time>2014-05-04T11:58:55Z</time>
      </trkpt>
      <trkpt lat="44.28826" lon="5.29846">
        <ele>724</ele>
        <time>2014-05-04T11:58:57Z</time>
      </trkpt>
      <trkpt lat="44.28825" lon="5.29839">
        <ele>722.6</ele>
        <time>2014-05-04T11:58:59Z</time>
      </trkpt>
      <trkpt lat="44.28823" lon="5.29833">
        <ele>721.1</ele>
        <time>2014-05-04T11:59:02Z</time>
      </trkpt>
      <trkpt lat="44.2882" lon="5.29827">
        <ele>719.6</ele>
        <time>2014-05-04T11:59:04Z</time>
      </trkpt>
      <trkpt lat="44.28812" lon="5.29818">
        <ele>716.2</ele>
        <time>2014-05-04T11:59:08Z</time>
      </trkpt>
      <trkpt lat="44.28809" lon="5.2981">
        <ele>713.9</ele>
        <time>2014-05-04T11:59:10Z</time>
      </trkpt>
      <trkpt lat="44.28808" lon="5.29803">
        <ele>711.7</ele>
        <time>2014-05-04T11:59:12Z</time>
      </trkpt>
      <trkpt lat="44.28805" lon="5.29793">
        <ele>709</ele>
        <time>2014-05-04T11:59:14Z</time>
      </trkpt>
      <trkpt lat="44.28803" lon="5.29787">
        <ele>707.1</ele>
        <time>2014-05-04T11:59:15Z</time>
      </trkpt>
      <trkpt lat="44.28802" lon="5.29781">
        <ele>705.4</ele>
        <time>2014-05-04T11:59:16Z</time>
      </trkpt>
      <trkpt lat="44.288" lon="5.29771">
        <ele>702.8</ele>
        <time>2014-05-04T11:59:18Z</time>
      </trkpt>
      <trkpt lat="44.28798" lon="5.29763">
        <ele>700.4</ele>
        <time>2014-05-04T11:59:20Z</time>
      </trkpt>
      <trkpt lat="44.28802" lon="5.29768">
        <ele>702.5</ele>
        <time>2014-05-04T11:59:30Z</time>
      </trkpt>
      <trkpt lat="44.28802" lon="5.29761">
        <ele>700.4</ele>
        <time>2014-05-04T11:59:34Z</time>
      </trkpt>
      <trkpt lat="44.288" lon="5.29755">
        <ele>698.5</ele>
        <time>2014-05-04T11:59:36Z</time>
      </trkpt>
      <trkpt lat="44.28803" lon="5.29761">
        <ele>700.7</ele>
        <time>2014-05-04T11:59:41Z</time>
      </trkpt>
      <trkpt lat="44.28806" lon="5.29768">
        <ele>702.9</ele>
        <time>2014-05-04T11:59:43Z</time>
      </trkpt>
      <trkpt lat="44.28808" lon="5.29762">
        <ele>702</ele>
        <time>2014-05-04T11:59:46Z</time>
      </trkpt>
      <trkpt lat="44.2881" lon="5.29752">
        <ele>699.8</ele>
        <time>2014-05-04T11:59:48Z</time>
      </trkpt>
      <trkpt lat="44.2881" lon="5.29741">
        <ele>697.2</ele>
        <time>2014-05-04T11:59:50Z</time>
      </trkpt>
      <trkpt lat="44.2881" lon="5.29728">
        <ele>693.8</ele>
        <time>2014-05-04T11:59:52Z</time>
      </trkpt>
      <trkpt lat="44.2881" lon="5.29721">
        <ele>692</ele>
        <time>2014-05-04T11:59:53Z</time>
      </trkpt>
      <trkpt lat="44.2881" lon="5.29711">
        <ele>689.3</ele>
        <time>2014-05-04T11:59:55Z</time>
      </trkpt>
      <trkpt lat="44.2881" lon="5.29702">
        <ele>687</ele>
        <time>2014-05-04T11:59:57Z</time>
      </trkpt>
      <trkpt lat="44.28812" lon="5.29691">
        <ele>684.1</ele>
        <time>2014-05-04T11:59:59Z</time>
      </trkpt>
      <trkpt lat="44.28812" lon="5.29683">
        <ele>682.1</ele>
        <time>2014-05-04T12:00:01Z</time>
      </trkpt>
      <trkpt lat="44.28816" lon="5.29691">
        <ele>684.8</ele>
        <time>2014-05-04T12:00:07Z</time>
      </trkpt>
      <trkpt lat="44.28821" lon="5.29708">
        <ele>690</ele>
        <time>2014-05-04T12:02:05Z</time>
      </trkpt>
      <trkpt lat="44.28833" lon="5.29717">
        <ele>694.5</ele>
        <time>2014-05-04T12:02:09Z</time>
      </trkpt>
      <trkpt lat="44.28833" lon="5.29708">
        <ele>692.4</ele>
        <time>2014-05-04T12:02:15Z</time>
      </trkpt>
      <trkpt lat="44.28832" lon="5.29702">
        <ele>690.5</ele>
        <time>2014-05-04T12:02:17Z</time>
      </trkpt>
      <trkpt lat="44.28831" lon="5.29694">
        <ele>688.2</ele>
        <time>2014-05-04T12:02:19Z</time>
      </trkpt>
      <trkpt lat="44.28836" lon="5.29691">
        <ele>689.1</ele>
        <time>2014-05-04T12:02:23Z</time>
      </trkpt>
      <trkpt lat="44.2884" lon="5.29695">
        <ele>692.6</ele>
        <time>2014-05-04T12:02:25Z</time>
      </trkpt>
      <trkpt lat="44.28842" lon="5.29688">
        <ele>691.5</ele>
        <time>2014-05-04T12:02:28Z</time>
      </trkpt>
      <trkpt lat="44.28839" lon="5.29682">
        <ele>688.2</ele>
        <time>2014-05-04T12:02:30Z</time>
      </trkpt>
      <trkpt lat="44.28842" lon="5.29676">
        <ele>688.3</ele>
        <time>2014-05-04T12:02:34Z</time>
      </trkpt>
      <trkpt lat="44.28848" lon="5.29678">
        <ele>691.7</ele>
        <time>2014-05-04T12:02:37Z</time>
      </trkpt>
      <trkpt lat="44.28846" lon="5.29672">
        <ele>688.8</ele>
        <time>2014-05-04T12:02:40Z</time>
      </trkpt>
      <trkpt lat="44.28843" lon="5.29666">
        <ele>685.8</ele>
        <time>2014-05-04T12:02:42Z</time>
      </trkpt>
      <trkpt lat="44.2884" lon="5.29661">
        <ele>683.2</ele>
        <time>2014-05-04T12:02:44Z</time>
      </trkpt>
      <trkpt lat="44.28843" lon="5.29654">
        <ele>682.6</ele>
        <time>2014-05-04T12:02:47Z</time>
      </trkpt>
      <trkpt lat="44.28848" lon="5.29654">
        <ele>685.5</ele>
        <time>2014-05-04T12:02:49Z</time>
      </trkpt>
      <trkpt lat="44.28853" lon="5.29652">
        <ele>687.5</ele>
        <time>2014-05-04T12:02:51Z</time>
      </trkpt>
      <trkpt lat="44.28859" lon="5.29653">
        <ele>690.9</ele>
        <time>2014-05-04T12:02:54Z</time>
      </trkpt>
      <trkpt lat="44.28856" lon="5.29645">
        <ele>686.9</ele>
        <time>2014-05-04T12:02:57Z</time>
      </trkpt>
      <trkpt lat="44.2885" lon="5.29641">
        <ele>683.1</ele>
        <time>2014-05-04T12:02:59Z</time>
      </trkpt>
      <trkpt lat="44.28845" lon="5.29638">
        <ele>680.1</ele>
        <time>2014-05-04T12:03:01Z</time>
      </trkpt>
      <trkpt lat="44.28849" lon="5.29634">
        <ele>680.7</ele>
        <time>2014-05-04T12:03:06Z</time>
      </trkpt>
      <trkpt lat="44.28848" lon="5.29625">
        <ele>677.8</ele>
        <time>2014-05-04T12:03:14Z</time>
      </trkpt>
      <trkpt lat="44.28845" lon="5.29608">
        <ele>672.3</ele>
        <time>2014-05-04T12:03:18Z</time>
      </trkpt>
      <trkpt lat="44.28846" lon="5.296">
        <ele>670.8</ele>
        <time>2014-05-04T12:03:20Z</time>
      </trkpt>
      <trkpt lat="44.28848" lon="5.29593">
        <ele>669.7</ele>
        <time>2014-05-04T12:03:23Z</time>
      </trkpt>
      <trkpt lat="44.2885" lon="5.29586">
        <ele>668.5</ele>
        <time>2014-05-04T12:03:26Z</time>
      </trkpt>
      <trkpt lat="44.28853" lon="5.29579">
        <ele>668.1</ele>
        <time>2014-05-04T12:03:29Z</time>
      </trkpt>
      <trkpt lat="44.28858" lon="5.29577">
        <ele>669.9</ele>
        <time>2014-05-04T12:03:34Z</time>
      </trkpt>
      <trkpt lat="44.28864" lon="5.29576">
        <ele>671.9</ele>
        <time>2014-05-04T12:03:38Z</time>
      </trkpt>
      <trkpt lat="44.28868" lon="5.2957">
        <ele>671.7</ele>
        <time>2014-05-04T12:03:41Z</time>
      </trkpt>
      <trkpt lat="44.28872" lon="5.29563">
        <ele>671.6</ele>
        <time>2014-05-04T12:03:44Z</time>
      </trkpt>
      <trkpt lat="44.28869" lon="5.29558">
        <ele>669.1</ele>
        <time>2014-05-04T12:05:42Z</time>
      </trkpt>
      <trkpt lat="44.28876" lon="5.29548">
        <ele>668.7</ele>
        <time>2014-05-04T12:05:47Z</time>
      </trkpt>
      <trkpt lat="44.2888" lon="5.29542">
        <ele>668.5</ele>
        <time>2014-05-04T12:05:49Z</time>
      </trkpt>
      <trkpt lat="44.28884" lon="5.29535">
        <ele>667.5</ele>
        <time>2014-05-04T12:05:52Z</time>
      </trkpt>
      <trkpt lat="44.28888" lon="5.29529">
        <ele>667.3</ele>
        <time>2014-05-04T12:05:55Z</time>
      </trkpt>
      <trkpt lat="44.2889" lon="5.29523">
        <ele>666.2</ele>
        <time>2014-05-04T12:05:57Z</time>
      </trkpt>
      <trkpt lat="44.28891" lon="5.29515">
        <ele>664</ele>
        <time>2014-05-04T12:05:59Z</time>
      </trkpt>
      <trkpt lat="44.28892" lon="5.29506">
        <ele>661.5</ele>
        <time>2014-05-04T12:06:01Z</time>
      </trkpt>
      <trkpt lat="44.28893" lon="5.29495">
        <ele>659.1</ele>
        <time>2014-05-04T12:06:03Z</time>
      </trkpt>
      <trkpt lat="44.28894" lon="5.29489">
        <ele>657.8</ele>
        <time>2014-05-04T12:06:04Z</time>
      </trkpt>
      <trkpt lat="44.28895" lon="5.29482">
        <ele>656.5</ele>
        <time>2014-05-04T12:06:05Z</time>
      </trkpt>
      <trkpt lat="44.28896" lon="5.29476">
        <ele>655.1</ele>
        <time>2014-05-04T12:06:06Z</time>
      </trkpt>
      <trkpt lat="44.28896" lon="5.29469">
        <ele>653.7</ele>
        <time>2014-05-04T12:06:07Z</time>
      </trkpt>
      <trkpt lat="44.28898" lon="5.29457">
        <ele>651.4</ele>
        <time>2014-05-04T12:06:09Z</time>
      </trkpt>
      <trkpt lat="44.28903" lon="5.29448">
        <ele>650.5</ele>
        <time>2014-05-04T12:06:11Z</time>
      </trkpt>
      <trkpt lat="44.28908" lon="5.29441">
        <ele>649.8</ele>
        <time>2014-05-04T12:06:13Z</time>
      </trkpt>
      <trkpt lat="44.28912" lon="5.29432">
        <ele>648.5</ele>
        <time>2014-05-04T12:06:15Z</time>
      </trkpt>
      <trkpt lat="44.28915" lon="5.29427">
        <ele>648.3</ele>
        <time>2014-05-04T12:06:16Z</time>
      </trkpt>
      <trkpt lat="44.2892" lon="5.29424">
        <ele>648.4</ele>
        <time>2014-05-04T12:06:17Z</time>
      </trkpt>
      <trkpt lat="44.28928" lon="5.2942">
        <ele>649.5</ele>
        <time>2014-05-04T12:06:19Z</time>
      </trkpt>
      <trkpt lat="44.28936" lon="5.29415">
        <ele>650.2</ele>
        <time>2014-05-04T12:06:21Z</time>
      </trkpt>
      <trkpt lat="44.2894" lon="5.29412">
        <ele>650.5</ele>
        <time>2014-05-04T12:06:23Z</time>
      </trkpt>
      <trkpt lat="44.28945" lon="5.2941">
        <ele>651</ele>
        <time>2014-05-04T12:06:26Z</time>
      </trkpt>
      <trkpt lat="44.2894" lon="5.29408">
        <ele>649.6</ele>
        <time>2014-05-04T12:06:38Z</time>
      </trkpt>
      <trkpt lat="44.28937" lon="5.29401">
        <ele>647.3</ele>
        <time>2014-05-04T12:06:41Z</time>
      </trkpt>
      <trkpt lat="44.28934" lon="5.29393">
        <ele>644.7</ele>
        <time>2014-05-04T12:06:44Z</time>
      </trkpt>
      <trkpt lat="44.28929" lon="5.2938">
        <ele>640.7</ele>
        <time>2014-05-04T12:06:48Z</time>
      </trkpt>
      <trkpt lat="44.28925" lon="5.29376">
        <ele>638.9</ele>
        <time>2014-05-04T12:06:50Z</time>
      </trkpt>
      <trkpt lat="44.28923" lon="5.29371">
        <ele>636.7</ele>
        <time>2014-05-04T12:06:52Z</time>
      </trkpt>
      <trkpt lat="44.28921" lon="5.29364">
        <ele>634.8</ele>
        <time>2014-05-04T12:06:54Z</time>
      </trkpt>
      <trkpt lat="44.2892" lon="5.29357">
        <ele>633.1</ele>
        <time>2014-05-04T12:06:56Z</time>
      </trkpt>
      <trkpt lat="44.28921" lon="5.2935">
        <ele>631.9</ele>
        <time>2014-05-04T12:06:59Z</time>
      </trkpt>
      <trkpt lat="44.28919" lon="5.29342">
        <ele>629.3</ele>
        <time>2014-05-04T12:07:02Z</time>
      </trkpt>
      <trkpt lat="44.28923" lon="5.29336">
        <ele>629.1</ele>
        <time>2014-05-04T12:07:04Z</time>
      </trkpt>
      <trkpt lat="44.28928" lon="5.29331">
        <ele>629.2</ele>
        <time>2014-05-04T12:07:06Z</time>
      </trkpt>
      <trkpt lat="44.28933" lon="5.29327">
        <ele>629.5</ele>
        <time>2014-05-04T12:07:08Z</time>
      </trkpt>
      <trkpt lat="44.28937" lon="5.29322">
        <ele>629.5</ele>
        <time>2014-05-04T12:07:10Z</time>
      </trkpt>
      <trkpt lat="44.28938" lon="5.29315">
        <ele>628.2</ele>
        <time>2014-05-04T12:07:12Z</time>
      </trkpt>
      <trkpt lat="44.28937" lon="5.29303">
        <ele>625.8</ele>
        <time>2014-05-04T12:07:14Z</time>
      </trkpt>
      <trkpt lat="44.28935" lon="5.29294">
        <ele>623.7</ele>
        <time>2014-05-04T12:07:16Z</time>
      </trkpt>
      <trkpt lat="44.28935" lon="5.29288">
        <ele>622.3</ele>
        <time>2014-05-04T12:07:19Z</time>
      </trkpt>
      <trkpt lat="44.28937" lon="5.29281">
        <ele>621.2</ele>
        <time>2014-05-04T12:07:23Z</time>
      </trkpt>
      <trkpt lat="44.28941" lon="5.29274">
        <ele>620.7</ele>
        <time>2014-05-04T12:07:26Z</time>
      </trkpt>
      <trkpt lat="44.28942" lon="5.29266">
        <ele>619.4</ele>
        <time>2014-05-04T12:07:29Z</time>
      </trkpt>
      <trkpt lat="44.28945" lon="5.2926">
        <ele>619</ele>
        <time>2014-05-04T12:07:31Z</time>
      </trkpt>
      <trkpt lat="44.28946" lon="5.29253">
        <ele>617.4</ele>
        <time>2014-05-04T12:07:34Z</time>
      </trkpt>
      <trkpt lat="44.28941" lon="5.29251">
        <ele>616</ele>
        <time>2014-05-04T12:07:37Z</time>
      </trkpt>
      <trkpt lat="44.28937" lon="5.29251">
        <ele>615.4</ele>
        <time>2014-05-04T12:07:39Z</time>
      </trkpt>
      <trkpt lat="44.28932" lon="5.29249">
        <ele>614.1</ele>
        <time>2014-05-04T12:07:41Z</time>
      </trkpt>
      <trkpt lat="44.28928" lon="5.29243">
        <ele>613</ele>
        <time>2014-05-04T12:07:44Z</time>
      </trkpt>
      <trkpt lat="44.28925" lon="5.29237">
        <ele>612.1</ele>
        <time>2014-05-04T12:07:47Z</time>
      </trkpt>
      <trkpt lat="44.28918" lon="5.29223">
        <ele>610.3</ele>
        <time>2014-05-04T12:07:52Z</time>
      </trkpt>
      <trkpt lat="44.28916" lon="5.29217">
        <ele>609.7</ele>
        <time>2014-05-04T12:07:54Z</time>
      </trkpt>
      <trkpt lat="44.28918" lon="5.29208">
        <ele>609.7</ele>
        <time>2014-05-04T12:07:56Z</time>
      </trkpt>
      <trkpt lat="44.28919" lon="5.29202">
        <ele>609.7</ele>
        <time>2014-05-04T12:07:58Z</time>
      </trkpt>
      <trkpt lat="44.28917" lon="5.29194">
        <ele>609.1</ele>
        <time>2014-05-04T12:08:01Z</time>
      </trkpt>
      <trkpt lat="44.28916" lon="5.29186">
        <ele>608.5</ele>
        <time>2014-05-04T12:08:04Z</time>
      </trkpt>
      <trkpt lat="44.28915" lon="5.29179">
        <ele>608.1</ele>
        <time>2014-05-04T12:08:18Z</time>
      </trkpt>
      <trkpt lat="44.28912" lon="5.29174">
        <ele>606.9</ele>
        <time>2014-05-04T12:08:21Z</time>
      </trkpt>
      <trkpt lat="44.28907" lon="5.2917">
        <ele>605.4</ele>
        <time>2014-05-04T12:08:23Z</time>
      </trkpt>
      <trkpt lat="44.289" lon="5.29167">
        <ele>603.6</ele>
        <time>2014-05-04T12:08:25Z</time>
      </trkpt>
      <trkpt lat="44.28894" lon="5.29166">
        <ele>602</ele>
        <time>2014-05-04T12:08:27Z</time>
      </trkpt>
      <trkpt lat="44.28889" lon="5.29164">
        <ele>600.8</ele>
        <time>2014-05-04T12:08:29Z</time>
      </trkpt>
      <trkpt lat="44.28883" lon="5.29163">
        <ele>599.2</ele>
        <time>2014-05-04T12:08:31Z</time>
      </trkpt>
      <trkpt lat="44.28878" lon="5.29163">
        <ele>597.9</ele>
        <time>2014-05-04T12:08:33Z</time>
      </trkpt>
      <trkpt lat="44.28875" lon="5.29154">
        <ele>597.3</ele>
        <time>2014-05-04T12:08:36Z</time>
      </trkpt>
      <trkpt lat="44.28875" lon="5.29147">
        <ele>597.5</ele>
        <time>2014-05-04T12:08:38Z</time>
      </trkpt>
      <trkpt lat="44.28878" lon="5.29136">
        <ele>598.8</ele>
        <time>2014-05-04T12:08:40Z</time>
      </trkpt>
      <trkpt lat="44.2888" lon="5.2913">
        <ele>599.5</ele>
        <time>2014-05-04T12:08:41Z</time>
      </trkpt>
      <trkpt lat="44.28881" lon="5.29122">
        <ele>600.3</ele>
        <time>2014-05-04T12:08:42Z</time>
      </trkpt>
      <trkpt lat="44.28882" lon="5.29114">
        <ele>601.1</ele>
        <time>2014-05-04T12:08:43Z</time>
      </trkpt>
      <trkpt lat="44.28884" lon="5.29106">
        <ele>602</ele>
        <time>2014-05-04T12:08:44Z</time>
      </trkpt>
      <trkpt lat="44.28886" lon="5.291">
        <ele>603.3</ele>
        <time>2014-05-04T12:08:45Z</time>
      </trkpt>
      <trkpt lat="44.28889" lon="5.2909">
        <ele>605.2</ele>
        <time>2014-05-04T12:08:47Z</time>
      </trkpt>
      <trkpt lat="44.28891" lon="5.29079">
        <ele>606.7</ele>
        <time>2014-05-04T12:08:49Z</time>
      </trkpt>
      <trkpt lat="44.2889" lon="5.29061">
        <ele>607.6</ele>
        <time>2014-05-04T12:08:52Z</time>
      </trkpt>
      <trkpt lat="44.2889" lon="5.2905">
        <ele>608.5</ele>
        <time>2014-05-04T12:08:54Z</time>
      </trkpt>
      <trkpt lat="44.28891" lon="5.29038">
        <ele>609.6</ele>
        <time>2014-05-04T12:08:56Z</time>
      </trkpt>
      <trkpt lat="44.2889" lon="5.2903">
        <ele>610</ele>
        <time>2014-05-04T12:08:58Z</time>
      </trkpt>
      <trkpt lat="44.28886" lon="5.29035">
        <ele>607.2</ele>
        <time>2014-05-04T12:09:01Z</time>
      </trkpt>
      <trkpt lat="44.28881" lon="5.29041">
        <ele>604.2</ele>
        <time>2014-05-04T12:09:03Z</time>
      </trkpt>
      <trkpt lat="44.28875" lon="5.29044">
        <ele>600.5</ele>
        <time>2014-05-04T12:09:05Z</time>
      </trkpt>
      <trkpt lat="44.28868" lon="5.29042">
        <ele>596.8</ele>
        <time>2014-05-04T12:09:07Z</time>
      </trkpt>
      <trkpt lat="44.28861" lon="5.29042">
        <ele>593.3</ele>
        <time>2014-05-04T12:09:09Z</time>
      </trkpt>
      <trkpt lat="44.28861" lon="5.29034">
        <ele>593.4</ele>
        <time>2014-05-04T12:09:14Z</time>
      </trkpt>
      <trkpt lat="44.28863" lon="5.29027">
        <ele>594.6</ele>
        <time>2014-05-04T12:09:16Z</time>
      </trkpt>
      <trkpt lat="44.28865" lon="5.29018">
        <ele>595.7</ele>
        <time>2014-05-04T12:09:18Z</time>
      </trkpt>
      <trkpt lat="44.28867" lon="5.2901">
        <ele>597.1</ele>
        <time>2014-05-04T12:09:20Z</time>
      </trkpt>
      <trkpt lat="44.28868" lon="5.29004">
        <ele>597.9</ele>
        <time>2014-05-04T12:09:22Z</time>
      </trkpt>
      <trkpt lat="44.28868" lon="5.28995">
        <ele>597.9</ele>
        <time>2014-05-04T12:09:24Z</time>
      </trkpt>
      <trkpt lat="44.28866" lon="5.28988">
        <ele>596.7</ele>
        <time>2014-05-04T12:09:26Z</time>
      </trkpt>
      <trkpt lat="44.28861" lon="5.28983">
        <ele>593.7</ele>
        <time>2014-05-04T12:09:29Z</time>
      </trkpt>
      <trkpt lat="44.28862" lon="5.28975">
        <ele>593.9</ele>
        <time>2014-05-04T12:09:32Z</time>
      </trkpt>
      <trkpt lat="44.28861" lon="5.28968">
        <ele>593.5</ele>
        <time>2014-05-04T12:09:34Z</time>
      </trkpt>
      <trkpt lat="44.2886" lon="5.2896">
        <ele>592.8</ele>
        <time>2014-05-04T12:09:36Z</time>
      </trkpt>
      <trkpt lat="44.28858" lon="5.28951">
        <ele>591.4</ele>
        <time>2014-05-04T12:09:38Z</time>
      </trkpt>
      <trkpt lat="44.28858" lon="5.28945">
        <ele>591.4</ele>
        <time>2014-05-04T12:09:40Z</time>
      </trkpt>
      <trkpt lat="44.28857" lon="5.28937">
        <ele>590.7</ele>
        <time>2014-05-04T12:09:43Z</time>
      </trkpt>
      <trkpt lat="44.28852" lon="5.28941">
        <ele>587.4</ele>
        <time>2014-05-04T12:09:50Z</time>
      </trkpt>
      <trkpt lat="44.2885" lon="5.28933">
        <ele>586</ele>
        <time>2014-05-04T12:09:55Z</time>
      </trkpt>
      <trkpt lat="44.28842" lon="5.28937">
        <ele>580</ele>
        <time>2014-05-04T12:10:02Z</time>
      </trkpt>
      <trkpt lat="44.28837" lon="5.28941">
        <ele>577.2</ele>
        <time>2014-05-04T12:10:04Z</time>
      </trkpt>
      <trkpt lat="44.28832" lon="5.28943">
        <ele>574</ele>
        <time>2014-05-04T12:10:06Z</time>
      </trkpt>
      <trkpt lat="44.28828" lon="5.28938">
        <ele>571.4</ele>
        <time>2014-05-04T12:10:09Z</time>
      </trkpt>
      <trkpt lat="44.28824" lon="5.28939">
        <ele>568.6</ele>
        <time>2014-05-04T12:10:11Z</time>
      </trkpt>
      <trkpt lat="44.28818" lon="5.28941">
        <ele>565.6</ele>
        <time>2014-05-04T12:10:13Z</time>
      </trkpt>
      <trkpt lat="44.28813" lon="5.2894">
        <ele>562.4</ele>
        <time>2014-05-04T12:10:16Z</time>
      </trkpt>
      <trkpt lat="44.28808" lon="5.28937">
        <ele>558.9</ele>
        <time>2014-05-04T12:11:54Z</time>
      </trkpt>
      <trkpt lat="44.28796" lon="5.28941">
        <ele>552.4</ele>
        <time>2014-05-04T12:11:58Z</time>
      </trkpt>
      <trkpt lat="44.28791" lon="5.28947">
        <ele>549.8</ele>
        <time>2014-05-04T12:12:00Z</time>
      </trkpt>
      <trkpt lat="44.28786" lon="5.28954">
        <ele>547.6</ele>
        <time>2014-05-04T12:12:02Z</time>
      </trkpt>
      <trkpt lat="44.28781" lon="5.28964">
        <ele>546.3</ele>
        <time>2014-05-04T12:12:04Z</time>
      </trkpt>
      <trkpt lat="44.28776" lon="5.28971">
        <ele>545.1</ele>
        <time>2014-05-04T12:12:06Z</time>
      </trkpt>
      <trkpt lat="44.2877" lon="5.2897">
        <ele>541.6</ele>
        <time>2014-05-04T12:12:08Z</time>
      </trkpt>
      <trkpt lat="44.28769" lon="5.28962">
        <ele>539.5</ele>
        <time>2014-05-04T12:12:10Z</time>
      </trkpt>
      <trkpt lat="44.2877" lon="5.28955">
        <ele>539.1</ele>
        <time>2014-05-04T12:12:12Z</time>
      </trkpt>
      <trkpt lat="44.28767" lon="5.28947">
        <ele>536.2</ele>
        <time>2014-05-04T12:12:15Z</time>
      </trkpt>
      <trkpt lat="44.28762" lon="5.28944">
        <ele>532.6</ele>
        <time>2014-05-04T12:12:18Z</time>
      </trkpt>
      <trkpt lat="44.28758" lon="5.2894">
        <ele>529.4</ele>
        <time>2014-05-04T12:12:22Z</time>
      </trkpt>
      <trkpt lat="44.28755" lon="5.28934">
        <ele>526.6</ele>
        <time>2014-05-04T12:12:26Z</time>
      </trkpt>
      <trkpt lat="44.28755" lon="5.28927">
        <ele>525.3</ele>
        <time>2014-05-04T12:12:30Z</time>
      </trkpt>
      <trkpt lat="44.28754" lon="5.2892">
        <ele>523.5</ele>
        <time>2014-05-04T12:12:34Z</time>
      </trkpt>
      <trkpt lat="44.28754" lon="5.28913">
        <ele>521.6</ele>
        <time>2014-05-04T12:12:38Z</time>
      </trkpt>
      <trkpt lat="44.28755" lon="5.28906">
        <ele>521</ele>
        <time>2014-05-04T12:12:43Z</time>
      </trkpt>
      <trkpt lat="44.28756" lon="5.289">
        <ele>520.1</ele>
        <time>2014-05-04T12:12:48Z</time>
      </trkpt>
      <trkpt lat="44.28759" lon="5.28895">
        <ele>520.9</ele>
        <time>2014-05-04T12:12:53Z</time>
      </trkpt>
      <trkpt lat="44.28762" lon="5.2889">
        <ele>521.6</ele>
        <time>2014-05-04T12:12:59Z</time>
      </trkpt>
      <trkpt lat="44.28769" lon="5.28881">
        <ele>523.9</ele>
        <time>2014-05-04T12:13:06Z</time>
      </trkpt>
      <trkpt lat="44.2877" lon="5.28873">
        <ele>523</ele>
        <time>2014-05-04T12:13:09Z</time>
      </trkpt>
      <trkpt lat="44.28772" lon="5.28866">
        <ele>523</ele>
        <time>2014-05-04T12:13:11Z</time>
      </trkpt>
      <trkpt lat="44.28775" lon="5.2886">
        <ele>523.4</ele>
        <time>2014-05-04T12:13:14Z</time>
      </trkpt>
      <trkpt lat="44.28777" lon="5.28852">
        <ele>522.5</ele>
        <time>2014-05-04T12:14:10Z</time>
      </trkpt>
      <trkpt lat="44.28777" lon="5.28833">
        <ele>518.3</ele>
        <time>2014-05-04T12:14:14Z</time>
      </trkpt>
      <trkpt lat="44.28775" lon="5.28825">
        <ele>515.8</ele>
        <time>2014-05-04T12:14:16Z</time>
      </trkpt>
      <trkpt lat="44.28773" lon="5.28815">
        <ele>512.3</ele>
        <time>2014-05-04T12:14:18Z</time>
      </trkpt>
      <trkpt lat="44.28771" lon="5.28804">
        <ele>508.6</ele>
        <time>2014-05-04T12:14:20Z</time>
      </trkpt>
      <trkpt lat="44.28769" lon="5.28798">
        <ele>506.5</ele>
        <time>2014-05-04T12:14:21Z</time>
      </trkpt>
      <trkpt lat="44.28765" lon="5.28788">
        <ele>501.7</ele>
        <time>2014-05-04T12:14:23Z</time>
      </trkpt>
      <trkpt lat="44.28759" lon="5.28782">
        <ele>496.6</ele>
        <time>2014-05-04T12:14:25Z</time>
      </trkpt>
      <trkpt lat="44.28752" lon="5.28779">
        <ele>491</ele>
        <time>2014-05-04T12:14:27Z</time>
      </trkpt>
      <trkpt lat="44.28743" lon="5.28779">
        <ele>489.8</ele>
        <time>2014-05-04T12:14:29Z</time>
      </trkpt>
      <trkpt lat="44.28736" lon="5.28776">
        <ele>489.1</ele>
        <time>2014-05-04T12:14:31Z</time>
      </trkpt>
      <trkpt lat="44.28729" lon="5.28769">
        <ele>487.5</ele>
        <time>2014-05-04T12:14:33Z</time>
      </trkpt>
      <trkpt lat="44.28726" lon="5.28763">
        <ele>486.4</ele>
        <time>2014-05-04T12:14:34Z</time>
      </trkpt>
      <trkpt lat="44.28723" lon="5.28757">
        <ele>485</ele>
        <time>2014-05-04T12:14:35Z</time>
      </trkpt>
      <trkpt lat="44.28721" lon="5.28751">
        <ele>483.9</ele>
        <time>2014-05-04T12:14:36Z</time>
      </trkpt>
      <trkpt lat="44.28716" lon="5.28745">
        <ele>482.4</ele>
        <time>2014-05-04T12:14:38Z</time>
      </trkpt>
      <trkpt lat="44.2871" lon="5.28744">
        <ele>482.2</ele>
        <time>2014-05-04T12:14:40Z</time>
      </trkpt>
      <trkpt lat="44.28702" lon="5.28744">
        <ele>482</ele>
        <time>2014-05-04T12:14:42Z</time>
      </trkpt>
      <trkpt lat="44.28697" lon="5.28743">
        <ele>481.5</ele>
        <time>2014-05-04T12:14:43Z</time>
      </trkpt>
      <trkpt lat="44.28693" lon="5.2874">
        <ele>480.7</ele>
        <time>2014-05-04T12:14:44Z</time>
      </trkpt>
      <trkpt lat="44.28688" lon="5.28737">
        <ele>479.5</ele>
        <time>2014-05-04T12:14:45Z</time>
      </trkpt>
      <trkpt lat="44.28683" lon="5.28733">
        <ele>478.2</ele>
        <time>2014-05-04T12:14:46Z</time>
      </trkpt>
      <trkpt lat="44.28678" lon="5.28729">
        <ele>476.8</ele>
        <time>2014-05-04T12:14:47Z</time>
      </trkpt>
      <trkpt lat="44.28673" lon="5.28724">
        <ele>475.4</ele>
        <time>2014-05-04T12:14:48Z</time>
      </trkpt>
      <trkpt lat="44.28669" lon="5.2872">
        <ele>473.9</ele>
        <time>2014-05-04T12:14:49Z</time>
      </trkpt>
      <trkpt lat="44.28665" lon="5.28716">
        <ele>472.6</ele>
        <time>2014-05-04T12:14:50Z</time>
      </trkpt>
      <trkpt lat="44.2866" lon="5.28713">
        <ele>471.7</ele>
        <time>2014-05-04T12:14:51Z</time>
      </trkpt>
      <trkpt lat="44.28656" lon="5.28709">
        <ele>470.8</ele>
        <time>2014-05-04T12:14:52Z</time>
      </trkpt>
      <trkpt lat="44.28651" lon="5.28705">
        <ele>469.8</ele>
        <time>2014-05-04T12:14:53Z</time>
      </trkpt>
      <trkpt lat="44.28647" lon="5.28702">
        <ele>469.3</ele>
        <time>2014-05-04T12:14:54Z</time>
      </trkpt>
      <trkpt lat="44.28643" lon="5.28697">
        <ele>467.9</ele>
        <time>2014-05-04T12:14:55Z</time>
      </trkpt>
      <trkpt lat="44.2864" lon="5.28693">
        <ele>466.8</ele>
        <time>2014-05-04T12:14:56Z</time>
      </trkpt>
      <trkpt lat="44.28637" lon="5.28688">
        <ele>465.3</ele>
        <time>2014-05-04T12:14:57Z</time>
      </trkpt>
      <trkpt lat="44.28633" lon="5.28683">
        <ele>463.8</ele>
        <time>2014-05-04T12:14:58Z</time>
      </trkpt>
      <trkpt lat="44.28629" lon="5.28678">
        <ele>462.7</ele>
        <time>2014-05-04T12:14:59Z</time>
      </trkpt>
      <trkpt lat="44.28625" lon="5.28675">
        <ele>461.6</ele>
        <time>2014-05-04T12:15:00Z</time>
      </trkpt>
      <trkpt lat="44.2862" lon="5.28671">
        <ele>460.6</ele>
        <time>2014-05-04T12:15:01Z</time>
      </trkpt>
      <trkpt lat="44.28614" lon="5.28667">
        <ele>459.5</ele>
        <time>2014-05-04T12:15:02Z</time>
      </trkpt>
      <trkpt lat="44.28609" lon="5.28664">
        <ele>458.7</ele>
        <time>2014-05-04T12:15:03Z</time>
      </trkpt>
      <trkpt lat="44.28604" lon="5.28661">
        <ele>458.2</ele>
        <time>2014-05-04T12:15:04Z</time>
      </trkpt>
      <trkpt lat="44.28598" lon="5.28659">
        <ele>457.6</ele>
        <time>2014-05-04T12:15:05Z</time>
      </trkpt>
      <trkpt lat="44.28593" lon="5.28657">
        <ele>457.4</ele>
        <time>2014-05-04T12:15:06Z</time>
      </trkpt>
      <trkpt lat="44.28588" lon="5.28655">
        <ele>457.2</ele>
        <time>2014-05-04T12:15:07Z</time>
      </trkpt>
      <trkpt lat="44.2858" lon="5.28653">
        <ele>456.3</ele>
        <time>2014-05-04T12:15:09Z</time>
      </trkpt>
      <trkpt lat="44.28572" lon="5.28652">
        <ele>455.5</ele>
        <time>2014-05-04T12:15:11Z</time>
      </trkpt>
      <trkpt lat="44.28563" lon="5.28656">
        <ele>456.7</ele>
        <time>2014-05-04T12:15:13Z</time>
      </trkpt>
      <trkpt lat="44.28553" lon="5.28659">
        <ele>457.1</ele>
        <time>2014-05-04T12:15:15Z</time>
      </trkpt>
      <trkpt lat="44.28549" lon="5.28661">
        <ele>457.2</ele>
        <time>2014-05-04T12:15:16Z</time>
      </trkpt>
      <trkpt lat="44.28544" lon="5.28663">
        <ele>457.4</ele>
        <time>2014-05-04T12:15:17Z</time>
      </trkpt>
      <trkpt lat="44.28537" lon="5.28663">
        <ele>457.5</ele>
        <time>2014-05-04T12:15:19Z</time>
      </trkpt>
      <trkpt lat="44.28536" lon="5.28656">
        <ele>455.4</ele>
        <time>2014-05-04T12:15:21Z</time>
      </trkpt>
      <trkpt lat="44.28542" lon="5.28651">
        <ele>453.9</ele>
        <time>2014-05-04T12:15:49Z</time>
      </trkpt>
      <trkpt lat="44.28545" lon="5.28645">
        <ele>452</ele>
        <time>2014-05-04T12:15:51Z</time>
      </trkpt>
      <trkpt lat="44.28549" lon="5.28636">
        <ele>449.3</ele>
        <time>2014-05-04T12:15:53Z</time>
      </trkpt>
      <trkpt lat="44.28551" lon="5.28627">
        <ele>446.5</ele>
        <time>2014-05-04T12:15:55Z</time>
      </trkpt>
      <trkpt lat="44.28556" lon="5.28618">
        <ele>443.9</ele>
        <time>2014-05-04T12:15:57Z</time>
      </trkpt>
      <trkpt lat="44.2856" lon="5.28614">
        <ele>442.9</ele>
        <time>2014-05-04T12:15:58Z</time>
      </trkpt>
      <trkpt lat="44.28564" lon="5.2861">
        <ele>441.9</ele>
        <time>2014-05-04T12:15:59Z</time>
      </trkpt>
      <trkpt lat="44.28567" lon="5.28605">
        <ele>440.4</ele>
        <time>2014-05-04T12:16:00Z</time>
      </trkpt>
      <trkpt lat="44.28571" lon="5.28601">
        <ele>439.4</ele>
        <time>2014-05-04T12:16:01Z</time>
      </trkpt>
      <trkpt lat="44.28576" lon="5.28593">
        <ele>437.3</ele>
        <time>2014-05-04T12:16:03Z</time>
      </trkpt>
      <trkpt lat="44.28584" lon="5.28592">
        <ele>437.5</ele>
        <time>2014-05-04T12:16:05Z</time>
      </trkpt>
      <trkpt lat="44.28589" lon="5.28592">
        <ele>437.7</ele>
        <time>2014-05-04T12:16:06Z</time>
      </trkpt>
      <trkpt lat="44.28593" lon="5.28591">
        <ele>437.9</ele>
        <time>2014-05-04T12:16:07Z</time>
      </trkpt>
      <trkpt lat="44.28593" lon="5.28584">
        <ele>435.6</ele>
        <time>2014-05-04T12:16:10Z</time>
      </trkpt>
      <trkpt lat="44.28587" lon="5.28585">
        <ele>435.7</ele>
        <time>2014-05-04T12:16:12Z</time>
      </trkpt>
      <trkpt lat="44.28581" lon="5.28586">
        <ele>435.7</ele>
        <time>2014-05-04T12:16:14Z</time>
      </trkpt>
      <trkpt lat="44.28574" lon="5.28587">
        <ele>435.2</ele>
        <time>2014-05-04T12:16:16Z</time>
      </trkpt>
      <trkpt lat="44.28557" lon="5.28587">
        <ele>434</ele>
        <time>2014-05-04T12:16:20Z</time>
      </trkpt>
      <trkpt lat="44.28549" lon="5.28585">
        <ele>432.9</ele>
        <time>2014-05-04T12:16:22Z</time>
      </trkpt>
      <trkpt lat="44.28544" lon="5.28583">
        <ele>431.8</ele>
        <time>2014-05-04T12:16:23Z</time>
      </trkpt>
      <trkpt lat="44.28539" lon="5.28581">
        <ele>431.1</ele>
        <time>2014-05-04T12:16:24Z</time>
      </trkpt>
      <trkpt lat="44.28534" lon="5.2858">
        <ele>430.4</ele>
        <time>2014-05-04T12:16:25Z</time>
      </trkpt>
      <trkpt lat="44.28529" lon="5.2858">
        <ele>430</ele>
        <time>2014-05-04T12:16:26Z</time>
      </trkpt>
      <trkpt lat="44.28524" lon="5.28581">
        <ele>430</ele>
        <time>2014-05-04T12:16:27Z</time>
      </trkpt>
      <trkpt lat="44.28519" lon="5.28582">
        <ele>430</ele>
        <time>2014-05-04T12:16:28Z</time>
      </trkpt>
      <trkpt lat="44.28515" lon="5.28585">
        <ele>430.5</ele>
        <time>2014-05-04T12:16:29Z</time>
      </trkpt>
      <trkpt lat="44.28511" lon="5.28589">
        <ele>431.5</ele>
        <time>2014-05-04T12:16:30Z</time>
      </trkpt>
      <trkpt lat="44.28507" lon="5.28592">
        <ele>432.1</ele>
        <time>2014-05-04T12:16:31Z</time>
      </trkpt>
      <trkpt lat="44.28503" lon="5.28596">
        <ele>433.1</ele>
        <time>2014-05-04T12:16:32Z</time>
      </trkpt>
      <trkpt lat="44.28499" lon="5.286">
        <ele>434</ele>
        <time>2014-05-04T12:16:33Z</time>
      </trkpt>
      <trkpt lat="44.28491" lon="5.28604">
        <ele>434.5</ele>
        <time>2014-05-04T12:16:35Z</time>
      </trkpt>
      <trkpt lat="44.28483" lon="5.28605">
        <ele>433.1</ele>
        <time>2014-05-04T12:16:37Z</time>
      </trkpt>
      <trkpt lat="44.28475" lon="5.28601">
        <ele>430.4</ele>
        <time>2014-05-04T12:16:39Z</time>
      </trkpt>
      <trkpt lat="44.28469" lon="5.28594">
        <ele>427.5</ele>
        <time>2014-05-04T12:16:41Z</time>
      </trkpt>
      <trkpt lat="44.28466" lon="5.28588">
        <ele>424.9</ele>
        <time>2014-05-04T12:16:43Z</time>
      </trkpt>
      <trkpt lat="44.28462" lon="5.28581">
        <ele>422.6</ele>
        <time>2014-05-04T12:16:46Z</time>
      </trkpt>
      <trkpt lat="44.28459" lon="5.28575">
        <ele>420.7</ele>
        <time>2014-05-04T12:16:49Z</time>
      </trkpt>
      <trkpt lat="44.28455" lon="5.28568">
        <ele>418.8</ele>
        <time>2014-05-04T12:16:52Z</time>
      </trkpt>
      <trkpt lat="44.28451" lon="5.28561">
        <ele>416.8</ele>
        <time>2014-05-04T12:16:55Z</time>
      </trkpt>
      <trkpt lat="44.28447" lon="5.28556">
        <ele>415.6</ele>
        <time>2014-05-04T12:16:57Z</time>
      </trkpt>
      <trkpt lat="44.28444" lon="5.28551">
        <ele>414.3</ele>
        <time>2014-05-04T12:16:59Z</time>
      </trkpt>
      <trkpt lat="44.2844" lon="5.28545">
        <ele>412.7</ele>
        <time>2014-05-04T12:17:02Z</time>
      </trkpt>
      <trkpt lat="44.28436" lon="5.28539">
        <ele>411.4</ele>
        <time>2014-05-04T12:17:05Z</time>
      </trkpt>
      <trkpt lat="44.28432" lon="5.28533">
        <ele>410</ele>
        <time>2014-05-04T12:17:09Z</time>
      </trkpt>
      <trkpt lat="44.28428" lon="5.2853">
        <ele>409.2</ele>
        <time>2014-05-04T12:17:12Z</time>
      </trkpt>
      <trkpt lat="44.28422" lon="5.28528">
        <ele>408.4</ele>
        <time>2014-05-04T12:17:23Z</time>
      </trkpt>
      <trkpt lat="44.2841" lon="5.28523">
        <ele>407.8</ele>
        <time>2014-05-04T12:17:29Z</time>
      </trkpt>
      <trkpt lat="44.28406" lon="5.2852">
        <ele>407.9</ele>
        <time>2014-05-04T12:17:31Z</time>
      </trkpt>
      <trkpt lat="44.28401" lon="5.28516">
        <ele>407.6</ele>
        <time>2014-05-04T12:17:33Z</time>
      </trkpt>
      <trkpt lat="44.28396" lon="5.28513">
        <ele>407.4</ele>
        <time>2014-05-04T12:17:35Z</time>
      </trkpt>
      <trkpt lat="44.2839" lon="5.28509">
        <ele>407.3</ele>
        <time>2014-05-04T12:17:37Z</time>
      </trkpt>
      <trkpt lat="44.28385" lon="5.28506">
        <ele>407</ele>
        <time>2014-05-04T12:17:39Z</time>
      </trkpt>
      <trkpt lat="44.28379" lon="5.28503">
        <ele>406.8</ele>
        <time>2014-05-04T12:17:41Z</time>
      </trkpt>
      <trkpt lat="44.28373" lon="5.285">
        <ele>406.4</ele>
        <time>2014-05-04T12:17:43Z</time>
      </trkpt>
      <trkpt lat="44.28368" lon="5.28497">
        <ele>406.4</ele>
        <time>2014-05-04T12:17:45Z</time>
      </trkpt>
      <trkpt lat="44.28362" lon="5.28494">
        <ele>406.3</ele>
        <time>2014-05-04T12:17:47Z</time>
      </trkpt>
      <trkpt lat="44.28356" lon="5.2849">
        <ele>406.1</ele>
        <time>2014-05-04T12:17:49Z</time>
      </trkpt>
      <trkpt lat="44.28349" lon="5.28486">
        <ele>405.9</ele>
        <time>2014-05-04T12:17:51Z</time>
      </trkpt>
      <trkpt lat="44.28343" lon="5.28483">
        <ele>405.9</ele>
        <time>2014-05-04T12:17:53Z</time>
      </trkpt>
      <trkpt lat="44.28335" lon="5.2848">
        <ele>405.7</ele>
        <time>2014-05-04T12:17:55Z</time>
      </trkpt>
      <trkpt lat="44.28327" lon="5.28477">
        <ele>406</ele>
        <time>2014-05-04T12:17:57Z</time>
      </trkpt>
      <trkpt lat="44.28319" lon="5.28474">
        <ele>406.3</ele>
        <time>2014-05-04T12:17:59Z</time>
      </trkpt>
      <trkpt lat="44.28311" lon="5.28471">
        <ele>406.7</ele>
        <time>2014-05-04T12:18:01Z</time>
      </trkpt>
      <trkpt lat="44.28302" lon="5.28468">
        <ele>407.2</ele>
        <time>2014-05-04T12:18:03Z</time>
      </trkpt>
      <trkpt lat="44.28297" lon="5.28467">
        <ele>407.5</ele>
        <time>2014-05-04T12:18:04Z</time>
      </trkpt>
      <trkpt lat="44.28293" lon="5.28465">
        <ele>407.7</ele>
        <time>2014-05-04T12:18:05Z</time>
      </trkpt>
      <trkpt lat="44.28288" lon="5.28463">
        <ele>407.8</ele>
        <time>2014-05-04T12:18:06Z</time>
      </trkpt>
      <trkpt lat="44.28284" lon="5.28461">
        <ele>408</ele>
        <time>2014-05-04T12:18:07Z</time>
      </trkpt>
      <trkpt lat="44.28277" lon="5.28456">
        <ele>407.8</ele>
        <time>2014-05-04T12:18:09Z</time>
      </trkpt>
      <trkpt lat="44.28271" lon="5.28451">
        <ele>407.5</ele>
        <time>2014-05-04T12:18:11Z</time>
      </trkpt>
      <trkpt lat="44.28264" lon="5.28446">
        <ele>407.2</ele>
        <time>2014-05-04T12:18:13Z</time>
      </trkpt>
      <trkpt lat="44.28258" lon="5.2844">
        <ele>406.8</ele>
        <time>2014-05-04T12:18:15Z</time>
      </trkpt>
      <trkpt lat="44.28251" lon="5.28434">
        <ele>406.1</ele>
        <time>2014-05-04T12:18:17Z</time>
      </trkpt>
      <trkpt lat="44.28245" lon="5.28429">
        <ele>405.8</ele>
        <time>2014-05-04T12:18:19Z</time>
      </trkpt>
      <trkpt lat="44.28239" lon="5.28425">
        <ele>405.7</ele>
        <time>2014-05-04T12:18:21Z</time>
      </trkpt>
      <trkpt lat="44.28232" lon="5.28424">
        <ele>406.1</ele>
        <time>2014-05-04T12:18:23Z</time>
      </trkpt>
      <trkpt lat="44.28225" lon="5.28424">
        <ele>406.8</ele>
        <time>2014-05-04T12:18:25Z</time>
      </trkpt>
      <trkpt lat="44.2821" lon="5.28427">
        <ele>409.1</ele>
        <time>2014-05-04T12:18:29Z</time>
      </trkpt>
      <trkpt lat="44.28203" lon="5.28431">
        <ele>410.8</ele>
        <time>2014-05-04T12:18:31Z</time>
      </trkpt>
      <trkpt lat="44.28196" lon="5.28435">
        <ele>412.4</ele>
        <time>2014-05-04T12:18:33Z</time>
      </trkpt>
      <trkpt lat="44.2819" lon="5.2844">
        <ele>414</ele>
        <time>2014-05-04T12:18:35Z</time>
      </trkpt>
      <trkpt lat="44.28185" lon="5.28447">
        <ele>416.4</ele>
        <time>2014-05-04T12:18:37Z</time>
      </trkpt>
      <trkpt lat="44.2818" lon="5.28457">
        <ele>419.1</ele>
        <time>2014-05-04T12:18:39Z</time>
      </trkpt>
      <trkpt lat="44.28178" lon="5.28463">
        <ele>421</ele>
        <time>2014-05-04T12:18:40Z</time>
      </trkpt>
      <trkpt lat="44.28176" lon="5.28469">
        <ele>422.5</ele>
        <time>2014-05-04T12:18:41Z</time>
      </trkpt>
      <trkpt lat="44.28174" lon="5.28475">
        <ele>424.4</ele>
        <time>2014-05-04T12:18:42Z</time>
      </trkpt>
      <trkpt lat="44.28171" lon="5.28481">
        <ele>426.4</ele>
        <time>2014-05-04T12:18:43Z</time>
      </trkpt>
      <trkpt lat="44.28168" lon="5.28486">
        <ele>428.2</ele>
        <time>2014-05-04T12:18:44Z</time>
      </trkpt>
      <trkpt lat="44.28163" lon="5.28491">
        <ele>429.1</ele>
        <time>2014-05-04T12:18:45Z</time>
      </trkpt>
      <trkpt lat="44.28158" lon="5.28494">
        <ele>429.5</ele>
        <time>2014-05-04T12:18:46Z</time>
      </trkpt>
      <trkpt lat="44.28152" lon="5.28495">
        <ele>429</ele>
        <time>2014-05-04T12:18:47Z</time>
      </trkpt>
      <trkpt lat="44.28145" lon="5.28494">
        <ele>428.4</ele>
        <time>2014-05-04T12:18:48Z</time>
      </trkpt>
      <trkpt lat="44.28139" lon="5.28491">
        <ele>427.2</ele>
        <time>2014-05-04T12:18:49Z</time>
      </trkpt>
      <trkpt lat="44.28133" lon="5.28488">
        <ele>426.1</ele>
        <time>2014-05-04T12:18:50Z</time>
      </trkpt>
      <trkpt lat="44.28127" lon="5.28485">
        <ele>424.6</ele>
        <time>2014-05-04T12:18:51Z</time>
      </trkpt>
      <trkpt lat="44.28121" lon="5.28482">
        <ele>423.5</ele>
        <time>2014-05-04T12:18:52Z</time>
      </trkpt>
      <trkpt lat="44.28115" lon="5.2848">
        <ele>422.4</ele>
        <time>2014-05-04T12:18:53Z</time>
      </trkpt>
      <trkpt lat="44.28109" lon="5.28478">
        <ele>421.6</ele>
        <time>2014-05-04T12:18:54Z</time>
      </trkpt>
      <trkpt lat="44.28103" lon="5.28479">
        <ele>421.1</ele>
        <time>2014-05-04T12:18:55Z</time>
      </trkpt>
      <trkpt lat="44.28097" lon="5.28482">
        <ele>421.4</ele>
        <time>2014-05-04T12:18:56Z</time>
      </trkpt>
      <trkpt lat="44.28092" lon="5.28487">
        <ele>422.1</ele>
        <time>2014-05-04T12:18:57Z</time>
      </trkpt>
      <trkpt lat="44.28088" lon="5.28494">
        <ele>423.1</ele>
        <time>2014-05-04T12:18:58Z</time>
      </trkpt>
      <trkpt lat="44.28085" lon="5.28502">
        <ele>424.4</ele>
        <time>2014-05-04T12:18:59Z</time>
      </trkpt>
      <trkpt lat="44.28084" lon="5.28509">
        <ele>425.8</ele>
        <time>2014-05-04T12:19:00Z</time>
      </trkpt>
      <trkpt lat="44.28083" lon="5.28517">
        <ele>427.1</ele>
        <time>2014-05-04T12:19:01Z</time>
      </trkpt>
      <trkpt lat="44.28083" lon="5.28525">
        <ele>428.4</ele>
        <time>2014-05-04T12:19:02Z</time>
      </trkpt>
      <trkpt lat="44.28085" lon="5.28531">
        <ele>430</ele>
        <time>2014-05-04T12:19:03Z</time>
      </trkpt>
      <trkpt lat="44.28087" lon="5.28537">
        <ele>431.6</ele>
        <time>2014-05-04T12:19:04Z</time>
      </trkpt>
      <trkpt lat="44.2809" lon="5.28543">
        <ele>432.9</ele>
        <time>2014-05-04T12:19:05Z</time>
      </trkpt>
      <trkpt lat="44.28091" lon="5.28549">
        <ele>434.4</ele>
        <time>2014-05-04T12:19:06Z</time>
      </trkpt>
      <trkpt lat="44.28091" lon="5.28561">
        <ele>436.6</ele>
        <time>2014-05-04T12:19:08Z</time>
      </trkpt>
      <trkpt lat="44.28087" lon="5.28571">
        <ele>438.2</ele>
        <time>2014-05-04T12:19:10Z</time>
      </trkpt>
      <trkpt lat="44.28082" lon="5.28578">
        <ele>438.3</ele>
        <time>2014-05-04T12:19:12Z</time>
      </trkpt>
      <trkpt lat="44.28075" lon="5.28584">
        <ele>437.6</ele>
        <time>2014-05-04T12:19:14Z</time>
      </trkpt>
      <trkpt lat="44.28068" lon="5.28589">
        <ele>436.7</ele>
        <time>2014-05-04T12:19:16Z</time>
      </trkpt>
      <trkpt lat="44.28061" lon="5.28594">
        <ele>435.9</ele>
        <time>2014-05-04T12:19:18Z</time>
      </trkpt>
      <trkpt lat="44.28054" lon="5.28601">
        <ele>435.5</ele>
        <time>2014-05-04T12:19:20Z</time>
      </trkpt>
      <trkpt lat="44.28047" lon="5.28607">
        <ele>435.1</ele>
        <time>2014-05-04T12:19:22Z</time>
      </trkpt>
      <trkpt lat="44.2804" lon="5.28614">
        <ele>434.6</ele>
        <time>2014-05-04T12:19:24Z</time>
      </trkpt>
      <trkpt lat="44.28033" lon="5.28622">
        <ele>434.7</ele>
        <time>2014-05-04T12:19:26Z</time>
      </trkpt>
      <trkpt lat="44.28029" lon="5.28626">
        <ele>434.6</ele>
        <time>2014-05-04T12:19:27Z</time>
      </trkpt>
      <trkpt lat="44.28022" lon="5.28634">
        <ele>434.8</ele>
        <time>2014-05-04T12:19:29Z</time>
      </trkpt>
      <trkpt lat="44.28018" lon="5.28639">
        <ele>434.8</ele>
        <time>2014-05-04T12:19:30Z</time>
      </trkpt>
      <trkpt lat="44.28015" lon="5.28643">
        <ele>434.7</ele>
        <time>2014-05-04T12:19:31Z</time>
      </trkpt>
      <trkpt lat="44.28011" lon="5.28648">
        <ele>435</ele>
        <time>2014-05-04T12:19:32Z</time>
      </trkpt>
      <trkpt lat="44.28007" lon="5.28653">
        <ele>435.3</ele>
        <time>2014-05-04T12:19:33Z</time>
      </trkpt>
      <trkpt lat="44.28003" lon="5.28658">
        <ele>435.5</ele>
        <time>2014-05-04T12:19:34Z</time>
      </trkpt>
      <trkpt lat="44.27999" lon="5.28663">
        <ele>435.7</ele>
        <time>2014-05-04T12:19:35Z</time>
      </trkpt>
      <trkpt lat="44.27994" lon="5.28669">
        <ele>435.6</ele>
        <time>2014-05-04T12:19:36Z</time>
      </trkpt>
      <trkpt lat="44.27989" lon="5.28674">
        <ele>435.7</ele>
        <time>2014-05-04T12:19:37Z</time>
      </trkpt>
      <trkpt lat="44.27984" lon="5.2868">
        <ele>435.4</ele>
        <time>2014-05-04T12:19:38Z</time>
      </trkpt>
      <trkpt lat="44.27979" lon="5.28685">
        <ele>435</ele>
        <time>2014-05-04T12:19:39Z</time>
      </trkpt>
      <trkpt lat="44.27973" lon="5.28689">
        <ele>434.1</ele>
        <time>2014-05-04T12:19:40Z</time>
      </trkpt>
      <trkpt lat="44.27967" lon="5.28693">
        <ele>433.2</ele>
        <time>2014-05-04T12:19:41Z</time>
      </trkpt>
      <trkpt lat="44.2796" lon="5.28696">
        <ele>431.9</ele>
        <time>2014-05-04T12:19:42Z</time>
      </trkpt>
      <trkpt lat="44.27954" lon="5.28698">
        <ele>430.5</ele>
        <time>2014-05-04T12:19:43Z</time>
      </trkpt>
      <trkpt lat="44.27947" lon="5.287">
        <ele>428.9</ele>
        <time>2014-05-04T12:19:44Z</time>
      </trkpt>
      <trkpt lat="44.27941" lon="5.28702">
        <ele>427.6</ele>
        <time>2014-05-04T12:19:45Z</time>
      </trkpt>
      <trkpt lat="44.27936" lon="5.28705">
        <ele>426.7</ele>
        <time>2014-05-04T12:19:46Z</time>
      </trkpt>
      <trkpt lat="44.27931" lon="5.28707">
        <ele>426</ele>
        <time>2014-05-04T12:19:47Z</time>
      </trkpt>
      <trkpt lat="44.27926" lon="5.2871">
        <ele>425</ele>
        <time>2014-05-04T12:19:49Z</time>
      </trkpt>
      <trkpt lat="44.27921" lon="5.2871">
        <ele>423.5</ele>
        <time>2014-05-04T12:19:54Z</time>
      </trkpt>
      <trkpt lat="44.27917" lon="5.28716">
        <ele>423.6</ele>
        <time>2014-05-04T12:19:56Z</time>
      </trkpt>
      <trkpt lat="44.27915" lon="5.28723">
        <ele>424.8</ele>
        <time>2014-05-04T12:19:59Z</time>
      </trkpt>
      <trkpt lat="44.27913" lon="5.28732">
        <ele>426.3</ele>
        <time>2014-05-04T12:20:02Z</time>
      </trkpt>
      <trkpt lat="44.27911" lon="5.2874">
        <ele>427.5</ele>
        <time>2014-05-04T12:20:04Z</time>
      </trkpt>
      <trkpt lat="44.27909" lon="5.28748">
        <ele>428.7</ele>
        <time>2014-05-04T12:20:06Z</time>
      </trkpt>
      <trkpt lat="44.27908" lon="5.28757">
        <ele>429.6</ele>
        <time>2014-05-04T12:20:08Z</time>
      </trkpt>
      <trkpt lat="44.27905" lon="5.28767">
        <ele>430</ele>
        <time>2014-05-04T12:20:10Z</time>
      </trkpt>
      <trkpt lat="44.27903" lon="5.28776">
        <ele>430.6</ele>
        <time>2014-05-04T12:20:12Z</time>
      </trkpt>
      <trkpt lat="44.27901" lon="5.28785">
        <ele>431</ele>
        <time>2014-05-04T12:20:14Z</time>
      </trkpt>
      <trkpt lat="44.27899" lon="5.28794">
        <ele>431.4</ele>
        <time>2014-05-04T12:20:16Z</time>
      </trkpt>
      <trkpt lat="44.27896" lon="5.28803">
        <ele>431.8</ele>
        <time>2014-05-04T12:20:18Z</time>
      </trkpt>
      <trkpt lat="44.27894" lon="5.28811">
        <ele>432.2</ele>
        <time>2014-05-04T12:20:20Z</time>
      </trkpt>
      <trkpt lat="44.27892" lon="5.2882">
        <ele>432.3</ele>
        <time>2014-05-04T12:20:22Z</time>
      </trkpt>
      <trkpt lat="44.2789" lon="5.28828">
        <ele>432.7</ele>
        <time>2014-05-04T12:20:24Z</time>
      </trkpt>
      <trkpt lat="44.27887" lon="5.28836">
        <ele>432.7</ele>
        <time>2014-05-04T12:20:26Z</time>
      </trkpt>
      <trkpt lat="44.27885" lon="5.28843">
        <ele>432.5</ele>
        <time>2014-05-04T12:20:28Z</time>
      </trkpt>
      <trkpt lat="44.27883" lon="5.28849">
        <ele>432.4</ele>
        <time>2014-05-04T12:20:30Z</time>
      </trkpt>
      <trkpt lat="44.27878" lon="5.28859">
        <ele>431.4</ele>
        <time>2014-05-04T12:20:35Z</time>
      </trkpt>
      <trkpt lat="44.27874" lon="5.28851">
        <ele>429.8</ele>
        <time>2014-05-04T12:20:37Z</time>
      </trkpt>
      <trkpt lat="44.27871" lon="5.28841">
        <ele>428.4</ele>
        <time>2014-05-04T12:20:39Z</time>
      </trkpt>
      <trkpt lat="44.27868" lon="5.2883">
        <ele>426.6</ele>
        <time>2014-05-04T12:20:41Z</time>
      </trkpt>
      <trkpt lat="44.27866" lon="5.28819">
        <ele>425.1</ele>
        <time>2014-05-04T12:20:43Z</time>
      </trkpt>
      <trkpt lat="44.27865" lon="5.28813">
        <ele>424.3</ele>
        <time>2014-05-04T12:20:44Z</time>
      </trkpt>
      <trkpt lat="44.27865" lon="5.28806">
        <ele>423.6</ele>
        <time>2014-05-04T12:20:45Z</time>
      </trkpt>
      <trkpt lat="44.27865" lon="5.28795">
        <ele>422.5</ele>
        <time>2014-05-04T12:20:47Z</time>
      </trkpt>
      <trkpt lat="44.27865" lon="5.28785">
        <ele>421.7</ele>
        <time>2014-05-04T12:20:49Z</time>
      </trkpt>
      <trkpt lat="44.27862" lon="5.28777">
        <ele>420.2</ele>
        <time>2014-05-04T12:20:51Z</time>
      </trkpt>
      <trkpt lat="44.27856" lon="5.28767">
        <ele>417.7</ele>
        <time>2014-05-04T12:20:53Z</time>
      </trkpt>
      <trkpt lat="44.27851" lon="5.28762">
        <ele>416.3</ele>
        <time>2014-05-04T12:20:54Z</time>
      </trkpt>
      <trkpt lat="44.27847" lon="5.28757">
        <ele>414.8</ele>
        <time>2014-05-04T12:20:55Z</time>
      </trkpt>
      <trkpt lat="44.27843" lon="5.28752">
        <ele>413.5</ele>
        <time>2014-05-04T12:20:56Z</time>
      </trkpt>
      <trkpt lat="44.2784" lon="5.28746">
        <ele>411.9</ele>
        <time>2014-05-04T12:20:57Z</time>
      </trkpt>
      <trkpt lat="44.27836" lon="5.28741">
        <ele>410.2</ele>
        <time>2014-05-04T12:20:58Z</time>
      </trkpt>
      <trkpt lat="44.27833" lon="5.28735">
        <ele>408.5</ele>
        <time>2014-05-04T12:20:59Z</time>
      </trkpt>
      <trkpt lat="44.2783" lon="5.2873">
        <ele>407.3</ele>
        <time>2014-05-04T12:21:00Z</time>
      </trkpt>
      <trkpt lat="44.27826" lon="5.28722">
        <ele>405.7</ele>
        <time>2014-05-04T12:21:02Z</time>
      </trkpt>
      <trkpt lat="44.27822" lon="5.28718">
        <ele>404.6</ele>
        <time>2014-05-04T12:21:04Z</time>
      </trkpt>
      <trkpt lat="44.27818" lon="5.28721">
        <ele>404.5</ele>
        <time>2014-05-04T12:21:07Z</time>
      </trkpt>
      <trkpt lat="44.27818" lon="5.28727">
        <ele>405.4</ele>
        <time>2014-05-04T12:21:09Z</time>
      </trkpt>
      <trkpt lat="44.27816" lon="5.28735">
        <ele>406.2</ele>
        <time>2014-05-04T12:21:11Z</time>
      </trkpt>
      <trkpt lat="44.27814" lon="5.28745">
        <ele>407.4</ele>
        <time>2014-05-04T12:21:13Z</time>
      </trkpt>
      <trkpt lat="44.27812" lon="5.28754">
        <ele>408</ele>
        <time>2014-05-04T12:21:15Z</time>
      </trkpt>
      <trkpt lat="44.2781" lon="5.28763">
        <ele>408.1</ele>
        <time>2014-05-04T12:21:17Z</time>
      </trkpt>
      <trkpt lat="44.27807" lon="5.2877">
        <ele>408.1</ele>
        <time>2014-05-04T12:21:19Z</time>
      </trkpt>
      <trkpt lat="44.27803" lon="5.28776">
        <ele>407.9</ele>
        <time>2014-05-04T12:21:21Z</time>
      </trkpt>
      <trkpt lat="44.27797" lon="5.28778">
        <ele>407</ele>
        <time>2014-05-04T12:21:24Z</time>
      </trkpt>
      <trkpt lat="44.27792" lon="5.28776">
        <ele>406.1</ele>
        <time>2014-05-04T12:21:26Z</time>
      </trkpt>
      <trkpt lat="44.2779" lon="5.2877">
        <ele>405.4</ele>
        <time>2014-05-04T12:21:28Z</time>
      </trkpt>
      <trkpt lat="44.27792" lon="5.28761">
        <ele>405.1</ele>
        <time>2014-05-04T12:21:30Z</time>
      </trkpt>
      <trkpt lat="44.27793" lon="5.28752">
        <ele>404.8</ele>
        <time>2014-05-04T12:21:32Z</time>
      </trkpt>
      <trkpt lat="44.27795" lon="5.28728">
        <ele>402.5</ele>
        <time>2014-05-04T12:21:36Z</time>
      </trkpt>
      <trkpt lat="44.27794" lon="5.28722">
        <ele>401.7</ele>
        <time>2014-05-04T12:21:37Z</time>
      </trkpt>
      <trkpt lat="44.27793" lon="5.28709">
        <ele>400.1</ele>
        <time>2014-05-04T12:21:39Z</time>
      </trkpt>
      <trkpt lat="44.27791" lon="5.28702">
        <ele>399.2</ele>
        <time>2014-05-04T12:21:40Z</time>
      </trkpt>
      <trkpt lat="44.27789" lon="5.28695">
        <ele>398.2</ele>
        <time>2014-05-04T12:21:41Z</time>
      </trkpt>
      <trkpt lat="44.27786" lon="5.28688">
        <ele>397.3</ele>
        <time>2014-05-04T12:21:42Z</time>
      </trkpt>
      <trkpt lat="44.27783" lon="5.28681">
        <ele>396.4</ele>
        <time>2014-05-04T12:21:43Z</time>
      </trkpt>
      <trkpt lat="44.27781" lon="5.28674">
        <ele>395.5</ele>
        <time>2014-05-04T12:21:44Z</time>
      </trkpt>
      <trkpt lat="44.27778" lon="5.28667">
        <ele>394.7</ele>
        <time>2014-05-04T12:21:45Z</time>
      </trkpt>
      <trkpt lat="44.27776" lon="5.28661">
        <ele>394.2</ele>
        <time>2014-05-04T12:21:46Z</time>
      </trkpt>
      <trkpt lat="44.27773" lon="5.28654">
        <ele>393.8</ele>
        <time>2014-05-04T12:21:47Z</time>
      </trkpt>
      <trkpt lat="44.27772" lon="5.28647">
        <ele>393.3</ele>
        <time>2014-05-04T12:21:48Z</time>
      </trkpt>
      <trkpt lat="44.27771" lon="5.2864">
        <ele>392.9</ele>
        <time>2014-05-04T12:21:49Z</time>
      </trkpt>
      <trkpt lat="44.2777" lon="5.28634">
        <ele>392.6</ele>
        <time>2014-05-04T12:21:50Z</time>
      </trkpt>
      <trkpt lat="44.27769" lon="5.28627">
        <ele>392.3</ele>
        <time>2014-05-04T12:21:51Z</time>
      </trkpt>
      <trkpt lat="44.27769" lon="5.2862">
        <ele>391.9</ele>
        <time>2014-05-04T12:21:52Z</time>
      </trkpt>
      <trkpt lat="44.27769" lon="5.28608">
        <ele>391.4</ele>
        <time>2014-05-04T12:21:54Z</time>
      </trkpt>
      <trkpt lat="44.27769" lon="5.28596">
        <ele>390.8</ele>
        <time>2014-05-04T12:21:56Z</time>
      </trkpt>
      <trkpt lat="44.27771" lon="5.2859">
        <ele>390.6</ele>
        <time>2014-05-04T12:21:57Z</time>
      </trkpt>
      <trkpt lat="44.27773" lon="5.28584">
        <ele>390.3</ele>
        <time>2014-05-04T12:21:58Z</time>
      </trkpt>
      <trkpt lat="44.27775" lon="5.28577">
        <ele>390.1</ele>
        <time>2014-05-04T12:21:59Z</time>
      </trkpt>
      <trkpt lat="44.27777" lon="5.28571">
        <ele>389.9</ele>
        <time>2014-05-04T12:22:00Z</time>
      </trkpt>
      <trkpt lat="44.2778" lon="5.28564">
        <ele>389.7</ele>
        <time>2014-05-04T12:22:01Z</time>
      </trkpt>
      <trkpt lat="44.27782" lon="5.28557">
        <ele>389.5</ele>
        <time>2014-05-04T12:22:02Z</time>
      </trkpt>
      <trkpt lat="44.27784" lon="5.28549">
        <ele>389.3</ele>
        <time>2014-05-04T12:22:03Z</time>
      </trkpt>
      <trkpt lat="44.27785" lon="5.28542">
        <ele>389</ele>
        <time>2014-05-04T12:22:04Z</time>
      </trkpt>
      <trkpt lat="44.27787" lon="5.28534">
        <ele>388.7</ele>
        <time>2014-05-04T12:22:05Z</time>
      </trkpt>
      <trkpt lat="44.27789" lon="5.28527">
        <ele>388.4</ele>
        <time>2014-05-04T12:22:06Z</time>
      </trkpt>
      <trkpt lat="44.27792" lon="5.2852">
        <ele>388.2</ele>
        <time>2014-05-04T12:22:07Z</time>
      </trkpt>
      <trkpt lat="44.27794" lon="5.28512">
        <ele>387.9</ele>
        <time>2014-05-04T12:22:08Z</time>
      </trkpt>
      <trkpt lat="44.27797" lon="5.28505">
        <ele>387.6</ele>
        <time>2014-05-04T12:22:09Z</time>
      </trkpt>
      <trkpt lat="44.278" lon="5.28498">
        <ele>387.4</ele>
        <time>2014-05-04T12:22:10Z</time>
      </trkpt>
      <trkpt lat="44.27803" lon="5.28492">
        <ele>387.3</ele>
        <time>2014-05-04T12:22:11Z</time>
      </trkpt>
      <trkpt lat="44.27806" lon="5.28485">
        <ele>387.1</ele>
        <time>2014-05-04T12:22:12Z</time>
      </trkpt>
      <trkpt lat="44.27809" lon="5.28479">
        <ele>387</ele>
        <time>2014-05-04T12:22:13Z</time>
      </trkpt>
      <trkpt lat="44.27812" lon="5.28472">
        <ele>386.9</ele>
        <time>2014-05-04T12:22:14Z</time>
      </trkpt>
      <trkpt lat="44.27815" lon="5.28466">
        <ele>386.8</ele>
        <time>2014-05-04T12:22:15Z</time>
      </trkpt>
      <trkpt lat="44.27818" lon="5.28459">
        <ele>386.7</ele>
        <time>2014-05-04T12:22:16Z</time>
      </trkpt>
      <trkpt lat="44.27821" lon="5.28452">
        <ele>386.6</ele>
        <time>2014-05-04T12:22:17Z</time>
      </trkpt>
      <trkpt lat="44.27824" lon="5.28446">
        <ele>386.5</ele>
        <time>2014-05-04T12:22:18Z</time>
      </trkpt>
      <trkpt lat="44.27827" lon="5.28441">
        <ele>386.4</ele>
        <time>2014-05-04T12:22:19Z</time>
      </trkpt>
      <trkpt lat="44.2783" lon="5.28434">
        <ele>386.2</ele>
        <time>2014-05-04T12:22:20Z</time>
      </trkpt>
      <trkpt lat="44.27832" lon="5.28428">
        <ele>386.1</ele>
        <time>2014-05-04T12:22:21Z</time>
      </trkpt>
      <trkpt lat="44.27834" lon="5.28421">
        <ele>386.1</ele>
        <time>2014-05-04T12:22:22Z</time>
      </trkpt>
      <trkpt lat="44.27834" lon="5.28414">
        <ele>386</ele>
        <time>2014-05-04T12:22:23Z</time>
      </trkpt>
      <trkpt lat="44.27834" lon="5.28405">
        <ele>385.9</ele>
        <time>2014-05-04T12:22:24Z</time>
      </trkpt>
      <trkpt lat="44.27833" lon="5.28396">
        <ele>385.7</ele>
        <time>2014-05-04T12:22:25Z</time>
      </trkpt>
      <trkpt lat="44.27833" lon="5.28386">
        <ele>385.6</ele>
        <time>2014-05-04T12:22:26Z</time>
      </trkpt>
      <trkpt lat="44.27833" lon="5.28377">
        <ele>385.5</ele>
        <time>2014-05-04T12:22:27Z</time>
      </trkpt>
      <trkpt lat="44.27833" lon="5.28367">
        <ele>385.4</ele>
        <time>2014-05-04T12:22:28Z</time>
      </trkpt>
      <trkpt lat="44.27833" lon="5.28357">
        <ele>385.3</ele>
        <time>2014-05-04T12:22:29Z</time>
      </trkpt>
      <trkpt lat="44.27833" lon="5.28348">
        <ele>385.2</ele>
        <time>2014-05-04T12:22:30Z</time>
      </trkpt>
      <trkpt lat="44.27831" lon="5.28338">
        <ele>385</ele>
        <time>2014-05-04T12:22:31Z</time>
      </trkpt>
      <trkpt lat="44.27829" lon="5.28329">
        <ele>384.8</ele>
        <time>2014-05-04T12:22:32Z</time>
      </trkpt>
      <trkpt lat="44.27826" lon="5.2832">
        <ele>384.4</ele>
        <time>2014-05-04T12:22:33Z</time>
      </trkpt>
      <trkpt lat="44.27824" lon="5.28311">
        <ele>384.1</ele>
        <time>2014-05-04T12:22:34Z</time>
      </trkpt>
      <trkpt lat="44.2782" lon="5.28295">
        <ele>383.5</ele>
        <time>2014-05-04T12:22:36Z</time>
      </trkpt>
      <trkpt lat="44.27817" lon="5.28287">
        <ele>383.2</ele>
        <time>2014-05-04T12:22:37Z</time>
      </trkpt>
      <trkpt lat="44.27814" lon="5.28279">
        <ele>383</ele>
        <time>2014-05-04T12:22:38Z</time>
      </trkpt>
      <trkpt lat="44.27813" lon="5.28272">
        <ele>382.7</ele>
        <time>2014-05-04T12:22:39Z</time>
      </trkpt>
      <trkpt lat="44.27812" lon="5.28264">
        <ele>382.4</ele>
        <time>2014-05-04T12:22:40Z</time>
      </trkpt>
      <trkpt lat="44.27811" lon="5.28255">
        <ele>382.2</ele>
        <time>2014-05-04T12:22:41Z</time>
      </trkpt>
      <trkpt lat="44.27811" lon="5.28247">
        <ele>381.9</ele>
        <time>2014-05-04T12:22:42Z</time>
      </trkpt>
      <trkpt lat="44.27811" lon="5.28239">
        <ele>381.7</ele>
        <time>2014-05-04T12:22:43Z</time>
      </trkpt>
      <trkpt lat="44.27811" lon="5.2823">
        <ele>381.5</ele>
        <time>2014-05-04T12:22:44Z</time>
      </trkpt>
      <trkpt lat="44.27811" lon="5.28222">
        <ele>381.2</ele>
        <time>2014-05-04T12:22:45Z</time>
      </trkpt>
      <trkpt lat="44.27812" lon="5.28213">
        <ele>381</ele>
        <time>2014-05-04T12:22:46Z</time>
      </trkpt>
      <trkpt lat="44.27812" lon="5.28205">
        <ele>380.8</ele>
        <time>2014-05-04T12:22:47Z</time>
      </trkpt>
      <trkpt lat="44.27812" lon="5.28196">
        <ele>380.5</ele>
        <time>2014-05-04T12:22:48Z</time>
      </trkpt>
      <trkpt lat="44.27813" lon="5.28187">
        <ele>380.3</ele>
        <time>2014-05-04T12:22:49Z</time>
      </trkpt>
      <trkpt lat="44.27813" lon="5.28178">
        <ele>380</ele>
        <time>2014-05-04T12:22:50Z</time>
      </trkpt>
      <trkpt lat="44.27814" lon="5.28169">
        <ele>379.8</ele>
        <time>2014-05-04T12:22:51Z</time>
      </trkpt>
      <trkpt lat="44.27814" lon="5.2816">
        <ele>379.7</ele>
        <time>2014-05-04T12:22:52Z</time>
      </trkpt>
      <trkpt lat="44.27815" lon="5.28151">
        <ele>379.6</ele>
        <time>2014-05-04T12:22:53Z</time>
      </trkpt>
      <trkpt lat="44.27815" lon="5.28142">
        <ele>379.5</ele>
        <time>2014-05-04T12:22:54Z</time>
      </trkpt>
      <trkpt lat="44.27815" lon="5.28132">
        <ele>379.4</ele>
        <time>2014-05-04T12:22:55Z</time>
      </trkpt>
      <trkpt lat="44.27816" lon="5.28123">
        <ele>379.3</ele>
        <time>2014-05-04T12:22:56Z</time>
      </trkpt>
      <trkpt lat="44.27817" lon="5.28113">
        <ele>379.1</ele>
        <time>2014-05-04T12:22:57Z</time>
      </trkpt>
      <trkpt lat="44.27818" lon="5.28103">
        <ele>379.1</ele>
        <time>2014-05-04T12:22:58Z</time>
      </trkpt>
      <trkpt lat="44.27819" lon="5.28093">
        <ele>378.9</ele>
        <time>2014-05-04T12:22:59Z</time>
      </trkpt>
      <trkpt lat="44.2782" lon="5.28083">
        <ele>378.8</ele>
        <time>2014-05-04T12:23:00Z</time>
      </trkpt>
      <trkpt lat="44.27822" lon="5.28074">
        <ele>378.7</ele>
        <time>2014-05-04T12:23:01Z</time>
      </trkpt>
      <trkpt lat="44.27823" lon="5.28065">
        <ele>378.6</ele>
        <time>2014-05-04T12:23:02Z</time>
      </trkpt>
      <trkpt lat="44.27826" lon="5.28056">
        <ele>378.6</ele>
        <time>2014-05-04T12:23:03Z</time>
      </trkpt>
      <trkpt lat="44.27829" lon="5.28047">
        <ele>378.5</ele>
        <time>2014-05-04T12:23:04Z</time>
      </trkpt>
      <trkpt lat="44.27833" lon="5.2804">
        <ele>378.5</ele>
        <time>2014-05-04T12:23:05Z</time>
      </trkpt>
      <trkpt lat="44.27837" lon="5.28033">
        <ele>378.3</ele>
        <time>2014-05-04T12:23:06Z</time>
      </trkpt>
      <trkpt lat="44.27842" lon="5.28027">
        <ele>378.2</ele>
        <time>2014-05-04T12:23:07Z</time>
      </trkpt>
      <trkpt lat="44.27848" lon="5.28023">
        <ele>378.1</ele>
        <time>2014-05-04T12:23:08Z</time>
      </trkpt>
      <trkpt lat="44.27854" lon="5.2802">
        <ele>378</ele>
        <time>2014-05-04T12:23:09Z</time>
      </trkpt>
      <trkpt lat="44.27861" lon="5.28019">
        <ele>377.9</ele>
        <time>2014-05-04T12:23:10Z</time>
      </trkpt>
      <trkpt lat="44.27867" lon="5.28014">
        <ele>377.8</ele>
        <time>2014-05-04T12:23:11Z</time>
      </trkpt>
      <trkpt lat="44.2787" lon="5.28007">
        <ele>377.6</ele>
        <time>2014-05-04T12:23:12Z</time>
      </trkpt>
      <trkpt lat="44.2787" lon="5.27999">
        <ele>377.5</ele>
        <time>2014-05-04T12:23:13Z</time>
      </trkpt>
      <trkpt lat="44.27869" lon="5.27991">
        <ele>377.5</ele>
        <time>2014-05-04T12:23:14Z</time>
      </trkpt>
      <trkpt lat="44.27867" lon="5.27983">
        <ele>377.4</ele>
        <time>2014-05-04T12:23:15Z</time>
      </trkpt>
      <trkpt lat="44.27864" lon="5.27975">
        <ele>377.3</ele>
        <time>2014-05-04T12:23:16Z</time>
      </trkpt>
      <trkpt lat="44.27861" lon="5.27967">
        <ele>377.1</ele>
        <time>2014-05-04T12:23:17Z</time>
      </trkpt>
      <trkpt lat="44.27856" lon="5.27959">
        <ele>376.9</ele>
        <time>2014-05-04T12:23:18Z</time>
      </trkpt>
      <trkpt lat="44.27851" lon="5.27952">
        <ele>376.7</ele>
        <time>2014-05-04T12:23:19Z</time>
      </trkpt>
      <trkpt lat="44.27846" lon="5.27945">
        <ele>376.3</ele>
        <time>2014-05-04T12:23:20Z</time>
      </trkpt>
      <trkpt lat="44.2784" lon="5.27939">
        <ele>376</ele>
        <time>2014-05-04T12:23:21Z</time>
      </trkpt>
      <trkpt lat="44.27834" lon="5.27933">
        <ele>375.6</ele>
        <time>2014-05-04T12:23:22Z</time>
      </trkpt>
      <trkpt lat="44.27827" lon="5.27927">
        <ele>375.4</ele>
        <time>2014-05-04T12:23:23Z</time>
      </trkpt>
      <trkpt lat="44.27821" lon="5.27921">
        <ele>375.1</ele>
        <time>2014-05-04T12:23:24Z</time>
      </trkpt>
      <trkpt lat="44.27816" lon="5.27915">
        <ele>375</ele>
        <time>2014-05-04T12:23:25Z</time>
      </trkpt>
      <trkpt lat="44.2781" lon="5.2791">
        <ele>375</ele>
        <time>2014-05-04T12:23:26Z</time>
      </trkpt>
      <trkpt lat="44.27804" lon="5.27905">
        <ele>375</ele>
        <time>2014-05-04T12:23:27Z</time>
      </trkpt>
      <trkpt lat="44.27798" lon="5.279">
        <ele>375</ele>
        <time>2014-05-04T12:23:28Z</time>
      </trkpt>
      <trkpt lat="44.27793" lon="5.27894">
        <ele>375</ele>
        <time>2014-05-04T12:23:29Z</time>
      </trkpt>
      <trkpt lat="44.27787" lon="5.27888">
        <ele>375</ele>
        <time>2014-05-04T12:23:30Z</time>
      </trkpt>
      <trkpt lat="44.27782" lon="5.27882">
        <ele>374.9</ele>
        <time>2014-05-04T12:23:31Z</time>
      </trkpt>
      <trkpt lat="44.27778" lon="5.27876">
        <ele>374.8</ele>
        <time>2014-05-04T12:23:32Z</time>
      </trkpt>
      <trkpt lat="44.27773" lon="5.2787">
        <ele>374.7</ele>
        <time>2014-05-04T12:23:33Z</time>
      </trkpt>
      <trkpt lat="44.2777" lon="5.27863">
        <ele>374.7</ele>
        <time>2014-05-04T12:23:34Z</time>
      </trkpt>
      <trkpt lat="44.27766" lon="5.27857">
        <ele>374.6</ele>
        <time>2014-05-04T12:23:35Z</time>
      </trkpt>
      <trkpt lat="44.27762" lon="5.27851">
        <ele>374.4</ele>
        <time>2014-05-04T12:23:36Z</time>
      </trkpt>
      <trkpt lat="44.27753" lon="5.27841">
        <ele>374.2</ele>
        <time>2014-05-04T12:23:38Z</time>
      </trkpt>
      <trkpt lat="44.27749" lon="5.27837">
        <ele>374</ele>
        <time>2014-05-04T12:23:39Z</time>
      </trkpt>
      <trkpt lat="44.27745" lon="5.27832">
        <ele>373.9</ele>
        <time>2014-05-04T12:23:40Z</time>
      </trkpt>
      <trkpt lat="44.27741" lon="5.27827">
        <ele>373.8</ele>
        <time>2014-05-04T12:23:41Z</time>
      </trkpt>
      <trkpt lat="44.27737" lon="5.27822">
        <ele>373.7</ele>
        <time>2014-05-04T12:23:42Z</time>
      </trkpt>
      <trkpt lat="44.27733" lon="5.27818">
        <ele>373.6</ele>
        <time>2014-05-04T12:23:43Z</time>
      </trkpt>
      <trkpt lat="44.27729" lon="5.27813">
        <ele>373.5</ele>
        <time>2014-05-04T12:23:44Z</time>
      </trkpt>
      <trkpt lat="44.27725" lon="5.27808">
        <ele>373.4</ele>
        <time>2014-05-04T12:23:45Z</time>
      </trkpt>
      <trkpt lat="44.27721" lon="5.27804">
        <ele>373.3</ele>
        <time>2014-05-04T12:23:46Z</time>
      </trkpt>
      <trkpt lat="44.27717" lon="5.27799">
        <ele>373.2</ele>
        <time>2014-05-04T12:23:47Z</time>
      </trkpt>
      <trkpt lat="44.27712" lon="5.27795">
        <ele>373.1</ele>
        <time>2014-05-04T12:23:48Z</time>
      </trkpt>
      <trkpt lat="44.27708" lon="5.27791">
        <ele>373</ele>
        <time>2014-05-04T12:23:49Z</time>
      </trkpt>
      <trkpt lat="44.27704" lon="5.27788">
        <ele>372.9</ele>
        <time>2014-05-04T12:23:50Z</time>
      </trkpt>
      <trkpt lat="44.277" lon="5.27784">
        <ele>372.8</ele>
        <time>2014-05-04T12:23:51Z</time>
      </trkpt>
      <trkpt lat="44.27696" lon="5.27781">
        <ele>372.7</ele>
        <time>2014-05-04T12:23:52Z</time>
      </trkpt>
      <trkpt lat="44.27692" lon="5.27777">
        <ele>372.6</ele>
        <time>2014-05-04T12:23:53Z</time>
      </trkpt>
      <trkpt lat="44.27688" lon="5.27774">
        <ele>372.5</ele>
        <time>2014-05-04T12:23:54Z</time>
      </trkpt>
      <trkpt lat="44.27683" lon="5.2777">
        <ele>372.4</ele>
        <time>2014-05-04T12:23:55Z</time>
      </trkpt>
      <trkpt lat="44.27679" lon="5.27767">
        <ele>372.4</ele>
        <time>2014-05-04T12:23:56Z</time>
      </trkpt>
      <trkpt lat="44.27675" lon="5.27763">
        <ele>372.3</ele>
        <time>2014-05-04T12:23:57Z</time>
      </trkpt>
      <trkpt lat="44.27671" lon="5.2776">
        <ele>372.2</ele>
        <time>2014-05-04T12:23:58Z</time>
      </trkpt>
      <trkpt lat="44.27666" lon="5.27756">
        <ele>372.1</ele>
        <time>2014-05-04T12:23:59Z</time>
      </trkpt>
      <trkpt lat="44.27662" lon="5.27753">
        <ele>372</ele>
        <time>2014-05-04T12:24:00Z</time>
      </trkpt>
      <trkpt lat="44.27658" lon="5.27749">
        <ele>372</ele>
        <time>2014-05-04T12:24:01Z</time>
      </trkpt>
      <trkpt lat="44.27654" lon="5.27746">
        <ele>372.1</ele>
        <time>2014-05-04T12:24:02Z</time>
      </trkpt>
      <trkpt lat="44.2765" lon="5.27742">
        <ele>372.1</ele>
        <time>2014-05-04T12:24:03Z</time>
      </trkpt>
      <trkpt lat="44.27645" lon="5.27739">
        <ele>372.1</ele>
        <time>2014-05-04T12:24:04Z</time>
      </trkpt>
      <trkpt lat="44.27641" lon="5.27735">
        <ele>372.1</ele>
        <time>2014-05-04T12:24:05Z</time>
      </trkpt>
      <trkpt lat="44.27637" lon="5.27732">
        <ele>372.1</ele>
        <time>2014-05-04T12:24:06Z</time>
      </trkpt>
      <trkpt lat="44.27633" lon="5.27729">
        <ele>372.2</ele>
        <time>2014-05-04T12:24:07Z</time>
      </trkpt>
      <trkpt lat="44.27625" lon="5.27723">
        <ele>372.2</ele>
        <time>2014-05-04T12:24:09Z</time>
      </trkpt>
      <trkpt lat="44.27621" lon="5.27721">
        <ele>372.2</ele>
        <time>2014-05-04T12:24:10Z</time>
      </trkpt>
      <trkpt lat="44.27613" lon="5.27716">
        <ele>372.1</ele>
        <time>2014-05-04T12:24:12Z</time>
      </trkpt>
      <trkpt lat="44.27609" lon="5.27713">
        <ele>372.1</ele>
        <time>2014-05-04T12:24:13Z</time>
      </trkpt>
      <trkpt lat="44.27602" lon="5.27707">
        <ele>372.1</ele>
        <time>2014-05-04T12:24:15Z</time>
      </trkpt>
      <trkpt lat="44.27595" lon="5.27701">
        <ele>372.1</ele>
        <time>2014-05-04T12:24:17Z</time>
      </trkpt>
      <trkpt lat="44.27588" lon="5.27696">
        <ele>372</ele>
        <time>2014-05-04T12:24:19Z</time>
      </trkpt>
      <trkpt lat="44.27582" lon="5.27691">
        <ele>372</ele>
        <time>2014-05-04T12:24:21Z</time>
      </trkpt>
      <trkpt lat="44.27579" lon="5.27686">
        <ele>371.9</ele>
        <time>2014-05-04T12:24:23Z</time>
      </trkpt>
      <trkpt lat="44.27577" lon="5.27679">
        <ele>371.9</ele>
        <time>2014-05-04T12:24:27Z</time>
      </trkpt>
      <trkpt lat="44.27579" lon="5.27671">
        <ele>371.9</ele>
        <time>2014-05-04T12:24:30Z</time>
      </trkpt>
      <trkpt lat="44.27583" lon="5.27664">
        <ele>372</ele>
        <time>2014-05-04T12:24:33Z</time>
      </trkpt>
      <trkpt lat="44.27585" lon="5.27658">
        <ele>372.1</ele>
        <time>2014-05-04T12:24:36Z</time>
      </trkpt>
      <trkpt lat="44.27587" lon="5.27652">
        <ele>372.2</ele>
        <time>2014-05-04T12:24:40Z</time>
      </trkpt>
      <trkpt lat="44.27594" lon="5.2764">
        <ele>372.5</ele>
        <time>2014-05-04T12:24:50Z</time>
      </trkpt>
      <trkpt lat="44.27598" lon="5.27632">
        <ele>372.7</ele>
        <time>2014-05-04T12:24:53Z</time>
      </trkpt>
      <trkpt lat="44.27601" lon="5.27624">
        <ele>372.8</ele>
        <time>2014-05-04T12:24:55Z</time>
      </trkpt>
      <trkpt lat="44.27604" lon="5.27619">
        <ele>373</ele>
        <time>2014-05-04T12:24:59Z</time>
      </trkpt>
      <trkpt lat="44.27609" lon="5.2762">
        <ele>373.1</ele>
        <time>2014-05-04T12:25:02Z</time>
      </trkpt>
      <trkpt lat="44.27613" lon="5.27621">
        <ele>373.1</ele>
        <time>2014-05-04T12:25:08Z</time>
      </trkpt>
      <trkpt lat="44.27614" lon="5.27628">
        <ele>373</ele>
        <time>2014-05-04T12:25:52Z</time>
      </trkpt>
      <trkpt lat="44.27616" lon="5.27615">
        <ele>373.3</ele>
        <time>2014-05-04T12:26:11Z</time>
      </trkpt>
      <trkpt lat="44.2762" lon="5.27614">
        <ele>373.4</ele>
        <time>2014-05-04T12:26:13Z</time>
      </trkpt>
      <trkpt lat="44.27625" lon="5.27616">
        <ele>373.4</ele>
        <time>2014-05-04T12:26:15Z</time>
      </trkpt>
      <trkpt lat="44.2763" lon="5.27615">
        <ele>373.5</ele>
        <time>2014-05-04T12:26:17Z</time>
      </trkpt>
      <trkpt lat="44.27634" lon="5.27615">
        <ele>373.6</ele>
        <time>2014-05-04T12:26:19Z</time>
      </trkpt>
      <trkpt lat="44.27639" lon="5.27612">
        <ele>373.8</ele>
        <time>2014-05-04T12:26:22Z</time>
      </trkpt>
      <trkpt lat="44.27643" lon="5.27608">
        <ele>374</ele>
        <time>2014-05-04T12:27:03Z</time>
      </trkpt>
    </trkseg>
  </trk>
</gpx>